<?xml version='1.0' encoding='UTF-8'?><gpx version="1.1" creator="JPX - https://github.com/jenetics/jpx" xmlns="http://www.topografix.com/GPX/1/1"><trk><trkseg><trkpt lat="41.4847169" lon="1.8548542"><ele>218.00000000000003</ele><time>2026-04-05T07:14:27.776Z</time></trkpt><trkpt lat="41.4847165" lon="1.8550038"><ele>218.0</ele><time>2026-04-05T07:14:29.776Z</time></trkpt><trkpt lat="41.4846723" lon="1.8551576"><ele>218.0</ele><time>2026-04-05T07:14:31.777Z</time></trkpt><trkpt lat="41.4846427" lon="1.855238"><ele>218.0</ele><time>2026-04-05T07:14:32.776Z</time></trkpt><trkpt lat="41.4846161" lon="1.855315"><ele>218.00000000000003</ele><time>2026-04-05T07:14:33.776Z</time></trkpt><trkpt lat="41.4845938" lon="1.8553945"><ele>218.0</ele><time>2026-04-05T07:14:34.776Z</time></trkpt><trkpt lat="41.4845728" lon="1.8554771"><ele>218.8</ele><time>2026-04-05T07:14:35.776Z</time></trkpt><trkpt lat="41.4845282" lon="1.8556275"><ele>219.60000000000002</ele><time>2026-04-05T07:14:37.776Z</time></trkpt><trkpt lat="41.4844828" lon="1.8557268"><ele>220.39999999999998</ele><time>2026-04-05T07:14:38.777Z</time></trkpt><trkpt lat="41.4844228" lon="1.8558322"><ele>221.2</ele><time>2026-04-05T07:14:39.776Z</time></trkpt><trkpt lat="41.48435" lon="1.8559454"><ele>222.0</ele><time>2026-04-05T07:14:40.776Z</time></trkpt><trkpt lat="41.4842763" lon="1.8560658"><ele>220.0</ele><time>2026-04-05T07:14:41.776Z</time></trkpt><trkpt lat="41.4841996" lon="1.8561961"><ele>218.0</ele><time>2026-04-05T07:14:42.776Z</time></trkpt><trkpt lat="41.4841236" lon="1.8563362"><ele>216.0</ele><time>2026-04-05T07:14:43.777Z</time></trkpt><trkpt lat="41.4840428" lon="1.8564768"><ele>214.0</ele><time>2026-04-05T07:14:44.776Z</time></trkpt><trkpt lat="41.4839612" lon="1.8566175"><ele>214.0</ele><time>2026-04-05T07:14:45.777Z</time></trkpt><trkpt lat="41.483874" lon="1.8567544"><ele>214.0</ele><time>2026-04-05T07:14:46.776Z</time></trkpt><trkpt lat="41.4837919" lon="1.8568918"><ele>214.0</ele><time>2026-04-05T07:14:47.776Z</time></trkpt><trkpt lat="41.4837088" lon="1.8570329"><ele>214.0</ele><time>2026-04-05T07:14:48.776Z</time></trkpt><trkpt lat="41.4836305" lon="1.8571741"><ele>214.25</ele><time>2026-04-05T07:14:49.777Z</time></trkpt><trkpt lat="41.4835453" lon="1.8573194"><ele>214.5</ele><time>2026-04-05T07:14:50.776Z</time></trkpt><trkpt lat="41.4834624" lon="1.8574581"><ele>214.75</ele><time>2026-04-05T07:14:51.776Z</time></trkpt><trkpt lat="41.4833856" lon="1.8575918"><ele>215.0</ele><time>2026-04-05T07:14:52.777Z</time></trkpt><trkpt lat="41.483317" lon="1.857717"><ele>214.4</ele><time>2026-04-05T07:14:53.776Z</time></trkpt><trkpt lat="41.4832523" lon="1.8578416"><ele>213.8</ele><time>2026-04-05T07:14:54.777Z</time></trkpt><trkpt lat="41.4831979" lon="1.8579499"><ele>213.2</ele><time>2026-04-05T07:14:55.776Z</time></trkpt><trkpt lat="41.4831548" lon="1.8580458"><ele>212.6</ele><time>2026-04-05T07:14:56.777Z</time></trkpt><trkpt lat="41.4831187" lon="1.8581149"><ele>212.0</ele><time>2026-04-05T07:14:57.776Z</time></trkpt><trkpt lat="41.4830406" lon="1.8581887"><ele>212.00000000000003</ele><time>2026-04-05T07:14:59.777Z</time></trkpt><trkpt lat="41.4830469" lon="1.8582904"><ele>212.0</ele><time>2026-04-05T07:15:03.777Z</time></trkpt><trkpt lat="41.483126" lon="1.8582343"><ele>212.0</ele><time>2026-04-05T07:15:12.777Z</time></trkpt><trkpt lat="41.4831686" lon="1.8581446"><ele>212.0</ele><time>2026-04-05T07:15:13.777Z</time></trkpt><trkpt lat="41.4832166" lon="1.8580329"><ele>212.00000000000003</ele><time>2026-04-05T07:15:14.776Z</time></trkpt><trkpt lat="41.4832818" lon="1.8579189"><ele>212.0</ele><time>2026-04-05T07:15:15.776Z</time></trkpt><trkpt lat="41.4834159" lon="1.857656"><ele>212.75</ele><time>2026-04-05T07:15:17.776Z</time></trkpt><trkpt lat="41.4834833" lon="1.8575283"><ele>213.5</ele><time>2026-04-05T07:15:18.777Z</time></trkpt><trkpt lat="41.4835548" lon="1.8573934"><ele>214.25</ele><time>2026-04-05T07:15:19.777Z</time></trkpt><trkpt lat="41.4836286" lon="1.8572595"><ele>215.0</ele><time>2026-04-05T07:15:20.776Z</time></trkpt><trkpt lat="41.4837057" lon="1.8571185"><ele>214.75</ele><time>2026-04-05T07:15:21.776Z</time></trkpt><trkpt lat="41.4837889" lon="1.8569681"><ele>214.5</ele><time>2026-04-05T07:15:22.776Z</time></trkpt><trkpt lat="41.4838746" lon="1.8568195"><ele>214.25</ele><time>2026-04-05T07:15:23.777Z</time></trkpt><trkpt lat="41.4839607" lon="1.8566744"><ele>214.0</ele><time>2026-04-05T07:15:24.776Z</time></trkpt><trkpt lat="41.4840428" lon="1.8565326"><ele>214.0</ele><time>2026-04-05T07:15:25.777Z</time></trkpt><trkpt lat="41.4841327" lon="1.8563776"><ele>214.0</ele><time>2026-04-05T07:15:26.777Z</time></trkpt><trkpt lat="41.4842266" lon="1.8562185"><ele>214.0</ele><time>2026-04-05T07:15:27.777Z</time></trkpt><trkpt lat="41.4843218" lon="1.8560593"><ele>213.0</ele><time>2026-04-05T07:15:28.776Z</time></trkpt><trkpt lat="41.4844147" lon="1.8559017"><ele>212.0</ele><time>2026-04-05T07:15:29.776Z</time></trkpt><trkpt lat="41.4845065" lon="1.8557473"><ele>211.0</ele><time>2026-04-05T07:15:30.776Z</time></trkpt><trkpt lat="41.484602" lon="1.8555772"><ele>211.0</ele><time>2026-04-05T07:15:31.776Z</time></trkpt><trkpt lat="41.4846989" lon="1.8553984"><ele>211.0</ele><time>2026-04-05T07:15:32.776Z</time></trkpt><trkpt lat="41.4847876" lon="1.8552183"><ele>211.0</ele><time>2026-04-05T07:15:33.776Z</time></trkpt><trkpt lat="41.4848746" lon="1.8550332"><ele>213.33333333333331</ele><time>2026-04-05T07:15:34.776Z</time></trkpt><trkpt lat="41.4849601" lon="1.8548424"><ele>215.66666666666669</ele><time>2026-04-05T07:15:35.776Z</time></trkpt><trkpt lat="41.4850433" lon="1.8546502"><ele>218.0</ele><time>2026-04-05T07:15:36.777Z</time></trkpt><trkpt lat="41.4851228" lon="1.8544571"><ele>218.0</ele><time>2026-04-05T07:15:37.777Z</time></trkpt><trkpt lat="41.4852059" lon="1.8542684"><ele>218.0</ele><time>2026-04-05T07:15:38.776Z</time></trkpt><trkpt lat="41.4852995" lon="1.8540854"><ele>218.0</ele><time>2026-04-05T07:15:39.777Z</time></trkpt><trkpt lat="41.4854098" lon="1.8539089"><ele>217.33333333333334</ele><time>2026-04-05T07:15:40.777Z</time></trkpt><trkpt lat="41.4855219" lon="1.8537418"><ele>216.66666666666669</ele><time>2026-04-05T07:15:41.776Z</time></trkpt><trkpt lat="41.4856457" lon="1.853591"><ele>216.0</ele><time>2026-04-05T07:15:42.777Z</time></trkpt><trkpt lat="41.4857745" lon="1.8534521"><ele>216.0</ele><time>2026-04-05T07:15:43.776Z</time></trkpt><trkpt lat="41.4859066" lon="1.8533089"><ele>216.0</ele><time>2026-04-05T07:15:44.777Z</time></trkpt><trkpt lat="41.4860378" lon="1.8531651"><ele>216.0</ele><time>2026-04-05T07:15:45.777Z</time></trkpt><trkpt lat="41.4861712" lon="1.8530251"><ele>216.66666666666669</ele><time>2026-04-05T07:15:46.776Z</time></trkpt><trkpt lat="41.486303" lon="1.8528839"><ele>217.33333333333334</ele><time>2026-04-05T07:15:47.776Z</time></trkpt><trkpt lat="41.4864344" lon="1.8527478"><ele>218.0</ele><time>2026-04-05T07:15:48.776Z</time></trkpt><trkpt lat="41.4865629" lon="1.8526139"><ele>218.0</ele><time>2026-04-05T07:15:49.776Z</time></trkpt><trkpt lat="41.4866976" lon="1.8524697"><ele>218.0</ele><time>2026-04-05T07:15:50.776Z</time></trkpt><trkpt lat="41.4868354" lon="1.8523145"><ele>218.0</ele><time>2026-04-05T07:15:51.776Z</time></trkpt><trkpt lat="41.4869598" lon="1.8521549"><ele>218.0</ele><time>2026-04-05T07:15:52.776Z</time></trkpt><trkpt lat="41.4870708" lon="1.8519811"><ele>218.0</ele><time>2026-04-05T07:15:53.777Z</time></trkpt><trkpt lat="41.4871633" lon="1.8517902"><ele>218.0</ele><time>2026-04-05T07:15:54.777Z</time></trkpt><trkpt lat="41.4872411" lon="1.8515883"><ele>221.66666666666669</ele><time>2026-04-05T07:15:55.776Z</time></trkpt><trkpt lat="41.4873146" lon="1.8513842"><ele>225.33333333333331</ele><time>2026-04-05T07:15:56.776Z</time></trkpt><trkpt lat="41.4873861" lon="1.8511769"><ele>229.0</ele><time>2026-04-05T07:15:57.777Z</time></trkpt><trkpt lat="41.4874608" lon="1.8509627"><ele>226.33333333333331</ele><time>2026-04-05T07:15:58.777Z</time></trkpt><trkpt lat="41.4875419" lon="1.8507475"><ele>223.66666666666669</ele><time>2026-04-05T07:15:59.776Z</time></trkpt><trkpt lat="41.4876178" lon="1.8505444"><ele>221.0</ele><time>2026-04-05T07:16:00.777Z</time></trkpt><trkpt lat="41.4877008" lon="1.8503346"><ele>220.33333333333334</ele><time>2026-04-05T07:16:01.776Z</time></trkpt><trkpt lat="41.4877895" lon="1.8501201"><ele>219.66666666666669</ele><time>2026-04-05T07:16:02.777Z</time></trkpt><trkpt lat="41.4878892" lon="1.8499154"><ele>219.0</ele><time>2026-04-05T07:16:03.776Z</time></trkpt><trkpt lat="41.4880024" lon="1.849723"><ele>222.33333333333331</ele><time>2026-04-05T07:16:04.776Z</time></trkpt><trkpt lat="41.4881222" lon="1.8495376"><ele>225.66666666666666</ele><time>2026-04-05T07:16:05.776Z</time></trkpt><trkpt lat="41.4882442" lon="1.8493654"><ele>229.0</ele><time>2026-04-05T07:16:06.776Z</time></trkpt><trkpt lat="41.488368" lon="1.8491983"><ele>229.0</ele><time>2026-04-05T07:16:07.776Z</time></trkpt><trkpt lat="41.4884887" lon="1.8490243"><ele>229.0</ele><time>2026-04-05T07:16:08.777Z</time></trkpt><trkpt lat="41.4886127" lon="1.8488618"><ele>229.0</ele><time>2026-04-05T07:16:09.777Z</time></trkpt><trkpt lat="41.4887371" lon="1.8486957"><ele>232.0</ele><time>2026-04-05T07:16:10.777Z</time></trkpt><trkpt lat="41.4888609" lon="1.8485325"><ele>235.0</ele><time>2026-04-05T07:16:11.777Z</time></trkpt><trkpt lat="41.4889833" lon="1.8483705"><ele>238.0</ele><time>2026-04-05T07:16:12.776Z</time></trkpt><trkpt lat="41.4890998" lon="1.8482123"><ele>238.0</ele><time>2026-04-05T07:16:13.776Z</time></trkpt><trkpt lat="41.4892235" lon="1.848055"><ele>238.0</ele><time>2026-04-05T07:16:14.777Z</time></trkpt><trkpt lat="41.4893413" lon="1.8479001"><ele>238.0</ele><time>2026-04-05T07:16:15.776Z</time></trkpt><trkpt lat="41.4894573" lon="1.8477481"><ele>239.5</ele><time>2026-04-05T07:16:16.777Z</time></trkpt><trkpt lat="41.4895686" lon="1.8476012"><ele>241.0</ele><time>2026-04-05T07:16:17.777Z</time></trkpt><trkpt lat="41.4896718" lon="1.8474589"><ele>242.5</ele><time>2026-04-05T07:16:18.777Z</time></trkpt><trkpt lat="41.4897621" lon="1.8473195"><ele>244.0</ele><time>2026-04-05T07:16:19.776Z</time></trkpt><trkpt lat="41.4898379" lon="1.847189"><ele>244.0</ele><time>2026-04-05T07:16:20.776Z</time></trkpt><trkpt lat="41.4899067" lon="1.8470627"><ele>244.0</ele><time>2026-04-05T07:16:21.777Z</time></trkpt><trkpt lat="41.4899692" lon="1.8469402"><ele>244.0</ele><time>2026-04-05T07:16:22.776Z</time></trkpt><trkpt lat="41.4900366" lon="1.8468165"><ele>244.0</ele><time>2026-04-05T07:16:23.777Z</time></trkpt><trkpt lat="41.4901007" lon="1.8466942"><ele>244.0</ele><time>2026-04-05T07:16:24.776Z</time></trkpt><trkpt lat="41.4901676" lon="1.8465721"><ele>244.0</ele><time>2026-04-05T07:16:25.776Z</time></trkpt><trkpt lat="41.4902404" lon="1.8464466"><ele>244.0</ele><time>2026-04-05T07:16:26.776Z</time></trkpt><trkpt lat="41.4903116" lon="1.8463225"><ele>244.0</ele><time>2026-04-05T07:16:27.776Z</time></trkpt><trkpt lat="41.4903817" lon="1.8462024"><ele>245.25</ele><time>2026-04-05T07:16:28.777Z</time></trkpt><trkpt lat="41.4904552" lon="1.8460778"><ele>246.5</ele><time>2026-04-05T07:16:29.777Z</time></trkpt><trkpt lat="41.4905281" lon="1.8459516"><ele>247.75</ele><time>2026-04-05T07:16:30.777Z</time></trkpt><trkpt lat="41.4906096" lon="1.845821"><ele>249.0</ele><time>2026-04-05T07:16:31.777Z</time></trkpt><trkpt lat="41.4906889" lon="1.845694"><ele>249.0</ele><time>2026-04-05T07:16:32.777Z</time></trkpt><trkpt lat="41.4907713" lon="1.8455717"><ele>249.0</ele><time>2026-04-05T07:16:33.776Z</time></trkpt><trkpt lat="41.4908568" lon="1.8454476"><ele>249.0</ele><time>2026-04-05T07:16:34.777Z</time></trkpt><trkpt lat="41.4909417" lon="1.8453302"><ele>249.0</ele><time>2026-04-05T07:16:35.777Z</time></trkpt><trkpt lat="41.4910386" lon="1.8452137"><ele>249.0</ele><time>2026-04-05T07:16:36.777Z</time></trkpt><trkpt lat="41.4911367" lon="1.8451074"><ele>249.0</ele><time>2026-04-05T07:16:37.777Z</time></trkpt><trkpt lat="41.4912325" lon="1.8450124"><ele>249.0</ele><time>2026-04-05T07:16:38.777Z</time></trkpt><trkpt lat="41.491324" lon="1.8449256"><ele>249.0</ele><time>2026-04-05T07:16:39.777Z</time></trkpt><trkpt lat="41.4914083" lon="1.8448502"><ele>249.0</ele><time>2026-04-05T07:16:40.776Z</time></trkpt><trkpt lat="41.4914876" lon="1.8447814"><ele>248.99999999999997</ele><time>2026-04-05T07:16:41.777Z</time></trkpt><trkpt lat="41.4915711" lon="1.8447089"><ele>248.99999999999997</ele><time>2026-04-05T07:16:42.776Z</time></trkpt><trkpt lat="41.4916551" lon="1.8446394"><ele>249.0</ele><time>2026-04-05T07:16:43.777Z</time></trkpt><trkpt lat="41.4917352" lon="1.8445786"><ele>249.0</ele><time>2026-04-05T07:16:44.776Z</time></trkpt><trkpt lat="41.4918169" lon="1.8445175"><ele>249.0</ele><time>2026-04-05T07:16:45.777Z</time></trkpt><trkpt lat="41.4918932" lon="1.8444581"><ele>249.0</ele><time>2026-04-05T07:16:46.776Z</time></trkpt><trkpt lat="41.4919716" lon="1.8443985"><ele>249.0</ele><time>2026-04-05T07:16:47.777Z</time></trkpt><trkpt lat="41.4920487" lon="1.844343"><ele>249.0</ele><time>2026-04-05T07:16:48.777Z</time></trkpt><trkpt lat="41.4921273" lon="1.8442908"><ele>249.0</ele><time>2026-04-05T07:16:49.777Z</time></trkpt><trkpt lat="41.4922069" lon="1.8442383"><ele>249.0</ele><time>2026-04-05T07:16:50.777Z</time></trkpt><trkpt lat="41.4922987" lon="1.8441982"><ele>248.66666666666666</ele><time>2026-04-05T07:16:51.777Z</time></trkpt><trkpt lat="41.4923947" lon="1.8441747"><ele>248.33333333333331</ele><time>2026-04-05T07:16:52.777Z</time></trkpt><trkpt lat="41.492483" lon="1.8441706"><ele>248.0</ele><time>2026-04-05T07:16:53.777Z</time></trkpt><trkpt lat="41.4925614" lon="1.8441534"><ele>247.66666666666666</ele><time>2026-04-05T07:16:54.776Z</time></trkpt><trkpt lat="41.4926233" lon="1.8441095"><ele>247.33333333333331</ele><time>2026-04-05T07:16:55.776Z</time></trkpt><trkpt lat="41.4926647" lon="1.8440429"><ele>247.0</ele><time>2026-04-05T07:16:56.776Z</time></trkpt><trkpt lat="41.4926889" lon="1.8439644"><ele>246.99999999999997</ele><time>2026-04-05T07:16:57.777Z</time></trkpt><trkpt lat="41.4926975" lon="1.8438805"><ele>247.0</ele><time>2026-04-05T07:16:58.776Z</time></trkpt><trkpt lat="41.4926971" lon="1.8437777"><ele>247.0</ele><time>2026-04-05T07:16:59.776Z</time></trkpt><trkpt lat="41.492715" lon="1.8436672"><ele>247.0</ele><time>2026-04-05T07:17:00.777Z</time></trkpt><trkpt lat="41.4927626" lon="1.8435649"><ele>246.99999999999997</ele><time>2026-04-05T07:17:01.776Z</time></trkpt><trkpt lat="41.4928301" lon="1.843464"><ele>247.0</ele><time>2026-04-05T07:17:02.776Z</time></trkpt><trkpt lat="41.4929038" lon="1.8433625"><ele>248.75</ele><time>2026-04-05T07:17:03.776Z</time></trkpt><trkpt lat="41.4929836" lon="1.8432517"><ele>250.5</ele><time>2026-04-05T07:17:04.777Z</time></trkpt><trkpt lat="41.4930656" lon="1.8431325"><ele>252.25</ele><time>2026-04-05T07:17:05.776Z</time></trkpt><trkpt lat="41.4931497" lon="1.8430071"><ele>254.0</ele><time>2026-04-05T07:17:06.777Z</time></trkpt><trkpt lat="41.4932384" lon="1.8428704"><ele>254.0</ele><time>2026-04-05T07:17:07.777Z</time></trkpt><trkpt lat="41.4933303" lon="1.842724"><ele>254.0</ele><time>2026-04-05T07:17:08.776Z</time></trkpt><trkpt lat="41.4934182" lon="1.8425763"><ele>254.0</ele><time>2026-04-05T07:17:09.777Z</time></trkpt><trkpt lat="41.4934994" lon="1.8424302"><ele>254.0</ele><time>2026-04-05T07:17:10.776Z</time></trkpt><trkpt lat="41.4935789" lon="1.8422768"><ele>252.75</ele><time>2026-04-05T07:17:11.776Z</time></trkpt><trkpt lat="41.4936594" lon="1.8421205"><ele>251.5</ele><time>2026-04-05T07:17:12.777Z</time></trkpt><trkpt lat="41.4937378" lon="1.8419566"><ele>250.25</ele><time>2026-04-05T07:17:13.777Z</time></trkpt><trkpt lat="41.4938133" lon="1.8417904"><ele>249.0</ele><time>2026-04-05T07:17:14.777Z</time></trkpt><trkpt lat="41.4938841" lon="1.8416176"><ele>248.66666666666669</ele><time>2026-04-05T07:17:15.776Z</time></trkpt><trkpt lat="41.4939512" lon="1.8414389"><ele>248.33333333333334</ele><time>2026-04-05T07:17:16.777Z</time></trkpt><trkpt lat="41.4940204" lon="1.8412429"><ele>248.0</ele><time>2026-04-05T07:17:17.776Z</time></trkpt><trkpt lat="41.494088" lon="1.8410362"><ele>245.0</ele><time>2026-04-05T07:17:18.777Z</time></trkpt><trkpt lat="41.4941538" lon="1.8408271"><ele>242.0</ele><time>2026-04-05T07:17:19.776Z</time></trkpt><trkpt lat="41.4942155" lon="1.8406212"><ele>239.0</ele><time>2026-04-05T07:17:20.776Z</time></trkpt><trkpt lat="41.4942719" lon="1.8404136"><ele>239.0</ele><time>2026-04-05T07:17:21.777Z</time></trkpt><trkpt lat="41.4943222" lon="1.840198"><ele>239.0</ele><time>2026-04-05T07:17:22.776Z</time></trkpt><trkpt lat="41.4943625" lon="1.8399891"><ele>239.0</ele><time>2026-04-05T07:17:23.777Z</time></trkpt><trkpt lat="41.4944042" lon="1.8397711"><ele>240.0</ele><time>2026-04-05T07:17:24.776Z</time></trkpt><trkpt lat="41.4944408" lon="1.8395484"><ele>241.0</ele><time>2026-04-05T07:17:25.777Z</time></trkpt><trkpt lat="41.4944743" lon="1.8393216"><ele>242.0</ele><time>2026-04-05T07:17:26.777Z</time></trkpt><trkpt lat="41.4945044" lon="1.8390969"><ele>242.0</ele><time>2026-04-05T07:17:27.776Z</time></trkpt><trkpt lat="41.4945329" lon="1.8388723"><ele>242.0</ele><time>2026-04-05T07:17:28.776Z</time></trkpt><trkpt lat="41.4945648" lon="1.8386455"><ele>242.0</ele><time>2026-04-05T07:17:29.776Z</time></trkpt><trkpt lat="41.4945974" lon="1.8384155"><ele>248.0</ele><time>2026-04-05T07:17:30.776Z</time></trkpt><trkpt lat="41.4946327" lon="1.8381895"><ele>254.0</ele><time>2026-04-05T07:17:31.776Z</time></trkpt><trkpt lat="41.494673" lon="1.8379639"><ele>260.0</ele><time>2026-04-05T07:17:32.776Z</time></trkpt><trkpt lat="41.4947177" lon="1.8377333"><ele>259.33333333333337</ele><time>2026-04-05T07:17:33.777Z</time></trkpt><trkpt lat="41.49477" lon="1.8375014"><ele>258.6666666666667</ele><time>2026-04-05T07:17:34.776Z</time></trkpt><trkpt lat="41.4948275" lon="1.8372602"><ele>258.0</ele><time>2026-04-05T07:17:35.777Z</time></trkpt><trkpt lat="41.4948909" lon="1.8370208"><ele>257.0</ele><time>2026-04-05T07:17:36.776Z</time></trkpt><trkpt lat="41.4949565" lon="1.8367838"><ele>256.0</ele><time>2026-04-05T07:17:37.777Z</time></trkpt><trkpt lat="41.4950242" lon="1.8365565"><ele>255.0</ele><time>2026-04-05T07:17:38.777Z</time></trkpt><trkpt lat="41.4950938" lon="1.8363292"><ele>255.0</ele><time>2026-04-05T07:17:39.777Z</time></trkpt><trkpt lat="41.4951621" lon="1.836107"><ele>255.0</ele><time>2026-04-05T07:17:40.777Z</time></trkpt><trkpt lat="41.4952312" lon="1.8358852"><ele>255.0</ele><time>2026-04-05T07:17:41.777Z</time></trkpt><trkpt lat="41.4952973" lon="1.8356556"><ele>257.6666666666667</ele><time>2026-04-05T07:17:42.776Z</time></trkpt><trkpt lat="41.495359" lon="1.8354182"><ele>260.33333333333337</ele><time>2026-04-05T07:17:43.777Z</time></trkpt><trkpt lat="41.4954171" lon="1.8351785"><ele>263.0</ele><time>2026-04-05T07:17:44.776Z</time></trkpt><trkpt lat="41.495471" lon="1.8349436"><ele>265.0</ele><time>2026-04-05T07:17:45.776Z</time></trkpt><trkpt lat="41.4955171" lon="1.8347089"><ele>267.0</ele><time>2026-04-05T07:17:46.777Z</time></trkpt><trkpt lat="41.4955602" lon="1.8344751"><ele>269.0</ele><time>2026-04-05T07:17:47.776Z</time></trkpt><trkpt lat="41.4955983" lon="1.8342364"><ele>269.0</ele><time>2026-04-05T07:17:48.776Z</time></trkpt><trkpt lat="41.4956302" lon="1.8339937"><ele>269.0</ele><time>2026-04-05T07:17:49.776Z</time></trkpt><trkpt lat="41.4956578" lon="1.8337473"><ele>269.0</ele><time>2026-04-05T07:17:50.777Z</time></trkpt><trkpt lat="41.4956789" lon="1.8334968"><ele>266.6666666666667</ele><time>2026-04-05T07:17:51.777Z</time></trkpt><trkpt lat="41.4956989" lon="1.8332424"><ele>264.3333333333333</ele><time>2026-04-05T07:17:52.777Z</time></trkpt><trkpt lat="41.4957143" lon="1.8329843"><ele>262.0</ele><time>2026-04-05T07:17:53.777Z</time></trkpt><trkpt lat="41.4957218" lon="1.8327278"><ele>258.66666666666663</ele><time>2026-04-05T07:17:54.776Z</time></trkpt><trkpt lat="41.49572" lon="1.8324707"><ele>255.33333333333331</ele><time>2026-04-05T07:17:55.777Z</time></trkpt><trkpt lat="41.4957167" lon="1.8322113"><ele>252.0</ele><time>2026-04-05T07:17:56.776Z</time></trkpt><trkpt lat="41.4957067" lon="1.8319459"><ele>250.0</ele><time>2026-04-05T07:17:57.776Z</time></trkpt><trkpt lat="41.4956844" lon="1.8316657"><ele>248.0</ele><time>2026-04-05T07:17:58.776Z</time></trkpt><trkpt lat="41.4956628" lon="1.8313755"><ele>246.0</ele><time>2026-04-05T07:17:59.777Z</time></trkpt><trkpt lat="41.4956363" lon="1.8310865"><ele>248.0</ele><time>2026-04-05T07:18:00.777Z</time></trkpt><trkpt lat="41.4956105" lon="1.8308029"><ele>250.0</ele><time>2026-04-05T07:18:01.777Z</time></trkpt><trkpt lat="41.4955775" lon="1.8305225"><ele>252.0</ele><time>2026-04-05T07:18:02.777Z</time></trkpt><trkpt lat="41.4955433" lon="1.8302412"><ele>250.33333333333331</ele><time>2026-04-05T07:18:03.776Z</time></trkpt><trkpt lat="41.4955015" lon="1.8299625"><ele>248.66666666666666</ele><time>2026-04-05T07:18:04.776Z</time></trkpt><trkpt lat="41.4954522" lon="1.8296731"><ele>247.0</ele><time>2026-04-05T07:18:05.776Z</time></trkpt><trkpt lat="41.4953983" lon="1.8293856"><ele>249.0</ele><time>2026-04-05T07:18:06.776Z</time></trkpt><trkpt lat="41.4953437" lon="1.8291093"><ele>251.0</ele><time>2026-04-05T07:18:07.776Z</time></trkpt><trkpt lat="41.4952855" lon="1.828837"><ele>253.0</ele><time>2026-04-05T07:18:08.777Z</time></trkpt><trkpt lat="41.4952253" lon="1.8285704"><ele>252.66666666666666</ele><time>2026-04-05T07:18:09.776Z</time></trkpt><trkpt lat="41.4951621" lon="1.8283117"><ele>252.33333333333331</ele><time>2026-04-05T07:18:10.776Z</time></trkpt><trkpt lat="41.4950976" lon="1.8280572"><ele>252.0</ele><time>2026-04-05T07:18:11.776Z</time></trkpt><trkpt lat="41.4950329" lon="1.8278057"><ele>252.33333333333331</ele><time>2026-04-05T07:18:12.776Z</time></trkpt><trkpt lat="41.4949679" lon="1.8275661"><ele>252.66666666666666</ele><time>2026-04-05T07:18:13.776Z</time></trkpt><trkpt lat="41.4949012" lon="1.8273256"><ele>253.0</ele><time>2026-04-05T07:18:14.777Z</time></trkpt><trkpt lat="41.4948366" lon="1.827092"><ele>253.0</ele><time>2026-04-05T07:18:15.777Z</time></trkpt><trkpt lat="41.4947726" lon="1.8268643"><ele>253.0</ele><time>2026-04-05T07:18:16.776Z</time></trkpt><trkpt lat="41.49471" lon="1.826639"><ele>253.0</ele><time>2026-04-05T07:18:17.777Z</time></trkpt><trkpt lat="41.4946484" lon="1.826407"><ele>250.66666666666666</ele><time>2026-04-05T07:18:18.776Z</time></trkpt><trkpt lat="41.4945884" lon="1.826178"><ele>248.33333333333331</ele><time>2026-04-05T07:18:19.777Z</time></trkpt><trkpt lat="41.4945254" lon="1.8259513"><ele>246.0</ele><time>2026-04-05T07:18:20.776Z</time></trkpt><trkpt lat="41.4944725" lon="1.8257159"><ele>241.0</ele><time>2026-04-05T07:18:21.777Z</time></trkpt><trkpt lat="41.4944141" lon="1.8254711"><ele>236.0</ele><time>2026-04-05T07:18:22.776Z</time></trkpt><trkpt lat="41.4943589" lon="1.8252272"><ele>231.0</ele><time>2026-04-05T07:18:23.776Z</time></trkpt><trkpt lat="41.494308" lon="1.8249846"><ele>230.33333333333331</ele><time>2026-04-05T07:18:24.776Z</time></trkpt><trkpt lat="41.4942605" lon="1.8247426"><ele>229.66666666666666</ele><time>2026-04-05T07:18:25.776Z</time></trkpt><trkpt lat="41.4942144" lon="1.8244988"><ele>229.0</ele><time>2026-04-05T07:18:26.777Z</time></trkpt><trkpt lat="41.4941732" lon="1.8242521"><ele>230.66666666666666</ele><time>2026-04-05T07:18:27.777Z</time></trkpt><trkpt lat="41.4941324" lon="1.8240034"><ele>232.33333333333331</ele><time>2026-04-05T07:18:28.776Z</time></trkpt><trkpt lat="41.4940944" lon="1.8237445"><ele>234.0</ele><time>2026-04-05T07:18:29.776Z</time></trkpt><trkpt lat="41.494054" lon="1.8234859"><ele>235.0</ele><time>2026-04-05T07:18:30.777Z</time></trkpt><trkpt lat="41.4940159" lon="1.8232289"><ele>236.0</ele><time>2026-04-05T07:18:31.776Z</time></trkpt><trkpt lat="41.4939817" lon="1.8229733"><ele>237.0</ele><time>2026-04-05T07:18:32.776Z</time></trkpt><trkpt lat="41.4939535" lon="1.8227102"><ele>236.66666666666669</ele><time>2026-04-05T07:18:33.776Z</time></trkpt><trkpt lat="41.493928" lon="1.8224489"><ele>236.33333333333334</ele><time>2026-04-05T07:18:34.777Z</time></trkpt><trkpt lat="41.4939046" lon="1.822187"><ele>236.0</ele><time>2026-04-05T07:18:35.776Z</time></trkpt><trkpt lat="41.4938851" lon="1.8219226"><ele>235.33333333333334</ele><time>2026-04-05T07:18:36.776Z</time></trkpt><trkpt lat="41.4938706" lon="1.8216606"><ele>234.66666666666669</ele><time>2026-04-05T07:18:37.777Z</time></trkpt><trkpt lat="41.4938601" lon="1.821397"><ele>234.0</ele><time>2026-04-05T07:18:38.776Z</time></trkpt><trkpt lat="41.4938465" lon="1.8211328"><ele>233.66666666666669</ele><time>2026-04-05T07:18:39.777Z</time></trkpt><trkpt lat="41.4938409" lon="1.8208667"><ele>233.33333333333334</ele><time>2026-04-05T07:18:40.776Z</time></trkpt><trkpt lat="41.4938342" lon="1.8206031"><ele>233.0</ele><time>2026-04-05T07:18:41.776Z</time></trkpt><trkpt lat="41.4938299" lon="1.8203344"><ele>232.66666666666669</ele><time>2026-04-05T07:18:42.777Z</time></trkpt><trkpt lat="41.4938285" lon="1.8200652"><ele>232.33333333333331</ele><time>2026-04-05T07:18:43.776Z</time></trkpt><trkpt lat="41.4938311" lon="1.819798"><ele>232.0</ele><time>2026-04-05T07:18:44.777Z</time></trkpt><trkpt lat="41.493839" lon="1.8195204"><ele>230.66666666666666</ele><time>2026-04-05T07:18:45.776Z</time></trkpt><trkpt lat="41.4938505" lon="1.819243"><ele>229.33333333333331</ele><time>2026-04-05T07:18:46.777Z</time></trkpt><trkpt lat="41.4938641" lon="1.8189686"><ele>228.0</ele><time>2026-04-05T07:18:47.776Z</time></trkpt><trkpt lat="41.4938834" lon="1.8186929"><ele>230.66666666666669</ele><time>2026-04-05T07:18:48.776Z</time></trkpt><trkpt lat="41.493909" lon="1.8184073"><ele>233.33333333333334</ele><time>2026-04-05T07:18:49.776Z</time></trkpt><trkpt lat="41.4939353" lon="1.8181179"><ele>236.0</ele><time>2026-04-05T07:18:50.776Z</time></trkpt><trkpt lat="41.4939698" lon="1.8178244"><ele>236.5</ele><time>2026-04-05T07:18:51.777Z</time></trkpt><trkpt lat="41.494011" lon="1.8175286"><ele>237.0</ele><time>2026-04-05T07:18:52.777Z</time></trkpt><trkpt lat="41.4940566" lon="1.8172349"><ele>237.0</ele><time>2026-04-05T07:18:53.776Z</time></trkpt><trkpt lat="41.4941061" lon="1.8169476"><ele>237.0</ele><time>2026-04-05T07:18:54.776Z</time></trkpt><trkpt lat="41.4941602" lon="1.816661"><ele>237.0</ele><time>2026-04-05T07:18:55.777Z</time></trkpt><trkpt lat="41.4942177" lon="1.8163734"><ele>236.33333333333331</ele><time>2026-04-05T07:18:56.776Z</time></trkpt><trkpt lat="41.4942742" lon="1.8160948"><ele>235.66666666666666</ele><time>2026-04-05T07:18:57.776Z</time></trkpt><trkpt lat="41.4943336" lon="1.8158217"><ele>235.0</ele><time>2026-04-05T07:18:58.777Z</time></trkpt><trkpt lat="41.4943962" lon="1.8155489"><ele>231.66666666666666</ele><time>2026-04-05T07:18:59.776Z</time></trkpt><trkpt lat="41.4944656" lon="1.8152717"><ele>228.33333333333331</ele><time>2026-04-05T07:19:00.777Z</time></trkpt><trkpt lat="41.4945387" lon="1.8149903"><ele>225.0</ele><time>2026-04-05T07:19:01.777Z</time></trkpt><trkpt lat="41.4946171" lon="1.8147149"><ele>225.0</ele><time>2026-04-05T07:19:02.777Z</time></trkpt><trkpt lat="41.4946942" lon="1.8144501"><ele>225.0</ele><time>2026-04-05T07:19:03.777Z</time></trkpt><trkpt lat="41.494777" lon="1.8141848"><ele>225.0</ele><time>2026-04-05T07:19:04.777Z</time></trkpt><trkpt lat="41.4948624" lon="1.8139223"><ele>226.33333333333331</ele><time>2026-04-05T07:19:05.777Z</time></trkpt><trkpt lat="41.494946" lon="1.8136639"><ele>227.66666666666666</ele><time>2026-04-05T07:19:06.777Z</time></trkpt><trkpt lat="41.4950263" lon="1.8134162"><ele>229.0</ele><time>2026-04-05T07:19:07.777Z</time></trkpt><trkpt lat="41.4951124" lon="1.8131688"><ele>230.66666666666666</ele><time>2026-04-05T07:19:08.776Z</time></trkpt><trkpt lat="41.4952017" lon="1.8129316"><ele>232.33333333333331</ele><time>2026-04-05T07:19:09.777Z</time></trkpt><trkpt lat="41.4952949" lon="1.8126895"><ele>234.0</ele><time>2026-04-05T07:19:10.777Z</time></trkpt><trkpt lat="41.4953892" lon="1.8124499"><ele>234.66666666666669</ele><time>2026-04-05T07:19:11.776Z</time></trkpt><trkpt lat="41.4954925" lon="1.8122031"><ele>235.33333333333334</ele><time>2026-04-05T07:19:12.776Z</time></trkpt><trkpt lat="41.4955995" lon="1.8119633"><ele>236.0</ele><time>2026-04-05T07:19:13.776Z</time></trkpt><trkpt lat="41.4957029" lon="1.8117253"><ele>238.0</ele><time>2026-04-05T07:19:14.776Z</time></trkpt><trkpt lat="41.4958123" lon="1.8114888"><ele>240.0</ele><time>2026-04-05T07:19:15.776Z</time></trkpt><trkpt lat="41.4959271" lon="1.8112511"><ele>242.0</ele><time>2026-04-05T07:19:16.777Z</time></trkpt><trkpt lat="41.4960493" lon="1.8110049"><ele>243.33333333333334</ele><time>2026-04-05T07:19:17.776Z</time></trkpt><trkpt lat="41.4961763" lon="1.8107545"><ele>244.66666666666669</ele><time>2026-04-05T07:19:18.777Z</time></trkpt><trkpt lat="41.4963046" lon="1.8105166"><ele>246.0</ele><time>2026-04-05T07:19:19.776Z</time></trkpt><trkpt lat="41.4964272" lon="1.8102874"><ele>250.0</ele><time>2026-04-05T07:19:20.776Z</time></trkpt><trkpt lat="41.496557" lon="1.8100617"><ele>254.0</ele><time>2026-04-05T07:19:21.777Z</time></trkpt><trkpt lat="41.4966887" lon="1.8098361"><ele>258.0</ele><time>2026-04-05T07:19:22.777Z</time></trkpt><trkpt lat="41.496821" lon="1.8096134"><ele>258.0</ele><time>2026-04-05T07:19:23.776Z</time></trkpt><trkpt lat="41.4969593" lon="1.8093924"><ele>258.0</ele><time>2026-04-05T07:19:24.776Z</time></trkpt><trkpt lat="41.4970991" lon="1.8091769"><ele>258.0</ele><time>2026-04-05T07:19:25.776Z</time></trkpt><trkpt lat="41.4972423" lon="1.8089604"><ele>258.6666666666667</ele><time>2026-04-05T07:19:26.776Z</time></trkpt><trkpt lat="41.4973894" lon="1.8087475"><ele>259.33333333333337</ele><time>2026-04-05T07:19:27.776Z</time></trkpt><trkpt lat="41.4975373" lon="1.8085418"><ele>260.0</ele><time>2026-04-05T07:19:28.776Z</time></trkpt><trkpt lat="41.49769" lon="1.808339"><ele>259.6666666666667</ele><time>2026-04-05T07:19:29.777Z</time></trkpt><trkpt lat="41.4978462" lon="1.8081392"><ele>259.3333333333333</ele><time>2026-04-05T07:19:30.777Z</time></trkpt><trkpt lat="41.498004" lon="1.8079396"><ele>259.0</ele><time>2026-04-05T07:19:31.777Z</time></trkpt><trkpt lat="41.4981691" lon="1.8077368"><ele>257.3333333333333</ele><time>2026-04-05T07:19:32.777Z</time></trkpt><trkpt lat="41.4983354" lon="1.8075355"><ele>255.66666666666669</ele><time>2026-04-05T07:19:33.776Z</time></trkpt><trkpt lat="41.4984961" lon="1.807343"><ele>254.0</ele><time>2026-04-05T07:19:34.776Z</time></trkpt><trkpt lat="41.4986625" lon="1.8071469"><ele>256.0</ele><time>2026-04-05T07:19:35.777Z</time></trkpt><trkpt lat="41.4988286" lon="1.8069669"><ele>258.0</ele><time>2026-04-05T07:19:36.777Z</time></trkpt><trkpt lat="41.4989958" lon="1.8067891"><ele>260.0</ele><time>2026-04-05T07:19:37.776Z</time></trkpt><trkpt lat="41.4991643" lon="1.8066178"><ele>260.0</ele><time>2026-04-05T07:19:38.776Z</time></trkpt><trkpt lat="41.4993262" lon="1.8064425"><ele>260.0</ele><time>2026-04-05T07:19:39.777Z</time></trkpt><trkpt lat="41.4994941" lon="1.8062633"><ele>260.0</ele><time>2026-04-05T07:19:40.776Z</time></trkpt><trkpt lat="41.4996625" lon="1.8060792"><ele>258.6666666666667</ele><time>2026-04-05T07:19:41.776Z</time></trkpt><trkpt lat="41.49982" lon="1.8058979"><ele>257.3333333333333</ele><time>2026-04-05T07:19:42.776Z</time></trkpt><trkpt lat="41.4999757" lon="1.805717"><ele>256.0</ele><time>2026-04-05T07:19:43.776Z</time></trkpt><trkpt lat="41.5001257" lon="1.8055443"><ele>256.0</ele><time>2026-04-05T07:19:44.776Z</time></trkpt><trkpt lat="41.5002576" lon="1.8053667"><ele>256.0</ele><time>2026-04-05T07:19:45.776Z</time></trkpt><trkpt lat="41.500384" lon="1.8051961"><ele>256.0</ele><time>2026-04-05T07:19:46.776Z</time></trkpt><trkpt lat="41.5005042" lon="1.8050278"><ele>257.3333333333333</ele><time>2026-04-05T07:19:47.777Z</time></trkpt><trkpt lat="41.5006156" lon="1.8048636"><ele>258.6666666666667</ele><time>2026-04-05T07:19:48.777Z</time></trkpt><trkpt lat="41.5007189" lon="1.8047096"><ele>260.0</ele><time>2026-04-05T07:19:49.776Z</time></trkpt><trkpt lat="41.5008192" lon="1.8045501"><ele>260.0</ele><time>2026-04-05T07:19:50.776Z</time></trkpt><trkpt lat="41.5009224" lon="1.8043879"><ele>260.0</ele><time>2026-04-05T07:19:51.776Z</time></trkpt><trkpt lat="41.5010261" lon="1.8042207"><ele>260.0</ele><time>2026-04-05T07:19:52.776Z</time></trkpt><trkpt lat="41.5011306" lon="1.8040478"><ele>260.0</ele><time>2026-04-05T07:19:53.777Z</time></trkpt><trkpt lat="41.5012285" lon="1.8038756"><ele>260.0</ele><time>2026-04-05T07:19:54.777Z</time></trkpt><trkpt lat="41.5013211" lon="1.8036967"><ele>260.0</ele><time>2026-04-05T07:19:55.776Z</time></trkpt><trkpt lat="41.501412" lon="1.8035076"><ele>262.6666666666667</ele><time>2026-04-05T07:19:56.776Z</time></trkpt><trkpt lat="41.5014951" lon="1.8033128"><ele>265.3333333333333</ele><time>2026-04-05T07:19:57.777Z</time></trkpt><trkpt lat="41.5015741" lon="1.8031172"><ele>268.0</ele><time>2026-04-05T07:19:58.776Z</time></trkpt><trkpt lat="41.5016451" lon="1.8029184"><ele>268.0</ele><time>2026-04-05T07:19:59.777Z</time></trkpt><trkpt lat="41.5017106" lon="1.802735"><ele>268.0</ele><time>2026-04-05T07:20:00.776Z</time></trkpt><trkpt lat="41.5017685" lon="1.8025624"><ele>268.0</ele><time>2026-04-05T07:20:01.776Z</time></trkpt><trkpt lat="41.501821" lon="1.8024072"><ele>268.0</ele><time>2026-04-05T07:20:02.776Z</time></trkpt><trkpt lat="41.5018662" lon="1.8022634"><ele>267.8</ele><time>2026-04-05T07:20:03.777Z</time></trkpt><trkpt lat="41.5019049" lon="1.8021257"><ele>267.6</ele><time>2026-04-05T07:20:04.777Z</time></trkpt><trkpt lat="41.5019452" lon="1.8019909"><ele>267.4</ele><time>2026-04-05T07:20:05.776Z</time></trkpt><trkpt lat="41.5019846" lon="1.8018553"><ele>267.2</ele><time>2026-04-05T07:20:06.777Z</time></trkpt><trkpt lat="41.5020187" lon="1.8017274"><ele>267.0</ele><time>2026-04-05T07:20:07.776Z</time></trkpt><trkpt lat="41.5020423" lon="1.8016195"><ele>267.1666666666667</ele><time>2026-04-05T07:20:08.776Z</time></trkpt><trkpt lat="41.5020596" lon="1.8015203"><ele>267.3333333333333</ele><time>2026-04-05T07:20:09.776Z</time></trkpt><trkpt lat="41.5020748" lon="1.8014285"><ele>267.5</ele><time>2026-04-05T07:20:10.777Z</time></trkpt><trkpt lat="41.5020915" lon="1.8013305"><ele>267.66666666666663</ele><time>2026-04-05T07:20:11.777Z</time></trkpt><trkpt lat="41.5021027" lon="1.8012287"><ele>267.8333333333333</ele><time>2026-04-05T07:20:12.777Z</time></trkpt><trkpt lat="41.5021104" lon="1.8011271"><ele>268.0</ele><time>2026-04-05T07:20:13.777Z</time></trkpt><trkpt lat="41.5021184" lon="1.8010276"><ele>268.5</ele><time>2026-04-05T07:20:14.777Z</time></trkpt><trkpt lat="41.5021263" lon="1.8009249"><ele>269.0</ele><time>2026-04-05T07:20:15.776Z</time></trkpt><trkpt lat="41.5021305" lon="1.8008288"><ele>269.5</ele><time>2026-04-05T07:20:16.777Z</time></trkpt><trkpt lat="41.5021365" lon="1.8007291"><ele>270.0</ele><time>2026-04-05T07:20:17.776Z</time></trkpt><trkpt lat="41.5021422" lon="1.8006278"><ele>270.5</ele><time>2026-04-05T07:20:18.777Z</time></trkpt><trkpt lat="41.5021483" lon="1.8005267"><ele>271.0</ele><time>2026-04-05T07:20:19.777Z</time></trkpt><trkpt lat="41.5021572" lon="1.8004198"><ele>271.0</ele><time>2026-04-05T07:20:20.777Z</time></trkpt><trkpt lat="41.5021649" lon="1.8002846"><ele>271.0</ele><time>2026-04-05T07:20:21.777Z</time></trkpt><trkpt lat="41.5021692" lon="1.8001258"><ele>271.0</ele><time>2026-04-05T07:20:22.776Z</time></trkpt><trkpt lat="41.5021764" lon="1.7999609"><ele>271.0</ele><time>2026-04-05T07:20:23.776Z</time></trkpt><trkpt lat="41.5021837" lon="1.799777"><ele>271.0</ele><time>2026-04-05T07:20:24.776Z</time></trkpt><trkpt lat="41.5021944" lon="1.7995804"><ele>271.0</ele><time>2026-04-05T07:20:25.777Z</time></trkpt><trkpt lat="41.502207" lon="1.7993721"><ele>271.0</ele><time>2026-04-05T07:20:26.776Z</time></trkpt><trkpt lat="41.5022214" lon="1.7991537"><ele>271.0</ele><time>2026-04-05T07:20:27.776Z</time></trkpt><trkpt lat="41.5022348" lon="1.7989258"><ele>271.0</ele><time>2026-04-05T07:20:28.777Z</time></trkpt><trkpt lat="41.502249" lon="1.7986818"><ele>271.0</ele><time>2026-04-05T07:20:29.776Z</time></trkpt><trkpt lat="41.5022641" lon="1.798436"><ele>270.66666666666663</ele><time>2026-04-05T07:20:30.776Z</time></trkpt><trkpt lat="41.502277" lon="1.7982026"><ele>270.3333333333333</ele><time>2026-04-05T07:20:31.776Z</time></trkpt><trkpt lat="41.5022864" lon="1.7979767"><ele>270.0</ele><time>2026-04-05T07:20:32.777Z</time></trkpt><trkpt lat="41.5022985" lon="1.7977391"><ele>271.0</ele><time>2026-04-05T07:20:33.776Z</time></trkpt><trkpt lat="41.50231" lon="1.7975011"><ele>272.0</ele><time>2026-04-05T07:20:34.777Z</time></trkpt><trkpt lat="41.5023232" lon="1.7972615"><ele>273.0</ele><time>2026-04-05T07:20:35.777Z</time></trkpt><trkpt lat="41.5023365" lon="1.7970237"><ele>274.3333333333333</ele><time>2026-04-05T07:20:36.776Z</time></trkpt><trkpt lat="41.502352" lon="1.7967818"><ele>275.66666666666663</ele><time>2026-04-05T07:20:37.776Z</time></trkpt><trkpt lat="41.5023675" lon="1.796538"><ele>277.0</ele><time>2026-04-05T07:20:38.776Z</time></trkpt><trkpt lat="41.5023821" lon="1.7962964"><ele>277.0</ele><time>2026-04-05T07:20:39.776Z</time></trkpt><trkpt lat="41.5023951" lon="1.7960433"><ele>277.0</ele><time>2026-04-05T07:20:40.777Z</time></trkpt><trkpt lat="41.5024088" lon="1.795784"><ele>277.0</ele><time>2026-04-05T07:20:41.777Z</time></trkpt><trkpt lat="41.5024237" lon="1.795523"><ele>277.66666666666663</ele><time>2026-04-05T07:20:42.777Z</time></trkpt><trkpt lat="41.5024384" lon="1.7952609"><ele>278.3333333333333</ele><time>2026-04-05T07:20:43.776Z</time></trkpt><trkpt lat="41.5024527" lon="1.795004"><ele>279.0</ele><time>2026-04-05T07:20:44.776Z</time></trkpt><trkpt lat="41.5024646" lon="1.7947513"><ele>280.6666666666667</ele><time>2026-04-05T07:20:45.777Z</time></trkpt><trkpt lat="41.5024715" lon="1.7945098"><ele>282.33333333333337</ele><time>2026-04-05T07:20:46.777Z</time></trkpt><trkpt lat="41.5024673" lon="1.7942629"><ele>284.0</ele><time>2026-04-05T07:20:47.776Z</time></trkpt><trkpt lat="41.5024497" lon="1.7940115"><ele>285.0</ele><time>2026-04-05T07:20:48.777Z</time></trkpt><trkpt lat="41.502422" lon="1.7937527"><ele>286.0</ele><time>2026-04-05T07:20:49.777Z</time></trkpt><trkpt lat="41.5023847" lon="1.7934911"><ele>287.0</ele><time>2026-04-05T07:20:50.776Z</time></trkpt><trkpt lat="41.5023405" lon="1.7932285"><ele>287.0</ele><time>2026-04-05T07:20:51.776Z</time></trkpt><trkpt lat="41.5022916" lon="1.7929675"><ele>287.0</ele><time>2026-04-05T07:20:52.776Z</time></trkpt><trkpt lat="41.5022461" lon="1.7927102"><ele>287.0</ele><time>2026-04-05T07:20:53.776Z</time></trkpt><trkpt lat="41.5022011" lon="1.7924596"><ele>287.33333333333337</ele><time>2026-04-05T07:20:54.776Z</time></trkpt><trkpt lat="41.5021645" lon="1.792216"><ele>287.6666666666667</ele><time>2026-04-05T07:20:55.777Z</time></trkpt><trkpt lat="41.5021422" lon="1.7919706"><ele>288.0</ele><time>2026-04-05T07:20:56.776Z</time></trkpt><trkpt lat="41.5021319" lon="1.7917248"><ele>289.0</ele><time>2026-04-05T07:20:57.776Z</time></trkpt><trkpt lat="41.502133" lon="1.7914811"><ele>290.0</ele><time>2026-04-05T07:20:58.777Z</time></trkpt><trkpt lat="41.5021484" lon="1.7912395"><ele>291.0</ele><time>2026-04-05T07:20:59.777Z</time></trkpt><trkpt lat="41.5021752" lon="1.7909987"><ele>291.3333333333333</ele><time>2026-04-05T07:21:00.776Z</time></trkpt><trkpt lat="41.5022114" lon="1.7907624"><ele>291.66666666666663</ele><time>2026-04-05T07:21:01.777Z</time></trkpt><trkpt lat="41.5022556" lon="1.7905303"><ele>292.0</ele><time>2026-04-05T07:21:02.776Z</time></trkpt><trkpt lat="41.502307" lon="1.7903108"><ele>292.66666666666663</ele><time>2026-04-05T07:21:03.776Z</time></trkpt><trkpt lat="41.5023608" lon="1.7900969"><ele>293.3333333333333</ele><time>2026-04-05T07:21:04.777Z</time></trkpt><trkpt lat="41.502409" lon="1.7898909"><ele>294.0</ele><time>2026-04-05T07:21:05.776Z</time></trkpt><trkpt lat="41.5024543" lon="1.789684"><ele>294.0</ele><time>2026-04-05T07:21:06.777Z</time></trkpt><trkpt lat="41.5024946" lon="1.7894743"><ele>294.0</ele><time>2026-04-05T07:21:07.776Z</time></trkpt><trkpt lat="41.5025271" lon="1.7892564"><ele>294.0</ele><time>2026-04-05T07:21:08.776Z</time></trkpt><trkpt lat="41.5025491" lon="1.7890331"><ele>295.0</ele><time>2026-04-05T07:21:09.776Z</time></trkpt><trkpt lat="41.502559" lon="1.7887976"><ele>296.0</ele><time>2026-04-05T07:21:10.777Z</time></trkpt><trkpt lat="41.5025567" lon="1.7885667"><ele>297.0</ele><time>2026-04-05T07:21:11.777Z</time></trkpt><trkpt lat="41.5025505" lon="1.7883468"><ele>297.0</ele><time>2026-04-05T07:21:12.777Z</time></trkpt><trkpt lat="41.5025421" lon="1.7881408"><ele>297.0</ele><time>2026-04-05T07:21:13.776Z</time></trkpt><trkpt lat="41.5025345" lon="1.7879444"><ele>297.0</ele><time>2026-04-05T07:21:14.777Z</time></trkpt><trkpt lat="41.5025265" lon="1.7877536"><ele>297.0</ele><time>2026-04-05T07:21:15.776Z</time></trkpt><trkpt lat="41.5025218" lon="1.7875567"><ele>297.6666666666667</ele><time>2026-04-05T07:21:16.776Z</time></trkpt><trkpt lat="41.5025255" lon="1.7873527"><ele>298.33333333333337</ele><time>2026-04-05T07:21:17.776Z</time></trkpt><trkpt lat="41.5025345" lon="1.7871489"><ele>299.0</ele><time>2026-04-05T07:21:18.776Z</time></trkpt><trkpt lat="41.5025529" lon="1.7869445"><ele>299.33333333333337</ele><time>2026-04-05T07:21:19.777Z</time></trkpt><trkpt lat="41.5025754" lon="1.7867354"><ele>299.6666666666667</ele><time>2026-04-05T07:21:20.777Z</time></trkpt><trkpt lat="41.5026102" lon="1.7865295"><ele>300.0</ele><time>2026-04-05T07:21:21.776Z</time></trkpt><trkpt lat="41.5026558" lon="1.7863274"><ele>300.0</ele><time>2026-04-05T07:21:22.776Z</time></trkpt><trkpt lat="41.5027107" lon="1.7861257"><ele>300.0</ele><time>2026-04-05T07:21:23.776Z</time></trkpt><trkpt lat="41.5027744" lon="1.7859266"><ele>300.0</ele><time>2026-04-05T07:21:24.777Z</time></trkpt><trkpt lat="41.5028455" lon="1.7857292"><ele>301.0</ele><time>2026-04-05T07:21:25.777Z</time></trkpt><trkpt lat="41.502924" lon="1.7855319"><ele>302.0</ele><time>2026-04-05T07:21:26.777Z</time></trkpt><trkpt lat="41.5030079" lon="1.7853321"><ele>303.0</ele><time>2026-04-05T07:21:27.777Z</time></trkpt><trkpt lat="41.5030902" lon="1.7851335"><ele>303.6666666666667</ele><time>2026-04-05T07:21:28.776Z</time></trkpt><trkpt lat="41.5031721" lon="1.7849387"><ele>304.33333333333337</ele><time>2026-04-05T07:21:29.776Z</time></trkpt><trkpt lat="41.5032578" lon="1.7847388"><ele>305.0</ele><time>2026-04-05T07:21:30.777Z</time></trkpt><trkpt lat="41.5033439" lon="1.7845305"><ele>306.33333333333337</ele><time>2026-04-05T07:21:31.776Z</time></trkpt><trkpt lat="41.503432" lon="1.7843247"><ele>307.6666666666667</ele><time>2026-04-05T07:21:32.777Z</time></trkpt><trkpt lat="41.5035271" lon="1.7841045"><ele>309.0</ele><time>2026-04-05T07:21:33.777Z</time></trkpt><trkpt lat="41.5036164" lon="1.7838972"><ele>309.0</ele><time>2026-04-05T07:21:34.776Z</time></trkpt><trkpt lat="41.5037043" lon="1.7836953"><ele>309.0</ele><time>2026-04-05T07:21:35.777Z</time></trkpt><trkpt lat="41.5037916" lon="1.7834973"><ele>309.0</ele><time>2026-04-05T07:21:36.777Z</time></trkpt><trkpt lat="41.5038773" lon="1.7832962"><ele>310.6666666666667</ele><time>2026-04-05T07:21:37.776Z</time></trkpt><trkpt lat="41.5039653" lon="1.7831016"><ele>312.33333333333337</ele><time>2026-04-05T07:21:38.777Z</time></trkpt><trkpt lat="41.5040513" lon="1.7828985"><ele>314.0</ele><time>2026-04-05T07:21:39.777Z</time></trkpt><trkpt lat="41.5041398" lon="1.7826944"><ele>314.0</ele><time>2026-04-05T07:21:40.777Z</time></trkpt><trkpt lat="41.5042246" lon="1.7824986"><ele>314.0</ele><time>2026-04-05T07:21:41.776Z</time></trkpt><trkpt lat="41.5043108" lon="1.7823009"><ele>314.0</ele><time>2026-04-05T07:21:42.777Z</time></trkpt><trkpt lat="41.5043946" lon="1.782108"><ele>314.0</ele><time>2026-04-05T07:21:43.777Z</time></trkpt><trkpt lat="41.504479" lon="1.7819163"><ele>314.0</ele><time>2026-04-05T07:21:44.776Z</time></trkpt><trkpt lat="41.504562" lon="1.7817235"><ele>314.0</ele><time>2026-04-05T07:21:45.777Z</time></trkpt><trkpt lat="41.5046448" lon="1.7815403"><ele>316.0</ele><time>2026-04-05T07:21:46.777Z</time></trkpt><trkpt lat="41.5047281" lon="1.7813563"><ele>318.0</ele><time>2026-04-05T07:21:47.776Z</time></trkpt><trkpt lat="41.5048047" lon="1.7811737"><ele>320.0</ele><time>2026-04-05T07:21:48.776Z</time></trkpt><trkpt lat="41.5048826" lon="1.780993"><ele>320.0</ele><time>2026-04-05T07:21:49.777Z</time></trkpt><trkpt lat="41.5049597" lon="1.7808143"><ele>320.0</ele><time>2026-04-05T07:21:50.776Z</time></trkpt><trkpt lat="41.505034" lon="1.7806447"><ele>320.0</ele><time>2026-04-05T07:21:51.776Z</time></trkpt><trkpt lat="41.5051024" lon="1.7804857"><ele>320.0</ele><time>2026-04-05T07:21:52.776Z</time></trkpt><trkpt lat="41.5051674" lon="1.780331"><ele>319.75</ele><time>2026-04-05T07:21:53.777Z</time></trkpt><trkpt lat="41.5052281" lon="1.7801797"><ele>319.5</ele><time>2026-04-05T07:21:54.776Z</time></trkpt><trkpt lat="41.5052906" lon="1.7800354"><ele>319.25</ele><time>2026-04-05T07:21:55.777Z</time></trkpt><trkpt lat="41.5053446" lon="1.7798959"><ele>319.0</ele><time>2026-04-05T07:21:56.777Z</time></trkpt><trkpt lat="41.5053914" lon="1.7797564"><ele>319.6</ele><time>2026-04-05T07:21:57.776Z</time></trkpt><trkpt lat="41.5054309" lon="1.7796173"><ele>320.2</ele><time>2026-04-05T07:21:58.776Z</time></trkpt><trkpt lat="41.505466" lon="1.7794878"><ele>320.8</ele><time>2026-04-05T07:21:59.777Z</time></trkpt><trkpt lat="41.5054943" lon="1.7793577"><ele>321.40000000000003</ele><time>2026-04-05T07:22:00.777Z</time></trkpt><trkpt lat="41.5055164" lon="1.7792246"><ele>322.0</ele><time>2026-04-05T07:22:01.776Z</time></trkpt><trkpt lat="41.5055405" lon="1.7790853"><ele>322.0</ele><time>2026-04-05T07:22:02.776Z</time></trkpt><trkpt lat="41.5055632" lon="1.7789421"><ele>322.0</ele><time>2026-04-05T07:22:03.777Z</time></trkpt><trkpt lat="41.5055855" lon="1.7787925"><ele>322.0</ele><time>2026-04-05T07:22:04.777Z</time></trkpt><trkpt lat="41.5056161" lon="1.7786407"><ele>322.0</ele><time>2026-04-05T07:22:05.777Z</time></trkpt><trkpt lat="41.505652" lon="1.778484"><ele>321.5</ele><time>2026-04-05T07:22:06.776Z</time></trkpt><trkpt lat="41.5056963" lon="1.7783255"><ele>321.0</ele><time>2026-04-05T07:22:07.777Z</time></trkpt><trkpt lat="41.5057512" lon="1.7781689"><ele>320.5</ele><time>2026-04-05T07:22:08.776Z</time></trkpt><trkpt lat="41.5058157" lon="1.7780144"><ele>320.0</ele><time>2026-04-05T07:22:09.776Z</time></trkpt><trkpt lat="41.5058915" lon="1.7778683"><ele>320.0</ele><time>2026-04-05T07:22:10.776Z</time></trkpt><trkpt lat="41.5059838" lon="1.7777262"><ele>320.0</ele><time>2026-04-05T07:22:11.776Z</time></trkpt><trkpt lat="41.5060855" lon="1.7775915"><ele>320.0</ele><time>2026-04-05T07:22:12.777Z</time></trkpt><trkpt lat="41.5062" lon="1.7774676"><ele>320.0</ele><time>2026-04-05T07:22:13.777Z</time></trkpt><trkpt lat="41.5063306" lon="1.7773502"><ele>319.6666666666667</ele><time>2026-04-05T07:22:14.776Z</time></trkpt><trkpt lat="41.5064708" lon="1.7772397"><ele>319.3333333333333</ele><time>2026-04-05T07:22:15.776Z</time></trkpt><trkpt lat="41.5066097" lon="1.777142"><ele>319.0</ele><time>2026-04-05T07:22:16.777Z</time></trkpt><trkpt lat="41.5067521" lon="1.7770398"><ele>319.0</ele><time>2026-04-05T07:22:17.777Z</time></trkpt><trkpt lat="41.5068933" lon="1.7769373"><ele>319.0</ele><time>2026-04-05T07:22:18.777Z</time></trkpt><trkpt lat="41.5070331" lon="1.7768292"><ele>319.0</ele><time>2026-04-05T07:22:19.776Z</time></trkpt><trkpt lat="41.5071685" lon="1.7767065"><ele>319.66666666666663</ele><time>2026-04-05T07:22:20.777Z</time></trkpt><trkpt lat="41.507302" lon="1.7765602"><ele>320.3333333333333</ele><time>2026-04-05T07:22:21.776Z</time></trkpt><trkpt lat="41.507422" lon="1.7763987"><ele>321.0</ele><time>2026-04-05T07:22:22.776Z</time></trkpt><trkpt lat="41.5075289" lon="1.776221"><ele>321.0</ele><time>2026-04-05T07:22:23.776Z</time></trkpt><trkpt lat="41.5076267" lon="1.7760311"><ele>321.0</ele><time>2026-04-05T07:22:24.776Z</time></trkpt><trkpt lat="41.5077199" lon="1.7758364"><ele>321.0</ele><time>2026-04-05T07:22:25.776Z</time></trkpt><trkpt lat="41.5078184" lon="1.7756427"><ele>321.3333333333333</ele><time>2026-04-05T07:22:26.777Z</time></trkpt><trkpt lat="41.5079146" lon="1.7754547"><ele>321.66666666666663</ele><time>2026-04-05T07:22:27.777Z</time></trkpt><trkpt lat="41.5080075" lon="1.7752663"><ele>322.0</ele><time>2026-04-05T07:22:28.776Z</time></trkpt><trkpt lat="41.5081007" lon="1.7750756"><ele>322.0</ele><time>2026-04-05T07:22:29.776Z</time></trkpt><trkpt lat="41.5081939" lon="1.7748847"><ele>322.0</ele><time>2026-04-05T07:22:30.777Z</time></trkpt><trkpt lat="41.5082856" lon="1.774702"><ele>322.0</ele><time>2026-04-05T07:22:31.776Z</time></trkpt><trkpt lat="41.5083731" lon="1.7745304"><ele>322.0</ele><time>2026-04-05T07:22:32.777Z</time></trkpt><trkpt lat="41.5084538" lon="1.7743626"><ele>322.0</ele><time>2026-04-05T07:22:33.777Z</time></trkpt><trkpt lat="41.5085304" lon="1.7742043"><ele>322.0</ele><time>2026-04-05T07:22:34.777Z</time></trkpt><trkpt lat="41.5086062" lon="1.7740504"><ele>322.0</ele><time>2026-04-05T07:22:35.777Z</time></trkpt><trkpt lat="41.5086832" lon="1.7738886"><ele>321.25</ele><time>2026-04-05T07:22:36.777Z</time></trkpt><trkpt lat="41.5087623" lon="1.7737281"><ele>320.5</ele><time>2026-04-05T07:22:37.777Z</time></trkpt><trkpt lat="41.5088361" lon="1.7735724"><ele>319.75</ele><time>2026-04-05T07:22:38.776Z</time></trkpt><trkpt lat="41.5089041" lon="1.7734244"><ele>319.0</ele><time>2026-04-05T07:22:39.776Z</time></trkpt><trkpt lat="41.5089713" lon="1.7732854"><ele>319.0</ele><time>2026-04-05T07:22:40.777Z</time></trkpt><trkpt lat="41.5090419" lon="1.7731577"><ele>319.0</ele><time>2026-04-05T07:22:41.777Z</time></trkpt><trkpt lat="41.5091379" lon="1.7730363"><ele>319.0</ele><time>2026-04-05T07:22:42.777Z</time></trkpt><trkpt lat="41.5092583" lon="1.7729443"><ele>319.0</ele><time>2026-04-05T07:22:43.777Z</time></trkpt><trkpt lat="41.5093995" lon="1.7728839"><ele>319.0</ele><time>2026-04-05T07:22:44.776Z</time></trkpt><trkpt lat="41.5095444" lon="1.7728509"><ele>319.0</ele><time>2026-04-05T07:22:45.777Z</time></trkpt><trkpt lat="41.5097016" lon="1.7728194"><ele>319.0</ele><time>2026-04-05T07:22:46.776Z</time></trkpt><trkpt lat="41.5098554" lon="1.7727884"><ele>318.66666666666663</ele><time>2026-04-05T07:22:47.776Z</time></trkpt><trkpt lat="41.5100035" lon="1.7727565"><ele>318.3333333333333</ele><time>2026-04-05T07:22:48.777Z</time></trkpt><trkpt lat="41.5101521" lon="1.772728"><ele>318.0</ele><time>2026-04-05T07:22:49.777Z</time></trkpt><trkpt lat="41.5103056" lon="1.7726956"><ele>320.6666666666667</ele><time>2026-04-05T07:22:50.776Z</time></trkpt><trkpt lat="41.5104618" lon="1.7726578"><ele>323.33333333333337</ele><time>2026-04-05T07:22:51.777Z</time></trkpt><trkpt lat="41.5106183" lon="1.7726207"><ele>326.0</ele><time>2026-04-05T07:22:52.776Z</time></trkpt><trkpt lat="41.5107657" lon="1.7725847"><ele>326.0</ele><time>2026-04-05T07:22:53.776Z</time></trkpt><trkpt lat="41.5109032" lon="1.7725358"><ele>326.0</ele><time>2026-04-05T07:22:54.776Z</time></trkpt><trkpt lat="41.5110281" lon="1.7724682"><ele>326.0</ele><time>2026-04-05T07:22:55.777Z</time></trkpt><trkpt lat="41.5111375" lon="1.7723791"><ele>326.0</ele><time>2026-04-05T07:22:56.777Z</time></trkpt><trkpt lat="41.5112303" lon="1.772276"><ele>325.5</ele><time>2026-04-05T07:22:57.776Z</time></trkpt><trkpt lat="41.5113244" lon="1.7721601"><ele>325.0</ele><time>2026-04-05T07:22:58.776Z</time></trkpt><trkpt lat="41.5114168" lon="1.7720397"><ele>324.5</ele><time>2026-04-05T07:22:59.776Z</time></trkpt><trkpt lat="41.5115091" lon="1.7719223"><ele>324.0</ele><time>2026-04-05T07:23:00.777Z</time></trkpt><trkpt lat="41.5116042" lon="1.7718028"><ele>324.0</ele><time>2026-04-05T07:23:01.777Z</time></trkpt><trkpt lat="41.5117026" lon="1.7716852"><ele>324.0</ele><time>2026-04-05T07:23:02.777Z</time></trkpt><trkpt lat="41.5117963" lon="1.7715748"><ele>324.0</ele><time>2026-04-05T07:23:03.776Z</time></trkpt><trkpt lat="41.5118863" lon="1.7714673"><ele>324.0</ele><time>2026-04-05T07:23:04.777Z</time></trkpt><trkpt lat="41.5119752" lon="1.7713561"><ele>324.0</ele><time>2026-04-05T07:23:05.776Z</time></trkpt><trkpt lat="41.5120633" lon="1.7712372"><ele>324.0</ele><time>2026-04-05T07:23:06.776Z</time></trkpt><trkpt lat="41.5121478" lon="1.7711083"><ele>324.0</ele><time>2026-04-05T07:23:07.777Z</time></trkpt><trkpt lat="41.5122249" lon="1.7709652"><ele>324.0</ele><time>2026-04-05T07:23:08.776Z</time></trkpt><trkpt lat="41.5122924" lon="1.7708063"><ele>323.75</ele><time>2026-04-05T07:23:09.777Z</time></trkpt><trkpt lat="41.5123599" lon="1.7706379"><ele>323.5</ele><time>2026-04-05T07:23:10.776Z</time></trkpt><trkpt lat="41.5124242" lon="1.7704739"><ele>323.25</ele><time>2026-04-05T07:23:11.777Z</time></trkpt><trkpt lat="41.512487" lon="1.7703113"><ele>323.0</ele><time>2026-04-05T07:23:12.777Z</time></trkpt><trkpt lat="41.5125499" lon="1.7701473"><ele>324.0</ele><time>2026-04-05T07:23:13.777Z</time></trkpt><trkpt lat="41.5126109" lon="1.769982"><ele>325.0</ele><time>2026-04-05T07:23:14.776Z</time></trkpt><trkpt lat="41.5126726" lon="1.7698228"><ele>326.0</ele><time>2026-04-05T07:23:15.776Z</time></trkpt><trkpt lat="41.5127292" lon="1.7696587"><ele>327.0</ele><time>2026-04-05T07:23:16.776Z</time></trkpt><trkpt lat="41.512788" lon="1.7694969"><ele>326.75</ele><time>2026-04-05T07:23:17.776Z</time></trkpt><trkpt lat="41.5128513" lon="1.7693326"><ele>326.5</ele><time>2026-04-05T07:23:18.776Z</time></trkpt><trkpt lat="41.5129164" lon="1.7691683"><ele>326.25</ele><time>2026-04-05T07:23:19.776Z</time></trkpt><trkpt lat="41.5129874" lon="1.76901"><ele>326.0</ele><time>2026-04-05T07:23:20.776Z</time></trkpt><trkpt lat="41.513072" lon="1.7688594"><ele>326.0</ele><time>2026-04-05T07:23:21.776Z</time></trkpt><trkpt lat="41.5131744" lon="1.7687282"><ele>326.0</ele><time>2026-04-05T07:23:22.776Z</time></trkpt><trkpt lat="41.5132951" lon="1.7686203"><ele>326.0</ele><time>2026-04-05T07:23:23.777Z</time></trkpt><trkpt lat="41.5134231" lon="1.7685374"><ele>326.0</ele><time>2026-04-05T07:23:24.776Z</time></trkpt><trkpt lat="41.5135597" lon="1.768478"><ele>326.0</ele><time>2026-04-05T07:23:25.777Z</time></trkpt><trkpt lat="41.513692" lon="1.7684255"><ele>326.0</ele><time>2026-04-05T07:23:26.777Z</time></trkpt><trkpt lat="41.5138225" lon="1.7683735"><ele>326.0</ele><time>2026-04-05T07:23:27.776Z</time></trkpt><trkpt lat="41.5139406" lon="1.7683181"><ele>326.0</ele><time>2026-04-05T07:23:28.776Z</time></trkpt><trkpt lat="41.514051" lon="1.7682542"><ele>325.0</ele><time>2026-04-05T07:23:29.777Z</time></trkpt><trkpt lat="41.5141586" lon="1.7681687"><ele>324.0</ele><time>2026-04-05T07:23:30.777Z</time></trkpt><trkpt lat="41.5142613" lon="1.768065"><ele>323.0</ele><time>2026-04-05T07:23:31.777Z</time></trkpt><trkpt lat="41.5143551" lon="1.7679384"><ele>322.0</ele><time>2026-04-05T07:23:32.777Z</time></trkpt><trkpt lat="41.5144396" lon="1.7677913"><ele>321.5</ele><time>2026-04-05T07:23:33.776Z</time></trkpt><trkpt lat="41.5145236" lon="1.7676307"><ele>321.0</ele><time>2026-04-05T07:23:34.777Z</time></trkpt><trkpt lat="41.5146036" lon="1.7674628"><ele>320.5</ele><time>2026-04-05T07:23:35.776Z</time></trkpt><trkpt lat="41.5146861" lon="1.7672931"><ele>320.0</ele><time>2026-04-05T07:23:36.777Z</time></trkpt><trkpt lat="41.5147684" lon="1.7671193"><ele>320.0</ele><time>2026-04-05T07:23:37.777Z</time></trkpt><trkpt lat="41.5148527" lon="1.7669487"><ele>320.0</ele><time>2026-04-05T07:23:38.777Z</time></trkpt><trkpt lat="41.5149327" lon="1.7667792"><ele>320.0</ele><time>2026-04-05T07:23:39.777Z</time></trkpt><trkpt lat="41.5150197" lon="1.7666014"><ele>322.33333333333337</ele><time>2026-04-05T07:23:40.777Z</time></trkpt><trkpt lat="41.5151077" lon="1.766421"><ele>324.6666666666667</ele><time>2026-04-05T07:23:41.777Z</time></trkpt><trkpt lat="41.5151972" lon="1.7662414"><ele>327.0</ele><time>2026-04-05T07:23:42.776Z</time></trkpt><trkpt lat="41.5152834" lon="1.7660576"><ele>328.0</ele><time>2026-04-05T07:23:43.776Z</time></trkpt><trkpt lat="41.5153668" lon="1.7658751"><ele>329.0</ele><time>2026-04-05T07:23:44.776Z</time></trkpt><trkpt lat="41.5154546" lon="1.7656864"><ele>330.0</ele><time>2026-04-05T07:23:45.776Z</time></trkpt><trkpt lat="41.5155466" lon="1.7655011"><ele>329.3333333333333</ele><time>2026-04-05T07:23:46.777Z</time></trkpt><trkpt lat="41.5156372" lon="1.7653182"><ele>328.66666666666663</ele><time>2026-04-05T07:23:47.776Z</time></trkpt><trkpt lat="41.5157259" lon="1.7651362"><ele>328.0</ele><time>2026-04-05T07:23:48.777Z</time></trkpt><trkpt lat="41.5158165" lon="1.7649567"><ele>328.0</ele><time>2026-04-05T07:23:49.777Z</time></trkpt><trkpt lat="41.5159074" lon="1.7647707"><ele>328.0</ele><time>2026-04-05T07:23:50.776Z</time></trkpt><trkpt lat="41.5160024" lon="1.7645784"><ele>328.0</ele><time>2026-04-05T07:23:51.776Z</time></trkpt><trkpt lat="41.5160987" lon="1.7643831"><ele>327.0</ele><time>2026-04-05T07:23:52.776Z</time></trkpt><trkpt lat="41.5161918" lon="1.764185"><ele>326.0</ele><time>2026-04-05T07:23:53.776Z</time></trkpt><trkpt lat="41.5162889" lon="1.763994"><ele>325.0</ele><time>2026-04-05T07:23:54.776Z</time></trkpt><trkpt lat="41.5163848" lon="1.7638041"><ele>325.0</ele><time>2026-04-05T07:23:55.776Z</time></trkpt><trkpt lat="41.5164756" lon="1.7636218"><ele>325.0</ele><time>2026-04-05T07:23:56.776Z</time></trkpt><trkpt lat="41.5165691" lon="1.7634362"><ele>325.0</ele><time>2026-04-05T07:23:57.777Z</time></trkpt><trkpt lat="41.5166594" lon="1.7632513"><ele>327.0</ele><time>2026-04-05T07:23:58.776Z</time></trkpt><trkpt lat="41.5167496" lon="1.7630672"><ele>329.0</ele><time>2026-04-05T07:23:59.776Z</time></trkpt><trkpt lat="41.5168381" lon="1.7628794"><ele>331.0</ele><time>2026-04-05T07:24:00.776Z</time></trkpt><trkpt lat="41.5169303" lon="1.7626918"><ele>332.0</ele><time>2026-04-05T07:24:01.776Z</time></trkpt><trkpt lat="41.5170198" lon="1.7625097"><ele>333.0</ele><time>2026-04-05T07:24:02.777Z</time></trkpt><trkpt lat="41.5171129" lon="1.7623351"><ele>334.0</ele><time>2026-04-05T07:24:03.776Z</time></trkpt><trkpt lat="41.5172126" lon="1.7621679"><ele>332.75</ele><time>2026-04-05T07:24:04.777Z</time></trkpt><trkpt lat="41.5173073" lon="1.7620094"><ele>331.5</ele><time>2026-04-05T07:24:05.776Z</time></trkpt><trkpt lat="41.517391" lon="1.7618645"><ele>330.25</ele><time>2026-04-05T07:24:06.777Z</time></trkpt><trkpt lat="41.5174753" lon="1.7617308"><ele>329.0</ele><time>2026-04-05T07:24:07.777Z</time></trkpt><trkpt lat="41.5175675" lon="1.7616013"><ele>329.0</ele><time>2026-04-05T07:24:08.776Z</time></trkpt><trkpt lat="41.5176703" lon="1.761482"><ele>329.0</ele><time>2026-04-05T07:24:09.777Z</time></trkpt><trkpt lat="41.5177915" lon="1.7613804"><ele>329.0</ele><time>2026-04-05T07:24:10.777Z</time></trkpt><trkpt lat="41.5179229" lon="1.7612985"><ele>329.0</ele><time>2026-04-05T07:24:11.776Z</time></trkpt><trkpt lat="41.5180593" lon="1.761239"><ele>328.75</ele><time>2026-04-05T07:24:12.777Z</time></trkpt><trkpt lat="41.5182008" lon="1.7612027"><ele>328.5</ele><time>2026-04-05T07:24:13.776Z</time></trkpt><trkpt lat="41.5183445" lon="1.7611895"><ele>328.25</ele><time>2026-04-05T07:24:14.776Z</time></trkpt><trkpt lat="41.5184879" lon="1.7611956"><ele>328.0</ele><time>2026-04-05T07:24:15.777Z</time></trkpt><trkpt lat="41.5186255" lon="1.7612009"><ele>328.25</ele><time>2026-04-05T07:24:16.776Z</time></trkpt><trkpt lat="41.5187573" lon="1.7611947"><ele>328.5</ele><time>2026-04-05T07:24:17.776Z</time></trkpt><trkpt lat="41.51888" lon="1.7611682"><ele>328.75</ele><time>2026-04-05T07:24:18.776Z</time></trkpt><trkpt lat="41.5189983" lon="1.7611216"><ele>329.0</ele><time>2026-04-05T07:24:19.776Z</time></trkpt><trkpt lat="41.519109" lon="1.7610528"><ele>329.4</ele><time>2026-04-05T07:24:20.777Z</time></trkpt><trkpt lat="41.5192109" lon="1.7609703"><ele>329.79999999999995</ele><time>2026-04-05T07:24:21.776Z</time></trkpt><trkpt lat="41.5192991" lon="1.7608759"><ele>330.20000000000005</ele><time>2026-04-05T07:24:22.777Z</time></trkpt><trkpt lat="41.5193745" lon="1.7607797"><ele>330.6</ele><time>2026-04-05T07:24:23.776Z</time></trkpt><trkpt lat="41.5194426" lon="1.7606829"><ele>331.0</ele><time>2026-04-05T07:24:24.776Z</time></trkpt><trkpt lat="41.5195104" lon="1.760596"><ele>331.25</ele><time>2026-04-05T07:24:25.776Z</time></trkpt><trkpt lat="41.5195901" lon="1.7605273"><ele>331.5</ele><time>2026-04-05T07:24:26.776Z</time></trkpt><trkpt lat="41.519691" lon="1.760464"><ele>331.75</ele><time>2026-04-05T07:24:27.776Z</time></trkpt><trkpt lat="41.5198061" lon="1.7604129"><ele>332.0</ele><time>2026-04-05T07:24:28.776Z</time></trkpt><trkpt lat="41.5199297" lon="1.7603979"><ele>332.0</ele><time>2026-04-05T07:24:29.777Z</time></trkpt><trkpt lat="41.5200727" lon="1.7604071"><ele>332.0</ele><time>2026-04-05T07:24:30.776Z</time></trkpt><trkpt lat="41.5202281" lon="1.7604154"><ele>332.0</ele><time>2026-04-05T07:24:31.777Z</time></trkpt><trkpt lat="41.5203903" lon="1.7604249"><ele>333.6666666666667</ele><time>2026-04-05T07:24:32.776Z</time></trkpt><trkpt lat="41.520562" lon="1.7604342"><ele>335.3333333333333</ele><time>2026-04-05T07:24:33.776Z</time></trkpt><trkpt lat="41.520734" lon="1.7604452"><ele>337.0</ele><time>2026-04-05T07:24:34.777Z</time></trkpt><trkpt lat="41.5208995" lon="1.7604537"><ele>337.0</ele><time>2026-04-05T07:24:35.777Z</time></trkpt><trkpt lat="41.5210592" lon="1.7604607"><ele>337.0</ele><time>2026-04-05T07:24:36.777Z</time></trkpt><trkpt lat="41.5212197" lon="1.7604681"><ele>337.0</ele><time>2026-04-05T07:24:37.776Z</time></trkpt><trkpt lat="41.5213883" lon="1.7604726"><ele>338.0</ele><time>2026-04-05T07:24:38.776Z</time></trkpt><trkpt lat="41.5215658" lon="1.7604748"><ele>339.0</ele><time>2026-04-05T07:24:39.776Z</time></trkpt><trkpt lat="41.5217552" lon="1.7604769"><ele>340.0</ele><time>2026-04-05T07:24:40.777Z</time></trkpt><trkpt lat="41.5219461" lon="1.7604784"><ele>341.66666666666663</ele><time>2026-04-05T07:24:41.777Z</time></trkpt><trkpt lat="41.522146" lon="1.7604834"><ele>343.3333333333333</ele><time>2026-04-05T07:24:42.776Z</time></trkpt><trkpt lat="41.5223433" lon="1.7604848"><ele>345.0</ele><time>2026-04-05T07:24:43.777Z</time></trkpt><trkpt lat="41.5225466" lon="1.7604832"><ele>345.0</ele><time>2026-04-05T07:24:44.777Z</time></trkpt><trkpt lat="41.5227418" lon="1.7604807"><ele>345.0</ele><time>2026-04-05T07:24:45.777Z</time></trkpt><trkpt lat="41.5229299" lon="1.7604764"><ele>345.0</ele><time>2026-04-05T07:24:46.776Z</time></trkpt><trkpt lat="41.5231208" lon="1.7604702"><ele>345.6666666666667</ele><time>2026-04-05T07:24:47.777Z</time></trkpt><trkpt lat="41.5233213" lon="1.7604671"><ele>346.33333333333337</ele><time>2026-04-05T07:24:48.776Z</time></trkpt><trkpt lat="41.5235236" lon="1.7604635"><ele>347.0</ele><time>2026-04-05T07:24:49.776Z</time></trkpt><trkpt lat="41.523726" lon="1.7604606"><ele>346.33333333333337</ele><time>2026-04-05T07:24:50.776Z</time></trkpt><trkpt lat="41.5239289" lon="1.7604602"><ele>345.6666666666667</ele><time>2026-04-05T07:24:51.776Z</time></trkpt><trkpt lat="41.52413" lon="1.7604546"><ele>345.0</ele><time>2026-04-05T07:24:52.777Z</time></trkpt><trkpt lat="41.524332" lon="1.7604486"><ele>345.0</ele><time>2026-04-05T07:24:53.777Z</time></trkpt><trkpt lat="41.5245341" lon="1.760446"><ele>345.0</ele><time>2026-04-05T07:24:54.777Z</time></trkpt><trkpt lat="41.5247356" lon="1.7604442"><ele>345.0</ele><time>2026-04-05T07:24:55.777Z</time></trkpt><trkpt lat="41.5249375" lon="1.7604451"><ele>346.3333333333333</ele><time>2026-04-05T07:24:56.776Z</time></trkpt><trkpt lat="41.5251356" lon="1.7604434"><ele>347.66666666666663</ele><time>2026-04-05T07:24:57.777Z</time></trkpt><trkpt lat="41.5253422" lon="1.7604399"><ele>349.0</ele><time>2026-04-05T07:24:58.776Z</time></trkpt><trkpt lat="41.5255528" lon="1.7604371"><ele>349.66666666666663</ele><time>2026-04-05T07:24:59.776Z</time></trkpt><trkpt lat="41.525767" lon="1.760436"><ele>350.3333333333333</ele><time>2026-04-05T07:25:00.776Z</time></trkpt><trkpt lat="41.5259782" lon="1.7604387"><ele>351.0</ele><time>2026-04-05T07:25:01.777Z</time></trkpt><trkpt lat="41.5261954" lon="1.7604426"><ele>352.0</ele><time>2026-04-05T07:25:02.776Z</time></trkpt><trkpt lat="41.5264138" lon="1.7604435"><ele>353.0</ele><time>2026-04-05T07:25:03.777Z</time></trkpt><trkpt lat="41.5266337" lon="1.7604471"><ele>354.0</ele><time>2026-04-05T07:25:04.777Z</time></trkpt><trkpt lat="41.526853" lon="1.7604579"><ele>355.6666666666667</ele><time>2026-04-05T07:25:05.777Z</time></trkpt><trkpt lat="41.5270763" lon="1.7604682"><ele>357.33333333333337</ele><time>2026-04-05T07:25:06.777Z</time></trkpt><trkpt lat="41.527297" lon="1.7604758"><ele>359.0</ele><time>2026-04-05T07:25:07.777Z</time></trkpt><trkpt lat="41.5275175" lon="1.7604848"><ele>359.0</ele><time>2026-04-05T07:25:08.777Z</time></trkpt><trkpt lat="41.5277405" lon="1.7604941"><ele>359.0</ele><time>2026-04-05T07:25:09.776Z</time></trkpt><trkpt lat="41.5279618" lon="1.7605047"><ele>359.0</ele><time>2026-04-05T07:25:10.776Z</time></trkpt><trkpt lat="41.5281873" lon="1.7605138"><ele>360.0</ele><time>2026-04-05T07:25:11.776Z</time></trkpt><trkpt lat="41.5284126" lon="1.7605291"><ele>361.0</ele><time>2026-04-05T07:25:12.776Z</time></trkpt><trkpt lat="41.5286367" lon="1.760544"><ele>361.66666666666663</ele><time>2026-04-05T07:25:13.776Z</time></trkpt><trkpt lat="41.5288512" lon="1.7605584"><ele>362.3333333333333</ele><time>2026-04-05T07:25:14.777Z</time></trkpt><trkpt lat="41.5290595" lon="1.7605721"><ele>363.0</ele><time>2026-04-05T07:25:15.777Z</time></trkpt><trkpt lat="41.5292548" lon="1.7605928"><ele>363.0</ele><time>2026-04-05T07:25:16.776Z</time></trkpt><trkpt lat="41.5294428" lon="1.7606107"><ele>363.0</ele><time>2026-04-05T07:25:17.776Z</time></trkpt><trkpt lat="41.5296196" lon="1.7606286"><ele>363.0</ele><time>2026-04-05T07:25:18.776Z</time></trkpt><trkpt lat="41.5298005" lon="1.760649"><ele>364.0</ele><time>2026-04-05T07:25:19.777Z</time></trkpt><trkpt lat="41.5299835" lon="1.7606699"><ele>365.0</ele><time>2026-04-05T07:25:20.776Z</time></trkpt><trkpt lat="41.5301679" lon="1.7606995"><ele>366.0</ele><time>2026-04-05T07:25:21.776Z</time></trkpt><trkpt lat="41.5303487" lon="1.7607332"><ele>366.0</ele><time>2026-04-05T07:25:22.777Z</time></trkpt><trkpt lat="41.5305302" lon="1.7607688"><ele>366.0</ele><time>2026-04-05T07:25:23.777Z</time></trkpt><trkpt lat="41.5307104" lon="1.7607999"><ele>366.0</ele><time>2026-04-05T07:25:24.776Z</time></trkpt><trkpt lat="41.5308899" lon="1.7608382"><ele>366.0</ele><time>2026-04-05T07:25:25.776Z</time></trkpt><trkpt lat="41.5310754" lon="1.7608767"><ele>366.0</ele><time>2026-04-05T07:25:26.776Z</time></trkpt><trkpt lat="41.5312611" lon="1.7609222"><ele>366.0</ele><time>2026-04-05T07:25:27.776Z</time></trkpt><trkpt lat="41.5314457" lon="1.7609703"><ele>365.6666666666667</ele><time>2026-04-05T07:25:28.776Z</time></trkpt><trkpt lat="41.531625" lon="1.7610239"><ele>365.33333333333337</ele><time>2026-04-05T07:25:29.777Z</time></trkpt><trkpt lat="41.531795" lon="1.7610783"><ele>365.0</ele><time>2026-04-05T07:25:30.776Z</time></trkpt><trkpt lat="41.531958" lon="1.7611344"><ele>366.5</ele><time>2026-04-05T07:25:31.777Z</time></trkpt><trkpt lat="41.5321125" lon="1.7611855"><ele>368.0</ele><time>2026-04-05T07:25:32.777Z</time></trkpt><trkpt lat="41.5322586" lon="1.7612361"><ele>369.5</ele><time>2026-04-05T07:25:33.777Z</time></trkpt><trkpt lat="41.5323912" lon="1.7612845"><ele>371.0</ele><time>2026-04-05T07:25:34.777Z</time></trkpt><trkpt lat="41.5325123" lon="1.7613304"><ele>371.0</ele><time>2026-04-05T07:25:35.776Z</time></trkpt><trkpt lat="41.5326197" lon="1.761376"><ele>371.0</ele><time>2026-04-05T07:25:36.776Z</time></trkpt><trkpt lat="41.5327151" lon="1.7614341"><ele>371.0</ele><time>2026-04-05T07:25:37.776Z</time></trkpt><trkpt lat="41.5327974" lon="1.7615202"><ele>371.0</ele><time>2026-04-05T07:25:38.777Z</time></trkpt><trkpt lat="41.5328732" lon="1.761617"><ele>371.0</ele><time>2026-04-05T07:25:39.776Z</time></trkpt><trkpt lat="41.532956" lon="1.7616767"><ele>371.4</ele><time>2026-04-05T07:25:40.776Z</time></trkpt><trkpt lat="41.5330502" lon="1.7616979"><ele>371.8</ele><time>2026-04-05T07:25:41.777Z</time></trkpt><trkpt lat="41.5331407" lon="1.7616813"><ele>372.2</ele><time>2026-04-05T07:25:42.777Z</time></trkpt><trkpt lat="41.5332212" lon="1.7616242"><ele>372.59999999999997</ele><time>2026-04-05T07:25:43.777Z</time></trkpt><trkpt lat="41.5332838" lon="1.7615316"><ele>373.0</ele><time>2026-04-05T07:25:44.776Z</time></trkpt><trkpt lat="41.5333235" lon="1.7614123"><ele>373.0</ele><time>2026-04-05T07:25:45.776Z</time></trkpt><trkpt lat="41.5333259" lon="1.7612742"><ele>373.0</ele><time>2026-04-05T07:25:46.776Z</time></trkpt><trkpt lat="41.5333257" lon="1.761142"><ele>373.0</ele><time>2026-04-05T07:25:47.776Z</time></trkpt><trkpt lat="41.5333139" lon="1.7610016"><ele>373.0</ele><time>2026-04-05T07:25:48.776Z</time></trkpt><trkpt lat="41.533338" lon="1.7608726"><ele>373.0</ele><time>2026-04-05T07:25:49.777Z</time></trkpt><trkpt lat="41.533395" lon="1.7607608"><ele>372.75</ele><time>2026-04-05T07:25:50.776Z</time></trkpt><trkpt lat="41.533487" lon="1.7606659"><ele>372.5</ele><time>2026-04-05T07:25:51.777Z</time></trkpt><trkpt lat="41.5336029" lon="1.7605768"><ele>372.25</ele><time>2026-04-05T07:25:52.776Z</time></trkpt><trkpt lat="41.5337256" lon="1.7604953"><ele>372.0</ele><time>2026-04-05T07:25:53.776Z</time></trkpt><trkpt lat="41.5338641" lon="1.7604157"><ele>372.0</ele><time>2026-04-05T07:25:54.777Z</time></trkpt><trkpt lat="41.534003" lon="1.7603368"><ele>372.0</ele><time>2026-04-05T07:25:55.776Z</time></trkpt><trkpt lat="41.5341455" lon="1.7602528"><ele>372.0</ele><time>2026-04-05T07:25:56.776Z</time></trkpt><trkpt lat="41.5342861" lon="1.7601663"><ele>372.5</ele><time>2026-04-05T07:25:57.777Z</time></trkpt><trkpt lat="41.5344192" lon="1.7600836"><ele>373.0</ele><time>2026-04-05T07:25:58.777Z</time></trkpt><trkpt lat="41.5345518" lon="1.7599988"><ele>373.5</ele><time>2026-04-05T07:25:59.776Z</time></trkpt><trkpt lat="41.5346834" lon="1.7599074"><ele>374.0</ele><time>2026-04-05T07:26:00.777Z</time></trkpt><trkpt lat="41.5348157" lon="1.7598086"><ele>374.0</ele><time>2026-04-05T07:26:01.776Z</time></trkpt><trkpt lat="41.5349476" lon="1.7597047"><ele>374.0</ele><time>2026-04-05T07:26:02.777Z</time></trkpt><trkpt lat="41.5350819" lon="1.7595926"><ele>374.0</ele><time>2026-04-05T07:26:03.776Z</time></trkpt><trkpt lat="41.5352149" lon="1.7594732"><ele>373.0</ele><time>2026-04-05T07:26:04.776Z</time></trkpt><trkpt lat="41.5353476" lon="1.7593548"><ele>372.0</ele><time>2026-04-05T07:26:05.776Z</time></trkpt><trkpt lat="41.5354781" lon="1.7592317"><ele>371.0</ele><time>2026-04-05T07:26:06.777Z</time></trkpt><trkpt lat="41.5356023" lon="1.7590994"><ele>371.0</ele><time>2026-04-05T07:26:07.777Z</time></trkpt><trkpt lat="41.5357268" lon="1.7589703"><ele>371.0</ele><time>2026-04-05T07:26:08.776Z</time></trkpt><trkpt lat="41.535848" lon="1.7588263"><ele>371.0</ele><time>2026-04-05T07:26:09.777Z</time></trkpt><trkpt lat="41.5359657" lon="1.7586796"><ele>372.0</ele><time>2026-04-05T07:26:10.777Z</time></trkpt><trkpt lat="41.5360838" lon="1.7585343"><ele>373.0</ele><time>2026-04-05T07:26:11.776Z</time></trkpt><trkpt lat="41.5362032" lon="1.7583806"><ele>374.0</ele><time>2026-04-05T07:26:12.776Z</time></trkpt><trkpt lat="41.5363193" lon="1.7582223"><ele>374.0</ele><time>2026-04-05T07:26:13.777Z</time></trkpt><trkpt lat="41.5364294" lon="1.7580579"><ele>374.0</ele><time>2026-04-05T07:26:14.776Z</time></trkpt><trkpt lat="41.5365363" lon="1.7578879"><ele>374.0</ele><time>2026-04-05T07:26:15.776Z</time></trkpt><trkpt lat="41.5366401" lon="1.7577159"><ele>372.0</ele><time>2026-04-05T07:26:16.777Z</time></trkpt><trkpt lat="41.5367453" lon="1.7575257"><ele>370.0</ele><time>2026-04-05T07:26:17.776Z</time></trkpt><trkpt lat="41.5368565" lon="1.7573209"><ele>368.0</ele><time>2026-04-05T07:26:18.776Z</time></trkpt><trkpt lat="41.5369588" lon="1.7571106"><ele>367.33333333333337</ele><time>2026-04-05T07:26:19.777Z</time></trkpt><trkpt lat="41.5370617" lon="1.7568945"><ele>366.6666666666667</ele><time>2026-04-05T07:26:20.777Z</time></trkpt><trkpt lat="41.537156" lon="1.7566715"><ele>366.0</ele><time>2026-04-05T07:26:21.776Z</time></trkpt><trkpt lat="41.5372457" lon="1.7564435"><ele>366.0</ele><time>2026-04-05T07:26:22.776Z</time></trkpt><trkpt lat="41.53733" lon="1.7562083"><ele>366.0</ele><time>2026-04-05T07:26:23.777Z</time></trkpt><trkpt lat="41.5374113" lon="1.7559641"><ele>366.0</ele><time>2026-04-05T07:26:24.776Z</time></trkpt><trkpt lat="41.5374781" lon="1.7557141"><ele>365.6666666666667</ele><time>2026-04-05T07:26:25.776Z</time></trkpt><trkpt lat="41.5375365" lon="1.7554613"><ele>365.33333333333337</ele><time>2026-04-05T07:26:26.777Z</time></trkpt><trkpt lat="41.537583" lon="1.7551984"><ele>365.0</ele><time>2026-04-05T07:26:27.776Z</time></trkpt><trkpt lat="41.537618" lon="1.7549323"><ele>364.6666666666667</ele><time>2026-04-05T07:26:28.776Z</time></trkpt><trkpt lat="41.5376425" lon="1.7546582"><ele>364.3333333333333</ele><time>2026-04-05T07:26:29.777Z</time></trkpt><trkpt lat="41.5376543" lon="1.7543838"><ele>364.0</ele><time>2026-04-05T07:26:30.777Z</time></trkpt><trkpt lat="41.537658" lon="1.7541065"><ele>363.66666666666663</ele><time>2026-04-05T07:26:31.776Z</time></trkpt><trkpt lat="41.5376466" lon="1.7538255"><ele>363.3333333333333</ele><time>2026-04-05T07:26:32.776Z</time></trkpt><trkpt lat="41.5376248" lon="1.7535424"><ele>363.0</ele><time>2026-04-05T07:26:33.776Z</time></trkpt><trkpt lat="41.5375926" lon="1.753263"><ele>363.0</ele><time>2026-04-05T07:26:34.776Z</time></trkpt><trkpt lat="41.5375548" lon="1.7529769"><ele>363.0</ele><time>2026-04-05T07:26:35.776Z</time></trkpt><trkpt lat="41.5375132" lon="1.7526997"><ele>363.0</ele><time>2026-04-05T07:26:36.776Z</time></trkpt><trkpt lat="41.5374724" lon="1.7524173"><ele>362.3333333333333</ele><time>2026-04-05T07:26:37.776Z</time></trkpt><trkpt lat="41.5374316" lon="1.7521377"><ele>361.66666666666663</ele><time>2026-04-05T07:26:38.776Z</time></trkpt><trkpt lat="41.5373893" lon="1.7518598"><ele>361.0</ele><time>2026-04-05T07:26:39.777Z</time></trkpt><trkpt lat="41.53735" lon="1.7515784"><ele>360.0</ele><time>2026-04-05T07:26:40.776Z</time></trkpt><trkpt lat="41.5373107" lon="1.7512901"><ele>359.0</ele><time>2026-04-05T07:26:41.776Z</time></trkpt><trkpt lat="41.5372677" lon="1.7510051"><ele>358.0</ele><time>2026-04-05T07:26:42.777Z</time></trkpt><trkpt lat="41.5372262" lon="1.7507171"><ele>358.0</ele><time>2026-04-05T07:26:43.776Z</time></trkpt><trkpt lat="41.5371852" lon="1.7504407"><ele>358.0</ele><time>2026-04-05T07:26:44.777Z</time></trkpt><trkpt lat="41.5371446" lon="1.7501769"><ele>358.0</ele><time>2026-04-05T07:26:45.777Z</time></trkpt><trkpt lat="41.5371065" lon="1.7499246"><ele>358.3333333333333</ele><time>2026-04-05T07:26:46.777Z</time></trkpt><trkpt lat="41.5370705" lon="1.7496841"><ele>358.6666666666667</ele><time>2026-04-05T07:26:47.776Z</time></trkpt><trkpt lat="41.5370368" lon="1.7494617"><ele>359.0</ele><time>2026-04-05T07:26:48.777Z</time></trkpt><trkpt lat="41.5370068" lon="1.7492568"><ele>358.0</ele><time>2026-04-05T07:26:49.776Z</time></trkpt><trkpt lat="41.5369773" lon="1.7490672"><ele>357.0</ele><time>2026-04-05T07:26:50.776Z</time></trkpt><trkpt lat="41.5369563" lon="1.7489028"><ele>356.0</ele><time>2026-04-05T07:26:51.776Z</time></trkpt><trkpt lat="41.5369611" lon="1.7487631"><ele>355.0</ele><time>2026-04-05T07:26:52.776Z</time></trkpt><trkpt lat="41.5369911" lon="1.7486544"><ele>355.0</ele><time>2026-04-05T07:26:53.777Z</time></trkpt><trkpt lat="41.5370403" lon="1.7485533"><ele>355.0</ele><time>2026-04-05T07:26:54.776Z</time></trkpt><trkpt lat="41.5370648" lon="1.7484412"><ele>355.0</ele><time>2026-04-05T07:26:55.777Z</time></trkpt><trkpt lat="41.5370595" lon="1.7483227"><ele>355.0</ele><time>2026-04-05T07:26:56.776Z</time></trkpt><trkpt lat="41.5370236" lon="1.7482083"><ele>355.0</ele><time>2026-04-05T07:26:57.777Z</time></trkpt><trkpt lat="41.5369529" lon="1.7481069"><ele>354.75</ele><time>2026-04-05T07:26:58.777Z</time></trkpt><trkpt lat="41.5368654" lon="1.7480028"><ele>354.5</ele><time>2026-04-05T07:26:59.776Z</time></trkpt><trkpt lat="41.5368008" lon="1.7478635"><ele>354.25</ele><time>2026-04-05T07:27:00.776Z</time></trkpt><trkpt lat="41.5367623" lon="1.7476929"><ele>354.0</ele><time>2026-04-05T07:27:01.776Z</time></trkpt><trkpt lat="41.5367377" lon="1.7475088"><ele>354.0</ele><time>2026-04-05T07:27:02.777Z</time></trkpt><trkpt lat="41.536715" lon="1.7473071"><ele>354.0</ele><time>2026-04-05T07:27:03.776Z</time></trkpt><trkpt lat="41.5366818" lon="1.7470856"><ele>354.0</ele><time>2026-04-05T07:27:04.776Z</time></trkpt><trkpt lat="41.5366476" lon="1.7468545"><ele>355.0</ele><time>2026-04-05T07:27:05.776Z</time></trkpt><trkpt lat="41.5366161" lon="1.7466064"><ele>356.0</ele><time>2026-04-05T07:27:06.776Z</time></trkpt><trkpt lat="41.5365755" lon="1.7463469"><ele>357.0</ele><time>2026-04-05T07:27:07.777Z</time></trkpt><trkpt lat="41.5365301" lon="1.7460937"><ele>357.6666666666667</ele><time>2026-04-05T07:27:08.776Z</time></trkpt><trkpt lat="41.5364789" lon="1.7458289"><ele>358.33333333333337</ele><time>2026-04-05T07:27:09.777Z</time></trkpt><trkpt lat="41.5364269" lon="1.7455647"><ele>359.0</ele><time>2026-04-05T07:27:10.776Z</time></trkpt><trkpt lat="41.5363716" lon="1.7453033"><ele>359.6666666666667</ele><time>2026-04-05T07:27:11.776Z</time></trkpt><trkpt lat="41.5363104" lon="1.7450471"><ele>360.3333333333333</ele><time>2026-04-05T07:27:12.777Z</time></trkpt><trkpt lat="41.5362481" lon="1.7447876"><ele>361.0</ele><time>2026-04-05T07:27:13.776Z</time></trkpt><trkpt lat="41.5361831" lon="1.7445282"><ele>358.3333333333333</ele><time>2026-04-05T07:27:14.777Z</time></trkpt><trkpt lat="41.5361175" lon="1.744264"><ele>355.6666666666667</ele><time>2026-04-05T07:27:15.776Z</time></trkpt><trkpt lat="41.5360507" lon="1.7439967"><ele>353.0</ele><time>2026-04-05T07:27:16.776Z</time></trkpt><trkpt lat="41.5359845" lon="1.7437366"><ele>352.0</ele><time>2026-04-05T07:27:17.776Z</time></trkpt><trkpt lat="41.535914" lon="1.7434647"><ele>351.0</ele><time>2026-04-05T07:27:18.777Z</time></trkpt><trkpt lat="41.5358459" lon="1.7431966"><ele>350.0</ele><time>2026-04-05T07:27:19.777Z</time></trkpt><trkpt lat="41.5357747" lon="1.7429323"><ele>350.33333333333337</ele><time>2026-04-05T07:27:20.776Z</time></trkpt><trkpt lat="41.5357021" lon="1.7426685"><ele>350.6666666666667</ele><time>2026-04-05T07:27:21.776Z</time></trkpt><trkpt lat="41.535633" lon="1.7424002"><ele>351.0</ele><time>2026-04-05T07:27:22.776Z</time></trkpt><trkpt lat="41.5355611" lon="1.7421362"><ele>351.0</ele><time>2026-04-05T07:27:23.777Z</time></trkpt><trkpt lat="41.5354864" lon="1.7418681"><ele>351.0</ele><time>2026-04-05T07:27:24.777Z</time></trkpt><trkpt lat="41.5354124" lon="1.7416073"><ele>351.0</ele><time>2026-04-05T07:27:25.776Z</time></trkpt><trkpt lat="41.5353432" lon="1.7413447"><ele>349.6666666666667</ele><time>2026-04-05T07:27:26.776Z</time></trkpt><trkpt lat="41.535277" lon="1.7410887"><ele>348.33333333333337</ele><time>2026-04-05T07:27:27.776Z</time></trkpt><trkpt lat="41.5352152" lon="1.7408421"><ele>347.0</ele><time>2026-04-05T07:27:28.777Z</time></trkpt><trkpt lat="41.5351635" lon="1.7406044"><ele>347.0</ele><time>2026-04-05T07:27:29.777Z</time></trkpt><trkpt lat="41.5351317" lon="1.7403711"><ele>347.0</ele><time>2026-04-05T07:27:30.777Z</time></trkpt><trkpt lat="41.5351295" lon="1.7401321"><ele>347.0</ele><time>2026-04-05T07:27:31.777Z</time></trkpt><trkpt lat="41.5351622" lon="1.7398965"><ele>348.0</ele><time>2026-04-05T07:27:32.776Z</time></trkpt><trkpt lat="41.5352228" lon="1.7396608"><ele>349.0</ele><time>2026-04-05T07:27:33.777Z</time></trkpt><trkpt lat="41.5352906" lon="1.7394138"><ele>350.0</ele><time>2026-04-05T07:27:34.776Z</time></trkpt><trkpt lat="41.5353587" lon="1.7391585"><ele>351.6666666666667</ele><time>2026-04-05T07:27:35.776Z</time></trkpt><trkpt lat="41.535424" lon="1.7389052"><ele>353.3333333333333</ele><time>2026-04-05T07:27:36.776Z</time></trkpt><trkpt lat="41.5354854" lon="1.7386483"><ele>355.0</ele><time>2026-04-05T07:27:37.777Z</time></trkpt><trkpt lat="41.5355246" lon="1.7383952"><ele>355.0</ele><time>2026-04-05T07:27:38.777Z</time></trkpt><trkpt lat="41.5355424" lon="1.738141"><ele>355.0</ele><time>2026-04-05T07:27:39.776Z</time></trkpt><trkpt lat="41.5355537" lon="1.7378889"><ele>355.0</ele><time>2026-04-05T07:27:40.777Z</time></trkpt><trkpt lat="41.5355767" lon="1.7376555"><ele>355.3333333333333</ele><time>2026-04-05T07:27:41.777Z</time></trkpt><trkpt lat="41.5356282" lon="1.737441"><ele>355.6666666666667</ele><time>2026-04-05T07:27:42.777Z</time></trkpt><trkpt lat="41.5357029" lon="1.7372292"><ele>356.0</ele><time>2026-04-05T07:27:43.776Z</time></trkpt><trkpt lat="41.5357886" lon="1.7370149"><ele>355.0</ele><time>2026-04-05T07:27:44.776Z</time></trkpt><trkpt lat="41.5358767" lon="1.7368003"><ele>354.0</ele><time>2026-04-05T07:27:45.776Z</time></trkpt><trkpt lat="41.5359572" lon="1.7366013"><ele>353.0</ele><time>2026-04-05T07:27:46.777Z</time></trkpt><trkpt lat="41.5360311" lon="1.7364187"><ele>353.0</ele><time>2026-04-05T07:27:47.776Z</time></trkpt><trkpt lat="41.5360844" lon="1.7362546"><ele>353.0</ele><time>2026-04-05T07:27:48.776Z</time></trkpt><trkpt lat="41.53611" lon="1.7360956"><ele>353.0</ele><time>2026-04-05T07:27:49.777Z</time></trkpt><trkpt lat="41.5361062" lon="1.7359361"><ele>353.0</ele><time>2026-04-05T07:27:50.776Z</time></trkpt><trkpt lat="41.5360621" lon="1.7357869"><ele>353.75</ele><time>2026-04-05T07:27:51.777Z</time></trkpt><trkpt lat="41.5359866" lon="1.7356758"><ele>354.5</ele><time>2026-04-05T07:27:52.776Z</time></trkpt><trkpt lat="41.5358853" lon="1.7356025"><ele>355.25</ele><time>2026-04-05T07:27:53.776Z</time></trkpt><trkpt lat="41.5357706" lon="1.7355607"><ele>356.0</ele><time>2026-04-05T07:27:54.777Z</time></trkpt><trkpt lat="41.5356284" lon="1.735561"><ele>356.0</ele><time>2026-04-05T07:27:55.776Z</time></trkpt><trkpt lat="41.53548" lon="1.7355718"><ele>356.0</ele><time>2026-04-05T07:27:56.777Z</time></trkpt><trkpt lat="41.5353383" lon="1.7355641"><ele>356.0</ele><time>2026-04-05T07:27:57.777Z</time></trkpt><trkpt lat="41.5352195" lon="1.7355211"><ele>356.0</ele><time>2026-04-05T07:27:58.777Z</time></trkpt><trkpt lat="41.535132" lon="1.7354405"><ele>356.20000000000005</ele><time>2026-04-05T07:27:59.776Z</time></trkpt><trkpt lat="41.5350871" lon="1.7353243"><ele>356.40000000000003</ele><time>2026-04-05T07:28:00.777Z</time></trkpt><trkpt lat="41.5350805" lon="1.7352014"><ele>356.6</ele><time>2026-04-05T07:28:01.777Z</time></trkpt><trkpt lat="41.5351176" lon="1.7350654"><ele>356.8</ele><time>2026-04-05T07:28:02.776Z</time></trkpt><trkpt lat="41.535186" lon="1.7349353"><ele>357.0</ele><time>2026-04-05T07:28:03.776Z</time></trkpt><trkpt lat="41.5352745" lon="1.7347897"><ele>357.0</ele><time>2026-04-05T07:28:04.777Z</time></trkpt><trkpt lat="41.5353673" lon="1.7346455"><ele>357.0</ele><time>2026-04-05T07:28:05.776Z</time></trkpt><trkpt lat="41.5354609" lon="1.7344982"><ele>357.0</ele><time>2026-04-05T07:28:06.777Z</time></trkpt><trkpt lat="41.5355571" lon="1.7343445"><ele>357.0</ele><time>2026-04-05T07:28:07.776Z</time></trkpt><trkpt lat="41.5356574" lon="1.7341915"><ele>361.3333333333333</ele><time>2026-04-05T07:28:08.776Z</time></trkpt><trkpt lat="41.535761" lon="1.7340309"><ele>365.66666666666663</ele><time>2026-04-05T07:28:09.777Z</time></trkpt><trkpt lat="41.535868" lon="1.733864"><ele>370.0</ele><time>2026-04-05T07:28:10.777Z</time></trkpt><trkpt lat="41.5359781" lon="1.7336984"><ele>368.3333333333333</ele><time>2026-04-05T07:28:11.776Z</time></trkpt><trkpt lat="41.5360809" lon="1.7335269"><ele>366.6666666666667</ele><time>2026-04-05T07:28:12.777Z</time></trkpt><trkpt lat="41.5361726" lon="1.7333454"><ele>365.0</ele><time>2026-04-05T07:28:13.777Z</time></trkpt><trkpt lat="41.5362526" lon="1.7331468"><ele>369.6666666666667</ele><time>2026-04-05T07:28:14.776Z</time></trkpt><trkpt lat="41.5363222" lon="1.732938"><ele>374.3333333333333</ele><time>2026-04-05T07:28:15.776Z</time></trkpt><trkpt lat="41.5363722" lon="1.7327249"><ele>379.0</ele><time>2026-04-05T07:28:16.776Z</time></trkpt><trkpt lat="41.5363952" lon="1.7325087"><ele>380.0</ele><time>2026-04-05T07:28:17.776Z</time></trkpt><trkpt lat="41.5363911" lon="1.7322819"><ele>381.0</ele><time>2026-04-05T07:28:18.777Z</time></trkpt><trkpt lat="41.5363638" lon="1.7320537"><ele>382.0</ele><time>2026-04-05T07:28:19.776Z</time></trkpt><trkpt lat="41.5363061" lon="1.7318287"><ele>381.66666666666663</ele><time>2026-04-05T07:28:20.776Z</time></trkpt><trkpt lat="41.5362283" lon="1.731616"><ele>381.3333333333333</ele><time>2026-04-05T07:28:21.776Z</time></trkpt><trkpt lat="41.5361239" lon="1.7314239"><ele>381.0</ele><time>2026-04-05T07:28:22.776Z</time></trkpt><trkpt lat="41.535998" lon="1.7312475"><ele>381.0</ele><time>2026-04-05T07:28:23.777Z</time></trkpt><trkpt lat="41.5358574" lon="1.731085"><ele>381.0</ele><time>2026-04-05T07:28:24.777Z</time></trkpt><trkpt lat="41.5357043" lon="1.7309348"><ele>381.0</ele><time>2026-04-05T07:28:25.776Z</time></trkpt><trkpt lat="41.5355386" lon="1.7307929"><ele>379.3333333333333</ele><time>2026-04-05T07:28:26.776Z</time></trkpt><trkpt lat="41.535369" lon="1.7306559"><ele>377.66666666666663</ele><time>2026-04-05T07:28:27.777Z</time></trkpt><trkpt lat="41.535196" lon="1.7305219"><ele>376.0</ele><time>2026-04-05T07:28:28.776Z</time></trkpt><trkpt lat="41.5350229" lon="1.7303883"><ele>376.0</ele><time>2026-04-05T07:28:29.776Z</time></trkpt><trkpt lat="41.5348499" lon="1.7302503"><ele>376.0</ele><time>2026-04-05T07:28:30.777Z</time></trkpt><trkpt lat="41.5346731" lon="1.7301091"><ele>376.0</ele><time>2026-04-05T07:28:31.777Z</time></trkpt><trkpt lat="41.5344916" lon="1.7299687"><ele>373.66666666666663</ele><time>2026-04-05T07:28:32.776Z</time></trkpt><trkpt lat="41.5343115" lon="1.729828"><ele>371.3333333333333</ele><time>2026-04-05T07:28:33.776Z</time></trkpt><trkpt lat="41.5341364" lon="1.7296887"><ele>369.0</ele><time>2026-04-05T07:28:34.776Z</time></trkpt><trkpt lat="41.5339605" lon="1.7295502"><ele>369.0</ele><time>2026-04-05T07:28:35.777Z</time></trkpt><trkpt lat="41.533787" lon="1.7294157"><ele>369.0</ele><time>2026-04-05T07:28:36.776Z</time></trkpt><trkpt lat="41.5336167" lon="1.7292809"><ele>369.0</ele><time>2026-04-05T07:28:37.776Z</time></trkpt><trkpt lat="41.5334504" lon="1.7291421"><ele>367.6666666666667</ele><time>2026-04-05T07:28:38.777Z</time></trkpt><trkpt lat="41.5332964" lon="1.7289936"><ele>366.33333333333337</ele><time>2026-04-05T07:28:39.777Z</time></trkpt><trkpt lat="41.5331523" lon="1.7288241"><ele>365.0</ele><time>2026-04-05T07:28:40.776Z</time></trkpt><trkpt lat="41.5330284" lon="1.728619"><ele>364.33333333333337</ele><time>2026-04-05T07:28:41.777Z</time></trkpt><trkpt lat="41.5329293" lon="1.7283913"><ele>363.6666666666667</ele><time>2026-04-05T07:28:42.776Z</time></trkpt><trkpt lat="41.5328641" lon="1.7281414"><ele>363.0</ele><time>2026-04-05T07:28:43.776Z</time></trkpt><trkpt lat="41.5328309" lon="1.7278746"><ele>361.0</ele><time>2026-04-05T07:28:44.777Z</time></trkpt><trkpt lat="41.5328193" lon="1.7275902"><ele>359.0</ele><time>2026-04-05T07:28:45.777Z</time></trkpt><trkpt lat="41.5328097" lon="1.7273009"><ele>357.0</ele><time>2026-04-05T07:28:46.776Z</time></trkpt><trkpt lat="41.5327872" lon="1.727011"><ele>355.3333333333333</ele><time>2026-04-05T07:28:47.777Z</time></trkpt><trkpt lat="41.5327418" lon="1.7267204"><ele>353.66666666666663</ele><time>2026-04-05T07:28:48.776Z</time></trkpt><trkpt lat="41.5326735" lon="1.7264372"><ele>352.0</ele><time>2026-04-05T07:28:49.777Z</time></trkpt><trkpt lat="41.5325907" lon="1.7261464"><ele>351.0</ele><time>2026-04-05T07:28:50.776Z</time></trkpt><trkpt lat="41.5325068" lon="1.7258647"><ele>350.0</ele><time>2026-04-05T07:28:51.777Z</time></trkpt><trkpt lat="41.5324386" lon="1.7255761"><ele>350.0</ele><time>2026-04-05T07:28:52.777Z</time></trkpt><trkpt lat="41.5323913" lon="1.725289"><ele>350.0</ele><time>2026-04-05T07:28:53.776Z</time></trkpt><trkpt lat="41.5323673" lon="1.7249971"><ele>350.0</ele><time>2026-04-05T07:28:54.777Z</time></trkpt><trkpt lat="41.5323367" lon="1.7247014"><ele>350.0</ele><time>2026-04-05T07:28:55.777Z</time></trkpt><trkpt lat="41.5323009" lon="1.7244061"><ele>350.0</ele><time>2026-04-05T07:28:56.776Z</time></trkpt><trkpt lat="41.5322599" lon="1.7241125"><ele>350.0</ele><time>2026-04-05T07:28:57.776Z</time></trkpt><trkpt lat="41.5322215" lon="1.7238149"><ele>351.6666666666667</ele><time>2026-04-05T07:28:58.776Z</time></trkpt><trkpt lat="41.5321821" lon="1.7235195"><ele>353.3333333333333</ele><time>2026-04-05T07:28:59.776Z</time></trkpt><trkpt lat="41.5321426" lon="1.7232359"><ele>355.0</ele><time>2026-04-05T07:29:00.776Z</time></trkpt><trkpt lat="41.5321066" lon="1.7229653"><ele>353.66666666666663</ele><time>2026-04-05T07:29:01.777Z</time></trkpt><trkpt lat="41.532073" lon="1.7227122"><ele>352.3333333333333</ele><time>2026-04-05T07:29:02.776Z</time></trkpt><trkpt lat="41.5320441" lon="1.7224738"><ele>351.0</ele><time>2026-04-05T07:29:03.777Z</time></trkpt><trkpt lat="41.532017" lon="1.7222468"><ele>351.0</ele><time>2026-04-05T07:29:04.776Z</time></trkpt><trkpt lat="41.5319883" lon="1.7220297"><ele>351.0</ele><time>2026-04-05T07:29:05.776Z</time></trkpt><trkpt lat="41.5319587" lon="1.7218186"><ele>351.0</ele><time>2026-04-05T07:29:06.777Z</time></trkpt><trkpt lat="41.531909" lon="1.7216227"><ele>352.6666666666667</ele><time>2026-04-05T07:29:07.776Z</time></trkpt><trkpt lat="41.5318425" lon="1.7214308"><ele>354.33333333333337</ele><time>2026-04-05T07:29:08.777Z</time></trkpt><trkpt lat="41.5317602" lon="1.7212391"><ele>356.0</ele><time>2026-04-05T07:29:09.776Z</time></trkpt><trkpt lat="41.5316797" lon="1.7210397"><ele>357.6666666666667</ele><time>2026-04-05T07:29:10.776Z</time></trkpt><trkpt lat="41.5315976" lon="1.7208394"><ele>359.3333333333333</ele><time>2026-04-05T07:29:11.776Z</time></trkpt><trkpt lat="41.5315155" lon="1.7206406"><ele>361.0</ele><time>2026-04-05T07:29:12.777Z</time></trkpt><trkpt lat="41.5314316" lon="1.7204451"><ele>361.0</ele><time>2026-04-05T07:29:13.776Z</time></trkpt><trkpt lat="41.5313484" lon="1.720267"><ele>361.0</ele><time>2026-04-05T07:29:14.776Z</time></trkpt><trkpt lat="41.5312479" lon="1.7201178"><ele>361.0</ele><time>2026-04-05T07:29:15.777Z</time></trkpt><trkpt lat="41.5311291" lon="1.7199911"><ele>360.3333333333333</ele><time>2026-04-05T07:29:16.776Z</time></trkpt><trkpt lat="41.5309765" lon="1.7198966"><ele>359.6666666666667</ele><time>2026-04-05T07:29:17.777Z</time></trkpt><trkpt lat="41.530819" lon="1.7198041"><ele>359.0</ele><time>2026-04-05T07:29:18.777Z</time></trkpt><trkpt lat="41.5306577" lon="1.7197086"><ele>359.0</ele><time>2026-04-05T07:29:19.777Z</time></trkpt><trkpt lat="41.5305051" lon="1.7195937"><ele>359.0</ele><time>2026-04-05T07:29:20.776Z</time></trkpt><trkpt lat="41.5303647" lon="1.7194485"><ele>359.0</ele><time>2026-04-05T07:29:21.777Z</time></trkpt><trkpt lat="41.53023" lon="1.7192781"><ele>358.6666666666667</ele><time>2026-04-05T07:29:22.776Z</time></trkpt><trkpt lat="41.5300992" lon="1.7191013"><ele>358.3333333333333</ele><time>2026-04-05T07:29:23.777Z</time></trkpt><trkpt lat="41.5299646" lon="1.7189431"><ele>358.0</ele><time>2026-04-05T07:29:24.776Z</time></trkpt><trkpt lat="41.5298156" lon="1.7188103"><ele>358.0</ele><time>2026-04-05T07:29:25.777Z</time></trkpt><trkpt lat="41.5296464" lon="1.7187088"><ele>358.0</ele><time>2026-04-05T07:29:26.777Z</time></trkpt><trkpt lat="41.5294674" lon="1.7186295"><ele>358.0</ele><time>2026-04-05T07:29:27.777Z</time></trkpt><trkpt lat="41.5292857" lon="1.7185564"><ele>358.0</ele><time>2026-04-05T07:29:28.776Z</time></trkpt><trkpt lat="41.5291115" lon="1.7184772"><ele>358.0</ele><time>2026-04-05T07:29:29.777Z</time></trkpt><trkpt lat="41.5289516" lon="1.7183715"><ele>358.0</ele><time>2026-04-05T07:29:30.776Z</time></trkpt><trkpt lat="41.5288132" lon="1.7182305"><ele>355.66666666666663</ele><time>2026-04-05T07:29:31.777Z</time></trkpt><trkpt lat="41.5286853" lon="1.7180558"><ele>353.3333333333333</ele><time>2026-04-05T07:29:32.777Z</time></trkpt><trkpt lat="41.5285529" lon="1.717869"><ele>351.0</ele><time>2026-04-05T07:29:33.776Z</time></trkpt><trkpt lat="41.5284119" lon="1.7176845"><ele>351.0</ele><time>2026-04-05T07:29:34.777Z</time></trkpt><trkpt lat="41.5282735" lon="1.7175009"><ele>351.0</ele><time>2026-04-05T07:29:35.776Z</time></trkpt><trkpt lat="41.5281311" lon="1.7173265"><ele>351.0</ele><time>2026-04-05T07:29:36.777Z</time></trkpt><trkpt lat="41.5279778" lon="1.7171715"><ele>350.0</ele><time>2026-04-05T07:29:37.777Z</time></trkpt><trkpt lat="41.5278139" lon="1.71703"><ele>349.0</ele><time>2026-04-05T07:29:38.777Z</time></trkpt><trkpt lat="41.5276431" lon="1.716898"><ele>348.0</ele><time>2026-04-05T07:29:39.776Z</time></trkpt><trkpt lat="41.5274758" lon="1.7167588"><ele>348.0</ele><time>2026-04-05T07:29:40.777Z</time></trkpt><trkpt lat="41.5273051" lon="1.7166183"><ele>348.0</ele><time>2026-04-05T07:29:41.776Z</time></trkpt><trkpt lat="41.527134" lon="1.7164758"><ele>348.0</ele><time>2026-04-05T07:29:42.776Z</time></trkpt><trkpt lat="41.5269628" lon="1.7163325"><ele>347.6666666666667</ele><time>2026-04-05T07:29:43.776Z</time></trkpt><trkpt lat="41.5267903" lon="1.7161884"><ele>347.33333333333337</ele><time>2026-04-05T07:29:44.777Z</time></trkpt><trkpt lat="41.5266175" lon="1.7160438"><ele>347.0</ele><time>2026-04-05T07:29:45.776Z</time></trkpt><trkpt lat="41.5264427" lon="1.7158974"><ele>347.0</ele><time>2026-04-05T07:29:46.776Z</time></trkpt><trkpt lat="41.526267" lon="1.7157507"><ele>347.0</ele><time>2026-04-05T07:29:47.777Z</time></trkpt><trkpt lat="41.526097" lon="1.715597"><ele>347.0</ele><time>2026-04-05T07:29:48.777Z</time></trkpt><trkpt lat="41.525938" lon="1.7154323"><ele>345.33333333333337</ele><time>2026-04-05T07:29:49.776Z</time></trkpt><trkpt lat="41.5257935" lon="1.7152444"><ele>343.6666666666667</ele><time>2026-04-05T07:29:50.776Z</time></trkpt><trkpt lat="41.5256494" lon="1.7150339"><ele>342.0</ele><time>2026-04-05T07:29:51.777Z</time></trkpt><trkpt lat="41.5255096" lon="1.714824"><ele>337.3333333333333</ele><time>2026-04-05T07:29:52.776Z</time></trkpt><trkpt lat="41.5253717" lon="1.7146297"><ele>332.66666666666663</ele><time>2026-04-05T07:29:53.776Z</time></trkpt><trkpt lat="41.5252374" lon="1.7144415"><ele>328.0</ele><time>2026-04-05T07:29:54.777Z</time></trkpt><trkpt lat="41.5251147" lon="1.7142659"><ele>328.0</ele><time>2026-04-05T07:29:55.776Z</time></trkpt><trkpt lat="41.5249997" lon="1.7140909"><ele>328.0</ele><time>2026-04-05T07:29:56.776Z</time></trkpt><trkpt lat="41.5249003" lon="1.713913"><ele>328.0</ele><time>2026-04-05T07:29:57.777Z</time></trkpt><trkpt lat="41.5248184" lon="1.7137269"><ele>325.66666666666663</ele><time>2026-04-05T07:29:58.777Z</time></trkpt><trkpt lat="41.5247312" lon="1.713535"><ele>323.3333333333333</ele><time>2026-04-05T07:29:59.777Z</time></trkpt><trkpt lat="41.5246234" lon="1.7133762"><ele>321.0</ele><time>2026-04-05T07:30:00.777Z</time></trkpt><trkpt lat="41.5244885" lon="1.7132495"><ele>321.0</ele><time>2026-04-05T07:30:01.777Z</time></trkpt><trkpt lat="41.5243273" lon="1.7131599"><ele>321.0</ele><time>2026-04-05T07:30:02.776Z</time></trkpt><trkpt lat="41.5241565" lon="1.7130802"><ele>321.0</ele><time>2026-04-05T07:30:03.776Z</time></trkpt><trkpt lat="41.523994" lon="1.7129796"><ele>321.0</ele><time>2026-04-05T07:30:04.776Z</time></trkpt><trkpt lat="41.5238397" lon="1.7128528"><ele>321.0</ele><time>2026-04-05T07:30:05.776Z</time></trkpt><trkpt lat="41.5236922" lon="1.7126932"><ele>321.0</ele><time>2026-04-05T07:30:06.776Z</time></trkpt><trkpt lat="41.5235604" lon="1.7125168"><ele>321.6666666666667</ele><time>2026-04-05T07:30:07.776Z</time></trkpt><trkpt lat="41.5234342" lon="1.712345"><ele>322.33333333333337</ele><time>2026-04-05T07:30:08.776Z</time></trkpt><trkpt lat="41.5232979" lon="1.71221"><ele>323.0</ele><time>2026-04-05T07:30:09.776Z</time></trkpt><trkpt lat="41.523144" lon="1.7121156"><ele>323.0</ele><time>2026-04-05T07:30:10.777Z</time></trkpt><trkpt lat="41.5229656" lon="1.7120536"><ele>323.0</ele><time>2026-04-05T07:30:11.777Z</time></trkpt><trkpt lat="41.5227789" lon="1.7120062"><ele>323.0</ele><time>2026-04-05T07:30:12.777Z</time></trkpt><trkpt lat="41.5226" lon="1.7119681"><ele>324.0</ele><time>2026-04-05T07:30:13.776Z</time></trkpt><trkpt lat="41.5224259" lon="1.7119268"><ele>325.0</ele><time>2026-04-05T07:30:14.776Z</time></trkpt><trkpt lat="41.5222584" lon="1.7118443"><ele>326.0</ele><time>2026-04-05T07:30:15.777Z</time></trkpt><trkpt lat="41.5221028" lon="1.7117226"><ele>321.6666666666667</ele><time>2026-04-05T07:30:16.776Z</time></trkpt><trkpt lat="41.5219587" lon="1.7115725"><ele>317.3333333333333</ele><time>2026-04-05T07:30:17.777Z</time></trkpt><trkpt lat="41.5218195" lon="1.7114182"><ele>313.0</ele><time>2026-04-05T07:30:18.776Z</time></trkpt><trkpt lat="41.521685" lon="1.7112717"><ele>313.0</ele><time>2026-04-05T07:30:19.776Z</time></trkpt><trkpt lat="41.5215628" lon="1.7111372"><ele>313.0</ele><time>2026-04-05T07:30:20.777Z</time></trkpt><trkpt lat="41.5214426" lon="1.7110091"><ele>313.0</ele><time>2026-04-05T07:30:21.776Z</time></trkpt><trkpt lat="41.52133" lon="1.7108862"><ele>311.25</ele><time>2026-04-05T07:30:22.776Z</time></trkpt><trkpt lat="41.5212236" lon="1.7107778"><ele>309.5</ele><time>2026-04-05T07:30:23.777Z</time></trkpt><trkpt lat="41.5211326" lon="1.7106751"><ele>307.75</ele><time>2026-04-05T07:30:24.776Z</time></trkpt><trkpt lat="41.5210468" lon="1.7105842"><ele>306.0</ele><time>2026-04-05T07:30:25.776Z</time></trkpt><trkpt lat="41.5209677" lon="1.7104939"><ele>306.0</ele><time>2026-04-05T07:30:26.777Z</time></trkpt><trkpt lat="41.5208848" lon="1.710404"><ele>306.0</ele><time>2026-04-05T07:30:27.777Z</time></trkpt><trkpt lat="41.5208027" lon="1.7103148"><ele>306.0</ele><time>2026-04-05T07:30:28.777Z</time></trkpt><trkpt lat="41.5207226" lon="1.7102245"><ele>306.0</ele><time>2026-04-05T07:30:29.776Z</time></trkpt><trkpt lat="41.5206385" lon="1.71014"><ele>306.0</ele><time>2026-04-05T07:30:30.776Z</time></trkpt><trkpt lat="41.5205543" lon="1.7100558"><ele>306.1666666666667</ele><time>2026-04-05T07:30:31.777Z</time></trkpt><trkpt lat="41.5204774" lon="1.7099713"><ele>306.3333333333333</ele><time>2026-04-05T07:30:32.777Z</time></trkpt><trkpt lat="41.5204067" lon="1.7098892"><ele>306.5</ele><time>2026-04-05T07:30:33.776Z</time></trkpt><trkpt lat="41.5203415" lon="1.7098193"><ele>306.66666666666663</ele><time>2026-04-05T07:30:34.777Z</time></trkpt><trkpt lat="41.5202777" lon="1.709748"><ele>306.8333333333333</ele><time>2026-04-05T07:30:35.777Z</time></trkpt><trkpt lat="41.5202141" lon="1.7096801"><ele>307.0</ele><time>2026-04-05T07:30:36.777Z</time></trkpt><trkpt lat="41.5201519" lon="1.709619"><ele>306.16666666666663</ele><time>2026-04-05T07:30:37.777Z</time></trkpt><trkpt lat="41.5200938" lon="1.7095559"><ele>305.3333333333333</ele><time>2026-04-05T07:30:38.776Z</time></trkpt><trkpt lat="41.520027" lon="1.7094785"><ele>304.5</ele><time>2026-04-05T07:30:39.777Z</time></trkpt><trkpt lat="41.5199536" lon="1.7093979"><ele>303.6666666666667</ele><time>2026-04-05T07:30:40.777Z</time></trkpt><trkpt lat="41.5198825" lon="1.7093182"><ele>302.83333333333337</ele><time>2026-04-05T07:30:41.776Z</time></trkpt><trkpt lat="41.5198142" lon="1.7092373"><ele>302.0</ele><time>2026-04-05T07:30:42.777Z</time></trkpt><trkpt lat="41.5197489" lon="1.7091552"><ele>301.5</ele><time>2026-04-05T07:30:43.777Z</time></trkpt><trkpt lat="41.5196833" lon="1.7090713"><ele>301.0</ele><time>2026-04-05T07:30:44.777Z</time></trkpt><trkpt lat="41.5196231" lon="1.7089791"><ele>300.5</ele><time>2026-04-05T07:30:45.777Z</time></trkpt><trkpt lat="41.5195763" lon="1.7088877"><ele>300.0</ele><time>2026-04-05T07:30:46.776Z</time></trkpt><trkpt lat="41.5195551" lon="1.708789"><ele>299.5</ele><time>2026-04-05T07:30:47.776Z</time></trkpt><trkpt lat="41.5195607" lon="1.7086674"><ele>299.0</ele><time>2026-04-05T07:30:48.776Z</time></trkpt><trkpt lat="41.5195974" lon="1.708557"><ele>298.4</ele><time>2026-04-05T07:30:49.777Z</time></trkpt><trkpt lat="41.5196444" lon="1.7084379"><ele>297.79999999999995</ele><time>2026-04-05T07:30:50.776Z</time></trkpt><trkpt lat="41.5196966" lon="1.7083208"><ele>297.20000000000005</ele><time>2026-04-05T07:30:51.776Z</time></trkpt><trkpt lat="41.5197601" lon="1.7082018"><ele>296.6</ele><time>2026-04-05T07:30:52.776Z</time></trkpt><trkpt lat="41.5198206" lon="1.7080944"><ele>296.0</ele><time>2026-04-05T07:30:53.776Z</time></trkpt><trkpt lat="41.5198997" lon="1.7079944"><ele>296.0</ele><time>2026-04-05T07:30:54.777Z</time></trkpt><trkpt lat="41.5199913" lon="1.7079068"><ele>296.0</ele><time>2026-04-05T07:30:55.776Z</time></trkpt><trkpt lat="41.520083" lon="1.70782"><ele>296.0</ele><time>2026-04-05T07:30:56.776Z</time></trkpt><trkpt lat="41.5201723" lon="1.70773"><ele>296.0</ele><time>2026-04-05T07:30:57.777Z</time></trkpt><trkpt lat="41.5202395" lon="1.7076229"><ele>296.0</ele><time>2026-04-05T07:30:58.776Z</time></trkpt><trkpt lat="41.5202845" lon="1.7074968"><ele>294.5</ele><time>2026-04-05T07:30:59.777Z</time></trkpt><trkpt lat="41.5203137" lon="1.7073479"><ele>293.0</ele><time>2026-04-05T07:31:00.777Z</time></trkpt><trkpt lat="41.5203379" lon="1.7071952"><ele>291.5</ele><time>2026-04-05T07:31:01.777Z</time></trkpt><trkpt lat="41.5203589" lon="1.707035"><ele>290.0</ele><time>2026-04-05T07:31:02.777Z</time></trkpt><trkpt lat="41.5203789" lon="1.7068606"><ele>288.5</ele><time>2026-04-05T07:31:03.776Z</time></trkpt><trkpt lat="41.5203994" lon="1.7066803"><ele>287.0</ele><time>2026-04-05T07:31:04.777Z</time></trkpt><trkpt lat="41.5204226" lon="1.706505"><ele>285.5</ele><time>2026-04-05T07:31:05.777Z</time></trkpt><trkpt lat="41.520455" lon="1.7063232"><ele>284.0</ele><time>2026-04-05T07:31:06.777Z</time></trkpt><trkpt lat="41.5205185" lon="1.7061622"><ele>283.0</ele><time>2026-04-05T07:31:07.776Z</time></trkpt><trkpt lat="41.5205886" lon="1.7060186"><ele>282.0</ele><time>2026-04-05T07:31:08.777Z</time></trkpt><trkpt lat="41.5206736" lon="1.7059114"><ele>281.0</ele><time>2026-04-05T07:31:09.777Z</time></trkpt><trkpt lat="41.520788" lon="1.7058432"><ele>280.0</ele><time>2026-04-05T07:31:10.776Z</time></trkpt><trkpt lat="41.5209288" lon="1.7058185"><ele>280.0</ele><time>2026-04-05T07:31:11.777Z</time></trkpt><trkpt lat="41.5210891" lon="1.7058232"><ele>280.0</ele><time>2026-04-05T07:31:12.777Z</time></trkpt><trkpt lat="41.5212564" lon="1.7058412"><ele>280.0</ele><time>2026-04-05T07:31:13.776Z</time></trkpt><trkpt lat="41.5214209" lon="1.7058878"><ele>278.66666666666663</ele><time>2026-04-05T07:31:14.776Z</time></trkpt><trkpt lat="41.5215835" lon="1.7059627"><ele>277.3333333333333</ele><time>2026-04-05T07:31:15.777Z</time></trkpt><trkpt lat="41.5217603" lon="1.7060592"><ele>276.0</ele><time>2026-04-05T07:31:16.776Z</time></trkpt><trkpt lat="41.5219375" lon="1.706136"><ele>277.0</ele><time>2026-04-05T07:31:17.776Z</time></trkpt><trkpt lat="41.5221047" lon="1.7062161"><ele>278.0</ele><time>2026-04-05T07:31:18.777Z</time></trkpt><trkpt lat="41.5222741" lon="1.7062965"><ele>279.0</ele><time>2026-04-05T07:31:19.776Z</time></trkpt><trkpt lat="41.5224424" lon="1.7063726"><ele>279.0</ele><time>2026-04-05T07:31:20.776Z</time></trkpt><trkpt lat="41.5226093" lon="1.706451"><ele>279.0</ele><time>2026-04-05T07:31:21.776Z</time></trkpt><trkpt lat="41.52277" lon="1.7065247"><ele>279.0</ele><time>2026-04-05T07:31:22.777Z</time></trkpt><trkpt lat="41.5229301" lon="1.7065972"><ele>274.6666666666667</ele><time>2026-04-05T07:31:23.776Z</time></trkpt><trkpt lat="41.5230834" lon="1.7066739"><ele>270.33333333333337</ele><time>2026-04-05T07:31:24.776Z</time></trkpt><trkpt lat="41.5232224" lon="1.70676"><ele>266.0</ele><time>2026-04-05T07:31:25.777Z</time></trkpt><trkpt lat="41.5233498" lon="1.7068519"><ele>266.40000000000003</ele><time>2026-04-05T07:31:26.776Z</time></trkpt><trkpt lat="41.5234605" lon="1.7069285"><ele>266.8</ele><time>2026-04-05T07:31:27.777Z</time></trkpt><trkpt lat="41.5235657" lon="1.7069812"><ele>267.20000000000005</ele><time>2026-04-05T07:31:28.776Z</time></trkpt><trkpt lat="41.5236609" lon="1.7069772"><ele>267.6</ele><time>2026-04-05T07:31:29.776Z</time></trkpt><trkpt lat="41.5237442" lon="1.7069231"><ele>268.0</ele><time>2026-04-05T07:31:30.776Z</time></trkpt><trkpt lat="41.5238027" lon="1.7068219"><ele>266.5</ele><time>2026-04-05T07:31:31.777Z</time></trkpt><trkpt lat="41.5238327" lon="1.7066868"><ele>265.0</ele><time>2026-04-05T07:31:32.777Z</time></trkpt><trkpt lat="41.5238301" lon="1.7065239"><ele>263.5</ele><time>2026-04-05T07:31:33.777Z</time></trkpt><trkpt lat="41.5237989" lon="1.7063485"><ele>262.0</ele><time>2026-04-05T07:31:34.776Z</time></trkpt><trkpt lat="41.5237454" lon="1.7061796"><ele>260.5</ele><time>2026-04-05T07:31:35.777Z</time></trkpt><trkpt lat="41.5236637" lon="1.7060287"><ele>259.0</ele><time>2026-04-05T07:31:36.777Z</time></trkpt><trkpt lat="41.5235522" lon="1.7059115"><ele>257.5</ele><time>2026-04-05T07:31:37.776Z</time></trkpt><trkpt lat="41.5234307" lon="1.7058347"><ele>256.0</ele><time>2026-04-05T07:31:38.777Z</time></trkpt><trkpt lat="41.5232981" lon="1.705783"><ele>256.0</ele><time>2026-04-05T07:31:39.777Z</time></trkpt><trkpt lat="41.5231654" lon="1.7057239"><ele>256.0</ele><time>2026-04-05T07:31:40.776Z</time></trkpt><trkpt lat="41.5230469" lon="1.7056285"><ele>256.0</ele><time>2026-04-05T07:31:41.777Z</time></trkpt><trkpt lat="41.5229399" lon="1.7054809"><ele>256.0</ele><time>2026-04-05T07:31:42.777Z</time></trkpt><trkpt lat="41.5228481" lon="1.7053015"><ele>254.0</ele><time>2026-04-05T07:31:43.777Z</time></trkpt><trkpt lat="41.5227667" lon="1.7050992"><ele>252.0</ele><time>2026-04-05T07:31:44.776Z</time></trkpt><trkpt lat="41.522684" lon="1.7049053"><ele>250.0</ele><time>2026-04-05T07:31:45.776Z</time></trkpt><trkpt lat="41.5225878" lon="1.7047245"><ele>250.0</ele><time>2026-04-05T07:31:46.776Z</time></trkpt><trkpt lat="41.5224687" lon="1.7045529"><ele>250.0</ele><time>2026-04-05T07:31:47.776Z</time></trkpt><trkpt lat="41.5223372" lon="1.7043936"><ele>250.0</ele><time>2026-04-05T07:31:48.776Z</time></trkpt><trkpt lat="41.5222044" lon="1.7042343"><ele>250.0</ele><time>2026-04-05T07:31:49.777Z</time></trkpt><trkpt lat="41.5220713" lon="1.7040848"><ele>250.0</ele><time>2026-04-05T07:31:50.776Z</time></trkpt><trkpt lat="41.5219403" lon="1.7039429"><ele>250.0</ele><time>2026-04-05T07:31:51.776Z</time></trkpt><trkpt lat="41.5218138" lon="1.7038086"><ele>250.0</ele><time>2026-04-05T07:31:52.777Z</time></trkpt><trkpt lat="41.5216964" lon="1.7036685"><ele>250.0</ele><time>2026-04-05T07:31:53.776Z</time></trkpt><trkpt lat="41.5215788" lon="1.7035201"><ele>250.0</ele><time>2026-04-05T07:31:54.776Z</time></trkpt><trkpt lat="41.5214665" lon="1.7033639"><ele>250.33333333333331</ele><time>2026-04-05T07:31:55.776Z</time></trkpt><trkpt lat="41.5213693" lon="1.7031997"><ele>250.66666666666669</ele><time>2026-04-05T07:31:56.777Z</time></trkpt><trkpt lat="41.5212894" lon="1.7030097"><ele>251.0</ele><time>2026-04-05T07:31:57.777Z</time></trkpt><trkpt lat="41.5212299" lon="1.7027911"><ele>248.0</ele><time>2026-04-05T07:31:58.777Z</time></trkpt><trkpt lat="41.5211958" lon="1.7025548"><ele>245.0</ele><time>2026-04-05T07:31:59.777Z</time></trkpt><trkpt lat="41.5211819" lon="1.7023124"><ele>242.0</ele><time>2026-04-05T07:32:00.776Z</time></trkpt><trkpt lat="41.5211771" lon="1.7020656"><ele>241.66666666666669</ele><time>2026-04-05T07:32:01.777Z</time></trkpt><trkpt lat="41.5211724" lon="1.7018217"><ele>241.33333333333331</ele><time>2026-04-05T07:32:02.776Z</time></trkpt><trkpt lat="41.5211705" lon="1.701578"><ele>241.0</ele><time>2026-04-05T07:32:03.776Z</time></trkpt><trkpt lat="41.5211808" lon="1.7013331"><ele>241.0</ele><time>2026-04-05T07:32:04.776Z</time></trkpt><trkpt lat="41.5212066" lon="1.701084"><ele>241.0</ele><time>2026-04-05T07:32:05.777Z</time></trkpt><trkpt lat="41.5212451" lon="1.7008382"><ele>241.0</ele><time>2026-04-05T07:32:06.776Z</time></trkpt><trkpt lat="41.521289" lon="1.7006006"><ele>244.66666666666666</ele><time>2026-04-05T07:32:07.776Z</time></trkpt><trkpt lat="41.521331" lon="1.7003648"><ele>248.33333333333331</ele><time>2026-04-05T07:32:08.777Z</time></trkpt><trkpt lat="41.5213668" lon="1.7001301"><ele>252.0</ele><time>2026-04-05T07:32:09.777Z</time></trkpt><trkpt lat="41.5213874" lon="1.6998992"><ele>252.0</ele><time>2026-04-05T07:32:10.777Z</time></trkpt><trkpt lat="41.5213953" lon="1.699662"><ele>252.0</ele><time>2026-04-05T07:32:11.777Z</time></trkpt><trkpt lat="41.5213888" lon="1.6994144"><ele>252.0</ele><time>2026-04-05T07:32:12.776Z</time></trkpt><trkpt lat="41.5213749" lon="1.6991669"><ele>251.66666666666669</ele><time>2026-04-05T07:32:13.776Z</time></trkpt><trkpt lat="41.5213601" lon="1.6989235"><ele>251.33333333333334</ele><time>2026-04-05T07:32:14.776Z</time></trkpt><trkpt lat="41.5213441" lon="1.6986834"><ele>251.0</ele><time>2026-04-05T07:32:15.776Z</time></trkpt><trkpt lat="41.5213256" lon="1.6984411"><ele>250.66666666666669</ele><time>2026-04-05T07:32:16.777Z</time></trkpt><trkpt lat="41.5213058" lon="1.6981952"><ele>250.33333333333331</ele><time>2026-04-05T07:32:17.776Z</time></trkpt><trkpt lat="41.5212826" lon="1.697951"><ele>250.0</ele><time>2026-04-05T07:32:18.776Z</time></trkpt><trkpt lat="41.5212636" lon="1.6977081"><ele>250.66666666666666</ele><time>2026-04-05T07:32:19.777Z</time></trkpt><trkpt lat="41.5212453" lon="1.6974647"><ele>251.33333333333331</ele><time>2026-04-05T07:32:20.776Z</time></trkpt><trkpt lat="41.5212264" lon="1.6972235"><ele>252.0</ele><time>2026-04-05T07:32:21.777Z</time></trkpt><trkpt lat="41.5212045" lon="1.6969786"><ele>248.33333333333331</ele><time>2026-04-05T07:32:22.777Z</time></trkpt><trkpt lat="41.5211841" lon="1.6967322"><ele>244.66666666666666</ele><time>2026-04-05T07:32:23.776Z</time></trkpt><trkpt lat="41.5211714" lon="1.6964841"><ele>241.0</ele><time>2026-04-05T07:32:24.777Z</time></trkpt><trkpt lat="41.5211661" lon="1.6962367"><ele>241.66666666666666</ele><time>2026-04-05T07:32:25.777Z</time></trkpt><trkpt lat="41.5211602" lon="1.6959861"><ele>242.33333333333331</ele><time>2026-04-05T07:32:26.777Z</time></trkpt><trkpt lat="41.5211546" lon="1.6957433"><ele>243.0</ele><time>2026-04-05T07:32:27.777Z</time></trkpt><trkpt lat="41.5211441" lon="1.6955049"><ele>243.0</ele><time>2026-04-05T07:32:28.776Z</time></trkpt><trkpt lat="41.5211275" lon="1.6952748"><ele>243.0</ele><time>2026-04-05T07:32:29.777Z</time></trkpt><trkpt lat="41.5211105" lon="1.6950483"><ele>243.0</ele><time>2026-04-05T07:32:30.777Z</time></trkpt><trkpt lat="41.5211024" lon="1.694826"><ele>243.33333333333331</ele><time>2026-04-05T07:32:31.777Z</time></trkpt><trkpt lat="41.5211191" lon="1.6946191"><ele>243.66666666666666</ele><time>2026-04-05T07:32:32.777Z</time></trkpt><trkpt lat="41.5211598" lon="1.6944155"><ele>244.0</ele><time>2026-04-05T07:32:33.777Z</time></trkpt><trkpt lat="41.5212227" lon="1.6942365"><ele>246.75</ele><time>2026-04-05T07:32:34.776Z</time></trkpt><trkpt lat="41.5213005" lon="1.6940836"><ele>249.5</ele><time>2026-04-05T07:32:35.777Z</time></trkpt><trkpt lat="41.5213774" lon="1.6939558"><ele>252.25</ele><time>2026-04-05T07:32:36.776Z</time></trkpt><trkpt lat="41.5214432" lon="1.6938509"><ele>255.0</ele><time>2026-04-05T07:32:37.777Z</time></trkpt><trkpt lat="41.5215069" lon="1.6937623"><ele>255.0</ele><time>2026-04-05T07:32:38.777Z</time></trkpt><trkpt lat="41.5215642" lon="1.6936961"><ele>255.0</ele><time>2026-04-05T07:32:39.777Z</time></trkpt><trkpt lat="41.5216297" lon="1.6936561"><ele>255.0</ele><time>2026-04-05T07:32:40.777Z</time></trkpt><trkpt lat="41.5217054" lon="1.6936439"><ele>255.0</ele><time>2026-04-05T07:32:41.777Z</time></trkpt><trkpt lat="41.5217704" lon="1.6936172"><ele>255.0</ele><time>2026-04-05T07:32:42.776Z</time></trkpt><trkpt lat="41.5218402" lon="1.6934966"><ele>255.0</ele><time>2026-04-05T07:32:44.777Z</time></trkpt><trkpt lat="41.5218308" lon="1.6934096"><ele>253.4</ele><time>2026-04-05T07:32:45.776Z</time></trkpt><trkpt lat="41.5218013" lon="1.693313"><ele>251.8</ele><time>2026-04-05T07:32:46.776Z</time></trkpt><trkpt lat="41.5217691" lon="1.6931885"><ele>250.2</ele><time>2026-04-05T07:32:47.776Z</time></trkpt><trkpt lat="41.5217488" lon="1.693042"><ele>248.6</ele><time>2026-04-05T07:32:48.776Z</time></trkpt><trkpt lat="41.5217344" lon="1.6928784"><ele>247.0</ele><time>2026-04-05T07:32:49.776Z</time></trkpt><trkpt lat="41.5217258" lon="1.6927041"><ele>245.25</ele><time>2026-04-05T07:32:50.777Z</time></trkpt><trkpt lat="41.5217141" lon="1.6925342"><ele>243.5</ele><time>2026-04-05T07:32:51.777Z</time></trkpt><trkpt lat="41.5217018" lon="1.6923586"><ele>241.75</ele><time>2026-04-05T07:32:52.777Z</time></trkpt><trkpt lat="41.5216872" lon="1.6921829"><ele>240.0</ele><time>2026-04-05T07:32:53.776Z</time></trkpt><trkpt lat="41.5216717" lon="1.6919963"><ele>242.75</ele><time>2026-04-05T07:32:54.777Z</time></trkpt><trkpt lat="41.5216586" lon="1.6918187"><ele>245.5</ele><time>2026-04-05T07:32:55.777Z</time></trkpt><trkpt lat="41.5216682" lon="1.6916511"><ele>248.25</ele><time>2026-04-05T07:32:56.777Z</time></trkpt><trkpt lat="41.5217084" lon="1.6914844"><ele>251.0</ele><time>2026-04-05T07:32:57.776Z</time></trkpt><trkpt lat="41.5217733" lon="1.6913318"><ele>251.0</ele><time>2026-04-05T07:32:58.776Z</time></trkpt><trkpt lat="41.5218484" lon="1.6911998"><ele>251.0</ele><time>2026-04-05T07:32:59.776Z</time></trkpt><trkpt lat="41.5219066" lon="1.6910763"><ele>251.0</ele><time>2026-04-05T07:33:00.777Z</time></trkpt><trkpt lat="41.5219424" lon="1.6909346"><ele>251.0</ele><time>2026-04-05T07:33:01.777Z</time></trkpt><trkpt lat="41.5219421" lon="1.690771"><ele>256.0</ele><time>2026-04-05T07:33:02.777Z</time></trkpt><trkpt lat="41.5219117" lon="1.6906156"><ele>261.0</ele><time>2026-04-05T07:33:03.776Z</time></trkpt><trkpt lat="41.5218352" lon="1.6904678"><ele>266.0</ele><time>2026-04-05T07:33:04.777Z</time></trkpt><trkpt lat="41.5217563" lon="1.6903277"><ele>271.0</ele><time>2026-04-05T07:33:05.776Z</time></trkpt><trkpt lat="41.5217025" lon="1.6901874"><ele>272.3333333333333</ele><time>2026-04-05T07:33:06.777Z</time></trkpt><trkpt lat="41.5217072" lon="1.6900719"><ele>273.66666666666663</ele><time>2026-04-05T07:33:07.777Z</time></trkpt><trkpt lat="41.521744" lon="1.6899759"><ele>275.0</ele><time>2026-04-05T07:33:08.777Z</time></trkpt><trkpt lat="41.5218192" lon="1.6899136"><ele>276.3333333333333</ele><time>2026-04-05T07:33:09.776Z</time></trkpt><trkpt lat="41.5219138" lon="1.689898"><ele>277.6666666666667</ele><time>2026-04-05T07:33:10.777Z</time></trkpt><trkpt lat="41.5220067" lon="1.6898744"><ele>279.0</ele><time>2026-04-05T07:33:11.777Z</time></trkpt><trkpt lat="41.5220898" lon="1.6899904"><ele>282.25</ele><time>2026-04-05T07:33:12.777Z</time></trkpt><trkpt lat="41.5221761" lon="1.6901138"><ele>285.5</ele><time>2026-04-05T07:33:13.776Z</time></trkpt><trkpt lat="41.522265" lon="1.6902519"><ele>288.75</ele><time>2026-04-05T07:33:14.777Z</time></trkpt><trkpt lat="41.5223502" lon="1.690392"><ele>292.0</ele><time>2026-04-05T07:33:15.777Z</time></trkpt><trkpt lat="41.5224348" lon="1.6905291"><ele>285.5</ele><time>2026-04-05T07:33:16.776Z</time></trkpt><trkpt lat="41.5225218" lon="1.6906379"><ele>279.0</ele><time>2026-04-05T07:33:17.776Z</time></trkpt><trkpt lat="41.5226199" lon="1.6907314"><ele>272.5</ele><time>2026-04-05T07:33:18.776Z</time></trkpt><trkpt lat="41.5227304" lon="1.6907859"><ele>266.0</ele><time>2026-04-05T07:33:19.777Z</time></trkpt><trkpt lat="41.5228547" lon="1.6907879"><ele>267.0</ele><time>2026-04-05T07:33:20.776Z</time></trkpt><trkpt lat="41.5229846" lon="1.690753"><ele>268.0</ele><time>2026-04-05T07:33:21.777Z</time></trkpt><trkpt lat="41.5231011" lon="1.6906843"><ele>269.0</ele><time>2026-04-05T07:33:22.777Z</time></trkpt><trkpt lat="41.5232262" lon="1.6905974"><ele>270.0</ele><time>2026-04-05T07:33:23.777Z</time></trkpt><trkpt lat="41.5233668" lon="1.6904956"><ele>270.0</ele><time>2026-04-05T07:33:24.777Z</time></trkpt><trkpt lat="41.523509" lon="1.6903894"><ele>270.0</ele><time>2026-04-05T07:33:25.777Z</time></trkpt><trkpt lat="41.5236459" lon="1.6902751"><ele>270.0</ele><time>2026-04-05T07:33:26.777Z</time></trkpt><trkpt lat="41.523775" lon="1.6901364"><ele>274.3333333333333</ele><time>2026-04-05T07:33:27.776Z</time></trkpt><trkpt lat="41.5238954" lon="1.6899821"><ele>278.66666666666663</ele><time>2026-04-05T07:33:28.776Z</time></trkpt><trkpt lat="41.5240135" lon="1.6898461"><ele>283.0</ele><time>2026-04-05T07:33:29.776Z</time></trkpt><trkpt lat="41.5241458" lon="1.6897457"><ele>283.0</ele><time>2026-04-05T07:33:30.776Z</time></trkpt><trkpt lat="41.5242839" lon="1.6896526"><ele>283.0</ele><time>2026-04-05T07:33:31.776Z</time></trkpt><trkpt lat="41.5243966" lon="1.6895866"><ele>283.0</ele><time>2026-04-05T07:33:32.777Z</time></trkpt><trkpt lat="41.5244831" lon="1.6895025"><ele>283.0</ele><time>2026-04-05T07:33:33.776Z</time></trkpt><trkpt lat="41.5245379" lon="1.6893863"><ele>288.75</ele><time>2026-04-05T07:33:34.777Z</time></trkpt><trkpt lat="41.524554" lon="1.6892483"><ele>294.5</ele><time>2026-04-05T07:33:35.776Z</time></trkpt><trkpt lat="41.5245347" lon="1.6890913"><ele>300.25</ele><time>2026-04-05T07:33:36.776Z</time></trkpt><trkpt lat="41.5245074" lon="1.6889206"><ele>306.0</ele><time>2026-04-05T07:33:37.777Z</time></trkpt><trkpt lat="41.5244893" lon="1.6887532"><ele>306.0</ele><time>2026-04-05T07:33:38.776Z</time></trkpt><trkpt lat="41.5244777" lon="1.6885987"><ele>306.0</ele><time>2026-04-05T07:33:39.777Z</time></trkpt><trkpt lat="41.5244896" lon="1.6884697"><ele>306.0</ele><time>2026-04-05T07:33:40.777Z</time></trkpt><trkpt lat="41.5245363" lon="1.6883583"><ele>306.0</ele><time>2026-04-05T07:33:41.776Z</time></trkpt><trkpt lat="41.5246147" lon="1.6882876"><ele>306.0</ele><time>2026-04-05T07:33:42.777Z</time></trkpt><trkpt lat="41.5247039" lon="1.688259"><ele>306.0</ele><time>2026-04-05T07:33:43.776Z</time></trkpt><trkpt lat="41.5248147" lon="1.6882522"><ele>306.0</ele><time>2026-04-05T07:33:44.777Z</time></trkpt><trkpt lat="41.5249319" lon="1.6883322"><ele>306.0</ele><time>2026-04-05T07:33:45.777Z</time></trkpt><trkpt lat="41.5250477" lon="1.6883769"><ele>306.0</ele><time>2026-04-05T07:33:46.777Z</time></trkpt><trkpt lat="41.5251677" lon="1.688409"><ele>306.0</ele><time>2026-04-05T07:33:47.777Z</time></trkpt><trkpt lat="41.5252889" lon="1.6884279"><ele>306.0</ele><time>2026-04-05T07:33:48.777Z</time></trkpt><trkpt lat="41.5254086" lon="1.6884444"><ele>306.0</ele><time>2026-04-05T07:33:49.777Z</time></trkpt><trkpt lat="41.5255286" lon="1.688464"><ele>306.0</ele><time>2026-04-05T07:33:50.777Z</time></trkpt><trkpt lat="41.5256402" lon="1.6884867"><ele>309.0</ele><time>2026-04-05T07:33:51.776Z</time></trkpt><trkpt lat="41.5257536" lon="1.688511"><ele>312.0</ele><time>2026-04-05T07:33:52.777Z</time></trkpt><trkpt lat="41.5258632" lon="1.6885121"><ele>315.0</ele><time>2026-04-05T07:33:53.776Z</time></trkpt><trkpt lat="41.5259753" lon="1.6885018"><ele>318.0</ele><time>2026-04-05T07:33:54.777Z</time></trkpt><trkpt lat="41.5260878" lon="1.6884771"><ele>318.0</ele><time>2026-04-05T07:33:55.776Z</time></trkpt><trkpt lat="41.526199" lon="1.6884352"><ele>318.0</ele><time>2026-04-05T07:33:56.777Z</time></trkpt><trkpt lat="41.5263055" lon="1.6883757"><ele>318.0</ele><time>2026-04-05T07:33:57.776Z</time></trkpt><trkpt lat="41.5264088" lon="1.6883039"><ele>318.0</ele><time>2026-04-05T07:33:58.777Z</time></trkpt><trkpt lat="41.5265133" lon="1.6882276"><ele>317.5</ele><time>2026-04-05T07:33:59.777Z</time></trkpt><trkpt lat="41.5266176" lon="1.6881538"><ele>317.0</ele><time>2026-04-05T07:34:00.776Z</time></trkpt><trkpt lat="41.5267189" lon="1.6880794"><ele>316.5</ele><time>2026-04-05T07:34:01.777Z</time></trkpt><trkpt lat="41.5268196" lon="1.6880037"><ele>316.0</ele><time>2026-04-05T07:34:02.777Z</time></trkpt><trkpt lat="41.5269199" lon="1.6879234"><ele>316.0</ele><time>2026-04-05T07:34:03.776Z</time></trkpt><trkpt lat="41.5270228" lon="1.6878473"><ele>316.0</ele><time>2026-04-05T07:34:04.777Z</time></trkpt><trkpt lat="41.5271226" lon="1.6877723"><ele>316.0</ele><time>2026-04-05T07:34:05.777Z</time></trkpt><trkpt lat="41.5272154" lon="1.6876973"><ele>316.0</ele><time>2026-04-05T07:34:06.777Z</time></trkpt><trkpt lat="41.5273041" lon="1.6876241"><ele>316.0</ele><time>2026-04-05T07:34:07.776Z</time></trkpt><trkpt lat="41.5273761" lon="1.6875525"><ele>316.66666666666663</ele><time>2026-04-05T07:34:08.777Z</time></trkpt><trkpt lat="41.5274281" lon="1.6874653"><ele>317.3333333333333</ele><time>2026-04-05T07:34:09.777Z</time></trkpt><trkpt lat="41.5274606" lon="1.6873568"><ele>318.0</ele><time>2026-04-05T07:34:10.777Z</time></trkpt><trkpt lat="41.5274644" lon="1.6872346"><ele>318.6666666666667</ele><time>2026-04-05T07:34:11.776Z</time></trkpt><trkpt lat="41.5274456" lon="1.6871142"><ele>319.33333333333337</ele><time>2026-04-05T07:34:12.777Z</time></trkpt><trkpt lat="41.5274201" lon="1.6870176"><ele>320.0</ele><time>2026-04-05T07:34:13.776Z</time></trkpt><trkpt lat="41.5273638" lon="1.686866"><ele>320.8</ele><time>2026-04-05T07:34:15.776Z</time></trkpt><trkpt lat="41.5273269" lon="1.6867721"><ele>321.6</ele><time>2026-04-05T07:34:16.776Z</time></trkpt><trkpt lat="41.5272829" lon="1.686665"><ele>322.4</ele><time>2026-04-05T07:34:17.776Z</time></trkpt><trkpt lat="41.5272352" lon="1.6865429"><ele>323.2</ele><time>2026-04-05T07:34:18.776Z</time></trkpt><trkpt lat="41.5271831" lon="1.6864198"><ele>324.0</ele><time>2026-04-05T07:34:19.777Z</time></trkpt><trkpt lat="41.5271347" lon="1.6863"><ele>324.0</ele><time>2026-04-05T07:34:20.777Z</time></trkpt><trkpt lat="41.5270913" lon="1.6861774"><ele>324.0</ele><time>2026-04-05T07:34:21.777Z</time></trkpt><trkpt lat="41.5270555" lon="1.6860517"><ele>324.0</ele><time>2026-04-05T07:34:22.776Z</time></trkpt><trkpt lat="41.5270365" lon="1.6859201"><ele>324.0</ele><time>2026-04-05T07:34:23.776Z</time></trkpt><trkpt lat="41.5270382" lon="1.6857825"><ele>324.0</ele><time>2026-04-05T07:34:24.776Z</time></trkpt><trkpt lat="41.5270639" lon="1.685645"><ele>324.79999999999995</ele><time>2026-04-05T07:34:25.777Z</time></trkpt><trkpt lat="41.5270952" lon="1.6855099"><ele>325.59999999999997</ele><time>2026-04-05T07:34:26.776Z</time></trkpt><trkpt lat="41.5271249" lon="1.6853724"><ele>326.4</ele><time>2026-04-05T07:34:27.776Z</time></trkpt><trkpt lat="41.5271607" lon="1.6852263"><ele>327.2</ele><time>2026-04-05T07:34:28.776Z</time></trkpt><trkpt lat="41.5271948" lon="1.6850819"><ele>328.0</ele><time>2026-04-05T07:34:29.777Z</time></trkpt><trkpt lat="41.5272257" lon="1.6849419"><ele>328.4</ele><time>2026-04-05T07:34:30.777Z</time></trkpt><trkpt lat="41.5272531" lon="1.6848093"><ele>328.79999999999995</ele><time>2026-04-05T07:34:31.777Z</time></trkpt><trkpt lat="41.5272801" lon="1.6846864"><ele>329.2</ele><time>2026-04-05T07:34:32.776Z</time></trkpt><trkpt lat="41.5273061" lon="1.6845692"><ele>329.6</ele><time>2026-04-05T07:34:33.776Z</time></trkpt><trkpt lat="41.5273284" lon="1.6844631"><ele>330.0</ele><time>2026-04-05T07:34:34.777Z</time></trkpt><trkpt lat="41.527352" lon="1.6843551"><ele>330.4</ele><time>2026-04-05T07:34:35.777Z</time></trkpt><trkpt lat="41.5273789" lon="1.6842297"><ele>330.8</ele><time>2026-04-05T07:34:36.776Z</time></trkpt><trkpt lat="41.5274076" lon="1.6840946"><ele>331.20000000000005</ele><time>2026-04-05T07:34:37.777Z</time></trkpt><trkpt lat="41.5274411" lon="1.6839499"><ele>331.6</ele><time>2026-04-05T07:34:38.776Z</time></trkpt><trkpt lat="41.5274766" lon="1.683804"><ele>332.0</ele><time>2026-04-05T07:34:39.777Z</time></trkpt><trkpt lat="41.5275181" lon="1.6836485"><ele>333.75</ele><time>2026-04-05T07:34:40.777Z</time></trkpt><trkpt lat="41.5275531" lon="1.6834975"><ele>335.5</ele><time>2026-04-05T07:34:41.776Z</time></trkpt><trkpt lat="41.5275863" lon="1.6833438"><ele>337.25</ele><time>2026-04-05T07:34:42.776Z</time></trkpt><trkpt lat="41.5276185" lon="1.6831879"><ele>339.0</ele><time>2026-04-05T07:34:43.777Z</time></trkpt><trkpt lat="41.527652" lon="1.6830222"><ele>339.0</ele><time>2026-04-05T07:34:44.777Z</time></trkpt><trkpt lat="41.5276863" lon="1.6828633"><ele>339.0</ele><time>2026-04-05T07:34:45.777Z</time></trkpt><trkpt lat="41.5277213" lon="1.6827193"><ele>339.0</ele><time>2026-04-05T07:34:46.776Z</time></trkpt><trkpt lat="41.5277764" lon="1.6825953"><ele>339.0</ele><time>2026-04-05T07:34:47.776Z</time></trkpt><trkpt lat="41.5278561" lon="1.6825018"><ele>339.75</ele><time>2026-04-05T07:34:48.776Z</time></trkpt><trkpt lat="41.5279594" lon="1.6824357"><ele>340.5</ele><time>2026-04-05T07:34:49.777Z</time></trkpt><trkpt lat="41.5280652" lon="1.682371"><ele>341.25</ele><time>2026-04-05T07:34:50.777Z</time></trkpt><trkpt lat="41.5282114" lon="1.6823431"><ele>342.0</ele><time>2026-04-05T07:34:51.777Z</time></trkpt><trkpt lat="41.5283462" lon="1.6823035"><ele>342.0</ele><time>2026-04-05T07:34:52.777Z</time></trkpt><trkpt lat="41.5284739" lon="1.6822496"><ele>342.0</ele><time>2026-04-05T07:34:53.777Z</time></trkpt><trkpt lat="41.528601" lon="1.6821706"><ele>342.0</ele><time>2026-04-05T07:34:54.776Z</time></trkpt><trkpt lat="41.5287193" lon="1.6820867"><ele>342.0</ele><time>2026-04-05T07:34:55.776Z</time></trkpt><trkpt lat="41.5288329" lon="1.682002"><ele>343.75</ele><time>2026-04-05T07:34:56.776Z</time></trkpt><trkpt lat="41.5289432" lon="1.6819154"><ele>345.5</ele><time>2026-04-05T07:34:57.777Z</time></trkpt><trkpt lat="41.5290597" lon="1.681827"><ele>347.25</ele><time>2026-04-05T07:34:58.776Z</time></trkpt><trkpt lat="41.5291744" lon="1.6817428"><ele>349.0</ele><time>2026-04-05T07:34:59.777Z</time></trkpt><trkpt lat="41.5292871" lon="1.681656"><ele>349.0</ele><time>2026-04-05T07:35:00.776Z</time></trkpt><trkpt lat="41.529404" lon="1.6815695"><ele>349.0</ele><time>2026-04-05T07:35:01.777Z</time></trkpt><trkpt lat="41.529519" lon="1.6814859"><ele>349.0</ele><time>2026-04-05T07:35:02.777Z</time></trkpt><trkpt lat="41.5296287" lon="1.6814016"><ele>349.0</ele><time>2026-04-05T07:35:03.776Z</time></trkpt><trkpt lat="41.5297309" lon="1.6813142"><ele>347.75</ele><time>2026-04-05T07:35:04.777Z</time></trkpt><trkpt lat="41.5298257" lon="1.6812059"><ele>346.5</ele><time>2026-04-05T07:35:05.777Z</time></trkpt><trkpt lat="41.5299126" lon="1.681074"><ele>345.25</ele><time>2026-04-05T07:35:06.776Z</time></trkpt><trkpt lat="41.529993" lon="1.6809175"><ele>344.0</ele><time>2026-04-05T07:35:07.776Z</time></trkpt><trkpt lat="41.5300582" lon="1.6807519"><ele>347.5</ele><time>2026-04-05T07:35:08.776Z</time></trkpt><trkpt lat="41.5301239" lon="1.6805815"><ele>351.0</ele><time>2026-04-05T07:35:09.776Z</time></trkpt><trkpt lat="41.5301922" lon="1.6804144"><ele>354.5</ele><time>2026-04-05T07:35:10.777Z</time></trkpt><trkpt lat="41.5302635" lon="1.6802494"><ele>358.0</ele><time>2026-04-05T07:35:11.776Z</time></trkpt><trkpt lat="41.5303306" lon="1.6800915"><ele>357.0</ele><time>2026-04-05T07:35:12.776Z</time></trkpt><trkpt lat="41.5304092" lon="1.6799523"><ele>356.0</ele><time>2026-04-05T07:35:13.776Z</time></trkpt><trkpt lat="41.5305111" lon="1.6798409"><ele>355.0</ele><time>2026-04-05T07:35:14.777Z</time></trkpt><trkpt lat="41.5306169" lon="1.6797709"><ele>354.0</ele><time>2026-04-05T07:35:15.777Z</time></trkpt><trkpt lat="41.5307311" lon="1.6797269"><ele>354.0</ele><time>2026-04-05T07:35:16.776Z</time></trkpt><trkpt lat="41.5308391" lon="1.6797126"><ele>354.0</ele><time>2026-04-05T07:35:17.776Z</time></trkpt><trkpt lat="41.5309552" lon="1.6797126"><ele>354.0</ele><time>2026-04-05T07:35:18.776Z</time></trkpt><trkpt lat="41.53109" lon="1.6797091"><ele>354.0</ele><time>2026-04-05T07:35:19.776Z</time></trkpt><trkpt lat="41.5312237" lon="1.6797012"><ele>354.5</ele><time>2026-04-05T07:35:20.777Z</time></trkpt><trkpt lat="41.5313608" lon="1.6797128"><ele>355.0</ele><time>2026-04-05T07:35:21.777Z</time></trkpt><trkpt lat="41.531495" lon="1.6797653"><ele>355.5</ele><time>2026-04-05T07:35:22.776Z</time></trkpt><trkpt lat="41.5316217" lon="1.6798527"><ele>356.0</ele><time>2026-04-05T07:35:23.776Z</time></trkpt><trkpt lat="41.5317302" lon="1.6799719"><ele>356.0</ele><time>2026-04-05T07:35:24.777Z</time></trkpt><trkpt lat="41.5318244" lon="1.6801179"><ele>356.0</ele><time>2026-04-05T07:35:25.777Z</time></trkpt><trkpt lat="41.5319144" lon="1.6802792"><ele>356.0</ele><time>2026-04-05T07:35:26.776Z</time></trkpt><trkpt lat="41.5320149" lon="1.6804515"><ele>356.33333333333337</ele><time>2026-04-05T07:35:27.777Z</time></trkpt><trkpt lat="41.5321222" lon="1.680628"><ele>356.6666666666667</ele><time>2026-04-05T07:35:28.777Z</time></trkpt><trkpt lat="41.5322306" lon="1.6808052"><ele>357.0</ele><time>2026-04-05T07:35:29.776Z</time></trkpt><trkpt lat="41.5323417" lon="1.6809765"><ele>351.3333333333333</ele><time>2026-04-05T07:35:30.776Z</time></trkpt><trkpt lat="41.5324463" lon="1.6811448"><ele>345.66666666666663</ele><time>2026-04-05T07:35:31.776Z</time></trkpt><trkpt lat="41.532539" lon="1.6813195"><ele>340.0</ele><time>2026-04-05T07:35:32.777Z</time></trkpt><trkpt lat="41.532614" lon="1.6814966"><ele>340.0</ele><time>2026-04-05T07:35:33.777Z</time></trkpt><trkpt lat="41.5326818" lon="1.6816666"><ele>340.0</ele><time>2026-04-05T07:35:34.776Z</time></trkpt><trkpt lat="41.5327621" lon="1.6818166"><ele>340.0</ele><time>2026-04-05T07:35:35.776Z</time></trkpt><trkpt lat="41.532862" lon="1.6819402"><ele>340.0</ele><time>2026-04-05T07:35:36.776Z</time></trkpt><trkpt lat="41.5329813" lon="1.6820272"><ele>336.75</ele><time>2026-04-05T07:35:37.777Z</time></trkpt><trkpt lat="41.5331098" lon="1.6820636"><ele>333.5</ele><time>2026-04-05T07:35:38.776Z</time></trkpt><trkpt lat="41.5332349" lon="1.6820835"><ele>330.25</ele><time>2026-04-05T07:35:39.777Z</time></trkpt><trkpt lat="41.5333858" lon="1.6820196"><ele>327.0</ele><time>2026-04-05T07:35:40.776Z</time></trkpt><trkpt lat="41.5335381" lon="1.6819598"><ele>330.3333333333333</ele><time>2026-04-05T07:35:41.777Z</time></trkpt><trkpt lat="41.5336976" lon="1.6818901"><ele>333.66666666666663</ele><time>2026-04-05T07:35:42.777Z</time></trkpt><trkpt lat="41.5338613" lon="1.681813"><ele>337.0</ele><time>2026-04-05T07:35:43.777Z</time></trkpt><trkpt lat="41.5340183" lon="1.6817364"><ele>337.0</ele><time>2026-04-05T07:35:44.776Z</time></trkpt><trkpt lat="41.5341703" lon="1.6816438"><ele>337.0</ele><time>2026-04-05T07:35:45.777Z</time></trkpt><trkpt lat="41.5343055" lon="1.6815376"><ele>337.0</ele><time>2026-04-05T07:35:46.777Z</time></trkpt><trkpt lat="41.5344311" lon="1.6813972"><ele>337.0</ele><time>2026-04-05T07:35:47.777Z</time></trkpt><trkpt lat="41.5345388" lon="1.6812326"><ele>337.0</ele><time>2026-04-05T07:35:48.776Z</time></trkpt><trkpt lat="41.5346345" lon="1.6810397"><ele>337.0</ele><time>2026-04-05T07:35:49.776Z</time></trkpt><trkpt lat="41.5347233" lon="1.6808405"><ele>334.66666666666663</ele><time>2026-04-05T07:35:50.776Z</time></trkpt><trkpt lat="41.5348108" lon="1.6806435"><ele>332.3333333333333</ele><time>2026-04-05T07:35:51.776Z</time></trkpt><trkpt lat="41.5348978" lon="1.6804575"><ele>330.0</ele><time>2026-04-05T07:35:52.776Z</time></trkpt><trkpt lat="41.5350073" lon="1.6802923"><ele>330.3333333333333</ele><time>2026-04-05T07:35:53.777Z</time></trkpt><trkpt lat="41.5351368" lon="1.6801592"><ele>330.66666666666663</ele><time>2026-04-05T07:35:54.776Z</time></trkpt><trkpt lat="41.5352778" lon="1.6800418"><ele>331.0</ele><time>2026-04-05T07:35:55.777Z</time></trkpt><trkpt lat="41.5354139" lon="1.6799331"><ele>331.0</ele><time>2026-04-05T07:35:56.776Z</time></trkpt><trkpt lat="41.5355435" lon="1.6798253"><ele>331.0</ele><time>2026-04-05T07:35:57.776Z</time></trkpt><trkpt lat="41.5356715" lon="1.6797277"><ele>331.0</ele><time>2026-04-05T07:35:58.777Z</time></trkpt><trkpt lat="41.5357921" lon="1.6796542"><ele>331.0</ele><time>2026-04-05T07:35:59.776Z</time></trkpt><trkpt lat="41.5359069" lon="1.6796017"><ele>331.0</ele><time>2026-04-05T07:36:00.776Z</time></trkpt><trkpt lat="41.5360302" lon="1.6795623"><ele>331.0</ele><time>2026-04-05T07:36:01.776Z</time></trkpt><trkpt lat="41.5361556" lon="1.6795534"><ele>331.0</ele><time>2026-04-05T07:36:02.777Z</time></trkpt><trkpt lat="41.5362868" lon="1.6795912"><ele>331.0</ele><time>2026-04-05T07:36:03.776Z</time></trkpt><trkpt lat="41.5364147" lon="1.6796698"><ele>331.25</ele><time>2026-04-05T07:36:04.776Z</time></trkpt><trkpt lat="41.5365458" lon="1.6797561"><ele>331.5</ele><time>2026-04-05T07:36:05.776Z</time></trkpt><trkpt lat="41.5366777" lon="1.6798422"><ele>331.75</ele><time>2026-04-05T07:36:06.776Z</time></trkpt><trkpt lat="41.5368154" lon="1.6799369"><ele>332.0</ele><time>2026-04-05T07:36:07.776Z</time></trkpt><trkpt lat="41.5369671" lon="1.6800373"><ele>332.6666666666667</ele><time>2026-04-05T07:36:08.777Z</time></trkpt><trkpt lat="41.5371193" lon="1.6801385"><ele>333.3333333333333</ele><time>2026-04-05T07:36:09.777Z</time></trkpt><trkpt lat="41.5372683" lon="1.6802414"><ele>334.0</ele><time>2026-04-05T07:36:10.776Z</time></trkpt><trkpt lat="41.5374143" lon="1.6803487"><ele>334.0</ele><time>2026-04-05T07:36:11.776Z</time></trkpt><trkpt lat="41.5375567" lon="1.6804741"><ele>334.0</ele><time>2026-04-05T07:36:12.777Z</time></trkpt><trkpt lat="41.5376876" lon="1.6806277"><ele>334.0</ele><time>2026-04-05T07:36:13.776Z</time></trkpt><trkpt lat="41.5378123" lon="1.6807929"><ele>334.0</ele><time>2026-04-05T07:36:14.777Z</time></trkpt><trkpt lat="41.5379266" lon="1.6809537"><ele>334.0</ele><time>2026-04-05T07:36:15.777Z</time></trkpt><trkpt lat="41.5380281" lon="1.6810996"><ele>334.0</ele><time>2026-04-05T07:36:16.776Z</time></trkpt><trkpt lat="41.5381155" lon="1.6812137"><ele>334.0</ele><time>2026-04-05T07:36:17.777Z</time></trkpt><trkpt lat="41.5382054" lon="1.6812949"><ele>333.5</ele><time>2026-04-05T07:36:18.777Z</time></trkpt><trkpt lat="41.5383041" lon="1.6813288"><ele>333.0</ele><time>2026-04-05T07:36:19.777Z</time></trkpt><trkpt lat="41.5384046" lon="1.6813069"><ele>332.5</ele><time>2026-04-05T07:36:20.776Z</time></trkpt><trkpt lat="41.5385104" lon="1.6812342"><ele>332.0</ele><time>2026-04-05T07:36:21.776Z</time></trkpt><trkpt lat="41.5386127" lon="1.6811297"><ele>332.5</ele><time>2026-04-05T07:36:22.776Z</time></trkpt><trkpt lat="41.5387003" lon="1.681007"><ele>333.0</ele><time>2026-04-05T07:36:23.777Z</time></trkpt><trkpt lat="41.5387688" lon="1.6808719"><ele>333.5</ele><time>2026-04-05T07:36:24.776Z</time></trkpt><trkpt lat="41.5388121" lon="1.6807056"><ele>334.0</ele><time>2026-04-05T07:36:25.776Z</time></trkpt><trkpt lat="41.5388374" lon="1.6805291"><ele>330.3333333333333</ele><time>2026-04-05T07:36:26.776Z</time></trkpt><trkpt lat="41.5388605" lon="1.6803082"><ele>326.6666666666667</ele><time>2026-04-05T07:36:27.776Z</time></trkpt><trkpt lat="41.5388861" lon="1.6800751"><ele>323.0</ele><time>2026-04-05T07:36:28.776Z</time></trkpt><trkpt lat="41.5389082" lon="1.6798521"><ele>323.0</ele><time>2026-04-05T07:36:29.776Z</time></trkpt><trkpt lat="41.5389284" lon="1.6796378"><ele>323.0</ele><time>2026-04-05T07:36:30.777Z</time></trkpt><trkpt lat="41.5389467" lon="1.679436"><ele>323.0</ele><time>2026-04-05T07:36:31.777Z</time></trkpt><trkpt lat="41.538945" lon="1.679256"><ele>323.0</ele><time>2026-04-05T07:36:32.776Z</time></trkpt><trkpt lat="41.5389115" lon="1.6790908"><ele>322.25</ele><time>2026-04-05T07:36:33.776Z</time></trkpt><trkpt lat="41.5388397" lon="1.6789428"><ele>321.5</ele><time>2026-04-05T07:36:34.776Z</time></trkpt><trkpt lat="41.5387537" lon="1.6788118"><ele>320.75</ele><time>2026-04-05T07:36:35.776Z</time></trkpt><trkpt lat="41.5386612" lon="1.6786884"><ele>320.0</ele><time>2026-04-05T07:36:36.777Z</time></trkpt><trkpt lat="41.5385981" lon="1.6785528"><ele>322.75</ele><time>2026-04-05T07:36:37.777Z</time></trkpt><trkpt lat="41.5385569" lon="1.6784146"><ele>325.5</ele><time>2026-04-05T07:36:38.777Z</time></trkpt><trkpt lat="41.5385422" lon="1.6782571"><ele>328.25</ele><time>2026-04-05T07:36:39.776Z</time></trkpt><trkpt lat="41.5386224" lon="1.6780555"><ele>331.0</ele><time>2026-04-05T07:36:40.777Z</time></trkpt><trkpt lat="41.5386985" lon="1.6779053"><ele>331.75</ele><time>2026-04-05T07:36:41.777Z</time></trkpt><trkpt lat="41.5387933" lon="1.6777944"><ele>332.5</ele><time>2026-04-05T07:36:42.776Z</time></trkpt><trkpt lat="41.538906" lon="1.6777389"><ele>333.25</ele><time>2026-04-05T07:36:43.776Z</time></trkpt><trkpt lat="41.5390272" lon="1.677741"><ele>334.0</ele><time>2026-04-05T07:36:44.776Z</time></trkpt><trkpt lat="41.5391441" lon="1.6778058"><ele>333.75</ele><time>2026-04-05T07:36:45.777Z</time></trkpt><trkpt lat="41.5392515" lon="1.6779153"><ele>333.5</ele><time>2026-04-05T07:36:46.776Z</time></trkpt><trkpt lat="41.5393663" lon="1.6780519"><ele>333.25</ele><time>2026-04-05T07:36:47.777Z</time></trkpt><trkpt lat="41.5394809" lon="1.6781875"><ele>333.0</ele><time>2026-04-05T07:36:48.777Z</time></trkpt><trkpt lat="41.5396121" lon="1.6783371"><ele>333.0</ele><time>2026-04-05T07:36:49.777Z</time></trkpt><trkpt lat="41.5397431" lon="1.6784841"><ele>333.0</ele><time>2026-04-05T07:36:50.776Z</time></trkpt><trkpt lat="41.5398666" lon="1.6786195"><ele>333.0</ele><time>2026-04-05T07:36:51.776Z</time></trkpt><trkpt lat="41.5399667" lon="1.678767"><ele>331.25</ele><time>2026-04-05T07:36:52.776Z</time></trkpt><trkpt lat="41.5400364" lon="1.6789273"><ele>329.5</ele><time>2026-04-05T07:36:53.777Z</time></trkpt><trkpt lat="41.5400857" lon="1.6790945"><ele>327.75</ele><time>2026-04-05T07:36:54.776Z</time></trkpt><trkpt lat="41.5401311" lon="1.6792409"><ele>326.0</ele><time>2026-04-05T07:36:55.776Z</time></trkpt><trkpt lat="41.5401924" lon="1.6793647"><ele>326.5</ele><time>2026-04-05T07:36:56.777Z</time></trkpt><trkpt lat="41.540271" lon="1.6794508"><ele>327.0</ele><time>2026-04-05T07:36:57.776Z</time></trkpt><trkpt lat="41.5403794" lon="1.6794954"><ele>327.5</ele><time>2026-04-05T07:36:58.777Z</time></trkpt><trkpt lat="41.5405043" lon="1.6794982"><ele>328.0</ele><time>2026-04-05T07:36:59.776Z</time></trkpt><trkpt lat="41.5406335" lon="1.6794792"><ele>328.0</ele><time>2026-04-05T07:37:00.776Z</time></trkpt><trkpt lat="41.5407734" lon="1.6794693"><ele>328.0</ele><time>2026-04-05T07:37:01.777Z</time></trkpt><trkpt lat="41.5409175" lon="1.6794663"><ele>328.0</ele><time>2026-04-05T07:37:02.776Z</time></trkpt><trkpt lat="41.5410489" lon="1.679462"><ele>328.0</ele><time>2026-04-05T07:37:03.776Z</time></trkpt><trkpt lat="41.5411652" lon="1.6794546"><ele>328.2</ele><time>2026-04-05T07:37:04.776Z</time></trkpt><trkpt lat="41.5412723" lon="1.679438"><ele>328.4</ele><time>2026-04-05T07:37:05.776Z</time></trkpt><trkpt lat="41.5413685" lon="1.6794167"><ele>328.59999999999997</ele><time>2026-04-05T07:37:06.777Z</time></trkpt><trkpt lat="41.5414681" lon="1.6793922"><ele>328.79999999999995</ele><time>2026-04-05T07:37:07.777Z</time></trkpt><trkpt lat="41.5415669" lon="1.6793358"><ele>329.0</ele><time>2026-04-05T07:37:08.776Z</time></trkpt><trkpt lat="41.5416564" lon="1.6792355"><ele>329.75</ele><time>2026-04-05T07:37:09.776Z</time></trkpt><trkpt lat="41.5417401" lon="1.679102"><ele>330.5</ele><time>2026-04-05T07:37:10.776Z</time></trkpt><trkpt lat="41.5418322" lon="1.6789537"><ele>331.25</ele><time>2026-04-05T07:37:11.777Z</time></trkpt><trkpt lat="41.5419303" lon="1.6788051"><ele>332.0</ele><time>2026-04-05T07:37:12.777Z</time></trkpt><trkpt lat="41.5420295" lon="1.6786479"><ele>333.33333333333337</ele><time>2026-04-05T07:37:13.776Z</time></trkpt><trkpt lat="41.5421449" lon="1.6784746"><ele>334.6666666666667</ele><time>2026-04-05T07:37:14.777Z</time></trkpt><trkpt lat="41.5422615" lon="1.6783078"><ele>336.0</ele><time>2026-04-05T07:37:15.777Z</time></trkpt><trkpt lat="41.5423908" lon="1.6781593"><ele>336.0</ele><time>2026-04-05T07:37:16.777Z</time></trkpt><trkpt lat="41.5425472" lon="1.6780452"><ele>336.0</ele><time>2026-04-05T07:37:17.776Z</time></trkpt><trkpt lat="41.5427287" lon="1.677964"><ele>336.0</ele><time>2026-04-05T07:37:18.777Z</time></trkpt><trkpt lat="41.5429147" lon="1.6778953"><ele>338.0</ele><time>2026-04-05T07:37:19.776Z</time></trkpt><trkpt lat="41.5430974" lon="1.6778266"><ele>340.0</ele><time>2026-04-05T07:37:20.776Z</time></trkpt><trkpt lat="41.5432767" lon="1.6777577"><ele>342.0</ele><time>2026-04-05T07:37:21.776Z</time></trkpt><trkpt lat="41.5434546" lon="1.6776908"><ele>342.3333333333333</ele><time>2026-04-05T07:37:22.776Z</time></trkpt><trkpt lat="41.5436298" lon="1.6776255"><ele>342.66666666666663</ele><time>2026-04-05T07:37:23.776Z</time></trkpt><trkpt lat="41.543803" lon="1.6775634"><ele>343.0</ele><time>2026-04-05T07:37:24.776Z</time></trkpt><trkpt lat="41.5439743" lon="1.6775029"><ele>341.66666666666663</ele><time>2026-04-05T07:37:25.777Z</time></trkpt><trkpt lat="41.5441454" lon="1.6774388"><ele>340.3333333333333</ele><time>2026-04-05T07:37:26.776Z</time></trkpt><trkpt lat="41.5443181" lon="1.6773815"><ele>339.0</ele><time>2026-04-05T07:37:27.777Z</time></trkpt><trkpt lat="41.5444833" lon="1.6773473"><ele>338.6666666666667</ele><time>2026-04-05T07:37:28.777Z</time></trkpt><trkpt lat="41.5446484" lon="1.677353"><ele>338.33333333333337</ele><time>2026-04-05T07:37:29.777Z</time></trkpt><trkpt lat="41.5448201" lon="1.677396"><ele>338.0</ele><time>2026-04-05T07:37:30.776Z</time></trkpt><trkpt lat="41.5449851" lon="1.6774486"><ele>338.0</ele><time>2026-04-05T07:37:31.776Z</time></trkpt><trkpt lat="41.5451515" lon="1.6775003"><ele>338.0</ele><time>2026-04-05T07:37:32.776Z</time></trkpt><trkpt lat="41.5453139" lon="1.6775297"><ele>338.0</ele><time>2026-04-05T07:37:33.777Z</time></trkpt><trkpt lat="41.5454675" lon="1.6775251"><ele>337.25</ele><time>2026-04-05T07:37:34.777Z</time></trkpt><trkpt lat="41.5456104" lon="1.6774846"><ele>336.5</ele><time>2026-04-05T07:37:35.776Z</time></trkpt><trkpt lat="41.5457432" lon="1.677434"><ele>335.75</ele><time>2026-04-05T07:37:36.776Z</time></trkpt><trkpt lat="41.5458684" lon="1.6774075"><ele>335.0</ele><time>2026-04-05T07:37:37.776Z</time></trkpt><trkpt lat="41.5459842" lon="1.6774356"><ele>335.0</ele><time>2026-04-05T07:37:38.777Z</time></trkpt><trkpt lat="41.5460948" lon="1.6775141"><ele>335.0</ele><time>2026-04-05T07:37:39.776Z</time></trkpt><trkpt lat="41.5462005" lon="1.6776256"><ele>335.0</ele><time>2026-04-05T07:37:40.776Z</time></trkpt><trkpt lat="41.546307" lon="1.6777486"><ele>335.0</ele><time>2026-04-05T07:37:41.776Z</time></trkpt><trkpt lat="41.5464226" lon="1.6778843"><ele>333.6666666666667</ele><time>2026-04-05T07:37:42.776Z</time></trkpt><trkpt lat="41.5465499" lon="1.6780227"><ele>332.3333333333333</ele><time>2026-04-05T07:37:43.777Z</time></trkpt><trkpt lat="41.5466757" lon="1.6781607"><ele>331.0</ele><time>2026-04-05T07:37:44.776Z</time></trkpt><trkpt lat="41.5468006" lon="1.6783018"><ele>331.0</ele><time>2026-04-05T07:37:45.776Z</time></trkpt><trkpt lat="41.5469267" lon="1.6784451"><ele>331.0</ele><time>2026-04-05T07:37:46.777Z</time></trkpt><trkpt lat="41.5470458" lon="1.6785861"><ele>331.0</ele><time>2026-04-05T07:37:47.776Z</time></trkpt><trkpt lat="41.5471604" lon="1.6787145"><ele>329.75</ele><time>2026-04-05T07:37:48.777Z</time></trkpt><trkpt lat="41.547267" lon="1.6788207"><ele>328.5</ele><time>2026-04-05T07:37:49.777Z</time></trkpt><trkpt lat="41.5473752" lon="1.6788923"><ele>327.25</ele><time>2026-04-05T07:37:50.776Z</time></trkpt><trkpt lat="41.5474815" lon="1.67892"><ele>326.0</ele><time>2026-04-05T07:37:51.777Z</time></trkpt><trkpt lat="41.5475779" lon="1.6788951"><ele>326.0</ele><time>2026-04-05T07:37:52.777Z</time></trkpt><trkpt lat="41.5476586" lon="1.6788233"><ele>326.0</ele><time>2026-04-05T07:37:53.776Z</time></trkpt><trkpt lat="41.5477169" lon="1.6787086"><ele>326.0</ele><time>2026-04-05T07:37:54.777Z</time></trkpt><trkpt lat="41.5477376" lon="1.6785775"><ele>326.0</ele><time>2026-04-05T07:37:55.776Z</time></trkpt><trkpt lat="41.5477112" lon="1.6784393"><ele>326.0</ele><time>2026-04-05T07:37:56.776Z</time></trkpt><trkpt lat="41.5476562" lon="1.6782972"><ele>326.6666666666667</ele><time>2026-04-05T07:37:57.777Z</time></trkpt><trkpt lat="41.5475794" lon="1.6781377"><ele>327.3333333333333</ele><time>2026-04-05T07:37:58.776Z</time></trkpt><trkpt lat="41.5475093" lon="1.6779591"><ele>328.0</ele><time>2026-04-05T07:37:59.777Z</time></trkpt><trkpt lat="41.5474438" lon="1.6777564"><ele>324.66666666666663</ele><time>2026-04-05T07:38:00.776Z</time></trkpt><trkpt lat="41.5473707" lon="1.6775255"><ele>321.3333333333333</ele><time>2026-04-05T07:38:01.777Z</time></trkpt><trkpt lat="41.5472854" lon="1.6772979"><ele>318.0</ele><time>2026-04-05T07:38:02.777Z</time></trkpt><trkpt lat="41.5471864" lon="1.6770838"><ele>322.6666666666667</ele><time>2026-04-05T07:38:03.777Z</time></trkpt><trkpt lat="41.5470804" lon="1.676886"><ele>327.33333333333337</ele><time>2026-04-05T07:38:04.776Z</time></trkpt><trkpt lat="41.5469734" lon="1.6766985"><ele>332.0</ele><time>2026-04-05T07:38:05.777Z</time></trkpt><trkpt lat="41.5468776" lon="1.6765121"><ele>332.0</ele><time>2026-04-05T07:38:06.776Z</time></trkpt><trkpt lat="41.5467955" lon="1.6763218"><ele>332.0</ele><time>2026-04-05T07:38:07.776Z</time></trkpt><trkpt lat="41.5467723" lon="1.6761288"><ele>332.0</ele><time>2026-04-05T07:38:08.777Z</time></trkpt><trkpt lat="41.5467957" lon="1.6759007"><ele>330.6666666666667</ele><time>2026-04-05T07:38:09.777Z</time></trkpt><trkpt lat="41.546834" lon="1.6756565"><ele>329.3333333333333</ele><time>2026-04-05T07:38:10.776Z</time></trkpt><trkpt lat="41.5469009" lon="1.6754143"><ele>328.0</ele><time>2026-04-05T07:38:11.776Z</time></trkpt><trkpt lat="41.5469619" lon="1.6751835"><ele>331.0</ele><time>2026-04-05T07:38:12.776Z</time></trkpt><trkpt lat="41.5470204" lon="1.6749547"><ele>334.0</ele><time>2026-04-05T07:38:13.777Z</time></trkpt><trkpt lat="41.5470677" lon="1.6747163"><ele>337.0</ele><time>2026-04-05T07:38:14.777Z</time></trkpt><trkpt lat="41.54709" lon="1.6744711"><ele>322.3333333333333</ele><time>2026-04-05T07:38:15.777Z</time></trkpt><trkpt lat="41.5470947" lon="1.6742184"><ele>307.6666666666667</ele><time>2026-04-05T07:38:16.777Z</time></trkpt><trkpt lat="41.5470947" lon="1.6739494"><ele>293.0</ele><time>2026-04-05T07:38:17.776Z</time></trkpt><trkpt lat="41.5470965" lon="1.6736824"><ele>292.0</ele><time>2026-04-05T07:38:18.777Z</time></trkpt><trkpt lat="41.5471007" lon="1.6734236"><ele>291.0</ele><time>2026-04-05T07:38:19.777Z</time></trkpt><trkpt lat="41.5471107" lon="1.6731729"><ele>290.0</ele><time>2026-04-05T07:38:20.776Z</time></trkpt><trkpt lat="41.5471403" lon="1.6729199"><ele>289.6666666666667</ele><time>2026-04-05T07:38:21.777Z</time></trkpt><trkpt lat="41.5471989" lon="1.6726649"><ele>289.3333333333333</ele><time>2026-04-05T07:38:22.776Z</time></trkpt><trkpt lat="41.5472728" lon="1.672399"><ele>289.0</ele><time>2026-04-05T07:38:23.776Z</time></trkpt><trkpt lat="41.5473455" lon="1.6721302"><ele>289.3333333333333</ele><time>2026-04-05T07:38:24.776Z</time></trkpt><trkpt lat="41.5474217" lon="1.6718684"><ele>289.6666666666667</ele><time>2026-04-05T07:38:25.777Z</time></trkpt><trkpt lat="41.5474918" lon="1.6716187"><ele>290.0</ele><time>2026-04-05T07:38:26.777Z</time></trkpt><trkpt lat="41.5475589" lon="1.6713902"><ele>290.0</ele><time>2026-04-05T07:38:27.777Z</time></trkpt><trkpt lat="41.5476185" lon="1.6711718"><ele>290.0</ele><time>2026-04-05T07:38:28.777Z</time></trkpt><trkpt lat="41.5476738" lon="1.6709603"><ele>290.0</ele><time>2026-04-05T07:38:29.776Z</time></trkpt><trkpt lat="41.5477253" lon="1.6707549"><ele>290.5</ele><time>2026-04-05T07:38:30.776Z</time></trkpt><trkpt lat="41.5477762" lon="1.6705741"><ele>291.0</ele><time>2026-04-05T07:38:31.776Z</time></trkpt><trkpt lat="41.5478338" lon="1.6704111"><ele>291.5</ele><time>2026-04-05T07:38:32.777Z</time></trkpt><trkpt lat="41.5479128" lon="1.6702639"><ele>292.0</ele><time>2026-04-05T07:38:33.776Z</time></trkpt><trkpt lat="41.5480145" lon="1.6701606"><ele>288.25</ele><time>2026-04-05T07:38:34.777Z</time></trkpt><trkpt lat="41.5481299" lon="1.670098"><ele>284.5</ele><time>2026-04-05T07:38:35.776Z</time></trkpt><trkpt lat="41.5482468" lon="1.6700543"><ele>280.75</ele><time>2026-04-05T07:38:36.776Z</time></trkpt><trkpt lat="41.5483545" lon="1.6700152"><ele>277.0</ele><time>2026-04-05T07:38:37.776Z</time></trkpt><trkpt lat="41.5484532" lon="1.6699799"><ele>277.0</ele><time>2026-04-05T07:38:38.776Z</time></trkpt><trkpt lat="41.5485436" lon="1.6699462"><ele>277.0</ele><time>2026-04-05T07:38:39.777Z</time></trkpt><trkpt lat="41.5486226" lon="1.6699189"><ele>277.0</ele><time>2026-04-05T07:38:40.777Z</time></trkpt><trkpt lat="41.548686" lon="1.6699011"><ele>277.0</ele><time>2026-04-05T07:38:41.776Z</time></trkpt><trkpt lat="41.5487765" lon="1.6698915"><ele>277.0</ele><time>2026-04-05T07:38:43.776Z</time></trkpt><trkpt lat="41.5488452" lon="1.6698405"><ele>277.0</ele><time>2026-04-05T07:38:45.777Z</time></trkpt><trkpt lat="41.5488561" lon="1.6696941"><ele>277.0</ele><time>2026-04-05T07:38:47.776Z</time></trkpt><trkpt lat="41.5488335" lon="1.669595"><ele>277.0</ele><time>2026-04-05T07:38:48.777Z</time></trkpt><trkpt lat="41.5488012" lon="1.6694702"><ele>277.0</ele><time>2026-04-05T07:38:49.777Z</time></trkpt><trkpt lat="41.5487578" lon="1.6693371"><ele>277.0</ele><time>2026-04-05T07:38:50.777Z</time></trkpt><trkpt lat="41.5487094" lon="1.6691908"><ele>277.0</ele><time>2026-04-05T07:38:51.776Z</time></trkpt><trkpt lat="41.5486526" lon="1.6690205"><ele>277.0</ele><time>2026-04-05T07:38:52.776Z</time></trkpt><trkpt lat="41.548589" lon="1.6688466"><ele>277.0</ele><time>2026-04-05T07:38:53.777Z</time></trkpt><trkpt lat="41.5485256" lon="1.6686774"><ele>277.0</ele><time>2026-04-05T07:38:54.776Z</time></trkpt><trkpt lat="41.5484613" lon="1.6685083"><ele>277.0</ele><time>2026-04-05T07:38:55.776Z</time></trkpt><trkpt lat="41.5483966" lon="1.6683393"><ele>280.25</ele><time>2026-04-05T07:38:56.777Z</time></trkpt><trkpt lat="41.5483229" lon="1.6681747"><ele>283.5</ele><time>2026-04-05T07:38:57.777Z</time></trkpt><trkpt lat="41.5482315" lon="1.6680233"><ele>286.75</ele><time>2026-04-05T07:38:58.777Z</time></trkpt><trkpt lat="41.5481247" lon="1.6678854"><ele>290.0</ele><time>2026-04-05T07:38:59.776Z</time></trkpt><trkpt lat="41.5480027" lon="1.6677641"><ele>289.0</ele><time>2026-04-05T07:39:00.777Z</time></trkpt><trkpt lat="41.547873" lon="1.6676525"><ele>288.0</ele><time>2026-04-05T07:39:01.776Z</time></trkpt><trkpt lat="41.547744" lon="1.667544"><ele>287.0</ele><time>2026-04-05T07:39:02.776Z</time></trkpt><trkpt lat="41.5476369" lon="1.6674248"><ele>286.0</ele><time>2026-04-05T07:39:03.777Z</time></trkpt><trkpt lat="41.5475491" lon="1.667282"><ele>286.0</ele><time>2026-04-05T07:39:04.777Z</time></trkpt><trkpt lat="41.5474808" lon="1.6671106"><ele>286.0</ele><time>2026-04-05T07:39:05.777Z</time></trkpt><trkpt lat="41.5474389" lon="1.666931"><ele>286.0</ele><time>2026-04-05T07:39:06.777Z</time></trkpt><trkpt lat="41.5474203" lon="1.6667624"><ele>286.0</ele><time>2026-04-05T07:39:07.776Z</time></trkpt><trkpt lat="41.5474175" lon="1.6666169"><ele>288.0</ele><time>2026-04-05T07:39:08.776Z</time></trkpt><trkpt lat="41.547423" lon="1.6665081"><ele>290.0</ele><time>2026-04-05T07:39:09.776Z</time></trkpt><trkpt lat="41.5474251" lon="1.6664004"><ele>292.0</ele><time>2026-04-05T07:39:11.776Z</time></trkpt><trkpt lat="41.5473821" lon="1.6665089"><ele>294.0</ele><time>2026-04-05T07:39:22.777Z</time></trkpt><trkpt lat="41.5473795" lon="1.6666462"><ele>296.0</ele><time>2026-04-05T07:39:24.776Z</time></trkpt><trkpt lat="41.5473983" lon="1.6667313"><ele>298.0</ele><time>2026-04-05T07:39:56.776Z</time></trkpt><trkpt lat="41.5474279" lon="1.6666297"><ele>298.0</ele><time>2026-04-05T07:39:59.777Z</time></trkpt><trkpt lat="41.5474181" lon="1.6664974"><ele>298.0</ele><time>2026-04-05T07:40:01.776Z</time></trkpt><trkpt lat="41.5474256" lon="1.6664035"><ele>298.0</ele><time>2026-04-05T07:40:04.777Z</time></trkpt><trkpt lat="41.5474093" lon="1.6662436"><ele>298.0</ele><time>2026-04-05T07:40:09.777Z</time></trkpt><trkpt lat="41.5474208" lon="1.6661471"><ele>298.0</ele><time>2026-04-05T07:40:10.776Z</time></trkpt><trkpt lat="41.5474467" lon="1.6660239"><ele>298.6</ele><time>2026-04-05T07:40:11.776Z</time></trkpt><trkpt lat="41.5474816" lon="1.6658937"><ele>299.20000000000005</ele><time>2026-04-05T07:40:12.777Z</time></trkpt><trkpt lat="41.5475148" lon="1.6657652"><ele>299.8</ele><time>2026-04-05T07:40:13.776Z</time></trkpt><trkpt lat="41.5475368" lon="1.6656339"><ele>300.40000000000003</ele><time>2026-04-05T07:40:14.776Z</time></trkpt><trkpt lat="41.5475466" lon="1.6654899"><ele>301.0</ele><time>2026-04-05T07:40:15.777Z</time></trkpt><trkpt lat="41.5475408" lon="1.6653472"><ele>302.25</ele><time>2026-04-05T07:40:16.776Z</time></trkpt><trkpt lat="41.5475043" lon="1.6652086"><ele>303.5</ele><time>2026-04-05T07:40:17.777Z</time></trkpt><trkpt lat="41.547434" lon="1.6650693"><ele>304.75</ele><time>2026-04-05T07:40:18.777Z</time></trkpt><trkpt lat="41.5473369" lon="1.6649388"><ele>306.0</ele><time>2026-04-05T07:40:19.776Z</time></trkpt><trkpt lat="41.5472176" lon="1.6648136"><ele>306.0</ele><time>2026-04-05T07:40:20.777Z</time></trkpt><trkpt lat="41.5470876" lon="1.6646778"><ele>306.0</ele><time>2026-04-05T07:40:21.777Z</time></trkpt><trkpt lat="41.5469544" lon="1.6645464"><ele>306.0</ele><time>2026-04-05T07:40:22.777Z</time></trkpt><trkpt lat="41.5468307" lon="1.6644187"><ele>304.3333333333333</ele><time>2026-04-05T07:40:23.777Z</time></trkpt><trkpt lat="41.5467158" lon="1.6642752"><ele>302.66666666666663</ele><time>2026-04-05T07:40:24.776Z</time></trkpt><trkpt lat="41.5466104" lon="1.6641067"><ele>301.0</ele><time>2026-04-05T07:40:25.776Z</time></trkpt><trkpt lat="41.5465088" lon="1.6639223"><ele>301.0</ele><time>2026-04-05T07:40:26.776Z</time></trkpt><trkpt lat="41.5464079" lon="1.6637422"><ele>301.0</ele><time>2026-04-05T07:40:27.776Z</time></trkpt><trkpt lat="41.5463148" lon="1.6635774"><ele>301.0</ele><time>2026-04-05T07:40:28.777Z</time></trkpt><trkpt lat="41.5462292" lon="1.6634338"><ele>301.0</ele><time>2026-04-05T07:40:29.776Z</time></trkpt><trkpt lat="41.5461468" lon="1.6633245"><ele>301.0</ele><time>2026-04-05T07:40:30.776Z</time></trkpt><trkpt lat="41.5460513" lon="1.6632624"><ele>301.0</ele><time>2026-04-05T07:40:31.777Z</time></trkpt><trkpt lat="41.5459462" lon="1.6632444"><ele>301.0</ele><time>2026-04-05T07:40:32.776Z</time></trkpt><trkpt lat="41.5458251" lon="1.6632719"><ele>301.0</ele><time>2026-04-05T07:40:33.776Z</time></trkpt><trkpt lat="41.5456986" lon="1.6633246"><ele>301.0</ele><time>2026-04-05T07:40:34.776Z</time></trkpt><trkpt lat="41.5455823" lon="1.6634074"><ele>301.0</ele><time>2026-04-05T07:40:35.777Z</time></trkpt><trkpt lat="41.5454673" lon="1.6634894"><ele>301.0</ele><time>2026-04-05T07:40:36.776Z</time></trkpt><trkpt lat="41.545354" lon="1.6635335"><ele>300.0</ele><time>2026-04-05T07:40:37.776Z</time></trkpt><trkpt lat="41.5452416" lon="1.6635206"><ele>299.0</ele><time>2026-04-05T07:40:38.777Z</time></trkpt><trkpt lat="41.5451263" lon="1.6634545"><ele>298.0</ele><time>2026-04-05T07:40:39.776Z</time></trkpt><trkpt lat="41.545014" lon="1.6633466"><ele>297.0</ele><time>2026-04-05T07:40:40.776Z</time></trkpt><trkpt lat="41.5449036" lon="1.6632175"><ele>297.0</ele><time>2026-04-05T07:40:41.776Z</time></trkpt><trkpt lat="41.5447902" lon="1.6630904"><ele>297.0</ele><time>2026-04-05T07:40:42.777Z</time></trkpt><trkpt lat="41.5446887" lon="1.6629592"><ele>297.0</ele><time>2026-04-05T07:40:43.776Z</time></trkpt><trkpt lat="41.5446032" lon="1.6628125"><ele>297.0</ele><time>2026-04-05T07:40:44.776Z</time></trkpt><trkpt lat="41.5445384" lon="1.6626443"><ele>296.25</ele><time>2026-04-05T07:40:45.777Z</time></trkpt><trkpt lat="41.5444815" lon="1.6624616"><ele>295.5</ele><time>2026-04-05T07:40:46.777Z</time></trkpt><trkpt lat="41.5444147" lon="1.6622945"><ele>294.75</ele><time>2026-04-05T07:40:47.777Z</time></trkpt><trkpt lat="41.5443233" lon="1.6621444"><ele>294.0</ele><time>2026-04-05T07:40:48.776Z</time></trkpt><trkpt lat="41.5442051" lon="1.6620034"><ele>303.0</ele><time>2026-04-05T07:40:49.777Z</time></trkpt><trkpt lat="41.5440608" lon="1.6618746"><ele>312.0</ele><time>2026-04-05T07:40:50.777Z</time></trkpt><trkpt lat="41.5439147" lon="1.6617561"><ele>321.0</ele><time>2026-04-05T07:40:51.776Z</time></trkpt><trkpt lat="41.5437682" lon="1.6616501"><ele>314.6666666666667</ele><time>2026-04-05T07:40:52.777Z</time></trkpt><trkpt lat="41.5436205" lon="1.6615575"><ele>308.33333333333337</ele><time>2026-04-05T07:40:53.777Z</time></trkpt><trkpt lat="41.5434609" lon="1.6614895"><ele>302.0</ele><time>2026-04-05T07:40:54.777Z</time></trkpt><trkpt lat="41.5432928" lon="1.6614439"><ele>302.0</ele><time>2026-04-05T07:40:55.777Z</time></trkpt><trkpt lat="41.5431205" lon="1.6613989"><ele>302.0</ele><time>2026-04-05T07:40:56.776Z</time></trkpt><trkpt lat="41.5429475" lon="1.6613448"><ele>302.0</ele><time>2026-04-05T07:40:57.776Z</time></trkpt><trkpt lat="41.5427723" lon="1.6613"><ele>301.0</ele><time>2026-04-05T07:40:58.777Z</time></trkpt><trkpt lat="41.5426071" lon="1.6612624"><ele>300.0</ele><time>2026-04-05T07:40:59.776Z</time></trkpt><trkpt lat="41.5424482" lon="1.6612419"><ele>299.0</ele><time>2026-04-05T07:41:00.776Z</time></trkpt><trkpt lat="41.5423008" lon="1.6612369"><ele>299.0</ele><time>2026-04-05T07:41:01.776Z</time></trkpt><trkpt lat="41.5421657" lon="1.6612295"><ele>299.0</ele><time>2026-04-05T07:41:02.776Z</time></trkpt><trkpt lat="41.5420425" lon="1.6612167"><ele>299.0</ele><time>2026-04-05T07:41:03.776Z</time></trkpt><trkpt lat="41.5419247" lon="1.6611716"><ele>299.0</ele><time>2026-04-05T07:41:04.777Z</time></trkpt><trkpt lat="41.5418143" lon="1.6610929"><ele>300.0</ele><time>2026-04-05T07:41:05.776Z</time></trkpt><trkpt lat="41.5417252" lon="1.6609745"><ele>301.0</ele><time>2026-04-05T07:41:06.777Z</time></trkpt><trkpt lat="41.5416646" lon="1.6608209"><ele>302.0</ele><time>2026-04-05T07:41:07.777Z</time></trkpt><trkpt lat="41.5416236" lon="1.6606406"><ele>303.0</ele><time>2026-04-05T07:41:08.777Z</time></trkpt><trkpt lat="41.5416012" lon="1.6604464"><ele>304.3333333333333</ele><time>2026-04-05T07:41:09.776Z</time></trkpt><trkpt lat="41.5415707" lon="1.6602359"><ele>305.66666666666663</ele><time>2026-04-05T07:41:10.777Z</time></trkpt><trkpt lat="41.5415379" lon="1.6600031"><ele>307.0</ele><time>2026-04-05T07:41:11.777Z</time></trkpt><trkpt lat="41.5415097" lon="1.659748"><ele>307.0</ele><time>2026-04-05T07:41:12.777Z</time></trkpt><trkpt lat="41.54148" lon="1.6594987"><ele>307.0</ele><time>2026-04-05T07:41:13.777Z</time></trkpt><trkpt lat="41.5414504" lon="1.6592522"><ele>307.0</ele><time>2026-04-05T07:41:14.776Z</time></trkpt><trkpt lat="41.5414178" lon="1.6590085"><ele>308.0</ele><time>2026-04-05T07:41:15.777Z</time></trkpt><trkpt lat="41.5413887" lon="1.6587607"><ele>309.0</ele><time>2026-04-05T07:41:16.777Z</time></trkpt><trkpt lat="41.5413615" lon="1.6585102"><ele>310.0</ele><time>2026-04-05T07:41:17.776Z</time></trkpt><trkpt lat="41.5413286" lon="1.658259"><ele>310.3333333333333</ele><time>2026-04-05T07:41:18.777Z</time></trkpt><trkpt lat="41.5412954" lon="1.6580112"><ele>310.6666666666667</ele><time>2026-04-05T07:41:19.776Z</time></trkpt><trkpt lat="41.5412614" lon="1.6577549"><ele>311.0</ele><time>2026-04-05T07:41:20.777Z</time></trkpt><trkpt lat="41.5412318" lon="1.6575009"><ele>306.0</ele><time>2026-04-05T07:41:21.776Z</time></trkpt><trkpt lat="41.541201" lon="1.6572506"><ele>301.0</ele><time>2026-04-05T07:41:22.777Z</time></trkpt><trkpt lat="41.5411679" lon="1.6569981"><ele>296.0</ele><time>2026-04-05T07:41:23.776Z</time></trkpt><trkpt lat="41.541133" lon="1.6567487"><ele>295.6666666666667</ele><time>2026-04-05T07:41:24.777Z</time></trkpt><trkpt lat="41.5410991" lon="1.6565006"><ele>295.3333333333333</ele><time>2026-04-05T07:41:25.777Z</time></trkpt><trkpt lat="41.5410624" lon="1.6562593"><ele>295.0</ele><time>2026-04-05T07:41:26.776Z</time></trkpt><trkpt lat="41.5410148" lon="1.6560165"><ele>297.0</ele><time>2026-04-05T07:41:27.777Z</time></trkpt><trkpt lat="41.5409533" lon="1.6557782"><ele>299.0</ele><time>2026-04-05T07:41:28.777Z</time></trkpt><trkpt lat="41.5408791" lon="1.6555399"><ele>301.0</ele><time>2026-04-05T07:41:29.777Z</time></trkpt><trkpt lat="41.5407908" lon="1.6553086"><ele>301.0</ele><time>2026-04-05T07:41:30.777Z</time></trkpt><trkpt lat="41.5406888" lon="1.6550854"><ele>301.0</ele><time>2026-04-05T07:41:31.776Z</time></trkpt><trkpt lat="41.5405848" lon="1.654852"><ele>301.0</ele><time>2026-04-05T07:41:32.776Z</time></trkpt><trkpt lat="41.5404862" lon="1.6546275"><ele>301.3333333333333</ele><time>2026-04-05T07:41:33.776Z</time></trkpt><trkpt lat="41.5403924" lon="1.6544135"><ele>301.6666666666667</ele><time>2026-04-05T07:41:34.777Z</time></trkpt><trkpt lat="41.5403093" lon="1.6541891"><ele>302.0</ele><time>2026-04-05T07:41:35.777Z</time></trkpt><trkpt lat="41.5402401" lon="1.6539492"><ele>301.6666666666667</ele><time>2026-04-05T07:41:36.776Z</time></trkpt><trkpt lat="41.5401781" lon="1.6536881"><ele>301.3333333333333</ele><time>2026-04-05T07:41:37.777Z</time></trkpt><trkpt lat="41.5401135" lon="1.6534175"><ele>301.0</ele><time>2026-04-05T07:41:38.776Z</time></trkpt><trkpt lat="41.5400491" lon="1.6531574"><ele>301.0</ele><time>2026-04-05T07:41:39.776Z</time></trkpt><trkpt lat="41.5399846" lon="1.6529025"><ele>301.0</ele><time>2026-04-05T07:41:40.776Z</time></trkpt><trkpt lat="41.5399238" lon="1.6526571"><ele>301.0</ele><time>2026-04-05T07:41:41.776Z</time></trkpt><trkpt lat="41.5398663" lon="1.652422"><ele>301.66666666666663</ele><time>2026-04-05T07:41:42.777Z</time></trkpt><trkpt lat="41.5398141" lon="1.6522045"><ele>302.3333333333333</ele><time>2026-04-05T07:41:43.777Z</time></trkpt><trkpt lat="41.5397769" lon="1.6519951"><ele>303.0</ele><time>2026-04-05T07:41:44.777Z</time></trkpt><trkpt lat="41.5397508" lon="1.6517922"><ele>303.5</ele><time>2026-04-05T07:41:45.777Z</time></trkpt><trkpt lat="41.5397153" lon="1.6516097"><ele>304.0</ele><time>2026-04-05T07:41:46.776Z</time></trkpt><trkpt lat="41.5396607" lon="1.6514458"><ele>304.5</ele><time>2026-04-05T07:41:47.776Z</time></trkpt><trkpt lat="41.539573" lon="1.6512951"><ele>305.0</ele><time>2026-04-05T07:41:48.777Z</time></trkpt><trkpt lat="41.5394423" lon="1.6511496"><ele>303.33333333333337</ele><time>2026-04-05T07:41:49.776Z</time></trkpt><trkpt lat="41.539292" lon="1.6510112"><ele>301.6666666666667</ele><time>2026-04-05T07:41:50.776Z</time></trkpt><trkpt lat="41.5391574" lon="1.6508922"><ele>300.0</ele><time>2026-04-05T07:41:51.776Z</time></trkpt><trkpt lat="41.5390485" lon="1.6507921"><ele>300.0</ele><time>2026-04-05T07:41:52.777Z</time></trkpt><trkpt lat="41.5389536" lon="1.650703"><ele>300.0</ele><time>2026-04-05T07:41:53.777Z</time></trkpt><trkpt lat="41.538865" lon="1.6506179"><ele>300.0</ele><time>2026-04-05T07:41:54.777Z</time></trkpt><trkpt lat="41.5387554" lon="1.650537"><ele>300.0</ele><time>2026-04-05T07:41:55.777Z</time></trkpt><trkpt lat="41.5386305" lon="1.6504324"><ele>299.6666666666667</ele><time>2026-04-05T07:41:56.777Z</time></trkpt><trkpt lat="41.5385053" lon="1.6503042"><ele>299.33333333333337</ele><time>2026-04-05T07:41:57.777Z</time></trkpt><trkpt lat="41.5383784" lon="1.6501794"><ele>299.0</ele><time>2026-04-05T07:41:58.776Z</time></trkpt><trkpt lat="41.5382458" lon="1.6500749"><ele>299.6666666666667</ele><time>2026-04-05T07:41:59.777Z</time></trkpt><trkpt lat="41.5381039" lon="1.6499966"><ele>300.3333333333333</ele><time>2026-04-05T07:42:00.776Z</time></trkpt><trkpt lat="41.5379365" lon="1.6499511"><ele>301.0</ele><time>2026-04-05T07:42:01.776Z</time></trkpt><trkpt lat="41.5377622" lon="1.6499525"><ele>303.3333333333333</ele><time>2026-04-05T07:42:02.777Z</time></trkpt><trkpt lat="41.537575" lon="1.6499695"><ele>305.6666666666667</ele><time>2026-04-05T07:42:03.776Z</time></trkpt><trkpt lat="41.537386" lon="1.6499869"><ele>308.0</ele><time>2026-04-05T07:42:04.776Z</time></trkpt><trkpt lat="41.5372052" lon="1.6500042"><ele>308.33333333333337</ele><time>2026-04-05T07:42:05.777Z</time></trkpt><trkpt lat="41.537037" lon="1.6500216"><ele>308.6666666666667</ele><time>2026-04-05T07:42:06.776Z</time></trkpt><trkpt lat="41.5368813" lon="1.6500299"><ele>309.0</ele><time>2026-04-05T07:42:07.776Z</time></trkpt><trkpt lat="41.5367442" lon="1.6500214"><ele>309.0</ele><time>2026-04-05T07:42:08.777Z</time></trkpt><trkpt lat="41.5366206" lon="1.6499997"><ele>309.0</ele><time>2026-04-05T07:42:09.777Z</time></trkpt><trkpt lat="41.5364982" lon="1.6499578"><ele>309.0</ele><time>2026-04-05T07:42:10.777Z</time></trkpt><trkpt lat="41.5363717" lon="1.6498807"><ele>309.0</ele><time>2026-04-05T07:42:11.776Z</time></trkpt><trkpt lat="41.5362391" lon="1.6497608"><ele>307.3333333333333</ele><time>2026-04-05T07:42:12.776Z</time></trkpt><trkpt lat="41.5360995" lon="1.6496091"><ele>305.66666666666663</ele><time>2026-04-05T07:42:13.777Z</time></trkpt><trkpt lat="41.5359555" lon="1.6494581"><ele>304.0</ele><time>2026-04-05T07:42:14.777Z</time></trkpt><trkpt lat="41.5358142" lon="1.6493054"><ele>304.3333333333333</ele><time>2026-04-05T07:42:15.776Z</time></trkpt><trkpt lat="41.5356658" lon="1.6491473"><ele>304.6666666666667</ele><time>2026-04-05T07:42:16.777Z</time></trkpt><trkpt lat="41.5355172" lon="1.6489975"><ele>305.0</ele><time>2026-04-05T07:42:17.776Z</time></trkpt><trkpt lat="41.535371" lon="1.6488602"><ele>305.0</ele><time>2026-04-05T07:42:18.777Z</time></trkpt><trkpt lat="41.5352203" lon="1.6487481"><ele>305.0</ele><time>2026-04-05T07:42:19.776Z</time></trkpt><trkpt lat="41.5350743" lon="1.6486475"><ele>305.0</ele><time>2026-04-05T07:42:20.776Z</time></trkpt><trkpt lat="41.5349435" lon="1.6485429"><ele>310.6666666666667</ele><time>2026-04-05T07:42:21.777Z</time></trkpt><trkpt lat="41.5348218" lon="1.6484204"><ele>316.3333333333333</ele><time>2026-04-05T07:42:22.776Z</time></trkpt><trkpt lat="41.5347036" lon="1.6482704"><ele>322.0</ele><time>2026-04-05T07:42:23.776Z</time></trkpt><trkpt lat="41.534597" lon="1.6481038"><ele>318.66666666666663</ele><time>2026-04-05T07:42:24.777Z</time></trkpt><trkpt lat="41.5345041" lon="1.6479042"><ele>315.3333333333333</ele><time>2026-04-05T07:42:25.776Z</time></trkpt><trkpt lat="41.53442" lon="1.6476882"><ele>312.0</ele><time>2026-04-05T07:42:26.777Z</time></trkpt><trkpt lat="41.5343351" lon="1.6474651"><ele>312.0</ele><time>2026-04-05T07:42:27.777Z</time></trkpt><trkpt lat="41.5342478" lon="1.6472382"><ele>312.0</ele><time>2026-04-05T07:42:28.776Z</time></trkpt><trkpt lat="41.5341618" lon="1.6470126"><ele>312.0</ele><time>2026-04-05T07:42:29.776Z</time></trkpt><trkpt lat="41.5340803" lon="1.6467831"><ele>314.6666666666667</ele><time>2026-04-05T07:42:30.777Z</time></trkpt><trkpt lat="41.5339988" lon="1.6465564"><ele>317.33333333333337</ele><time>2026-04-05T07:42:31.776Z</time></trkpt><trkpt lat="41.5339177" lon="1.6463312"><ele>320.0</ele><time>2026-04-05T07:42:32.777Z</time></trkpt><trkpt lat="41.5338383" lon="1.6461195"><ele>323.0</ele><time>2026-04-05T07:42:33.776Z</time></trkpt><trkpt lat="41.5337635" lon="1.6459103"><ele>326.0</ele><time>2026-04-05T07:42:34.776Z</time></trkpt><trkpt lat="41.5336853" lon="1.6457059"><ele>329.0</ele><time>2026-04-05T07:42:35.776Z</time></trkpt><trkpt lat="41.5336207" lon="1.6455044"><ele>323.0</ele><time>2026-04-05T07:42:36.776Z</time></trkpt><trkpt lat="41.5335739" lon="1.6453024"><ele>317.0</ele><time>2026-04-05T07:42:37.777Z</time></trkpt><trkpt lat="41.53355" lon="1.6450813"><ele>311.0</ele><time>2026-04-05T07:42:38.776Z</time></trkpt><trkpt lat="41.5335535" lon="1.6448406"><ele>311.0</ele><time>2026-04-05T07:42:39.777Z</time></trkpt><trkpt lat="41.5335656" lon="1.6445811"><ele>311.0</ele><time>2026-04-05T07:42:40.776Z</time></trkpt><trkpt lat="41.5335844" lon="1.6443182"><ele>311.0</ele><time>2026-04-05T07:42:41.777Z</time></trkpt><trkpt lat="41.5336067" lon="1.6440622"><ele>310.6666666666667</ele><time>2026-04-05T07:42:42.776Z</time></trkpt><trkpt lat="41.5336258" lon="1.6438027"><ele>310.3333333333333</ele><time>2026-04-05T07:42:43.776Z</time></trkpt><trkpt lat="41.5336598" lon="1.643542"><ele>310.0</ele><time>2026-04-05T07:42:44.776Z</time></trkpt><trkpt lat="41.5337087" lon="1.6432928"><ele>314.3333333333333</ele><time>2026-04-05T07:42:45.777Z</time></trkpt><trkpt lat="41.5337616" lon="1.6430585"><ele>318.6666666666667</ele><time>2026-04-05T07:42:46.776Z</time></trkpt><trkpt lat="41.5338111" lon="1.6428308"><ele>323.0</ele><time>2026-04-05T07:42:47.777Z</time></trkpt><trkpt lat="41.5338507" lon="1.642593"><ele>323.0</ele><time>2026-04-05T07:42:48.776Z</time></trkpt><trkpt lat="41.5338716" lon="1.6423432"><ele>323.0</ele><time>2026-04-05T07:42:49.776Z</time></trkpt><trkpt lat="41.5338806" lon="1.6420856"><ele>323.0</ele><time>2026-04-05T07:42:50.777Z</time></trkpt><trkpt lat="41.5338803" lon="1.64181"><ele>322.0</ele><time>2026-04-05T07:42:51.776Z</time></trkpt><trkpt lat="41.5338731" lon="1.6415163"><ele>321.0</ele><time>2026-04-05T07:42:52.776Z</time></trkpt><trkpt lat="41.5338688" lon="1.6412271"><ele>320.0</ele><time>2026-04-05T07:42:53.777Z</time></trkpt><trkpt lat="41.5338599" lon="1.6409525"><ele>320.0</ele><time>2026-04-05T07:42:54.777Z</time></trkpt><trkpt lat="41.5338522" lon="1.6406945"><ele>320.0</ele><time>2026-04-05T07:42:55.777Z</time></trkpt><trkpt lat="41.5338481" lon="1.6404488"><ele>320.0</ele><time>2026-04-05T07:42:56.777Z</time></trkpt><trkpt lat="41.5338464" lon="1.6402162"><ele>320.0</ele><time>2026-04-05T07:42:57.777Z</time></trkpt><trkpt lat="41.533846" lon="1.6399818"><ele>320.0</ele><time>2026-04-05T07:42:58.777Z</time></trkpt><trkpt lat="41.5338433" lon="1.6397378"><ele>320.0</ele><time>2026-04-05T07:42:59.776Z</time></trkpt><trkpt lat="41.5338279" lon="1.639481"><ele>319.33333333333337</ele><time>2026-04-05T07:43:00.777Z</time></trkpt><trkpt lat="41.5337973" lon="1.6392188"><ele>318.6666666666667</ele><time>2026-04-05T07:43:01.777Z</time></trkpt><trkpt lat="41.5337609" lon="1.6389537"><ele>318.0</ele><time>2026-04-05T07:43:02.776Z</time></trkpt><trkpt lat="41.5337289" lon="1.6386982"><ele>317.0</ele><time>2026-04-05T07:43:03.776Z</time></trkpt><trkpt lat="41.5336956" lon="1.6384487"><ele>316.0</ele><time>2026-04-05T07:43:04.776Z</time></trkpt><trkpt lat="41.5336641" lon="1.6381986"><ele>315.0</ele><time>2026-04-05T07:43:05.776Z</time></trkpt><trkpt lat="41.5336311" lon="1.6379452"><ele>315.0</ele><time>2026-04-05T07:43:06.777Z</time></trkpt><trkpt lat="41.5336026" lon="1.637698"><ele>315.0</ele><time>2026-04-05T07:43:07.776Z</time></trkpt><trkpt lat="41.5335764" lon="1.6374629"><ele>315.0</ele><time>2026-04-05T07:43:08.777Z</time></trkpt><trkpt lat="41.5335467" lon="1.6372436"><ele>315.0</ele><time>2026-04-05T07:43:09.776Z</time></trkpt><trkpt lat="41.5335088" lon="1.6370326"><ele>315.0</ele><time>2026-04-05T07:43:10.777Z</time></trkpt><trkpt lat="41.5334482" lon="1.6368273"><ele>315.0</ele><time>2026-04-05T07:43:11.776Z</time></trkpt><trkpt lat="41.5333622" lon="1.6366287"><ele>315.0</ele><time>2026-04-05T07:43:12.776Z</time></trkpt><trkpt lat="41.5332577" lon="1.6364531"><ele>315.0</ele><time>2026-04-05T07:43:13.777Z</time></trkpt><trkpt lat="41.5331347" lon="1.636295"><ele>315.0</ele><time>2026-04-05T07:43:14.777Z</time></trkpt><trkpt lat="41.5329994" lon="1.6361689"><ele>315.3333333333333</ele><time>2026-04-05T07:43:15.777Z</time></trkpt><trkpt lat="41.5328568" lon="1.6360724"><ele>315.66666666666663</ele><time>2026-04-05T07:43:16.776Z</time></trkpt><trkpt lat="41.5327068" lon="1.6360144"><ele>316.0</ele><time>2026-04-05T07:43:17.776Z</time></trkpt><trkpt lat="41.5325547" lon="1.6359834"><ele>316.0</ele><time>2026-04-05T07:43:18.776Z</time></trkpt><trkpt lat="41.5323946" lon="1.6359885"><ele>316.0</ele><time>2026-04-05T07:43:19.776Z</time></trkpt><trkpt lat="41.5322406" lon="1.6360123"><ele>316.0</ele><time>2026-04-05T07:43:20.777Z</time></trkpt><trkpt lat="41.5321022" lon="1.6360404"><ele>318.0</ele><time>2026-04-05T07:43:21.776Z</time></trkpt><trkpt lat="41.5319763" lon="1.6360503"><ele>320.0</ele><time>2026-04-05T07:43:22.777Z</time></trkpt><trkpt lat="41.5318714" lon="1.6360034"><ele>322.0</ele><time>2026-04-05T07:43:23.776Z</time></trkpt><trkpt lat="41.5317798" lon="1.6358997"><ele>324.0</ele><time>2026-04-05T07:43:24.777Z</time></trkpt><trkpt lat="41.5317021" lon="1.6357504"><ele>324.0</ele><time>2026-04-05T07:43:25.777Z</time></trkpt><trkpt lat="41.531624" lon="1.6355858"><ele>324.0</ele><time>2026-04-05T07:43:26.776Z</time></trkpt><trkpt lat="41.5315592" lon="1.6354193"><ele>324.0</ele><time>2026-04-05T07:43:27.777Z</time></trkpt><trkpt lat="41.5315215" lon="1.6352536"><ele>324.0</ele><time>2026-04-05T07:43:28.776Z</time></trkpt><trkpt lat="41.5315157" lon="1.6350705"><ele>324.3333333333333</ele><time>2026-04-05T07:43:29.776Z</time></trkpt><trkpt lat="41.5315456" lon="1.6348683"><ele>324.66666666666663</ele><time>2026-04-05T07:43:30.776Z</time></trkpt><trkpt lat="41.5315788" lon="1.6346705"><ele>325.0</ele><time>2026-04-05T07:43:31.776Z</time></trkpt><trkpt lat="41.5316075" lon="1.6344557"><ele>325.0</ele><time>2026-04-05T07:43:32.777Z</time></trkpt><trkpt lat="41.5316198" lon="1.6342262"><ele>325.0</ele><time>2026-04-05T07:43:33.776Z</time></trkpt><trkpt lat="41.5316094" lon="1.6339871"><ele>325.0</ele><time>2026-04-05T07:43:34.776Z</time></trkpt><trkpt lat="41.5315756" lon="1.6337347"><ele>324.3333333333333</ele><time>2026-04-05T07:43:35.777Z</time></trkpt><trkpt lat="41.5315349" lon="1.6334859"><ele>323.6666666666667</ele><time>2026-04-05T07:43:36.777Z</time></trkpt><trkpt lat="41.5314995" lon="1.6332441"><ele>323.0</ele><time>2026-04-05T07:43:37.776Z</time></trkpt><trkpt lat="41.5314622" lon="1.6330017"><ele>323.6666666666667</ele><time>2026-04-05T07:43:38.777Z</time></trkpt><trkpt lat="41.5314243" lon="1.632761"><ele>324.3333333333333</ele><time>2026-04-05T07:43:39.777Z</time></trkpt><trkpt lat="41.5313861" lon="1.6325228"><ele>325.0</ele><time>2026-04-05T07:43:40.777Z</time></trkpt><trkpt lat="41.5313554" lon="1.6322894"><ele>325.0</ele><time>2026-04-05T07:43:41.776Z</time></trkpt><trkpt lat="41.5313219" lon="1.6320523"><ele>325.0</ele><time>2026-04-05T07:43:42.776Z</time></trkpt><trkpt lat="41.5312959" lon="1.6318105"><ele>325.0</ele><time>2026-04-05T07:43:43.776Z</time></trkpt><trkpt lat="41.5312895" lon="1.631566"><ele>325.66666666666663</ele><time>2026-04-05T07:43:44.777Z</time></trkpt><trkpt lat="41.5312938" lon="1.6313127"><ele>326.3333333333333</ele><time>2026-04-05T07:43:45.776Z</time></trkpt><trkpt lat="41.5312983" lon="1.6310483"><ele>327.0</ele><time>2026-04-05T07:43:46.776Z</time></trkpt><trkpt lat="41.5313025" lon="1.6307935"><ele>327.6666666666667</ele><time>2026-04-05T07:43:47.777Z</time></trkpt><trkpt lat="41.531308" lon="1.630546"><ele>328.33333333333337</ele><time>2026-04-05T07:43:48.776Z</time></trkpt><trkpt lat="41.5313135" lon="1.6303141"><ele>329.0</ele><time>2026-04-05T07:43:49.776Z</time></trkpt><trkpt lat="41.5313217" lon="1.6300912"><ele>329.25</ele><time>2026-04-05T07:43:50.776Z</time></trkpt><trkpt lat="41.5313283" lon="1.6298777"><ele>329.5</ele><time>2026-04-05T07:43:51.777Z</time></trkpt><trkpt lat="41.5313322" lon="1.6296782"><ele>329.75</ele><time>2026-04-05T07:43:52.777Z</time></trkpt><trkpt lat="41.5313294" lon="1.6294922"><ele>330.0</ele><time>2026-04-05T07:43:53.776Z</time></trkpt><trkpt lat="41.5313225" lon="1.6293121"><ele>330.25</ele><time>2026-04-05T07:43:54.777Z</time></trkpt><trkpt lat="41.5313151" lon="1.629151"><ele>330.5</ele><time>2026-04-05T07:43:55.776Z</time></trkpt><trkpt lat="41.5313038" lon="1.6289962"><ele>330.75</ele><time>2026-04-05T07:43:56.776Z</time></trkpt><trkpt lat="41.5312939" lon="1.6288379"><ele>331.0</ele><time>2026-04-05T07:43:57.777Z</time></trkpt><trkpt lat="41.5312807" lon="1.6286875"><ele>331.20000000000005</ele><time>2026-04-05T07:43:58.777Z</time></trkpt><trkpt lat="41.5312703" lon="1.6285459"><ele>331.40000000000003</ele><time>2026-04-05T07:43:59.777Z</time></trkpt><trkpt lat="41.5312596" lon="1.6284084"><ele>331.6</ele><time>2026-04-05T07:44:00.776Z</time></trkpt><trkpt lat="41.5312451" lon="1.6282737"><ele>331.8</ele><time>2026-04-05T07:44:01.777Z</time></trkpt><trkpt lat="41.531232" lon="1.6281434"><ele>332.0</ele><time>2026-04-05T07:44:02.777Z</time></trkpt><trkpt lat="41.531219" lon="1.6280191"><ele>334.8</ele><time>2026-04-05T07:44:03.777Z</time></trkpt><trkpt lat="41.531207" lon="1.627895"><ele>337.6</ele><time>2026-04-05T07:44:04.776Z</time></trkpt><trkpt lat="41.5311988" lon="1.6277708"><ele>340.40000000000003</ele><time>2026-04-05T07:44:05.777Z</time></trkpt><trkpt lat="41.5311943" lon="1.6276474"><ele>343.20000000000005</ele><time>2026-04-05T07:44:06.776Z</time></trkpt><trkpt lat="41.5311861" lon="1.6275257"><ele>346.0</ele><time>2026-04-05T07:44:07.776Z</time></trkpt><trkpt lat="41.531176" lon="1.627393"><ele>346.0</ele><time>2026-04-05T07:44:08.776Z</time></trkpt><trkpt lat="41.5311682" lon="1.6272482"><ele>346.0</ele><time>2026-04-05T07:44:09.777Z</time></trkpt><trkpt lat="41.5311599" lon="1.6270982"><ele>346.0</ele><time>2026-04-05T07:44:10.776Z</time></trkpt><trkpt lat="41.531148" lon="1.6269503"><ele>346.0</ele><time>2026-04-05T07:44:11.776Z</time></trkpt><trkpt lat="41.5311326" lon="1.6267996"><ele>346.0</ele><time>2026-04-05T07:44:12.776Z</time></trkpt><trkpt lat="41.5311226" lon="1.6266525"><ele>345.20000000000005</ele><time>2026-04-05T07:44:13.776Z</time></trkpt><trkpt lat="41.5311146" lon="1.6265125"><ele>344.40000000000003</ele><time>2026-04-05T07:44:14.777Z</time></trkpt><trkpt lat="41.5311021" lon="1.6263727"><ele>343.6</ele><time>2026-04-05T07:44:15.776Z</time></trkpt><trkpt lat="41.5310904" lon="1.62623"><ele>342.8</ele><time>2026-04-05T07:44:16.776Z</time></trkpt><trkpt lat="41.5310771" lon="1.6260896"><ele>342.0</ele><time>2026-04-05T07:44:17.776Z</time></trkpt><trkpt lat="41.5310685" lon="1.6259558"><ele>342.0</ele><time>2026-04-05T07:44:18.777Z</time></trkpt><trkpt lat="41.5310571" lon="1.6258183"><ele>342.0</ele><time>2026-04-05T07:44:19.777Z</time></trkpt><trkpt lat="41.5310448" lon="1.6256755"><ele>342.0</ele><time>2026-04-05T07:44:20.776Z</time></trkpt><trkpt lat="41.531033" lon="1.6255297"><ele>342.0</ele><time>2026-04-05T07:44:21.776Z</time></trkpt><trkpt lat="41.5310231" lon="1.6253857"><ele>342.0</ele><time>2026-04-05T07:44:22.777Z</time></trkpt><trkpt lat="41.5310137" lon="1.6252427"><ele>341.6666666666667</ele><time>2026-04-05T07:44:23.776Z</time></trkpt><trkpt lat="41.5310001" lon="1.6251046"><ele>341.3333333333333</ele><time>2026-04-05T07:44:24.777Z</time></trkpt><trkpt lat="41.5309894" lon="1.6249763"><ele>341.0</ele><time>2026-04-05T07:44:25.777Z</time></trkpt><trkpt lat="41.5309798" lon="1.6248582"><ele>340.66666666666663</ele><time>2026-04-05T07:44:26.776Z</time></trkpt><trkpt lat="41.5309748" lon="1.6247486"><ele>340.3333333333333</ele><time>2026-04-05T07:44:27.777Z</time></trkpt><trkpt lat="41.5309679" lon="1.6246456"><ele>340.0</ele><time>2026-04-05T07:44:28.776Z</time></trkpt><trkpt lat="41.530958" lon="1.6245312"><ele>340.0</ele><time>2026-04-05T07:44:29.776Z</time></trkpt><trkpt lat="41.5309419" lon="1.6244145"><ele>340.0</ele><time>2026-04-05T07:44:30.777Z</time></trkpt><trkpt lat="41.530928" lon="1.6242978"><ele>340.0</ele><time>2026-04-05T07:44:31.776Z</time></trkpt><trkpt lat="41.5309118" lon="1.6241831"><ele>340.0</ele><time>2026-04-05T07:44:32.776Z</time></trkpt><trkpt lat="41.530894" lon="1.6240678"><ele>340.0</ele><time>2026-04-05T07:44:33.776Z</time></trkpt><trkpt lat="41.5308856" lon="1.6239536"><ele>340.0</ele><time>2026-04-05T07:44:34.777Z</time></trkpt><trkpt lat="41.5308783" lon="1.6238416"><ele>340.0</ele><time>2026-04-05T07:44:35.776Z</time></trkpt><trkpt lat="41.5308725" lon="1.6237367"><ele>340.0</ele><time>2026-04-05T07:44:36.776Z</time></trkpt><trkpt lat="41.5308652" lon="1.6236257"><ele>340.0</ele><time>2026-04-05T07:44:37.777Z</time></trkpt><trkpt lat="41.5308597" lon="1.6235174"><ele>340.0</ele><time>2026-04-05T07:44:38.777Z</time></trkpt><trkpt lat="41.530852" lon="1.6234124"><ele>340.0</ele><time>2026-04-05T07:44:39.776Z</time></trkpt><trkpt lat="41.5308456" lon="1.6233051"><ele>340.0</ele><time>2026-04-05T07:44:40.776Z</time></trkpt><trkpt lat="41.5308381" lon="1.6231974"><ele>340.0</ele><time>2026-04-05T07:44:41.777Z</time></trkpt><trkpt lat="41.5308421" lon="1.6230839"><ele>340.0</ele><time>2026-04-05T07:44:42.777Z</time></trkpt><trkpt lat="41.5308652" lon="1.6229672"><ele>340.0</ele><time>2026-04-05T07:44:43.777Z</time></trkpt><trkpt lat="41.5309156" lon="1.6228566"><ele>340.0</ele><time>2026-04-05T07:44:44.777Z</time></trkpt><trkpt lat="41.530977" lon="1.6227565"><ele>340.0</ele><time>2026-04-05T07:44:45.777Z</time></trkpt><trkpt lat="41.5310372" lon="1.6226547"><ele>340.0</ele><time>2026-04-05T07:44:46.776Z</time></trkpt><trkpt lat="41.5311056" lon="1.6225464"><ele>340.0</ele><time>2026-04-05T07:44:47.776Z</time></trkpt><trkpt lat="41.5311738" lon="1.6224386"><ele>340.0</ele><time>2026-04-05T07:44:48.776Z</time></trkpt><trkpt lat="41.5312349" lon="1.6223341"><ele>340.0</ele><time>2026-04-05T07:44:49.776Z</time></trkpt><trkpt lat="41.5312883" lon="1.6222282"><ele>340.0</ele><time>2026-04-05T07:44:50.776Z</time></trkpt><trkpt lat="41.5313455" lon="1.6221177"><ele>338.4</ele><time>2026-04-05T07:44:51.776Z</time></trkpt><trkpt lat="41.5313979" lon="1.6220048"><ele>336.8</ele><time>2026-04-05T07:44:52.776Z</time></trkpt><trkpt lat="41.5314463" lon="1.6218873"><ele>335.20000000000005</ele><time>2026-04-05T07:44:53.776Z</time></trkpt><trkpt lat="41.5314852" lon="1.6217755"><ele>333.6</ele><time>2026-04-05T07:44:54.777Z</time></trkpt><trkpt lat="41.5315164" lon="1.6216612"><ele>332.0</ele><time>2026-04-05T07:44:55.776Z</time></trkpt><trkpt lat="41.5315549" lon="1.6215556"><ele>332.0</ele><time>2026-04-05T07:44:56.776Z</time></trkpt><trkpt lat="41.5315836" lon="1.6214581"><ele>332.0</ele><time>2026-04-05T07:44:57.776Z</time></trkpt><trkpt lat="41.5316075" lon="1.6213624"><ele>332.0</ele><time>2026-04-05T07:44:58.777Z</time></trkpt><trkpt lat="41.5316412" lon="1.6212549"><ele>332.0</ele><time>2026-04-05T07:44:59.776Z</time></trkpt><trkpt lat="41.5316822" lon="1.6211445"><ele>332.0</ele><time>2026-04-05T07:45:00.777Z</time></trkpt><trkpt lat="41.5317187" lon="1.6210336"><ele>332.0</ele><time>2026-04-05T07:45:01.776Z</time></trkpt><trkpt lat="41.5317652" lon="1.6209172"><ele>331.83333333333337</ele><time>2026-04-05T07:45:02.777Z</time></trkpt><trkpt lat="41.5318008" lon="1.6208154"><ele>331.6666666666667</ele><time>2026-04-05T07:45:03.776Z</time></trkpt><trkpt lat="41.5318296" lon="1.6207178"><ele>331.5</ele><time>2026-04-05T07:45:04.777Z</time></trkpt><trkpt lat="41.5318425" lon="1.6206289"><ele>331.3333333333333</ele><time>2026-04-05T07:45:05.776Z</time></trkpt><trkpt lat="41.5318339" lon="1.6204915"><ele>331.16666666666663</ele><time>2026-04-05T07:45:07.777Z</time></trkpt><trkpt lat="41.5318087" lon="1.6204074"><ele>331.0</ele><time>2026-04-05T07:45:08.777Z</time></trkpt><trkpt lat="41.5317781" lon="1.6203033"><ele>331.0</ele><time>2026-04-05T07:45:09.777Z</time></trkpt><trkpt lat="41.5317525" lon="1.620185"><ele>331.0</ele><time>2026-04-05T07:45:10.776Z</time></trkpt><trkpt lat="41.5317268" lon="1.6200671"><ele>331.0</ele><time>2026-04-05T07:45:11.776Z</time></trkpt><trkpt lat="41.5316894" lon="1.6199477"><ele>331.0</ele><time>2026-04-05T07:45:12.776Z</time></trkpt><trkpt lat="41.5316511" lon="1.6198297"><ele>331.0</ele><time>2026-04-05T07:45:13.777Z</time></trkpt><trkpt lat="41.5316136" lon="1.6197091"><ele>331.0</ele><time>2026-04-05T07:45:14.776Z</time></trkpt><trkpt lat="41.5315845" lon="1.6195802"><ele>331.0</ele><time>2026-04-05T07:45:15.777Z</time></trkpt><trkpt lat="41.5315557" lon="1.619456"><ele>331.0</ele><time>2026-04-05T07:45:16.777Z</time></trkpt><trkpt lat="41.5315382" lon="1.6193275"><ele>331.0</ele><time>2026-04-05T07:45:17.776Z</time></trkpt><trkpt lat="41.5315324" lon="1.6192011"><ele>331.0</ele><time>2026-04-05T07:45:18.776Z</time></trkpt><trkpt lat="41.5315506" lon="1.6190736"><ele>330.0</ele><time>2026-04-05T07:45:19.776Z</time></trkpt><trkpt lat="41.531587" lon="1.6189361"><ele>329.0</ele><time>2026-04-05T07:45:20.777Z</time></trkpt><trkpt lat="41.5316328" lon="1.6187931"><ele>328.0</ele><time>2026-04-05T07:45:21.777Z</time></trkpt><trkpt lat="41.531679" lon="1.6186578"><ele>327.0</ele><time>2026-04-05T07:45:22.777Z</time></trkpt><trkpt lat="41.5317373" lon="1.6185171"><ele>327.0</ele><time>2026-04-05T07:45:23.776Z</time></trkpt><trkpt lat="41.5317924" lon="1.6183758"><ele>327.0</ele><time>2026-04-05T07:45:24.776Z</time></trkpt><trkpt lat="41.5318412" lon="1.6182322"><ele>327.0</ele><time>2026-04-05T07:45:25.776Z</time></trkpt><trkpt lat="41.5318917" lon="1.6180892"><ele>327.0</ele><time>2026-04-05T07:45:26.777Z</time></trkpt><trkpt lat="41.5319442" lon="1.6179426"><ele>326.75</ele><time>2026-04-05T07:45:27.777Z</time></trkpt><trkpt lat="41.5319962" lon="1.6177975"><ele>326.5</ele><time>2026-04-05T07:45:28.777Z</time></trkpt><trkpt lat="41.5320478" lon="1.6176473"><ele>326.25</ele><time>2026-04-05T07:45:29.777Z</time></trkpt><trkpt lat="41.5320999" lon="1.6175022"><ele>326.0</ele><time>2026-04-05T07:45:30.776Z</time></trkpt><trkpt lat="41.5321534" lon="1.6173538"><ele>326.0</ele><time>2026-04-05T07:45:31.776Z</time></trkpt><trkpt lat="41.5322067" lon="1.6172129"><ele>326.0</ele><time>2026-04-05T07:45:32.777Z</time></trkpt><trkpt lat="41.5322537" lon="1.6170736"><ele>326.0</ele><time>2026-04-05T07:45:33.777Z</time></trkpt><trkpt lat="41.5322836" lon="1.616929"><ele>326.0</ele><time>2026-04-05T07:45:34.777Z</time></trkpt><trkpt lat="41.5323037" lon="1.6167895"><ele>326.75</ele><time>2026-04-05T07:45:35.776Z</time></trkpt><trkpt lat="41.5322747" lon="1.6166241"><ele>327.5</ele><time>2026-04-05T07:45:36.776Z</time></trkpt><trkpt lat="41.5322544" lon="1.616464"><ele>328.25</ele><time>2026-04-05T07:45:37.776Z</time></trkpt><trkpt lat="41.5322263" lon="1.6163182"><ele>329.0</ele><time>2026-04-05T07:45:38.777Z</time></trkpt><trkpt lat="41.5321989" lon="1.6161722"><ele>329.75</ele><time>2026-04-05T07:45:39.777Z</time></trkpt><trkpt lat="41.5321733" lon="1.6160227"><ele>330.5</ele><time>2026-04-05T07:45:40.777Z</time></trkpt><trkpt lat="41.5321475" lon="1.6158716"><ele>331.25</ele><time>2026-04-05T07:45:41.777Z</time></trkpt><trkpt lat="41.5321238" lon="1.6157254"><ele>332.0</ele><time>2026-04-05T07:45:42.776Z</time></trkpt><trkpt lat="41.5321003" lon="1.6155824"><ele>332.0</ele><time>2026-04-05T07:45:43.777Z</time></trkpt><trkpt lat="41.5320793" lon="1.6154247"><ele>332.0</ele><time>2026-04-05T07:45:44.776Z</time></trkpt><trkpt lat="41.5320411" lon="1.6153206"><ele>332.0</ele><time>2026-04-05T07:45:45.776Z</time></trkpt><trkpt lat="41.5319825" lon="1.6152025"><ele>332.0</ele><time>2026-04-05T07:45:46.776Z</time></trkpt><trkpt lat="41.5319082" lon="1.6150736"><ele>332.0</ele><time>2026-04-05T07:45:47.777Z</time></trkpt><trkpt lat="41.5318272" lon="1.6149416"><ele>331.5</ele><time>2026-04-05T07:45:48.777Z</time></trkpt><trkpt lat="41.5317355" lon="1.6147973"><ele>331.0</ele><time>2026-04-05T07:45:49.777Z</time></trkpt><trkpt lat="41.5316445" lon="1.6146586"><ele>330.5</ele><time>2026-04-05T07:45:50.776Z</time></trkpt><trkpt lat="41.5315483" lon="1.6145104"><ele>330.0</ele><time>2026-04-05T07:45:51.777Z</time></trkpt><trkpt lat="41.5314536" lon="1.6143602"><ele>331.3333333333333</ele><time>2026-04-05T07:45:52.777Z</time></trkpt><trkpt lat="41.5313518" lon="1.6141986"><ele>332.66666666666663</ele><time>2026-04-05T07:45:53.776Z</time></trkpt><trkpt lat="41.5312489" lon="1.6140261"><ele>334.0</ele><time>2026-04-05T07:45:54.777Z</time></trkpt><trkpt lat="41.5311414" lon="1.6138534"><ele>334.0</ele><time>2026-04-05T07:45:55.776Z</time></trkpt><trkpt lat="41.5310359" lon="1.6136833"><ele>334.0</ele><time>2026-04-05T07:45:56.777Z</time></trkpt><trkpt lat="41.5309342" lon="1.6135126"><ele>334.0</ele><time>2026-04-05T07:45:57.776Z</time></trkpt><trkpt lat="41.5308328" lon="1.6133498"><ele>333.5</ele><time>2026-04-05T07:45:58.776Z</time></trkpt><trkpt lat="41.5307336" lon="1.6131951"><ele>333.0</ele><time>2026-04-05T07:45:59.777Z</time></trkpt><trkpt lat="41.5306497" lon="1.6130481"><ele>332.5</ele><time>2026-04-05T07:46:00.777Z</time></trkpt><trkpt lat="41.5305931" lon="1.6129022"><ele>332.0</ele><time>2026-04-05T07:46:01.777Z</time></trkpt><trkpt lat="41.5305635" lon="1.6127563"><ele>332.8</ele><time>2026-04-05T07:46:02.776Z</time></trkpt><trkpt lat="41.530569" lon="1.6126126"><ele>333.6</ele><time>2026-04-05T07:46:03.776Z</time></trkpt><trkpt lat="41.5306092" lon="1.6124972"><ele>334.40000000000003</ele><time>2026-04-05T07:46:04.777Z</time></trkpt><trkpt lat="41.5306845" lon="1.6124094"><ele>335.20000000000005</ele><time>2026-04-05T07:46:05.776Z</time></trkpt><trkpt lat="41.5307672" lon="1.6123211"><ele>336.0</ele><time>2026-04-05T07:46:06.777Z</time></trkpt><trkpt lat="41.5308734" lon="1.6122503"><ele>336.0</ele><time>2026-04-05T07:46:07.777Z</time></trkpt><trkpt lat="41.5309653" lon="1.6121467"><ele>336.0</ele><time>2026-04-05T07:46:08.776Z</time></trkpt><trkpt lat="41.5310401" lon="1.6120087"><ele>336.0</ele><time>2026-04-05T07:46:09.776Z</time></trkpt><trkpt lat="41.5310914" lon="1.6118448"><ele>336.0</ele><time>2026-04-05T07:46:10.776Z</time></trkpt><trkpt lat="41.5311226" lon="1.6116663"><ele>336.0</ele><time>2026-04-05T07:46:11.777Z</time></trkpt><trkpt lat="41.5311468" lon="1.6114817"><ele>336.0</ele><time>2026-04-05T07:46:12.776Z</time></trkpt><trkpt lat="41.5311511" lon="1.6112757"><ele>336.0</ele><time>2026-04-05T07:46:13.776Z</time></trkpt><trkpt lat="41.5311212" lon="1.6110525"><ele>336.3333333333333</ele><time>2026-04-05T07:46:14.776Z</time></trkpt><trkpt lat="41.5310657" lon="1.6108181"><ele>336.66666666666663</ele><time>2026-04-05T07:46:15.776Z</time></trkpt><trkpt lat="41.5309957" lon="1.6105712"><ele>337.0</ele><time>2026-04-05T07:46:16.777Z</time></trkpt><trkpt lat="41.5309259" lon="1.6103392"><ele>341.0</ele><time>2026-04-05T07:46:17.777Z</time></trkpt><trkpt lat="41.530864" lon="1.6101217"><ele>345.0</ele><time>2026-04-05T07:46:18.777Z</time></trkpt><trkpt lat="41.5307941" lon="1.6099218"><ele>349.0</ele><time>2026-04-05T07:46:19.777Z</time></trkpt><trkpt lat="41.530707" lon="1.6097501"><ele>349.0</ele><time>2026-04-05T07:46:20.777Z</time></trkpt><trkpt lat="41.5305953" lon="1.609603"><ele>349.0</ele><time>2026-04-05T07:46:21.776Z</time></trkpt><trkpt lat="41.5304701" lon="1.6094653"><ele>349.0</ele><time>2026-04-05T07:46:22.777Z</time></trkpt><trkpt lat="41.5303418" lon="1.6093475"><ele>348.5</ele><time>2026-04-05T07:46:23.776Z</time></trkpt><trkpt lat="41.5302263" lon="1.609255"><ele>348.0</ele><time>2026-04-05T07:46:24.776Z</time></trkpt><trkpt lat="41.5301205" lon="1.6091771"><ele>347.5</ele><time>2026-04-05T07:46:25.776Z</time></trkpt><trkpt lat="41.5300247" lon="1.609113"><ele>347.0</ele><time>2026-04-05T07:46:26.776Z</time></trkpt><trkpt lat="41.5299245" lon="1.6090437"><ele>347.0</ele><time>2026-04-05T07:46:27.776Z</time></trkpt><trkpt lat="41.5298189" lon="1.6089521"><ele>347.0</ele><time>2026-04-05T07:46:28.776Z</time></trkpt><trkpt lat="41.5297271" lon="1.6088445"><ele>347.0</ele><time>2026-04-05T07:46:29.776Z</time></trkpt><trkpt lat="41.5296525" lon="1.6087344"><ele>347.0</ele><time>2026-04-05T07:46:30.777Z</time></trkpt><trkpt lat="41.5295721" lon="1.6086504"><ele>348.20000000000005</ele><time>2026-04-05T07:46:31.777Z</time></trkpt><trkpt lat="41.5294817" lon="1.6086005"><ele>349.4</ele><time>2026-04-05T07:46:32.776Z</time></trkpt><trkpt lat="41.5293776" lon="1.6085972"><ele>350.6</ele><time>2026-04-05T07:46:33.776Z</time></trkpt><trkpt lat="41.5292668" lon="1.6086404"><ele>351.79999999999995</ele><time>2026-04-05T07:46:34.776Z</time></trkpt><trkpt lat="41.5291509" lon="1.6087038"><ele>353.0</ele><time>2026-04-05T07:46:35.776Z</time></trkpt><trkpt lat="41.5290305" lon="1.6087706"><ele>349.75</ele><time>2026-04-05T07:46:36.777Z</time></trkpt><trkpt lat="41.5289015" lon="1.6088234"><ele>346.5</ele><time>2026-04-05T07:46:37.777Z</time></trkpt><trkpt lat="41.5287574" lon="1.6088561"><ele>343.25</ele><time>2026-04-05T07:46:38.776Z</time></trkpt><trkpt lat="41.5286151" lon="1.6088477"><ele>340.0</ele><time>2026-04-05T07:46:39.776Z</time></trkpt><trkpt lat="41.5284831" lon="1.6088021"><ele>340.0</ele><time>2026-04-05T07:46:40.777Z</time></trkpt><trkpt lat="41.5283592" lon="1.6087267"><ele>340.0</ele><time>2026-04-05T07:46:41.776Z</time></trkpt><trkpt lat="41.5282491" lon="1.6086191"><ele>340.0</ele><time>2026-04-05T07:46:42.776Z</time></trkpt><trkpt lat="41.5281436" lon="1.6085051"><ele>340.0</ele><time>2026-04-05T07:46:43.776Z</time></trkpt><trkpt lat="41.5280979" lon="1.6082957"><ele>342.0</ele><time>2026-04-05T07:46:44.777Z</time></trkpt><trkpt lat="41.5280522" lon="1.6080759"><ele>344.0</ele><time>2026-04-05T07:46:45.777Z</time></trkpt><trkpt lat="41.5280075" lon="1.6078327"><ele>346.0</ele><time>2026-04-05T07:46:46.777Z</time></trkpt><trkpt lat="41.5279677" lon="1.6075963"><ele>346.0</ele><time>2026-04-05T07:46:47.777Z</time></trkpt><trkpt lat="41.5279268" lon="1.607368"><ele>346.0</ele><time>2026-04-05T07:46:48.776Z</time></trkpt><trkpt lat="41.5278821" lon="1.6071485"><ele>346.0</ele><time>2026-04-05T07:46:49.776Z</time></trkpt><trkpt lat="41.5278266" lon="1.6069456"><ele>346.0</ele><time>2026-04-05T07:46:50.776Z</time></trkpt><trkpt lat="41.5277639" lon="1.606763"><ele>346.0</ele><time>2026-04-05T07:46:51.776Z</time></trkpt><trkpt lat="41.5277196" lon="1.6065853"><ele>346.0</ele><time>2026-04-05T07:46:52.777Z</time></trkpt><trkpt lat="41.5277017" lon="1.6064097"><ele>346.0</ele><time>2026-04-05T07:46:53.777Z</time></trkpt><trkpt lat="41.5277055" lon="1.6062335"><ele>345.75</ele><time>2026-04-05T07:46:54.776Z</time></trkpt><trkpt lat="41.527722" lon="1.6060754"><ele>345.5</ele><time>2026-04-05T07:46:55.777Z</time></trkpt><trkpt lat="41.5277637" lon="1.6059076"><ele>345.25</ele><time>2026-04-05T07:46:56.776Z</time></trkpt><trkpt lat="41.5278297" lon="1.605722"><ele>345.0</ele><time>2026-04-05T07:46:57.776Z</time></trkpt><trkpt lat="41.5279104" lon="1.6055328"><ele>350.6666666666667</ele><time>2026-04-05T07:46:58.777Z</time></trkpt><trkpt lat="41.5280051" lon="1.6053117"><ele>356.33333333333337</ele><time>2026-04-05T07:46:59.776Z</time></trkpt><trkpt lat="41.5281078" lon="1.6050614"><ele>362.0</ele><time>2026-04-05T07:47:00.776Z</time></trkpt><trkpt lat="41.5282137" lon="1.6048164"><ele>362.0</ele><time>2026-04-05T07:47:01.776Z</time></trkpt><trkpt lat="41.5283133" lon="1.6045832"><ele>362.0</ele><time>2026-04-05T07:47:02.776Z</time></trkpt><trkpt lat="41.5283982" lon="1.6043574"><ele>362.0</ele><time>2026-04-05T07:47:03.776Z</time></trkpt><trkpt lat="41.5284672" lon="1.6041342"><ele>358.0</ele><time>2026-04-05T07:47:04.777Z</time></trkpt><trkpt lat="41.5285223" lon="1.6039219"><ele>354.0</ele><time>2026-04-05T07:47:05.776Z</time></trkpt><trkpt lat="41.5285671" lon="1.6037169"><ele>350.0</ele><time>2026-04-05T07:47:06.776Z</time></trkpt><trkpt lat="41.5286012" lon="1.6035211"><ele>349.6666666666667</ele><time>2026-04-05T07:47:07.777Z</time></trkpt><trkpt lat="41.5286219" lon="1.6033208"><ele>349.3333333333333</ele><time>2026-04-05T07:47:08.776Z</time></trkpt><trkpt lat="41.5286191" lon="1.603102"><ele>349.0</ele><time>2026-04-05T07:47:09.776Z</time></trkpt><trkpt lat="41.5286089" lon="1.6028799"><ele>349.0</ele><time>2026-04-05T07:47:10.776Z</time></trkpt><trkpt lat="41.528579" lon="1.6026268"><ele>349.0</ele><time>2026-04-05T07:47:11.776Z</time></trkpt><trkpt lat="41.5285463" lon="1.6023526"><ele>349.0</ele><time>2026-04-05T07:47:12.777Z</time></trkpt><trkpt lat="41.5285115" lon="1.6020621"><ele>351.5</ele><time>2026-04-05T07:47:13.777Z</time></trkpt><trkpt lat="41.5284746" lon="1.6017639"><ele>354.0</ele><time>2026-04-05T07:47:14.776Z</time></trkpt><trkpt lat="41.5284385" lon="1.6014359"><ele>354.0</ele><time>2026-04-05T07:47:15.777Z</time></trkpt><trkpt lat="41.5283995" lon="1.6010948"><ele>354.0</ele><time>2026-04-05T07:47:16.776Z</time></trkpt><trkpt lat="41.5283478" lon="1.6007393"><ele>354.0</ele><time>2026-04-05T07:47:17.777Z</time></trkpt><trkpt lat="41.5282922" lon="1.600386"><ele>354.0</ele><time>2026-04-05T07:47:18.776Z</time></trkpt><trkpt lat="41.5282356" lon="1.6000413"><ele>354.5</ele><time>2026-04-05T07:47:19.776Z</time></trkpt><trkpt lat="41.5281703" lon="1.599692"><ele>355.0</ele><time>2026-04-05T07:47:20.776Z</time></trkpt><trkpt lat="41.528102" lon="1.5993417"><ele>356.0</ele><time>2026-04-05T07:47:21.777Z</time></trkpt><trkpt lat="41.5280306" lon="1.5989969"><ele>357.0</ele><time>2026-04-05T07:47:22.776Z</time></trkpt><trkpt lat="41.5279622" lon="1.5986748"><ele>357.5</ele><time>2026-04-05T07:47:23.777Z</time></trkpt><trkpt lat="41.5278948" lon="1.5983696"><ele>358.0</ele><time>2026-04-05T07:47:24.776Z</time></trkpt><trkpt lat="41.52783" lon="1.598086"><ele>359.3333333333333</ele><time>2026-04-05T07:47:25.777Z</time></trkpt><trkpt lat="41.5277713" lon="1.5978184"><ele>360.6666666666667</ele><time>2026-04-05T07:47:26.777Z</time></trkpt><trkpt lat="41.5277237" lon="1.5975769"><ele>362.0</ele><time>2026-04-05T07:47:27.777Z</time></trkpt><trkpt lat="41.5276908" lon="1.597378"><ele>362.0</ele><time>2026-04-05T07:47:28.776Z</time></trkpt><trkpt lat="41.5276705" lon="1.5972029"><ele>362.0</ele><time>2026-04-05T07:47:29.777Z</time></trkpt><trkpt lat="41.5276865" lon="1.5970449"><ele>362.0</ele><time>2026-04-05T07:47:30.777Z</time></trkpt><trkpt lat="41.5277427" lon="1.5968899"><ele>362.0</ele><time>2026-04-05T07:47:31.777Z</time></trkpt><trkpt lat="41.5278399" lon="1.5967502"><ele>359.75</ele><time>2026-04-05T07:47:32.776Z</time></trkpt><trkpt lat="41.5279614" lon="1.5966355"><ele>357.5</ele><time>2026-04-05T07:47:33.776Z</time></trkpt><trkpt lat="41.528089" lon="1.5965632"><ele>355.25</ele><time>2026-04-05T07:47:34.777Z</time></trkpt><trkpt lat="41.5282112" lon="1.5965123"><ele>353.0</ele><time>2026-04-05T07:47:35.777Z</time></trkpt><trkpt lat="41.5283166" lon="1.5964574"><ele>353.0</ele><time>2026-04-05T07:47:36.776Z</time></trkpt><trkpt lat="41.5283974" lon="1.5963737"><ele>353.0</ele><time>2026-04-05T07:47:37.777Z</time></trkpt><trkpt lat="41.5284572" lon="1.5962523"><ele>353.0</ele><time>2026-04-05T07:47:38.776Z</time></trkpt><trkpt lat="41.5284906" lon="1.5960792"><ele>353.0</ele><time>2026-04-05T07:47:39.777Z</time></trkpt><trkpt lat="41.528512" lon="1.5958575"><ele>352.6666666666667</ele><time>2026-04-05T07:47:40.776Z</time></trkpt><trkpt lat="41.5285337" lon="1.5956228"><ele>352.3333333333333</ele><time>2026-04-05T07:47:41.776Z</time></trkpt><trkpt lat="41.5285653" lon="1.5953588"><ele>352.0</ele><time>2026-04-05T07:47:42.776Z</time></trkpt><trkpt lat="41.5285855" lon="1.5950809"><ele>352.66666666666663</ele><time>2026-04-05T07:47:43.776Z</time></trkpt><trkpt lat="41.5285728" lon="1.5947942"><ele>353.3333333333333</ele><time>2026-04-05T07:47:44.776Z</time></trkpt><trkpt lat="41.5285233" lon="1.5945156"><ele>354.0</ele><time>2026-04-05T07:47:45.777Z</time></trkpt><trkpt lat="41.5284474" lon="1.5942363"><ele>356.3333333333333</ele><time>2026-04-05T07:47:46.777Z</time></trkpt><trkpt lat="41.5283592" lon="1.5939691"><ele>358.66666666666663</ele><time>2026-04-05T07:47:47.777Z</time></trkpt><trkpt lat="41.528291" lon="1.593736"><ele>361.0</ele><time>2026-04-05T07:47:48.777Z</time></trkpt><trkpt lat="41.5282382" lon="1.5935325"><ele>363.0</ele><time>2026-04-05T07:47:49.776Z</time></trkpt><trkpt lat="41.5282093" lon="1.5933396"><ele>365.0</ele><time>2026-04-05T07:47:50.776Z</time></trkpt><trkpt lat="41.5282" lon="1.5931333"><ele>367.0</ele><time>2026-04-05T07:47:51.777Z</time></trkpt><trkpt lat="41.5282049" lon="1.5929175"><ele>366.66666666666663</ele><time>2026-04-05T07:47:52.776Z</time></trkpt><trkpt lat="41.5282164" lon="1.5926825"><ele>366.3333333333333</ele><time>2026-04-05T07:47:53.776Z</time></trkpt><trkpt lat="41.5282277" lon="1.5924163"><ele>366.0</ele><time>2026-04-05T07:47:54.777Z</time></trkpt><trkpt lat="41.528238" lon="1.592149"><ele>365.6666666666667</ele><time>2026-04-05T07:47:55.776Z</time></trkpt><trkpt lat="41.5282499" lon="1.5918805"><ele>365.33333333333337</ele><time>2026-04-05T07:47:56.777Z</time></trkpt><trkpt lat="41.528263" lon="1.5916087"><ele>365.0</ele><time>2026-04-05T07:47:57.777Z</time></trkpt><trkpt lat="41.5282726" lon="1.591336"><ele>363.6666666666667</ele><time>2026-04-05T07:47:58.776Z</time></trkpt><trkpt lat="41.5282835" lon="1.5910605"><ele>362.3333333333333</ele><time>2026-04-05T07:47:59.777Z</time></trkpt><trkpt lat="41.528295" lon="1.5907856"><ele>361.0</ele><time>2026-04-05T07:48:00.776Z</time></trkpt><trkpt lat="41.5283059" lon="1.5905189"><ele>359.66666666666663</ele><time>2026-04-05T07:48:01.777Z</time></trkpt><trkpt lat="41.528301" lon="1.5902601"><ele>358.3333333333333</ele><time>2026-04-05T07:48:02.776Z</time></trkpt><trkpt lat="41.5283021" lon="1.5900156"><ele>357.0</ele><time>2026-04-05T07:48:03.777Z</time></trkpt><trkpt lat="41.5283196" lon="1.589761"><ele>358.3333333333333</ele><time>2026-04-05T07:48:04.777Z</time></trkpt><trkpt lat="41.5283518" lon="1.5894925"><ele>359.66666666666663</ele><time>2026-04-05T07:48:05.776Z</time></trkpt><trkpt lat="41.5283855" lon="1.5892225"><ele>361.0</ele><time>2026-04-05T07:48:06.777Z</time></trkpt><trkpt lat="41.5284115" lon="1.588976"><ele>361.0</ele><time>2026-04-05T07:48:07.776Z</time></trkpt><trkpt lat="41.5284408" lon="1.5887603"><ele>361.0</ele><time>2026-04-05T07:48:08.776Z</time></trkpt><trkpt lat="41.5284621" lon="1.5885818"><ele>361.0</ele><time>2026-04-05T07:48:09.776Z</time></trkpt><trkpt lat="41.5284542" lon="1.588422"><ele>361.0</ele><time>2026-04-05T07:48:10.777Z</time></trkpt><trkpt lat="41.5284133" lon="1.5882831"><ele>361.75</ele><time>2026-04-05T07:48:11.776Z</time></trkpt><trkpt lat="41.5283311" lon="1.5881511"><ele>362.5</ele><time>2026-04-05T07:48:12.776Z</time></trkpt><trkpt lat="41.5282139" lon="1.5880183"><ele>363.25</ele><time>2026-04-05T07:48:13.777Z</time></trkpt><trkpt lat="41.5280898" lon="1.5878941"><ele>364.0</ele><time>2026-04-05T07:48:14.777Z</time></trkpt><trkpt lat="41.5279604" lon="1.5877624"><ele>365.0</ele><time>2026-04-05T07:48:15.777Z</time></trkpt><trkpt lat="41.5278429" lon="1.587644"><ele>366.0</ele><time>2026-04-05T07:48:16.776Z</time></trkpt><trkpt lat="41.5277355" lon="1.587539"><ele>367.0</ele><time>2026-04-05T07:48:17.777Z</time></trkpt><trkpt lat="41.527649" lon="1.5874409"><ele>368.0</ele><time>2026-04-05T07:48:18.777Z</time></trkpt><trkpt lat="41.5275779" lon="1.5873333"><ele>368.0</ele><time>2026-04-05T07:48:19.777Z</time></trkpt><trkpt lat="41.5275129" lon="1.5871877"><ele>368.0</ele><time>2026-04-05T07:48:20.777Z</time></trkpt><trkpt lat="41.5274584" lon="1.5870078"><ele>368.0</ele><time>2026-04-05T07:48:21.776Z</time></trkpt><trkpt lat="41.5274132" lon="1.5868149"><ele>368.0</ele><time>2026-04-05T07:48:22.776Z</time></trkpt><trkpt lat="41.5273697" lon="1.5866361"><ele>369.75</ele><time>2026-04-05T07:48:23.777Z</time></trkpt><trkpt lat="41.5273227" lon="1.5864591"><ele>371.5</ele><time>2026-04-05T07:48:24.776Z</time></trkpt><trkpt lat="41.5272949" lon="1.5862806"><ele>373.25</ele><time>2026-04-05T07:48:25.776Z</time></trkpt><trkpt lat="41.5272926" lon="1.5861261"><ele>375.0</ele><time>2026-04-05T07:48:26.776Z</time></trkpt><trkpt lat="41.5273234" lon="1.5859906"><ele>376.2</ele><time>2026-04-05T07:48:27.776Z</time></trkpt><trkpt lat="41.5273889" lon="1.5858775"><ele>377.4</ele><time>2026-04-05T07:48:28.777Z</time></trkpt><trkpt lat="41.5274611" lon="1.5857752"><ele>378.6</ele><time>2026-04-05T07:48:29.776Z</time></trkpt><trkpt lat="41.5275001" lon="1.5856523"><ele>379.8</ele><time>2026-04-05T07:48:30.776Z</time></trkpt><trkpt lat="41.5274963" lon="1.5855147"><ele>381.0</ele><time>2026-04-05T07:48:31.776Z</time></trkpt><trkpt lat="41.5274568" lon="1.5853815"><ele>381.8</ele><time>2026-04-05T07:48:32.776Z</time></trkpt><trkpt lat="41.5273845" lon="1.5852717"><ele>382.6</ele><time>2026-04-05T07:48:33.776Z</time></trkpt><trkpt lat="41.5273043" lon="1.5851796"><ele>383.4</ele><time>2026-04-05T07:48:34.776Z</time></trkpt><trkpt lat="41.5272514" lon="1.5850561"><ele>384.2</ele><time>2026-04-05T07:48:35.777Z</time></trkpt><trkpt lat="41.5272291" lon="1.5849115"><ele>385.0</ele><time>2026-04-05T07:48:36.777Z</time></trkpt><trkpt lat="41.5272393" lon="1.58474"><ele>385.0</ele><time>2026-04-05T07:48:37.776Z</time></trkpt><trkpt lat="41.5272532" lon="1.5845729"><ele>385.0</ele><time>2026-04-05T07:48:38.776Z</time></trkpt><trkpt lat="41.5272522" lon="1.5844189"><ele>385.0</ele><time>2026-04-05T07:48:39.776Z</time></trkpt><trkpt lat="41.5272312" lon="1.584283"><ele>385.0</ele><time>2026-04-05T07:48:40.777Z</time></trkpt><trkpt lat="41.5271758" lon="1.5841659"><ele>385.0</ele><time>2026-04-05T07:48:41.777Z</time></trkpt><trkpt lat="41.5270929" lon="1.5840862"><ele>385.5</ele><time>2026-04-05T07:48:42.776Z</time></trkpt><trkpt lat="41.5269755" lon="1.584035"><ele>386.0</ele><time>2026-04-05T07:48:43.776Z</time></trkpt><trkpt lat="41.5268462" lon="1.5840357"><ele>386.5</ele><time>2026-04-05T07:48:44.777Z</time></trkpt><trkpt lat="41.5267126" lon="1.5840448"><ele>387.0</ele><time>2026-04-05T07:48:45.776Z</time></trkpt><trkpt lat="41.5265923" lon="1.5840412"><ele>387.0</ele><time>2026-04-05T07:48:46.776Z</time></trkpt><trkpt lat="41.5264871" lon="1.584006"><ele>387.0</ele><time>2026-04-05T07:48:47.777Z</time></trkpt><trkpt lat="41.5263974" lon="1.5839336"><ele>387.0</ele><time>2026-04-05T07:48:48.776Z</time></trkpt><trkpt lat="41.526312" lon="1.5838187"><ele>387.0</ele><time>2026-04-05T07:48:49.776Z</time></trkpt><trkpt lat="41.5262364" lon="1.5836766"><ele>386.66666666666663</ele><time>2026-04-05T07:48:50.776Z</time></trkpt><trkpt lat="41.526185" lon="1.5835075"><ele>386.3333333333333</ele><time>2026-04-05T07:48:51.776Z</time></trkpt><trkpt lat="41.5261534" lon="1.5833069"><ele>386.0</ele><time>2026-04-05T07:48:52.776Z</time></trkpt><trkpt lat="41.5261344" lon="1.5830928"><ele>386.0</ele><time>2026-04-05T07:48:53.776Z</time></trkpt><trkpt lat="41.5261233" lon="1.5828787"><ele>386.0</ele><time>2026-04-05T07:48:54.777Z</time></trkpt><trkpt lat="41.5261046" lon="1.5826661"><ele>386.0</ele><time>2026-04-05T07:48:55.777Z</time></trkpt><trkpt lat="41.5260655" lon="1.5824684"><ele>387.75</ele><time>2026-04-05T07:48:56.777Z</time></trkpt><trkpt lat="41.5260114" lon="1.5822912"><ele>389.5</ele><time>2026-04-05T07:48:57.777Z</time></trkpt><trkpt lat="41.5259542" lon="1.5821377"><ele>391.25</ele><time>2026-04-05T07:48:58.776Z</time></trkpt><trkpt lat="41.5259226" lon="1.5819887"><ele>393.0</ele><time>2026-04-05T07:48:59.776Z</time></trkpt><trkpt lat="41.5259177" lon="1.5818141"><ele>395.75</ele><time>2026-04-05T07:49:00.777Z</time></trkpt><trkpt lat="41.5259528" lon="1.5816235"><ele>398.5</ele><time>2026-04-05T07:49:01.776Z</time></trkpt><trkpt lat="41.525999" lon="1.5814393"><ele>401.25</ele><time>2026-04-05T07:49:02.777Z</time></trkpt><trkpt lat="41.5260241" lon="1.5812619"><ele>404.0</ele><time>2026-04-05T07:49:03.776Z</time></trkpt><trkpt lat="41.5260116" lon="1.5810844"><ele>405.6</ele><time>2026-04-05T07:49:04.776Z</time></trkpt><trkpt lat="41.525974" lon="1.5809212"><ele>407.2</ele><time>2026-04-05T07:49:05.777Z</time></trkpt><trkpt lat="41.5259325" lon="1.5807912"><ele>408.8</ele><time>2026-04-05T07:49:06.776Z</time></trkpt><trkpt lat="41.5258696" lon="1.5806956"><ele>410.40000000000003</ele><time>2026-04-05T07:49:07.776Z</time></trkpt><trkpt lat="41.5257902" lon="1.5806462"><ele>412.0</ele><time>2026-04-05T07:49:08.777Z</time></trkpt><trkpt lat="41.5256752" lon="1.5806474"><ele>412.0</ele><time>2026-04-05T07:49:09.776Z</time></trkpt><trkpt lat="41.5255623" lon="1.5806598"><ele>412.0</ele><time>2026-04-05T07:49:10.777Z</time></trkpt><trkpt lat="41.5254372" lon="1.5807203"><ele>412.0</ele><time>2026-04-05T07:49:11.777Z</time></trkpt><trkpt lat="41.525329" lon="1.5807291"><ele>412.0</ele><time>2026-04-05T07:49:12.777Z</time></trkpt><trkpt lat="41.5252259" lon="1.5806914"><ele>412.0</ele><time>2026-04-05T07:49:13.776Z</time></trkpt><trkpt lat="41.5251458" lon="1.5806071"><ele>412.0</ele><time>2026-04-05T07:49:14.777Z</time></trkpt><trkpt lat="41.5250936" lon="1.5804854"><ele>412.0</ele><time>2026-04-05T07:49:15.776Z</time></trkpt><trkpt lat="41.5250756" lon="1.5803265"><ele>412.0</ele><time>2026-04-05T07:49:16.777Z</time></trkpt><trkpt lat="41.5250775" lon="1.5801329"><ele>412.0</ele><time>2026-04-05T07:49:17.776Z</time></trkpt><trkpt lat="41.5250846" lon="1.5799143"><ele>412.0</ele><time>2026-04-05T07:49:18.776Z</time></trkpt><trkpt lat="41.5250865" lon="1.5797149"><ele>412.0</ele><time>2026-04-05T07:49:19.776Z</time></trkpt><trkpt lat="41.525101" lon="1.5795305"><ele>412.6666666666667</ele><time>2026-04-05T07:49:20.777Z</time></trkpt><trkpt lat="41.5251473" lon="1.5793524"><ele>413.33333333333337</ele><time>2026-04-05T07:49:21.777Z</time></trkpt><trkpt lat="41.5252227" lon="1.5791723"><ele>414.0</ele><time>2026-04-05T07:49:22.776Z</time></trkpt><trkpt lat="41.5253062" lon="1.578998"><ele>419.0</ele><time>2026-04-05T07:49:23.776Z</time></trkpt><trkpt lat="41.5254073" lon="1.5788044"><ele>424.0</ele><time>2026-04-05T07:49:24.776Z</time></trkpt><trkpt lat="41.5255377" lon="1.5786073"><ele>429.0</ele><time>2026-04-05T07:49:25.777Z</time></trkpt><trkpt lat="41.525681" lon="1.578417"><ele>429.0</ele><time>2026-04-05T07:49:26.776Z</time></trkpt><trkpt lat="41.5258085" lon="1.5782401"><ele>429.0</ele><time>2026-04-05T07:49:27.776Z</time></trkpt><trkpt lat="41.5259074" lon="1.5781021"><ele>429.0</ele><time>2026-04-05T07:49:28.777Z</time></trkpt><trkpt lat="41.5259866" lon="1.5779665"><ele>429.0</ele><time>2026-04-05T07:49:29.776Z</time></trkpt><trkpt lat="41.5260276" lon="1.5778196"><ele>429.0</ele><time>2026-04-05T07:49:30.776Z</time></trkpt><trkpt lat="41.5260364" lon="1.577643"><ele>429.0</ele><time>2026-04-05T07:49:31.776Z</time></trkpt><trkpt lat="41.5260155" lon="1.5774367"><ele>429.0</ele><time>2026-04-05T07:49:32.776Z</time></trkpt><trkpt lat="41.5259785" lon="1.5772237"><ele>430.66666666666663</ele><time>2026-04-05T07:49:33.777Z</time></trkpt><trkpt lat="41.5259378" lon="1.5769833"><ele>432.3333333333333</ele><time>2026-04-05T07:49:34.776Z</time></trkpt><trkpt lat="41.5258878" lon="1.5767135"><ele>434.0</ele><time>2026-04-05T07:49:35.777Z</time></trkpt><trkpt lat="41.5258329" lon="1.576424"><ele>434.66666666666663</ele><time>2026-04-05T07:49:36.777Z</time></trkpt><trkpt lat="41.525775" lon="1.5761369"><ele>435.33333333333337</ele><time>2026-04-05T07:49:37.777Z</time></trkpt><trkpt lat="41.5257188" lon="1.5758455"><ele>436.0</ele><time>2026-04-05T07:49:38.776Z</time></trkpt><trkpt lat="41.5256679" lon="1.5755728"><ele>436.6666666666667</ele><time>2026-04-05T07:49:39.776Z</time></trkpt><trkpt lat="41.525621" lon="1.5753087"><ele>437.33333333333337</ele><time>2026-04-05T07:49:40.777Z</time></trkpt><trkpt lat="41.525574" lon="1.5750505"><ele>438.0</ele><time>2026-04-05T07:49:41.777Z</time></trkpt><trkpt lat="41.5255241" lon="1.5748101"><ele>438.0</ele><time>2026-04-05T07:49:42.776Z</time></trkpt><trkpt lat="41.5254595" lon="1.5745754"><ele>438.0</ele><time>2026-04-05T07:49:43.776Z</time></trkpt><trkpt lat="41.5253627" lon="1.5743378"><ele>438.0</ele><time>2026-04-05T07:49:44.777Z</time></trkpt><trkpt lat="41.5252517" lon="1.5741131"><ele>440.66666666666663</ele><time>2026-04-05T07:49:45.776Z</time></trkpt><trkpt lat="41.5251386" lon="1.5738993"><ele>443.3333333333333</ele><time>2026-04-05T07:49:46.776Z</time></trkpt><trkpt lat="41.5250281" lon="1.5736823"><ele>446.0</ele><time>2026-04-05T07:49:47.777Z</time></trkpt><trkpt lat="41.5249216" lon="1.5734794"><ele>447.3333333333333</ele><time>2026-04-05T07:49:48.777Z</time></trkpt><trkpt lat="41.5248179" lon="1.5732954"><ele>448.66666666666663</ele><time>2026-04-05T07:49:49.776Z</time></trkpt><trkpt lat="41.5247235" lon="1.5731213"><ele>450.0</ele><time>2026-04-05T07:49:50.776Z</time></trkpt><trkpt lat="41.5246421" lon="1.5729467"><ele>449.66666666666663</ele><time>2026-04-05T07:49:51.776Z</time></trkpt><trkpt lat="41.5245847" lon="1.572766"><ele>449.3333333333333</ele><time>2026-04-05T07:49:52.776Z</time></trkpt><trkpt lat="41.5245482" lon="1.5725627"><ele>449.0</ele><time>2026-04-05T07:49:53.777Z</time></trkpt><trkpt lat="41.5245344" lon="1.5723457"><ele>450.3333333333333</ele><time>2026-04-05T07:49:54.776Z</time></trkpt><trkpt lat="41.5245378" lon="1.5721031"><ele>451.66666666666663</ele><time>2026-04-05T07:49:55.777Z</time></trkpt><trkpt lat="41.524547" lon="1.5718516"><ele>453.0</ele><time>2026-04-05T07:49:56.776Z</time></trkpt><trkpt lat="41.5245672" lon="1.571603"><ele>450.33333333333337</ele><time>2026-04-05T07:49:57.776Z</time></trkpt><trkpt lat="41.524584" lon="1.5713561"><ele>447.6666666666667</ele><time>2026-04-05T07:49:58.776Z</time></trkpt><trkpt lat="41.5246035" lon="1.5711078"><ele>445.0</ele><time>2026-04-05T07:49:59.777Z</time></trkpt><trkpt lat="41.5246207" lon="1.5708664"><ele>445.0</ele><time>2026-04-05T07:50:00.776Z</time></trkpt><trkpt lat="41.5246349" lon="1.5706237"><ele>445.0</ele><time>2026-04-05T07:50:01.776Z</time></trkpt><trkpt lat="41.5246525" lon="1.5703686"><ele>445.0</ele><time>2026-04-05T07:50:02.777Z</time></trkpt><trkpt lat="41.5246728" lon="1.5701136"><ele>446.6666666666667</ele><time>2026-04-05T07:50:03.776Z</time></trkpt><trkpt lat="41.5246942" lon="1.5698529"><ele>448.33333333333337</ele><time>2026-04-05T07:50:04.777Z</time></trkpt><trkpt lat="41.5247116" lon="1.5696034"><ele>450.0</ele><time>2026-04-05T07:50:05.777Z</time></trkpt><trkpt lat="41.5247336" lon="1.5693494"><ele>450.66666666666663</ele><time>2026-04-05T07:50:06.776Z</time></trkpt><trkpt lat="41.5247537" lon="1.5691178"><ele>451.3333333333333</ele><time>2026-04-05T07:50:07.776Z</time></trkpt><trkpt lat="41.5247711" lon="1.5689289"><ele>452.0</ele><time>2026-04-05T07:50:08.776Z</time></trkpt><trkpt lat="41.5247929" lon="1.568718"><ele>451.66666666666663</ele><time>2026-04-05T07:50:09.776Z</time></trkpt><trkpt lat="41.5247816" lon="1.5685165"><ele>451.33333333333337</ele><time>2026-04-05T07:50:10.776Z</time></trkpt><trkpt lat="41.5247491" lon="1.5682969"><ele>451.0</ele><time>2026-04-05T07:50:11.777Z</time></trkpt><trkpt lat="41.524703" lon="1.5680683"><ele>451.33333333333337</ele><time>2026-04-05T07:50:12.777Z</time></trkpt><trkpt lat="41.524657" lon="1.5678342"><ele>451.66666666666663</ele><time>2026-04-05T07:50:13.776Z</time></trkpt><trkpt lat="41.524612" lon="1.5676073"><ele>452.0</ele><time>2026-04-05T07:50:14.777Z</time></trkpt><trkpt lat="41.5245703" lon="1.5673854"><ele>452.66666666666663</ele><time>2026-04-05T07:50:15.777Z</time></trkpt><trkpt lat="41.5245381" lon="1.5671704"><ele>453.33333333333337</ele><time>2026-04-05T07:50:16.777Z</time></trkpt><trkpt lat="41.5245161" lon="1.5669654"><ele>454.0</ele><time>2026-04-05T07:50:17.777Z</time></trkpt><trkpt lat="41.5245172" lon="1.5667515"><ele>454.33333333333337</ele><time>2026-04-05T07:50:18.777Z</time></trkpt><trkpt lat="41.5245377" lon="1.5665193"><ele>454.66666666666663</ele><time>2026-04-05T07:50:19.777Z</time></trkpt><trkpt lat="41.5245643" lon="1.5662751"><ele>455.0</ele><time>2026-04-05T07:50:20.776Z</time></trkpt><trkpt lat="41.5245905" lon="1.566024"><ele>456.66666666666663</ele><time>2026-04-05T07:50:21.777Z</time></trkpt><trkpt lat="41.5246177" lon="1.5657695"><ele>458.33333333333337</ele><time>2026-04-05T07:50:22.776Z</time></trkpt><trkpt lat="41.5246467" lon="1.5655056"><ele>460.0</ele><time>2026-04-05T07:50:23.777Z</time></trkpt><trkpt lat="41.5246779" lon="1.5652546"><ele>461.0</ele><time>2026-04-05T07:50:24.776Z</time></trkpt><trkpt lat="41.5247061" lon="1.5650214"><ele>462.0</ele><time>2026-04-05T07:50:25.776Z</time></trkpt><trkpt lat="41.5247323" lon="1.5648111"><ele>463.0</ele><time>2026-04-05T07:50:26.776Z</time></trkpt><trkpt lat="41.5247529" lon="1.5646098"><ele>463.75</ele><time>2026-04-05T07:50:27.776Z</time></trkpt><trkpt lat="41.5247705" lon="1.564417"><ele>464.5</ele><time>2026-04-05T07:50:28.776Z</time></trkpt><trkpt lat="41.5247797" lon="1.564217"><ele>465.25</ele><time>2026-04-05T07:50:29.776Z</time></trkpt><trkpt lat="41.5247783" lon="1.564013"><ele>466.0</ele><time>2026-04-05T07:50:30.777Z</time></trkpt><trkpt lat="41.5247694" lon="1.5637965"><ele>466.33333333333337</ele><time>2026-04-05T07:50:31.777Z</time></trkpt><trkpt lat="41.5247677" lon="1.5635619"><ele>466.66666666666663</ele><time>2026-04-05T07:50:32.777Z</time></trkpt><trkpt lat="41.5247771" lon="1.5633108"><ele>467.0</ele><time>2026-04-05T07:50:33.776Z</time></trkpt><trkpt lat="41.5247939" lon="1.563061"><ele>467.66666666666663</ele><time>2026-04-05T07:50:34.777Z</time></trkpt><trkpt lat="41.5248301" lon="1.5628325"><ele>468.33333333333337</ele><time>2026-04-05T07:50:35.776Z</time></trkpt><trkpt lat="41.524853" lon="1.562609"><ele>469.0</ele><time>2026-04-05T07:50:36.776Z</time></trkpt><trkpt lat="41.5248768" lon="1.5623862"><ele>469.0</ele><time>2026-04-05T07:50:37.776Z</time></trkpt><trkpt lat="41.5249004" lon="1.5621993"><ele>469.0</ele><time>2026-04-05T07:50:38.776Z</time></trkpt><trkpt lat="41.524923" lon="1.5620176"><ele>469.0</ele><time>2026-04-05T07:50:39.776Z</time></trkpt><trkpt lat="41.5249412" lon="1.5618416"><ele>469.0</ele><time>2026-04-05T07:50:40.777Z</time></trkpt><trkpt lat="41.5249616" lon="1.5616742"><ele>468.75</ele><time>2026-04-05T07:50:41.777Z</time></trkpt><trkpt lat="41.5249861" lon="1.5615113"><ele>468.5</ele><time>2026-04-05T07:50:42.776Z</time></trkpt><trkpt lat="41.5250045" lon="1.5613474"><ele>468.25</ele><time>2026-04-05T07:50:43.777Z</time></trkpt><trkpt lat="41.5250045" lon="1.5611938"><ele>468.0</ele><time>2026-04-05T07:50:44.777Z</time></trkpt><trkpt lat="41.5249864" lon="1.5610452"><ele>468.5</ele><time>2026-04-05T07:50:45.776Z</time></trkpt><trkpt lat="41.5249367" lon="1.560909"><ele>469.0</ele><time>2026-04-05T07:50:46.776Z</time></trkpt><trkpt lat="41.5248708" lon="1.5607592"><ele>469.5</ele><time>2026-04-05T07:50:47.776Z</time></trkpt><trkpt lat="41.5248025" lon="1.5605819"><ele>470.0</ele><time>2026-04-05T07:50:48.776Z</time></trkpt><trkpt lat="41.5247398" lon="1.5604004"><ele>470.0</ele><time>2026-04-05T07:50:49.777Z</time></trkpt><trkpt lat="41.5246734" lon="1.5601916"><ele>470.0</ele><time>2026-04-05T07:50:50.777Z</time></trkpt><trkpt lat="41.5246063" lon="1.5599753"><ele>470.0</ele><time>2026-04-05T07:50:51.777Z</time></trkpt><trkpt lat="41.5245448" lon="1.5597763"><ele>470.0</ele><time>2026-04-05T07:50:52.777Z</time></trkpt><trkpt lat="41.5244865" lon="1.5595969"><ele>470.0</ele><time>2026-04-05T07:50:53.777Z</time></trkpt><trkpt lat="41.5244335" lon="1.55942"><ele>470.0</ele><time>2026-04-05T07:50:54.776Z</time></trkpt><trkpt lat="41.5243781" lon="1.5592453"><ele>470.0</ele><time>2026-04-05T07:50:55.776Z</time></trkpt><trkpt lat="41.5243209" lon="1.5590701"><ele>470.75</ele><time>2026-04-05T07:50:56.777Z</time></trkpt><trkpt lat="41.5242618" lon="1.5588963"><ele>471.5</ele><time>2026-04-05T07:50:57.776Z</time></trkpt><trkpt lat="41.5242085" lon="1.5587247"><ele>472.25</ele><time>2026-04-05T07:50:58.776Z</time></trkpt><trkpt lat="41.5241605" lon="1.5585482"><ele>473.0</ele><time>2026-04-05T07:50:59.777Z</time></trkpt><trkpt lat="41.5241219" lon="1.558365"><ele>473.75</ele><time>2026-04-05T07:51:00.776Z</time></trkpt><trkpt lat="41.5240799" lon="1.5581791"><ele>474.5</ele><time>2026-04-05T07:51:01.777Z</time></trkpt><trkpt lat="41.5240381" lon="1.5579968"><ele>475.25</ele><time>2026-04-05T07:51:02.776Z</time></trkpt><trkpt lat="41.5240009" lon="1.5578168"><ele>476.0</ele><time>2026-04-05T07:51:03.777Z</time></trkpt><trkpt lat="41.5239732" lon="1.5576349"><ele>477.5</ele><time>2026-04-05T07:51:04.776Z</time></trkpt><trkpt lat="41.5239489" lon="1.5574636"><ele>479.0</ele><time>2026-04-05T07:51:05.777Z</time></trkpt><trkpt lat="41.5239264" lon="1.5573038"><ele>480.5</ele><time>2026-04-05T07:51:06.777Z</time></trkpt><trkpt lat="41.5238981" lon="1.5571464"><ele>482.0</ele><time>2026-04-05T07:51:07.776Z</time></trkpt><trkpt lat="41.5238723" lon="1.5569945"><ele>482.25</ele><time>2026-04-05T07:51:08.777Z</time></trkpt><trkpt lat="41.5238379" lon="1.5568451"><ele>482.5</ele><time>2026-04-05T07:51:09.777Z</time></trkpt><trkpt lat="41.5238055" lon="1.5567025"><ele>482.75</ele><time>2026-04-05T07:51:10.777Z</time></trkpt><trkpt lat="41.5237694" lon="1.5565582"><ele>483.0</ele><time>2026-04-05T07:51:11.776Z</time></trkpt><trkpt lat="41.5237349" lon="1.5564169"><ele>482.59999999999997</ele><time>2026-04-05T07:51:12.776Z</time></trkpt><trkpt lat="41.5236967" lon="1.5562917"><ele>482.19999999999993</ele><time>2026-04-05T07:51:13.776Z</time></trkpt><trkpt lat="41.5236492" lon="1.556192"><ele>481.8</ele><time>2026-04-05T07:51:14.777Z</time></trkpt><trkpt lat="41.5235865" lon="1.5561007"><ele>481.4</ele><time>2026-04-05T07:51:15.777Z</time></trkpt><trkpt lat="41.5235219" lon="1.5559915"><ele>481.0</ele><time>2026-04-05T07:51:16.777Z</time></trkpt><trkpt lat="41.5234701" lon="1.5558584"><ele>482.5</ele><time>2026-04-05T07:51:17.777Z</time></trkpt><trkpt lat="41.5234344" lon="1.5557004"><ele>484.0</ele><time>2026-04-05T07:51:18.777Z</time></trkpt><trkpt lat="41.52342" lon="1.5555139"><ele>485.5</ele><time>2026-04-05T07:51:19.777Z</time></trkpt><trkpt lat="41.5234155" lon="1.5553106"><ele>487.0</ele><time>2026-04-05T07:51:20.776Z</time></trkpt><trkpt lat="41.5234067" lon="1.5551096"><ele>488.0</ele><time>2026-04-05T07:51:21.776Z</time></trkpt><trkpt lat="41.5233783" lon="1.5549006"><ele>489.0</ele><time>2026-04-05T07:51:22.776Z</time></trkpt><trkpt lat="41.5233338" lon="1.5546916"><ele>490.0</ele><time>2026-04-05T07:51:23.777Z</time></trkpt><trkpt lat="41.5232797" lon="1.5544893"><ele>490.6666666666667</ele><time>2026-04-05T07:51:24.776Z</time></trkpt><trkpt lat="41.5232263" lon="1.5542921"><ele>491.33333333333337</ele><time>2026-04-05T07:51:25.777Z</time></trkpt><trkpt lat="41.5231706" lon="1.5540934"><ele>492.0</ele><time>2026-04-05T07:51:26.776Z</time></trkpt><trkpt lat="41.5231178" lon="1.5539076"><ele>492.0</ele><time>2026-04-05T07:51:27.777Z</time></trkpt><trkpt lat="41.5230661" lon="1.5537213"><ele>492.0</ele><time>2026-04-05T07:51:28.776Z</time></trkpt><trkpt lat="41.5230157" lon="1.5535335"><ele>492.0</ele><time>2026-04-05T07:51:29.776Z</time></trkpt><trkpt lat="41.5229654" lon="1.5533496"><ele>492.0</ele><time>2026-04-05T07:51:30.776Z</time></trkpt><trkpt lat="41.522913" lon="1.5531665"><ele>493.66666666666663</ele><time>2026-04-05T07:51:31.776Z</time></trkpt><trkpt lat="41.5228609" lon="1.5529838"><ele>495.3333333333333</ele><time>2026-04-05T07:51:32.776Z</time></trkpt><trkpt lat="41.5228081" lon="1.5528"><ele>497.0</ele><time>2026-04-05T07:51:33.777Z</time></trkpt><trkpt lat="41.5227566" lon="1.5526001"><ele>498.3333333333333</ele><time>2026-04-05T07:51:34.777Z</time></trkpt><trkpt lat="41.5227173" lon="1.5523997"><ele>499.66666666666663</ele><time>2026-04-05T07:51:35.777Z</time></trkpt><trkpt lat="41.5226955" lon="1.5521875"><ele>501.0</ele><time>2026-04-05T07:51:36.776Z</time></trkpt><trkpt lat="41.5226772" lon="1.5519731"><ele>502.33333333333337</ele><time>2026-04-05T07:51:37.777Z</time></trkpt><trkpt lat="41.5226553" lon="1.5517612"><ele>503.6666666666667</ele><time>2026-04-05T07:51:38.776Z</time></trkpt><trkpt lat="41.5226311" lon="1.5515567"><ele>505.0</ele><time>2026-04-05T07:51:39.777Z</time></trkpt><trkpt lat="41.5226079" lon="1.551368"><ele>505.5</ele><time>2026-04-05T07:51:40.777Z</time></trkpt><trkpt lat="41.5225882" lon="1.5511863"><ele>506.0</ele><time>2026-04-05T07:51:41.777Z</time></trkpt><trkpt lat="41.5225722" lon="1.5510149"><ele>506.5</ele><time>2026-04-05T07:51:42.777Z</time></trkpt><trkpt lat="41.5225606" lon="1.550838"><ele>507.0</ele><time>2026-04-05T07:51:43.776Z</time></trkpt><trkpt lat="41.522562" lon="1.5506475"><ele>507.0</ele><time>2026-04-05T07:51:44.777Z</time></trkpt><trkpt lat="41.5225787" lon="1.5504533"><ele>507.0</ele><time>2026-04-05T07:51:45.777Z</time></trkpt><trkpt lat="41.5226085" lon="1.5502566"><ele>507.0</ele><time>2026-04-05T07:51:46.776Z</time></trkpt><trkpt lat="41.5226359" lon="1.5500725"><ele>507.0</ele><time>2026-04-05T07:51:47.777Z</time></trkpt><trkpt lat="41.5226555" lon="1.5498957"><ele>506.75</ele><time>2026-04-05T07:51:48.776Z</time></trkpt><trkpt lat="41.5226514" lon="1.549725"><ele>506.5</ele><time>2026-04-05T07:51:49.777Z</time></trkpt><trkpt lat="41.522622" lon="1.549545"><ele>506.25</ele><time>2026-04-05T07:51:50.777Z</time></trkpt><trkpt lat="41.5225557" lon="1.5493529"><ele>506.0</ele><time>2026-04-05T07:51:51.776Z</time></trkpt><trkpt lat="41.5224778" lon="1.549153"><ele>507.0</ele><time>2026-04-05T07:51:52.777Z</time></trkpt><trkpt lat="41.5224014" lon="1.5489598"><ele>508.0</ele><time>2026-04-05T07:51:53.776Z</time></trkpt><trkpt lat="41.5223336" lon="1.5487817"><ele>509.0</ele><time>2026-04-05T07:51:54.777Z</time></trkpt><trkpt lat="41.5222719" lon="1.5486174"><ele>510.4</ele><time>2026-04-05T07:51:55.776Z</time></trkpt><trkpt lat="41.5222202" lon="1.5484752"><ele>511.79999999999995</ele><time>2026-04-05T07:51:56.777Z</time></trkpt><trkpt lat="41.5221868" lon="1.5483436"><ele>513.2</ele><time>2026-04-05T07:51:57.777Z</time></trkpt><trkpt lat="41.5221789" lon="1.5482028"><ele>514.6</ele><time>2026-04-05T07:51:58.776Z</time></trkpt><trkpt lat="41.5222066" lon="1.5480476"><ele>516.0</ele><time>2026-04-05T07:51:59.776Z</time></trkpt><trkpt lat="41.5222623" lon="1.5479016"><ele>515.75</ele><time>2026-04-05T07:52:00.777Z</time></trkpt><trkpt lat="41.5223323" lon="1.5477632"><ele>515.5</ele><time>2026-04-05T07:52:01.777Z</time></trkpt><trkpt lat="41.5224002" lon="1.5476194"><ele>515.25</ele><time>2026-04-05T07:52:02.777Z</time></trkpt><trkpt lat="41.5224684" lon="1.5474618"><ele>515.0</ele><time>2026-04-05T07:52:03.776Z</time></trkpt><trkpt lat="41.5225405" lon="1.5473007"><ele>515.0</ele><time>2026-04-05T07:52:04.777Z</time></trkpt><trkpt lat="41.5226139" lon="1.5471439"><ele>515.0</ele><time>2026-04-05T07:52:05.776Z</time></trkpt><trkpt lat="41.5226963" lon="1.5469929"><ele>515.0</ele><time>2026-04-05T07:52:06.777Z</time></trkpt><trkpt lat="41.5227801" lon="1.5468501"><ele>515.0</ele><time>2026-04-05T07:52:07.776Z</time></trkpt><trkpt lat="41.5228532" lon="1.5467132"><ele>517.75</ele><time>2026-04-05T07:52:08.776Z</time></trkpt><trkpt lat="41.522913" lon="1.5465635"><ele>520.5</ele><time>2026-04-05T07:52:09.777Z</time></trkpt><trkpt lat="41.5229565" lon="1.5463985"><ele>523.25</ele><time>2026-04-05T07:52:10.777Z</time></trkpt><trkpt lat="41.5229788" lon="1.5462043"><ele>526.0</ele><time>2026-04-05T07:52:11.777Z</time></trkpt><trkpt lat="41.5229725" lon="1.5459963"><ele>526.0</ele><time>2026-04-05T07:52:12.776Z</time></trkpt><trkpt lat="41.5229485" lon="1.5457929"><ele>526.0</ele><time>2026-04-05T07:52:13.776Z</time></trkpt><trkpt lat="41.5229188" lon="1.5455998"><ele>526.0</ele><time>2026-04-05T07:52:14.776Z</time></trkpt><trkpt lat="41.5228927" lon="1.5454065"><ele>526.0</ele><time>2026-04-05T07:52:15.776Z</time></trkpt><trkpt lat="41.5228633" lon="1.545213"><ele>522.6666666666667</ele><time>2026-04-05T07:52:16.776Z</time></trkpt><trkpt lat="41.5228312" lon="1.5450013"><ele>519.3333333333334</ele><time>2026-04-05T07:52:17.776Z</time></trkpt><trkpt lat="41.5227904" lon="1.5447624"><ele>516.0</ele><time>2026-04-05T07:52:18.777Z</time></trkpt><trkpt lat="41.5227582" lon="1.5445255"><ele>516.0</ele><time>2026-04-05T07:52:19.777Z</time></trkpt><trkpt lat="41.5227333" lon="1.5443017"><ele>516.0</ele><time>2026-04-05T07:52:20.777Z</time></trkpt><trkpt lat="41.5227126" lon="1.5440814"><ele>516.0</ele><time>2026-04-05T07:52:21.776Z</time></trkpt><trkpt lat="41.5226894" lon="1.5438619"><ele>516.6666666666666</ele><time>2026-04-05T07:52:22.777Z</time></trkpt><trkpt lat="41.5226626" lon="1.5436487"><ele>517.3333333333333</ele><time>2026-04-05T07:52:23.777Z</time></trkpt><trkpt lat="41.5226359" lon="1.5434414"><ele>518.0</ele><time>2026-04-05T07:52:24.776Z</time></trkpt><trkpt lat="41.522613" lon="1.5432412"><ele>518.0</ele><time>2026-04-05T07:52:25.776Z</time></trkpt><trkpt lat="41.522591" lon="1.5430446"><ele>518.0</ele><time>2026-04-05T07:52:26.776Z</time></trkpt><trkpt lat="41.5225717" lon="1.5428435"><ele>518.0</ele><time>2026-04-05T07:52:27.777Z</time></trkpt><trkpt lat="41.5225522" lon="1.5426841"><ele>518.0</ele><time>2026-04-05T07:52:28.777Z</time></trkpt><trkpt lat="41.5225495" lon="1.5425234"><ele>518.0</ele><time>2026-04-05T07:52:29.776Z</time></trkpt><trkpt lat="41.5225675" lon="1.5423538"><ele>518.0</ele><time>2026-04-05T07:52:30.776Z</time></trkpt><trkpt lat="41.5226251" lon="1.5422036"><ele>518.0</ele><time>2026-04-05T07:52:31.776Z</time></trkpt><trkpt lat="41.5227071" lon="1.5420638"><ele>518.0</ele><time>2026-04-05T07:52:32.777Z</time></trkpt><trkpt lat="41.522807" lon="1.5419377"><ele>520.25</ele><time>2026-04-05T07:52:33.777Z</time></trkpt><trkpt lat="41.5229058" lon="1.5418231"><ele>522.5</ele><time>2026-04-05T07:52:34.776Z</time></trkpt><trkpt lat="41.5229999" lon="1.5417103"><ele>524.75</ele><time>2026-04-05T07:52:35.776Z</time></trkpt><trkpt lat="41.5230883" lon="1.5415935"><ele>527.0</ele><time>2026-04-05T07:52:36.776Z</time></trkpt><trkpt lat="41.5231659" lon="1.5414794"><ele>527.0</ele><time>2026-04-05T07:52:37.777Z</time></trkpt><trkpt lat="41.5232292" lon="1.5413418"><ele>527.0</ele><time>2026-04-05T07:52:38.776Z</time></trkpt><trkpt lat="41.5232665" lon="1.5411678"><ele>527.0</ele><time>2026-04-05T07:52:39.777Z</time></trkpt><trkpt lat="41.5232871" lon="1.5409792"><ele>527.0</ele><time>2026-04-05T07:52:40.777Z</time></trkpt><trkpt lat="41.5232934" lon="1.5407905"><ele>527.25</ele><time>2026-04-05T07:52:41.777Z</time></trkpt><trkpt lat="41.5232996" lon="1.5406086"><ele>527.5</ele><time>2026-04-05T07:52:42.777Z</time></trkpt><trkpt lat="41.5233088" lon="1.5404131"><ele>527.75</ele><time>2026-04-05T07:52:43.777Z</time></trkpt><trkpt lat="41.5233202" lon="1.5402139"><ele>528.0</ele><time>2026-04-05T07:52:44.777Z</time></trkpt><trkpt lat="41.5233332" lon="1.5400028"><ele>527.3333333333334</ele><time>2026-04-05T07:52:45.776Z</time></trkpt><trkpt lat="41.5233449" lon="1.5397863"><ele>526.6666666666667</ele><time>2026-04-05T07:52:46.777Z</time></trkpt><trkpt lat="41.523354" lon="1.5395758"><ele>526.0</ele><time>2026-04-05T07:52:47.776Z</time></trkpt><trkpt lat="41.5233454" lon="1.5393665"><ele>525.6666666666667</ele><time>2026-04-05T07:52:48.777Z</time></trkpt><trkpt lat="41.5233219" lon="1.5391625"><ele>525.3333333333334</ele><time>2026-04-05T07:52:49.776Z</time></trkpt><trkpt lat="41.523283" lon="1.5389567"><ele>525.0</ele><time>2026-04-05T07:52:50.777Z</time></trkpt><trkpt lat="41.523241" lon="1.5387574"><ele>525.5</ele><time>2026-04-05T07:52:51.777Z</time></trkpt><trkpt lat="41.523204" lon="1.5385678"><ele>526.0</ele><time>2026-04-05T07:52:52.777Z</time></trkpt><trkpt lat="41.5231691" lon="1.5383766"><ele>526.5</ele><time>2026-04-05T07:52:53.776Z</time></trkpt><trkpt lat="41.5231362" lon="1.5381894"><ele>527.0</ele><time>2026-04-05T07:52:54.777Z</time></trkpt><trkpt lat="41.5231082" lon="1.5380127"><ele>527.75</ele><time>2026-04-05T07:52:55.776Z</time></trkpt><trkpt lat="41.5230838" lon="1.5378535"><ele>528.5</ele><time>2026-04-05T07:52:56.776Z</time></trkpt><trkpt lat="41.5230837" lon="1.5376822"><ele>529.25</ele><time>2026-04-05T07:52:57.777Z</time></trkpt><trkpt lat="41.5231173" lon="1.5375069"><ele>530.0</ele><time>2026-04-05T07:52:58.777Z</time></trkpt><trkpt lat="41.5231768" lon="1.5373334"><ele>530.0</ele><time>2026-04-05T07:52:59.777Z</time></trkpt><trkpt lat="41.5232486" lon="1.5371638"><ele>530.0</ele><time>2026-04-05T07:53:00.776Z</time></trkpt><trkpt lat="41.5233297" lon="1.5369798"><ele>530.0</ele><time>2026-04-05T07:53:01.776Z</time></trkpt><trkpt lat="41.5234164" lon="1.5367613"><ele>529.6666666666666</ele><time>2026-04-05T07:53:02.776Z</time></trkpt><trkpt lat="41.5235087" lon="1.5365116"><ele>529.3333333333334</ele><time>2026-04-05T07:53:03.776Z</time></trkpt><trkpt lat="41.523615" lon="1.5362598"><ele>529.0</ele><time>2026-04-05T07:53:04.776Z</time></trkpt><trkpt lat="41.5237316" lon="1.5360105"><ele>533.0</ele><time>2026-04-05T07:53:05.776Z</time></trkpt><trkpt lat="41.5238538" lon="1.5357635"><ele>537.0</ele><time>2026-04-05T07:53:06.777Z</time></trkpt><trkpt lat="41.5239653" lon="1.5355306"><ele>541.0</ele><time>2026-04-05T07:53:07.776Z</time></trkpt><trkpt lat="41.5240664" lon="1.5353054"><ele>541.0</ele><time>2026-04-05T07:53:08.776Z</time></trkpt><trkpt lat="41.5241627" lon="1.5350892"><ele>541.0</ele><time>2026-04-05T07:53:09.777Z</time></trkpt><trkpt lat="41.5242486" lon="1.5348884"><ele>541.0</ele><time>2026-04-05T07:53:10.777Z</time></trkpt><trkpt lat="41.5243276" lon="1.5347136"><ele>541.0</ele><time>2026-04-05T07:53:11.777Z</time></trkpt><trkpt lat="41.5244028" lon="1.534558"><ele>541.0</ele><time>2026-04-05T07:53:12.777Z</time></trkpt><trkpt lat="41.5244562" lon="1.5344279"><ele>541.0</ele><time>2026-04-05T07:53:13.777Z</time></trkpt><trkpt lat="41.5244843" lon="1.5342945"><ele>541.0</ele><time>2026-04-05T07:53:14.776Z</time></trkpt><trkpt lat="41.5244719" lon="1.5341598"><ele>540.8</ele><time>2026-04-05T07:53:15.777Z</time></trkpt><trkpt lat="41.524428" lon="1.5340335"><ele>540.6</ele><time>2026-04-05T07:53:16.776Z</time></trkpt><trkpt lat="41.5243501" lon="1.5339247"><ele>540.4</ele><time>2026-04-05T07:53:17.776Z</time></trkpt><trkpt lat="41.5242748" lon="1.5338198"><ele>540.2</ele><time>2026-04-05T07:53:18.776Z</time></trkpt><trkpt lat="41.5241746" lon="1.5337546"><ele>540.0</ele><time>2026-04-05T07:53:19.776Z</time></trkpt><trkpt lat="41.5240564" lon="1.5337026"><ele>539.5</ele><time>2026-04-05T07:53:20.777Z</time></trkpt><trkpt lat="41.5239286" lon="1.5337377"><ele>539.0</ele><time>2026-04-05T07:53:21.776Z</time></trkpt><trkpt lat="41.5238021" lon="1.5337747"><ele>538.5</ele><time>2026-04-05T07:53:22.777Z</time></trkpt><trkpt lat="41.5236761" lon="1.5338676"><ele>538.0</ele><time>2026-04-05T07:53:23.776Z</time></trkpt><trkpt lat="41.5235577" lon="1.5339716"><ele>538.0</ele><time>2026-04-05T07:53:24.776Z</time></trkpt><trkpt lat="41.523449" lon="1.5340776"><ele>538.0</ele><time>2026-04-05T07:53:25.777Z</time></trkpt><trkpt lat="41.5233327" lon="1.5341756"><ele>538.0</ele><time>2026-04-05T07:53:26.776Z</time></trkpt><trkpt lat="41.523224" lon="1.5342681"><ele>538.0</ele><time>2026-04-05T07:53:27.777Z</time></trkpt><trkpt lat="41.5231091" lon="1.5343329"><ele>538.0</ele><time>2026-04-05T07:53:28.776Z</time></trkpt><trkpt lat="41.5229936" lon="1.5343357"><ele>538.0</ele><time>2026-04-05T07:53:29.776Z</time></trkpt><trkpt lat="41.5228944" lon="1.5342802"><ele>538.0</ele><time>2026-04-05T07:53:30.777Z</time></trkpt><trkpt lat="41.5228044" lon="1.5341803"><ele>538.0</ele><time>2026-04-05T07:53:31.776Z</time></trkpt><trkpt lat="41.5227261" lon="1.5340256"><ele>538.6666666666667</ele><time>2026-04-05T07:53:32.777Z</time></trkpt><trkpt lat="41.5226764" lon="1.5338459"><ele>539.3333333333334</ele><time>2026-04-05T07:53:33.776Z</time></trkpt><trkpt lat="41.5226449" lon="1.5336422"><ele>540.0</ele><time>2026-04-05T07:53:34.776Z</time></trkpt><trkpt lat="41.5226129" lon="1.5334083"><ele>540.0</ele><time>2026-04-05T07:53:35.776Z</time></trkpt><trkpt lat="41.5225815" lon="1.5331501"><ele>540.0</ele><time>2026-04-05T07:53:36.776Z</time></trkpt><trkpt lat="41.5225454" lon="1.5328675"><ele>540.0</ele><time>2026-04-05T07:53:37.776Z</time></trkpt><trkpt lat="41.5225091" lon="1.5325939"><ele>542.0</ele><time>2026-04-05T07:53:38.776Z</time></trkpt><trkpt lat="41.5224732" lon="1.5323386"><ele>544.0</ele><time>2026-04-05T07:53:39.776Z</time></trkpt><trkpt lat="41.5224484" lon="1.5320985"><ele>546.0</ele><time>2026-04-05T07:53:40.776Z</time></trkpt><trkpt lat="41.5224415" lon="1.5318788"><ele>546.6666666666666</ele><time>2026-04-05T07:53:41.776Z</time></trkpt><trkpt lat="41.5224623" lon="1.5316788"><ele>547.3333333333333</ele><time>2026-04-05T07:53:42.777Z</time></trkpt><trkpt lat="41.522496" lon="1.5314841"><ele>548.0</ele><time>2026-04-05T07:53:43.776Z</time></trkpt><trkpt lat="41.5225359" lon="1.5312791"><ele>548.6666666666666</ele><time>2026-04-05T07:53:44.776Z</time></trkpt><trkpt lat="41.5225805" lon="1.5310722"><ele>549.3333333333334</ele><time>2026-04-05T07:53:45.776Z</time></trkpt><trkpt lat="41.5226187" lon="1.530874"><ele>550.0</ele><time>2026-04-05T07:53:46.776Z</time></trkpt><trkpt lat="41.5226483" lon="1.5306923"><ele>550.0</ele><time>2026-04-05T07:53:47.777Z</time></trkpt><trkpt lat="41.5226674" lon="1.5305312"><ele>550.0</ele><time>2026-04-05T07:53:48.777Z</time></trkpt><trkpt lat="41.5226786" lon="1.5303851"><ele>550.0</ele><time>2026-04-05T07:53:49.776Z</time></trkpt><trkpt lat="41.5226799" lon="1.5302519"><ele>550.0</ele><time>2026-04-05T07:53:50.776Z</time></trkpt><trkpt lat="41.522677" lon="1.5301272"><ele>550.0</ele><time>2026-04-05T07:53:51.777Z</time></trkpt><trkpt lat="41.5226747" lon="1.5300207"><ele>550.3333333333334</ele><time>2026-04-05T07:53:52.777Z</time></trkpt><trkpt lat="41.5226761" lon="1.5299343"><ele>550.6666666666667</ele><time>2026-04-05T07:53:53.777Z</time></trkpt><trkpt lat="41.5226944" lon="1.5298159"><ele>551.0</ele><time>2026-04-05T07:53:55.777Z</time></trkpt><trkpt lat="41.5226998" lon="1.5296721"><ele>551.3333333333334</ele><time>2026-04-05T07:53:58.776Z</time></trkpt><trkpt lat="41.5226619" lon="1.529584"><ele>551.6666666666666</ele><time>2026-04-05T07:53:59.777Z</time></trkpt><trkpt lat="41.522594" lon="1.52949"><ele>552.0</ele><time>2026-04-05T07:54:00.777Z</time></trkpt><trkpt lat="41.5225083" lon="1.5294058"><ele>553.3333333333334</ele><time>2026-04-05T07:54:01.776Z</time></trkpt><trkpt lat="41.5223915" lon="1.5293188"><ele>554.6666666666667</ele><time>2026-04-05T07:54:02.777Z</time></trkpt><trkpt lat="41.5222503" lon="1.5292249"><ele>556.0</ele><time>2026-04-05T07:54:03.776Z</time></trkpt><trkpt lat="41.522111" lon="1.529118"><ele>553.6666666666667</ele><time>2026-04-05T07:54:04.776Z</time></trkpt><trkpt lat="41.5219411" lon="1.5289974"><ele>551.3333333333334</ele><time>2026-04-05T07:54:05.776Z</time></trkpt><trkpt lat="41.5217811" lon="1.5288755"><ele>549.0</ele><time>2026-04-05T07:54:06.777Z</time></trkpt><trkpt lat="41.5215761" lon="1.5287327"><ele>550.3333333333334</ele><time>2026-04-05T07:54:07.777Z</time></trkpt><trkpt lat="41.5213862" lon="1.5285954"><ele>551.6666666666667</ele><time>2026-04-05T07:54:08.777Z</time></trkpt><trkpt lat="41.521189" lon="1.5284509"><ele>553.0</ele><time>2026-04-05T07:54:09.777Z</time></trkpt><trkpt lat="41.520984" lon="1.5283006"><ele>553.0</ele><time>2026-04-05T07:54:10.777Z</time></trkpt><trkpt lat="41.5207817" lon="1.5281561"><ele>553.0</ele><time>2026-04-05T07:54:11.776Z</time></trkpt><trkpt lat="41.5205918" lon="1.5280204"><ele>553.0</ele><time>2026-04-05T07:54:12.776Z</time></trkpt><trkpt lat="41.5204196" lon="1.5278881"><ele>554.0</ele><time>2026-04-05T07:54:13.777Z</time></trkpt><trkpt lat="41.5202755" lon="1.5277477"><ele>555.0</ele><time>2026-04-05T07:54:14.777Z</time></trkpt><trkpt lat="41.5201503" lon="1.5275733"><ele>556.0</ele><time>2026-04-05T07:54:15.776Z</time></trkpt><trkpt lat="41.5200527" lon="1.5273758"><ele>556.0</ele><time>2026-04-05T07:54:16.776Z</time></trkpt><trkpt lat="41.5199818" lon="1.5271564"><ele>556.0</ele><time>2026-04-05T07:54:17.777Z</time></trkpt><trkpt lat="41.5199227" lon="1.5269099"><ele>556.0</ele><time>2026-04-05T07:54:18.777Z</time></trkpt><trkpt lat="41.5198588" lon="1.5266505"><ele>557.0</ele><time>2026-04-05T07:54:19.777Z</time></trkpt><trkpt lat="41.5197976" lon="1.5263786"><ele>558.0</ele><time>2026-04-05T07:54:20.776Z</time></trkpt><trkpt lat="41.519737" lon="1.5261147"><ele>559.0</ele><time>2026-04-05T07:54:21.777Z</time></trkpt><trkpt lat="41.5196797" lon="1.5258654"><ele>560.0</ele><time>2026-04-05T07:54:22.776Z</time></trkpt><trkpt lat="41.5196288" lon="1.525637"><ele>561.0</ele><time>2026-04-05T07:54:23.777Z</time></trkpt><trkpt lat="41.5195815" lon="1.5254351"><ele>562.0</ele><time>2026-04-05T07:54:24.777Z</time></trkpt><trkpt lat="41.5195382" lon="1.525241"><ele>559.75</ele><time>2026-04-05T07:54:25.776Z</time></trkpt><trkpt lat="41.519501" lon="1.5250647"><ele>557.5</ele><time>2026-04-05T07:54:26.777Z</time></trkpt><trkpt lat="41.5194589" lon="1.5249128"><ele>555.25</ele><time>2026-04-05T07:54:27.777Z</time></trkpt><trkpt lat="41.5193996" lon="1.5247788"><ele>553.0</ele><time>2026-04-05T07:54:28.777Z</time></trkpt><trkpt lat="41.5193094" lon="1.5246729"><ele>553.0</ele><time>2026-04-05T07:54:29.777Z</time></trkpt><trkpt lat="41.5191933" lon="1.5246078"><ele>553.0</ele><time>2026-04-05T07:54:30.777Z</time></trkpt><trkpt lat="41.519059" lon="1.5245938"><ele>553.0</ele><time>2026-04-05T07:54:31.777Z</time></trkpt><trkpt lat="41.5189075" lon="1.5246157"><ele>553.0</ele><time>2026-04-05T07:54:32.777Z</time></trkpt><trkpt lat="41.518752" lon="1.5246482"><ele>553.6666666666667</ele><time>2026-04-05T07:54:33.776Z</time></trkpt><trkpt lat="41.5185824" lon="1.5246753"><ele>554.3333333333334</ele><time>2026-04-05T07:54:34.777Z</time></trkpt><trkpt lat="41.5184022" lon="1.5246988"><ele>555.0</ele><time>2026-04-05T07:54:35.777Z</time></trkpt><trkpt lat="41.5182347" lon="1.5247375"><ele>555.0</ele><time>2026-04-05T07:54:36.776Z</time></trkpt><trkpt lat="41.518073" lon="1.5247857"><ele>555.0</ele><time>2026-04-05T07:54:37.776Z</time></trkpt><trkpt lat="41.5179147" lon="1.5248383"><ele>555.0</ele><time>2026-04-05T07:54:38.776Z</time></trkpt><trkpt lat="41.5177601" lon="1.5248759"><ele>554.3333333333334</ele><time>2026-04-05T07:54:39.776Z</time></trkpt><trkpt lat="41.5175844" lon="1.5248926"><ele>553.6666666666667</ele><time>2026-04-05T07:54:40.776Z</time></trkpt><trkpt lat="41.5173888" lon="1.5248893"><ele>553.0</ele><time>2026-04-05T07:54:41.777Z</time></trkpt><trkpt lat="41.5171907" lon="1.5248762"><ele>550.0</ele><time>2026-04-05T07:54:42.776Z</time></trkpt><trkpt lat="41.5169836" lon="1.5248571"><ele>547.0</ele><time>2026-04-05T07:54:43.776Z</time></trkpt><trkpt lat="41.5167648" lon="1.5248354"><ele>544.0</ele><time>2026-04-05T07:54:44.777Z</time></trkpt><trkpt lat="41.5165473" lon="1.5248078"><ele>544.0</ele><time>2026-04-05T07:54:45.776Z</time></trkpt><trkpt lat="41.5163361" lon="1.5247902"><ele>544.0</ele><time>2026-04-05T07:54:46.777Z</time></trkpt><trkpt lat="41.5161256" lon="1.5247956"><ele>544.0</ele><time>2026-04-05T07:54:47.776Z</time></trkpt><trkpt lat="41.5159074" lon="1.52484"><ele>541.5</ele><time>2026-04-05T07:54:48.777Z</time></trkpt><trkpt lat="41.5156769" lon="1.5249155"><ele>539.0</ele><time>2026-04-05T07:54:49.777Z</time></trkpt><trkpt lat="41.5154407" lon="1.5250111"><ele>537.5</ele><time>2026-04-05T07:54:50.777Z</time></trkpt><trkpt lat="41.5152019" lon="1.525104"><ele>536.0</ele><time>2026-04-05T07:54:51.777Z</time></trkpt><trkpt lat="41.5149478" lon="1.5252041"><ele>536.0</ele><time>2026-04-05T07:54:52.777Z</time></trkpt><trkpt lat="41.5147035" lon="1.525308"><ele>536.0</ele><time>2026-04-05T07:54:53.777Z</time></trkpt><trkpt lat="41.5144669" lon="1.5254071"><ele>534.0</ele><time>2026-04-05T07:54:54.776Z</time></trkpt><trkpt lat="41.5142318" lon="1.5255004"><ele>532.0</ele><time>2026-04-05T07:54:55.776Z</time></trkpt><trkpt lat="41.5140034" lon="1.5255892"><ele>532.0</ele><time>2026-04-05T07:54:56.776Z</time></trkpt><trkpt lat="41.5137811" lon="1.5256795"><ele>532.0</ele><time>2026-04-05T07:54:57.776Z</time></trkpt><trkpt lat="41.5135685" lon="1.5257614"><ele>530.6666666666667</ele><time>2026-04-05T07:54:58.777Z</time></trkpt><trkpt lat="41.5133698" lon="1.5258382"><ele>529.3333333333334</ele><time>2026-04-05T07:54:59.777Z</time></trkpt><trkpt lat="41.5132019" lon="1.5259061"><ele>528.0</ele><time>2026-04-05T07:55:00.777Z</time></trkpt><trkpt lat="41.513059" lon="1.525982"><ele>528.0</ele><time>2026-04-05T07:55:01.776Z</time></trkpt><trkpt lat="41.5129333" lon="1.5260914"><ele>528.0</ele><time>2026-04-05T07:55:02.777Z</time></trkpt><trkpt lat="41.5128331" lon="1.5262419"><ele>528.0</ele><time>2026-04-05T07:55:03.777Z</time></trkpt><trkpt lat="41.5127456" lon="1.5264468"><ele>524.3333333333334</ele><time>2026-04-05T07:55:04.776Z</time></trkpt><trkpt lat="41.5126541" lon="1.5266828"><ele>520.6666666666667</ele><time>2026-04-05T07:55:05.777Z</time></trkpt><trkpt lat="41.5125624" lon="1.5269193"><ele>517.0</ele><time>2026-04-05T07:55:06.776Z</time></trkpt><trkpt lat="41.5124683" lon="1.5271808"><ele>515.5</ele><time>2026-04-05T07:55:07.776Z</time></trkpt><trkpt lat="41.5123751" lon="1.5274488"><ele>514.0</ele><time>2026-04-05T07:55:08.777Z</time></trkpt><trkpt lat="41.5122754" lon="1.5277314"><ele>513.0</ele><time>2026-04-05T07:55:09.777Z</time></trkpt><trkpt lat="41.5121716" lon="1.5280071"><ele>512.0</ele><time>2026-04-05T07:55:10.777Z</time></trkpt><trkpt lat="41.5120718" lon="1.5282733"><ele>510.66666666666663</ele><time>2026-04-05T07:55:11.777Z</time></trkpt><trkpt lat="41.5119729" lon="1.528536"><ele>509.33333333333337</ele><time>2026-04-05T07:55:12.776Z</time></trkpt><trkpt lat="41.5118753" lon="1.5288035"><ele>508.0</ele><time>2026-04-05T07:55:13.776Z</time></trkpt><trkpt lat="41.5117773" lon="1.5290725"><ele>508.0</ele><time>2026-04-05T07:55:14.776Z</time></trkpt><trkpt lat="41.5116855" lon="1.5293193"><ele>508.0</ele><time>2026-04-05T07:55:15.776Z</time></trkpt><trkpt lat="41.5115698" lon="1.5295608"><ele>508.0</ele><time>2026-04-05T07:55:16.777Z</time></trkpt><trkpt lat="41.5114241" lon="1.5297945"><ele>507.0</ele><time>2026-04-05T07:55:17.777Z</time></trkpt><trkpt lat="41.5112584" lon="1.5300251"><ele>506.0</ele><time>2026-04-05T07:55:18.776Z</time></trkpt><trkpt lat="41.5110852" lon="1.530242"><ele>504.5</ele><time>2026-04-05T07:55:19.776Z</time></trkpt><trkpt lat="41.5109141" lon="1.5304535"><ele>503.0</ele><time>2026-04-05T07:55:20.776Z</time></trkpt><trkpt lat="41.510746" lon="1.5306592"><ele>503.0</ele><time>2026-04-05T07:55:21.777Z</time></trkpt><trkpt lat="41.5105867" lon="1.5308591"><ele>503.0</ele><time>2026-04-05T07:55:22.777Z</time></trkpt><trkpt lat="41.5104265" lon="1.5310557"><ele>503.0</ele><time>2026-04-05T07:55:23.776Z</time></trkpt><trkpt lat="41.510268" lon="1.5312487"><ele>500.66666666666663</ele><time>2026-04-05T07:55:24.777Z</time></trkpt><trkpt lat="41.5101108" lon="1.5314444"><ele>498.33333333333337</ele><time>2026-04-05T07:55:25.776Z</time></trkpt><trkpt lat="41.5099619" lon="1.5316287"><ele>496.0</ele><time>2026-04-05T07:55:26.776Z</time></trkpt><trkpt lat="41.5098219" lon="1.5318056"><ele>496.0</ele><time>2026-04-05T07:55:27.777Z</time></trkpt><trkpt lat="41.509686" lon="1.5319669"><ele>496.0</ele><time>2026-04-05T07:55:28.777Z</time></trkpt><trkpt lat="41.5095678" lon="1.5321135"><ele>496.0</ele><time>2026-04-05T07:55:29.776Z</time></trkpt><trkpt lat="41.5094729" lon="1.5322581"><ele>499.25</ele><time>2026-04-05T07:55:30.777Z</time></trkpt><trkpt lat="41.5094078" lon="1.5324228"><ele>502.5</ele><time>2026-04-05T07:55:31.776Z</time></trkpt><trkpt lat="41.5093757" lon="1.5326073"><ele>505.75</ele><time>2026-04-05T07:55:32.776Z</time></trkpt><trkpt lat="41.5093524" lon="1.5327974"><ele>509.0</ele><time>2026-04-05T07:55:33.777Z</time></trkpt><trkpt lat="41.5093563" lon="1.5330032"><ele>509.0</ele><time>2026-04-05T07:55:34.776Z</time></trkpt><trkpt lat="41.5093307" lon="1.5331914"><ele>509.0</ele><time>2026-04-05T07:55:35.776Z</time></trkpt><trkpt lat="41.5092747" lon="1.5333653"><ele>509.0</ele><time>2026-04-05T07:55:36.777Z</time></trkpt><trkpt lat="41.509183" lon="1.5335343"><ele>509.0</ele><time>2026-04-05T07:55:37.776Z</time></trkpt><trkpt lat="41.5090574" lon="1.5336861"><ele>510.0</ele><time>2026-04-05T07:55:38.777Z</time></trkpt><trkpt lat="41.5089024" lon="1.533845"><ele>511.0</ele><time>2026-04-05T07:55:39.777Z</time></trkpt><trkpt lat="41.5087438" lon="1.5340064"><ele>512.0</ele><time>2026-04-05T07:55:40.777Z</time></trkpt><trkpt lat="41.5085803" lon="1.5341737"><ele>512.0</ele><time>2026-04-05T07:55:41.777Z</time></trkpt><trkpt lat="41.508425" lon="1.5343359"><ele>512.0</ele><time>2026-04-05T07:55:42.776Z</time></trkpt><trkpt lat="41.5082743" lon="1.534491"><ele>512.0</ele><time>2026-04-05T07:55:43.776Z</time></trkpt><trkpt lat="41.5081327" lon="1.5346388"><ele>510.0</ele><time>2026-04-05T07:55:44.776Z</time></trkpt><trkpt lat="41.5079987" lon="1.5347704"><ele>508.0</ele><time>2026-04-05T07:55:45.776Z</time></trkpt><trkpt lat="41.5078728" lon="1.5348784"><ele>506.0</ele><time>2026-04-05T07:55:46.776Z</time></trkpt><trkpt lat="41.5077421" lon="1.5349349"><ele>506.0</ele><time>2026-04-05T07:55:47.777Z</time></trkpt><trkpt lat="41.5075998" lon="1.534929"><ele>506.0</ele><time>2026-04-05T07:55:48.777Z</time></trkpt><trkpt lat="41.5074543" lon="1.5348833"><ele>506.0</ele><time>2026-04-05T07:55:49.777Z</time></trkpt><trkpt lat="41.5072902" lon="1.5347863"><ele>506.0</ele><time>2026-04-05T07:55:50.776Z</time></trkpt><trkpt lat="41.5071073" lon="1.5346697"><ele>506.0</ele><time>2026-04-05T07:55:51.776Z</time></trkpt><trkpt lat="41.5069271" lon="1.5345685"><ele>506.0</ele><time>2026-04-05T07:55:52.777Z</time></trkpt><trkpt lat="41.5067553" lon="1.5344684"><ele>506.3333333333333</ele><time>2026-04-05T07:55:53.777Z</time></trkpt><trkpt lat="41.5065944" lon="1.534372"><ele>506.66666666666663</ele><time>2026-04-05T07:55:54.777Z</time></trkpt><trkpt lat="41.5064485" lon="1.5342679"><ele>507.0</ele><time>2026-04-05T07:55:55.777Z</time></trkpt><trkpt lat="41.50632" lon="1.5341453"><ele>505.0</ele><time>2026-04-05T07:55:56.777Z</time></trkpt><trkpt lat="41.506209" lon="1.5340005"><ele>503.0</ele><time>2026-04-05T07:55:57.777Z</time></trkpt><trkpt lat="41.5061239" lon="1.5338308"><ele>501.0</ele><time>2026-04-05T07:55:58.776Z</time></trkpt><trkpt lat="41.5060695" lon="1.5336314"><ele>501.0</ele><time>2026-04-05T07:55:59.776Z</time></trkpt><trkpt lat="41.5060331" lon="1.5334347"><ele>501.0</ele><time>2026-04-05T07:56:00.777Z</time></trkpt><trkpt lat="41.5060025" lon="1.533245"><ele>501.0</ele><time>2026-04-05T07:56:01.777Z</time></trkpt><trkpt lat="41.5059535" lon="1.5330956"><ele>501.0</ele><time>2026-04-05T07:56:02.777Z</time></trkpt><trkpt lat="41.5058787" lon="1.5329691"><ele>502.0</ele><time>2026-04-05T07:56:03.776Z</time></trkpt><trkpt lat="41.5057784" lon="1.5328576"><ele>503.0</ele><time>2026-04-05T07:56:04.777Z</time></trkpt><trkpt lat="41.5056515" lon="1.5327804"><ele>504.0</ele><time>2026-04-05T07:56:05.777Z</time></trkpt><trkpt lat="41.5055041" lon="1.5327347"><ele>505.0</ele><time>2026-04-05T07:56:06.776Z</time></trkpt><trkpt lat="41.5053363" lon="1.532679"><ele>501.6666666666667</ele><time>2026-04-05T07:56:07.777Z</time></trkpt><trkpt lat="41.5051471" lon="1.5326157"><ele>498.33333333333337</ele><time>2026-04-05T07:56:08.777Z</time></trkpt><trkpt lat="41.5049516" lon="1.532553"><ele>495.0</ele><time>2026-04-05T07:56:09.776Z</time></trkpt><trkpt lat="41.5047465" lon="1.532488"><ele>494.33333333333337</ele><time>2026-04-05T07:56:10.776Z</time></trkpt><trkpt lat="41.5045358" lon="1.5324251"><ele>493.6666666666667</ele><time>2026-04-05T07:56:11.777Z</time></trkpt><trkpt lat="41.5043236" lon="1.5323602"><ele>493.0</ele><time>2026-04-05T07:56:12.776Z</time></trkpt><trkpt lat="41.5041175" lon="1.5322926"><ele>493.0</ele><time>2026-04-05T07:56:13.777Z</time></trkpt><trkpt lat="41.5039276" lon="1.5322181"><ele>493.0</ele><time>2026-04-05T07:56:14.776Z</time></trkpt><trkpt lat="41.5037447" lon="1.5321126"><ele>493.0</ele><time>2026-04-05T07:56:15.776Z</time></trkpt><trkpt lat="41.5035642" lon="1.5319707"><ele>494.5</ele><time>2026-04-05T07:56:16.776Z</time></trkpt><trkpt lat="41.5033724" lon="1.5318086"><ele>496.0</ele><time>2026-04-05T07:56:17.776Z</time></trkpt><trkpt lat="41.5031703" lon="1.5316334"><ele>496.0</ele><time>2026-04-05T07:56:18.777Z</time></trkpt><trkpt lat="41.5029668" lon="1.5314562"><ele>496.0</ele><time>2026-04-05T07:56:19.776Z</time></trkpt><trkpt lat="41.5027622" lon="1.5312811"><ele>495.0</ele><time>2026-04-05T07:56:20.777Z</time></trkpt><trkpt lat="41.5025602" lon="1.5311091"><ele>494.0</ele><time>2026-04-05T07:56:21.776Z</time></trkpt><trkpt lat="41.5023601" lon="1.5309393"><ele>494.0</ele><time>2026-04-05T07:56:22.777Z</time></trkpt><trkpt lat="41.5021695" lon="1.5307786"><ele>494.0</ele><time>2026-04-05T07:56:23.776Z</time></trkpt><trkpt lat="41.50199" lon="1.5306287"><ele>494.0</ele><time>2026-04-05T07:56:24.776Z</time></trkpt><trkpt lat="41.5018211" lon="1.5304985"><ele>495.66666666666663</ele><time>2026-04-05T07:56:25.776Z</time></trkpt><trkpt lat="41.5016477" lon="1.5303855"><ele>497.33333333333337</ele><time>2026-04-05T07:56:26.777Z</time></trkpt><trkpt lat="41.5015107" lon="1.5302631"><ele>499.0</ele><time>2026-04-05T07:56:27.776Z</time></trkpt><trkpt lat="41.501397" lon="1.5301161"><ele>499.0</ele><time>2026-04-05T07:56:28.777Z</time></trkpt><trkpt lat="41.5012953" lon="1.5299346"><ele>499.0</ele><time>2026-04-05T07:56:29.776Z</time></trkpt><trkpt lat="41.5011999" lon="1.5297147"><ele>499.0</ele><time>2026-04-05T07:56:30.776Z</time></trkpt><trkpt lat="41.5011041" lon="1.5294696"><ele>499.33333333333337</ele><time>2026-04-05T07:56:31.777Z</time></trkpt><trkpt lat="41.501012" lon="1.5292269"><ele>499.66666666666663</ele><time>2026-04-05T07:56:32.777Z</time></trkpt><trkpt lat="41.5009216" lon="1.5289992"><ele>500.0</ele><time>2026-04-05T07:56:33.776Z</time></trkpt><trkpt lat="41.5008442" lon="1.5287816"><ele>501.3333333333333</ele><time>2026-04-05T07:56:34.776Z</time></trkpt><trkpt lat="41.5007631" lon="1.5285702"><ele>502.66666666666663</ele><time>2026-04-05T07:56:35.777Z</time></trkpt><trkpt lat="41.5006711" lon="1.52834"><ele>504.0</ele><time>2026-04-05T07:56:36.776Z</time></trkpt><trkpt lat="41.5005722" lon="1.5280938"><ele>502.0</ele><time>2026-04-05T07:56:37.777Z</time></trkpt><trkpt lat="41.5004694" lon="1.5278291"><ele>500.0</ele><time>2026-04-05T07:56:38.776Z</time></trkpt><trkpt lat="41.5003599" lon="1.5275481"><ele>500.0</ele><time>2026-04-05T07:56:39.777Z</time></trkpt><trkpt lat="41.5002422" lon="1.5272589"><ele>500.0</ele><time>2026-04-05T07:56:40.776Z</time></trkpt><trkpt lat="41.5001254" lon="1.5269741"><ele>500.0</ele><time>2026-04-05T07:56:41.777Z</time></trkpt><trkpt lat="41.5000085" lon="1.5266854"><ele>500.0</ele><time>2026-04-05T07:56:42.777Z</time></trkpt><trkpt lat="41.49989" lon="1.5263954"><ele>502.0</ele><time>2026-04-05T07:56:43.776Z</time></trkpt><trkpt lat="41.4997786" lon="1.5260975"><ele>504.0</ele><time>2026-04-05T07:56:44.777Z</time></trkpt><trkpt lat="41.4996627" lon="1.5258036"><ele>504.0</ele><time>2026-04-05T07:56:45.777Z</time></trkpt><trkpt lat="41.4995471" lon="1.5255096"><ele>504.0</ele><time>2026-04-05T07:56:46.777Z</time></trkpt><trkpt lat="41.4994347" lon="1.5252135"><ele>504.0</ele><time>2026-04-05T07:56:47.776Z</time></trkpt><trkpt lat="41.4993204" lon="1.5249232"><ele>504.0</ele><time>2026-04-05T07:56:48.776Z</time></trkpt><trkpt lat="41.4992079" lon="1.5246308"><ele>505.5</ele><time>2026-04-05T07:56:49.776Z</time></trkpt><trkpt lat="41.4990981" lon="1.5243422"><ele>507.0</ele><time>2026-04-05T07:56:50.777Z</time></trkpt><trkpt lat="41.4989886" lon="1.5240678"><ele>507.0</ele><time>2026-04-05T07:56:51.776Z</time></trkpt><trkpt lat="41.4988763" lon="1.5238035"><ele>507.0</ele><time>2026-04-05T07:56:52.777Z</time></trkpt><trkpt lat="41.4987476" lon="1.5235536"><ele>509.5</ele><time>2026-04-05T07:56:53.776Z</time></trkpt><trkpt lat="41.4986014" lon="1.5233217"><ele>512.0</ele><time>2026-04-05T07:56:54.777Z</time></trkpt><trkpt lat="41.4984529" lon="1.5230964"><ele>512.5</ele><time>2026-04-05T07:56:55.776Z</time></trkpt><trkpt lat="41.4983038" lon="1.5228666"><ele>513.0</ele><time>2026-04-05T07:56:56.777Z</time></trkpt><trkpt lat="41.4981532" lon="1.5226396"><ele>513.0</ele><time>2026-04-05T07:56:57.777Z</time></trkpt><trkpt lat="41.497995" lon="1.5224046"><ele>513.0</ele><time>2026-04-05T07:56:58.776Z</time></trkpt><trkpt lat="41.4978356" lon="1.5221638"><ele>516.0</ele><time>2026-04-05T07:56:59.776Z</time></trkpt><trkpt lat="41.4976727" lon="1.5219273"><ele>519.0</ele><time>2026-04-05T07:57:00.777Z</time></trkpt><trkpt lat="41.4975158" lon="1.5216955"><ele>519.0</ele><time>2026-04-05T07:57:01.776Z</time></trkpt><trkpt lat="41.4973678" lon="1.5214749"><ele>519.0</ele><time>2026-04-05T07:57:02.777Z</time></trkpt><trkpt lat="41.4972322" lon="1.5212585"><ele>519.0</ele><time>2026-04-05T07:57:03.777Z</time></trkpt><trkpt lat="41.497112" lon="1.5210424"><ele>519.0</ele><time>2026-04-05T07:57:04.777Z</time></trkpt><trkpt lat="41.4969987" lon="1.5208133"><ele>519.0</ele><time>2026-04-05T07:57:05.776Z</time></trkpt><trkpt lat="41.4968865" lon="1.5205791"><ele>519.0</ele><time>2026-04-05T07:57:06.777Z</time></trkpt><trkpt lat="41.4967779" lon="1.5203458"><ele>519.0</ele><time>2026-04-05T07:57:07.776Z</time></trkpt><trkpt lat="41.4966776" lon="1.5201228"><ele>519.0</ele><time>2026-04-05T07:57:08.777Z</time></trkpt><trkpt lat="41.4965882" lon="1.519926"><ele>519.0</ele><time>2026-04-05T07:57:09.777Z</time></trkpt><trkpt lat="41.4965075" lon="1.5197371"><ele>519.0</ele><time>2026-04-05T07:57:10.777Z</time></trkpt><trkpt lat="41.4964266" lon="1.5195742"><ele>519.0</ele><time>2026-04-05T07:57:11.776Z</time></trkpt><trkpt lat="41.4963409" lon="1.5194497"><ele>519.0</ele><time>2026-04-05T07:57:12.777Z</time></trkpt><trkpt lat="41.4962377" lon="1.5193573"><ele>519.0</ele><time>2026-04-05T07:57:13.777Z</time></trkpt><trkpt lat="41.4961226" lon="1.5192947"><ele>519.3333333333334</ele><time>2026-04-05T07:57:14.777Z</time></trkpt><trkpt lat="41.4959837" lon="1.5192793"><ele>519.6666666666667</ele><time>2026-04-05T07:57:15.776Z</time></trkpt><trkpt lat="41.4958279" lon="1.5192952"><ele>520.0</ele><time>2026-04-05T07:57:16.776Z</time></trkpt><trkpt lat="41.4956442" lon="1.5193117"><ele>520.0</ele><time>2026-04-05T07:57:17.776Z</time></trkpt><trkpt lat="41.4954522" lon="1.5193254"><ele>520.0</ele><time>2026-04-05T07:57:18.777Z</time></trkpt><trkpt lat="41.4952783" lon="1.5193329"><ele>520.0</ele><time>2026-04-05T07:57:19.776Z</time></trkpt><trkpt lat="41.495119" lon="1.5193368"><ele>521.6666666666667</ele><time>2026-04-05T07:57:20.777Z</time></trkpt><trkpt lat="41.4949696" lon="1.5193164"><ele>523.3333333333334</ele><time>2026-04-05T07:57:21.777Z</time></trkpt><trkpt lat="41.494817" lon="1.5192518"><ele>525.0</ele><time>2026-04-05T07:57:22.776Z</time></trkpt><trkpt lat="41.4946523" lon="1.5191429"><ele>522.6666666666666</ele><time>2026-04-05T07:57:23.776Z</time></trkpt><trkpt lat="41.4944923" lon="1.5190244"><ele>520.3333333333333</ele><time>2026-04-05T07:57:24.777Z</time></trkpt><trkpt lat="41.4943423" lon="1.5189142"><ele>518.0</ele><time>2026-04-05T07:57:25.777Z</time></trkpt><trkpt lat="41.4942009" lon="1.5188072"><ele>520.6666666666666</ele><time>2026-04-05T07:57:26.776Z</time></trkpt><trkpt lat="41.4940816" lon="1.5186743"><ele>523.3333333333334</ele><time>2026-04-05T07:57:27.776Z</time></trkpt><trkpt lat="41.4939808" lon="1.518501"><ele>526.0</ele><time>2026-04-05T07:57:28.777Z</time></trkpt><trkpt lat="41.4939021" lon="1.5182891"><ele>526.0</ele><time>2026-04-05T07:57:29.777Z</time></trkpt><trkpt lat="41.4938419" lon="1.5180336"><ele>526.0</ele><time>2026-04-05T07:57:30.776Z</time></trkpt><trkpt lat="41.4937846" lon="1.5177708"><ele>526.0</ele><time>2026-04-05T07:57:31.777Z</time></trkpt><trkpt lat="41.4937296" lon="1.5175002"><ele>523.6666666666667</ele><time>2026-04-05T07:57:32.776Z</time></trkpt><trkpt lat="41.4936801" lon="1.5172428"><ele>521.3333333333334</ele><time>2026-04-05T07:57:33.776Z</time></trkpt><trkpt lat="41.4936255" lon="1.516999"><ele>519.0</ele><time>2026-04-05T07:57:34.776Z</time></trkpt><trkpt lat="41.4935765" lon="1.516772"><ele>519.0</ele><time>2026-04-05T07:57:35.777Z</time></trkpt><trkpt lat="41.4935209" lon="1.5165654"><ele>519.0</ele><time>2026-04-05T07:57:36.776Z</time></trkpt><trkpt lat="41.4934403" lon="1.5163781"><ele>519.0</ele><time>2026-04-05T07:57:37.777Z</time></trkpt><trkpt lat="41.493324" lon="1.5161989"><ele>519.6666666666666</ele><time>2026-04-05T07:57:38.776Z</time></trkpt><trkpt lat="41.4931837" lon="1.5160261"><ele>520.3333333333333</ele><time>2026-04-05T07:57:39.777Z</time></trkpt><trkpt lat="41.4930464" lon="1.5158743"><ele>521.0</ele><time>2026-04-05T07:57:40.777Z</time></trkpt><trkpt lat="41.492918" lon="1.5157292"><ele>521.25</ele><time>2026-04-05T07:57:41.777Z</time></trkpt><trkpt lat="41.4927988" lon="1.5156109"><ele>521.5</ele><time>2026-04-05T07:57:42.776Z</time></trkpt><trkpt lat="41.4926743" lon="1.5155367"><ele>521.75</ele><time>2026-04-05T07:57:43.776Z</time></trkpt><trkpt lat="41.4925454" lon="1.5155122"><ele>522.0</ele><time>2026-04-05T07:57:44.777Z</time></trkpt><trkpt lat="41.492403" lon="1.5155457"><ele>522.0</ele><time>2026-04-05T07:57:45.776Z</time></trkpt><trkpt lat="41.4922454" lon="1.5156206"><ele>522.0</ele><time>2026-04-05T07:57:46.777Z</time></trkpt><trkpt lat="41.4920974" lon="1.5156925"><ele>522.0</ele><time>2026-04-05T07:57:47.777Z</time></trkpt><trkpt lat="41.4919656" lon="1.5157458"><ele>522.0</ele><time>2026-04-05T07:57:48.776Z</time></trkpt><trkpt lat="41.4917989" lon="1.5157723"><ele>522.0</ele><time>2026-04-05T07:57:49.777Z</time></trkpt><trkpt lat="41.4916052" lon="1.5157602"><ele>522.0</ele><time>2026-04-05T07:57:50.777Z</time></trkpt><trkpt lat="41.4913883" lon="1.5157267"><ele>522.3333333333334</ele><time>2026-04-05T07:57:51.776Z</time></trkpt><trkpt lat="41.4912428" lon="1.5156718"><ele>522.6666666666667</ele><time>2026-04-05T07:57:52.776Z</time></trkpt><trkpt lat="41.4912087" lon="1.5154053"><ele>523.0</ele><time>2026-04-05T07:57:53.776Z</time></trkpt><trkpt lat="41.4911102" lon="1.5152138"><ele>523.3333333333334</ele><time>2026-04-05T07:57:54.776Z</time></trkpt><trkpt lat="41.4910116" lon="1.515035"><ele>523.6666666666666</ele><time>2026-04-05T07:57:55.776Z</time></trkpt><trkpt lat="41.49093" lon="1.5148531"><ele>524.0</ele><time>2026-04-05T07:57:56.776Z</time></trkpt><trkpt lat="41.4908456" lon="1.5146845"><ele>523.75</ele><time>2026-04-05T07:57:57.777Z</time></trkpt><trkpt lat="41.4907805" lon="1.5145241"><ele>523.5</ele><time>2026-04-05T07:57:58.776Z</time></trkpt><trkpt lat="41.4907191" lon="1.5143853"><ele>523.25</ele><time>2026-04-05T07:57:59.776Z</time></trkpt><trkpt lat="41.4906574" lon="1.5142613"><ele>523.0</ele><time>2026-04-05T07:58:00.777Z</time></trkpt><trkpt lat="41.4905896" lon="1.5141485"><ele>523.0</ele><time>2026-04-05T07:58:01.776Z</time></trkpt><trkpt lat="41.4905204" lon="1.5140414"><ele>523.0</ele><time>2026-04-05T07:58:02.776Z</time></trkpt><trkpt lat="41.4904516" lon="1.5139379"><ele>523.0</ele><time>2026-04-05T07:58:03.776Z</time></trkpt><trkpt lat="41.4903947" lon="1.5138303"><ele>523.0</ele><time>2026-04-05T07:58:04.777Z</time></trkpt><trkpt lat="41.4903554" lon="1.5137123"><ele>523.0</ele><time>2026-04-05T07:58:05.777Z</time></trkpt><trkpt lat="41.4903374" lon="1.5135847"><ele>522.0</ele><time>2026-04-05T07:58:06.777Z</time></trkpt><trkpt lat="41.4903093" lon="1.5134583"><ele>521.0</ele><time>2026-04-05T07:58:07.776Z</time></trkpt><trkpt lat="41.4902429" lon="1.5133399"><ele>520.0</ele><time>2026-04-05T07:58:08.776Z</time></trkpt><trkpt lat="41.4901516" lon="1.5132348"><ele>519.0</ele><time>2026-04-05T07:58:09.777Z</time></trkpt><trkpt lat="41.4900581" lon="1.5131124"><ele>519.0</ele><time>2026-04-05T07:58:10.776Z</time></trkpt><trkpt lat="41.4899794" lon="1.5129681"><ele>519.0</ele><time>2026-04-05T07:58:11.776Z</time></trkpt><trkpt lat="41.4898968" lon="1.5128093"><ele>519.0</ele><time>2026-04-05T07:58:12.777Z</time></trkpt><trkpt lat="41.4898135" lon="1.5126305"><ele>519.0</ele><time>2026-04-05T07:58:13.776Z</time></trkpt><trkpt lat="41.4897046" lon="1.5124277"><ele>518.6666666666666</ele><time>2026-04-05T07:58:14.776Z</time></trkpt><trkpt lat="41.4895952" lon="1.5122093"><ele>518.3333333333333</ele><time>2026-04-05T07:58:15.776Z</time></trkpt><trkpt lat="41.4894842" lon="1.5119837"><ele>518.0</ele><time>2026-04-05T07:58:16.777Z</time></trkpt><trkpt lat="41.4893723" lon="1.5117527"><ele>519.6666666666666</ele><time>2026-04-05T07:58:17.776Z</time></trkpt><trkpt lat="41.4892563" lon="1.5115292"><ele>521.3333333333334</ele><time>2026-04-05T07:58:18.777Z</time></trkpt><trkpt lat="41.4891526" lon="1.5113284"><ele>523.0</ele><time>2026-04-05T07:58:19.776Z</time></trkpt><trkpt lat="41.4890496" lon="1.5111399"><ele>523.0</ele><time>2026-04-05T07:58:20.776Z</time></trkpt><trkpt lat="41.4889551" lon="1.5109606"><ele>523.0</ele><time>2026-04-05T07:58:21.777Z</time></trkpt><trkpt lat="41.4888579" lon="1.5107799"><ele>523.0</ele><time>2026-04-05T07:58:22.777Z</time></trkpt><trkpt lat="41.4887572" lon="1.5105933"><ele>523.3333333333334</ele><time>2026-04-05T07:58:23.777Z</time></trkpt><trkpt lat="41.4886558" lon="1.5104027"><ele>523.6666666666666</ele><time>2026-04-05T07:58:24.776Z</time></trkpt><trkpt lat="41.4885554" lon="1.5102134"><ele>524.0</ele><time>2026-04-05T07:58:25.776Z</time></trkpt><trkpt lat="41.4884588" lon="1.5100311"><ele>524.0</ele><time>2026-04-05T07:58:26.777Z</time></trkpt><trkpt lat="41.4883579" lon="1.5098431"><ele>524.0</ele><time>2026-04-05T07:58:27.776Z</time></trkpt><trkpt lat="41.4882576" lon="1.5096497"><ele>524.0</ele><time>2026-04-05T07:58:28.776Z</time></trkpt><trkpt lat="41.4881608" lon="1.5094606"><ele>524.3333333333333</ele><time>2026-04-05T07:58:29.777Z</time></trkpt><trkpt lat="41.4880723" lon="1.5092806"><ele>524.6666666666666</ele><time>2026-04-05T07:58:30.777Z</time></trkpt><trkpt lat="41.4879876" lon="1.5091099"><ele>525.0</ele><time>2026-04-05T07:58:31.777Z</time></trkpt><trkpt lat="41.4878926" lon="1.508961"><ele>525.3333333333334</ele><time>2026-04-05T07:58:32.777Z</time></trkpt><trkpt lat="41.4877849" lon="1.508823"><ele>525.6666666666667</ele><time>2026-04-05T07:58:33.777Z</time></trkpt><trkpt lat="41.4876637" lon="1.5087008"><ele>526.0</ele><time>2026-04-05T07:58:34.776Z</time></trkpt><trkpt lat="41.4875406" lon="1.5085691"><ele>526.6666666666667</ele><time>2026-04-05T07:58:35.776Z</time></trkpt><trkpt lat="41.4874241" lon="1.5084236"><ele>527.3333333333334</ele><time>2026-04-05T07:58:36.776Z</time></trkpt><trkpt lat="41.4873197" lon="1.5082581"><ele>528.0</ele><time>2026-04-05T07:58:37.776Z</time></trkpt><trkpt lat="41.4872208" lon="1.5080586"><ele>528.3333333333334</ele><time>2026-04-05T07:58:38.777Z</time></trkpt><trkpt lat="41.4871228" lon="1.5078423"><ele>528.6666666666667</ele><time>2026-04-05T07:58:39.776Z</time></trkpt><trkpt lat="41.487025" lon="1.5076243"><ele>529.0</ele><time>2026-04-05T07:58:40.777Z</time></trkpt><trkpt lat="41.4869342" lon="1.5074175"><ele>528.6666666666667</ele><time>2026-04-05T07:58:41.777Z</time></trkpt><trkpt lat="41.4868438" lon="1.5072143"><ele>528.3333333333334</ele><time>2026-04-05T07:58:42.776Z</time></trkpt><trkpt lat="41.4867551" lon="1.5070132"><ele>528.0</ele><time>2026-04-05T07:58:43.776Z</time></trkpt><trkpt lat="41.4866668" lon="1.5068116"><ele>528.0</ele><time>2026-04-05T07:58:44.776Z</time></trkpt><trkpt lat="41.4865765" lon="1.506614"><ele>528.0</ele><time>2026-04-05T07:58:45.776Z</time></trkpt><trkpt lat="41.4864903" lon="1.506411"><ele>528.0</ele><time>2026-04-05T07:58:46.776Z</time></trkpt><trkpt lat="41.4864003" lon="1.5062049"><ele>528.3333333333334</ele><time>2026-04-05T07:58:47.776Z</time></trkpt><trkpt lat="41.4863071" lon="1.5059997"><ele>528.6666666666667</ele><time>2026-04-05T07:58:48.777Z</time></trkpt><trkpt lat="41.4862126" lon="1.5057915"><ele>529.0</ele><time>2026-04-05T07:58:49.776Z</time></trkpt><trkpt lat="41.4861181" lon="1.5055794"><ele>528.6666666666667</ele><time>2026-04-05T07:58:50.776Z</time></trkpt><trkpt lat="41.4860092" lon="1.5053375"><ele>528.3333333333334</ele><time>2026-04-05T07:58:51.777Z</time></trkpt><trkpt lat="41.4858983" lon="1.5050929"><ele>528.0</ele><time>2026-04-05T07:58:52.777Z</time></trkpt><trkpt lat="41.4857835" lon="1.5048299"><ele>530.0</ele><time>2026-04-05T07:58:53.776Z</time></trkpt><trkpt lat="41.4856616" lon="1.5045511"><ele>532.0</ele><time>2026-04-05T07:58:54.777Z</time></trkpt><trkpt lat="41.4855352" lon="1.5042629"><ele>532.0</ele><time>2026-04-05T07:58:55.777Z</time></trkpt><trkpt lat="41.4854074" lon="1.5039826"><ele>532.0</ele><time>2026-04-05T07:58:56.776Z</time></trkpt><trkpt lat="41.4852822" lon="1.5037097"><ele>532.0</ele><time>2026-04-05T07:58:57.776Z</time></trkpt><trkpt lat="41.4851589" lon="1.5034458"><ele>532.0</ele><time>2026-04-05T07:58:58.776Z</time></trkpt><trkpt lat="41.4850515" lon="1.5031923"><ele>532.0</ele><time>2026-04-05T07:58:59.777Z</time></trkpt><trkpt lat="41.4849519" lon="1.5029529"><ele>532.0</ele><time>2026-04-05T07:59:00.777Z</time></trkpt><trkpt lat="41.4848559" lon="1.5027301"><ele>532.0</ele><time>2026-04-05T07:59:01.777Z</time></trkpt><trkpt lat="41.484767" lon="1.5025348"><ele>532.6666666666667</ele><time>2026-04-05T07:59:02.777Z</time></trkpt><trkpt lat="41.4846798" lon="1.5023652"><ele>533.3333333333334</ele><time>2026-04-05T07:59:03.776Z</time></trkpt><trkpt lat="41.484569" lon="1.5022266"><ele>534.0</ele><time>2026-04-05T07:59:04.776Z</time></trkpt><trkpt lat="41.4844282" lon="1.5020947"><ele>535.0</ele><time>2026-04-05T07:59:05.777Z</time></trkpt><trkpt lat="41.4842725" lon="1.5019832"><ele>536.0</ele><time>2026-04-05T07:59:06.776Z</time></trkpt><trkpt lat="41.4841165" lon="1.5018775"><ele>537.0</ele><time>2026-04-05T07:59:07.775Z</time></trkpt><trkpt lat="41.4839665" lon="1.5017784"><ele>537.0</ele><time>2026-04-05T07:59:08.777Z</time></trkpt><trkpt lat="41.4838186" lon="1.5016759"><ele>537.0</ele><time>2026-04-05T07:59:09.776Z</time></trkpt><trkpt lat="41.4836705" lon="1.501575"><ele>537.0</ele><time>2026-04-05T07:59:10.776Z</time></trkpt><trkpt lat="41.4835273" lon="1.5014761"><ele>537.0</ele><time>2026-04-05T07:59:11.776Z</time></trkpt><trkpt lat="41.4833873" lon="1.5013801"><ele>537.0</ele><time>2026-04-05T07:59:12.776Z</time></trkpt><trkpt lat="41.4832418" lon="1.5012823"><ele>537.0</ele><time>2026-04-05T07:59:13.776Z</time></trkpt><trkpt lat="41.4831069" lon="1.5011939"><ele>537.3333333333334</ele><time>2026-04-05T07:59:14.776Z</time></trkpt><trkpt lat="41.4829629" lon="1.5010963"><ele>537.6666666666667</ele><time>2026-04-05T07:59:15.776Z</time></trkpt><trkpt lat="41.4828234" lon="1.5009977"><ele>538.0</ele><time>2026-04-05T07:59:16.776Z</time></trkpt><trkpt lat="41.4826938" lon="1.5009095"><ele>538.0</ele><time>2026-04-05T07:59:17.777Z</time></trkpt><trkpt lat="41.4825738" lon="1.5008267"><ele>538.0</ele><time>2026-04-05T07:59:18.776Z</time></trkpt><trkpt lat="41.4824584" lon="1.5007461"><ele>538.0</ele><time>2026-04-05T07:59:19.776Z</time></trkpt><trkpt lat="41.4823455" lon="1.5006621"><ele>538.0</ele><time>2026-04-05T07:59:20.776Z</time></trkpt><trkpt lat="41.4822461" lon="1.5005498"><ele>538.0</ele><time>2026-04-05T07:59:21.777Z</time></trkpt><trkpt lat="41.4821643" lon="1.5004191"><ele>538.0</ele><time>2026-04-05T07:59:22.776Z</time></trkpt><trkpt lat="41.4820955" lon="1.5002514"><ele>538.0</ele><time>2026-04-05T07:59:23.777Z</time></trkpt><trkpt lat="41.4820418" lon="1.5000525"><ele>538.0</ele><time>2026-04-05T07:59:24.776Z</time></trkpt><trkpt lat="41.4819802" lon="1.4998637"><ele>537.75</ele><time>2026-04-05T07:59:25.776Z</time></trkpt><trkpt lat="41.4819198" lon="1.4996795"><ele>537.5</ele><time>2026-04-05T07:59:26.776Z</time></trkpt><trkpt lat="41.481862" lon="1.4994993"><ele>537.25</ele><time>2026-04-05T07:59:27.777Z</time></trkpt><trkpt lat="41.4818122" lon="1.4993237"><ele>537.0</ele><time>2026-04-05T07:59:28.777Z</time></trkpt><trkpt lat="41.4817583" lon="1.4991405"><ele>537.6666666666666</ele><time>2026-04-05T07:59:29.776Z</time></trkpt><trkpt lat="41.481702" lon="1.4989466"><ele>538.3333333333333</ele><time>2026-04-05T07:59:30.777Z</time></trkpt><trkpt lat="41.4816381" lon="1.4987599"><ele>539.0</ele><time>2026-04-05T07:59:31.777Z</time></trkpt><trkpt lat="41.4815774" lon="1.4985749"><ele>539.75</ele><time>2026-04-05T07:59:32.777Z</time></trkpt><trkpt lat="41.4815209" lon="1.498401"><ele>540.5</ele><time>2026-04-05T07:59:33.777Z</time></trkpt><trkpt lat="41.4814512" lon="1.4982336"><ele>541.25</ele><time>2026-04-05T07:59:34.776Z</time></trkpt><trkpt lat="41.4813659" lon="1.4980653"><ele>542.0</ele><time>2026-04-05T07:59:35.777Z</time></trkpt><trkpt lat="41.481262" lon="1.4978977"><ele>543.0</ele><time>2026-04-05T07:59:36.776Z</time></trkpt><trkpt lat="41.4811529" lon="1.4977405"><ele>544.0</ele><time>2026-04-05T07:59:37.777Z</time></trkpt><trkpt lat="41.4810516" lon="1.4975839"><ele>545.0</ele><time>2026-04-05T07:59:38.777Z</time></trkpt><trkpt lat="41.4809565" lon="1.497438"><ele>545.0</ele><time>2026-04-05T07:59:39.777Z</time></trkpt><trkpt lat="41.4808614" lon="1.4973001"><ele>545.0</ele><time>2026-04-05T07:59:40.776Z</time></trkpt><trkpt lat="41.4807681" lon="1.4971593"><ele>545.0</ele><time>2026-04-05T07:59:41.777Z</time></trkpt><trkpt lat="41.4806711" lon="1.4970184"><ele>545.0</ele><time>2026-04-05T07:59:42.777Z</time></trkpt><trkpt lat="41.4805802" lon="1.4968824"><ele>545.75</ele><time>2026-04-05T07:59:43.776Z</time></trkpt><trkpt lat="41.480486" lon="1.4967493"><ele>546.5</ele><time>2026-04-05T07:59:44.776Z</time></trkpt><trkpt lat="41.480407" lon="1.4966078"><ele>547.25</ele><time>2026-04-05T07:59:45.777Z</time></trkpt><trkpt lat="41.4803467" lon="1.4964638"><ele>548.0</ele><time>2026-04-05T07:59:46.776Z</time></trkpt><trkpt lat="41.4802888" lon="1.4963093"><ele>547.0</ele><time>2026-04-05T07:59:47.776Z</time></trkpt><trkpt lat="41.4802406" lon="1.4961357"><ele>546.0</ele><time>2026-04-05T07:59:48.776Z</time></trkpt><trkpt lat="41.4801767" lon="1.4959626"><ele>545.0</ele><time>2026-04-05T07:59:49.776Z</time></trkpt><trkpt lat="41.4800952" lon="1.4957841"><ele>544.0</ele><time>2026-04-05T07:59:50.776Z</time></trkpt><trkpt lat="41.4799818" lon="1.4955959"><ele>544.3333333333334</ele><time>2026-04-05T07:59:51.777Z</time></trkpt><trkpt lat="41.4798397" lon="1.4953964"><ele>544.6666666666666</ele><time>2026-04-05T07:59:52.777Z</time></trkpt><trkpt lat="41.4796783" lon="1.4952017"><ele>545.0</ele><time>2026-04-05T07:59:53.777Z</time></trkpt><trkpt lat="41.4794998" lon="1.4950007"><ele>545.0</ele><time>2026-04-05T07:59:54.777Z</time></trkpt><trkpt lat="41.4793211" lon="1.494785"><ele>545.0</ele><time>2026-04-05T07:59:55.776Z</time></trkpt><trkpt lat="41.4791687" lon="1.4945986"><ele>545.0</ele><time>2026-04-05T07:59:56.776Z</time></trkpt><trkpt lat="41.4790391" lon="1.4944368"><ele>545.3333333333333</ele><time>2026-04-05T07:59:57.776Z</time></trkpt><trkpt lat="41.4789312" lon="1.4942744"><ele>545.6666666666666</ele><time>2026-04-05T07:59:58.777Z</time></trkpt><trkpt lat="41.478841" lon="1.4940725"><ele>546.0</ele><time>2026-04-05T07:59:59.777Z</time></trkpt><trkpt lat="41.4787617" lon="1.4938383"><ele>547.0</ele><time>2026-04-05T08:00:00.777Z</time></trkpt><trkpt lat="41.4786845" lon="1.4935793"><ele>548.0</ele><time>2026-04-05T08:00:01.776Z</time></trkpt><trkpt lat="41.4786041" lon="1.4933205"><ele>549.0</ele><time>2026-04-05T08:00:02.776Z</time></trkpt><trkpt lat="41.4785299" lon="1.4930699"><ele>549.0</ele><time>2026-04-05T08:00:03.777Z</time></trkpt><trkpt lat="41.478458" lon="1.4928244"><ele>549.0</ele><time>2026-04-05T08:00:04.777Z</time></trkpt><trkpt lat="41.4783927" lon="1.4925938"><ele>549.0</ele><time>2026-04-05T08:00:05.776Z</time></trkpt><trkpt lat="41.4783271" lon="1.4923749"><ele>549.0</ele><time>2026-04-05T08:00:06.777Z</time></trkpt><trkpt lat="41.4782569" lon="1.4921711"><ele>549.0</ele><time>2026-04-05T08:00:07.776Z</time></trkpt><trkpt lat="41.4781735" lon="1.4919862"><ele>549.0</ele><time>2026-04-05T08:00:08.777Z</time></trkpt><trkpt lat="41.4780604" lon="1.4918153"><ele>549.6666666666666</ele><time>2026-04-05T08:00:09.776Z</time></trkpt><trkpt lat="41.4779256" lon="1.4916493"><ele>550.3333333333333</ele><time>2026-04-05T08:00:10.777Z</time></trkpt><trkpt lat="41.477787" lon="1.4914914"><ele>551.0</ele><time>2026-04-05T08:00:11.777Z</time></trkpt><trkpt lat="41.477645" lon="1.4913496"><ele>551.6666666666666</ele><time>2026-04-05T08:00:12.776Z</time></trkpt><trkpt lat="41.4774771" lon="1.4912289"><ele>552.3333333333334</ele><time>2026-04-05T08:00:13.776Z</time></trkpt><trkpt lat="41.4772847" lon="1.491121"><ele>553.0</ele><time>2026-04-05T08:00:14.777Z</time></trkpt><trkpt lat="41.4770903" lon="1.4910173"><ele>553.0</ele><time>2026-04-05T08:00:15.776Z</time></trkpt><trkpt lat="41.4769072" lon="1.4909118"><ele>553.0</ele><time>2026-04-05T08:00:16.777Z</time></trkpt><trkpt lat="41.4767244" lon="1.4908096"><ele>553.0</ele><time>2026-04-05T08:00:17.777Z</time></trkpt><trkpt lat="41.4765495" lon="1.4907211"><ele>553.0</ele><time>2026-04-05T08:00:18.776Z</time></trkpt><trkpt lat="41.4763859" lon="1.4906365"><ele>553.0</ele><time>2026-04-05T08:00:19.776Z</time></trkpt><trkpt lat="41.4762266" lon="1.490548"><ele>553.0</ele><time>2026-04-05T08:00:20.776Z</time></trkpt><trkpt lat="41.4760796" lon="1.4904493"><ele>553.6666666666667</ele><time>2026-04-05T08:00:21.776Z</time></trkpt><trkpt lat="41.475937" lon="1.4903133"><ele>554.3333333333334</ele><time>2026-04-05T08:00:22.777Z</time></trkpt><trkpt lat="41.4757993" lon="1.4901416"><ele>555.0</ele><time>2026-04-05T08:00:23.777Z</time></trkpt><trkpt lat="41.4756614" lon="1.4899511"><ele>555.0</ele><time>2026-04-05T08:00:24.777Z</time></trkpt><trkpt lat="41.4755169" lon="1.4897559"><ele>555.0</ele><time>2026-04-05T08:00:25.776Z</time></trkpt><trkpt lat="41.4753749" lon="1.4895628"><ele>555.0</ele><time>2026-04-05T08:00:26.777Z</time></trkpt><trkpt lat="41.4752382" lon="1.4893633"><ele>555.6666666666666</ele><time>2026-04-05T08:00:27.776Z</time></trkpt><trkpt lat="41.4750874" lon="1.4891567"><ele>556.3333333333333</ele><time>2026-04-05T08:00:28.776Z</time></trkpt><trkpt lat="41.4749336" lon="1.4889515"><ele>557.0</ele><time>2026-04-05T08:00:29.776Z</time></trkpt><trkpt lat="41.474772" lon="1.4887427"><ele>558.5</ele><time>2026-04-05T08:00:30.777Z</time></trkpt><trkpt lat="41.4745956" lon="1.4884891"><ele>560.0</ele><time>2026-04-05T08:00:31.776Z</time></trkpt><trkpt lat="41.4744183" lon="1.4882272"><ele>560.0</ele><time>2026-04-05T08:00:32.777Z</time></trkpt><trkpt lat="41.4742412" lon="1.487963"><ele>560.0</ele><time>2026-04-05T08:00:33.776Z</time></trkpt><trkpt lat="41.4740631" lon="1.4877097"><ele>559.5</ele><time>2026-04-05T08:00:34.777Z</time></trkpt><trkpt lat="41.473894" lon="1.4874701"><ele>559.0</ele><time>2026-04-05T08:00:35.776Z</time></trkpt><trkpt lat="41.4737231" lon="1.4872228"><ele>560.0</ele><time>2026-04-05T08:00:36.776Z</time></trkpt><trkpt lat="41.4735445" lon="1.4869677"><ele>561.0</ele><time>2026-04-05T08:00:37.777Z</time></trkpt><trkpt lat="41.4733598" lon="1.4867088"><ele>561.0</ele><time>2026-04-05T08:00:38.776Z</time></trkpt><trkpt lat="41.4731713" lon="1.4864411"><ele>561.0</ele><time>2026-04-05T08:00:39.777Z</time></trkpt><trkpt lat="41.4729781" lon="1.4861674"><ele>561.5</ele><time>2026-04-05T08:00:40.776Z</time></trkpt><trkpt lat="41.4727763" lon="1.4858865"><ele>562.0</ele><time>2026-04-05T08:00:41.777Z</time></trkpt><trkpt lat="41.4725706" lon="1.4856001"><ele>564.0</ele><time>2026-04-05T08:00:42.777Z</time></trkpt><trkpt lat="41.4723608" lon="1.4853024"><ele>566.0</ele><time>2026-04-05T08:00:43.777Z</time></trkpt><trkpt lat="41.4721418" lon="1.485005"><ele>567.5</ele><time>2026-04-05T08:00:44.777Z</time></trkpt><trkpt lat="41.4719357" lon="1.4847164"><ele>569.0</ele><time>2026-04-05T08:00:45.777Z</time></trkpt><trkpt lat="41.4717418" lon="1.4844424"><ele>570.5</ele><time>2026-04-05T08:00:46.776Z</time></trkpt><trkpt lat="41.47156" lon="1.4841857"><ele>572.0</ele><time>2026-04-05T08:00:47.777Z</time></trkpt><trkpt lat="41.4713853" lon="1.4839441"><ele>573.5</ele><time>2026-04-05T08:00:48.776Z</time></trkpt><trkpt lat="41.4712076" lon="1.4836988"><ele>575.0</ele><time>2026-04-05T08:00:49.777Z</time></trkpt><trkpt lat="41.471024" lon="1.4834442"><ele>575.0</ele><time>2026-04-05T08:00:50.776Z</time></trkpt><trkpt lat="41.4708321" lon="1.483185"><ele>575.0</ele><time>2026-04-05T08:00:51.777Z</time></trkpt><trkpt lat="41.4706339" lon="1.4829193"><ele>577.5</ele><time>2026-04-05T08:00:52.777Z</time></trkpt><trkpt lat="41.4704329" lon="1.4826447"><ele>580.0</ele><time>2026-04-05T08:00:53.776Z</time></trkpt><trkpt lat="41.4702326" lon="1.4823714"><ele>580.0</ele><time>2026-04-05T08:00:54.777Z</time></trkpt><trkpt lat="41.470043" lon="1.4821194"><ele>580.0</ele><time>2026-04-05T08:00:55.776Z</time></trkpt><trkpt lat="41.4698597" lon="1.4818812"><ele>580.5</ele><time>2026-04-05T08:00:56.776Z</time></trkpt><trkpt lat="41.4696896" lon="1.481654"><ele>581.0</ele><time>2026-04-05T08:00:57.776Z</time></trkpt><trkpt lat="41.4695243" lon="1.4814312"><ele>583.5</ele><time>2026-04-05T08:00:58.776Z</time></trkpt><trkpt lat="41.4693551" lon="1.4812065"><ele>586.0</ele><time>2026-04-05T08:00:59.776Z</time></trkpt><trkpt lat="41.4691813" lon="1.4809724"><ele>586.0</ele><time>2026-04-05T08:01:00.777Z</time></trkpt><trkpt lat="41.4689965" lon="1.4807286"><ele>586.0</ele><time>2026-04-05T08:01:01.776Z</time></trkpt><trkpt lat="41.4688156" lon="1.4804833"><ele>587.5</ele><time>2026-04-05T08:01:02.776Z</time></trkpt><trkpt lat="41.4686293" lon="1.4802332"><ele>589.0</ele><time>2026-04-05T08:01:03.777Z</time></trkpt><trkpt lat="41.468448" lon="1.4799889"><ele>589.0</ele><time>2026-04-05T08:01:04.776Z</time></trkpt><trkpt lat="41.4682764" lon="1.4797575"><ele>589.0</ele><time>2026-04-05T08:01:05.776Z</time></trkpt><trkpt lat="41.4681023" lon="1.4795239"><ele>592.5</ele><time>2026-04-05T08:01:06.776Z</time></trkpt><trkpt lat="41.4679287" lon="1.4792911"><ele>596.0</ele><time>2026-04-05T08:01:07.777Z</time></trkpt><trkpt lat="41.4677623" lon="1.4790669"><ele>596.0</ele><time>2026-04-05T08:01:08.776Z</time></trkpt><trkpt lat="41.467594" lon="1.4788407"><ele>596.0</ele><time>2026-04-05T08:01:09.776Z</time></trkpt><trkpt lat="41.4674182" lon="1.4786154"><ele>596.6666666666666</ele><time>2026-04-05T08:01:10.776Z</time></trkpt><trkpt lat="41.4672574" lon="1.4784008"><ele>597.3333333333334</ele><time>2026-04-05T08:01:11.777Z</time></trkpt><trkpt lat="41.4671162" lon="1.4782093"><ele>598.0</ele><time>2026-04-05T08:01:12.776Z</time></trkpt><trkpt lat="41.4669867" lon="1.4780329"><ele>597.3333333333334</ele><time>2026-04-05T08:01:13.776Z</time></trkpt><trkpt lat="41.4668645" lon="1.4778711"><ele>596.6666666666666</ele><time>2026-04-05T08:01:14.777Z</time></trkpt><trkpt lat="41.4667485" lon="1.4777198"><ele>596.0</ele><time>2026-04-05T08:01:15.777Z</time></trkpt><trkpt lat="41.4666277" lon="1.4775615"><ele>596.0</ele><time>2026-04-05T08:01:16.776Z</time></trkpt><trkpt lat="41.4664969" lon="1.4773842"><ele>596.0</ele><time>2026-04-05T08:01:17.776Z</time></trkpt><trkpt lat="41.4663741" lon="1.4772143"><ele>596.0</ele><time>2026-04-05T08:01:18.776Z</time></trkpt><trkpt lat="41.4662644" lon="1.4770588"><ele>596.0</ele><time>2026-04-05T08:01:19.777Z</time></trkpt><trkpt lat="41.4661618" lon="1.4769395"><ele>596.0</ele><time>2026-04-05T08:01:20.777Z</time></trkpt><trkpt lat="41.4660484" lon="1.4768464"><ele>596.0</ele><time>2026-04-05T08:01:21.776Z</time></trkpt><trkpt lat="41.465916" lon="1.4767888"><ele>596.0</ele><time>2026-04-05T08:01:22.776Z</time></trkpt><trkpt lat="41.4657647" lon="1.4767624"><ele>596.0</ele><time>2026-04-05T08:01:23.777Z</time></trkpt><trkpt lat="41.465605" lon="1.4767523"><ele>596.0</ele><time>2026-04-05T08:01:24.776Z</time></trkpt><trkpt lat="41.4654365" lon="1.4767375"><ele>596.0</ele><time>2026-04-05T08:01:25.777Z</time></trkpt><trkpt lat="41.4652678" lon="1.476724"><ele>596.0</ele><time>2026-04-05T08:01:26.777Z</time></trkpt><trkpt lat="41.465087" lon="1.4767065"><ele>596.0</ele><time>2026-04-05T08:01:27.777Z</time></trkpt><trkpt lat="41.4648927" lon="1.4766914"><ele>596.0</ele><time>2026-04-05T08:01:28.776Z</time></trkpt><trkpt lat="41.4647047" lon="1.4766791"><ele>598.0</ele><time>2026-04-05T08:01:29.776Z</time></trkpt><trkpt lat="41.4645105" lon="1.4766624"><ele>600.0</ele><time>2026-04-05T08:01:30.777Z</time></trkpt><trkpt lat="41.4643204" lon="1.4766476"><ele>602.0</ele><time>2026-04-05T08:01:31.776Z</time></trkpt><trkpt lat="41.4641295" lon="1.4766347"><ele>602.0</ele><time>2026-04-05T08:01:32.777Z</time></trkpt><trkpt lat="41.4639398" lon="1.4766194"><ele>602.0</ele><time>2026-04-05T08:01:33.777Z</time></trkpt><trkpt lat="41.4637542" lon="1.4765974"><ele>602.0</ele><time>2026-04-05T08:01:34.777Z</time></trkpt><trkpt lat="41.463574" lon="1.476576"><ele>603.3333333333333</ele><time>2026-04-05T08:01:35.776Z</time></trkpt><trkpt lat="41.4634053" lon="1.4765615"><ele>604.6666666666666</ele><time>2026-04-05T08:01:36.776Z</time></trkpt><trkpt lat="41.4632521" lon="1.4765431"><ele>606.0</ele><time>2026-04-05T08:01:37.777Z</time></trkpt><trkpt lat="41.4631195" lon="1.4765232"><ele>606.0</ele><time>2026-04-05T08:01:38.776Z</time></trkpt><trkpt lat="41.4630034" lon="1.4764885"><ele>606.0</ele><time>2026-04-05T08:01:39.777Z</time></trkpt><trkpt lat="41.462905" lon="1.4764238"><ele>606.0</ele><time>2026-04-05T08:01:40.777Z</time></trkpt><trkpt lat="41.4628179" lon="1.4763154"><ele>606.0</ele><time>2026-04-05T08:01:41.777Z</time></trkpt><trkpt lat="41.4627317" lon="1.4761845"><ele>608.25</ele><time>2026-04-05T08:01:42.776Z</time></trkpt><trkpt lat="41.4626423" lon="1.4760389"><ele>610.5</ele><time>2026-04-05T08:01:43.776Z</time></trkpt><trkpt lat="41.4625484" lon="1.4758869"><ele>612.75</ele><time>2026-04-05T08:01:44.777Z</time></trkpt><trkpt lat="41.4624471" lon="1.4757368"><ele>615.0</ele><time>2026-04-05T08:01:45.777Z</time></trkpt><trkpt lat="41.4623455" lon="1.4755808"><ele>614.5</ele><time>2026-04-05T08:01:46.776Z</time></trkpt><trkpt lat="41.4622493" lon="1.4754331"><ele>614.0</ele><time>2026-04-05T08:01:47.777Z</time></trkpt><trkpt lat="41.4621505" lon="1.4752931"><ele>613.5</ele><time>2026-04-05T08:01:48.777Z</time></trkpt><trkpt lat="41.4621039" lon="1.4751341"><ele>613.0</ele><time>2026-04-05T08:01:49.776Z</time></trkpt><trkpt lat="41.4620457" lon="1.4749596"><ele>613.0</ele><time>2026-04-05T08:01:50.776Z</time></trkpt><trkpt lat="41.4619992" lon="1.4747971"><ele>613.0</ele><time>2026-04-05T08:01:51.777Z</time></trkpt><trkpt lat="41.4619583" lon="1.4746015"><ele>613.0</ele><time>2026-04-05T08:01:52.777Z</time></trkpt><trkpt lat="41.4619214" lon="1.4743966"><ele>613.0</ele><time>2026-04-05T08:01:53.776Z</time></trkpt><trkpt lat="41.4618877" lon="1.4741989"><ele>614.75</ele><time>2026-04-05T08:01:54.776Z</time></trkpt><trkpt lat="41.4618503" lon="1.4739997"><ele>616.5</ele><time>2026-04-05T08:01:55.776Z</time></trkpt><trkpt lat="41.4618253" lon="1.473804"><ele>618.25</ele><time>2026-04-05T08:01:56.776Z</time></trkpt><trkpt lat="41.4618221" lon="1.4736099"><ele>620.0</ele><time>2026-04-05T08:01:57.776Z</time></trkpt><trkpt lat="41.4618265" lon="1.4734018"><ele>621.75</ele><time>2026-04-05T08:01:58.777Z</time></trkpt><trkpt lat="41.4618425" lon="1.4732053"><ele>623.5</ele><time>2026-04-05T08:01:59.777Z</time></trkpt><trkpt lat="41.4618391" lon="1.4730131"><ele>625.25</ele><time>2026-04-05T08:02:00.776Z</time></trkpt><trkpt lat="41.4617981" lon="1.4728238"><ele>627.0</ele><time>2026-04-05T08:02:01.777Z</time></trkpt><trkpt lat="41.4617315" lon="1.4726279"><ele>629.3333333333334</ele><time>2026-04-05T08:02:02.776Z</time></trkpt><trkpt lat="41.4616546" lon="1.4724378"><ele>631.6666666666667</ele><time>2026-04-05T08:02:03.776Z</time></trkpt><trkpt lat="41.461584" lon="1.4722579"><ele>634.0</ele><time>2026-04-05T08:02:04.777Z</time></trkpt><trkpt lat="41.461524" lon="1.472095"><ele>636.2</ele><time>2026-04-05T08:02:05.776Z</time></trkpt><trkpt lat="41.4614695" lon="1.4719538"><ele>638.4</ele><time>2026-04-05T08:02:06.777Z</time></trkpt><trkpt lat="41.4614306" lon="1.4718345"><ele>640.6</ele><time>2026-04-05T08:02:07.776Z</time></trkpt><trkpt lat="41.4614168" lon="1.4717172"><ele>642.8</ele><time>2026-04-05T08:02:08.777Z</time></trkpt><trkpt lat="41.461426" lon="1.4715952"><ele>645.0</ele><time>2026-04-05T08:02:09.776Z</time></trkpt><trkpt lat="41.4614496" lon="1.4714735"><ele>645.0</ele><time>2026-04-05T08:02:10.776Z</time></trkpt><trkpt lat="41.4614547" lon="1.4713562"><ele>645.0</ele><time>2026-04-05T08:02:11.777Z</time></trkpt><trkpt lat="41.4614318" lon="1.4712544"><ele>645.0</ele><time>2026-04-05T08:02:12.777Z</time></trkpt><trkpt lat="41.4613747" lon="1.4711834"><ele>645.0</ele><time>2026-04-05T08:02:13.776Z</time></trkpt><trkpt lat="41.4612965" lon="1.4711456"><ele>645.0</ele><time>2026-04-05T08:02:14.776Z</time></trkpt><trkpt lat="41.4612083" lon="1.4711459"><ele>645.0</ele><time>2026-04-05T08:02:15.776Z</time></trkpt><trkpt lat="41.4611223" lon="1.4711544"><ele>645.4</ele><time>2026-04-05T08:02:16.776Z</time></trkpt><trkpt lat="41.4610515" lon="1.4711423"><ele>645.8</ele><time>2026-04-05T08:02:17.776Z</time></trkpt><trkpt lat="41.4609386" lon="1.4710822"><ele>646.2</ele><time>2026-04-05T08:02:19.776Z</time></trkpt><trkpt lat="41.4608891" lon="1.4710072"><ele>646.6</ele><time>2026-04-05T08:02:20.776Z</time></trkpt><trkpt lat="41.4608415" lon="1.4709004"><ele>647.0</ele><time>2026-04-05T08:02:21.776Z</time></trkpt><trkpt lat="41.460799" lon="1.4707562"><ele>647.0</ele><time>2026-04-05T08:02:22.777Z</time></trkpt><trkpt lat="41.460749" lon="1.4705928"><ele>647.0</ele><time>2026-04-05T08:02:23.776Z</time></trkpt><trkpt lat="41.4606835" lon="1.4703954"><ele>647.0</ele><time>2026-04-05T08:02:24.776Z</time></trkpt><trkpt lat="41.4606116" lon="1.4701951"><ele>649.3333333333333</ele><time>2026-04-05T08:02:25.777Z</time></trkpt><trkpt lat="41.4605306" lon="1.469963"><ele>651.6666666666666</ele><time>2026-04-05T08:02:26.777Z</time></trkpt><trkpt lat="41.4604341" lon="1.4697266"><ele>654.0</ele><time>2026-04-05T08:02:27.777Z</time></trkpt><trkpt lat="41.4603396" lon="1.4694994"><ele>654.0</ele><time>2026-04-05T08:02:28.776Z</time></trkpt><trkpt lat="41.4602453" lon="1.4692704"><ele>654.0</ele><time>2026-04-05T08:02:29.777Z</time></trkpt><trkpt lat="41.4601563" lon="1.4690436"><ele>654.0</ele><time>2026-04-05T08:02:30.776Z</time></trkpt><trkpt lat="41.460067" lon="1.4688255"><ele>656.0</ele><time>2026-04-05T08:02:31.777Z</time></trkpt><trkpt lat="41.4599809" lon="1.468616"><ele>658.0</ele><time>2026-04-05T08:02:32.776Z</time></trkpt><trkpt lat="41.4598925" lon="1.4684141"><ele>660.0</ele><time>2026-04-05T08:02:33.777Z</time></trkpt><trkpt lat="41.4598052" lon="1.4682252"><ele>660.0</ele><time>2026-04-05T08:02:34.777Z</time></trkpt><trkpt lat="41.4597087" lon="1.4680587"><ele>660.0</ele><time>2026-04-05T08:02:35.776Z</time></trkpt><trkpt lat="41.4596039" lon="1.4679007"><ele>660.0</ele><time>2026-04-05T08:02:36.777Z</time></trkpt><trkpt lat="41.4594786" lon="1.4677472"><ele>661.25</ele><time>2026-04-05T08:02:37.776Z</time></trkpt><trkpt lat="41.4593596" lon="1.4676073"><ele>662.5</ele><time>2026-04-05T08:02:38.776Z</time></trkpt><trkpt lat="41.4592578" lon="1.4674774"><ele>663.75</ele><time>2026-04-05T08:02:39.776Z</time></trkpt><trkpt lat="41.4591851" lon="1.4673485"><ele>665.0</ele><time>2026-04-05T08:02:40.776Z</time></trkpt><trkpt lat="41.4591509" lon="1.467203"><ele>665.75</ele><time>2026-04-05T08:02:41.776Z</time></trkpt><trkpt lat="41.459152" lon="1.4670329"><ele>666.5</ele><time>2026-04-05T08:02:42.776Z</time></trkpt><trkpt lat="41.4591745" lon="1.4668478"><ele>667.25</ele><time>2026-04-05T08:02:43.777Z</time></trkpt><trkpt lat="41.4592057" lon="1.4666423"><ele>668.0</ele><time>2026-04-05T08:02:44.776Z</time></trkpt><trkpt lat="41.4592405" lon="1.4664126"><ele>669.6666666666666</ele><time>2026-04-05T08:02:45.777Z</time></trkpt><trkpt lat="41.4592772" lon="1.4661676"><ele>671.3333333333334</ele><time>2026-04-05T08:02:46.777Z</time></trkpt><trkpt lat="41.4593007" lon="1.4659163"><ele>673.0</ele><time>2026-04-05T08:02:47.777Z</time></trkpt><trkpt lat="41.4593176" lon="1.465662"><ele>673.6666666666667</ele><time>2026-04-05T08:02:48.776Z</time></trkpt><trkpt lat="41.459334" lon="1.4654294"><ele>674.3333333333334</ele><time>2026-04-05T08:02:49.776Z</time></trkpt><trkpt lat="41.4593508" lon="1.4652204"><ele>675.0</ele><time>2026-04-05T08:02:50.777Z</time></trkpt><trkpt lat="41.459379" lon="1.4650229"><ele>675.0</ele><time>2026-04-05T08:02:51.776Z</time></trkpt><trkpt lat="41.4594232" lon="1.4648313"><ele>675.0</ele><time>2026-04-05T08:02:52.777Z</time></trkpt><trkpt lat="41.4594781" lon="1.4646561"><ele>675.0</ele><time>2026-04-05T08:02:53.776Z</time></trkpt><trkpt lat="41.4595311" lon="1.4644896"><ele>675.0</ele><time>2026-04-05T08:02:54.777Z</time></trkpt><trkpt lat="41.4595663" lon="1.4643225"><ele>676.6666666666666</ele><time>2026-04-05T08:02:55.776Z</time></trkpt><trkpt lat="41.4595787" lon="1.4641327"><ele>678.3333333333333</ele><time>2026-04-05T08:02:56.777Z</time></trkpt><trkpt lat="41.4595718" lon="1.4639332"><ele>680.0</ele><time>2026-04-05T08:02:57.776Z</time></trkpt><trkpt lat="41.4595478" lon="1.4637172"><ele>681.0</ele><time>2026-04-05T08:02:58.777Z</time></trkpt><trkpt lat="41.4595022" lon="1.4634781"><ele>682.0</ele><time>2026-04-05T08:02:59.777Z</time></trkpt><trkpt lat="41.4594458" lon="1.4632221"><ele>683.0</ele><time>2026-04-05T08:03:00.776Z</time></trkpt><trkpt lat="41.4593928" lon="1.4629581"><ele>683.6666666666666</ele><time>2026-04-05T08:03:01.777Z</time></trkpt><trkpt lat="41.4593337" lon="1.4626955"><ele>684.3333333333334</ele><time>2026-04-05T08:03:02.777Z</time></trkpt><trkpt lat="41.459278" lon="1.4624462"><ele>685.0</ele><time>2026-04-05T08:03:03.777Z</time></trkpt><trkpt lat="41.4592165" lon="1.4622157"><ele>686.0</ele><time>2026-04-05T08:03:04.776Z</time></trkpt><trkpt lat="41.4591555" lon="1.4619978"><ele>687.0</ele><time>2026-04-05T08:03:05.776Z</time></trkpt><trkpt lat="41.4590778" lon="1.4617855"><ele>688.0</ele><time>2026-04-05T08:03:06.776Z</time></trkpt><trkpt lat="41.4589914" lon="1.4615641"><ele>688.0</ele><time>2026-04-05T08:03:07.777Z</time></trkpt><trkpt lat="41.4589016" lon="1.4613272"><ele>688.0</ele><time>2026-04-05T08:03:08.776Z</time></trkpt><trkpt lat="41.4588005" lon="1.4610782"><ele>688.0</ele><time>2026-04-05T08:03:09.776Z</time></trkpt><trkpt lat="41.4587001" lon="1.4608254"><ele>689.6666666666667</ele><time>2026-04-05T08:03:10.776Z</time></trkpt><trkpt lat="41.4585987" lon="1.4605706"><ele>691.3333333333334</ele><time>2026-04-05T08:03:11.776Z</time></trkpt><trkpt lat="41.4584949" lon="1.4603037"><ele>693.0</ele><time>2026-04-05T08:03:12.777Z</time></trkpt><trkpt lat="41.4583921" lon="1.4600365"><ele>695.5</ele><time>2026-04-05T08:03:13.777Z</time></trkpt><trkpt lat="41.458287" lon="1.4597627"><ele>698.0</ele><time>2026-04-05T08:03:14.776Z</time></trkpt><trkpt lat="41.4581796" lon="1.4594818"><ele>700.0</ele><time>2026-04-05T08:03:15.777Z</time></trkpt><trkpt lat="41.4580747" lon="1.4592058"><ele>702.0</ele><time>2026-04-05T08:03:16.776Z</time></trkpt><trkpt lat="41.4579721" lon="1.4589367"><ele>706.0</ele><time>2026-04-05T08:03:17.776Z</time></trkpt><trkpt lat="41.4578707" lon="1.4586743"><ele>710.0</ele><time>2026-04-05T08:03:18.777Z</time></trkpt><trkpt lat="41.4577688" lon="1.4584016"><ele>710.0</ele><time>2026-04-05T08:03:19.777Z</time></trkpt><trkpt lat="41.4576641" lon="1.4581254"><ele>710.0</ele><time>2026-04-05T08:03:20.776Z</time></trkpt><trkpt lat="41.4575632" lon="1.4578617"><ele>711.0</ele><time>2026-04-05T08:03:21.776Z</time></trkpt><trkpt lat="41.4574687" lon="1.4576147"><ele>712.0</ele><time>2026-04-05T08:03:22.777Z</time></trkpt><trkpt lat="41.457378" lon="1.4573864"><ele>713.0</ele><time>2026-04-05T08:03:23.776Z</time></trkpt><trkpt lat="41.4572935" lon="1.4571706"><ele>714.3333333333333</ele><time>2026-04-05T08:03:24.776Z</time></trkpt><trkpt lat="41.4572103" lon="1.4569538"><ele>715.6666666666666</ele><time>2026-04-05T08:03:25.776Z</time></trkpt><trkpt lat="41.4571255" lon="1.4567364"><ele>717.0</ele><time>2026-04-05T08:03:26.777Z</time></trkpt><trkpt lat="41.4570457" lon="1.4565271"><ele>718.0</ele><time>2026-04-05T08:03:27.776Z</time></trkpt><trkpt lat="41.4569711" lon="1.4563305"><ele>719.0</ele><time>2026-04-05T08:03:28.777Z</time></trkpt><trkpt lat="41.456894" lon="1.4561334"><ele>720.0</ele><time>2026-04-05T08:03:29.776Z</time></trkpt><trkpt lat="41.4568074" lon="1.4559271"><ele>721.3333333333334</ele><time>2026-04-05T08:03:30.777Z</time></trkpt><trkpt lat="41.4567105" lon="1.4557098"><ele>722.6666666666667</ele><time>2026-04-05T08:03:31.776Z</time></trkpt><trkpt lat="41.45661" lon="1.4554774"><ele>724.0</ele><time>2026-04-05T08:03:32.777Z</time></trkpt><trkpt lat="41.4565064" lon="1.4552421"><ele>724.3333333333334</ele><time>2026-04-05T08:03:33.777Z</time></trkpt><trkpt lat="41.4564025" lon="1.4550122"><ele>724.6666666666666</ele><time>2026-04-05T08:03:34.777Z</time></trkpt><trkpt lat="41.4563017" lon="1.4547845"><ele>725.0</ele><time>2026-04-05T08:03:35.776Z</time></trkpt><trkpt lat="41.4562037" lon="1.4545707"><ele>725.6666666666666</ele><time>2026-04-05T08:03:36.776Z</time></trkpt><trkpt lat="41.456109" lon="1.454377"><ele>726.3333333333334</ele><time>2026-04-05T08:03:37.777Z</time></trkpt><trkpt lat="41.4560086" lon="1.4542085"><ele>727.0</ele><time>2026-04-05T08:03:38.777Z</time></trkpt><trkpt lat="41.4558874" lon="1.4540542"><ele>727.0</ele><time>2026-04-05T08:03:39.777Z</time></trkpt><trkpt lat="41.4557418" lon="1.4539074"><ele>727.0</ele><time>2026-04-05T08:03:40.777Z</time></trkpt><trkpt lat="41.4555882" lon="1.453777"><ele>727.0</ele><time>2026-04-05T08:03:41.776Z</time></trkpt><trkpt lat="41.4554372" lon="1.4536464"><ele>726.3333333333334</ele><time>2026-04-05T08:03:42.776Z</time></trkpt><trkpt lat="41.4552929" lon="1.4535057"><ele>725.6666666666666</ele><time>2026-04-05T08:03:43.776Z</time></trkpt><trkpt lat="41.4551593" lon="1.4533516"><ele>725.0</ele><time>2026-04-05T08:03:44.777Z</time></trkpt><trkpt lat="41.4550282" lon="1.4531919"><ele>725.0</ele><time>2026-04-05T08:03:45.776Z</time></trkpt><trkpt lat="41.4548968" lon="1.4530299"><ele>725.0</ele><time>2026-04-05T08:03:46.776Z</time></trkpt><trkpt lat="41.4547677" lon="1.452872"><ele>725.0</ele><time>2026-04-05T08:03:47.777Z</time></trkpt><trkpt lat="41.4546351" lon="1.4527135"><ele>725.0</ele><time>2026-04-05T08:03:48.776Z</time></trkpt><trkpt lat="41.4545003" lon="1.4525525"><ele>725.0</ele><time>2026-04-05T08:03:49.776Z</time></trkpt><trkpt lat="41.4543673" lon="1.4523831"><ele>725.0</ele><time>2026-04-05T08:03:50.776Z</time></trkpt><trkpt lat="41.4542309" lon="1.452205"><ele>725.0</ele><time>2026-04-05T08:03:51.777Z</time></trkpt><trkpt lat="41.4540921" lon="1.4520159"><ele>725.0</ele><time>2026-04-05T08:03:52.777Z</time></trkpt><trkpt lat="41.4539486" lon="1.4518107"><ele>725.0</ele><time>2026-04-05T08:03:53.777Z</time></trkpt><trkpt lat="41.4538156" lon="1.4516001"><ele>724.0</ele><time>2026-04-05T08:03:54.777Z</time></trkpt><trkpt lat="41.453673" lon="1.4513799"><ele>723.0</ele><time>2026-04-05T08:03:55.776Z</time></trkpt><trkpt lat="41.4535284" lon="1.4511483"><ele>722.0</ele><time>2026-04-05T08:03:56.776Z</time></trkpt><trkpt lat="41.4533831" lon="1.4509234"><ele>721.0</ele><time>2026-04-05T08:03:57.777Z</time></trkpt><trkpt lat="41.4532417" lon="1.4506952"><ele>720.0</ele><time>2026-04-05T08:03:58.776Z</time></trkpt><trkpt lat="41.4531072" lon="1.450468"><ele>719.0</ele><time>2026-04-05T08:03:59.776Z</time></trkpt><trkpt lat="41.4529806" lon="1.4502577"><ele>717.0</ele><time>2026-04-05T08:04:00.776Z</time></trkpt><trkpt lat="41.4528589" lon="1.4500624"><ele>715.0</ele><time>2026-04-05T08:04:01.777Z</time></trkpt><trkpt lat="41.4527348" lon="1.4498931"><ele>713.0</ele><time>2026-04-05T08:04:02.776Z</time></trkpt><trkpt lat="41.4525975" lon="1.4497577"><ele>713.0</ele><time>2026-04-05T08:04:03.777Z</time></trkpt><trkpt lat="41.4524401" lon="1.4496567"><ele>713.0</ele><time>2026-04-05T08:04:04.777Z</time></trkpt><trkpt lat="41.4522633" lon="1.4495774"><ele>713.0</ele><time>2026-04-05T08:04:05.777Z</time></trkpt><trkpt lat="41.4520777" lon="1.4494955"><ele>712.0</ele><time>2026-04-05T08:04:06.777Z</time></trkpt><trkpt lat="41.4518947" lon="1.4494083"><ele>711.0</ele><time>2026-04-05T08:04:07.776Z</time></trkpt><trkpt lat="41.4517223" lon="1.4493195"><ele>710.0</ele><time>2026-04-05T08:04:08.776Z</time></trkpt><trkpt lat="41.4515551" lon="1.4492355"><ele>710.0</ele><time>2026-04-05T08:04:09.776Z</time></trkpt><trkpt lat="41.4513905" lon="1.4491537"><ele>710.0</ele><time>2026-04-05T08:04:10.777Z</time></trkpt><trkpt lat="41.4512165" lon="1.4490797"><ele>710.0</ele><time>2026-04-05T08:04:11.777Z</time></trkpt><trkpt lat="41.4510358" lon="1.449017"><ele>709.3333333333333</ele><time>2026-04-05T08:04:12.777Z</time></trkpt><trkpt lat="41.4508485" lon="1.4489601"><ele>708.6666666666666</ele><time>2026-04-05T08:04:13.777Z</time></trkpt><trkpt lat="41.4506661" lon="1.4488962"><ele>708.0</ele><time>2026-04-05T08:04:14.777Z</time></trkpt><trkpt lat="41.4504897" lon="1.4488181"><ele>706.0</ele><time>2026-04-05T08:04:15.776Z</time></trkpt><trkpt lat="41.4503209" lon="1.4487245"><ele>704.0</ele><time>2026-04-05T08:04:16.776Z</time></trkpt><trkpt lat="41.4501614" lon="1.4486187"><ele>702.0</ele><time>2026-04-05T08:04:17.777Z</time></trkpt><trkpt lat="41.449998" lon="1.448518"><ele>702.0</ele><time>2026-04-05T08:04:18.777Z</time></trkpt><trkpt lat="41.4498385" lon="1.4484247"><ele>702.0</ele><time>2026-04-05T08:04:19.777Z</time></trkpt><trkpt lat="41.4496872" lon="1.4483314"><ele>702.0</ele><time>2026-04-05T08:04:20.776Z</time></trkpt><trkpt lat="41.4495363" lon="1.4482374"><ele>701.0</ele><time>2026-04-05T08:04:21.776Z</time></trkpt><trkpt lat="41.4493885" lon="1.4481425"><ele>700.0</ele><time>2026-04-05T08:04:22.777Z</time></trkpt><trkpt lat="41.4492615" lon="1.4480655"><ele>699.0</ele><time>2026-04-05T08:04:23.776Z</time></trkpt><trkpt lat="41.4491556" lon="1.4479927"><ele>698.0</ele><time>2026-04-05T08:04:24.777Z</time></trkpt><trkpt lat="41.4490587" lon="1.4479214"><ele>697.75</ele><time>2026-04-05T08:04:25.776Z</time></trkpt><trkpt lat="41.4489744" lon="1.4478223"><ele>697.5</ele><time>2026-04-05T08:04:26.777Z</time></trkpt><trkpt lat="41.4489117" lon="1.4476883"><ele>697.25</ele><time>2026-04-05T08:04:27.777Z</time></trkpt><trkpt lat="41.4488695" lon="1.4475224"><ele>697.0</ele><time>2026-04-05T08:04:28.776Z</time></trkpt><trkpt lat="41.4488401" lon="1.4473387"><ele>697.0</ele><time>2026-04-05T08:04:29.776Z</time></trkpt><trkpt lat="41.4488004" lon="1.4471624"><ele>697.0</ele><time>2026-04-05T08:04:30.776Z</time></trkpt><trkpt lat="41.4487302" lon="1.4470044"><ele>697.0</ele><time>2026-04-05T08:04:31.777Z</time></trkpt><trkpt lat="41.4486386" lon="1.4468592"><ele>697.0</ele><time>2026-04-05T08:04:32.776Z</time></trkpt><trkpt lat="41.4485554" lon="1.4467006"><ele>696.0</ele><time>2026-04-05T08:04:33.777Z</time></trkpt><trkpt lat="41.4484849" lon="1.4465305"><ele>695.0</ele><time>2026-04-05T08:04:34.776Z</time></trkpt><trkpt lat="41.4484119" lon="1.446364"><ele>694.0</ele><time>2026-04-05T08:04:35.776Z</time></trkpt><trkpt lat="41.4483294" lon="1.4462143"><ele>693.0</ele><time>2026-04-05T08:04:36.776Z</time></trkpt><trkpt lat="41.4482276" lon="1.446087"><ele>693.0</ele><time>2026-04-05T08:04:37.776Z</time></trkpt><trkpt lat="41.4481123" lon="1.4459858"><ele>693.0</ele><time>2026-04-05T08:04:38.777Z</time></trkpt><trkpt lat="41.4479959" lon="1.4458837"><ele>693.0</ele><time>2026-04-05T08:04:39.777Z</time></trkpt><trkpt lat="41.4478861" lon="1.445791"><ele>693.0</ele><time>2026-04-05T08:04:40.776Z</time></trkpt><trkpt lat="41.4477981" lon="1.4457086"><ele>692.0</ele><time>2026-04-05T08:04:41.776Z</time></trkpt><trkpt lat="41.4477344" lon="1.4456198"><ele>691.0</ele><time>2026-04-05T08:04:42.776Z</time></trkpt><trkpt lat="41.4476958" lon="1.445506"><ele>690.0</ele><time>2026-04-05T08:04:43.776Z</time></trkpt><trkpt lat="41.4476605" lon="1.4453935"><ele>689.0</ele><time>2026-04-05T08:04:44.777Z</time></trkpt><trkpt lat="41.4476444" lon="1.4452038"><ele>688.0</ele><time>2026-04-05T08:04:45.776Z</time></trkpt><trkpt lat="41.4476003" lon="1.4450385"><ele>688.5</ele><time>2026-04-05T08:04:46.776Z</time></trkpt><trkpt lat="41.44753" lon="1.4448812"><ele>689.0</ele><time>2026-04-05T08:04:47.777Z</time></trkpt><trkpt lat="41.4474431" lon="1.4447506"><ele>689.5</ele><time>2026-04-05T08:04:48.776Z</time></trkpt><trkpt lat="41.4473529" lon="1.444638"><ele>690.0</ele><time>2026-04-05T08:04:49.776Z</time></trkpt><trkpt lat="41.4472831" lon="1.4444991"><ele>690.0</ele><time>2026-04-05T08:04:50.776Z</time></trkpt><trkpt lat="41.4472137" lon="1.4443489"><ele>690.0</ele><time>2026-04-05T08:04:51.776Z</time></trkpt><trkpt lat="41.4471917" lon="1.4441628"><ele>690.0</ele><time>2026-04-05T08:04:52.777Z</time></trkpt><trkpt lat="41.447162" lon="1.443988"><ele>690.0</ele><time>2026-04-05T08:04:53.776Z</time></trkpt><trkpt lat="41.4471243" lon="1.4438261"><ele>688.5</ele><time>2026-04-05T08:04:54.776Z</time></trkpt><trkpt lat="41.4470697" lon="1.443678"><ele>687.0</ele><time>2026-04-05T08:04:55.776Z</time></trkpt><trkpt lat="41.4469902" lon="1.4435475"><ele>685.5</ele><time>2026-04-05T08:04:56.777Z</time></trkpt><trkpt lat="41.4468985" lon="1.4434219"><ele>684.0</ele><time>2026-04-05T08:04:57.776Z</time></trkpt><trkpt lat="41.4468005" lon="1.4433012"><ele>684.0</ele><time>2026-04-05T08:04:58.776Z</time></trkpt><trkpt lat="41.4466947" lon="1.4431885"><ele>684.0</ele><time>2026-04-05T08:04:59.776Z</time></trkpt><trkpt lat="41.4465683" lon="1.44311"><ele>684.0</ele><time>2026-04-05T08:05:00.777Z</time></trkpt><trkpt lat="41.4464453" lon="1.4430421"><ele>684.0</ele><time>2026-04-05T08:05:01.777Z</time></trkpt><trkpt lat="41.4463029" lon="1.4430034"><ele>682.75</ele><time>2026-04-05T08:05:02.777Z</time></trkpt><trkpt lat="41.4461545" lon="1.4429599"><ele>681.5</ele><time>2026-04-05T08:05:03.776Z</time></trkpt><trkpt lat="41.4460144" lon="1.4429115"><ele>680.25</ele><time>2026-04-05T08:05:04.776Z</time></trkpt><trkpt lat="41.4458799" lon="1.4428533"><ele>679.0</ele><time>2026-04-05T08:05:05.777Z</time></trkpt><trkpt lat="41.4457576" lon="1.4427713"><ele>679.0</ele><time>2026-04-05T08:05:06.776Z</time></trkpt><trkpt lat="41.4456555" lon="1.4426645"><ele>679.0</ele><time>2026-04-05T08:05:07.777Z</time></trkpt><trkpt lat="41.4455634" lon="1.4425406"><ele>679.0</ele><time>2026-04-05T08:05:08.777Z</time></trkpt><trkpt lat="41.4454653" lon="1.4423993"><ele>679.0</ele><time>2026-04-05T08:05:09.776Z</time></trkpt><trkpt lat="41.4453681" lon="1.4422628"><ele>674.25</ele><time>2026-04-05T08:05:10.777Z</time></trkpt><trkpt lat="41.4452747" lon="1.4421297"><ele>669.5</ele><time>2026-04-05T08:05:11.776Z</time></trkpt><trkpt lat="41.4451798" lon="1.4420084"><ele>664.75</ele><time>2026-04-05T08:05:12.777Z</time></trkpt><trkpt lat="41.4450902" lon="1.4418949"><ele>660.0</ele><time>2026-04-05T08:05:13.776Z</time></trkpt><trkpt lat="41.4450137" lon="1.4417767"><ele>660.0</ele><time>2026-04-05T08:05:14.777Z</time></trkpt><trkpt lat="41.4449661" lon="1.441648"><ele>660.0</ele><time>2026-04-05T08:05:15.777Z</time></trkpt><trkpt lat="41.4449508" lon="1.4415088"><ele>660.0</ele><time>2026-04-05T08:05:16.777Z</time></trkpt><trkpt lat="41.4449606" lon="1.4413623"><ele>660.0</ele><time>2026-04-05T08:05:17.777Z</time></trkpt><trkpt lat="41.4449596" lon="1.4412245"><ele>660.0</ele><time>2026-04-05T08:05:18.777Z</time></trkpt><trkpt lat="41.444922" lon="1.4411069"><ele>661.0</ele><time>2026-04-05T08:05:19.776Z</time></trkpt><trkpt lat="41.4448473" lon="1.4409901"><ele>662.0</ele><time>2026-04-05T08:05:20.776Z</time></trkpt><trkpt lat="41.444749" lon="1.4408737"><ele>663.0</ele><time>2026-04-05T08:05:21.777Z</time></trkpt><trkpt lat="41.4446343" lon="1.4407844"><ele>664.0</ele><time>2026-04-05T08:05:22.776Z</time></trkpt><trkpt lat="41.444512" lon="1.4407212"><ele>662.0</ele><time>2026-04-05T08:05:23.776Z</time></trkpt><trkpt lat="41.4444018" lon="1.4406473"><ele>660.0</ele><time>2026-04-05T08:05:24.777Z</time></trkpt><trkpt lat="41.4443206" lon="1.4405298"><ele>658.0</ele><time>2026-04-05T08:05:25.777Z</time></trkpt><trkpt lat="41.4442439" lon="1.4403836"><ele>656.0</ele><time>2026-04-05T08:05:26.777Z</time></trkpt><trkpt lat="41.4441792" lon="1.4402411"><ele>655.5</ele><time>2026-04-05T08:05:27.777Z</time></trkpt><trkpt lat="41.4441506" lon="1.4400925"><ele>655.0</ele><time>2026-04-05T08:05:28.777Z</time></trkpt><trkpt lat="41.4441649" lon="1.4399447"><ele>654.5</ele><time>2026-04-05T08:05:29.777Z</time></trkpt><trkpt lat="41.4442187" lon="1.4398047"><ele>654.0</ele><time>2026-04-05T08:05:30.777Z</time></trkpt><trkpt lat="41.4443036" lon="1.4396944"><ele>651.75</ele><time>2026-04-05T08:05:31.777Z</time></trkpt><trkpt lat="41.4444054" lon="1.4395935"><ele>649.5</ele><time>2026-04-05T08:05:32.776Z</time></trkpt><trkpt lat="41.4444926" lon="1.4394895"><ele>647.25</ele><time>2026-04-05T08:05:33.777Z</time></trkpt><trkpt lat="41.4445584" lon="1.4393124"><ele>645.0</ele><time>2026-04-05T08:05:34.776Z</time></trkpt><trkpt lat="41.4446135" lon="1.4391243"><ele>646.6</ele><time>2026-04-05T08:05:35.776Z</time></trkpt><trkpt lat="41.4446613" lon="1.4389459"><ele>648.2</ele><time>2026-04-05T08:05:36.777Z</time></trkpt><trkpt lat="41.4447074" lon="1.4388036"><ele>649.8</ele><time>2026-04-05T08:05:37.777Z</time></trkpt><trkpt lat="41.4447539" lon="1.4387003"><ele>651.4</ele><time>2026-04-05T08:05:38.777Z</time></trkpt><trkpt lat="41.4448109" lon="1.4386407"><ele>653.0</ele><time>2026-04-05T08:05:39.777Z</time></trkpt><trkpt lat="41.4448863" lon="1.4386133"><ele>653.0</ele><time>2026-04-05T08:05:40.776Z</time></trkpt><trkpt lat="41.4449859" lon="1.4386037"><ele>653.0</ele><time>2026-04-05T08:05:41.777Z</time></trkpt><trkpt lat="41.445085" lon="1.4386059"><ele>653.0</ele><time>2026-04-05T08:05:42.777Z</time></trkpt><trkpt lat="41.4451807" lon="1.438604"><ele>653.0</ele><time>2026-04-05T08:05:43.777Z</time></trkpt><trkpt lat="41.4452619" lon="1.4385827"><ele>653.0</ele><time>2026-04-05T08:05:44.776Z</time></trkpt><trkpt lat="41.4453289" lon="1.4385357"><ele>653.0</ele><time>2026-04-05T08:05:45.777Z</time></trkpt><trkpt lat="41.4453742" lon="1.438461"><ele>653.0</ele><time>2026-04-05T08:05:46.776Z</time></trkpt><trkpt lat="41.4453896" lon="1.438364"><ele>653.0</ele><time>2026-04-05T08:05:47.777Z</time></trkpt><trkpt lat="41.4453726" lon="1.4382574"><ele>653.0</ele><time>2026-04-05T08:05:48.776Z</time></trkpt><trkpt lat="41.4453485" lon="1.438161"><ele>653.0</ele><time>2026-04-05T08:05:49.777Z</time></trkpt><trkpt lat="41.4452327" lon="1.4380161"><ele>653.25</ele><time>2026-04-05T08:05:50.776Z</time></trkpt><trkpt lat="41.4451582" lon="1.4378905"><ele>653.5</ele><time>2026-04-05T08:05:51.777Z</time></trkpt><trkpt lat="41.4450459" lon="1.437743"><ele>653.75</ele><time>2026-04-05T08:05:52.776Z</time></trkpt><trkpt lat="41.4449646" lon="1.4376143"><ele>654.0</ele><time>2026-04-05T08:05:53.776Z</time></trkpt><trkpt lat="41.4449182" lon="1.4374856"><ele>654.0</ele><time>2026-04-05T08:05:54.777Z</time></trkpt><trkpt lat="41.4449129" lon="1.4373549"><ele>654.0</ele><time>2026-04-05T08:05:55.777Z</time></trkpt><trkpt lat="41.4449196" lon="1.4372294"><ele>654.0</ele><time>2026-04-05T08:05:56.777Z</time></trkpt><trkpt lat="41.4449435" lon="1.4370955"><ele>654.0</ele><time>2026-04-05T08:05:57.777Z</time></trkpt><trkpt lat="41.4449238" lon="1.4369425"><ele>654.0</ele><time>2026-04-05T08:05:58.777Z</time></trkpt><trkpt lat="41.444893" lon="1.43678"><ele>654.5</ele><time>2026-04-05T08:05:59.776Z</time></trkpt><trkpt lat="41.4448518" lon="1.4366184"><ele>655.0</ele><time>2026-04-05T08:06:00.776Z</time></trkpt><trkpt lat="41.4448395" lon="1.4364484"><ele>655.5</ele><time>2026-04-05T08:06:01.777Z</time></trkpt><trkpt lat="41.4448592" lon="1.4362702"><ele>656.0</ele><time>2026-04-05T08:06:02.776Z</time></trkpt><trkpt lat="41.4448989" lon="1.4360874"><ele>655.0</ele><time>2026-04-05T08:06:03.776Z</time></trkpt><trkpt lat="41.4449285" lon="1.4359001"><ele>654.0</ele><time>2026-04-05T08:06:04.777Z</time></trkpt><trkpt lat="41.4449507" lon="1.4357122"><ele>653.0</ele><time>2026-04-05T08:06:05.776Z</time></trkpt><trkpt lat="41.4449677" lon="1.4355316"><ele>652.0</ele><time>2026-04-05T08:06:06.777Z</time></trkpt><trkpt lat="41.4450025" lon="1.435357"><ele>648.75</ele><time>2026-04-05T08:06:07.776Z</time></trkpt><trkpt lat="41.4450629" lon="1.4351874"><ele>645.5</ele><time>2026-04-05T08:06:08.777Z</time></trkpt><trkpt lat="41.4451289" lon="1.4350188"><ele>642.25</ele><time>2026-04-05T08:06:09.777Z</time></trkpt><trkpt lat="41.4451902" lon="1.4348528"><ele>639.0</ele><time>2026-04-05T08:06:10.776Z</time></trkpt><trkpt lat="41.4452491" lon="1.4346964"><ele>641.5</ele><time>2026-04-05T08:06:11.776Z</time></trkpt><trkpt lat="41.445309" lon="1.43455"><ele>644.0</ele><time>2026-04-05T08:06:12.777Z</time></trkpt><trkpt lat="41.4453692" lon="1.4344102"><ele>646.5</ele><time>2026-04-05T08:06:13.777Z</time></trkpt><trkpt lat="41.4454322" lon="1.4342929"><ele>649.0</ele><time>2026-04-05T08:06:14.777Z</time></trkpt><trkpt lat="41.4455124" lon="1.4342079"><ele>649.0</ele><time>2026-04-05T08:06:15.776Z</time></trkpt><trkpt lat="41.4456044" lon="1.4341728"><ele>649.0</ele><time>2026-04-05T08:06:16.776Z</time></trkpt><trkpt lat="41.4457154" lon="1.4341748"><ele>649.0</ele><time>2026-04-05T08:06:17.777Z</time></trkpt><trkpt lat="41.4458186" lon="1.4341784"><ele>649.0</ele><time>2026-04-05T08:06:18.777Z</time></trkpt><trkpt lat="41.4459071" lon="1.4341386"><ele>649.0</ele><time>2026-04-05T08:06:19.777Z</time></trkpt><trkpt lat="41.4459786" lon="1.4340479"><ele>649.0</ele><time>2026-04-05T08:06:20.777Z</time></trkpt><trkpt lat="41.4460367" lon="1.4339157"><ele>649.0</ele><time>2026-04-05T08:06:21.776Z</time></trkpt><trkpt lat="41.446084" lon="1.4337702"><ele>649.0</ele><time>2026-04-05T08:06:22.777Z</time></trkpt><trkpt lat="41.4460978" lon="1.4336175"><ele>649.0</ele><time>2026-04-05T08:06:23.776Z</time></trkpt><trkpt lat="41.4460797" lon="1.4334598"><ele>645.25</ele><time>2026-04-05T08:06:24.777Z</time></trkpt><trkpt lat="41.4460358" lon="1.4332795"><ele>641.5</ele><time>2026-04-05T08:06:25.776Z</time></trkpt><trkpt lat="41.4459825" lon="1.433103"><ele>637.75</ele><time>2026-04-05T08:06:26.777Z</time></trkpt><trkpt lat="41.4459352" lon="1.4329408"><ele>634.0</ele><time>2026-04-05T08:06:27.776Z</time></trkpt><trkpt lat="41.4459118" lon="1.4327823"><ele>633.0</ele><time>2026-04-05T08:06:28.776Z</time></trkpt><trkpt lat="41.4459209" lon="1.4326303"><ele>632.0</ele><time>2026-04-05T08:06:29.776Z</time></trkpt><trkpt lat="41.4459569" lon="1.4324823"><ele>631.0</ele><time>2026-04-05T08:06:30.777Z</time></trkpt><trkpt lat="41.4460047" lon="1.4323411"><ele>630.0</ele><time>2026-04-05T08:06:31.777Z</time></trkpt><trkpt lat="41.4461058" lon="1.432186"><ele>628.25</ele><time>2026-04-05T08:06:32.777Z</time></trkpt><trkpt lat="41.4461923" lon="1.4320368"><ele>626.5</ele><time>2026-04-05T08:06:33.777Z</time></trkpt><trkpt lat="41.4462824" lon="1.4318875"><ele>624.75</ele><time>2026-04-05T08:06:34.776Z</time></trkpt><trkpt lat="41.4463689" lon="1.4317448"><ele>623.0</ele><time>2026-04-05T08:06:35.776Z</time></trkpt><trkpt lat="41.4464534" lon="1.4316137"><ele>627.8</ele><time>2026-04-05T08:06:36.776Z</time></trkpt><trkpt lat="41.4465257" lon="1.4314866"><ele>632.5999999999999</ele><time>2026-04-05T08:06:37.776Z</time></trkpt><trkpt lat="41.4465755" lon="1.4313747"><ele>637.4000000000001</ele><time>2026-04-05T08:06:38.777Z</time></trkpt><trkpt lat="41.4465831" lon="1.4312648"><ele>642.2</ele><time>2026-04-05T08:06:39.777Z</time></trkpt><trkpt lat="41.4465645" lon="1.4311626"><ele>647.0</ele><time>2026-04-05T08:06:40.777Z</time></trkpt><trkpt lat="41.4465166" lon="1.4310812"><ele>647.0</ele><time>2026-04-05T08:06:41.776Z</time></trkpt><trkpt lat="41.4464426" lon="1.431032"><ele>647.0</ele><time>2026-04-05T08:06:42.776Z</time></trkpt><trkpt lat="41.4463746" lon="1.431012"><ele>647.0</ele><time>2026-04-05T08:06:43.777Z</time></trkpt><trkpt lat="41.4462592" lon="1.4310307"><ele>647.0</ele><time>2026-04-05T08:06:44.777Z</time></trkpt><trkpt lat="41.4461653" lon="1.4310267"><ele>647.0</ele><time>2026-04-05T08:06:45.776Z</time></trkpt><trkpt lat="41.4460846" lon="1.4309675"><ele>643.2</ele><time>2026-04-05T08:06:46.777Z</time></trkpt><trkpt lat="41.4460379" lon="1.4308668"><ele>639.4000000000001</ele><time>2026-04-05T08:06:47.777Z</time></trkpt><trkpt lat="41.4460142" lon="1.4307395"><ele>635.5999999999999</ele><time>2026-04-05T08:06:48.776Z</time></trkpt><trkpt lat="41.4460123" lon="1.4305846"><ele>631.8</ele><time>2026-04-05T08:06:49.776Z</time></trkpt><trkpt lat="41.4460096" lon="1.4304193"><ele>628.0</ele><time>2026-04-05T08:06:50.776Z</time></trkpt><trkpt lat="41.4459902" lon="1.4302371"><ele>628.0</ele><time>2026-04-05T08:06:51.776Z</time></trkpt><trkpt lat="41.4459426" lon="1.4300451"><ele>628.0</ele><time>2026-04-05T08:06:52.776Z</time></trkpt><trkpt lat="41.445875" lon="1.4298548"><ele>628.0</ele><time>2026-04-05T08:06:53.776Z</time></trkpt><trkpt lat="41.4457909" lon="1.4296603"><ele>628.75</ele><time>2026-04-05T08:06:54.777Z</time></trkpt><trkpt lat="41.4457197" lon="1.4294741"><ele>629.5</ele><time>2026-04-05T08:06:55.776Z</time></trkpt><trkpt lat="41.4456634" lon="1.4292996"><ele>630.25</ele><time>2026-04-05T08:06:56.777Z</time></trkpt><trkpt lat="41.4456605" lon="1.4291303"><ele>631.0</ele><time>2026-04-05T08:06:57.776Z</time></trkpt><trkpt lat="41.4456778" lon="1.4289646"><ele>631.0</ele><time>2026-04-05T08:06:58.777Z</time></trkpt><trkpt lat="41.4457331" lon="1.4288107"><ele>631.0</ele><time>2026-04-05T08:06:59.776Z</time></trkpt><trkpt lat="41.4457788" lon="1.4286671"><ele>631.0</ele><time>2026-04-05T08:07:00.776Z</time></trkpt><trkpt lat="41.4457942" lon="1.4285178"><ele>631.0</ele><time>2026-04-05T08:07:01.777Z</time></trkpt><trkpt lat="41.4457667" lon="1.4283825"><ele>630.2</ele><time>2026-04-05T08:07:02.777Z</time></trkpt><trkpt lat="41.4457189" lon="1.4282618"><ele>629.4000000000001</ele><time>2026-04-05T08:07:03.777Z</time></trkpt><trkpt lat="41.4456806" lon="1.4281386"><ele>628.6</ele><time>2026-04-05T08:07:04.776Z</time></trkpt><trkpt lat="41.4456844" lon="1.4280143"><ele>627.8000000000001</ele><time>2026-04-05T08:07:05.776Z</time></trkpt><trkpt lat="41.4457295" lon="1.4278745"><ele>627.0</ele><time>2026-04-05T08:07:06.776Z</time></trkpt><trkpt lat="41.4457711" lon="1.4277189"><ele>625.5</ele><time>2026-04-05T08:07:07.777Z</time></trkpt><trkpt lat="41.4457812" lon="1.4275522"><ele>624.0</ele><time>2026-04-05T08:07:08.777Z</time></trkpt><trkpt lat="41.4457673" lon="1.4273849"><ele>622.5</ele><time>2026-04-05T08:07:09.776Z</time></trkpt><trkpt lat="41.4457227" lon="1.4272387"><ele>621.0</ele><time>2026-04-05T08:07:10.776Z</time></trkpt><trkpt lat="41.4456515" lon="1.4271221"><ele>621.0</ele><time>2026-04-05T08:07:11.776Z</time></trkpt><trkpt lat="41.4455875" lon="1.4270049"><ele>621.0</ele><time>2026-04-05T08:07:12.776Z</time></trkpt><trkpt lat="41.4455545" lon="1.4268623"><ele>621.0</ele><time>2026-04-05T08:07:13.776Z</time></trkpt><trkpt lat="41.4455529" lon="1.4267012"><ele>621.0</ele><time>2026-04-05T08:07:14.777Z</time></trkpt><trkpt lat="41.4455829" lon="1.4265406"><ele>621.0</ele><time>2026-04-05T08:07:15.776Z</time></trkpt><trkpt lat="41.4456268" lon="1.4263806"><ele>621.0</ele><time>2026-04-05T08:07:16.777Z</time></trkpt><trkpt lat="41.4456619" lon="1.4262295"><ele>621.0</ele><time>2026-04-05T08:07:17.776Z</time></trkpt><trkpt lat="41.4456796" lon="1.4260821"><ele>621.0</ele><time>2026-04-05T08:07:18.777Z</time></trkpt><trkpt lat="41.4456576" lon="1.4259408"><ele>621.0</ele><time>2026-04-05T08:07:19.776Z</time></trkpt><trkpt lat="41.4456036" lon="1.4257908"><ele>621.0</ele><time>2026-04-05T08:07:20.777Z</time></trkpt><trkpt lat="41.4455456" lon="1.4256374"><ele>621.0</ele><time>2026-04-05T08:07:21.777Z</time></trkpt><trkpt lat="41.4455143" lon="1.4254702"><ele>621.0</ele><time>2026-04-05T08:07:22.776Z</time></trkpt><trkpt lat="41.4454894" lon="1.4253118"><ele>616.0</ele><time>2026-04-05T08:07:23.776Z</time></trkpt><trkpt lat="41.4454364" lon="1.425165"><ele>611.0</ele><time>2026-04-05T08:07:24.776Z</time></trkpt><trkpt lat="41.4453477" lon="1.4250078"><ele>606.0</ele><time>2026-04-05T08:07:25.777Z</time></trkpt><trkpt lat="41.4452382" lon="1.424853"><ele>601.0</ele><time>2026-04-05T08:07:26.776Z</time></trkpt><trkpt lat="41.4451135" lon="1.4246797"><ele>605.0</ele><time>2026-04-05T08:07:27.776Z</time></trkpt><trkpt lat="41.4449878" lon="1.4245066"><ele>609.0</ele><time>2026-04-05T08:07:28.777Z</time></trkpt><trkpt lat="41.444862" lon="1.4243334"><ele>613.0</ele><time>2026-04-05T08:07:29.776Z</time></trkpt><trkpt lat="41.4447258" lon="1.4241806"><ele>608.3333333333334</ele><time>2026-04-05T08:07:30.776Z</time></trkpt><trkpt lat="41.4445755" lon="1.4240474"><ele>603.6666666666666</ele><time>2026-04-05T08:07:31.776Z</time></trkpt><trkpt lat="41.4444309" lon="1.4239233"><ele>599.0</ele><time>2026-04-05T08:07:32.776Z</time></trkpt><trkpt lat="41.4443022" lon="1.4238037"><ele>599.0</ele><time>2026-04-05T08:07:33.776Z</time></trkpt><trkpt lat="41.4441915" lon="1.4236987"><ele>599.0</ele><time>2026-04-05T08:07:34.776Z</time></trkpt><trkpt lat="41.4441122" lon="1.423601"><ele>599.0</ele><time>2026-04-05T08:07:35.777Z</time></trkpt><trkpt lat="41.4440684" lon="1.4234897"><ele>599.0</ele><time>2026-04-05T08:07:36.776Z</time></trkpt><trkpt lat="41.4440568" lon="1.4233726"><ele>599.0</ele><time>2026-04-05T08:07:37.776Z</time></trkpt><trkpt lat="41.444083" lon="1.4232303"><ele>599.0</ele><time>2026-04-05T08:07:38.776Z</time></trkpt><trkpt lat="41.4441159" lon="1.4230763"><ele>599.0</ele><time>2026-04-05T08:07:39.776Z</time></trkpt><trkpt lat="41.4441165" lon="1.4229223"><ele>599.0</ele><time>2026-04-05T08:07:40.777Z</time></trkpt><trkpt lat="41.4440868" lon="1.4227433"><ele>599.0</ele><time>2026-04-05T08:07:41.776Z</time></trkpt><trkpt lat="41.4440448" lon="1.4225535"><ele>599.0</ele><time>2026-04-05T08:07:42.776Z</time></trkpt><trkpt lat="41.4440144" lon="1.4223884"><ele>599.0</ele><time>2026-04-05T08:07:43.777Z</time></trkpt><trkpt lat="41.4440122" lon="1.4222403"><ele>599.0</ele><time>2026-04-05T08:07:44.777Z</time></trkpt><trkpt lat="41.4440446" lon="1.4221069"><ele>599.0</ele><time>2026-04-05T08:07:45.776Z</time></trkpt><trkpt lat="41.4440715" lon="1.4219767"><ele>599.0</ele><time>2026-04-05T08:07:46.776Z</time></trkpt><trkpt lat="41.4440669" lon="1.4218502"><ele>600.2</ele><time>2026-04-05T08:07:47.776Z</time></trkpt><trkpt lat="41.4440527" lon="1.4217389"><ele>601.4</ele><time>2026-04-05T08:07:48.777Z</time></trkpt><trkpt lat="41.4439789" lon="1.4216567"><ele>602.6</ele><time>2026-04-05T08:07:49.777Z</time></trkpt><trkpt lat="41.4438905" lon="1.4215924"><ele>603.8</ele><time>2026-04-05T08:07:50.777Z</time></trkpt><trkpt lat="41.4437693" lon="1.4215364"><ele>605.0</ele><time>2026-04-05T08:07:51.777Z</time></trkpt><trkpt lat="41.4436604" lon="1.421462"><ele>601.0</ele><time>2026-04-05T08:07:52.777Z</time></trkpt><trkpt lat="41.4435382" lon="1.4213983"><ele>597.0</ele><time>2026-04-05T08:07:53.776Z</time></trkpt><trkpt lat="41.4433951" lon="1.4213647"><ele>593.0</ele><time>2026-04-05T08:07:54.776Z</time></trkpt><trkpt lat="41.4432599" lon="1.4213502"><ele>589.0</ele><time>2026-04-05T08:07:55.776Z</time></trkpt><trkpt lat="41.4431189" lon="1.4213705"><ele>589.0</ele><time>2026-04-05T08:07:56.777Z</time></trkpt><trkpt lat="41.4429905" lon="1.4214044"><ele>589.0</ele><time>2026-04-05T08:07:57.776Z</time></trkpt><trkpt lat="41.4428679" lon="1.4214271"><ele>589.0</ele><time>2026-04-05T08:07:58.776Z</time></trkpt><trkpt lat="41.4427532" lon="1.4214015"><ele>589.0</ele><time>2026-04-05T08:07:59.776Z</time></trkpt><trkpt lat="41.4426347" lon="1.4213435"><ele>589.25</ele><time>2026-04-05T08:08:00.776Z</time></trkpt><trkpt lat="41.4425175" lon="1.4212762"><ele>589.5</ele><time>2026-04-05T08:08:01.776Z</time></trkpt><trkpt lat="41.4424055" lon="1.4212026"><ele>589.75</ele><time>2026-04-05T08:08:02.776Z</time></trkpt><trkpt lat="41.4423051" lon="1.4211008"><ele>590.0</ele><time>2026-04-05T08:08:03.777Z</time></trkpt><trkpt lat="41.4422235" lon="1.4209907"><ele>590.0</ele><time>2026-04-05T08:08:04.776Z</time></trkpt><trkpt lat="41.442167" lon="1.4208777"><ele>590.0</ele><time>2026-04-05T08:08:05.777Z</time></trkpt><trkpt lat="41.4421525" lon="1.4207501"><ele>590.0</ele><time>2026-04-05T08:08:06.776Z</time></trkpt><trkpt lat="41.4421722" lon="1.4206212"><ele>590.0</ele><time>2026-04-05T08:08:07.777Z</time></trkpt><trkpt lat="41.442208" lon="1.4204895"><ele>590.0</ele><time>2026-04-05T08:08:08.777Z</time></trkpt><trkpt lat="41.4422152" lon="1.420357"><ele>591.5</ele><time>2026-04-05T08:08:09.777Z</time></trkpt><trkpt lat="41.4421849" lon="1.4202261"><ele>593.0</ele><time>2026-04-05T08:08:10.777Z</time></trkpt><trkpt lat="41.4421181" lon="1.4200907"><ele>594.5</ele><time>2026-04-05T08:08:11.776Z</time></trkpt><trkpt lat="41.4420548" lon="1.4199344"><ele>596.0</ele><time>2026-04-05T08:08:12.777Z</time></trkpt><trkpt lat="41.4420246" lon="1.4197524"><ele>590.25</ele><time>2026-04-05T08:08:13.776Z</time></trkpt><trkpt lat="41.4420016" lon="1.4195636"><ele>584.5</ele><time>2026-04-05T08:08:14.777Z</time></trkpt><trkpt lat="41.4419667" lon="1.4193804"><ele>578.75</ele><time>2026-04-05T08:08:15.777Z</time></trkpt><trkpt lat="41.4419165" lon="1.4192078"><ele>573.0</ele><time>2026-04-05T08:08:16.776Z</time></trkpt><trkpt lat="41.441852" lon="1.4190589"><ele>573.0</ele><time>2026-04-05T08:08:17.776Z</time></trkpt><trkpt lat="41.4418051" lon="1.4188867"><ele>573.0</ele><time>2026-04-05T08:08:18.776Z</time></trkpt><trkpt lat="41.4417675" lon="1.4186916"><ele>573.0</ele><time>2026-04-05T08:08:19.777Z</time></trkpt><trkpt lat="41.4417365" lon="1.4184868"><ele>573.0</ele><time>2026-04-05T08:08:20.777Z</time></trkpt><trkpt lat="41.4416969" lon="1.4182685"><ele>573.3333333333334</ele><time>2026-04-05T08:08:21.776Z</time></trkpt><trkpt lat="41.4416473" lon="1.4180587"><ele>573.6666666666667</ele><time>2026-04-05T08:08:22.777Z</time></trkpt><trkpt lat="41.4415841" lon="1.417866"><ele>574.0</ele><time>2026-04-05T08:08:23.776Z</time></trkpt><trkpt lat="41.4415" lon="1.4176819"><ele>576.3333333333334</ele><time>2026-04-05T08:08:24.776Z</time></trkpt><trkpt lat="41.441385" lon="1.4174987"><ele>578.6666666666666</ele><time>2026-04-05T08:08:25.776Z</time></trkpt><trkpt lat="41.4412597" lon="1.4173218"><ele>581.0</ele><time>2026-04-05T08:08:26.776Z</time></trkpt><trkpt lat="41.4411389" lon="1.4171459"><ele>576.3333333333333</ele><time>2026-04-05T08:08:27.776Z</time></trkpt><trkpt lat="41.4410215" lon="1.4169793"><ele>571.6666666666666</ele><time>2026-04-05T08:08:28.777Z</time></trkpt><trkpt lat="41.4409133" lon="1.4168386"><ele>567.0</ele><time>2026-04-05T08:08:29.776Z</time></trkpt><trkpt lat="41.440802" lon="1.4167186"><ele>567.0</ele><time>2026-04-05T08:08:30.776Z</time></trkpt><trkpt lat="41.440683" lon="1.4166297"><ele>567.0</ele><time>2026-04-05T08:08:31.777Z</time></trkpt><trkpt lat="41.4405683" lon="1.4165521"><ele>567.0</ele><time>2026-04-05T08:08:32.777Z</time></trkpt><trkpt lat="41.4404649" lon="1.416469"><ele>567.0</ele><time>2026-04-05T08:08:33.776Z</time></trkpt><trkpt lat="41.4403822" lon="1.4163593"><ele>565.25</ele><time>2026-04-05T08:08:34.777Z</time></trkpt><trkpt lat="41.4403272" lon="1.416202"><ele>563.5</ele><time>2026-04-05T08:08:35.777Z</time></trkpt><trkpt lat="41.4402641" lon="1.4160188"><ele>561.75</ele><time>2026-04-05T08:08:36.777Z</time></trkpt><trkpt lat="41.4402047" lon="1.4158271"><ele>560.0</ele><time>2026-04-05T08:08:37.776Z</time></trkpt><trkpt lat="41.4401464" lon="1.4156423"><ele>561.6666666666666</ele><time>2026-04-05T08:08:38.776Z</time></trkpt><trkpt lat="41.4400846" lon="1.4154716"><ele>563.3333333333334</ele><time>2026-04-05T08:08:39.777Z</time></trkpt><trkpt lat="41.4399866" lon="1.4153134"><ele>565.0</ele><time>2026-04-05T08:08:40.777Z</time></trkpt><trkpt lat="41.4398687" lon="1.4151769"><ele>565.0</ele><time>2026-04-05T08:08:41.777Z</time></trkpt><trkpt lat="41.4397349" lon="1.4150547"><ele>565.0</ele><time>2026-04-05T08:08:42.777Z</time></trkpt><trkpt lat="41.4396243" lon="1.4149098"><ele>565.0</ele><time>2026-04-05T08:08:43.777Z</time></trkpt><trkpt lat="41.4395235" lon="1.4147375"><ele>563.0</ele><time>2026-04-05T08:08:44.777Z</time></trkpt><trkpt lat="41.4394278" lon="1.4145642"><ele>561.0</ele><time>2026-04-05T08:08:45.777Z</time></trkpt><trkpt lat="41.439335" lon="1.4144042"><ele>559.0</ele><time>2026-04-05T08:08:46.777Z</time></trkpt><trkpt lat="41.4392569" lon="1.4142573"><ele>557.0</ele><time>2026-04-05T08:08:47.776Z</time></trkpt><trkpt lat="41.4392078" lon="1.4141232"><ele>557.0</ele><time>2026-04-05T08:08:48.777Z</time></trkpt><trkpt lat="41.4391925" lon="1.4139823"><ele>557.0</ele><time>2026-04-05T08:08:49.776Z</time></trkpt><trkpt lat="41.4391875" lon="1.4138286"><ele>557.0</ele><time>2026-04-05T08:08:50.777Z</time></trkpt><trkpt lat="41.4391807" lon="1.413653"><ele>557.0</ele><time>2026-04-05T08:08:51.776Z</time></trkpt><trkpt lat="41.4391621" lon="1.4134814"><ele>556.75</ele><time>2026-04-05T08:08:52.776Z</time></trkpt><trkpt lat="41.4391374" lon="1.4133133"><ele>556.5</ele><time>2026-04-05T08:08:53.777Z</time></trkpt><trkpt lat="41.4390811" lon="1.4131366"><ele>556.25</ele><time>2026-04-05T08:08:54.777Z</time></trkpt><trkpt lat="41.438981" lon="1.4129613"><ele>556.0</ele><time>2026-04-05T08:08:55.777Z</time></trkpt><trkpt lat="41.4388916" lon="1.4127778"><ele>554.6666666666667</ele><time>2026-04-05T08:08:56.776Z</time></trkpt><trkpt lat="41.4388012" lon="1.4126009"><ele>553.3333333333334</ele><time>2026-04-05T08:08:57.776Z</time></trkpt><trkpt lat="41.4387125" lon="1.412423"><ele>552.0</ele><time>2026-04-05T08:08:58.776Z</time></trkpt><trkpt lat="41.4386183" lon="1.4122514"><ele>553.6666666666666</ele><time>2026-04-05T08:08:59.776Z</time></trkpt><trkpt lat="41.4384967" lon="1.4120946"><ele>555.3333333333333</ele><time>2026-04-05T08:09:00.776Z</time></trkpt><trkpt lat="41.4383542" lon="1.4119445"><ele>557.0</ele><time>2026-04-05T08:09:01.776Z</time></trkpt><trkpt lat="41.438197" lon="1.4117765"><ele>557.0</ele><time>2026-04-05T08:09:02.776Z</time></trkpt><trkpt lat="41.4380356" lon="1.4116046"><ele>557.0</ele><time>2026-04-05T08:09:03.776Z</time></trkpt><trkpt lat="41.4378877" lon="1.411453"><ele>557.0</ele><time>2026-04-05T08:09:04.776Z</time></trkpt><trkpt lat="41.437742" lon="1.4113075"><ele>555.3333333333333</ele><time>2026-04-05T08:09:05.776Z</time></trkpt><trkpt lat="41.4375973" lon="1.4111582"><ele>553.6666666666666</ele><time>2026-04-05T08:09:06.776Z</time></trkpt><trkpt lat="41.4374613" lon="1.4110126"><ele>552.0</ele><time>2026-04-05T08:09:07.776Z</time></trkpt><trkpt lat="41.4373294" lon="1.4108741"><ele>552.0</ele><time>2026-04-05T08:09:08.776Z</time></trkpt><trkpt lat="41.4372022" lon="1.4107346"><ele>552.0</ele><time>2026-04-05T08:09:09.776Z</time></trkpt><trkpt lat="41.4370758" lon="1.4105694"><ele>552.0</ele><time>2026-04-05T08:09:10.776Z</time></trkpt><trkpt lat="41.4369525" lon="1.410384"><ele>550.0</ele><time>2026-04-05T08:09:11.776Z</time></trkpt><trkpt lat="41.4368328" lon="1.4102003"><ele>548.0</ele><time>2026-04-05T08:09:12.777Z</time></trkpt><trkpt lat="41.4367101" lon="1.4100172"><ele>546.0</ele><time>2026-04-05T08:09:13.776Z</time></trkpt><trkpt lat="41.4365939" lon="1.4098447"><ele>546.0</ele><time>2026-04-05T08:09:14.776Z</time></trkpt><trkpt lat="41.4364784" lon="1.4096759"><ele>546.0</ele><time>2026-04-05T08:09:15.777Z</time></trkpt><trkpt lat="41.4363639" lon="1.409514"><ele>546.0</ele><time>2026-04-05T08:09:16.777Z</time></trkpt><trkpt lat="41.4362475" lon="1.4093608"><ele>543.3333333333334</ele><time>2026-04-05T08:09:17.776Z</time></trkpt><trkpt lat="41.4361307" lon="1.4092069"><ele>540.6666666666667</ele><time>2026-04-05T08:09:18.776Z</time></trkpt><trkpt lat="41.4360173" lon="1.409044"><ele>538.0</ele><time>2026-04-05T08:09:19.777Z</time></trkpt><trkpt lat="41.4359205" lon="1.408864"><ele>540.3333333333334</ele><time>2026-04-05T08:09:20.776Z</time></trkpt><trkpt lat="41.4358366" lon="1.4086807"><ele>542.6666666666666</ele><time>2026-04-05T08:09:21.776Z</time></trkpt><trkpt lat="41.4357522" lon="1.4085008"><ele>545.0</ele><time>2026-04-05T08:09:22.777Z</time></trkpt><trkpt lat="41.4356607" lon="1.4083408"><ele>545.0</ele><time>2026-04-05T08:09:23.777Z</time></trkpt><trkpt lat="41.4355654" lon="1.408209"><ele>545.0</ele><time>2026-04-05T08:09:24.777Z</time></trkpt><trkpt lat="41.4354554" lon="1.408111"><ele>545.0</ele><time>2026-04-05T08:09:25.776Z</time></trkpt><trkpt lat="41.4353388" lon="1.4080323"><ele>545.0</ele><time>2026-04-05T08:09:26.776Z</time></trkpt><trkpt lat="41.435232" lon="1.4079766"><ele>543.0</ele><time>2026-04-05T08:09:27.776Z</time></trkpt><trkpt lat="41.4351191" lon="1.4079664"><ele>541.0</ele><time>2026-04-05T08:09:28.776Z</time></trkpt><trkpt lat="41.4350036" lon="1.4079912"><ele>539.0</ele><time>2026-04-05T08:09:29.776Z</time></trkpt><trkpt lat="41.4348764" lon="1.4080416"><ele>537.0</ele><time>2026-04-05T08:09:30.777Z</time></trkpt><trkpt lat="41.434749" lon="1.4080861"><ele>534.2</ele><time>2026-04-05T08:09:31.776Z</time></trkpt><trkpt lat="41.4346275" lon="1.408104"><ele>531.4000000000001</ele><time>2026-04-05T08:09:32.776Z</time></trkpt><trkpt lat="41.434509" lon="1.4081045"><ele>528.5999999999999</ele><time>2026-04-05T08:09:33.777Z</time></trkpt><trkpt lat="41.4344085" lon="1.4081282"><ele>525.8</ele><time>2026-04-05T08:09:34.777Z</time></trkpt><trkpt lat="41.4343151" lon="1.4081691"><ele>523.0</ele><time>2026-04-05T08:09:35.776Z</time></trkpt><trkpt lat="41.4342685" lon="1.4082562"><ele>523.0</ele><time>2026-04-05T08:09:36.777Z</time></trkpt><trkpt lat="41.4341977" lon="1.4083494"><ele>523.0</ele><time>2026-04-05T08:09:37.776Z</time></trkpt><trkpt lat="41.4341227" lon="1.4084372"><ele>523.0</ele><time>2026-04-05T08:09:38.777Z</time></trkpt><trkpt lat="41.4340438" lon="1.408488"><ele>523.0</ele><time>2026-04-05T08:09:39.776Z</time></trkpt><trkpt lat="41.4339698" lon="1.4084882"><ele>523.0</ele><time>2026-04-05T08:09:40.777Z</time></trkpt><trkpt lat="41.4339053" lon="1.4084423"><ele>523.0</ele><time>2026-04-05T08:09:41.777Z</time></trkpt><trkpt lat="41.433845" lon="1.4083612"><ele>523.0</ele><time>2026-04-05T08:09:42.777Z</time></trkpt><trkpt lat="41.4338245" lon="1.4081987"><ele>523.0</ele><time>2026-04-05T08:09:43.777Z</time></trkpt><trkpt lat="41.4338104" lon="1.4080242"><ele>523.0</ele><time>2026-04-05T08:09:44.776Z</time></trkpt><trkpt lat="41.433794" lon="1.4078422"><ele>523.0</ele><time>2026-04-05T08:09:45.776Z</time></trkpt><trkpt lat="41.433784" lon="1.4076733"><ele>522.8</ele><time>2026-04-05T08:09:46.776Z</time></trkpt><trkpt lat="41.4338043" lon="1.4075211"><ele>522.5999999999999</ele><time>2026-04-05T08:09:47.776Z</time></trkpt><trkpt lat="41.4338423" lon="1.4073882"><ele>522.4000000000001</ele><time>2026-04-05T08:09:48.777Z</time></trkpt><trkpt lat="41.4338741" lon="1.407266"><ele>522.2</ele><time>2026-04-05T08:09:49.776Z</time></trkpt><trkpt lat="41.4338759" lon="1.4071341"><ele>522.0</ele><time>2026-04-05T08:09:50.777Z</time></trkpt><trkpt lat="41.4338448" lon="1.4070123"><ele>524.0</ele><time>2026-04-05T08:09:51.777Z</time></trkpt><trkpt lat="41.4337839" lon="1.4069057"><ele>526.0</ele><time>2026-04-05T08:09:52.776Z</time></trkpt><trkpt lat="41.4337018" lon="1.4068277"><ele>528.0</ele><time>2026-04-05T08:09:53.777Z</time></trkpt><trkpt lat="41.4335891" lon="1.4067936"><ele>530.0</ele><time>2026-04-05T08:09:54.776Z</time></trkpt><trkpt lat="41.4334637" lon="1.4067868"><ele>532.0</ele><time>2026-04-05T08:09:55.777Z</time></trkpt><trkpt lat="41.43334" lon="1.406782"><ele>532.0</ele><time>2026-04-05T08:09:56.776Z</time></trkpt><trkpt lat="41.4332255" lon="1.4067696"><ele>532.0</ele><time>2026-04-05T08:09:57.777Z</time></trkpt><trkpt lat="41.4331044" lon="1.4067453"><ele>532.0</ele><time>2026-04-05T08:09:58.777Z</time></trkpt><trkpt lat="41.4329763" lon="1.4067156"><ele>532.0</ele><time>2026-04-05T08:09:59.777Z</time></trkpt><trkpt lat="41.4328419" lon="1.4066747"><ele>533.5</ele><time>2026-04-05T08:10:00.777Z</time></trkpt><trkpt lat="41.4327098" lon="1.4066182"><ele>535.0</ele><time>2026-04-05T08:10:01.776Z</time></trkpt><trkpt lat="41.4325775" lon="1.4065358"><ele>536.5</ele><time>2026-04-05T08:10:02.776Z</time></trkpt><trkpt lat="41.4324304" lon="1.4064379"><ele>538.0</ele><time>2026-04-05T08:10:03.777Z</time></trkpt><trkpt lat="41.4322591" lon="1.4063226"><ele>535.6666666666667</ele><time>2026-04-05T08:10:04.776Z</time></trkpt><trkpt lat="41.4320668" lon="1.4061942"><ele>533.3333333333334</ele><time>2026-04-05T08:10:05.776Z</time></trkpt><trkpt lat="41.4318726" lon="1.4060598"><ele>531.0</ele><time>2026-04-05T08:10:06.777Z</time></trkpt><trkpt lat="41.431681" lon="1.4059215"><ele>531.0</ele><time>2026-04-05T08:10:07.776Z</time></trkpt><trkpt lat="41.4314994" lon="1.4057846"><ele>531.0</ele><time>2026-04-05T08:10:08.776Z</time></trkpt><trkpt lat="41.4313301" lon="1.4056428"><ele>531.0</ele><time>2026-04-05T08:10:09.776Z</time></trkpt><trkpt lat="41.4311737" lon="1.4055"><ele>529.6666666666666</ele><time>2026-04-05T08:10:10.777Z</time></trkpt><trkpt lat="41.4310318" lon="1.4053637"><ele>528.3333333333333</ele><time>2026-04-05T08:10:11.777Z</time></trkpt><trkpt lat="41.4308989" lon="1.4052416"><ele>527.0</ele><time>2026-04-05T08:10:12.776Z</time></trkpt><trkpt lat="41.4307815" lon="1.4051285"><ele>527.0</ele><time>2026-04-05T08:10:13.777Z</time></trkpt><trkpt lat="41.4306737" lon="1.4050266"><ele>527.0</ele><time>2026-04-05T08:10:14.776Z</time></trkpt><trkpt lat="41.4305745" lon="1.4049577"><ele>527.0</ele><time>2026-04-05T08:10:15.777Z</time></trkpt><trkpt lat="41.4304802" lon="1.4048961"><ele>527.0</ele><time>2026-04-05T08:10:16.777Z</time></trkpt><trkpt lat="41.4303744" lon="1.4048894"><ele>528.75</ele><time>2026-04-05T08:10:17.777Z</time></trkpt><trkpt lat="41.4302362" lon="1.4049199"><ele>530.5</ele><time>2026-04-05T08:10:18.777Z</time></trkpt><trkpt lat="41.4300982" lon="1.4049356"><ele>532.25</ele><time>2026-04-05T08:10:19.777Z</time></trkpt><trkpt lat="41.4299525" lon="1.4049446"><ele>534.0</ele><time>2026-04-05T08:10:20.776Z</time></trkpt><trkpt lat="41.4298167" lon="1.4049345"><ele>534.0</ele><time>2026-04-05T08:10:21.776Z</time></trkpt><trkpt lat="41.4296849" lon="1.4049065"><ele>534.0</ele><time>2026-04-05T08:10:22.777Z</time></trkpt><trkpt lat="41.4295519" lon="1.4048732"><ele>534.0</ele><time>2026-04-05T08:10:23.776Z</time></trkpt><trkpt lat="41.4294307" lon="1.4048071"><ele>534.0</ele><time>2026-04-05T08:10:24.776Z</time></trkpt><trkpt lat="41.429314" lon="1.4047375"><ele>533.0</ele><time>2026-04-05T08:10:25.776Z</time></trkpt><trkpt lat="41.4291967" lon="1.4046877"><ele>532.0</ele><time>2026-04-05T08:10:26.776Z</time></trkpt><trkpt lat="41.4290884" lon="1.4046662"><ele>531.0</ele><time>2026-04-05T08:10:27.777Z</time></trkpt><trkpt lat="41.4289804" lon="1.4046688"><ele>530.0</ele><time>2026-04-05T08:10:28.777Z</time></trkpt><trkpt lat="41.4288655" lon="1.4047592"><ele>526.5</ele><time>2026-04-05T08:10:29.777Z</time></trkpt><trkpt lat="41.4287532" lon="1.4048462"><ele>523.0</ele><time>2026-04-05T08:10:30.777Z</time></trkpt><trkpt lat="41.4286502" lon="1.4049372"><ele>519.5</ele><time>2026-04-05T08:10:31.777Z</time></trkpt><trkpt lat="41.4285631" lon="1.4050355"><ele>516.0</ele><time>2026-04-05T08:10:32.777Z</time></trkpt><trkpt lat="41.4285184" lon="1.4051651"><ele>516.0</ele><time>2026-04-05T08:10:33.776Z</time></trkpt><trkpt lat="41.4284918" lon="1.4053198"><ele>516.0</ele><time>2026-04-05T08:10:34.776Z</time></trkpt><trkpt lat="41.4284686" lon="1.40548"><ele>516.0</ele><time>2026-04-05T08:10:35.776Z</time></trkpt><trkpt lat="41.4284425" lon="1.4056229"><ele>516.0</ele><time>2026-04-05T08:10:36.776Z</time></trkpt><trkpt lat="41.4284024" lon="1.4057275"><ele>516.0</ele><time>2026-04-05T08:10:37.777Z</time></trkpt><trkpt lat="41.4283423" lon="1.4057964"><ele>518.0</ele><time>2026-04-05T08:10:38.776Z</time></trkpt><trkpt lat="41.4282652" lon="1.4058074"><ele>520.0</ele><time>2026-04-05T08:10:39.777Z</time></trkpt><trkpt lat="41.4281833" lon="1.4057711"><ele>522.0</ele><time>2026-04-05T08:10:40.776Z</time></trkpt><trkpt lat="41.4280779" lon="1.4057011"><ele>524.0</ele><time>2026-04-05T08:10:41.776Z</time></trkpt><trkpt lat="41.4279642" lon="1.4056191"><ele>526.0</ele><time>2026-04-05T08:10:42.776Z</time></trkpt><trkpt lat="41.427854" lon="1.4055368"><ele>527.5</ele><time>2026-04-05T08:10:43.777Z</time></trkpt><trkpt lat="41.4277715" lon="1.4054245"><ele>529.0</ele><time>2026-04-05T08:10:44.776Z</time></trkpt><trkpt lat="41.4277132" lon="1.4052903"><ele>530.5</ele><time>2026-04-05T08:10:45.777Z</time></trkpt><trkpt lat="41.427675" lon="1.4051168"><ele>532.0</ele><time>2026-04-05T08:10:46.777Z</time></trkpt><trkpt lat="41.4276549" lon="1.4049197"><ele>532.0</ele><time>2026-04-05T08:10:47.776Z</time></trkpt><trkpt lat="41.4276329" lon="1.4047245"><ele>532.0</ele><time>2026-04-05T08:10:48.776Z</time></trkpt><trkpt lat="41.4276373" lon="1.4045057"><ele>532.0</ele><time>2026-04-05T08:10:49.776Z</time></trkpt><trkpt lat="41.42766" lon="1.4042605"><ele>532.3333333333334</ele><time>2026-04-05T08:10:50.776Z</time></trkpt><trkpt lat="41.4276949" lon="1.4040071"><ele>532.6666666666666</ele><time>2026-04-05T08:10:51.777Z</time></trkpt><trkpt lat="41.4277283" lon="1.4037835"><ele>533.0</ele><time>2026-04-05T08:10:52.776Z</time></trkpt><trkpt lat="41.4277538" lon="1.4035992"><ele>533.0</ele><time>2026-04-05T08:10:53.776Z</time></trkpt><trkpt lat="41.4277633" lon="1.4034426"><ele>533.0</ele><time>2026-04-05T08:10:54.777Z</time></trkpt><trkpt lat="41.4277524" lon="1.4032736"><ele>533.0</ele><time>2026-04-05T08:10:55.776Z</time></trkpt><trkpt lat="41.4277209" lon="1.4030785"><ele>533.0</ele><time>2026-04-05T08:10:56.776Z</time></trkpt><trkpt lat="41.4276878" lon="1.4028634"><ele>532.0</ele><time>2026-04-05T08:10:57.776Z</time></trkpt><trkpt lat="41.4276568" lon="1.4026494"><ele>531.0</ele><time>2026-04-05T08:10:58.776Z</time></trkpt><trkpt lat="41.4276302" lon="1.4024329"><ele>530.0</ele><time>2026-04-05T08:10:59.777Z</time></trkpt><trkpt lat="41.4276033" lon="1.4022434"><ele>528.3333333333333</ele><time>2026-04-05T08:11:00.777Z</time></trkpt><trkpt lat="41.4275546" lon="1.4020488"><ele>526.6666666666666</ele><time>2026-04-05T08:11:01.776Z</time></trkpt><trkpt lat="41.4274947" lon="1.4018436"><ele>525.0</ele><time>2026-04-05T08:11:02.777Z</time></trkpt><trkpt lat="41.4274173" lon="1.4016435"><ele>525.0</ele><time>2026-04-05T08:11:03.776Z</time></trkpt><trkpt lat="41.4273423" lon="1.4014443"><ele>525.0</ele><time>2026-04-05T08:11:04.776Z</time></trkpt><trkpt lat="41.4272671" lon="1.4012429"><ele>525.0</ele><time>2026-04-05T08:11:05.777Z</time></trkpt><trkpt lat="41.4272005" lon="1.4010587"><ele>525.5</ele><time>2026-04-05T08:11:06.777Z</time></trkpt><trkpt lat="41.4271427" lon="1.4009001"><ele>526.0</ele><time>2026-04-05T08:11:07.776Z</time></trkpt><trkpt lat="41.4270845" lon="1.4007615"><ele>526.5</ele><time>2026-04-05T08:11:08.776Z</time></trkpt><trkpt lat="41.4270172" lon="1.4006452"><ele>527.0</ele><time>2026-04-05T08:11:09.777Z</time></trkpt><trkpt lat="41.4269196" lon="1.4005571"><ele>522.6666666666666</ele><time>2026-04-05T08:11:10.776Z</time></trkpt><trkpt lat="41.4267949" lon="1.4004778"><ele>518.3333333333334</ele><time>2026-04-05T08:11:11.776Z</time></trkpt><trkpt lat="41.42665" lon="1.4004011"><ele>514.0</ele><time>2026-04-05T08:11:12.777Z</time></trkpt><trkpt lat="41.4265031" lon="1.4003268"><ele>514.0</ele><time>2026-04-05T08:11:13.776Z</time></trkpt><trkpt lat="41.4263637" lon="1.4002481"><ele>514.0</ele><time>2026-04-05T08:11:14.776Z</time></trkpt><trkpt lat="41.4262224" lon="1.400172"><ele>514.0</ele><time>2026-04-05T08:11:15.777Z</time></trkpt><trkpt lat="41.4260943" lon="1.4001079"><ele>514.0</ele><time>2026-04-05T08:11:16.777Z</time></trkpt><trkpt lat="41.4259733" lon="1.4000716"><ele>516.0</ele><time>2026-04-05T08:11:17.776Z</time></trkpt><trkpt lat="41.4258578" lon="1.4000729"><ele>518.0</ele><time>2026-04-05T08:11:18.777Z</time></trkpt><trkpt lat="41.4257318" lon="1.4001006"><ele>520.0</ele><time>2026-04-05T08:11:19.776Z</time></trkpt><trkpt lat="41.4255949" lon="1.4001312"><ele>522.0</ele><time>2026-04-05T08:11:20.777Z</time></trkpt><trkpt lat="41.4254587" lon="1.4001595"><ele>524.5</ele><time>2026-04-05T08:11:21.777Z</time></trkpt><trkpt lat="41.4253255" lon="1.4001895"><ele>527.0</ele><time>2026-04-05T08:11:22.776Z</time></trkpt><trkpt lat="41.4252029" lon="1.4002007"><ele>529.5</ele><time>2026-04-05T08:11:23.777Z</time></trkpt><trkpt lat="41.4250993" lon="1.4001767"><ele>532.0</ele><time>2026-04-05T08:11:24.776Z</time></trkpt><trkpt lat="41.425015" lon="1.4001119"><ele>532.0</ele><time>2026-04-05T08:11:25.777Z</time></trkpt><trkpt lat="41.4249348" lon="1.4000358"><ele>532.0</ele><time>2026-04-05T08:11:26.776Z</time></trkpt><trkpt lat="41.4248685" lon="1.3999156"><ele>532.0</ele><time>2026-04-05T08:11:27.777Z</time></trkpt><trkpt lat="41.4248534" lon="1.3997124"><ele>532.0</ele><time>2026-04-05T08:11:28.777Z</time></trkpt><trkpt lat="41.424829" lon="1.3995282"><ele>530.75</ele><time>2026-04-05T08:11:29.777Z</time></trkpt><trkpt lat="41.4248004" lon="1.3993482"><ele>529.5</ele><time>2026-04-05T08:11:30.777Z</time></trkpt><trkpt lat="41.4247757" lon="1.3991579"><ele>528.25</ele><time>2026-04-05T08:11:31.777Z</time></trkpt><trkpt lat="41.4247522" lon="1.3989665"><ele>527.0</ele><time>2026-04-05T08:11:32.777Z</time></trkpt><trkpt lat="41.4247326" lon="1.3987857"><ele>525.75</ele><time>2026-04-05T08:11:33.777Z</time></trkpt><trkpt lat="41.424709" lon="1.398621"><ele>524.5</ele><time>2026-04-05T08:11:34.777Z</time></trkpt><trkpt lat="41.4246872" lon="1.3984677"><ele>523.25</ele><time>2026-04-05T08:11:35.777Z</time></trkpt><trkpt lat="41.4246653" lon="1.3983196"><ele>522.0</ele><time>2026-04-05T08:11:36.776Z</time></trkpt><trkpt lat="41.4246362" lon="1.398182"><ele>524.2</ele><time>2026-04-05T08:11:37.776Z</time></trkpt><trkpt lat="41.4245929" lon="1.3980592"><ele>526.4000000000001</ele><time>2026-04-05T08:11:38.777Z</time></trkpt><trkpt lat="41.4245372" lon="1.3979513"><ele>528.5999999999999</ele><time>2026-04-05T08:11:39.776Z</time></trkpt><trkpt lat="41.4244752" lon="1.397864"><ele>530.8</ele><time>2026-04-05T08:11:40.776Z</time></trkpt><trkpt lat="41.4244098" lon="1.3977873"><ele>533.0</ele><time>2026-04-05T08:11:41.776Z</time></trkpt><trkpt lat="41.4243455" lon="1.3977134"><ele>533.0</ele><time>2026-04-05T08:11:42.776Z</time></trkpt><trkpt lat="41.4242786" lon="1.3976321"><ele>533.0</ele><time>2026-04-05T08:11:43.776Z</time></trkpt><trkpt lat="41.4242012" lon="1.3975431"><ele>533.0</ele><time>2026-04-05T08:11:44.776Z</time></trkpt><trkpt lat="41.4241236" lon="1.3974488"><ele>533.0</ele><time>2026-04-05T08:11:45.776Z</time></trkpt><trkpt lat="41.4240437" lon="1.3973532"><ele>533.0</ele><time>2026-04-05T08:11:46.776Z</time></trkpt><trkpt lat="41.4239663" lon="1.3972493"><ele>534.0</ele><time>2026-04-05T08:11:47.777Z</time></trkpt><trkpt lat="41.4238806" lon="1.3971414"><ele>535.0</ele><time>2026-04-05T08:11:48.776Z</time></trkpt><trkpt lat="41.4237931" lon="1.3970296"><ele>536.0</ele><time>2026-04-05T08:11:49.777Z</time></trkpt><trkpt lat="41.4237021" lon="1.3969151"><ele>537.0</ele><time>2026-04-05T08:11:50.777Z</time></trkpt><trkpt lat="41.4236089" lon="1.3967963"><ele>537.0</ele><time>2026-04-05T08:11:51.776Z</time></trkpt><trkpt lat="41.4235176" lon="1.3966777"><ele>537.0</ele><time>2026-04-05T08:11:52.777Z</time></trkpt><trkpt lat="41.4234237" lon="1.3965652"><ele>537.0</ele><time>2026-04-05T08:11:53.776Z</time></trkpt><trkpt lat="41.4233308" lon="1.3964759"><ele>537.0</ele><time>2026-04-05T08:11:54.777Z</time></trkpt><trkpt lat="41.4232281" lon="1.3964171"><ele>537.0</ele><time>2026-04-05T08:11:55.776Z</time></trkpt><trkpt lat="41.4231089" lon="1.3963978"><ele>537.0</ele><time>2026-04-05T08:11:56.776Z</time></trkpt><trkpt lat="41.4229773" lon="1.396412"><ele>537.0</ele><time>2026-04-05T08:11:57.776Z</time></trkpt><trkpt lat="41.422842" lon="1.396438"><ele>537.0</ele><time>2026-04-05T08:11:58.776Z</time></trkpt><trkpt lat="41.422703" lon="1.3964668"><ele>537.25</ele><time>2026-04-05T08:11:59.776Z</time></trkpt><trkpt lat="41.4225608" lon="1.3964949"><ele>537.5</ele><time>2026-04-05T08:12:00.776Z</time></trkpt><trkpt lat="41.4224239" lon="1.3965231"><ele>537.75</ele><time>2026-04-05T08:12:01.776Z</time></trkpt><trkpt lat="41.4222909" lon="1.3965487"><ele>538.0</ele><time>2026-04-05T08:12:02.777Z</time></trkpt><trkpt lat="41.4221635" lon="1.3965709"><ele>538.6</ele><time>2026-04-05T08:12:03.776Z</time></trkpt><trkpt lat="41.4220439" lon="1.3965765"><ele>539.1999999999999</ele><time>2026-04-05T08:12:04.777Z</time></trkpt><trkpt lat="41.4219334" lon="1.3965562"><ele>539.8</ele><time>2026-04-05T08:12:05.776Z</time></trkpt><trkpt lat="41.4218317" lon="1.3965126"><ele>540.4</ele><time>2026-04-05T08:12:06.777Z</time></trkpt><trkpt lat="41.4217429" lon="1.3964403"><ele>541.0</ele><time>2026-04-05T08:12:07.776Z</time></trkpt><trkpt lat="41.4216571" lon="1.3963432"><ele>539.2</ele><time>2026-04-05T08:12:08.776Z</time></trkpt><trkpt lat="41.4215799" lon="1.3962485"><ele>537.4000000000001</ele><time>2026-04-05T08:12:09.777Z</time></trkpt><trkpt lat="41.4215088" lon="1.3961498"><ele>535.6</ele><time>2026-04-05T08:12:10.777Z</time></trkpt><trkpt lat="41.4214485" lon="1.396043"><ele>533.8000000000001</ele><time>2026-04-05T08:12:11.777Z</time></trkpt><trkpt lat="41.4213932" lon="1.3959295"><ele>532.0</ele><time>2026-04-05T08:12:12.776Z</time></trkpt><trkpt lat="41.4213369" lon="1.3958101"><ele>532.75</ele><time>2026-04-05T08:12:13.777Z</time></trkpt><trkpt lat="41.4212765" lon="1.3956756"><ele>533.5</ele><time>2026-04-05T08:12:14.776Z</time></trkpt><trkpt lat="41.4212113" lon="1.3955429"><ele>534.25</ele><time>2026-04-05T08:12:15.777Z</time></trkpt><trkpt lat="41.4211336" lon="1.39542"><ele>535.0</ele><time>2026-04-05T08:12:16.777Z</time></trkpt><trkpt lat="41.4210379" lon="1.3953196"><ele>535.0</ele><time>2026-04-05T08:12:17.777Z</time></trkpt><trkpt lat="41.4209279" lon="1.3952376"><ele>535.0</ele><time>2026-04-05T08:12:18.776Z</time></trkpt><trkpt lat="41.4208018" lon="1.3951601"><ele>535.0</ele><time>2026-04-05T08:12:19.776Z</time></trkpt><trkpt lat="41.4206937" lon="1.3950445"><ele>535.0</ele><time>2026-04-05T08:12:20.777Z</time></trkpt><trkpt lat="41.4206021" lon="1.3949075"><ele>535.0</ele><time>2026-04-05T08:12:21.777Z</time></trkpt><trkpt lat="41.4205158" lon="1.3947712"><ele>535.0</ele><time>2026-04-05T08:12:22.776Z</time></trkpt><trkpt lat="41.4204251" lon="1.3946581"><ele>535.0</ele><time>2026-04-05T08:12:23.776Z</time></trkpt><trkpt lat="41.4203091" lon="1.3945627"><ele>535.0</ele><time>2026-04-05T08:12:24.776Z</time></trkpt><trkpt lat="41.4201766" lon="1.3944788"><ele>534.3333333333334</ele><time>2026-04-05T08:12:25.777Z</time></trkpt><trkpt lat="41.4200443" lon="1.3943926"><ele>533.6666666666666</ele><time>2026-04-05T08:12:26.776Z</time></trkpt><trkpt lat="41.4199013" lon="1.3943049"><ele>533.0</ele><time>2026-04-05T08:12:27.777Z</time></trkpt><trkpt lat="41.4197697" lon="1.394209"><ele>533.0</ele><time>2026-04-05T08:12:28.777Z</time></trkpt><trkpt lat="41.4196541" lon="1.3940906"><ele>533.0</ele><time>2026-04-05T08:12:29.777Z</time></trkpt><trkpt lat="41.4195542" lon="1.3939523"><ele>533.0</ele><time>2026-04-05T08:12:30.777Z</time></trkpt><trkpt lat="41.4194673" lon="1.3938042"><ele>533.0</ele><time>2026-04-05T08:12:31.777Z</time></trkpt><trkpt lat="41.4193843" lon="1.393662"><ele>532.5</ele><time>2026-04-05T08:12:32.776Z</time></trkpt><trkpt lat="41.4192983" lon="1.3935395"><ele>532.0</ele><time>2026-04-05T08:12:33.776Z</time></trkpt><trkpt lat="41.4191926" lon="1.3934442"><ele>531.5</ele><time>2026-04-05T08:12:34.776Z</time></trkpt><trkpt lat="41.4190691" lon="1.3933729"><ele>531.0</ele><time>2026-04-05T08:12:35.777Z</time></trkpt><trkpt lat="41.4189249" lon="1.3933229"><ele>535.0</ele><time>2026-04-05T08:12:36.777Z</time></trkpt><trkpt lat="41.418766" lon="1.3932771"><ele>539.0</ele><time>2026-04-05T08:12:37.777Z</time></trkpt><trkpt lat="41.4186024" lon="1.3932244"><ele>543.0</ele><time>2026-04-05T08:12:38.777Z</time></trkpt><trkpt lat="41.418438" lon="1.3931703"><ele>543.0</ele><time>2026-04-05T08:12:39.777Z</time></trkpt><trkpt lat="41.418281" lon="1.3931224"><ele>543.0</ele><time>2026-04-05T08:12:40.777Z</time></trkpt><trkpt lat="41.418137" lon="1.3930703"><ele>543.0</ele><time>2026-04-05T08:12:41.776Z</time></trkpt><trkpt lat="41.4180025" lon="1.3929931"><ele>541.0</ele><time>2026-04-05T08:12:42.776Z</time></trkpt><trkpt lat="41.4178861" lon="1.3928534"><ele>539.0</ele><time>2026-04-05T08:12:43.776Z</time></trkpt><trkpt lat="41.4177656" lon="1.3926941"><ele>537.0</ele><time>2026-04-05T08:12:44.776Z</time></trkpt><trkpt lat="41.4176484" lon="1.3925375"><ele>537.0</ele><time>2026-04-05T08:12:45.776Z</time></trkpt><trkpt lat="41.4175171" lon="1.3923909"><ele>537.0</ele><time>2026-04-05T08:12:46.776Z</time></trkpt><trkpt lat="41.4173594" lon="1.392254"><ele>537.0</ele><time>2026-04-05T08:12:47.776Z</time></trkpt><trkpt lat="41.4171861" lon="1.3921257"><ele>537.3333333333334</ele><time>2026-04-05T08:12:48.777Z</time></trkpt><trkpt lat="41.4170195" lon="1.3919922"><ele>537.6666666666667</ele><time>2026-04-05T08:12:49.777Z</time></trkpt><trkpt lat="41.4168636" lon="1.3918703"><ele>538.0</ele><time>2026-04-05T08:12:50.777Z</time></trkpt><trkpt lat="41.4167195" lon="1.3917531"><ele>538.0</ele><time>2026-04-05T08:12:51.777Z</time></trkpt><trkpt lat="41.4165901" lon="1.3916447"><ele>538.0</ele><time>2026-04-05T08:12:52.776Z</time></trkpt><trkpt lat="41.4164699" lon="1.3915703"><ele>538.0</ele><time>2026-04-05T08:12:53.777Z</time></trkpt><trkpt lat="41.4163448" lon="1.3915293"><ele>538.0</ele><time>2026-04-05T08:12:54.776Z</time></trkpt><trkpt lat="41.4162113" lon="1.3915308"><ele>537.75</ele><time>2026-04-05T08:12:55.777Z</time></trkpt><trkpt lat="41.4160594" lon="1.3915513"><ele>537.5</ele><time>2026-04-05T08:12:56.777Z</time></trkpt><trkpt lat="41.4159031" lon="1.3915822"><ele>537.25</ele><time>2026-04-05T08:12:57.776Z</time></trkpt><trkpt lat="41.4157732" lon="1.3916202"><ele>537.0</ele><time>2026-04-05T08:12:58.777Z</time></trkpt><trkpt lat="41.4156512" lon="1.3916574"><ele>537.0</ele><time>2026-04-05T08:12:59.777Z</time></trkpt><trkpt lat="41.4155413" lon="1.3917107"><ele>537.0</ele><time>2026-04-05T08:13:00.776Z</time></trkpt><trkpt lat="41.4154447" lon="1.3917884"><ele>537.0</ele><time>2026-04-05T08:13:01.776Z</time></trkpt><trkpt lat="41.415353" lon="1.3919372"><ele>537.0</ele><time>2026-04-05T08:13:02.776Z</time></trkpt><trkpt lat="41.4152661" lon="1.3920754"><ele>539.5</ele><time>2026-04-05T08:13:03.776Z</time></trkpt><trkpt lat="41.4151765" lon="1.3922033"><ele>542.0</ele><time>2026-04-05T08:13:04.777Z</time></trkpt><trkpt lat="41.4150827" lon="1.3923097"><ele>544.5</ele><time>2026-04-05T08:13:05.777Z</time></trkpt><trkpt lat="41.4149812" lon="1.3923857"><ele>547.0</ele><time>2026-04-05T08:13:06.776Z</time></trkpt><trkpt lat="41.4148413" lon="1.3923933"><ele>547.0</ele><time>2026-04-05T08:13:07.776Z</time></trkpt><trkpt lat="41.4147056" lon="1.3923835"><ele>547.0</ele><time>2026-04-05T08:13:08.776Z</time></trkpt><trkpt lat="41.414588" lon="1.3923502"><ele>547.0</ele><time>2026-04-05T08:13:09.776Z</time></trkpt><trkpt lat="41.4144637" lon="1.3922729"><ele>547.0</ele><time>2026-04-05T08:13:10.776Z</time></trkpt><trkpt lat="41.4143395" lon="1.3921767"><ele>541.25</ele><time>2026-04-05T08:13:11.777Z</time></trkpt><trkpt lat="41.4142216" lon="1.3920791"><ele>535.5</ele><time>2026-04-05T08:13:12.776Z</time></trkpt><trkpt lat="41.4141145" lon="1.3919947"><ele>529.75</ele><time>2026-04-05T08:13:13.776Z</time></trkpt><trkpt lat="41.4140102" lon="1.3919185"><ele>524.0</ele><time>2026-04-05T08:13:14.777Z</time></trkpt><trkpt lat="41.4139125" lon="1.3918648"><ele>524.0</ele><time>2026-04-05T08:13:15.777Z</time></trkpt><trkpt lat="41.4138256" lon="1.3918543"><ele>524.0</ele><time>2026-04-05T08:13:16.777Z</time></trkpt><trkpt lat="41.4137461" lon="1.3918888"><ele>524.0</ele><time>2026-04-05T08:13:17.776Z</time></trkpt><trkpt lat="41.4136763" lon="1.3919766"><ele>524.0</ele><time>2026-04-05T08:13:18.776Z</time></trkpt><trkpt lat="41.4136191" lon="1.3921021"><ele>524.0</ele><time>2026-04-05T08:13:19.776Z</time></trkpt><trkpt lat="41.4135692" lon="1.3922563"><ele>524.75</ele><time>2026-04-05T08:13:20.776Z</time></trkpt><trkpt lat="41.4135043" lon="1.3924058"><ele>525.5</ele><time>2026-04-05T08:13:21.777Z</time></trkpt><trkpt lat="41.4134171" lon="1.3925327"><ele>526.25</ele><time>2026-04-05T08:13:22.776Z</time></trkpt><trkpt lat="41.4132996" lon="1.3926472"><ele>527.0</ele><time>2026-04-05T08:13:23.777Z</time></trkpt><trkpt lat="41.4131648" lon="1.3927685"><ele>527.0</ele><time>2026-04-05T08:13:24.777Z</time></trkpt><trkpt lat="41.4130301" lon="1.3929038"><ele>527.0</ele><time>2026-04-05T08:13:25.777Z</time></trkpt><trkpt lat="41.4129168" lon="1.3930538"><ele>527.0</ele><time>2026-04-05T08:13:26.776Z</time></trkpt><trkpt lat="41.4128095" lon="1.3931879"><ele>527.25</ele><time>2026-04-05T08:13:27.777Z</time></trkpt><trkpt lat="41.4126907" lon="1.3932989"><ele>527.5</ele><time>2026-04-05T08:13:28.776Z</time></trkpt><trkpt lat="41.4125903" lon="1.3934225"><ele>527.75</ele><time>2026-04-05T08:13:29.776Z</time></trkpt><trkpt lat="41.4125107" lon="1.3935636"><ele>528.0</ele><time>2026-04-05T08:13:30.776Z</time></trkpt><trkpt lat="41.412453" lon="1.3937002"><ele>530.4</ele><time>2026-04-05T08:13:31.777Z</time></trkpt><trkpt lat="41.412399" lon="1.3938409"><ele>532.8</ele><time>2026-04-05T08:13:32.777Z</time></trkpt><trkpt lat="41.4123411" lon="1.3939119"><ele>535.2</ele><time>2026-04-05T08:13:33.777Z</time></trkpt><trkpt lat="41.4122658" lon="1.3939522"><ele>537.6</ele><time>2026-04-05T08:13:34.777Z</time></trkpt><trkpt lat="41.4121654" lon="1.3939475"><ele>540.0</ele><time>2026-04-05T08:13:35.777Z</time></trkpt><trkpt lat="41.4120823" lon="1.3939066"><ele>539.75</ele><time>2026-04-05T08:13:36.777Z</time></trkpt><trkpt lat="41.4120081" lon="1.3938345"><ele>539.5</ele><time>2026-04-05T08:13:37.777Z</time></trkpt><trkpt lat="41.4119446" lon="1.3937413"><ele>539.25</ele><time>2026-04-05T08:13:38.776Z</time></trkpt><trkpt lat="41.4119273" lon="1.3935236"><ele>539.0</ele><time>2026-04-05T08:13:39.776Z</time></trkpt><trkpt lat="41.4118929" lon="1.3933293"><ele>539.0</ele><time>2026-04-05T08:13:40.777Z</time></trkpt><trkpt lat="41.4118575" lon="1.3931253"><ele>539.0</ele><time>2026-04-05T08:13:41.776Z</time></trkpt><trkpt lat="41.4118376" lon="1.3929331"><ele>539.0</ele><time>2026-04-05T08:13:42.776Z</time></trkpt><trkpt lat="41.4118178" lon="1.3927483"><ele>539.0</ele><time>2026-04-05T08:13:43.777Z</time></trkpt><trkpt lat="41.411825" lon="1.392568"><ele>538.25</ele><time>2026-04-05T08:13:44.776Z</time></trkpt><trkpt lat="41.4118497" lon="1.3923977"><ele>537.5</ele><time>2026-04-05T08:13:45.776Z</time></trkpt><trkpt lat="41.4118854" lon="1.3922385"><ele>536.75</ele><time>2026-04-05T08:13:46.776Z</time></trkpt><trkpt lat="41.4119245" lon="1.3920712"><ele>536.0</ele><time>2026-04-05T08:13:47.777Z</time></trkpt><trkpt lat="41.4119466" lon="1.3919095"><ele>536.0</ele><time>2026-04-05T08:13:48.777Z</time></trkpt><trkpt lat="41.4119393" lon="1.3917472"><ele>536.0</ele><time>2026-04-05T08:13:49.777Z</time></trkpt><trkpt lat="41.4119118" lon="1.3915749"><ele>536.0</ele><time>2026-04-05T08:13:50.777Z</time></trkpt><trkpt lat="41.4118963" lon="1.3913924"><ele>536.0</ele><time>2026-04-05T08:13:51.776Z</time></trkpt><trkpt lat="41.4118982" lon="1.3912028"><ele>536.0</ele><time>2026-04-05T08:13:52.777Z</time></trkpt><trkpt lat="41.4119093" lon="1.3910115"><ele>536.0</ele><time>2026-04-05T08:13:53.777Z</time></trkpt><trkpt lat="41.4119181" lon="1.390803"><ele>536.0</ele><time>2026-04-05T08:13:54.776Z</time></trkpt><trkpt lat="41.4119314" lon="1.3906049"><ele>536.0</ele><time>2026-04-05T08:13:55.777Z</time></trkpt><trkpt lat="41.4119478" lon="1.3904203"><ele>536.0</ele><time>2026-04-05T08:13:56.776Z</time></trkpt><trkpt lat="41.4119514" lon="1.3902382"><ele>536.0</ele><time>2026-04-05T08:13:57.777Z</time></trkpt><trkpt lat="41.4119587" lon="1.3900687"><ele>536.0</ele><time>2026-04-05T08:13:58.776Z</time></trkpt><trkpt lat="41.4119768" lon="1.3899089"><ele>536.0</ele><time>2026-04-05T08:13:59.776Z</time></trkpt><trkpt lat="41.4120095" lon="1.3897601"><ele>536.0</ele><time>2026-04-05T08:14:00.777Z</time></trkpt><trkpt lat="41.4120567" lon="1.3896077"><ele>536.0</ele><time>2026-04-05T08:14:01.776Z</time></trkpt><trkpt lat="41.4121153" lon="1.3894601"><ele>536.0</ele><time>2026-04-05T08:14:02.777Z</time></trkpt><trkpt lat="41.4121618" lon="1.3893112"><ele>528.75</ele><time>2026-04-05T08:14:03.777Z</time></trkpt><trkpt lat="41.4121969" lon="1.3891443"><ele>521.5</ele><time>2026-04-05T08:14:04.776Z</time></trkpt><trkpt lat="41.4122246" lon="1.3889734"><ele>514.25</ele><time>2026-04-05T08:14:05.776Z</time></trkpt><trkpt lat="41.4122494" lon="1.388803"><ele>507.0</ele><time>2026-04-05T08:14:06.776Z</time></trkpt><trkpt lat="41.4122593" lon="1.3886249"><ele>507.0</ele><time>2026-04-05T08:14:07.777Z</time></trkpt><trkpt lat="41.4122726" lon="1.3884625"><ele>507.00000000000006</ele><time>2026-04-05T08:14:08.776Z</time></trkpt><trkpt lat="41.4122785" lon="1.3883159"><ele>507.00000000000006</ele><time>2026-04-05T08:14:09.777Z</time></trkpt><trkpt lat="41.4122726" lon="1.3881751"><ele>507.0</ele><time>2026-04-05T08:14:10.777Z</time></trkpt><trkpt lat="41.4122461" lon="1.3880351"><ele>507.0</ele><time>2026-04-05T08:14:11.777Z</time></trkpt><trkpt lat="41.4122092" lon="1.3879053"><ele>505.0</ele><time>2026-04-05T08:14:12.776Z</time></trkpt><trkpt lat="41.4121576" lon="1.3877691"><ele>503.0</ele><time>2026-04-05T08:14:13.776Z</time></trkpt><trkpt lat="41.4120907" lon="1.3876153"><ele>501.0</ele><time>2026-04-05T08:14:14.777Z</time></trkpt><trkpt lat="41.4120314" lon="1.3874599"><ele>499.0</ele><time>2026-04-05T08:14:15.776Z</time></trkpt><trkpt lat="41.4119711" lon="1.3873188"><ele>501.5</ele><time>2026-04-05T08:14:16.777Z</time></trkpt><trkpt lat="41.4118963" lon="1.3871799"><ele>504.0</ele><time>2026-04-05T08:14:17.777Z</time></trkpt><trkpt lat="41.4118315" lon="1.387042"><ele>506.5</ele><time>2026-04-05T08:14:18.777Z</time></trkpt><trkpt lat="41.4117531" lon="1.3869064"><ele>509.0</ele><time>2026-04-05T08:14:19.776Z</time></trkpt><trkpt lat="41.4116786" lon="1.3867748"><ele>509.0</ele><time>2026-04-05T08:14:20.776Z</time></trkpt><trkpt lat="41.4115964" lon="1.3866422"><ele>509.0</ele><time>2026-04-05T08:14:21.777Z</time></trkpt><trkpt lat="41.4114991" lon="1.3865254"><ele>509.0</ele><time>2026-04-05T08:14:22.776Z</time></trkpt><trkpt lat="41.4114065" lon="1.3864105"><ele>509.0</ele><time>2026-04-05T08:14:23.776Z</time></trkpt><trkpt lat="41.4113108" lon="1.3863028"><ele>507.5</ele><time>2026-04-05T08:14:24.777Z</time></trkpt><trkpt lat="41.4112109" lon="1.3861988"><ele>506.0</ele><time>2026-04-05T08:14:25.777Z</time></trkpt><trkpt lat="41.4111133" lon="1.3861078"><ele>504.5</ele><time>2026-04-05T08:14:26.776Z</time></trkpt><trkpt lat="41.4110167" lon="1.3860279"><ele>503.0</ele><time>2026-04-05T08:14:27.777Z</time></trkpt><trkpt lat="41.4109061" lon="1.3859892"><ele>503.0</ele><time>2026-04-05T08:14:28.777Z</time></trkpt><trkpt lat="41.4107728" lon="1.3859841"><ele>503.0</ele><time>2026-04-05T08:14:29.777Z</time></trkpt><trkpt lat="41.4106396" lon="1.3859899"><ele>503.0</ele><time>2026-04-05T08:14:30.776Z</time></trkpt><trkpt lat="41.4105092" lon="1.3860024"><ele>503.0</ele><time>2026-04-05T08:14:31.777Z</time></trkpt><trkpt lat="41.4103797" lon="1.3860209"><ele>503.99999999999994</ele><time>2026-04-05T08:14:32.776Z</time></trkpt><trkpt lat="41.4102756" lon="1.3860351"><ele>505.0</ele><time>2026-04-05T08:14:33.777Z</time></trkpt><trkpt lat="41.4101812" lon="1.3860471"><ele>506.0</ele><time>2026-04-05T08:14:34.777Z</time></trkpt><trkpt lat="41.4101025" lon="1.3860458"><ele>507.0</ele><time>2026-04-05T08:14:35.776Z</time></trkpt><trkpt lat="41.4100292" lon="1.3860116"><ele>507.99999999999994</ele><time>2026-04-05T08:14:36.776Z</time></trkpt><trkpt lat="41.4099724" lon="1.3859281"><ele>509.0</ele><time>2026-04-05T08:14:37.776Z</time></trkpt><trkpt lat="41.4099313" lon="1.3858238"><ele>509.0</ele><time>2026-04-05T08:14:38.777Z</time></trkpt><trkpt lat="41.4099398" lon="1.3856889"><ele>509.0</ele><time>2026-04-05T08:14:39.776Z</time></trkpt><trkpt lat="41.409942" lon="1.3855617"><ele>509.0</ele><time>2026-04-05T08:14:40.777Z</time></trkpt><trkpt lat="41.4099249" lon="1.385431"><ele>509.0</ele><time>2026-04-05T08:14:41.777Z</time></trkpt><trkpt lat="41.409893" lon="1.3853075"><ele>509.0</ele><time>2026-04-05T08:14:42.777Z</time></trkpt><trkpt lat="41.4098508" lon="1.385189"><ele>506.6</ele><time>2026-04-05T08:14:43.777Z</time></trkpt><trkpt lat="41.4098116" lon="1.385069"><ele>504.2</ele><time>2026-04-05T08:14:44.776Z</time></trkpt><trkpt lat="41.4097667" lon="1.384951"><ele>501.80000000000007</ele><time>2026-04-05T08:14:45.777Z</time></trkpt><trkpt lat="41.4097299" lon="1.3848321"><ele>499.40000000000003</ele><time>2026-04-05T08:14:46.777Z</time></trkpt><trkpt lat="41.4097129" lon="1.3847144"><ele>497.0</ele><time>2026-04-05T08:14:47.776Z</time></trkpt><trkpt lat="41.409712" lon="1.3845981"><ele>496.8</ele><time>2026-04-05T08:14:48.776Z</time></trkpt><trkpt lat="41.4097435" lon="1.3844773"><ele>496.6</ele><time>2026-04-05T08:14:49.777Z</time></trkpt><trkpt lat="41.4097969" lon="1.3843634"><ele>496.40000000000003</ele><time>2026-04-05T08:14:50.776Z</time></trkpt><trkpt lat="41.4098612" lon="1.3842522"><ele>496.20000000000005</ele><time>2026-04-05T08:14:51.777Z</time></trkpt><trkpt lat="41.4099146" lon="1.3841397"><ele>496.0</ele><time>2026-04-05T08:14:52.776Z</time></trkpt><trkpt lat="41.4099662" lon="1.3840182"><ele>496.0</ele><time>2026-04-05T08:14:53.776Z</time></trkpt><trkpt lat="41.4100042" lon="1.3838773"><ele>496.0</ele><time>2026-04-05T08:14:54.776Z</time></trkpt><trkpt lat="41.4100244" lon="1.3837296"><ele>496.0</ele><time>2026-04-05T08:14:55.776Z</time></trkpt><trkpt lat="41.4100384" lon="1.3835811"><ele>496.0</ele><time>2026-04-05T08:14:56.777Z</time></trkpt><trkpt lat="41.4100555" lon="1.3834293"><ele>496.4</ele><time>2026-04-05T08:14:57.776Z</time></trkpt><trkpt lat="41.4100718" lon="1.3832811"><ele>496.8</ele><time>2026-04-05T08:14:58.776Z</time></trkpt><trkpt lat="41.4100862" lon="1.3831469"><ele>497.19999999999993</ele><time>2026-04-05T08:14:59.776Z</time></trkpt><trkpt lat="41.410091" lon="1.3830126"><ele>497.59999999999997</ele><time>2026-04-05T08:15:00.776Z</time></trkpt><trkpt lat="41.4100734" lon="1.3828792"><ele>498.0</ele><time>2026-04-05T08:15:01.776Z</time></trkpt><trkpt lat="41.410023" lon="1.3827556"><ele>496.5</ele><time>2026-04-05T08:15:02.777Z</time></trkpt><trkpt lat="41.4099616" lon="1.3826325"><ele>495.0</ele><time>2026-04-05T08:15:03.776Z</time></trkpt><trkpt lat="41.4098848" lon="1.3824998"><ele>493.5</ele><time>2026-04-05T08:15:04.777Z</time></trkpt><trkpt lat="41.4097944" lon="1.3823665"><ele>492.0</ele><time>2026-04-05T08:15:05.777Z</time></trkpt><trkpt lat="41.4097021" lon="1.38224"><ele>490.0</ele><time>2026-04-05T08:15:06.777Z</time></trkpt><trkpt lat="41.4096148" lon="1.3821263"><ele>488.0</ele><time>2026-04-05T08:15:07.777Z</time></trkpt><trkpt lat="41.4095205" lon="1.382033"><ele>486.0</ele><time>2026-04-05T08:15:08.777Z</time></trkpt><trkpt lat="41.4094218" lon="1.3819638"><ele>484.0</ele><time>2026-04-05T08:15:09.776Z</time></trkpt><trkpt lat="41.4093158" lon="1.3819285"><ele>484.0</ele><time>2026-04-05T08:15:10.776Z</time></trkpt><trkpt lat="41.4092054" lon="1.3819132"><ele>484.0</ele><time>2026-04-05T08:15:11.776Z</time></trkpt><trkpt lat="41.4090976" lon="1.3818955"><ele>484.0</ele><time>2026-04-05T08:15:12.776Z</time></trkpt><trkpt lat="41.4089923" lon="1.3818702"><ele>484.0</ele><time>2026-04-05T08:15:13.777Z</time></trkpt><trkpt lat="41.408898" lon="1.3818126"><ele>484.0</ele><time>2026-04-05T08:15:14.777Z</time></trkpt><trkpt lat="41.4088123" lon="1.3817139"><ele>486.5</ele><time>2026-04-05T08:15:15.777Z</time></trkpt><trkpt lat="41.4087374" lon="1.3815842"><ele>489.0</ele><time>2026-04-05T08:15:16.776Z</time></trkpt><trkpt lat="41.4086782" lon="1.3814427"><ele>491.5</ele><time>2026-04-05T08:15:17.777Z</time></trkpt><trkpt lat="41.4086199" lon="1.3813015"><ele>494.0</ele><time>2026-04-05T08:15:18.776Z</time></trkpt><trkpt lat="41.4085562" lon="1.3811713"><ele>494.0</ele><time>2026-04-05T08:15:19.777Z</time></trkpt><trkpt lat="41.4084966" lon="1.3810438"><ele>494.0</ele><time>2026-04-05T08:15:20.777Z</time></trkpt><trkpt lat="41.4084535" lon="1.3809231"><ele>494.0</ele><time>2026-04-05T08:15:21.777Z</time></trkpt><trkpt lat="41.4084268" lon="1.3807987"><ele>494.0</ele><time>2026-04-05T08:15:22.776Z</time></trkpt><trkpt lat="41.4084306" lon="1.3806686"><ele>494.0</ele><time>2026-04-05T08:15:23.777Z</time></trkpt><trkpt lat="41.408461" lon="1.3805139"><ele>494.5</ele><time>2026-04-05T08:15:24.777Z</time></trkpt><trkpt lat="41.408508" lon="1.3803555"><ele>495.0</ele><time>2026-04-05T08:15:25.777Z</time></trkpt><trkpt lat="41.4085607" lon="1.3802092"><ele>495.5</ele><time>2026-04-05T08:15:26.776Z</time></trkpt><trkpt lat="41.4086073" lon="1.3800657"><ele>496.0</ele><time>2026-04-05T08:15:27.776Z</time></trkpt><trkpt lat="41.4086572" lon="1.3799215"><ele>496.0</ele><time>2026-04-05T08:15:28.777Z</time></trkpt><trkpt lat="41.408709" lon="1.3797743"><ele>496.0</ele><time>2026-04-05T08:15:29.776Z</time></trkpt><trkpt lat="41.4087544" lon="1.3796276"><ele>496.0</ele><time>2026-04-05T08:15:30.777Z</time></trkpt><trkpt lat="41.4088038" lon="1.3794843"><ele>496.0</ele><time>2026-04-05T08:15:31.776Z</time></trkpt><trkpt lat="41.4088533" lon="1.3793442"><ele>490.0</ele><time>2026-04-05T08:15:32.777Z</time></trkpt><trkpt lat="41.4089002" lon="1.3792055"><ele>484.0</ele><time>2026-04-05T08:15:33.777Z</time></trkpt><trkpt lat="41.4089411" lon="1.3790614"><ele>478.0</ele><time>2026-04-05T08:15:34.776Z</time></trkpt><trkpt lat="41.40897" lon="1.3788992"><ele>472.0</ele><time>2026-04-05T08:15:35.777Z</time></trkpt><trkpt lat="41.4089766" lon="1.3787361"><ele>473.5</ele><time>2026-04-05T08:15:36.776Z</time></trkpt><trkpt lat="41.4089606" lon="1.3785771"><ele>475.0</ele><time>2026-04-05T08:15:37.777Z</time></trkpt><trkpt lat="41.4089115" lon="1.3784344"><ele>476.5</ele><time>2026-04-05T08:15:38.776Z</time></trkpt><trkpt lat="41.4088408" lon="1.3783044"><ele>478.0</ele><time>2026-04-05T08:15:39.776Z</time></trkpt><trkpt lat="41.4087494" lon="1.3781972"><ele>478.0</ele><time>2026-04-05T08:15:40.777Z</time></trkpt><trkpt lat="41.4086403" lon="1.3781083"><ele>478.0</ele><time>2026-04-05T08:15:41.777Z</time></trkpt><trkpt lat="41.4085233" lon="1.3780247"><ele>478.0</ele><time>2026-04-05T08:15:42.777Z</time></trkpt><trkpt lat="41.4084068" lon="1.377951"><ele>478.0</ele><time>2026-04-05T08:15:43.777Z</time></trkpt><trkpt lat="41.4082975" lon="1.3778787"><ele>475.59999999999997</ele><time>2026-04-05T08:15:44.776Z</time></trkpt><trkpt lat="41.4081934" lon="1.3778087"><ele>473.19999999999993</ele><time>2026-04-05T08:15:45.776Z</time></trkpt><trkpt lat="41.4080977" lon="1.3777467"><ele>470.8</ele><time>2026-04-05T08:15:46.776Z</time></trkpt><trkpt lat="41.4080036" lon="1.377688"><ele>468.4</ele><time>2026-04-05T08:15:47.777Z</time></trkpt><trkpt lat="41.4079071" lon="1.37764"><ele>466.0</ele><time>2026-04-05T08:15:48.776Z</time></trkpt><trkpt lat="41.4078077" lon="1.3776142"><ele>466.0</ele><time>2026-04-05T08:15:49.776Z</time></trkpt><trkpt lat="41.4077046" lon="1.3775905"><ele>466.0</ele><time>2026-04-05T08:15:50.776Z</time></trkpt><trkpt lat="41.4075974" lon="1.3775641"><ele>466.0</ele><time>2026-04-05T08:15:51.776Z</time></trkpt><trkpt lat="41.4074896" lon="1.3775256"><ele>466.0</ele><time>2026-04-05T08:15:52.776Z</time></trkpt><trkpt lat="41.4073835" lon="1.3774658"><ele>466.0</ele><time>2026-04-05T08:15:53.776Z</time></trkpt><trkpt lat="41.4072918" lon="1.3773809"><ele>466.0</ele><time>2026-04-05T08:15:54.777Z</time></trkpt><trkpt lat="41.4072128" lon="1.3772733"><ele>466.0</ele><time>2026-04-05T08:15:55.776Z</time></trkpt><trkpt lat="41.4071361" lon="1.3771359"><ele>466.0</ele><time>2026-04-05T08:15:56.776Z</time></trkpt><trkpt lat="41.407063" lon="1.3769801"><ele>466.0</ele><time>2026-04-05T08:15:57.777Z</time></trkpt><trkpt lat="41.4069838" lon="1.3768076"><ele>465.0</ele><time>2026-04-05T08:15:58.776Z</time></trkpt><trkpt lat="41.4068963" lon="1.3766196"><ele>464.0</ele><time>2026-04-05T08:15:59.776Z</time></trkpt><trkpt lat="41.4067984" lon="1.3764156"><ele>463.0</ele><time>2026-04-05T08:16:00.776Z</time></trkpt><trkpt lat="41.4066947" lon="1.3761844"><ele>462.6666666666667</ele><time>2026-04-05T08:16:01.777Z</time></trkpt><trkpt lat="41.4065988" lon="1.3759328"><ele>462.33333333333337</ele><time>2026-04-05T08:16:02.776Z</time></trkpt><trkpt lat="41.4065049" lon="1.375697"><ele>462.0</ele><time>2026-04-05T08:16:03.776Z</time></trkpt><trkpt lat="41.4064076" lon="1.3754624"><ele>464.33333333333337</ele><time>2026-04-05T08:16:04.777Z</time></trkpt><trkpt lat="41.4063102" lon="1.3752438"><ele>466.6666666666667</ele><time>2026-04-05T08:16:05.776Z</time></trkpt><trkpt lat="41.4062125" lon="1.3750329"><ele>469.0</ele><time>2026-04-05T08:16:06.777Z</time></trkpt><trkpt lat="41.4061257" lon="1.3748294"><ele>465.6666666666667</ele><time>2026-04-05T08:16:07.777Z</time></trkpt><trkpt lat="41.4060321" lon="1.3746287"><ele>462.33333333333337</ele><time>2026-04-05T08:16:08.776Z</time></trkpt><trkpt lat="41.4059495" lon="1.374444"><ele>459.0</ele><time>2026-04-05T08:16:09.777Z</time></trkpt><trkpt lat="41.4058803" lon="1.3742655"><ele>459.0</ele><time>2026-04-05T08:16:10.777Z</time></trkpt><trkpt lat="41.4058639" lon="1.3740919"><ele>459.0</ele><time>2026-04-05T08:16:11.776Z</time></trkpt><trkpt lat="41.4058457" lon="1.3739079"><ele>459.0</ele><time>2026-04-05T08:16:12.777Z</time></trkpt><trkpt lat="41.4058537" lon="1.3737166"><ele>459.0</ele><time>2026-04-05T08:16:13.776Z</time></trkpt><trkpt lat="41.4058849" lon="1.3734993"><ele>458.0</ele><time>2026-04-05T08:16:14.777Z</time></trkpt><trkpt lat="41.4059001" lon="1.3732957"><ele>457.0</ele><time>2026-04-05T08:16:15.777Z</time></trkpt><trkpt lat="41.4059001" lon="1.3730968"><ele>456.0</ele><time>2026-04-05T08:16:16.776Z</time></trkpt><trkpt lat="41.4058863" lon="1.3728882"><ele>454.33333333333337</ele><time>2026-04-05T08:16:17.776Z</time></trkpt><trkpt lat="41.4058403" lon="1.3727005"><ele>452.6666666666667</ele><time>2026-04-05T08:16:18.776Z</time></trkpt><trkpt lat="41.4058039" lon="1.3724926"><ele>451.0</ele><time>2026-04-05T08:16:19.776Z</time></trkpt><trkpt lat="41.405771" lon="1.3722989"><ele>448.25</ele><time>2026-04-05T08:16:20.776Z</time></trkpt><trkpt lat="41.4057428" lon="1.3721071"><ele>445.5</ele><time>2026-04-05T08:16:21.776Z</time></trkpt><trkpt lat="41.4057115" lon="1.3719458"><ele>442.75</ele><time>2026-04-05T08:16:22.776Z</time></trkpt><trkpt lat="41.4056749" lon="1.3717956"><ele>440.0</ele><time>2026-04-05T08:16:23.777Z</time></trkpt><trkpt lat="41.4056113" lon="1.3716749"><ele>440.0</ele><time>2026-04-05T08:16:24.777Z</time></trkpt><trkpt lat="41.405526" lon="1.3715732"><ele>440.0</ele><time>2026-04-05T08:16:25.777Z</time></trkpt><trkpt lat="41.4054216" lon="1.3714909"><ele>440.0</ele><time>2026-04-05T08:16:26.776Z</time></trkpt><trkpt lat="41.4052978" lon="1.3714453"><ele>440.0</ele><time>2026-04-05T08:16:27.777Z</time></trkpt><trkpt lat="41.4051664" lon="1.371414"><ele>442.0</ele><time>2026-04-05T08:16:28.777Z</time></trkpt><trkpt lat="41.4050424" lon="1.3713915"><ele>444.0</ele><time>2026-04-05T08:16:29.777Z</time></trkpt><trkpt lat="41.4049321" lon="1.3714054"><ele>446.0</ele><time>2026-04-05T08:16:30.776Z</time></trkpt><trkpt lat="41.4048368" lon="1.3714192"><ele>448.0</ele><time>2026-04-05T08:16:31.776Z</time></trkpt><trkpt lat="41.4047297" lon="1.3715043"><ele>446.25</ele><time>2026-04-05T08:16:32.777Z</time></trkpt><trkpt lat="41.4046448" lon="1.371635"><ele>444.5</ele><time>2026-04-05T08:16:33.776Z</time></trkpt><trkpt lat="41.4045593" lon="1.3717626"><ele>442.75</ele><time>2026-04-05T08:16:34.776Z</time></trkpt><trkpt lat="41.40447" lon="1.3718964"><ele>441.0</ele><time>2026-04-05T08:16:35.776Z</time></trkpt><trkpt lat="41.4043854" lon="1.3719873"><ele>441.0</ele><time>2026-04-05T08:16:36.776Z</time></trkpt><trkpt lat="41.4042898" lon="1.3720528"><ele>441.0</ele><time>2026-04-05T08:16:37.776Z</time></trkpt><trkpt lat="41.4041889" lon="1.3720641"><ele>441.0</ele><time>2026-04-05T08:16:38.777Z</time></trkpt><trkpt lat="41.4040843" lon="1.3720141"><ele>441.0</ele><time>2026-04-05T08:16:39.776Z</time></trkpt><trkpt lat="41.403962" lon="1.3719289"><ele>441.0</ele><time>2026-04-05T08:16:40.776Z</time></trkpt><trkpt lat="41.4038367" lon="1.3718341"><ele>441.0</ele><time>2026-04-05T08:16:41.776Z</time></trkpt><trkpt lat="41.4037072" lon="1.3717438"><ele>441.0</ele><time>2026-04-05T08:16:42.777Z</time></trkpt><trkpt lat="41.4036014" lon="1.3716229"><ele>441.0</ele><time>2026-04-05T08:16:43.776Z</time></trkpt><trkpt lat="41.4035146" lon="1.3714667"><ele>439.25</ele><time>2026-04-05T08:16:44.777Z</time></trkpt><trkpt lat="41.4034512" lon="1.3712914"><ele>437.5</ele><time>2026-04-05T08:16:45.777Z</time></trkpt><trkpt lat="41.4034122" lon="1.3711135"><ele>435.75</ele><time>2026-04-05T08:16:46.776Z</time></trkpt><trkpt lat="41.4033673" lon="1.3709377"><ele>434.0</ele><time>2026-04-05T08:16:47.777Z</time></trkpt><trkpt lat="41.4033053" lon="1.3707776"><ele>434.0</ele><time>2026-04-05T08:16:48.776Z</time></trkpt><trkpt lat="41.4032315" lon="1.3706313"><ele>434.0</ele><time>2026-04-05T08:16:49.777Z</time></trkpt><trkpt lat="41.4031118" lon="1.3705022"><ele>434.0</ele><time>2026-04-05T08:16:50.777Z</time></trkpt><trkpt lat="41.4029818" lon="1.3703708"><ele>434.0</ele><time>2026-04-05T08:16:51.777Z</time></trkpt><trkpt lat="41.4028536" lon="1.3702512"><ele>432.0</ele><time>2026-04-05T08:16:52.776Z</time></trkpt><trkpt lat="41.4027286" lon="1.3701321"><ele>430.0</ele><time>2026-04-05T08:16:53.776Z</time></trkpt><trkpt lat="41.4025952" lon="1.370028"><ele>428.0</ele><time>2026-04-05T08:16:54.776Z</time></trkpt><trkpt lat="41.4024398" lon="1.3699494"><ele>428.0</ele><time>2026-04-05T08:16:55.777Z</time></trkpt><trkpt lat="41.4022646" lon="1.3698905"><ele>428.0</ele><time>2026-04-05T08:16:56.776Z</time></trkpt><trkpt lat="41.4020739" lon="1.36984"><ele>428.0</ele><time>2026-04-05T08:16:57.776Z</time></trkpt><trkpt lat="41.4018903" lon="1.3697846"><ele>428.3333333333333</ele><time>2026-04-05T08:16:58.776Z</time></trkpt><trkpt lat="41.4017122" lon="1.3697297"><ele>428.66666666666663</ele><time>2026-04-05T08:16:59.777Z</time></trkpt><trkpt lat="41.4015353" lon="1.369678"><ele>429.0</ele><time>2026-04-05T08:17:00.776Z</time></trkpt><trkpt lat="41.401366" lon="1.3696304"><ele>425.66666666666663</ele><time>2026-04-05T08:17:01.777Z</time></trkpt><trkpt lat="41.4012036" lon="1.3695842"><ele>422.3333333333333</ele><time>2026-04-05T08:17:02.776Z</time></trkpt><trkpt lat="41.4010575" lon="1.3695244"><ele>419.0</ele><time>2026-04-05T08:17:03.777Z</time></trkpt><trkpt lat="41.4009314" lon="1.3694278"><ele>419.0</ele><time>2026-04-05T08:17:04.776Z</time></trkpt><trkpt lat="41.4008283" lon="1.3692933"><ele>419.0</ele><time>2026-04-05T08:17:05.776Z</time></trkpt><trkpt lat="41.4007384" lon="1.3691143"><ele>419.0</ele><time>2026-04-05T08:17:06.776Z</time></trkpt><trkpt lat="41.4006662" lon="1.3689399"><ele>415.4</ele><time>2026-04-05T08:17:07.776Z</time></trkpt><trkpt lat="41.4005954" lon="1.3687705"><ele>411.79999999999995</ele><time>2026-04-05T08:17:08.777Z</time></trkpt><trkpt lat="41.4005397" lon="1.3686373"><ele>408.20000000000005</ele><time>2026-04-05T08:17:09.776Z</time></trkpt><trkpt lat="41.4004956" lon="1.3685752"><ele>404.6</ele><time>2026-04-05T08:17:10.777Z</time></trkpt><trkpt lat="41.4004258" lon="1.3685089"><ele>401.0</ele><time>2026-04-05T08:17:11.776Z</time></trkpt><trkpt lat="41.4003453" lon="1.3684857"><ele>401.0</ele><time>2026-04-05T08:17:12.777Z</time></trkpt><trkpt lat="41.4002388" lon="1.3685171"><ele>401.0</ele><time>2026-04-05T08:17:13.777Z</time></trkpt><trkpt lat="41.4001315" lon="1.3685677"><ele>401.0</ele><time>2026-04-05T08:17:14.776Z</time></trkpt><trkpt lat="41.4000047" lon="1.368635"><ele>401.0</ele><time>2026-04-05T08:17:15.777Z</time></trkpt><trkpt lat="41.3998664" lon="1.368693"><ele>401.0</ele><time>2026-04-05T08:17:16.776Z</time></trkpt><trkpt lat="41.3997024" lon="1.3687221"><ele>401.0</ele><time>2026-04-05T08:17:17.777Z</time></trkpt><trkpt lat="41.3995263" lon="1.3687294"><ele>401.0</ele><time>2026-04-05T08:17:18.776Z</time></trkpt><trkpt lat="41.3993361" lon="1.3687269"><ele>399.3333333333333</ele><time>2026-04-05T08:17:19.776Z</time></trkpt><trkpt lat="41.3991511" lon="1.3687058"><ele>397.66666666666663</ele><time>2026-04-05T08:17:20.777Z</time></trkpt><trkpt lat="41.398992" lon="1.3686527"><ele>396.0</ele><time>2026-04-05T08:17:21.777Z</time></trkpt><trkpt lat="41.3988552" lon="1.3685713"><ele>395.75</ele><time>2026-04-05T08:17:22.777Z</time></trkpt><trkpt lat="41.398728" lon="1.3684859"><ele>395.5</ele><time>2026-04-05T08:17:23.777Z</time></trkpt><trkpt lat="41.3986221" lon="1.3684239"><ele>395.25</ele><time>2026-04-05T08:17:24.776Z</time></trkpt><trkpt lat="41.398527" lon="1.3683822"><ele>395.0</ele><time>2026-04-05T08:17:25.776Z</time></trkpt><trkpt lat="41.3984325" lon="1.3683772"><ele>395.0</ele><time>2026-04-05T08:17:26.777Z</time></trkpt><trkpt lat="41.3983435" lon="1.3684077"><ele>395.0</ele><time>2026-04-05T08:17:27.777Z</time></trkpt><trkpt lat="41.3982757" lon="1.368483"><ele>395.0</ele><time>2026-04-05T08:17:28.777Z</time></trkpt><trkpt lat="41.3982307" lon="1.3685975"><ele>395.0</ele><time>2026-04-05T08:17:29.777Z</time></trkpt><trkpt lat="41.3982208" lon="1.3687284"><ele>395.0</ele><time>2026-04-05T08:17:30.776Z</time></trkpt><trkpt lat="41.3982503" lon="1.3688562"><ele>396.5</ele><time>2026-04-05T08:17:31.776Z</time></trkpt><trkpt lat="41.3983194" lon="1.3689753"><ele>398.0</ele><time>2026-04-05T08:17:32.776Z</time></trkpt><trkpt lat="41.3984121" lon="1.3690966"><ele>399.5</ele><time>2026-04-05T08:17:33.776Z</time></trkpt><trkpt lat="41.3985048" lon="1.3692118"><ele>401.0</ele><time>2026-04-05T08:17:34.776Z</time></trkpt><trkpt lat="41.3985813" lon="1.3693263"><ele>401.0</ele><time>2026-04-05T08:17:35.777Z</time></trkpt><trkpt lat="41.3986206" lon="1.3694485"><ele>401.0</ele><time>2026-04-05T08:17:36.777Z</time></trkpt><trkpt lat="41.3986185" lon="1.369573"><ele>401.0</ele><time>2026-04-05T08:17:37.776Z</time></trkpt><trkpt lat="41.3985817" lon="1.3696947"><ele>401.0</ele><time>2026-04-05T08:17:38.776Z</time></trkpt><trkpt lat="41.3985282" lon="1.3698233"><ele>401.0</ele><time>2026-04-05T08:17:39.776Z</time></trkpt><trkpt lat="41.3984419" lon="1.3699303"><ele>402.0</ele><time>2026-04-05T08:17:40.777Z</time></trkpt><trkpt lat="41.398332" lon="1.3700047"><ele>403.0</ele><time>2026-04-05T08:17:41.777Z</time></trkpt><trkpt lat="41.3982019" lon="1.3700393"><ele>404.0</ele><time>2026-04-05T08:17:42.776Z</time></trkpt><trkpt lat="41.3980489" lon="1.3700482"><ele>405.0</ele><time>2026-04-05T08:17:43.777Z</time></trkpt><trkpt lat="41.3979002" lon="1.3700665"><ele>402.5</ele><time>2026-04-05T08:17:44.777Z</time></trkpt><trkpt lat="41.3977538" lon="1.3701021"><ele>400.0</ele><time>2026-04-05T08:17:45.776Z</time></trkpt><trkpt lat="41.3976171" lon="1.3701756"><ele>397.5</ele><time>2026-04-05T08:17:46.777Z</time></trkpt><trkpt lat="41.3974909" lon="1.37028"><ele>395.0</ele><time>2026-04-05T08:17:47.777Z</time></trkpt><trkpt lat="41.3973806" lon="1.370393"><ele>395.0</ele><time>2026-04-05T08:17:48.776Z</time></trkpt><trkpt lat="41.3972881" lon="1.370517"><ele>395.0</ele><time>2026-04-05T08:17:49.777Z</time></trkpt><trkpt lat="41.3972087" lon="1.3706621"><ele>395.0</ele><time>2026-04-05T08:17:50.777Z</time></trkpt><trkpt lat="41.3971311" lon="1.3708222"><ele>395.0</ele><time>2026-04-05T08:17:51.776Z</time></trkpt><trkpt lat="41.3970624" lon="1.3709728"><ele>396.66666666666663</ele><time>2026-04-05T08:17:52.777Z</time></trkpt><trkpt lat="41.3970058" lon="1.3710915"><ele>398.3333333333333</ele><time>2026-04-05T08:17:53.777Z</time></trkpt><trkpt lat="41.3969415" lon="1.3711679"><ele>400.0</ele><time>2026-04-05T08:17:54.777Z</time></trkpt><trkpt lat="41.39687" lon="1.3712048"><ele>401.66666666666663</ele><time>2026-04-05T08:17:55.776Z</time></trkpt><trkpt lat="41.3967962" lon="1.37119"><ele>403.3333333333333</ele><time>2026-04-05T08:17:56.777Z</time></trkpt><trkpt lat="41.3967259" lon="1.3711277"><ele>405.0</ele><time>2026-04-05T08:17:57.776Z</time></trkpt><trkpt lat="41.3966572" lon="1.3710496"><ele>405.0</ele><time>2026-04-05T08:17:58.776Z</time></trkpt><trkpt lat="41.3966115" lon="1.3708909"><ele>405.0</ele><time>2026-04-05T08:17:59.777Z</time></trkpt><trkpt lat="41.3965719" lon="1.370738"><ele>405.0</ele><time>2026-04-05T08:18:00.777Z</time></trkpt><trkpt lat="41.3965443" lon="1.3705748"><ele>405.0</ele><time>2026-04-05T08:18:01.776Z</time></trkpt><trkpt lat="41.3965176" lon="1.3704109"><ele>405.5</ele><time>2026-04-05T08:18:02.776Z</time></trkpt><trkpt lat="41.3964856" lon="1.3702615"><ele>406.0</ele><time>2026-04-05T08:18:03.776Z</time></trkpt><trkpt lat="41.3964382" lon="1.3701199"><ele>406.5</ele><time>2026-04-05T08:18:04.777Z</time></trkpt><trkpt lat="41.3963823" lon="1.3699812"><ele>407.0</ele><time>2026-04-05T08:18:05.777Z</time></trkpt><trkpt lat="41.3963021" lon="1.369846"><ele>407.0</ele><time>2026-04-05T08:18:06.777Z</time></trkpt><trkpt lat="41.3962206" lon="1.3697325"><ele>407.0</ele><time>2026-04-05T08:18:07.777Z</time></trkpt><trkpt lat="41.3961301" lon="1.3696685"><ele>407.0</ele><time>2026-04-05T08:18:08.776Z</time></trkpt><trkpt lat="41.3960388" lon="1.3696454"><ele>407.0</ele><time>2026-04-05T08:18:09.777Z</time></trkpt><trkpt lat="41.3959129" lon="1.3696044"><ele>407.0</ele><time>2026-04-05T08:18:10.777Z</time></trkpt><trkpt lat="41.3958065" lon="1.3695433"><ele>404.6</ele><time>2026-04-05T08:18:11.776Z</time></trkpt><trkpt lat="41.3957454" lon="1.3694334"><ele>402.20000000000005</ele><time>2026-04-05T08:18:12.777Z</time></trkpt><trkpt lat="41.395694" lon="1.3693108"><ele>399.8</ele><time>2026-04-05T08:18:13.777Z</time></trkpt><trkpt lat="41.3956409" lon="1.3692012"><ele>397.4</ele><time>2026-04-05T08:18:14.776Z</time></trkpt><trkpt lat="41.3955652" lon="1.3691148"><ele>395.0</ele><time>2026-04-05T08:18:15.777Z</time></trkpt><trkpt lat="41.3954793" lon="1.3690503"><ele>395.0</ele><time>2026-04-05T08:18:16.776Z</time></trkpt><trkpt lat="41.395366" lon="1.369003"><ele>395.0</ele><time>2026-04-05T08:18:17.777Z</time></trkpt><trkpt lat="41.3952361" lon="1.3689715"><ele>395.0</ele><time>2026-04-05T08:18:18.777Z</time></trkpt><trkpt lat="41.3951103" lon="1.368955"><ele>395.0</ele><time>2026-04-05T08:18:19.777Z</time></trkpt><trkpt lat="41.3949924" lon="1.368957"><ele>395.0</ele><time>2026-04-05T08:18:20.776Z</time></trkpt><trkpt lat="41.3948917" lon="1.368987"><ele>395.0</ele><time>2026-04-05T08:18:21.776Z</time></trkpt><trkpt lat="41.3947892" lon="1.369048"><ele>395.0</ele><time>2026-04-05T08:18:22.776Z</time></trkpt><trkpt lat="41.3946989" lon="1.3690995"><ele>395.0</ele><time>2026-04-05T08:18:23.777Z</time></trkpt><trkpt lat="41.3946082" lon="1.3691131"><ele>395.0</ele><time>2026-04-05T08:18:24.777Z</time></trkpt><trkpt lat="41.3945307" lon="1.3690772"><ele>395.6</ele><time>2026-04-05T08:18:25.776Z</time></trkpt><trkpt lat="41.3944779" lon="1.3689945"><ele>396.2</ele><time>2026-04-05T08:18:26.777Z</time></trkpt><trkpt lat="41.3944486" lon="1.3688669"><ele>396.79999999999995</ele><time>2026-04-05T08:18:27.777Z</time></trkpt><trkpt lat="41.3944221" lon="1.3687399"><ele>397.4</ele><time>2026-04-05T08:18:28.777Z</time></trkpt><trkpt lat="41.3943777" lon="1.3686281"><ele>398.0</ele><time>2026-04-05T08:18:29.777Z</time></trkpt><trkpt lat="41.394305" lon="1.3685353"><ele>395.25</ele><time>2026-04-05T08:18:30.776Z</time></trkpt><trkpt lat="41.3941933" lon="1.3684753"><ele>392.5</ele><time>2026-04-05T08:18:31.776Z</time></trkpt><trkpt lat="41.3940473" lon="1.3684408"><ele>389.75</ele><time>2026-04-05T08:18:32.776Z</time></trkpt><trkpt lat="41.3938966" lon="1.3684116"><ele>387.0</ele><time>2026-04-05T08:18:33.776Z</time></trkpt><trkpt lat="41.3937325" lon="1.3683898"><ele>387.0</ele><time>2026-04-05T08:18:34.776Z</time></trkpt><trkpt lat="41.3935673" lon="1.3683679"><ele>387.0</ele><time>2026-04-05T08:18:35.777Z</time></trkpt><trkpt lat="41.3934067" lon="1.3683383"><ele>387.0</ele><time>2026-04-05T08:18:36.776Z</time></trkpt><trkpt lat="41.3932487" lon="1.3682932"><ele>387.0</ele><time>2026-04-05T08:18:37.777Z</time></trkpt><trkpt lat="41.3931014" lon="1.3682102"><ele>387.0</ele><time>2026-04-05T08:18:38.777Z</time></trkpt><trkpt lat="41.3929644" lon="1.3681121"><ele>387.0</ele><time>2026-04-05T08:18:39.776Z</time></trkpt><trkpt lat="41.3928317" lon="1.3680104"><ele>383.8</ele><time>2026-04-05T08:18:40.777Z</time></trkpt><trkpt lat="41.3927194" lon="1.367919"><ele>380.6</ele><time>2026-04-05T08:18:41.776Z</time></trkpt><trkpt lat="41.3926205" lon="1.3678479"><ele>377.40000000000003</ele><time>2026-04-05T08:18:42.777Z</time></trkpt><trkpt lat="41.3925251" lon="1.3678107"><ele>374.20000000000005</ele><time>2026-04-05T08:18:43.777Z</time></trkpt><trkpt lat="41.3924269" lon="1.3678273"><ele>371.0</ele><time>2026-04-05T08:18:44.776Z</time></trkpt><trkpt lat="41.3923318" lon="1.3678923"><ele>371.0</ele><time>2026-04-05T08:18:45.776Z</time></trkpt><trkpt lat="41.3922386" lon="1.3680117"><ele>371.0</ele><time>2026-04-05T08:18:46.776Z</time></trkpt><trkpt lat="41.3921483" lon="1.3681511"><ele>371.0</ele><time>2026-04-05T08:18:47.777Z</time></trkpt><trkpt lat="41.3920464" lon="1.368282"><ele>371.0</ele><time>2026-04-05T08:18:48.777Z</time></trkpt><trkpt lat="41.3919273" lon="1.368376"><ele>373.4</ele><time>2026-04-05T08:18:49.777Z</time></trkpt><trkpt lat="41.3917986" lon="1.3684445"><ele>375.8</ele><time>2026-04-05T08:18:50.776Z</time></trkpt><trkpt lat="41.3916842" lon="1.3684749"><ele>378.2</ele><time>2026-04-05T08:18:51.776Z</time></trkpt><trkpt lat="41.3915947" lon="1.3684646"><ele>380.59999999999997</ele><time>2026-04-05T08:18:52.777Z</time></trkpt><trkpt lat="41.3915268" lon="1.368402"><ele>383.0</ele><time>2026-04-05T08:18:53.776Z</time></trkpt><trkpt lat="41.3914734" lon="1.3682953"><ele>383.0</ele><time>2026-04-05T08:18:54.777Z</time></trkpt><trkpt lat="41.3914317" lon="1.3681724"><ele>383.0</ele><time>2026-04-05T08:18:55.777Z</time></trkpt><trkpt lat="41.3914549" lon="1.3679815"><ele>383.0</ele><time>2026-04-05T08:18:56.777Z</time></trkpt><trkpt lat="41.391455" lon="1.367805"><ele>383.0</ele><time>2026-04-05T08:18:57.777Z</time></trkpt><trkpt lat="41.3914438" lon="1.3676321"><ele>382.0</ele><time>2026-04-05T08:18:58.777Z</time></trkpt><trkpt lat="41.3914219" lon="1.3674681"><ele>381.0</ele><time>2026-04-05T08:18:59.776Z</time></trkpt><trkpt lat="41.3913915" lon="1.3673227"><ele>380.0</ele><time>2026-04-05T08:19:00.776Z</time></trkpt><trkpt lat="41.3913394" lon="1.3672134"><ele>379.0</ele><time>2026-04-05T08:19:01.776Z</time></trkpt><trkpt lat="41.3912666" lon="1.3671317"><ele>378.0</ele><time>2026-04-05T08:19:02.777Z</time></trkpt><trkpt lat="41.3911636" lon="1.3670854"><ele>375.0</ele><time>2026-04-05T08:19:03.777Z</time></trkpt><trkpt lat="41.3910292" lon="1.3670738"><ele>372.0</ele><time>2026-04-05T08:19:04.777Z</time></trkpt><trkpt lat="41.390888" lon="1.3670718"><ele>369.0</ele><time>2026-04-05T08:19:05.776Z</time></trkpt><trkpt lat="41.3907356" lon="1.3670685"><ele>366.0</ele><time>2026-04-05T08:19:06.777Z</time></trkpt><trkpt lat="41.3905797" lon="1.3670619"><ele>366.0</ele><time>2026-04-05T08:19:07.776Z</time></trkpt><trkpt lat="41.3904154" lon="1.3670557"><ele>366.0</ele><time>2026-04-05T08:19:08.777Z</time></trkpt><trkpt lat="41.3902567" lon="1.3670275"><ele>366.0</ele><time>2026-04-05T08:19:09.776Z</time></trkpt><trkpt lat="41.3900989" lon="1.3669663"><ele>366.0</ele><time>2026-04-05T08:19:10.777Z</time></trkpt><trkpt lat="41.3899401" lon="1.3668851"><ele>366.0</ele><time>2026-04-05T08:19:11.776Z</time></trkpt><trkpt lat="41.3897893" lon="1.3667991"><ele>366.0</ele><time>2026-04-05T08:19:12.776Z</time></trkpt><trkpt lat="41.3896367" lon="1.3667121"><ele>367.0</ele><time>2026-04-05T08:19:13.777Z</time></trkpt><trkpt lat="41.3894892" lon="1.3666312"><ele>368.0</ele><time>2026-04-05T08:19:14.776Z</time></trkpt><trkpt lat="41.3893501" lon="1.3665516"><ele>369.0</ele><time>2026-04-05T08:19:15.776Z</time></trkpt><trkpt lat="41.3892184" lon="1.3664894"><ele>369.0</ele><time>2026-04-05T08:19:16.777Z</time></trkpt><trkpt lat="41.3890947" lon="1.3664617"><ele>369.0</ele><time>2026-04-05T08:19:17.776Z</time></trkpt><trkpt lat="41.3889659" lon="1.3664744"><ele>369.0</ele><time>2026-04-05T08:19:18.777Z</time></trkpt><trkpt lat="41.3888346" lon="1.3665242"><ele>369.0</ele><time>2026-04-05T08:19:19.777Z</time></trkpt><trkpt lat="41.3886965" lon="1.3666064"><ele>366.3333333333333</ele><time>2026-04-05T08:19:20.776Z</time></trkpt><trkpt lat="41.3885456" lon="1.3667092"><ele>363.66666666666663</ele><time>2026-04-05T08:19:21.776Z</time></trkpt><trkpt lat="41.3883862" lon="1.3668163"><ele>361.0</ele><time>2026-04-05T08:19:22.777Z</time></trkpt><trkpt lat="41.38823" lon="1.3669235"><ele>361.0</ele><time>2026-04-05T08:19:23.777Z</time></trkpt><trkpt lat="41.3880764" lon="1.3670316"><ele>361.0</ele><time>2026-04-05T08:19:24.776Z</time></trkpt><trkpt lat="41.387926" lon="1.3671391"><ele>361.0</ele><time>2026-04-05T08:19:25.776Z</time></trkpt><trkpt lat="41.3877786" lon="1.3672429"><ele>360.3333333333333</ele><time>2026-04-05T08:19:26.777Z</time></trkpt><trkpt lat="41.3876329" lon="1.3673477"><ele>359.6666666666667</ele><time>2026-04-05T08:19:27.777Z</time></trkpt><trkpt lat="41.3874883" lon="1.3674464"><ele>359.0</ele><time>2026-04-05T08:19:28.776Z</time></trkpt><trkpt lat="41.3873495" lon="1.3675448"><ele>359.0</ele><time>2026-04-05T08:19:29.776Z</time></trkpt><trkpt lat="41.3872068" lon="1.3676423"><ele>359.0</ele><time>2026-04-05T08:19:30.776Z</time></trkpt><trkpt lat="41.3870575" lon="1.3677493"><ele>359.0</ele><time>2026-04-05T08:19:31.777Z</time></trkpt><trkpt lat="41.3869132" lon="1.3678514"><ele>358.33333333333337</ele><time>2026-04-05T08:19:32.777Z</time></trkpt><trkpt lat="41.3867701" lon="1.3679523"><ele>357.6666666666667</ele><time>2026-04-05T08:19:33.777Z</time></trkpt><trkpt lat="41.3866247" lon="1.3680526"><ele>357.0</ele><time>2026-04-05T08:19:34.777Z</time></trkpt><trkpt lat="41.386488" lon="1.3681484"><ele>357.0</ele><time>2026-04-05T08:19:35.777Z</time></trkpt><trkpt lat="41.3863625" lon="1.3682412"><ele>357.0</ele><time>2026-04-05T08:19:36.777Z</time></trkpt><trkpt lat="41.3862462" lon="1.3683123"><ele>357.0</ele><time>2026-04-05T08:19:37.776Z</time></trkpt><trkpt lat="41.3861369" lon="1.3683431"><ele>357.0</ele><time>2026-04-05T08:19:38.776Z</time></trkpt><trkpt lat="41.3860298" lon="1.3683269"><ele>355.5</ele><time>2026-04-05T08:19:39.776Z</time></trkpt><trkpt lat="41.3859326" lon="1.3682647"><ele>354.0</ele><time>2026-04-05T08:19:40.776Z</time></trkpt><trkpt lat="41.3858367" lon="1.3681574"><ele>352.5</ele><time>2026-04-05T08:19:41.777Z</time></trkpt><trkpt lat="41.3857304" lon="1.3680296"><ele>351.0</ele><time>2026-04-05T08:19:42.776Z</time></trkpt><trkpt lat="41.3856098" lon="1.3678909"><ele>351.6666666666667</ele><time>2026-04-05T08:19:43.777Z</time></trkpt><trkpt lat="41.3854911" lon="1.3677574"><ele>352.33333333333337</ele><time>2026-04-05T08:19:44.777Z</time></trkpt><trkpt lat="41.3853674" lon="1.3676211"><ele>353.0</ele><time>2026-04-05T08:19:45.776Z</time></trkpt><trkpt lat="41.38525" lon="1.367493"><ele>353.0</ele><time>2026-04-05T08:19:46.776Z</time></trkpt><trkpt lat="41.3851318" lon="1.367377"><ele>353.0</ele><time>2026-04-05T08:19:47.777Z</time></trkpt><trkpt lat="41.3850081" lon="1.367277"><ele>353.0</ele><time>2026-04-05T08:19:48.776Z</time></trkpt><trkpt lat="41.3848867" lon="1.3671948"><ele>353.0</ele><time>2026-04-05T08:19:49.777Z</time></trkpt><trkpt lat="41.3847717" lon="1.3671092"><ele>353.6666666666667</ele><time>2026-04-05T08:19:50.776Z</time></trkpt><trkpt lat="41.3846583" lon="1.3669954"><ele>354.3333333333333</ele><time>2026-04-05T08:19:51.777Z</time></trkpt><trkpt lat="41.3845438" lon="1.3668442"><ele>355.0</ele><time>2026-04-05T08:19:52.777Z</time></trkpt><trkpt lat="41.3844474" lon="1.3666809"><ele>355.0</ele><time>2026-04-05T08:19:53.777Z</time></trkpt><trkpt lat="41.3843803" lon="1.3665082"><ele>355.0</ele><time>2026-04-05T08:19:54.776Z</time></trkpt><trkpt lat="41.3843395" lon="1.3663361"><ele>355.0</ele><time>2026-04-05T08:19:55.776Z</time></trkpt><trkpt lat="41.3843169" lon="1.3661592"><ele>355.0</ele><time>2026-04-05T08:19:56.776Z</time></trkpt><trkpt lat="41.3843028" lon="1.3659788"><ele>355.5</ele><time>2026-04-05T08:19:57.776Z</time></trkpt><trkpt lat="41.3842862" lon="1.3657973"><ele>356.0</ele><time>2026-04-05T08:19:58.777Z</time></trkpt><trkpt lat="41.3842717" lon="1.3656191"><ele>356.5</ele><time>2026-04-05T08:19:59.776Z</time></trkpt><trkpt lat="41.3842628" lon="1.3654535"><ele>357.0</ele><time>2026-04-05T08:20:00.776Z</time></trkpt><trkpt lat="41.3842673" lon="1.3653101"><ele>357.0</ele><time>2026-04-05T08:20:01.777Z</time></trkpt><trkpt lat="41.3842764" lon="1.3651784"><ele>357.0</ele><time>2026-04-05T08:20:02.777Z</time></trkpt><trkpt lat="41.3842944" lon="1.3650536"><ele>357.0</ele><time>2026-04-05T08:20:03.777Z</time></trkpt><trkpt lat="41.3843261" lon="1.3649213"><ele>357.0</ele><time>2026-04-05T08:20:04.777Z</time></trkpt><trkpt lat="41.3843615" lon="1.3647987"><ele>357.0</ele><time>2026-04-05T08:20:05.777Z</time></trkpt><trkpt lat="41.384395" lon="1.3646851"><ele>357.1666666666667</ele><time>2026-04-05T08:20:06.776Z</time></trkpt><trkpt lat="41.3844256" lon="1.3645842"><ele>357.3333333333333</ele><time>2026-04-05T08:20:07.776Z</time></trkpt><trkpt lat="41.3844581" lon="1.3644892"><ele>357.5</ele><time>2026-04-05T08:20:08.777Z</time></trkpt><trkpt lat="41.3844851" lon="1.364401"><ele>357.66666666666663</ele><time>2026-04-05T08:20:09.776Z</time></trkpt><trkpt lat="41.3845141" lon="1.3643014"><ele>357.8333333333333</ele><time>2026-04-05T08:20:10.777Z</time></trkpt><trkpt lat="41.3845425" lon="1.3641996"><ele>358.0</ele><time>2026-04-05T08:20:11.777Z</time></trkpt><trkpt lat="41.3845721" lon="1.3640985"><ele>358.0</ele><time>2026-04-05T08:20:12.776Z</time></trkpt><trkpt lat="41.3846016" lon="1.3639939"><ele>358.0</ele><time>2026-04-05T08:20:13.777Z</time></trkpt><trkpt lat="41.3846355" lon="1.3638781"><ele>358.0</ele><time>2026-04-05T08:20:14.776Z</time></trkpt><trkpt lat="41.384667" lon="1.3637661"><ele>358.0</ele><time>2026-04-05T08:20:15.777Z</time></trkpt><trkpt lat="41.3846976" lon="1.3636555"><ele>358.0</ele><time>2026-04-05T08:20:16.777Z</time></trkpt><trkpt lat="41.3847315" lon="1.3635643"><ele>358.0</ele><time>2026-04-05T08:20:17.776Z</time></trkpt><trkpt lat="41.3847806" lon="1.363462"><ele>357.0</ele><time>2026-04-05T08:20:19.777Z</time></trkpt><trkpt lat="41.3848223" lon="1.3633578"><ele>356.0</ele><time>2026-04-05T08:20:34.777Z</time></trkpt><trkpt lat="41.3848527" lon="1.3632649"><ele>355.0</ele><time>2026-04-05T08:20:35.777Z</time></trkpt><trkpt lat="41.3848914" lon="1.3631635"><ele>354.0</ele><time>2026-04-05T08:20:36.777Z</time></trkpt><trkpt lat="41.3849452" lon="1.3630642"><ele>353.0</ele><time>2026-04-05T08:20:37.777Z</time></trkpt><trkpt lat="41.3850214" lon="1.3629529"><ele>353.0</ele><time>2026-04-05T08:20:38.777Z</time></trkpt><trkpt lat="41.3851084" lon="1.3628334"><ele>353.0</ele><time>2026-04-05T08:20:39.776Z</time></trkpt><trkpt lat="41.385197" lon="1.3627084"><ele>353.0</ele><time>2026-04-05T08:20:40.776Z</time></trkpt><trkpt lat="41.3852862" lon="1.3625829"><ele>353.0</ele><time>2026-04-05T08:20:41.777Z</time></trkpt><trkpt lat="41.385385" lon="1.3624557"><ele>353.0</ele><time>2026-04-05T08:20:42.776Z</time></trkpt><trkpt lat="41.3854781" lon="1.3623284"><ele>353.0</ele><time>2026-04-05T08:20:43.777Z</time></trkpt><trkpt lat="41.3855699" lon="1.3622049"><ele>353.0</ele><time>2026-04-05T08:20:44.776Z</time></trkpt><trkpt lat="41.3856525" lon="1.3620869"><ele>353.0</ele><time>2026-04-05T08:20:45.776Z</time></trkpt><trkpt lat="41.3857415" lon="1.3619714"><ele>355.25</ele><time>2026-04-05T08:20:46.777Z</time></trkpt><trkpt lat="41.3858233" lon="1.3618593"><ele>357.5</ele><time>2026-04-05T08:20:47.776Z</time></trkpt><trkpt lat="41.3859074" lon="1.3617406"><ele>359.75</ele><time>2026-04-05T08:20:48.777Z</time></trkpt><trkpt lat="41.3859825" lon="1.361629"><ele>362.0</ele><time>2026-04-05T08:20:49.776Z</time></trkpt><trkpt lat="41.3860547" lon="1.3615193"><ele>362.0</ele><time>2026-04-05T08:20:50.776Z</time></trkpt><trkpt lat="41.3861308" lon="1.3614047"><ele>362.0</ele><time>2026-04-05T08:20:51.776Z</time></trkpt><trkpt lat="41.3862065" lon="1.3612922"><ele>362.0</ele><time>2026-04-05T08:20:52.777Z</time></trkpt><trkpt lat="41.3862667" lon="1.3611893"><ele>362.0</ele><time>2026-04-05T08:20:53.777Z</time></trkpt><trkpt lat="41.3862969" lon="1.3610881"><ele>362.0</ele><time>2026-04-05T08:20:54.776Z</time></trkpt><trkpt lat="41.3862951" lon="1.360985"><ele>361.0</ele><time>2026-04-05T08:20:55.777Z</time></trkpt><trkpt lat="41.3862697" lon="1.360887"><ele>360.0</ele><time>2026-04-05T08:20:56.776Z</time></trkpt><trkpt lat="41.3861959" lon="1.3608009"><ele>359.0</ele><time>2026-04-05T08:20:57.777Z</time></trkpt><trkpt lat="41.3861002" lon="1.3607258"><ele>358.0</ele><time>2026-04-05T08:20:58.777Z</time></trkpt><trkpt lat="41.3859961" lon="1.3606524"><ele>357.0</ele><time>2026-04-05T08:20:59.776Z</time></trkpt><trkpt lat="41.385897" lon="1.3605829"><ele>357.0</ele><time>2026-04-05T08:21:00.777Z</time></trkpt><trkpt lat="41.3858034" lon="1.3605463"><ele>357.0</ele><time>2026-04-05T08:21:01.777Z</time></trkpt><trkpt lat="41.3857059" lon="1.3605475"><ele>357.0</ele><time>2026-04-05T08:21:02.776Z</time></trkpt><trkpt lat="41.3855979" lon="1.3605976"><ele>357.0</ele><time>2026-04-05T08:21:03.777Z</time></trkpt><trkpt lat="41.3854874" lon="1.3606701"><ele>357.0</ele><time>2026-04-05T08:21:04.777Z</time></trkpt><trkpt lat="41.3853813" lon="1.3607406"><ele>358.40000000000003</ele><time>2026-04-05T08:21:05.776Z</time></trkpt><trkpt lat="41.3852793" lon="1.360807"><ele>359.8</ele><time>2026-04-05T08:21:06.777Z</time></trkpt><trkpt lat="41.3851751" lon="1.360849"><ele>361.2</ele><time>2026-04-05T08:21:07.776Z</time></trkpt><trkpt lat="41.385068" lon="1.3608577"><ele>362.6</ele><time>2026-04-05T08:21:08.777Z</time></trkpt><trkpt lat="41.3849617" lon="1.3608306"><ele>364.0</ele><time>2026-04-05T08:21:09.776Z</time></trkpt><trkpt lat="41.384851" lon="1.3607918"><ele>364.0</ele><time>2026-04-05T08:21:10.776Z</time></trkpt><trkpt lat="41.3847266" lon="1.3607658"><ele>364.0</ele><time>2026-04-05T08:21:11.777Z</time></trkpt><trkpt lat="41.3846019" lon="1.3607484"><ele>364.0</ele><time>2026-04-05T08:21:12.776Z</time></trkpt><trkpt lat="41.3844796" lon="1.3607292"><ele>364.0</ele><time>2026-04-05T08:21:13.776Z</time></trkpt><trkpt lat="41.3843495" lon="1.3606983"><ele>363.3333333333333</ele><time>2026-04-05T08:21:14.777Z</time></trkpt><trkpt lat="41.3842088" lon="1.3606526"><ele>362.6666666666667</ele><time>2026-04-05T08:21:15.776Z</time></trkpt><trkpt lat="41.3840635" lon="1.360603"><ele>362.0</ele><time>2026-04-05T08:21:16.776Z</time></trkpt><trkpt lat="41.3838989" lon="1.3605412"><ele>364.6666666666667</ele><time>2026-04-05T08:21:17.776Z</time></trkpt><trkpt lat="41.383722" lon="1.3604782"><ele>367.3333333333333</ele><time>2026-04-05T08:21:18.777Z</time></trkpt><trkpt lat="41.3835374" lon="1.360414"><ele>370.0</ele><time>2026-04-05T08:21:19.777Z</time></trkpt><trkpt lat="41.3833434" lon="1.3603416"><ele>370.0</ele><time>2026-04-05T08:21:20.776Z</time></trkpt><trkpt lat="41.3831442" lon="1.3602673"><ele>370.0</ele><time>2026-04-05T08:21:21.777Z</time></trkpt><trkpt lat="41.3829533" lon="1.3601961"><ele>370.0</ele><time>2026-04-05T08:21:22.776Z</time></trkpt><trkpt lat="41.3827762" lon="1.3601265"><ele>369.0</ele><time>2026-04-05T08:21:23.777Z</time></trkpt><trkpt lat="41.3826146" lon="1.3600607"><ele>368.0</ele><time>2026-04-05T08:21:24.777Z</time></trkpt><trkpt lat="41.3824534" lon="1.3599987"><ele>367.0</ele><time>2026-04-05T08:21:25.776Z</time></trkpt><trkpt lat="41.3822993" lon="1.3599411"><ele>369.5</ele><time>2026-04-05T08:21:26.777Z</time></trkpt><trkpt lat="41.3821519" lon="1.3598916"><ele>372.0</ele><time>2026-04-05T08:21:27.776Z</time></trkpt><trkpt lat="41.3820214" lon="1.3598545"><ele>374.5</ele><time>2026-04-05T08:21:28.777Z</time></trkpt><trkpt lat="41.3819028" lon="1.3598255"><ele>377.0</ele><time>2026-04-05T08:21:29.776Z</time></trkpt><trkpt lat="41.3818039" lon="1.3598554"><ele>377.0</ele><time>2026-04-05T08:21:30.777Z</time></trkpt><trkpt lat="41.3816994" lon="1.3599277"><ele>377.0</ele><time>2026-04-05T08:21:31.776Z</time></trkpt><trkpt lat="41.3815897" lon="1.3600411"><ele>377.0</ele><time>2026-04-05T08:21:32.776Z</time></trkpt><trkpt lat="41.3814762" lon="1.3601578"><ele>377.0</ele><time>2026-04-05T08:21:33.777Z</time></trkpt><trkpt lat="41.3813528" lon="1.3602552"><ele>380.5</ele><time>2026-04-05T08:21:34.776Z</time></trkpt><trkpt lat="41.3812164" lon="1.3603387"><ele>384.0</ele><time>2026-04-05T08:21:35.776Z</time></trkpt><trkpt lat="41.3810781" lon="1.3603833"><ele>387.5</ele><time>2026-04-05T08:21:36.776Z</time></trkpt><trkpt lat="41.3809397" lon="1.3603944"><ele>391.0</ele><time>2026-04-05T08:21:37.776Z</time></trkpt><trkpt lat="41.3807972" lon="1.360372"><ele>391.0</ele><time>2026-04-05T08:21:38.777Z</time></trkpt><trkpt lat="41.3806598" lon="1.3603198"><ele>391.0</ele><time>2026-04-05T08:21:39.776Z</time></trkpt><trkpt lat="41.3805332" lon="1.3602378"><ele>391.0</ele><time>2026-04-05T08:21:40.776Z</time></trkpt><trkpt lat="41.3804195" lon="1.3601216"><ele>391.0</ele><time>2026-04-05T08:21:41.776Z</time></trkpt><trkpt lat="41.3803214" lon="1.3599785"><ele>389.6666666666667</ele><time>2026-04-05T08:21:42.777Z</time></trkpt><trkpt lat="41.3802426" lon="1.3598138"><ele>388.33333333333337</ele><time>2026-04-05T08:21:43.777Z</time></trkpt><trkpt lat="41.3801661" lon="1.359635"><ele>387.0</ele><time>2026-04-05T08:21:44.777Z</time></trkpt><trkpt lat="41.3800865" lon="1.3594579"><ele>385.0</ele><time>2026-04-05T08:21:45.777Z</time></trkpt><trkpt lat="41.3799987" lon="1.3592828"><ele>383.0</ele><time>2026-04-05T08:21:46.777Z</time></trkpt><trkpt lat="41.3799004" lon="1.3591102"><ele>381.0</ele><time>2026-04-05T08:21:47.776Z</time></trkpt><trkpt lat="41.3797937" lon="1.3589479"><ele>380.0</ele><time>2026-04-05T08:21:48.776Z</time></trkpt><trkpt lat="41.3796747" lon="1.3587947"><ele>379.0</ele><time>2026-04-05T08:21:49.777Z</time></trkpt><trkpt lat="41.3795393" lon="1.3586482"><ele>378.0</ele><time>2026-04-05T08:21:50.776Z</time></trkpt><trkpt lat="41.379373" lon="1.3585234"><ele>378.0</ele><time>2026-04-05T08:21:51.777Z</time></trkpt><trkpt lat="41.3792097" lon="1.3584075"><ele>378.0</ele><time>2026-04-05T08:21:52.776Z</time></trkpt><trkpt lat="41.3790126" lon="1.3582864"><ele>378.0</ele><time>2026-04-05T08:21:53.776Z</time></trkpt><trkpt lat="41.3788392" lon="1.3581645"><ele>378.6666666666667</ele><time>2026-04-05T08:21:54.777Z</time></trkpt><trkpt lat="41.3786825" lon="1.3580203"><ele>379.33333333333337</ele><time>2026-04-05T08:21:55.776Z</time></trkpt><trkpt lat="41.3785366" lon="1.3578557"><ele>380.0</ele><time>2026-04-05T08:21:56.777Z</time></trkpt><trkpt lat="41.3784122" lon="1.3576785"><ele>380.0</ele><time>2026-04-05T08:21:57.777Z</time></trkpt><trkpt lat="41.3783" lon="1.3574834"><ele>380.0</ele><time>2026-04-05T08:21:58.776Z</time></trkpt><trkpt lat="41.3782033" lon="1.3572543"><ele>380.0</ele><time>2026-04-05T08:21:59.776Z</time></trkpt><trkpt lat="41.3781309" lon="1.3569996"><ele>381.33333333333337</ele><time>2026-04-05T08:22:00.777Z</time></trkpt><trkpt lat="41.3780817" lon="1.3567421"><ele>382.6666666666667</ele><time>2026-04-05T08:22:01.777Z</time></trkpt><trkpt lat="41.3780593" lon="1.3564711"><ele>384.0</ele><time>2026-04-05T08:22:02.776Z</time></trkpt><trkpt lat="41.3780566" lon="1.3561982"><ele>384.66666666666663</ele><time>2026-04-05T08:22:03.776Z</time></trkpt><trkpt lat="41.3780632" lon="1.355922"><ele>385.3333333333333</ele><time>2026-04-05T08:22:04.777Z</time></trkpt><trkpt lat="41.3780744" lon="1.3556432"><ele>386.0</ele><time>2026-04-05T08:22:05.777Z</time></trkpt><trkpt lat="41.3780867" lon="1.355367"><ele>387.3333333333333</ele><time>2026-04-05T08:22:06.777Z</time></trkpt><trkpt lat="41.3781005" lon="1.3550968"><ele>388.66666666666663</ele><time>2026-04-05T08:22:07.777Z</time></trkpt><trkpt lat="41.3781137" lon="1.3548329"><ele>390.0</ele><time>2026-04-05T08:22:08.777Z</time></trkpt><trkpt lat="41.3781275" lon="1.3545728"><ele>391.0</ele><time>2026-04-05T08:22:09.777Z</time></trkpt><trkpt lat="41.3781467" lon="1.3543088"><ele>392.0</ele><time>2026-04-05T08:22:10.777Z</time></trkpt><trkpt lat="41.3781797" lon="1.3540539"><ele>393.0</ele><time>2026-04-05T08:22:11.777Z</time></trkpt><trkpt lat="41.3782309" lon="1.3538094"><ele>394.66666666666663</ele><time>2026-04-05T08:22:12.777Z</time></trkpt><trkpt lat="41.3782954" lon="1.3535681"><ele>396.3333333333333</ele><time>2026-04-05T08:22:13.776Z</time></trkpt><trkpt lat="41.3783879" lon="1.3533202"><ele>398.0</ele><time>2026-04-05T08:22:14.776Z</time></trkpt><trkpt lat="41.3784867" lon="1.353078"><ele>396.66666666666663</ele><time>2026-04-05T08:22:15.777Z</time></trkpt><trkpt lat="41.378602" lon="1.3528513"><ele>395.33333333333337</ele><time>2026-04-05T08:22:16.776Z</time></trkpt><trkpt lat="41.3787316" lon="1.3526382"><ele>394.0</ele><time>2026-04-05T08:22:17.776Z</time></trkpt><trkpt lat="41.3788727" lon="1.3524355"><ele>394.0</ele><time>2026-04-05T08:22:18.777Z</time></trkpt><trkpt lat="41.3790222" lon="1.352235"><ele>394.0</ele><time>2026-04-05T08:22:19.777Z</time></trkpt><trkpt lat="41.379178" lon="1.3520359"><ele>394.0</ele><time>2026-04-05T08:22:20.776Z</time></trkpt><trkpt lat="41.3793248" lon="1.351834"><ele>398.6666666666667</ele><time>2026-04-05T08:22:21.776Z</time></trkpt><trkpt lat="41.3794635" lon="1.3516295"><ele>403.33333333333337</ele><time>2026-04-05T08:22:22.776Z</time></trkpt><trkpt lat="41.3795998" lon="1.3514217"><ele>408.0</ele><time>2026-04-05T08:22:23.777Z</time></trkpt><trkpt lat="41.3797325" lon="1.3512017"><ele>408.33333333333337</ele><time>2026-04-05T08:22:24.776Z</time></trkpt><trkpt lat="41.3798592" lon="1.3509661"><ele>408.6666666666667</ele><time>2026-04-05T08:22:25.777Z</time></trkpt><trkpt lat="41.3799779" lon="1.3507269"><ele>409.0</ele><time>2026-04-05T08:22:26.777Z</time></trkpt><trkpt lat="41.3800852" lon="1.3504855"><ele>412.6666666666667</ele><time>2026-04-05T08:22:27.776Z</time></trkpt><trkpt lat="41.3801842" lon="1.350233"><ele>416.33333333333337</ele><time>2026-04-05T08:22:28.776Z</time></trkpt><trkpt lat="41.3802778" lon="1.3499676"><ele>420.0</ele><time>2026-04-05T08:22:29.776Z</time></trkpt><trkpt lat="41.3803522" lon="1.3497016"><ele>421.66666666666663</ele><time>2026-04-05T08:22:30.777Z</time></trkpt><trkpt lat="41.3804181" lon="1.3494382"><ele>423.3333333333333</ele><time>2026-04-05T08:22:31.777Z</time></trkpt><trkpt lat="41.3804732" lon="1.3491765"><ele>425.0</ele><time>2026-04-05T08:22:32.776Z</time></trkpt><trkpt lat="41.3805158" lon="1.3489174"><ele>421.66666666666663</ele><time>2026-04-05T08:22:33.776Z</time></trkpt><trkpt lat="41.3805467" lon="1.3486758"><ele>418.33333333333337</ele><time>2026-04-05T08:22:34.776Z</time></trkpt><trkpt lat="41.3805644" lon="1.3484638"><ele>415.0</ele><time>2026-04-05T08:22:35.776Z</time></trkpt><trkpt lat="41.3805765" lon="1.3482715"><ele>415.0</ele><time>2026-04-05T08:22:36.776Z</time></trkpt><trkpt lat="41.38059" lon="1.3480788"><ele>415.0</ele><time>2026-04-05T08:22:37.776Z</time></trkpt><trkpt lat="41.3805976" lon="1.3478591"><ele>415.0</ele><time>2026-04-05T08:22:38.777Z</time></trkpt><trkpt lat="41.3805975" lon="1.3476195"><ele>417.33333333333337</ele><time>2026-04-05T08:22:39.776Z</time></trkpt><trkpt lat="41.3805898" lon="1.3473569"><ele>419.66666666666663</ele><time>2026-04-05T08:22:40.777Z</time></trkpt><trkpt lat="41.3805669" lon="1.3470806"><ele>422.0</ele><time>2026-04-05T08:22:41.777Z</time></trkpt><trkpt lat="41.3805336" lon="1.3468052"><ele>425.0</ele><time>2026-04-05T08:22:42.776Z</time></trkpt><trkpt lat="41.3804944" lon="1.3465418"><ele>428.0</ele><time>2026-04-05T08:22:43.777Z</time></trkpt><trkpt lat="41.38044" lon="1.3462669"><ele>431.0</ele><time>2026-04-05T08:22:44.776Z</time></trkpt><trkpt lat="41.3803798" lon="1.3459935"><ele>431.66666666666663</ele><time>2026-04-05T08:22:45.776Z</time></trkpt><trkpt lat="41.3803107" lon="1.3457472"><ele>432.33333333333337</ele><time>2026-04-05T08:22:46.777Z</time></trkpt><trkpt lat="41.3802381" lon="1.3455273"><ele>433.0</ele><time>2026-04-05T08:22:47.776Z</time></trkpt><trkpt lat="41.3801644" lon="1.3453247"><ele>433.6666666666667</ele><time>2026-04-05T08:22:48.777Z</time></trkpt><trkpt lat="41.3800967" lon="1.3451252"><ele>434.33333333333337</ele><time>2026-04-05T08:22:49.777Z</time></trkpt><trkpt lat="41.3800283" lon="1.3449478"><ele>435.0</ele><time>2026-04-05T08:22:50.777Z</time></trkpt><trkpt lat="41.3799574" lon="1.3447537"><ele>435.33333333333337</ele><time>2026-04-05T08:22:51.777Z</time></trkpt><trkpt lat="41.3798824" lon="1.344559"><ele>435.6666666666667</ele><time>2026-04-05T08:22:52.776Z</time></trkpt><trkpt lat="41.3798048" lon="1.3443616"><ele>436.0</ele><time>2026-04-05T08:22:53.776Z</time></trkpt><trkpt lat="41.3797271" lon="1.344163"><ele>435.33333333333337</ele><time>2026-04-05T08:22:54.776Z</time></trkpt><trkpt lat="41.3796477" lon="1.3439622"><ele>434.66666666666663</ele><time>2026-04-05T08:22:55.776Z</time></trkpt><trkpt lat="41.3795615" lon="1.3437544"><ele>434.0</ele><time>2026-04-05T08:22:56.776Z</time></trkpt><trkpt lat="41.3794758" lon="1.3435423"><ele>434.0</ele><time>2026-04-05T08:22:57.777Z</time></trkpt><trkpt lat="41.3793886" lon="1.3433241"><ele>434.0</ele><time>2026-04-05T08:22:58.777Z</time></trkpt><trkpt lat="41.3792984" lon="1.3431027"><ele>434.0</ele><time>2026-04-05T08:22:59.776Z</time></trkpt><trkpt lat="41.3792112" lon="1.3428905"><ele>434.0</ele><time>2026-04-05T08:23:00.777Z</time></trkpt><trkpt lat="41.3791255" lon="1.3426783"><ele>434.0</ele><time>2026-04-05T08:23:01.776Z</time></trkpt><trkpt lat="41.379038" lon="1.342462"><ele>434.0</ele><time>2026-04-05T08:23:02.777Z</time></trkpt><trkpt lat="41.3789502" lon="1.3422438"><ele>433.66666666666663</ele><time>2026-04-05T08:23:03.776Z</time></trkpt><trkpt lat="41.3788611" lon="1.3420243"><ele>433.33333333333337</ele><time>2026-04-05T08:23:04.777Z</time></trkpt><trkpt lat="41.3787758" lon="1.3418068"><ele>433.0</ele><time>2026-04-05T08:23:05.777Z</time></trkpt><trkpt lat="41.3786904" lon="1.3415923"><ele>432.6666666666667</ele><time>2026-04-05T08:23:06.777Z</time></trkpt><trkpt lat="41.3786079" lon="1.3413812"><ele>432.33333333333337</ele><time>2026-04-05T08:23:07.776Z</time></trkpt><trkpt lat="41.3785259" lon="1.3411717"><ele>432.0</ele><time>2026-04-05T08:23:08.777Z</time></trkpt><trkpt lat="41.3784383" lon="1.3409613"><ele>432.0</ele><time>2026-04-05T08:23:09.776Z</time></trkpt><trkpt lat="41.3783519" lon="1.3407463"><ele>432.0</ele><time>2026-04-05T08:23:10.777Z</time></trkpt><trkpt lat="41.3782679" lon="1.3405396"><ele>432.0</ele><time>2026-04-05T08:23:11.776Z</time></trkpt><trkpt lat="41.3781865" lon="1.3403393"><ele>432.0</ele><time>2026-04-05T08:23:12.776Z</time></trkpt><trkpt lat="41.3781049" lon="1.3401351"><ele>432.0</ele><time>2026-04-05T08:23:13.777Z</time></trkpt><trkpt lat="41.3780211" lon="1.3399231"><ele>432.0</ele><time>2026-04-05T08:23:14.776Z</time></trkpt><trkpt lat="41.3779368" lon="1.3397093"><ele>432.0</ele><time>2026-04-05T08:23:15.776Z</time></trkpt><trkpt lat="41.3778506" lon="1.3394878"><ele>432.0</ele><time>2026-04-05T08:23:16.776Z</time></trkpt><trkpt lat="41.3777635" lon="1.3392661"><ele>432.0</ele><time>2026-04-05T08:23:17.777Z</time></trkpt><trkpt lat="41.377674" lon="1.339046"><ele>432.0</ele><time>2026-04-05T08:23:18.776Z</time></trkpt><trkpt lat="41.377587" lon="1.3388329"><ele>432.0</ele><time>2026-04-05T08:23:19.777Z</time></trkpt><trkpt lat="41.3775056" lon="1.3386233"><ele>432.0</ele><time>2026-04-05T08:23:20.777Z</time></trkpt><trkpt lat="41.3774252" lon="1.3384173"><ele>432.0</ele><time>2026-04-05T08:23:21.776Z</time></trkpt><trkpt lat="41.3773509" lon="1.338227"><ele>432.0</ele><time>2026-04-05T08:23:22.777Z</time></trkpt><trkpt lat="41.3772867" lon="1.3380598"><ele>432.0</ele><time>2026-04-05T08:23:23.776Z</time></trkpt><trkpt lat="41.3772303" lon="1.3379184"><ele>432.0</ele><time>2026-04-05T08:23:24.776Z</time></trkpt><trkpt lat="41.3771804" lon="1.3377839"><ele>431.25</ele><time>2026-04-05T08:23:25.777Z</time></trkpt><trkpt lat="41.3771229" lon="1.3376365"><ele>430.5</ele><time>2026-04-05T08:23:26.777Z</time></trkpt><trkpt lat="41.3770602" lon="1.3374772"><ele>429.75</ele><time>2026-04-05T08:23:27.777Z</time></trkpt><trkpt lat="41.3769932" lon="1.337309"><ele>429.0</ele><time>2026-04-05T08:23:28.776Z</time></trkpt><trkpt lat="41.3769254" lon="1.3371318"><ele>429.0</ele><time>2026-04-05T08:23:29.776Z</time></trkpt><trkpt lat="41.3768547" lon="1.3369522"><ele>429.0</ele><time>2026-04-05T08:23:30.776Z</time></trkpt><trkpt lat="41.3767664" lon="1.3367426"><ele>429.0</ele><time>2026-04-05T08:23:31.777Z</time></trkpt><trkpt lat="41.3766714" lon="1.3365092"><ele>429.0</ele><time>2026-04-05T08:23:32.777Z</time></trkpt><trkpt lat="41.3765776" lon="1.3362787"><ele>429.0</ele><time>2026-04-05T08:23:33.776Z</time></trkpt><trkpt lat="41.3764914" lon="1.3360499"><ele>429.0</ele><time>2026-04-05T08:23:34.777Z</time></trkpt><trkpt lat="41.3764086" lon="1.3358336"><ele>427.33333333333337</ele><time>2026-04-05T08:23:35.776Z</time></trkpt><trkpt lat="41.3763245" lon="1.3356241"><ele>425.6666666666667</ele><time>2026-04-05T08:23:36.777Z</time></trkpt><trkpt lat="41.3762467" lon="1.3354154"><ele>424.0</ele><time>2026-04-05T08:23:37.777Z</time></trkpt><trkpt lat="41.3761678" lon="1.3352118"><ele>423.33333333333337</ele><time>2026-04-05T08:23:38.776Z</time></trkpt><trkpt lat="41.3760889" lon="1.3350186"><ele>422.66666666666663</ele><time>2026-04-05T08:23:39.777Z</time></trkpt><trkpt lat="41.3760134" lon="1.3348315"><ele>422.0</ele><time>2026-04-05T08:23:40.776Z</time></trkpt><trkpt lat="41.3759418" lon="1.3346521"><ele>420.66666666666663</ele><time>2026-04-05T08:23:41.776Z</time></trkpt><trkpt lat="41.3758773" lon="1.334473"><ele>419.33333333333337</ele><time>2026-04-05T08:23:42.776Z</time></trkpt><trkpt lat="41.3758081" lon="1.3342927"><ele>418.0</ele><time>2026-04-05T08:23:43.776Z</time></trkpt><trkpt lat="41.375735" lon="1.3341106"><ele>418.0</ele><time>2026-04-05T08:23:44.777Z</time></trkpt><trkpt lat="41.375664" lon="1.3339293"><ele>418.0</ele><time>2026-04-05T08:23:45.777Z</time></trkpt><trkpt lat="41.3755933" lon="1.3337487"><ele>418.0</ele><time>2026-04-05T08:23:46.776Z</time></trkpt><trkpt lat="41.3755218" lon="1.3335606"><ele>416.33333333333337</ele><time>2026-04-05T08:23:47.776Z</time></trkpt><trkpt lat="41.3754492" lon="1.3333701"><ele>414.66666666666663</ele><time>2026-04-05T08:23:48.776Z</time></trkpt><trkpt lat="41.3753731" lon="1.3331765"><ele>413.0</ele><time>2026-04-05T08:23:49.776Z</time></trkpt><trkpt lat="41.3752978" lon="1.3329816"><ele>413.0</ele><time>2026-04-05T08:23:50.776Z</time></trkpt><trkpt lat="41.375218" lon="1.3327846"><ele>413.0</ele><time>2026-04-05T08:23:51.777Z</time></trkpt><trkpt lat="41.3751433" lon="1.3325918"><ele>413.0</ele><time>2026-04-05T08:23:52.776Z</time></trkpt><trkpt lat="41.3750709" lon="1.3324089"><ele>413.0</ele><time>2026-04-05T08:23:53.776Z</time></trkpt><trkpt lat="41.3750006" lon="1.332226"><ele>413.0</ele><time>2026-04-05T08:23:54.776Z</time></trkpt><trkpt lat="41.3749318" lon="1.3320541"><ele>413.0</ele><time>2026-04-05T08:23:55.777Z</time></trkpt><trkpt lat="41.3748625" lon="1.3318743"><ele>413.0</ele><time>2026-04-05T08:23:56.776Z</time></trkpt><trkpt lat="41.374793" lon="1.3316967"><ele>413.0</ele><time>2026-04-05T08:23:57.777Z</time></trkpt><trkpt lat="41.3747255" lon="1.3315206"><ele>413.0</ele><time>2026-04-05T08:23:58.777Z</time></trkpt><trkpt lat="41.374657" lon="1.3313458"><ele>413.0</ele><time>2026-04-05T08:23:59.777Z</time></trkpt><trkpt lat="41.3745905" lon="1.3311708"><ele>411.5</ele><time>2026-04-05T08:24:00.776Z</time></trkpt><trkpt lat="41.3745239" lon="1.3309967"><ele>410.0</ele><time>2026-04-05T08:24:01.777Z</time></trkpt><trkpt lat="41.3744572" lon="1.3308276"><ele>408.5</ele><time>2026-04-05T08:24:02.776Z</time></trkpt><trkpt lat="41.3743923" lon="1.330665"><ele>407.0</ele><time>2026-04-05T08:24:03.776Z</time></trkpt><trkpt lat="41.3743323" lon="1.3305109"><ele>407.0</ele><time>2026-04-05T08:24:04.777Z</time></trkpt><trkpt lat="41.3742741" lon="1.3303659"><ele>407.0</ele><time>2026-04-05T08:24:05.777Z</time></trkpt><trkpt lat="41.3742189" lon="1.3302329"><ele>407.0</ele><time>2026-04-05T08:24:06.777Z</time></trkpt><trkpt lat="41.3741746" lon="1.3301232"><ele>407.0</ele><time>2026-04-05T08:24:07.776Z</time></trkpt><trkpt lat="41.3741423" lon="1.3300328"><ele>407.0</ele><time>2026-04-05T08:24:08.776Z</time></trkpt><trkpt lat="41.3741499" lon="1.329899"><ele>407.0</ele><time>2026-04-05T08:24:10.777Z</time></trkpt><trkpt lat="41.3742534" lon="1.3298208"><ele>407.0</ele><time>2026-04-05T08:24:12.776Z</time></trkpt><trkpt lat="41.3743358" lon="1.3298223"><ele>407.0</ele><time>2026-04-05T08:24:13.776Z</time></trkpt><trkpt lat="41.3744349" lon="1.3298367"><ele>407.0</ele><time>2026-04-05T08:24:14.776Z</time></trkpt><trkpt lat="41.3745411" lon="1.3298616"><ele>407.0</ele><time>2026-04-05T08:24:15.776Z</time></trkpt><trkpt lat="41.3746616" lon="1.3298933"><ele>408.0</ele><time>2026-04-05T08:24:16.776Z</time></trkpt><trkpt lat="41.3747949" lon="1.3299311"><ele>409.0</ele><time>2026-04-05T08:24:17.776Z</time></trkpt><trkpt lat="41.3749265" lon="1.3299692"><ele>410.0</ele><time>2026-04-05T08:24:18.777Z</time></trkpt><trkpt lat="41.3750549" lon="1.3300046"><ele>411.0</ele><time>2026-04-05T08:24:19.776Z</time></trkpt><trkpt lat="41.3751845" lon="1.3300391"><ele>411.0</ele><time>2026-04-05T08:24:20.777Z</time></trkpt><trkpt lat="41.3753075" lon="1.3300666"><ele>411.0</ele><time>2026-04-05T08:24:21.776Z</time></trkpt><trkpt lat="41.3754407" lon="1.330094"><ele>411.0</ele><time>2026-04-05T08:24:22.776Z</time></trkpt><trkpt lat="41.3755862" lon="1.3301232"><ele>411.0</ele><time>2026-04-05T08:24:23.777Z</time></trkpt><trkpt lat="41.3757316" lon="1.3301539"><ele>413.0</ele><time>2026-04-05T08:24:24.777Z</time></trkpt><trkpt lat="41.3758794" lon="1.3301877"><ele>415.0</ele><time>2026-04-05T08:24:25.777Z</time></trkpt><trkpt lat="41.3760287" lon="1.3302245"><ele>417.0</ele><time>2026-04-05T08:24:26.777Z</time></trkpt><trkpt lat="41.376181" lon="1.3302622"><ele>417.0</ele><time>2026-04-05T08:24:27.777Z</time></trkpt><trkpt lat="41.3763287" lon="1.3302984"><ele>417.0</ele><time>2026-04-05T08:24:28.777Z</time></trkpt><trkpt lat="41.376471" lon="1.3303358"><ele>417.0</ele><time>2026-04-05T08:24:29.776Z</time></trkpt><trkpt lat="41.3766092" lon="1.3303699"><ele>417.0</ele><time>2026-04-05T08:24:30.776Z</time></trkpt><trkpt lat="41.376738" lon="1.3303861"><ele>417.6666666666667</ele><time>2026-04-05T08:24:31.776Z</time></trkpt><trkpt lat="41.3768508" lon="1.3303946"><ele>418.33333333333337</ele><time>2026-04-05T08:24:32.776Z</time></trkpt><trkpt lat="41.3769421" lon="1.3303983"><ele>419.0</ele><time>2026-04-05T08:24:33.776Z</time></trkpt><trkpt lat="41.3770267" lon="1.3303972"><ele>419.6666666666667</ele><time>2026-04-05T08:24:34.776Z</time></trkpt><trkpt lat="41.3771021" lon="1.330397"><ele>420.33333333333337</ele><time>2026-04-05T08:24:35.777Z</time></trkpt><trkpt lat="41.3771763" lon="1.3303917"><ele>421.0</ele><time>2026-04-05T08:24:36.777Z</time></trkpt><trkpt lat="41.3772484" lon="1.3303667"><ele>421.33333333333337</ele><time>2026-04-05T08:24:37.777Z</time></trkpt><trkpt lat="41.3773047" lon="1.3303159"><ele>421.6666666666667</ele><time>2026-04-05T08:24:38.776Z</time></trkpt><trkpt lat="41.3773409" lon="1.3302393"><ele>422.0</ele><time>2026-04-05T08:24:39.776Z</time></trkpt><trkpt lat="41.3773556" lon="1.3301339"><ele>422.33333333333337</ele><time>2026-04-05T08:24:40.776Z</time></trkpt><trkpt lat="41.3773546" lon="1.330005"><ele>422.6666666666667</ele><time>2026-04-05T08:24:41.777Z</time></trkpt><trkpt lat="41.3773458" lon="1.3298758"><ele>423.0</ele><time>2026-04-05T08:24:42.776Z</time></trkpt><trkpt lat="41.3773391" lon="1.3297487"><ele>423.1666666666667</ele><time>2026-04-05T08:24:43.777Z</time></trkpt><trkpt lat="41.3773361" lon="1.3296328"><ele>423.33333333333337</ele><time>2026-04-05T08:24:44.777Z</time></trkpt><trkpt lat="41.3773355" lon="1.3295206"><ele>423.5</ele><time>2026-04-05T08:24:45.777Z</time></trkpt><trkpt lat="41.3773459" lon="1.329412"><ele>423.6666666666667</ele><time>2026-04-05T08:24:46.777Z</time></trkpt><trkpt lat="41.3773717" lon="1.3293049"><ele>423.83333333333337</ele><time>2026-04-05T08:24:47.777Z</time></trkpt><trkpt lat="41.3774204" lon="1.3292076"><ele>424.0</ele><time>2026-04-05T08:24:48.776Z</time></trkpt><trkpt lat="41.3774918" lon="1.3291331"><ele>424.0</ele><time>2026-04-05T08:24:49.776Z</time></trkpt><trkpt lat="41.3775786" lon="1.3290962"><ele>424.0</ele><time>2026-04-05T08:24:50.776Z</time></trkpt><trkpt lat="41.3776797" lon="1.3290792"><ele>424.0</ele><time>2026-04-05T08:24:51.777Z</time></trkpt><trkpt lat="41.3777845" lon="1.329068"><ele>424.0</ele><time>2026-04-05T08:24:52.777Z</time></trkpt><trkpt lat="41.3778898" lon="1.329055"><ele>424.0</ele><time>2026-04-05T08:24:53.777Z</time></trkpt><trkpt lat="41.3779988" lon="1.3290448"><ele>425.0</ele><time>2026-04-05T08:24:54.777Z</time></trkpt><trkpt lat="41.3781056" lon="1.3290319"><ele>426.0</ele><time>2026-04-05T08:24:55.776Z</time></trkpt><trkpt lat="41.3782114" lon="1.3290236"><ele>427.0</ele><time>2026-04-05T08:24:56.777Z</time></trkpt><trkpt lat="41.3783123" lon="1.3290171"><ele>428.0</ele><time>2026-04-05T08:24:57.777Z</time></trkpt><trkpt lat="41.3784154" lon="1.3290103"><ele>429.0</ele><time>2026-04-05T08:24:58.776Z</time></trkpt><trkpt lat="41.37851" lon="1.3290012"><ele>429.0</ele><time>2026-04-05T08:24:59.777Z</time></trkpt><trkpt lat="41.3786047" lon="1.3289889"><ele>429.0</ele><time>2026-04-05T08:25:00.776Z</time></trkpt><trkpt lat="41.3786939" lon="1.328977"><ele>429.0</ele><time>2026-04-05T08:25:01.777Z</time></trkpt><trkpt lat="41.3787787" lon="1.3289696"><ele>429.0</ele><time>2026-04-05T08:25:02.776Z</time></trkpt><trkpt lat="41.3788605" lon="1.3289615"><ele>429.0</ele><time>2026-04-05T08:25:03.777Z</time></trkpt><trkpt lat="41.3789536" lon="1.3289556"><ele>429.0</ele><time>2026-04-05T08:25:04.776Z</time></trkpt><trkpt lat="41.3790517" lon="1.3289482"><ele>429.2</ele><time>2026-04-05T08:25:05.777Z</time></trkpt><trkpt lat="41.3791544" lon="1.3289372"><ele>429.4</ele><time>2026-04-05T08:25:06.777Z</time></trkpt><trkpt lat="41.3792566" lon="1.3289295"><ele>429.6</ele><time>2026-04-05T08:25:07.777Z</time></trkpt><trkpt lat="41.3793559" lon="1.328916"><ele>429.8</ele><time>2026-04-05T08:25:08.777Z</time></trkpt><trkpt lat="41.3794563" lon="1.3289019"><ele>430.0</ele><time>2026-04-05T08:25:09.777Z</time></trkpt><trkpt lat="41.3795552" lon="1.3288878"><ele>430.0</ele><time>2026-04-05T08:25:10.776Z</time></trkpt><trkpt lat="41.379656" lon="1.3288741"><ele>430.0</ele><time>2026-04-05T08:25:11.777Z</time></trkpt><trkpt lat="41.3797536" lon="1.3288672"><ele>430.0</ele><time>2026-04-05T08:25:12.776Z</time></trkpt><trkpt lat="41.3798469" lon="1.3288616"><ele>430.0</ele><time>2026-04-05T08:25:13.775Z</time></trkpt><trkpt lat="41.3799454" lon="1.3288518"><ele>430.0</ele><time>2026-04-05T08:25:14.777Z</time></trkpt><trkpt lat="41.3800454" lon="1.328838"><ele>431.0</ele><time>2026-04-05T08:25:15.777Z</time></trkpt><trkpt lat="41.3801418" lon="1.3288266"><ele>432.0</ele><time>2026-04-05T08:25:16.777Z</time></trkpt><trkpt lat="41.3802355" lon="1.3288181"><ele>433.0</ele><time>2026-04-05T08:25:17.776Z</time></trkpt><trkpt lat="41.3803297" lon="1.3288069"><ele>434.0</ele><time>2026-04-05T08:25:18.777Z</time></trkpt><trkpt lat="41.3804174" lon="1.3287987"><ele>435.0</ele><time>2026-04-05T08:25:19.776Z</time></trkpt><trkpt lat="41.3805057" lon="1.3287942"><ele>435.4</ele><time>2026-04-05T08:25:20.776Z</time></trkpt><trkpt lat="41.3806" lon="1.3287898"><ele>435.8</ele><time>2026-04-05T08:25:21.777Z</time></trkpt><trkpt lat="41.3807028" lon="1.3287831"><ele>436.20000000000005</ele><time>2026-04-05T08:25:22.776Z</time></trkpt><trkpt lat="41.3808052" lon="1.3287761"><ele>436.6</ele><time>2026-04-05T08:25:23.776Z</time></trkpt><trkpt lat="41.3809062" lon="1.3287655"><ele>437.0</ele><time>2026-04-05T08:25:24.776Z</time></trkpt><trkpt lat="41.3809992" lon="1.3287608"><ele>436.99999999999994</ele><time>2026-04-05T08:25:25.776Z</time></trkpt><trkpt lat="41.3810831" lon="1.3287558"><ele>437.0</ele><time>2026-04-05T08:25:26.776Z</time></trkpt><trkpt lat="41.3811677" lon="1.3287502"><ele>437.0</ele><time>2026-04-05T08:25:27.776Z</time></trkpt><trkpt lat="41.381248" lon="1.3287455"><ele>437.0</ele><time>2026-04-05T08:25:28.776Z</time></trkpt><trkpt lat="41.3813248" lon="1.328725"><ele>436.99999999999994</ele><time>2026-04-05T08:25:29.776Z</time></trkpt><trkpt lat="41.3813958" lon="1.3286777"><ele>437.0</ele><time>2026-04-05T08:25:30.777Z</time></trkpt><trkpt lat="41.3814574" lon="1.3285999"><ele>437.20000000000005</ele><time>2026-04-05T08:25:31.777Z</time></trkpt><trkpt lat="41.3815015" lon="1.3285029"><ele>437.40000000000003</ele><time>2026-04-05T08:25:32.776Z</time></trkpt><trkpt lat="41.3815387" lon="1.3283958"><ele>437.59999999999997</ele><time>2026-04-05T08:25:33.776Z</time></trkpt><trkpt lat="41.3815767" lon="1.3282834"><ele>437.79999999999995</ele><time>2026-04-05T08:25:34.776Z</time></trkpt><trkpt lat="41.3816161" lon="1.3281686"><ele>438.0</ele><time>2026-04-05T08:25:35.777Z</time></trkpt><trkpt lat="41.3816572" lon="1.328058"><ele>438.0</ele><time>2026-04-05T08:25:36.776Z</time></trkpt><trkpt lat="41.3816928" lon="1.3279543"><ele>438.0</ele><time>2026-04-05T08:25:37.777Z</time></trkpt><trkpt lat="41.3817237" lon="1.3278584"><ele>438.0</ele><time>2026-04-05T08:25:38.777Z</time></trkpt><trkpt lat="41.3817558" lon="1.3277823"><ele>438.0</ele><time>2026-04-05T08:25:39.777Z</time></trkpt><trkpt lat="41.3817987" lon="1.3277174"><ele>438.0</ele><time>2026-04-05T08:25:40.777Z</time></trkpt><trkpt lat="41.3818578" lon="1.3276541"><ele>438.0</ele><time>2026-04-05T08:25:41.777Z</time></trkpt><trkpt lat="41.3819384" lon="1.3276027"><ele>438.0</ele><time>2026-04-05T08:25:42.777Z</time></trkpt><trkpt lat="41.3820263" lon="1.327579"><ele>438.0</ele><time>2026-04-05T08:25:43.776Z</time></trkpt><trkpt lat="41.3821156" lon="1.3275673"><ele>438.0</ele><time>2026-04-05T08:25:44.776Z</time></trkpt><trkpt lat="41.3822033" lon="1.3275588"><ele>438.0</ele><time>2026-04-05T08:25:45.777Z</time></trkpt><trkpt lat="41.3822859" lon="1.3275545"><ele>438.0</ele><time>2026-04-05T08:25:46.776Z</time></trkpt><trkpt lat="41.3823551" lon="1.3275739"><ele>438.0</ele><time>2026-04-05T08:25:47.777Z</time></trkpt><trkpt lat="41.3824091" lon="1.3276186"><ele>438.8333333333333</ele><time>2026-04-05T08:25:48.777Z</time></trkpt><trkpt lat="41.3824559" lon="1.3276802"><ele>439.66666666666663</ele><time>2026-04-05T08:25:49.777Z</time></trkpt><trkpt lat="41.3824951" lon="1.3277489"><ele>440.5</ele><time>2026-04-05T08:25:50.776Z</time></trkpt><trkpt lat="41.3825492" lon="1.3278845"><ele>441.3333333333333</ele><time>2026-04-05T08:25:52.776Z</time></trkpt><trkpt lat="41.3825893" lon="1.3280126"><ele>442.16666666666663</ele><time>2026-04-05T08:25:54.777Z</time></trkpt><trkpt lat="41.382627" lon="1.3281302"><ele>443.0</ele><time>2026-04-05T08:25:56.777Z</time></trkpt><trkpt lat="41.3826594" lon="1.3282469"><ele>446.0</ele><time>2026-04-05T08:25:58.776Z</time></trkpt><trkpt lat="41.3827035" lon="1.3283285"><ele>446.0</ele><time>2026-04-05T08:26:00.776Z</time></trkpt><trkpt lat="41.3827586" lon="1.3283755"><ele>446.0</ele><time>2026-04-05T08:26:02.776Z</time></trkpt><trkpt lat="41.38282" lon="1.3284168"><ele>446.0</ele><time>2026-04-05T08:26:05.776Z</time></trkpt></trkseg><trkseg><trkpt lat="41.3829186" lon="1.328379"><ele>445.99999999999994</ele><time>2026-04-05T10:18:37.8Z</time></trkpt><trkpt lat="41.3830118" lon="1.3283924"><ele>446.0</ele><time>2026-04-05T10:18:39.799Z</time></trkpt><trkpt lat="41.3831153" lon="1.3284006"><ele>446.0</ele><time>2026-04-05T10:18:41.8Z</time></trkpt><trkpt lat="41.3831877" lon="1.3284119"><ele>446.0</ele><time>2026-04-05T10:18:43.8Z</time></trkpt><trkpt lat="41.3832131" lon="1.3283184"><ele>445.99999999999994</ele><time>2026-04-05T10:18:46.799Z</time></trkpt><trkpt lat="41.3832249" lon="1.3282297"><ele>446.0</ele><time>2026-04-05T10:18:48.799Z</time></trkpt><trkpt lat="41.383236" lon="1.3281437"><ele>446.20000000000005</ele><time>2026-04-05T10:18:50.799Z</time></trkpt><trkpt lat="41.3832497" lon="1.3280144"><ele>446.40000000000003</ele><time>2026-04-05T10:18:52.799Z</time></trkpt><trkpt lat="41.3832573" lon="1.3278665"><ele>446.6</ele><time>2026-04-05T10:18:54.799Z</time></trkpt><trkpt lat="41.3832651" lon="1.3277222"><ele>446.8</ele><time>2026-04-05T10:18:56.799Z</time></trkpt><trkpt lat="41.3832743" lon="1.3275957"><ele>447.0</ele><time>2026-04-05T10:18:58.8Z</time></trkpt><trkpt lat="41.3832733" lon="1.3275087"><ele>447.0</ele><time>2026-04-05T10:19:00.8Z</time></trkpt><trkpt lat="41.3832246" lon="1.3274261"><ele>447.0</ele><time>2026-04-05T10:19:04.799Z</time></trkpt><trkpt lat="41.3831027" lon="1.327421"><ele>447.0</ele><time>2026-04-05T10:19:06.799Z</time></trkpt><trkpt lat="41.383025" lon="1.3274312"><ele>447.0</ele><time>2026-04-05T10:19:07.799Z</time></trkpt><trkpt lat="41.382944" lon="1.3274422"><ele>447.0</ele><time>2026-04-05T10:19:08.8Z</time></trkpt><trkpt lat="41.3828588" lon="1.3274554"><ele>447.0</ele><time>2026-04-05T10:19:09.8Z</time></trkpt><trkpt lat="41.3827707" lon="1.3274614"><ele>446.20000000000005</ele><time>2026-04-05T10:19:10.799Z</time></trkpt><trkpt lat="41.3826826" lon="1.3274696"><ele>445.40000000000003</ele><time>2026-04-05T10:19:11.8Z</time></trkpt><trkpt lat="41.3825933" lon="1.3274752"><ele>444.59999999999997</ele><time>2026-04-05T10:19:12.8Z</time></trkpt><trkpt lat="41.382494" lon="1.3274807"><ele>443.79999999999995</ele><time>2026-04-05T10:19:13.8Z</time></trkpt><trkpt lat="41.3823865" lon="1.327487"><ele>443.0</ele><time>2026-04-05T10:19:14.8Z</time></trkpt><trkpt lat="41.3822865" lon="1.3274994"><ele>443.0</ele><time>2026-04-05T10:19:15.799Z</time></trkpt><trkpt lat="41.3821899" lon="1.3275104"><ele>442.99999999999994</ele><time>2026-04-05T10:19:16.8Z</time></trkpt><trkpt lat="41.3820989" lon="1.3275176"><ele>442.99999999999994</ele><time>2026-04-05T10:19:17.8Z</time></trkpt><trkpt lat="41.3820178" lon="1.327526"><ele>443.0</ele><time>2026-04-05T10:19:18.8Z</time></trkpt><trkpt lat="41.3819512" lon="1.3275285"><ele>443.0</ele><time>2026-04-05T10:19:19.8Z</time></trkpt><trkpt lat="41.3818345" lon="1.3275027"><ele>442.0</ele><time>2026-04-05T10:19:21.8Z</time></trkpt><trkpt lat="41.3817504" lon="1.3275624"><ele>440.99999999999994</ele><time>2026-04-05T10:19:23.799Z</time></trkpt><trkpt lat="41.3817382" lon="1.3277148"><ele>439.99999999999994</ele><time>2026-04-05T10:19:25.8Z</time></trkpt><trkpt lat="41.3817178" lon="1.3278069"><ele>439.0</ele><time>2026-04-05T10:19:26.799Z</time></trkpt><trkpt lat="41.3816752" lon="1.3279089"><ele>438.0</ele><time>2026-04-05T10:19:27.799Z</time></trkpt><trkpt lat="41.3816319" lon="1.3280302"><ele>438.79999999999995</ele><time>2026-04-05T10:19:28.8Z</time></trkpt><trkpt lat="41.3815831" lon="1.3281688"><ele>439.59999999999997</ele><time>2026-04-05T10:19:29.799Z</time></trkpt><trkpt lat="41.3815361" lon="1.3283115"><ele>440.40000000000003</ele><time>2026-04-05T10:19:30.799Z</time></trkpt><trkpt lat="41.3814961" lon="1.3284327"><ele>441.20000000000005</ele><time>2026-04-05T10:19:31.799Z</time></trkpt><trkpt lat="41.3814547" lon="1.3285404"><ele>442.0</ele><time>2026-04-05T10:19:32.799Z</time></trkpt><trkpt lat="41.3813933" lon="1.3286288"><ele>441.1666666666667</ele><time>2026-04-05T10:19:33.8Z</time></trkpt><trkpt lat="41.3813149" lon="1.3286817"><ele>440.33333333333337</ele><time>2026-04-05T10:19:34.799Z</time></trkpt><trkpt lat="41.3812472" lon="1.3287075"><ele>439.5</ele><time>2026-04-05T10:19:35.799Z</time></trkpt><trkpt lat="41.3811412" lon="1.3287337"><ele>438.66666666666663</ele><time>2026-04-05T10:19:37.8Z</time></trkpt><trkpt lat="41.3810648" lon="1.3287308"><ele>437.8333333333333</ele><time>2026-04-05T10:19:38.799Z</time></trkpt><trkpt lat="41.3809776" lon="1.32873"><ele>437.0</ele><time>2026-04-05T10:19:39.8Z</time></trkpt><trkpt lat="41.3808871" lon="1.3287349"><ele>436.99999999999994</ele><time>2026-04-05T10:19:40.799Z</time></trkpt><trkpt lat="41.3807998" lon="1.3287391"><ele>437.0</ele><time>2026-04-05T10:19:41.799Z</time></trkpt><trkpt lat="41.3807259" lon="1.3287466"><ele>437.0</ele><time>2026-04-05T10:19:42.8Z</time></trkpt><trkpt lat="41.3806595" lon="1.3287514"><ele>437.0</ele><time>2026-04-05T10:19:43.799Z</time></trkpt><trkpt lat="41.380555" lon="1.3287593"><ele>436.99999999999994</ele><time>2026-04-05T10:19:45.8Z</time></trkpt><trkpt lat="41.3804691" lon="1.3287603"><ele>437.0</ele><time>2026-04-05T10:19:47.8Z</time></trkpt><trkpt lat="41.3804009" lon="1.3287715"><ele>436.6</ele><time>2026-04-05T10:19:49.799Z</time></trkpt><trkpt lat="41.3803189" lon="1.3287798"><ele>436.20000000000005</ele><time>2026-04-05T10:20:04.8Z</time></trkpt><trkpt lat="41.3801973" lon="1.3287962"><ele>435.8</ele><time>2026-04-05T10:20:06.799Z</time></trkpt><trkpt lat="41.3801217" lon="1.3288007"><ele>435.4</ele><time>2026-04-05T10:20:07.799Z</time></trkpt><trkpt lat="41.3800308" lon="1.3288048"><ele>435.0</ele><time>2026-04-05T10:20:08.8Z</time></trkpt><trkpt lat="41.379925" lon="1.3288136"><ele>435.0</ele><time>2026-04-05T10:20:09.799Z</time></trkpt><trkpt lat="41.3798151" lon="1.3288268"><ele>435.0</ele><time>2026-04-05T10:20:10.8Z</time></trkpt><trkpt lat="41.3797025" lon="1.3288398"><ele>435.0</ele><time>2026-04-05T10:20:11.799Z</time></trkpt><trkpt lat="41.3795904" lon="1.328852"><ele>435.0</ele><time>2026-04-05T10:20:12.799Z</time></trkpt><trkpt lat="41.3794788" lon="1.3288656"><ele>435.0</ele><time>2026-04-05T10:20:13.8Z</time></trkpt><trkpt lat="41.3793665" lon="1.3288751"><ele>434.4</ele><time>2026-04-05T10:20:14.799Z</time></trkpt><trkpt lat="41.3792503" lon="1.3288904"><ele>433.8</ele><time>2026-04-05T10:20:15.8Z</time></trkpt><trkpt lat="41.3791383" lon="1.3288983"><ele>433.20000000000005</ele><time>2026-04-05T10:20:16.8Z</time></trkpt><trkpt lat="41.3790288" lon="1.3289074"><ele>432.6</ele><time>2026-04-05T10:20:17.799Z</time></trkpt><trkpt lat="41.3789238" lon="1.3289153"><ele>432.0</ele><time>2026-04-05T10:20:18.799Z</time></trkpt><trkpt lat="41.378827" lon="1.3289252"><ele>431.40000000000003</ele><time>2026-04-05T10:20:19.8Z</time></trkpt><trkpt lat="41.3787322" lon="1.328931"><ele>430.80000000000007</ele><time>2026-04-05T10:20:20.8Z</time></trkpt><trkpt lat="41.3786382" lon="1.3289366"><ele>430.2</ele><time>2026-04-05T10:20:21.799Z</time></trkpt><trkpt lat="41.3785461" lon="1.3289462"><ele>429.6</ele><time>2026-04-05T10:20:22.8Z</time></trkpt><trkpt lat="41.3784455" lon="1.3289546"><ele>429.0</ele><time>2026-04-05T10:20:23.8Z</time></trkpt><trkpt lat="41.3783358" lon="1.3289654"><ele>429.0</ele><time>2026-04-05T10:20:24.8Z</time></trkpt><trkpt lat="41.3782233" lon="1.3289732"><ele>429.0</ele><time>2026-04-05T10:20:25.799Z</time></trkpt><trkpt lat="41.3781092" lon="1.3289883"><ele>429.0</ele><time>2026-04-05T10:20:26.8Z</time></trkpt><trkpt lat="41.3780004" lon="1.329"><ele>429.0</ele><time>2026-04-05T10:20:27.799Z</time></trkpt><trkpt lat="41.3778945" lon="1.3290073"><ele>429.0</ele><time>2026-04-05T10:20:28.799Z</time></trkpt><trkpt lat="41.3777863" lon="1.3290142"><ele>428.0</ele><time>2026-04-05T10:20:29.8Z</time></trkpt><trkpt lat="41.3776824" lon="1.329023"><ele>427.0</ele><time>2026-04-05T10:20:30.799Z</time></trkpt><trkpt lat="41.3775842" lon="1.3290447"><ele>426.0</ele><time>2026-04-05T10:20:31.8Z</time></trkpt><trkpt lat="41.3774988" lon="1.3290819"><ele>425.0</ele><time>2026-04-05T10:20:32.799Z</time></trkpt><trkpt lat="41.3774235" lon="1.3291366"><ele>424.0</ele><time>2026-04-05T10:20:33.799Z</time></trkpt><trkpt lat="41.3773702" lon="1.3292393"><ele>424.0</ele><time>2026-04-05T10:20:34.799Z</time></trkpt><trkpt lat="41.3773374" lon="1.3293596"><ele>424.0</ele><time>2026-04-05T10:20:35.8Z</time></trkpt><trkpt lat="41.3773286" lon="1.3294878"><ele>424.0</ele><time>2026-04-05T10:20:36.799Z</time></trkpt><trkpt lat="41.3773292" lon="1.329628"><ele>424.0</ele><time>2026-04-05T10:20:37.799Z</time></trkpt><trkpt lat="41.3773287" lon="1.329773"><ele>424.0</ele><time>2026-04-05T10:20:38.8Z</time></trkpt><trkpt lat="41.3773347" lon="1.3299155"><ele>423.83333333333337</ele><time>2026-04-05T10:20:39.8Z</time></trkpt><trkpt lat="41.3773384" lon="1.3300527"><ele>423.6666666666667</ele><time>2026-04-05T10:20:40.8Z</time></trkpt><trkpt lat="41.3773346" lon="1.330162"><ele>423.5</ele><time>2026-04-05T10:20:41.799Z</time></trkpt><trkpt lat="41.3773206" lon="1.3302533"><ele>423.33333333333337</ele><time>2026-04-05T10:20:42.799Z</time></trkpt><trkpt lat="41.3772776" lon="1.3303186"><ele>423.1666666666667</ele><time>2026-04-05T10:20:43.799Z</time></trkpt><trkpt lat="41.3772114" lon="1.3303498"><ele>423.0</ele><time>2026-04-05T10:20:44.8Z</time></trkpt><trkpt lat="41.3771288" lon="1.33036"><ele>422.5</ele><time>2026-04-05T10:20:45.8Z</time></trkpt><trkpt lat="41.3770261" lon="1.3303555"><ele>422.0</ele><time>2026-04-05T10:20:46.799Z</time></trkpt><trkpt lat="41.376902" lon="1.330351"><ele>421.5</ele><time>2026-04-05T10:20:47.799Z</time></trkpt><trkpt lat="41.3767709" lon="1.330344"><ele>421.0</ele><time>2026-04-05T10:20:48.799Z</time></trkpt><trkpt lat="41.3766267" lon="1.3303256"><ele>421.0</ele><time>2026-04-05T10:20:49.8Z</time></trkpt><trkpt lat="41.3764898" lon="1.3302936"><ele>421.0</ele><time>2026-04-05T10:20:50.8Z</time></trkpt><trkpt lat="41.3763509" lon="1.33026"><ele>421.0</ele><time>2026-04-05T10:20:51.8Z</time></trkpt><trkpt lat="41.3762098" lon="1.3302243"><ele>421.0</ele><time>2026-04-05T10:20:52.8Z</time></trkpt><trkpt lat="41.3760541" lon="1.3301843"><ele>419.6666666666667</ele><time>2026-04-05T10:20:53.8Z</time></trkpt><trkpt lat="41.3758966" lon="1.3301479"><ele>418.33333333333337</ele><time>2026-04-05T10:20:54.8Z</time></trkpt><trkpt lat="41.3757454" lon="1.3301192"><ele>417.0</ele><time>2026-04-05T10:20:55.8Z</time></trkpt><trkpt lat="41.3756019" lon="1.3300937"><ele>415.5</ele><time>2026-04-05T10:20:56.799Z</time></trkpt><trkpt lat="41.3754642" lon="1.3300689"><ele>414.0</ele><time>2026-04-05T10:20:57.799Z</time></trkpt><trkpt lat="41.3753288" lon="1.3300437"><ele>412.5</ele><time>2026-04-05T10:20:58.8Z</time></trkpt><trkpt lat="41.3752023" lon="1.3300146"><ele>411.0</ele><time>2026-04-05T10:20:59.8Z</time></trkpt><trkpt lat="41.3750783" lon="1.3299788"><ele>411.0</ele><time>2026-04-05T10:21:00.799Z</time></trkpt><trkpt lat="41.374956" lon="1.329942"><ele>411.0</ele><time>2026-04-05T10:21:01.799Z</time></trkpt><trkpt lat="41.3748418" lon="1.3299042"><ele>411.0</ele><time>2026-04-05T10:21:02.8Z</time></trkpt><trkpt lat="41.374735" lon="1.3298677"><ele>411.0</ele><time>2026-04-05T10:21:03.799Z</time></trkpt><trkpt lat="41.3746341" lon="1.3298353"><ele>410.3333333333333</ele><time>2026-04-05T10:21:04.8Z</time></trkpt><trkpt lat="41.3745356" lon="1.3298135"><ele>409.66666666666663</ele><time>2026-04-05T10:21:05.8Z</time></trkpt><trkpt lat="41.3744409" lon="1.3297963"><ele>409.0</ele><time>2026-04-05T10:21:06.799Z</time></trkpt><trkpt lat="41.3743529" lon="1.3297849"><ele>408.3333333333333</ele><time>2026-04-05T10:21:07.8Z</time></trkpt><trkpt lat="41.3742755" lon="1.3297804"><ele>407.66666666666663</ele><time>2026-04-05T10:21:08.799Z</time></trkpt><trkpt lat="41.374211" lon="1.3297859"><ele>407.0</ele><time>2026-04-05T10:21:09.799Z</time></trkpt><trkpt lat="41.3741438" lon="1.3298072"><ele>407.0</ele><time>2026-04-05T10:21:11.8Z</time></trkpt><trkpt lat="41.3741063" lon="1.3299387"><ele>407.0</ele><time>2026-04-05T10:21:19.8Z</time></trkpt><trkpt lat="41.3741349" lon="1.3300409"><ele>407.0</ele><time>2026-04-05T10:21:20.799Z</time></trkpt><trkpt lat="41.3741779" lon="1.3301619"><ele>407.0</ele><time>2026-04-05T10:21:21.799Z</time></trkpt><trkpt lat="41.374228" lon="1.3302897"><ele>407.0</ele><time>2026-04-05T10:21:22.8Z</time></trkpt><trkpt lat="41.3742894" lon="1.3304406"><ele>407.0</ele><time>2026-04-05T10:21:23.799Z</time></trkpt><trkpt lat="41.3743608" lon="1.3306141"><ele>407.0</ele><time>2026-04-05T10:21:24.799Z</time></trkpt><trkpt lat="41.3744321" lon="1.3308018"><ele>407.0</ele><time>2026-04-05T10:21:25.8Z</time></trkpt><trkpt lat="41.3745076" lon="1.3309918"><ele>407.0</ele><time>2026-04-05T10:21:26.799Z</time></trkpt><trkpt lat="41.3745906" lon="1.3311935"><ele>407.0</ele><time>2026-04-05T10:21:27.8Z</time></trkpt><trkpt lat="41.374674" lon="1.3314021"><ele>407.0</ele><time>2026-04-05T10:21:28.799Z</time></trkpt><trkpt lat="41.3747594" lon="1.3316163"><ele>409.0</ele><time>2026-04-05T10:21:29.799Z</time></trkpt><trkpt lat="41.3748449" lon="1.3318336"><ele>411.0</ele><time>2026-04-05T10:21:30.8Z</time></trkpt><trkpt lat="41.3749261" lon="1.3320526"><ele>413.0</ele><time>2026-04-05T10:21:31.799Z</time></trkpt><trkpt lat="41.3750114" lon="1.3322764"><ele>413.0</ele><time>2026-04-05T10:21:32.799Z</time></trkpt><trkpt lat="41.375103" lon="1.3325186"><ele>413.0</ele><time>2026-04-05T10:21:33.799Z</time></trkpt><trkpt lat="41.3752009" lon="1.3327675"><ele>413.0</ele><time>2026-04-05T10:21:34.799Z</time></trkpt><trkpt lat="41.3753044" lon="1.3330248"><ele>413.0</ele><time>2026-04-05T10:21:35.799Z</time></trkpt><trkpt lat="41.3754145" lon="1.3332991"><ele>413.0</ele><time>2026-04-05T10:21:36.799Z</time></trkpt><trkpt lat="41.375526" lon="1.3335785"><ele>415.5</ele><time>2026-04-05T10:21:37.799Z</time></trkpt><trkpt lat="41.3756387" lon="1.3338654"><ele>418.0</ele><time>2026-04-05T10:21:38.799Z</time></trkpt><trkpt lat="41.3757489" lon="1.3341474"><ele>418.0</ele><time>2026-04-05T10:21:39.8Z</time></trkpt><trkpt lat="41.375858" lon="1.3344302"><ele>418.0</ele><time>2026-04-05T10:21:40.799Z</time></trkpt><trkpt lat="41.375969" lon="1.3347112"><ele>420.0</ele><time>2026-04-05T10:21:41.8Z</time></trkpt><trkpt lat="41.3760793" lon="1.3349903"><ele>422.0</ele><time>2026-04-05T10:21:42.8Z</time></trkpt><trkpt lat="41.3761953" lon="1.3352854"><ele>423.0</ele><time>2026-04-05T10:21:43.8Z</time></trkpt><trkpt lat="41.3763125" lon="1.3355873"><ele>424.0</ele><time>2026-04-05T10:21:44.799Z</time></trkpt><trkpt lat="41.3764286" lon="1.3358844"><ele>426.5</ele><time>2026-04-05T10:21:45.799Z</time></trkpt><trkpt lat="41.3765419" lon="1.3361752"><ele>429.0</ele><time>2026-04-05T10:21:46.799Z</time></trkpt><trkpt lat="41.3766521" lon="1.3364607"><ele>429.0</ele><time>2026-04-05T10:21:47.8Z</time></trkpt><trkpt lat="41.3767666" lon="1.3367517"><ele>429.0</ele><time>2026-04-05T10:21:48.8Z</time></trkpt><trkpt lat="41.3768889" lon="1.3370474"><ele>426.5</ele><time>2026-04-05T10:21:49.799Z</time></trkpt><trkpt lat="41.3770107" lon="1.3373466"><ele>424.0</ele><time>2026-04-05T10:21:50.799Z</time></trkpt><trkpt lat="41.3771313" lon="1.3376398"><ele>426.0</ele><time>2026-04-05T10:21:51.799Z</time></trkpt><trkpt lat="41.3772471" lon="1.3379405"><ele>428.0</ele><time>2026-04-05T10:21:52.799Z</time></trkpt><trkpt lat="41.3773605" lon="1.3382377"><ele>430.0</ele><time>2026-04-05T10:21:53.799Z</time></trkpt><trkpt lat="41.377477" lon="1.3385307"><ele>432.0</ele><time>2026-04-05T10:21:54.8Z</time></trkpt><trkpt lat="41.3775911" lon="1.3388252"><ele>432.0</ele><time>2026-04-05T10:21:55.8Z</time></trkpt><trkpt lat="41.3777048" lon="1.3391139"><ele>432.0</ele><time>2026-04-05T10:21:56.799Z</time></trkpt><trkpt lat="41.3778199" lon="1.3394112"><ele>432.0</ele><time>2026-04-05T10:21:57.799Z</time></trkpt><trkpt lat="41.3779359" lon="1.3397097"><ele>432.0</ele><time>2026-04-05T10:21:58.799Z</time></trkpt><trkpt lat="41.3780535" lon="1.340002"><ele>432.0</ele><time>2026-04-05T10:21:59.8Z</time></trkpt><trkpt lat="41.3781698" lon="1.3402962"><ele>432.0</ele><time>2026-04-05T10:22:00.799Z</time></trkpt><trkpt lat="41.3782802" lon="1.340585"><ele>432.0</ele><time>2026-04-05T10:22:01.799Z</time></trkpt><trkpt lat="41.3783917" lon="1.3408748"><ele>432.0</ele><time>2026-04-05T10:22:02.8Z</time></trkpt><trkpt lat="41.3785088" lon="1.3411715"><ele>431.5</ele><time>2026-04-05T10:22:03.799Z</time></trkpt><trkpt lat="41.3786209" lon="1.3414597"><ele>431.0</ele><time>2026-04-05T10:22:04.799Z</time></trkpt><trkpt lat="41.3787354" lon="1.3417371"><ele>431.0</ele><time>2026-04-05T10:22:05.8Z</time></trkpt><trkpt lat="41.3788436" lon="1.3420183"><ele>431.0</ele><time>2026-04-05T10:22:06.8Z</time></trkpt><trkpt lat="41.3789596" lon="1.3423068"><ele>432.5</ele><time>2026-04-05T10:22:07.799Z</time></trkpt><trkpt lat="41.3790659" lon="1.3425833"><ele>434.0</ele><time>2026-04-05T10:22:08.8Z</time></trkpt><trkpt lat="41.3791704" lon="1.3428503"><ele>434.0</ele><time>2026-04-05T10:22:09.8Z</time></trkpt><trkpt lat="41.3792778" lon="1.3431151"><ele>434.0</ele><time>2026-04-05T10:22:10.8Z</time></trkpt><trkpt lat="41.3793814" lon="1.3433766"><ele>434.0</ele><time>2026-04-05T10:22:11.8Z</time></trkpt><trkpt lat="41.3794862" lon="1.3436365"><ele>433.66666666666663</ele><time>2026-04-05T10:22:12.8Z</time></trkpt><trkpt lat="41.37959" lon="1.3438962"><ele>433.33333333333337</ele><time>2026-04-05T10:22:13.8Z</time></trkpt><trkpt lat="41.3796918" lon="1.344148"><ele>433.0</ele><time>2026-04-05T10:22:14.799Z</time></trkpt><trkpt lat="41.379795" lon="1.3443996"><ele>433.6666666666667</ele><time>2026-04-05T10:22:15.799Z</time></trkpt><trkpt lat="41.3798946" lon="1.3446525"><ele>434.33333333333337</ele><time>2026-04-05T10:22:16.8Z</time></trkpt><trkpt lat="41.3799949" lon="1.3449094"><ele>435.0</ele><time>2026-04-05T10:22:17.8Z</time></trkpt><trkpt lat="41.3800935" lon="1.3451699"><ele>435.0</ele><time>2026-04-05T10:22:18.799Z</time></trkpt><trkpt lat="41.3801905" lon="1.3454326"><ele>435.0</ele><time>2026-04-05T10:22:19.799Z</time></trkpt><trkpt lat="41.3802788" lon="1.3457059"><ele>435.0</ele><time>2026-04-05T10:22:20.8Z</time></trkpt><trkpt lat="41.3803562" lon="1.3459814"><ele>434.33333333333337</ele><time>2026-04-05T10:22:21.8Z</time></trkpt><trkpt lat="41.380424" lon="1.3462652"><ele>433.6666666666667</ele><time>2026-04-05T10:22:22.799Z</time></trkpt><trkpt lat="41.3804806" lon="1.3465538"><ele>433.0</ele><time>2026-04-05T10:22:23.799Z</time></trkpt><trkpt lat="41.3805243" lon="1.3468494"><ele>430.33333333333337</ele><time>2026-04-05T10:22:24.8Z</time></trkpt><trkpt lat="41.3805529" lon="1.3471459"><ele>427.66666666666663</ele><time>2026-04-05T10:22:25.8Z</time></trkpt><trkpt lat="41.3805707" lon="1.3474444"><ele>425.0</ele><time>2026-04-05T10:22:26.799Z</time></trkpt><trkpt lat="41.3805804" lon="1.3477442"><ele>420.0</ele><time>2026-04-05T10:22:27.799Z</time></trkpt><trkpt lat="41.3805761" lon="1.3480517"><ele>415.0</ele><time>2026-04-05T10:22:28.799Z</time></trkpt><trkpt lat="41.3805626" lon="1.3483565"><ele>415.0</ele><time>2026-04-05T10:22:29.799Z</time></trkpt><trkpt lat="41.3805284" lon="1.3486666"><ele>415.0</ele><time>2026-04-05T10:22:30.799Z</time></trkpt><trkpt lat="41.3804837" lon="1.3489763"><ele>420.0</ele><time>2026-04-05T10:22:31.8Z</time></trkpt><trkpt lat="41.3804235" lon="1.3492918"><ele>425.0</ele><time>2026-04-05T10:22:32.799Z</time></trkpt><trkpt lat="41.3803493" lon="1.3496081"><ele>422.5</ele><time>2026-04-05T10:22:33.8Z</time></trkpt><trkpt lat="41.3802667" lon="1.3499136"><ele>420.0</ele><time>2026-04-05T10:22:34.8Z</time></trkpt><trkpt lat="41.380155" lon="1.3502265"><ele>420.0</ele><time>2026-04-05T10:22:35.8Z</time></trkpt><trkpt lat="41.3800377" lon="1.3505371"><ele>420.0</ele><time>2026-04-05T10:22:36.799Z</time></trkpt><trkpt lat="41.3799073" lon="1.3508285"><ele>414.5</ele><time>2026-04-05T10:22:37.8Z</time></trkpt><trkpt lat="41.37976" lon="1.351105"><ele>409.0</ele><time>2026-04-05T10:22:38.799Z</time></trkpt><trkpt lat="41.3796013" lon="1.3513746"><ele>408.5</ele><time>2026-04-05T10:22:39.8Z</time></trkpt><trkpt lat="41.3794237" lon="1.3516429"><ele>408.0</ele><time>2026-04-05T10:22:40.8Z</time></trkpt><trkpt lat="41.3792304" lon="1.351907"><ele>408.0</ele><time>2026-04-05T10:22:41.8Z</time></trkpt><trkpt lat="41.3790258" lon="1.3521698"><ele>408.0</ele><time>2026-04-05T10:22:42.799Z</time></trkpt><trkpt lat="41.3788346" lon="1.3524303"><ele>409.5</ele><time>2026-04-05T10:22:43.799Z</time></trkpt><trkpt lat="41.3786493" lon="1.352709"><ele>411.0</ele><time>2026-04-05T10:22:44.8Z</time></trkpt><trkpt lat="41.3784914" lon="1.3529959"><ele>404.5</ele><time>2026-04-05T10:22:45.799Z</time></trkpt><trkpt lat="41.3783565" lon="1.353314"><ele>398.0</ele><time>2026-04-05T10:22:46.8Z</time></trkpt><trkpt lat="41.3782528" lon="1.3536446"><ele>395.5</ele><time>2026-04-05T10:22:47.8Z</time></trkpt><trkpt lat="41.3781787" lon="1.3539849"><ele>393.0</ele><time>2026-04-05T10:22:48.8Z</time></trkpt><trkpt lat="41.3781148" lon="1.3543388"><ele>393.0</ele><time>2026-04-05T10:22:49.8Z</time></trkpt><trkpt lat="41.378097" lon="1.3547009"><ele>393.0</ele><time>2026-04-05T10:22:50.799Z</time></trkpt><trkpt lat="41.3780754" lon="1.3550707"><ele>391.5</ele><time>2026-04-05T10:22:51.8Z</time></trkpt><trkpt lat="41.3780533" lon="1.3554303"><ele>390.0</ele><time>2026-04-05T10:22:52.799Z</time></trkpt><trkpt lat="41.3780343" lon="1.3557764"><ele>388.0</ele><time>2026-04-05T10:22:53.799Z</time></trkpt><trkpt lat="41.3780209" lon="1.3561124"><ele>386.0</ele><time>2026-04-05T10:22:54.799Z</time></trkpt><trkpt lat="41.3780225" lon="1.3564339"><ele>385.0</ele><time>2026-04-05T10:22:55.8Z</time></trkpt><trkpt lat="41.3780469" lon="1.3567415"><ele>384.0</ele><time>2026-04-05T10:22:56.799Z</time></trkpt><trkpt lat="41.3781061" lon="1.3570399"><ele>382.0</ele><time>2026-04-05T10:22:57.8Z</time></trkpt><trkpt lat="41.3781974" lon="1.3573174"><ele>380.0</ele><time>2026-04-05T10:22:58.8Z</time></trkpt><trkpt lat="41.3783179" lon="1.3575777"><ele>380.0</ele><time>2026-04-05T10:22:59.799Z</time></trkpt><trkpt lat="41.3784644" lon="1.3578123"><ele>380.0</ele><time>2026-04-05T10:23:00.799Z</time></trkpt><trkpt lat="41.3786285" lon="1.3580139"><ele>379.33333333333337</ele><time>2026-04-05T10:23:01.799Z</time></trkpt><trkpt lat="41.3788077" lon="1.3581721"><ele>378.6666666666667</ele><time>2026-04-05T10:23:02.799Z</time></trkpt><trkpt lat="41.3789928" lon="1.3582982"><ele>378.0</ele><time>2026-04-05T10:23:03.799Z</time></trkpt><trkpt lat="41.3791703" lon="1.3584103"><ele>378.0</ele><time>2026-04-05T10:23:04.799Z</time></trkpt><trkpt lat="41.3793336" lon="1.3585143"><ele>378.0</ele><time>2026-04-05T10:23:05.8Z</time></trkpt><trkpt lat="41.3794831" lon="1.3586182"><ele>378.0</ele><time>2026-04-05T10:23:06.799Z</time></trkpt><trkpt lat="41.379618" lon="1.3587372"><ele>379.0</ele><time>2026-04-05T10:23:07.799Z</time></trkpt><trkpt lat="41.379742" lon="1.3588822"><ele>380.0</ele><time>2026-04-05T10:23:08.799Z</time></trkpt><trkpt lat="41.3798486" lon="1.3590464"><ele>381.0</ele><time>2026-04-05T10:23:09.799Z</time></trkpt><trkpt lat="41.3799428" lon="1.3592148"><ele>381.0</ele><time>2026-04-05T10:23:10.799Z</time></trkpt><trkpt lat="41.3800224" lon="1.3593796"><ele>381.0</ele><time>2026-04-05T10:23:11.8Z</time></trkpt><trkpt lat="41.3800886" lon="1.3595363"><ele>381.0</ele><time>2026-04-05T10:23:12.799Z</time></trkpt><trkpt lat="41.3801496" lon="1.3596839"><ele>381.0</ele><time>2026-04-05T10:23:13.8Z</time></trkpt><trkpt lat="41.3802054" lon="1.3598154"><ele>382.5</ele><time>2026-04-05T10:23:14.8Z</time></trkpt><trkpt lat="41.3802677" lon="1.359948"><ele>384.0</ele><time>2026-04-05T10:23:15.8Z</time></trkpt><trkpt lat="41.3803444" lon="1.3600747"><ele>385.5</ele><time>2026-04-05T10:23:16.8Z</time></trkpt><trkpt lat="41.3804336" lon="1.3601865"><ele>387.0</ele><time>2026-04-05T10:23:17.799Z</time></trkpt><trkpt lat="41.3805355" lon="1.3602832"><ele>388.0</ele><time>2026-04-05T10:23:18.8Z</time></trkpt><trkpt lat="41.3806476" lon="1.3603628"><ele>389.0</ele><time>2026-04-05T10:23:19.8Z</time></trkpt><trkpt lat="41.3807741" lon="1.3604179"><ele>390.0</ele><time>2026-04-05T10:23:20.799Z</time></trkpt><trkpt lat="41.3809007" lon="1.3604472"><ele>391.0</ele><time>2026-04-05T10:23:21.8Z</time></trkpt><trkpt lat="41.3810274" lon="1.3604522"><ele>391.0</ele><time>2026-04-05T10:23:22.8Z</time></trkpt><trkpt lat="41.3811485" lon="1.3604273"><ele>391.0</ele><time>2026-04-05T10:23:23.799Z</time></trkpt><trkpt lat="41.3812606" lon="1.360379"><ele>391.0</ele><time>2026-04-05T10:23:24.799Z</time></trkpt><trkpt lat="41.3813647" lon="1.3603088"><ele>391.0</ele><time>2026-04-05T10:23:25.799Z</time></trkpt><trkpt lat="41.3814624" lon="1.3602292"><ele>388.20000000000005</ele><time>2026-04-05T10:23:26.8Z</time></trkpt><trkpt lat="41.3815517" lon="1.3601398"><ele>385.40000000000003</ele><time>2026-04-05T10:23:27.799Z</time></trkpt><trkpt lat="41.3816361" lon="1.3600473"><ele>382.6</ele><time>2026-04-05T10:23:28.799Z</time></trkpt><trkpt lat="41.3817208" lon="1.3599626"><ele>379.8</ele><time>2026-04-05T10:23:29.799Z</time></trkpt><trkpt lat="41.3818122" lon="1.3598928"><ele>377.0</ele><time>2026-04-05T10:23:30.8Z</time></trkpt><trkpt lat="41.3819092" lon="1.3598534"><ele>377.0</ele><time>2026-04-05T10:23:31.8Z</time></trkpt><trkpt lat="41.3820116" lon="1.3598634"><ele>377.0</ele><time>2026-04-05T10:23:32.799Z</time></trkpt><trkpt lat="41.3821195" lon="1.3598981"><ele>377.0</ele><time>2026-04-05T10:23:33.8Z</time></trkpt><trkpt lat="41.3822349" lon="1.3599407"><ele>377.0</ele><time>2026-04-05T10:23:34.799Z</time></trkpt><trkpt lat="41.3823569" lon="1.3599834"><ele>374.5</ele><time>2026-04-05T10:23:35.8Z</time></trkpt><trkpt lat="41.3824828" lon="1.3600289"><ele>372.0</ele><time>2026-04-05T10:23:36.799Z</time></trkpt><trkpt lat="41.3826054" lon="1.3600787"><ele>369.5</ele><time>2026-04-05T10:23:37.799Z</time></trkpt><trkpt lat="41.3827326" lon="1.3601215"><ele>367.0</ele><time>2026-04-05T10:23:38.8Z</time></trkpt><trkpt lat="41.382857" lon="1.3601689"><ele>367.0</ele><time>2026-04-05T10:23:39.799Z</time></trkpt><trkpt lat="41.3829769" lon="1.3602165"><ele>367.0</ele><time>2026-04-05T10:23:40.799Z</time></trkpt><trkpt lat="41.3830917" lon="1.3602586"><ele>367.0</ele><time>2026-04-05T10:23:41.799Z</time></trkpt><trkpt lat="41.383201" lon="1.3603006"><ele>367.0</ele><time>2026-04-05T10:23:42.799Z</time></trkpt><trkpt lat="41.3833001" lon="1.3603424"><ele>367.6</ele><time>2026-04-05T10:23:43.8Z</time></trkpt><trkpt lat="41.3833977" lon="1.3603817"><ele>368.20000000000005</ele><time>2026-04-05T10:23:44.799Z</time></trkpt><trkpt lat="41.3834965" lon="1.3604174"><ele>368.8</ele><time>2026-04-05T10:23:45.799Z</time></trkpt><trkpt lat="41.383601" lon="1.360453"><ele>369.4</ele><time>2026-04-05T10:23:46.799Z</time></trkpt><trkpt lat="41.3837047" lon="1.360494"><ele>370.0</ele><time>2026-04-05T10:23:47.799Z</time></trkpt><trkpt lat="41.3838072" lon="1.3605333"><ele>368.66666666666663</ele><time>2026-04-05T10:23:48.8Z</time></trkpt><trkpt lat="41.3838996" lon="1.3605717"><ele>367.3333333333333</ele><time>2026-04-05T10:23:49.799Z</time></trkpt><trkpt lat="41.3839919" lon="1.3606072"><ele>366.0</ele><time>2026-04-05T10:23:50.799Z</time></trkpt><trkpt lat="41.3840766" lon="1.3606423"><ele>364.6666666666667</ele><time>2026-04-05T10:23:51.799Z</time></trkpt><trkpt lat="41.3841482" lon="1.360681"><ele>363.33333333333337</ele><time>2026-04-05T10:23:52.799Z</time></trkpt><trkpt lat="41.3842061" lon="1.3607351"><ele>362.0</ele><time>2026-04-05T10:23:53.8Z</time></trkpt><trkpt lat="41.3842423" lon="1.3609009"><ele>362.0</ele><time>2026-04-05T10:23:55.799Z</time></trkpt><trkpt lat="41.3842358" lon="1.3609962"><ele>362.0</ele><time>2026-04-05T10:23:56.799Z</time></trkpt><trkpt lat="41.3842248" lon="1.3610881"><ele>362.0</ele><time>2026-04-05T10:23:57.8Z</time></trkpt><trkpt lat="41.3841877" lon="1.3611664"><ele>362.0</ele><time>2026-04-05T10:23:58.8Z</time></trkpt><trkpt lat="41.384135" lon="1.3612148"><ele>362.0</ele><time>2026-04-05T10:23:59.8Z</time></trkpt><trkpt lat="41.3840036" lon="1.3612116"><ele>362.0</ele><time>2026-04-05T10:24:01.8Z</time></trkpt><trkpt lat="41.3839155" lon="1.3612004"><ele>361.6</ele><time>2026-04-05T10:24:02.8Z</time></trkpt><trkpt lat="41.3838196" lon="1.3611833"><ele>361.20000000000005</ele><time>2026-04-05T10:24:03.8Z</time></trkpt><trkpt lat="41.3837191" lon="1.3611727"><ele>360.8</ele><time>2026-04-05T10:24:04.799Z</time></trkpt><trkpt lat="41.3836163" lon="1.3611561"><ele>360.4</ele><time>2026-04-05T10:24:05.799Z</time></trkpt><trkpt lat="41.3835147" lon="1.3611367"><ele>360.0</ele><time>2026-04-05T10:24:06.8Z</time></trkpt><trkpt lat="41.3834115" lon="1.3611246"><ele>360.0</ele><time>2026-04-05T10:24:07.8Z</time></trkpt><trkpt lat="41.3833113" lon="1.3611059"><ele>360.0</ele><time>2026-04-05T10:24:08.799Z</time></trkpt><trkpt lat="41.3832154" lon="1.3610946"><ele>360.0</ele><time>2026-04-05T10:24:09.799Z</time></trkpt><trkpt lat="41.3831092" lon="1.3611168"><ele>360.0</ele><time>2026-04-05T10:24:10.8Z</time></trkpt><trkpt lat="41.3830071" lon="1.3611563"><ele>360.0</ele><time>2026-04-05T10:24:11.799Z</time></trkpt><trkpt lat="41.3829114" lon="1.3612184"><ele>359.6</ele><time>2026-04-05T10:24:12.799Z</time></trkpt><trkpt lat="41.3828129" lon="1.3612817"><ele>359.2</ele><time>2026-04-05T10:24:13.8Z</time></trkpt><trkpt lat="41.3827249" lon="1.3613438"><ele>358.79999999999995</ele><time>2026-04-05T10:24:14.8Z</time></trkpt><trkpt lat="41.3826394" lon="1.361405"><ele>358.4</ele><time>2026-04-05T10:24:15.799Z</time></trkpt><trkpt lat="41.3825606" lon="1.3614568"><ele>358.0</ele><time>2026-04-05T10:24:16.799Z</time></trkpt><trkpt lat="41.3824866" lon="1.361511"><ele>357.0</ele><time>2026-04-05T10:24:17.799Z</time></trkpt><trkpt lat="41.3824151" lon="1.3615616"><ele>356.0</ele><time>2026-04-05T10:24:18.8Z</time></trkpt><trkpt lat="41.3823409" lon="1.3616091"><ele>355.0</ele><time>2026-04-05T10:24:19.8Z</time></trkpt><trkpt lat="41.3822585" lon="1.3616438"><ele>354.0</ele><time>2026-04-05T10:24:20.799Z</time></trkpt><trkpt lat="41.3821692" lon="1.3616524"><ele>353.0</ele><time>2026-04-05T10:24:21.8Z</time></trkpt><trkpt lat="41.3820821" lon="1.3616263"><ele>352.0</ele><time>2026-04-05T10:24:22.8Z</time></trkpt><trkpt lat="41.3819994" lon="1.3615448"><ele>353.75</ele><time>2026-04-05T10:24:23.8Z</time></trkpt><trkpt lat="41.38192" lon="1.3614365"><ele>355.5</ele><time>2026-04-05T10:24:24.799Z</time></trkpt><trkpt lat="41.381837" lon="1.3613145"><ele>357.25</ele><time>2026-04-05T10:24:25.799Z</time></trkpt><trkpt lat="41.3817459" lon="1.361206"><ele>359.0</ele><time>2026-04-05T10:24:26.799Z</time></trkpt><trkpt lat="41.3816509" lon="1.3611115"><ele>359.0</ele><time>2026-04-05T10:24:27.8Z</time></trkpt><trkpt lat="41.3815447" lon="1.3610546"><ele>359.0</ele><time>2026-04-05T10:24:28.799Z</time></trkpt><trkpt lat="41.3814183" lon="1.3610481"><ele>359.0</ele><time>2026-04-05T10:24:29.8Z</time></trkpt><trkpt lat="41.3812886" lon="1.3610874"><ele>359.0</ele><time>2026-04-05T10:24:30.799Z</time></trkpt><trkpt lat="41.3811567" lon="1.3611408"><ele>363.6666666666667</ele><time>2026-04-05T10:24:31.799Z</time></trkpt><trkpt lat="41.3810143" lon="1.3612099"><ele>368.3333333333333</ele><time>2026-04-05T10:24:32.799Z</time></trkpt><trkpt lat="41.3808631" lon="1.3613008"><ele>373.0</ele><time>2026-04-05T10:24:33.8Z</time></trkpt><trkpt lat="41.3807069" lon="1.3614045"><ele>371.0</ele><time>2026-04-05T10:24:34.8Z</time></trkpt><trkpt lat="41.3805474" lon="1.3615137"><ele>369.0</ele><time>2026-04-05T10:24:35.8Z</time></trkpt><trkpt lat="41.3803936" lon="1.361635"><ele>367.0</ele><time>2026-04-05T10:24:36.8Z</time></trkpt><trkpt lat="41.3802495" lon="1.3617749"><ele>367.0</ele><time>2026-04-05T10:24:37.8Z</time></trkpt><trkpt lat="41.3801166" lon="1.3619373"><ele>367.0</ele><time>2026-04-05T10:24:38.799Z</time></trkpt><trkpt lat="41.3799905" lon="1.3621106"><ele>367.0</ele><time>2026-04-05T10:24:39.799Z</time></trkpt><trkpt lat="41.3798619" lon="1.3622906"><ele>367.0</ele><time>2026-04-05T10:24:40.799Z</time></trkpt><trkpt lat="41.3797397" lon="1.3624732"><ele>367.0</ele><time>2026-04-05T10:24:41.8Z</time></trkpt><trkpt lat="41.3796113" lon="1.3626438"><ele>367.0</ele><time>2026-04-05T10:24:42.799Z</time></trkpt><trkpt lat="41.379469" lon="1.3628065"><ele>367.0</ele><time>2026-04-05T10:24:43.8Z</time></trkpt><trkpt lat="41.3793242" lon="1.3629649"><ele>367.0</ele><time>2026-04-05T10:24:44.8Z</time></trkpt><trkpt lat="41.379186" lon="1.3631216"><ele>367.0</ele><time>2026-04-05T10:24:45.8Z</time></trkpt><trkpt lat="41.3790549" lon="1.3632731"><ele>364.66666666666663</ele><time>2026-04-05T10:24:46.8Z</time></trkpt><trkpt lat="41.3789244" lon="1.3634139"><ele>362.3333333333333</ele><time>2026-04-05T10:24:47.8Z</time></trkpt><trkpt lat="41.3787789" lon="1.3635436"><ele>360.0</ele><time>2026-04-05T10:24:48.8Z</time></trkpt><trkpt lat="41.3786214" lon="1.3636642"><ele>360.0</ele><time>2026-04-05T10:24:49.8Z</time></trkpt><trkpt lat="41.3784455" lon="1.3637694"><ele>360.0</ele><time>2026-04-05T10:24:50.8Z</time></trkpt><trkpt lat="41.3782685" lon="1.3638646"><ele>360.0</ele><time>2026-04-05T10:24:51.8Z</time></trkpt><trkpt lat="41.3780902" lon="1.3639507"><ele>354.0</ele><time>2026-04-05T10:24:52.8Z</time></trkpt><trkpt lat="41.3779151" lon="1.3640208"><ele>348.0</ele><time>2026-04-05T10:24:53.8Z</time></trkpt><trkpt lat="41.3777417" lon="1.3640679"><ele>342.0</ele><time>2026-04-05T10:24:54.799Z</time></trkpt><trkpt lat="41.3775594" lon="1.3640934"><ele>342.0</ele><time>2026-04-05T10:24:55.799Z</time></trkpt><trkpt lat="41.3773628" lon="1.3641001"><ele>342.0</ele><time>2026-04-05T10:24:56.799Z</time></trkpt><trkpt lat="41.3771632" lon="1.364103"><ele>342.0</ele><time>2026-04-05T10:24:57.8Z</time></trkpt><trkpt lat="41.3769569" lon="1.3641004"><ele>340.0</ele><time>2026-04-05T10:24:58.799Z</time></trkpt><trkpt lat="41.3767313" lon="1.3640967"><ele>338.0</ele><time>2026-04-05T10:24:59.799Z</time></trkpt><trkpt lat="41.3764921" lon="1.3640937"><ele>337.0</ele><time>2026-04-05T10:25:00.8Z</time></trkpt><trkpt lat="41.3762335" lon="1.3640939"><ele>336.0</ele><time>2026-04-05T10:25:01.8Z</time></trkpt><trkpt lat="41.3759614" lon="1.3640922"><ele>336.0</ele><time>2026-04-05T10:25:02.799Z</time></trkpt><trkpt lat="41.3756939" lon="1.3640947"><ele>336.0</ele><time>2026-04-05T10:25:03.799Z</time></trkpt><trkpt lat="41.3754444" lon="1.3640889"><ele>334.5</ele><time>2026-04-05T10:25:04.8Z</time></trkpt><trkpt lat="41.3752014" lon="1.3640883"><ele>333.0</ele><time>2026-04-05T10:25:05.799Z</time></trkpt><trkpt lat="41.3749678" lon="1.3640897"><ele>333.0</ele><time>2026-04-05T10:25:06.799Z</time></trkpt><trkpt lat="41.3747398" lon="1.3640939"><ele>333.0</ele><time>2026-04-05T10:25:07.8Z</time></trkpt><trkpt lat="41.3745152" lon="1.3640987"><ele>334.3333333333333</ele><time>2026-04-05T10:25:08.799Z</time></trkpt><trkpt lat="41.3742926" lon="1.3640946"><ele>335.66666666666663</ele><time>2026-04-05T10:25:09.799Z</time></trkpt><trkpt lat="41.3740729" lon="1.3640911"><ele>337.0</ele><time>2026-04-05T10:25:10.8Z</time></trkpt><trkpt lat="41.3738606" lon="1.3640869"><ele>338.5</ele><time>2026-04-05T10:25:11.799Z</time></trkpt><trkpt lat="41.3736362" lon="1.3640812"><ele>340.0</ele><time>2026-04-05T10:25:12.799Z</time></trkpt><trkpt lat="41.3733953" lon="1.3640649"><ele>340.0</ele><time>2026-04-05T10:25:13.8Z</time></trkpt><trkpt lat="41.3731468" lon="1.3640506"><ele>340.0</ele><time>2026-04-05T10:25:14.8Z</time></trkpt><trkpt lat="41.3728938" lon="1.3640369"><ele>338.0</ele><time>2026-04-05T10:25:15.8Z</time></trkpt><trkpt lat="41.3726483" lon="1.3640226"><ele>336.0</ele><time>2026-04-05T10:25:16.799Z</time></trkpt><trkpt lat="41.3724062" lon="1.3640119"><ele>335.5</ele><time>2026-04-05T10:25:17.8Z</time></trkpt><trkpt lat="41.3721686" lon="1.3639956"><ele>335.0</ele><time>2026-04-05T10:25:18.8Z</time></trkpt><trkpt lat="41.3719322" lon="1.3639824"><ele>335.0</ele><time>2026-04-05T10:25:19.799Z</time></trkpt><trkpt lat="41.3716987" lon="1.3639711"><ele>335.0</ele><time>2026-04-05T10:25:20.8Z</time></trkpt><trkpt lat="41.3714618" lon="1.3639517"><ele>334.0</ele><time>2026-04-05T10:25:21.8Z</time></trkpt><trkpt lat="41.3712269" lon="1.3639382"><ele>333.0</ele><time>2026-04-05T10:25:22.8Z</time></trkpt><trkpt lat="41.3709916" lon="1.3639261"><ele>333.0</ele><time>2026-04-05T10:25:23.799Z</time></trkpt><trkpt lat="41.3707582" lon="1.3639145"><ele>333.0</ele><time>2026-04-05T10:25:24.799Z</time></trkpt><trkpt lat="41.3705241" lon="1.3639032"><ele>332.5</ele><time>2026-04-05T10:25:25.8Z</time></trkpt><trkpt lat="41.3702867" lon="1.363895"><ele>332.0</ele><time>2026-04-05T10:25:26.799Z</time></trkpt><trkpt lat="41.3700494" lon="1.3638841"><ele>332.0</ele><time>2026-04-05T10:25:27.8Z</time></trkpt><trkpt lat="41.3698059" lon="1.3638704"><ele>332.0</ele><time>2026-04-05T10:25:28.799Z</time></trkpt><trkpt lat="41.3695627" lon="1.363852"><ele>337.0</ele><time>2026-04-05T10:25:29.8Z</time></trkpt><trkpt lat="41.3693174" lon="1.3638331"><ele>342.0</ele><time>2026-04-05T10:25:30.799Z</time></trkpt><trkpt lat="41.3690735" lon="1.3638169"><ele>342.5</ele><time>2026-04-05T10:25:31.8Z</time></trkpt><trkpt lat="41.3688285" lon="1.3638014"><ele>343.0</ele><time>2026-04-05T10:25:32.8Z</time></trkpt><trkpt lat="41.368586" lon="1.3637892"><ele>343.0</ele><time>2026-04-05T10:25:33.8Z</time></trkpt><trkpt lat="41.3683468" lon="1.3637735"><ele>343.0</ele><time>2026-04-05T10:25:34.8Z</time></trkpt><trkpt lat="41.3681067" lon="1.3637592"><ele>344.5</ele><time>2026-04-05T10:25:35.8Z</time></trkpt><trkpt lat="41.367872" lon="1.3637447"><ele>346.0</ele><time>2026-04-05T10:25:36.8Z</time></trkpt><trkpt lat="41.36765" lon="1.363728"><ele>346.0</ele><time>2026-04-05T10:25:37.799Z</time></trkpt><trkpt lat="41.3674402" lon="1.3637125"><ele>346.0</ele><time>2026-04-05T10:25:38.8Z</time></trkpt><trkpt lat="41.3672436" lon="1.3636997"><ele>346.0</ele><time>2026-04-05T10:25:39.799Z</time></trkpt><trkpt lat="41.3670394" lon="1.3636857"><ele>345.66666666666663</ele><time>2026-04-05T10:25:40.8Z</time></trkpt><trkpt lat="41.3668396" lon="1.3636908"><ele>345.3333333333333</ele><time>2026-04-05T10:25:41.799Z</time></trkpt><trkpt lat="41.3666348" lon="1.3637289"><ele>345.0</ele><time>2026-04-05T10:25:42.799Z</time></trkpt><trkpt lat="41.3664233" lon="1.3638038"><ele>342.3333333333333</ele><time>2026-04-05T10:25:43.8Z</time></trkpt><trkpt lat="41.3662131" lon="1.3638932"><ele>339.66666666666663</ele><time>2026-04-05T10:25:44.8Z</time></trkpt><trkpt lat="41.3660072" lon="1.3639845"><ele>337.0</ele><time>2026-04-05T10:25:45.8Z</time></trkpt><trkpt lat="41.3658087" lon="1.3640719"><ele>337.0</ele><time>2026-04-05T10:25:46.799Z</time></trkpt><trkpt lat="41.3656223" lon="1.3641605"><ele>337.0</ele><time>2026-04-05T10:25:47.8Z</time></trkpt><trkpt lat="41.3654425" lon="1.3642452"><ele>337.0</ele><time>2026-04-05T10:25:48.799Z</time></trkpt><trkpt lat="41.3652731" lon="1.3643083"><ele>338.0</ele><time>2026-04-05T10:25:49.8Z</time></trkpt><trkpt lat="41.3651098" lon="1.3643367"><ele>339.0</ele><time>2026-04-05T10:25:50.799Z</time></trkpt><trkpt lat="41.3649458" lon="1.3643192"><ele>340.0</ele><time>2026-04-05T10:25:51.8Z</time></trkpt><trkpt lat="41.364777" lon="1.3642611"><ele>340.0</ele><time>2026-04-05T10:25:52.799Z</time></trkpt><trkpt lat="41.3645957" lon="1.3641822"><ele>340.0</ele><time>2026-04-05T10:25:53.8Z</time></trkpt><trkpt lat="41.3644064" lon="1.364095"><ele>340.0</ele><time>2026-04-05T10:25:54.799Z</time></trkpt><trkpt lat="41.3642135" lon="1.3640038"><ele>340.0</ele><time>2026-04-05T10:25:55.799Z</time></trkpt><trkpt lat="41.364015" lon="1.363915"><ele>340.0</ele><time>2026-04-05T10:25:56.8Z</time></trkpt><trkpt lat="41.3638123" lon="1.3638229"><ele>340.0</ele><time>2026-04-05T10:25:57.799Z</time></trkpt><trkpt lat="41.3635986" lon="1.3637276"><ele>339.0</ele><time>2026-04-05T10:25:58.799Z</time></trkpt><trkpt lat="41.3633831" lon="1.3636345"><ele>338.0</ele><time>2026-04-05T10:25:59.799Z</time></trkpt><trkpt lat="41.363175" lon="1.3635386"><ele>337.0</ele><time>2026-04-05T10:26:00.8Z</time></trkpt><trkpt lat="41.3629675" lon="1.3634415"><ele>335.0</ele><time>2026-04-05T10:26:01.8Z</time></trkpt><trkpt lat="41.362758" lon="1.363339"><ele>333.0</ele><time>2026-04-05T10:26:02.799Z</time></trkpt><trkpt lat="41.362542" lon="1.3632375"><ele>333.0</ele><time>2026-04-05T10:26:03.8Z</time></trkpt><trkpt lat="41.3623363" lon="1.3631404"><ele>333.0</ele><time>2026-04-05T10:26:04.8Z</time></trkpt><trkpt lat="41.3621366" lon="1.3630531"><ele>333.0</ele><time>2026-04-05T10:26:05.799Z</time></trkpt><trkpt lat="41.3619448" lon="1.3629595"><ele>333.0</ele><time>2026-04-05T10:26:06.799Z</time></trkpt><trkpt lat="41.3617647" lon="1.3628792"><ele>333.0</ele><time>2026-04-05T10:26:07.8Z</time></trkpt><trkpt lat="41.3616032" lon="1.362802"><ele>333.0</ele><time>2026-04-05T10:26:08.8Z</time></trkpt><trkpt lat="41.3614731" lon="1.3627547"><ele>331.75</ele><time>2026-04-05T10:26:09.799Z</time></trkpt><trkpt lat="41.3613551" lon="1.3627506"><ele>330.5</ele><time>2026-04-05T10:26:10.799Z</time></trkpt><trkpt lat="41.361237" lon="1.3628004"><ele>329.25</ele><time>2026-04-05T10:26:11.799Z</time></trkpt><trkpt lat="41.3611077" lon="1.3629022"><ele>328.0</ele><time>2026-04-05T10:26:12.8Z</time></trkpt><trkpt lat="41.360952" lon="1.3630289"><ele>326.0</ele><time>2026-04-05T10:26:13.8Z</time></trkpt><trkpt lat="41.3607771" lon="1.3631645"><ele>324.0</ele><time>2026-04-05T10:26:14.8Z</time></trkpt><trkpt lat="41.3606091" lon="1.3633014"><ele>322.0</ele><time>2026-04-05T10:26:15.799Z</time></trkpt><trkpt lat="41.3604473" lon="1.3634358"><ele>320.66666666666663</ele><time>2026-04-05T10:26:16.8Z</time></trkpt><trkpt lat="41.3602902" lon="1.3635639"><ele>319.3333333333333</ele><time>2026-04-05T10:26:17.8Z</time></trkpt><trkpt lat="41.3601434" lon="1.3636886"><ele>318.0</ele><time>2026-04-05T10:26:18.8Z</time></trkpt><trkpt lat="41.3600123" lon="1.3637847"><ele>318.0</ele><time>2026-04-05T10:26:19.799Z</time></trkpt><trkpt lat="41.3598822" lon="1.3638312"><ele>318.0</ele><time>2026-04-05T10:26:20.8Z</time></trkpt><trkpt lat="41.3597543" lon="1.3638186"><ele>318.0</ele><time>2026-04-05T10:26:21.8Z</time></trkpt><trkpt lat="41.3596078" lon="1.3637517"><ele>318.0</ele><time>2026-04-05T10:26:22.8Z</time></trkpt><trkpt lat="41.3594535" lon="1.363654"><ele>315.6666666666667</ele><time>2026-04-05T10:26:23.799Z</time></trkpt><trkpt lat="41.3593008" lon="1.3635521"><ele>313.33333333333337</ele><time>2026-04-05T10:26:24.799Z</time></trkpt><trkpt lat="41.3591497" lon="1.3634598"><ele>311.0</ele><time>2026-04-05T10:26:25.799Z</time></trkpt><trkpt lat="41.3589846" lon="1.3634031"><ele>309.0</ele><time>2026-04-05T10:26:26.799Z</time></trkpt><trkpt lat="41.3587971" lon="1.3633901"><ele>307.0</ele><time>2026-04-05T10:26:27.799Z</time></trkpt><trkpt lat="41.3585971" lon="1.363412"><ele>305.0</ele><time>2026-04-05T10:26:28.8Z</time></trkpt><trkpt lat="41.3583992" lon="1.3634518"><ele>305.0</ele><time>2026-04-05T10:26:29.799Z</time></trkpt><trkpt lat="41.3582065" lon="1.3634875"><ele>305.0</ele><time>2026-04-05T10:26:30.799Z</time></trkpt><trkpt lat="41.3580147" lon="1.3635229"><ele>305.0</ele><time>2026-04-05T10:26:31.8Z</time></trkpt><trkpt lat="41.3578247" lon="1.3634935"><ele>305.33333333333337</ele><time>2026-04-05T10:26:32.8Z</time></trkpt><trkpt lat="41.3576429" lon="1.3634508"><ele>305.6666666666667</ele><time>2026-04-05T10:26:33.799Z</time></trkpt><trkpt lat="41.3574715" lon="1.3633973"><ele>306.0</ele><time>2026-04-05T10:26:34.799Z</time></trkpt><trkpt lat="41.3573113" lon="1.3633421"><ele>306.0</ele><time>2026-04-05T10:26:35.8Z</time></trkpt><trkpt lat="41.3571548" lon="1.3632947"><ele>306.0</ele><time>2026-04-05T10:26:36.799Z</time></trkpt><trkpt lat="41.3570044" lon="1.3632538"><ele>306.0</ele><time>2026-04-05T10:26:37.8Z</time></trkpt><trkpt lat="41.3568511" lon="1.3632216"><ele>306.0</ele><time>2026-04-05T10:26:38.799Z</time></trkpt><trkpt lat="41.356702" lon="1.3632078"><ele>306.0</ele><time>2026-04-05T10:26:39.8Z</time></trkpt><trkpt lat="41.3565611" lon="1.3632044"><ele>306.0</ele><time>2026-04-05T10:26:40.799Z</time></trkpt><trkpt lat="41.3564323" lon="1.3632118"><ele>306.0</ele><time>2026-04-05T10:26:41.799Z</time></trkpt><trkpt lat="41.3563285" lon="1.3632183"><ele>305.6666666666667</ele><time>2026-04-05T10:26:42.8Z</time></trkpt><trkpt lat="41.3562473" lon="1.3632187"><ele>305.3333333333333</ele><time>2026-04-05T10:26:43.799Z</time></trkpt><trkpt lat="41.3561716" lon="1.3632224"><ele>305.0</ele><time>2026-04-05T10:26:44.799Z</time></trkpt><trkpt lat="41.356094" lon="1.3632285"><ele>304.66666666666663</ele><time>2026-04-05T10:26:45.799Z</time></trkpt><trkpt lat="41.356007" lon="1.3632357"><ele>304.3333333333333</ele><time>2026-04-05T10:26:46.8Z</time></trkpt><trkpt lat="41.3559108" lon="1.3632455"><ele>304.0</ele><time>2026-04-05T10:26:47.8Z</time></trkpt><trkpt lat="41.3558083" lon="1.3632559"><ele>304.0</ele><time>2026-04-05T10:26:48.799Z</time></trkpt><trkpt lat="41.3557029" lon="1.3632594"><ele>304.0</ele><time>2026-04-05T10:26:49.8Z</time></trkpt><trkpt lat="41.3555981" lon="1.3632559"><ele>304.0</ele><time>2026-04-05T10:26:50.8Z</time></trkpt><trkpt lat="41.3554871" lon="1.363247"><ele>304.0</ele><time>2026-04-05T10:26:51.8Z</time></trkpt><trkpt lat="41.3553719" lon="1.3632198"><ele>304.0</ele><time>2026-04-05T10:26:52.799Z</time></trkpt><trkpt lat="41.3552554" lon="1.3631734"><ele>303.5</ele><time>2026-04-05T10:26:53.799Z</time></trkpt><trkpt lat="41.3551345" lon="1.3631287"><ele>303.0</ele><time>2026-04-05T10:26:54.799Z</time></trkpt><trkpt lat="41.3550147" lon="1.3630911"><ele>302.5</ele><time>2026-04-05T10:26:55.799Z</time></trkpt><trkpt lat="41.3548897" lon="1.3630567"><ele>302.0</ele><time>2026-04-05T10:26:56.8Z</time></trkpt><trkpt lat="41.3547616" lon="1.3630208"><ele>302.75</ele><time>2026-04-05T10:26:57.8Z</time></trkpt><trkpt lat="41.3546335" lon="1.3629857"><ele>303.5</ele><time>2026-04-05T10:26:58.799Z</time></trkpt><trkpt lat="41.3545038" lon="1.3629494"><ele>304.25</ele><time>2026-04-05T10:26:59.8Z</time></trkpt><trkpt lat="41.35437" lon="1.3629096"><ele>305.0</ele><time>2026-04-05T10:27:00.799Z</time></trkpt><trkpt lat="41.3542279" lon="1.3628674"><ele>305.0</ele><time>2026-04-05T10:27:01.799Z</time></trkpt><trkpt lat="41.3540821" lon="1.3628204"><ele>305.0</ele><time>2026-04-05T10:27:02.799Z</time></trkpt><trkpt lat="41.3539245" lon="1.3627725"><ele>305.0</ele><time>2026-04-05T10:27:03.799Z</time></trkpt><trkpt lat="41.3537595" lon="1.3627256"><ele>303.0</ele><time>2026-04-05T10:27:04.8Z</time></trkpt><trkpt lat="41.3535973" lon="1.3626738"><ele>301.0</ele><time>2026-04-05T10:27:05.799Z</time></trkpt><trkpt lat="41.3534379" lon="1.3626191"><ele>299.0</ele><time>2026-04-05T10:27:06.799Z</time></trkpt><trkpt lat="41.3532854" lon="1.362556"><ele>299.0</ele><time>2026-04-05T10:27:07.8Z</time></trkpt><trkpt lat="41.3531348" lon="1.3624894"><ele>299.0</ele><time>2026-04-05T10:27:08.8Z</time></trkpt><trkpt lat="41.3529804" lon="1.3624334"><ele>299.0</ele><time>2026-04-05T10:27:09.799Z</time></trkpt><trkpt lat="41.3528198" lon="1.362389"><ele>298.0</ele><time>2026-04-05T10:27:10.8Z</time></trkpt><trkpt lat="41.3526433" lon="1.3623533"><ele>297.0</ele><time>2026-04-05T10:27:11.799Z</time></trkpt><trkpt lat="41.3524643" lon="1.3623249"><ele>296.0</ele><time>2026-04-05T10:27:12.8Z</time></trkpt><trkpt lat="41.3522862" lon="1.3622895"><ele>295.6666666666667</ele><time>2026-04-05T10:27:13.8Z</time></trkpt><trkpt lat="41.3521061" lon="1.3622416"><ele>295.3333333333333</ele><time>2026-04-05T10:27:14.8Z</time></trkpt><trkpt lat="41.3519228" lon="1.3621826"><ele>295.0</ele><time>2026-04-05T10:27:15.799Z</time></trkpt><trkpt lat="41.3517378" lon="1.3621119"><ele>295.66666666666663</ele><time>2026-04-05T10:27:16.8Z</time></trkpt><trkpt lat="41.3515617" lon="1.3620405"><ele>296.3333333333333</ele><time>2026-04-05T10:27:17.799Z</time></trkpt><trkpt lat="41.3513906" lon="1.3619739"><ele>297.0</ele><time>2026-04-05T10:27:18.799Z</time></trkpt><trkpt lat="41.3512275" lon="1.3619052"><ele>297.0</ele><time>2026-04-05T10:27:19.799Z</time></trkpt><trkpt lat="41.3510696" lon="1.3618328"><ele>297.0</ele><time>2026-04-05T10:27:20.8Z</time></trkpt><trkpt lat="41.3509229" lon="1.3617599"><ele>297.0</ele><time>2026-04-05T10:27:21.799Z</time></trkpt><trkpt lat="41.3507904" lon="1.3616788"><ele>297.0</ele><time>2026-04-05T10:27:22.799Z</time></trkpt><trkpt lat="41.3506616" lon="1.3616074"><ele>297.0</ele><time>2026-04-05T10:27:23.799Z</time></trkpt><trkpt lat="41.35053" lon="1.3615599"><ele>297.0</ele><time>2026-04-05T10:27:24.8Z</time></trkpt><trkpt lat="41.350397" lon="1.3615327"><ele>297.0</ele><time>2026-04-05T10:27:25.8Z</time></trkpt><trkpt lat="41.3502752" lon="1.3615183"><ele>296.5</ele><time>2026-04-05T10:27:26.8Z</time></trkpt><trkpt lat="41.3501688" lon="1.3615166"><ele>296.0</ele><time>2026-04-05T10:27:27.8Z</time></trkpt><trkpt lat="41.3500823" lon="1.3615122"><ele>295.5</ele><time>2026-04-05T10:27:28.8Z</time></trkpt><trkpt lat="41.3500082" lon="1.3615086"><ele>295.0</ele><time>2026-04-05T10:27:29.799Z</time></trkpt><trkpt lat="41.3499136" lon="1.3615007"><ele>294.5</ele><time>2026-04-05T10:27:31.8Z</time></trkpt><trkpt lat="41.3498489" lon="1.3615605"><ele>294.0</ele><time>2026-04-05T10:27:33.799Z</time></trkpt><trkpt lat="41.3498222" lon="1.3616958"><ele>294.0</ele><time>2026-04-05T10:27:35.799Z</time></trkpt><trkpt lat="41.3498166" lon="1.3618063"><ele>294.0</ele><time>2026-04-05T10:27:36.799Z</time></trkpt><trkpt lat="41.3498089" lon="1.3619174"><ele>294.0</ele><time>2026-04-05T10:27:37.799Z</time></trkpt><trkpt lat="41.3498066" lon="1.3620343"><ele>294.0</ele><time>2026-04-05T10:27:38.8Z</time></trkpt><trkpt lat="41.3497993" lon="1.362158"><ele>294.0</ele><time>2026-04-05T10:27:39.8Z</time></trkpt><trkpt lat="41.3497806" lon="1.362274"><ele>294.0</ele><time>2026-04-05T10:27:40.8Z</time></trkpt><trkpt lat="41.3497612" lon="1.3623929"><ele>294.0</ele><time>2026-04-05T10:27:41.799Z</time></trkpt><trkpt lat="41.3497354" lon="1.3625092"><ele>294.0</ele><time>2026-04-05T10:27:42.799Z</time></trkpt><trkpt lat="41.349708" lon="1.362627"><ele>294.0</ele><time>2026-04-05T10:27:43.799Z</time></trkpt><trkpt lat="41.3496777" lon="1.3627443"><ele>294.0</ele><time>2026-04-05T10:27:44.8Z</time></trkpt><trkpt lat="41.349644" lon="1.3628624"><ele>294.0</ele><time>2026-04-05T10:27:45.799Z</time></trkpt><trkpt lat="41.3496037" lon="1.3629777"><ele>295.8</ele><time>2026-04-05T10:27:46.799Z</time></trkpt><trkpt lat="41.3495506" lon="1.363077"><ele>297.59999999999997</ele><time>2026-04-05T10:27:47.799Z</time></trkpt><trkpt lat="41.349486" lon="1.3631656"><ele>299.4</ele><time>2026-04-05T10:27:48.8Z</time></trkpt><trkpt lat="41.3494087" lon="1.3632284"><ele>301.2</ele><time>2026-04-05T10:27:49.799Z</time></trkpt><trkpt lat="41.3493209" lon="1.3632703"><ele>303.0</ele><time>2026-04-05T10:27:50.8Z</time></trkpt><trkpt lat="41.3492267" lon="1.3633049"><ele>303.0</ele><time>2026-04-05T10:27:51.8Z</time></trkpt><trkpt lat="41.3491329" lon="1.3633189"><ele>303.0</ele><time>2026-04-05T10:27:52.799Z</time></trkpt><trkpt lat="41.3490348" lon="1.3633066"><ele>303.0</ele><time>2026-04-05T10:27:53.799Z</time></trkpt><trkpt lat="41.3489339" lon="1.3632715"><ele>303.0</ele><time>2026-04-05T10:27:54.799Z</time></trkpt><trkpt lat="41.3488318" lon="1.363216"><ele>303.0</ele><time>2026-04-05T10:27:55.8Z</time></trkpt><trkpt lat="41.348728" lon="1.3631545"><ele>302.25</ele><time>2026-04-05T10:27:56.8Z</time></trkpt><trkpt lat="41.3486091" lon="1.3630758"><ele>301.5</ele><time>2026-04-05T10:27:57.799Z</time></trkpt><trkpt lat="41.3484926" lon="1.3630036"><ele>300.75</ele><time>2026-04-05T10:27:58.799Z</time></trkpt><trkpt lat="41.348386" lon="1.3629454"><ele>300.0</ele><time>2026-04-05T10:27:59.799Z</time></trkpt><trkpt lat="41.3482885" lon="1.3629037"><ele>300.0</ele><time>2026-04-05T10:28:00.799Z</time></trkpt><trkpt lat="41.3481875" lon="1.3628986"><ele>300.0</ele><time>2026-04-05T10:28:01.8Z</time></trkpt><trkpt lat="41.3480846" lon="1.3629303"><ele>300.0</ele><time>2026-04-05T10:28:02.8Z</time></trkpt><trkpt lat="41.347991" lon="1.3629854"><ele>300.0</ele><time>2026-04-05T10:28:03.799Z</time></trkpt><trkpt lat="41.3479067" lon="1.3630385"><ele>300.0</ele><time>2026-04-05T10:28:04.8Z</time></trkpt><trkpt lat="41.3478263" lon="1.3630582"><ele>300.8333333333333</ele><time>2026-04-05T10:28:05.8Z</time></trkpt><trkpt lat="41.3477491" lon="1.363038"><ele>301.6666666666667</ele><time>2026-04-05T10:28:06.8Z</time></trkpt><trkpt lat="41.3476722" lon="1.3629953"><ele>302.5</ele><time>2026-04-05T10:28:07.799Z</time></trkpt><trkpt lat="41.3475939" lon="1.3629522"><ele>303.33333333333337</ele><time>2026-04-05T10:28:08.8Z</time></trkpt><trkpt lat="41.3475119" lon="1.3629307"><ele>304.1666666666667</ele><time>2026-04-05T10:28:09.8Z</time></trkpt><trkpt lat="41.3474302" lon="1.3629245"><ele>305.0</ele><time>2026-04-05T10:28:10.799Z</time></trkpt><trkpt lat="41.3473537" lon="1.3629285"><ele>305.0</ele><time>2026-04-05T10:28:11.8Z</time></trkpt><trkpt lat="41.3472832" lon="1.3629493"><ele>305.0</ele><time>2026-04-05T10:28:12.799Z</time></trkpt><trkpt lat="41.3472141" lon="1.362983"><ele>305.0</ele><time>2026-04-05T10:28:13.799Z</time></trkpt><trkpt lat="41.3471475" lon="1.3630371"><ele>305.0</ele><time>2026-04-05T10:28:14.8Z</time></trkpt><trkpt lat="41.3470892" lon="1.3631055"><ele>305.0</ele><time>2026-04-05T10:28:15.799Z</time></trkpt><trkpt lat="41.3470394" lon="1.3631857"><ele>305.0</ele><time>2026-04-05T10:28:16.8Z</time></trkpt><trkpt lat="41.3469972" lon="1.3632755"><ele>306.83333333333337</ele><time>2026-04-05T10:28:17.799Z</time></trkpt><trkpt lat="41.3469653" lon="1.3633661"><ele>308.6666666666667</ele><time>2026-04-05T10:28:18.799Z</time></trkpt><trkpt lat="41.3469433" lon="1.3634598"><ele>310.5</ele><time>2026-04-05T10:28:19.8Z</time></trkpt><trkpt lat="41.3469321" lon="1.3635477"><ele>312.3333333333333</ele><time>2026-04-05T10:28:20.799Z</time></trkpt><trkpt lat="41.3469196" lon="1.363712"><ele>314.16666666666663</ele><time>2026-04-05T10:28:22.799Z</time></trkpt><trkpt lat="41.3469159" lon="1.3638041"><ele>316.0</ele><time>2026-04-05T10:28:23.799Z</time></trkpt><trkpt lat="41.3469141" lon="1.3638976"><ele>316.8333333333333</ele><time>2026-04-05T10:28:24.799Z</time></trkpt><trkpt lat="41.3469132" lon="1.3639925"><ele>317.66666666666663</ele><time>2026-04-05T10:28:25.799Z</time></trkpt><trkpt lat="41.3469106" lon="1.3640946"><ele>318.5</ele><time>2026-04-05T10:28:26.799Z</time></trkpt><trkpt lat="41.3469101" lon="1.3642004"><ele>319.3333333333333</ele><time>2026-04-05T10:28:27.799Z</time></trkpt><trkpt lat="41.3469088" lon="1.3643136"><ele>320.1666666666667</ele><time>2026-04-05T10:28:28.799Z</time></trkpt><trkpt lat="41.3469059" lon="1.3644306"><ele>321.0</ele><time>2026-04-05T10:28:29.799Z</time></trkpt><trkpt lat="41.3468996" lon="1.3645488"><ele>321.0</ele><time>2026-04-05T10:28:30.799Z</time></trkpt><trkpt lat="41.3468926" lon="1.3646701"><ele>321.0</ele><time>2026-04-05T10:28:31.8Z</time></trkpt><trkpt lat="41.3468813" lon="1.3647908"><ele>321.0</ele><time>2026-04-05T10:28:32.799Z</time></trkpt><trkpt lat="41.3468671" lon="1.3649127"><ele>321.0</ele><time>2026-04-05T10:28:33.799Z</time></trkpt><trkpt lat="41.3468499" lon="1.3650379"><ele>321.0</ele><time>2026-04-05T10:28:34.8Z</time></trkpt><trkpt lat="41.3468308" lon="1.3651605"><ele>321.4</ele><time>2026-04-05T10:28:35.8Z</time></trkpt><trkpt lat="41.3468088" lon="1.3652857"><ele>321.8</ele><time>2026-04-05T10:28:36.799Z</time></trkpt><trkpt lat="41.3467815" lon="1.3654111"><ele>322.2</ele><time>2026-04-05T10:28:37.8Z</time></trkpt><trkpt lat="41.3467575" lon="1.3655429"><ele>322.59999999999997</ele><time>2026-04-05T10:28:38.8Z</time></trkpt><trkpt lat="41.3467286" lon="1.3656811"><ele>323.0</ele><time>2026-04-05T10:28:39.8Z</time></trkpt><trkpt lat="41.3467049" lon="1.3658242"><ele>323.25</ele><time>2026-04-05T10:28:40.799Z</time></trkpt><trkpt lat="41.3466693" lon="1.3659856"><ele>323.5</ele><time>2026-04-05T10:28:41.8Z</time></trkpt><trkpt lat="41.3466299" lon="1.3661614"><ele>323.75</ele><time>2026-04-05T10:28:42.799Z</time></trkpt><trkpt lat="41.3465935" lon="1.3663472"><ele>324.0</ele><time>2026-04-05T10:28:43.799Z</time></trkpt><trkpt lat="41.3465602" lon="1.3665436"><ele>325.0</ele><time>2026-04-05T10:28:44.799Z</time></trkpt><trkpt lat="41.3465322" lon="1.3667499"><ele>326.0</ele><time>2026-04-05T10:28:45.799Z</time></trkpt><trkpt lat="41.3465116" lon="1.3669683"><ele>327.0</ele><time>2026-04-05T10:28:46.8Z</time></trkpt><trkpt lat="41.3464987" lon="1.3671919"><ele>328.0</ele><time>2026-04-05T10:28:47.8Z</time></trkpt><trkpt lat="41.3464921" lon="1.3674147"><ele>329.0</ele><time>2026-04-05T10:28:48.8Z</time></trkpt><trkpt lat="41.346487" lon="1.3676252"><ele>330.0</ele><time>2026-04-05T10:28:49.799Z</time></trkpt><trkpt lat="41.346466" lon="1.3678146"><ele>330.0</ele><time>2026-04-05T10:28:50.8Z</time></trkpt><trkpt lat="41.34642" lon="1.3679905"><ele>330.0</ele><time>2026-04-05T10:28:51.8Z</time></trkpt><trkpt lat="41.3463424" lon="1.3681707"><ele>330.0</ele><time>2026-04-05T10:28:52.799Z</time></trkpt><trkpt lat="41.3462365" lon="1.3683507"><ele>330.75</ele><time>2026-04-05T10:28:53.8Z</time></trkpt><trkpt lat="41.3461318" lon="1.3685021"><ele>331.5</ele><time>2026-04-05T10:28:54.799Z</time></trkpt><trkpt lat="41.3460305" lon="1.3686381"><ele>332.25</ele><time>2026-04-05T10:28:55.799Z</time></trkpt><trkpt lat="41.3459251" lon="1.3687491"><ele>333.0</ele><time>2026-04-05T10:28:56.8Z</time></trkpt><trkpt lat="41.3458142" lon="1.3688211"><ele>333.0</ele><time>2026-04-05T10:28:57.799Z</time></trkpt><trkpt lat="41.3456954" lon="1.3688445"><ele>333.0</ele><time>2026-04-05T10:28:58.799Z</time></trkpt><trkpt lat="41.3455782" lon="1.3688222"><ele>333.0</ele><time>2026-04-05T10:28:59.8Z</time></trkpt><trkpt lat="41.345444" lon="1.3687702"><ele>333.0</ele><time>2026-04-05T10:29:00.8Z</time></trkpt><trkpt lat="41.3453044" lon="1.3687035"><ele>335.0</ele><time>2026-04-05T10:29:01.8Z</time></trkpt><trkpt lat="41.3451613" lon="1.3686527"><ele>337.0</ele><time>2026-04-05T10:29:02.799Z</time></trkpt><trkpt lat="41.3450126" lon="1.3686069"><ele>339.0</ele><time>2026-04-05T10:29:03.799Z</time></trkpt><trkpt lat="41.3448626" lon="1.3685672"><ele>340.6666666666667</ele><time>2026-04-05T10:29:04.8Z</time></trkpt><trkpt lat="41.3447106" lon="1.3685334"><ele>342.33333333333337</ele><time>2026-04-05T10:29:05.799Z</time></trkpt><trkpt lat="41.344563" lon="1.3685072"><ele>344.0</ele><time>2026-04-05T10:29:06.799Z</time></trkpt><trkpt lat="41.3444079" lon="1.3684847"><ele>344.0</ele><time>2026-04-05T10:29:07.799Z</time></trkpt><trkpt lat="41.3442531" lon="1.3684816"><ele>344.0</ele><time>2026-04-05T10:29:08.799Z</time></trkpt><trkpt lat="41.3441028" lon="1.3684999"><ele>344.0</ele><time>2026-04-05T10:29:09.799Z</time></trkpt><trkpt lat="41.3439527" lon="1.3685166"><ele>344.75</ele><time>2026-04-05T10:29:10.799Z</time></trkpt><trkpt lat="41.3438064" lon="1.3685169"><ele>345.5</ele><time>2026-04-05T10:29:11.8Z</time></trkpt><trkpt lat="41.3436636" lon="1.3684962"><ele>346.25</ele><time>2026-04-05T10:29:12.799Z</time></trkpt><trkpt lat="41.3435173" lon="1.3684604"><ele>347.0</ele><time>2026-04-05T10:29:13.799Z</time></trkpt><trkpt lat="41.3433666" lon="1.368417"><ele>347.0</ele><time>2026-04-05T10:29:14.799Z</time></trkpt><trkpt lat="41.3432173" lon="1.3683785"><ele>347.0</ele><time>2026-04-05T10:29:15.799Z</time></trkpt><trkpt lat="41.3430766" lon="1.3683456"><ele>347.0</ele><time>2026-04-05T10:29:16.8Z</time></trkpt><trkpt lat="41.3429458" lon="1.368332"><ele>347.0</ele><time>2026-04-05T10:29:17.8Z</time></trkpt><trkpt lat="41.3428211" lon="1.368327"><ele>347.6</ele><time>2026-04-05T10:29:18.799Z</time></trkpt><trkpt lat="41.3427074" lon="1.36833"><ele>348.20000000000005</ele><time>2026-04-05T10:29:19.799Z</time></trkpt><trkpt lat="41.3425997" lon="1.3683283"><ele>348.8</ele><time>2026-04-05T10:29:20.799Z</time></trkpt><trkpt lat="41.3424941" lon="1.3683294"><ele>349.4</ele><time>2026-04-05T10:29:21.8Z</time></trkpt><trkpt lat="41.3423919" lon="1.3683512"><ele>350.0</ele><time>2026-04-05T10:29:22.8Z</time></trkpt><trkpt lat="41.3423031" lon="1.3684012"><ele>350.0</ele><time>2026-04-05T10:29:23.799Z</time></trkpt><trkpt lat="41.3422229" lon="1.3684852"><ele>350.0</ele><time>2026-04-05T10:29:24.8Z</time></trkpt><trkpt lat="41.3421751" lon="1.3685914"><ele>350.0</ele><time>2026-04-05T10:29:25.8Z</time></trkpt><trkpt lat="41.342157" lon="1.3687122"><ele>350.0</ele><time>2026-04-05T10:29:26.8Z</time></trkpt><trkpt lat="41.3421743" lon="1.3688329"><ele>350.0</ele><time>2026-04-05T10:29:27.799Z</time></trkpt><trkpt lat="41.3422237" lon="1.3689495"><ele>352.0</ele><time>2026-04-05T10:29:28.799Z</time></trkpt><trkpt lat="41.3423074" lon="1.3690507"><ele>354.0</ele><time>2026-04-05T10:29:29.8Z</time></trkpt><trkpt lat="41.3424068" lon="1.3691398"><ele>356.0</ele><time>2026-04-05T10:29:30.799Z</time></trkpt><trkpt lat="41.342513" lon="1.3692148"><ele>358.0</ele><time>2026-04-05T10:29:31.8Z</time></trkpt><trkpt lat="41.342617" lon="1.3692839"><ele>358.0</ele><time>2026-04-05T10:29:32.799Z</time></trkpt><trkpt lat="41.3427181" lon="1.3693579"><ele>358.0</ele><time>2026-04-05T10:29:33.8Z</time></trkpt><trkpt lat="41.3428115" lon="1.3694487"><ele>358.0</ele><time>2026-04-05T10:29:34.8Z</time></trkpt><trkpt lat="41.342888" lon="1.3695707"><ele>358.0</ele><time>2026-04-05T10:29:35.8Z</time></trkpt><trkpt lat="41.342945" lon="1.3697075"><ele>357.5</ele><time>2026-04-05T10:29:36.799Z</time></trkpt><trkpt lat="41.3429893" lon="1.3698544"><ele>357.0</ele><time>2026-04-05T10:29:37.8Z</time></trkpt><trkpt lat="41.3430299" lon="1.3700038"><ele>356.5</ele><time>2026-04-05T10:29:38.8Z</time></trkpt><trkpt lat="41.3430636" lon="1.3701572"><ele>356.0</ele><time>2026-04-05T10:29:39.8Z</time></trkpt><trkpt lat="41.343086" lon="1.3703058"><ele>358.0</ele><time>2026-04-05T10:29:40.8Z</time></trkpt><trkpt lat="41.343103" lon="1.37045"><ele>360.0</ele><time>2026-04-05T10:29:41.8Z</time></trkpt><trkpt lat="41.3431267" lon="1.3705824"><ele>362.0</ele><time>2026-04-05T10:29:42.799Z</time></trkpt><trkpt lat="41.3431759" lon="1.3707051"><ele>364.0</ele><time>2026-04-05T10:29:43.799Z</time></trkpt><trkpt lat="41.3432515" lon="1.3708095"><ele>366.0</ele><time>2026-04-05T10:29:44.799Z</time></trkpt><trkpt lat="41.3433445" lon="1.3708943"><ele>366.25</ele><time>2026-04-05T10:29:45.799Z</time></trkpt><trkpt lat="41.3434574" lon="1.370959"><ele>366.5</ele><time>2026-04-05T10:29:46.8Z</time></trkpt><trkpt lat="41.3435767" lon="1.371019"><ele>366.75</ele><time>2026-04-05T10:29:47.799Z</time></trkpt><trkpt lat="41.3436931" lon="1.3710843"><ele>367.0</ele><time>2026-04-05T10:29:48.8Z</time></trkpt><trkpt lat="41.3438157" lon="1.3711483"><ele>367.75</ele><time>2026-04-05T10:29:49.8Z</time></trkpt><trkpt lat="41.3439334" lon="1.3712209"><ele>368.5</ele><time>2026-04-05T10:29:50.8Z</time></trkpt><trkpt lat="41.3440379" lon="1.3713212"><ele>369.25</ele><time>2026-04-05T10:29:51.799Z</time></trkpt><trkpt lat="41.3441353" lon="1.3714462"><ele>370.0</ele><time>2026-04-05T10:29:52.8Z</time></trkpt><trkpt lat="41.3442151" lon="1.3716156"><ele>370.0</ele><time>2026-04-05T10:29:53.799Z</time></trkpt><trkpt lat="41.3442932" lon="1.3717845"><ele>370.0</ele><time>2026-04-05T10:29:54.799Z</time></trkpt><trkpt lat="41.3443723" lon="1.3719508"><ele>370.0</ele><time>2026-04-05T10:29:55.8Z</time></trkpt><trkpt lat="41.3444564" lon="1.3721144"><ele>370.0</ele><time>2026-04-05T10:29:56.799Z</time></trkpt><trkpt lat="41.3445385" lon="1.3722741"><ele>368.66666666666663</ele><time>2026-04-05T10:29:57.8Z</time></trkpt><trkpt lat="41.3446223" lon="1.3724435"><ele>367.3333333333333</ele><time>2026-04-05T10:29:58.8Z</time></trkpt><trkpt lat="41.344711" lon="1.3726191"><ele>366.0</ele><time>2026-04-05T10:29:59.8Z</time></trkpt><trkpt lat="41.344832" lon="1.3728086"><ele>367.0</ele><time>2026-04-05T10:30:00.799Z</time></trkpt><trkpt lat="41.3449811" lon="1.3730052"><ele>368.0</ele><time>2026-04-05T10:30:01.799Z</time></trkpt><trkpt lat="41.3451391" lon="1.3732129"><ele>369.0</ele><time>2026-04-05T10:30:02.8Z</time></trkpt><trkpt lat="41.3452962" lon="1.3734417"><ele>369.0</ele><time>2026-04-05T10:30:03.799Z</time></trkpt><trkpt lat="41.3454476" lon="1.373669"><ele>369.0</ele><time>2026-04-05T10:30:04.799Z</time></trkpt><trkpt lat="41.3455926" lon="1.3738795"><ele>369.0</ele><time>2026-04-05T10:30:05.8Z</time></trkpt><trkpt lat="41.3457312" lon="1.3740709"><ele>371.0</ele><time>2026-04-05T10:30:06.799Z</time></trkpt><trkpt lat="41.3458567" lon="1.3742461"><ele>373.0</ele><time>2026-04-05T10:30:07.8Z</time></trkpt><trkpt lat="41.3459689" lon="1.3743994"><ele>375.0</ele><time>2026-04-05T10:30:08.799Z</time></trkpt><trkpt lat="41.3460889" lon="1.3745164"><ele>375.0</ele><time>2026-04-05T10:30:09.799Z</time></trkpt><trkpt lat="41.3462261" lon="1.3746044"><ele>375.0</ele><time>2026-04-05T10:30:10.799Z</time></trkpt><trkpt lat="41.34638" lon="1.3746493"><ele>375.0</ele><time>2026-04-05T10:30:11.799Z</time></trkpt><trkpt lat="41.3465361" lon="1.3746513"><ele>377.0</ele><time>2026-04-05T10:30:12.799Z</time></trkpt><trkpt lat="41.3466863" lon="1.3746172"><ele>379.0</ele><time>2026-04-05T10:30:13.8Z</time></trkpt><trkpt lat="41.3468243" lon="1.3745672"><ele>381.0</ele><time>2026-04-05T10:30:14.8Z</time></trkpt><trkpt lat="41.3469411" lon="1.3745337"><ele>383.0</ele><time>2026-04-05T10:30:15.799Z</time></trkpt><trkpt lat="41.3470482" lon="1.3745434"><ele>383.0</ele><time>2026-04-05T10:30:16.799Z</time></trkpt><trkpt lat="41.3471457" lon="1.374605"><ele>383.0</ele><time>2026-04-05T10:30:17.8Z</time></trkpt><trkpt lat="41.3472231" lon="1.3747211"><ele>383.0</ele><time>2026-04-05T10:30:18.799Z</time></trkpt><trkpt lat="41.3472648" lon="1.3748623"><ele>383.0</ele><time>2026-04-05T10:30:19.8Z</time></trkpt><trkpt lat="41.3472722" lon="1.3750248"><ele>382.79999999999995</ele><time>2026-04-05T10:30:20.8Z</time></trkpt><trkpt lat="41.3472557" lon="1.375185"><ele>382.6</ele><time>2026-04-05T10:30:21.8Z</time></trkpt><trkpt lat="41.3472388" lon="1.3753241"><ele>382.4</ele><time>2026-04-05T10:30:22.8Z</time></trkpt><trkpt lat="41.3472275" lon="1.3754586"><ele>382.20000000000005</ele><time>2026-04-05T10:30:23.799Z</time></trkpt><trkpt lat="41.3472289" lon="1.3755999"><ele>382.0</ele><time>2026-04-05T10:30:24.8Z</time></trkpt><trkpt lat="41.3472456" lon="1.3757588"><ele>381.25</ele><time>2026-04-05T10:30:25.8Z</time></trkpt><trkpt lat="41.3472798" lon="1.3759254"><ele>380.5</ele><time>2026-04-05T10:30:26.799Z</time></trkpt><trkpt lat="41.3473187" lon="1.3760983"><ele>379.75</ele><time>2026-04-05T10:30:27.8Z</time></trkpt><trkpt lat="41.3473601" lon="1.3762738"><ele>379.0</ele><time>2026-04-05T10:30:28.8Z</time></trkpt><trkpt lat="41.3474048" lon="1.376472"><ele>378.0</ele><time>2026-04-05T10:30:29.8Z</time></trkpt><trkpt lat="41.3474481" lon="1.3766839"><ele>377.0</ele><time>2026-04-05T10:30:30.799Z</time></trkpt><trkpt lat="41.3474999" lon="1.376923"><ele>376.0</ele><time>2026-04-05T10:30:31.799Z</time></trkpt><trkpt lat="41.3475503" lon="1.3771668"><ele>375.3333333333333</ele><time>2026-04-05T10:30:32.8Z</time></trkpt><trkpt lat="41.3476018" lon="1.3774112"><ele>374.6666666666667</ele><time>2026-04-05T10:30:33.8Z</time></trkpt><trkpt lat="41.3476649" lon="1.3776653"><ele>374.0</ele><time>2026-04-05T10:30:34.799Z</time></trkpt><trkpt lat="41.3477481" lon="1.3779149"><ele>373.0</ele><time>2026-04-05T10:30:35.8Z</time></trkpt><trkpt lat="41.3478566" lon="1.3781727"><ele>372.0</ele><time>2026-04-05T10:30:36.799Z</time></trkpt><trkpt lat="41.3479736" lon="1.3784407"><ele>373.6666666666667</ele><time>2026-04-05T10:30:37.8Z</time></trkpt><trkpt lat="41.3480914" lon="1.3786996"><ele>375.33333333333337</ele><time>2026-04-05T10:30:38.799Z</time></trkpt><trkpt lat="41.3482028" lon="1.3789502"><ele>377.0</ele><time>2026-04-05T10:30:39.8Z</time></trkpt><trkpt lat="41.348312" lon="1.3791973"><ele>377.33333333333337</ele><time>2026-04-05T10:30:40.8Z</time></trkpt><trkpt lat="41.3484148" lon="1.3794383"><ele>377.6666666666667</ele><time>2026-04-05T10:30:41.799Z</time></trkpt><trkpt lat="41.3485142" lon="1.3796761"><ele>378.0</ele><time>2026-04-05T10:30:42.799Z</time></trkpt><trkpt lat="41.3485961" lon="1.3799195"><ele>377.3333333333333</ele><time>2026-04-05T10:30:43.799Z</time></trkpt><trkpt lat="41.3486582" lon="1.3801864"><ele>376.66666666666663</ele><time>2026-04-05T10:30:44.8Z</time></trkpt><trkpt lat="41.348695" lon="1.3804441"><ele>376.0</ele><time>2026-04-05T10:30:45.8Z</time></trkpt><trkpt lat="41.3487258" lon="1.3806839"><ele>375.3333333333333</ele><time>2026-04-05T10:30:46.799Z</time></trkpt><trkpt lat="41.348773" lon="1.3808972"><ele>374.6666666666667</ele><time>2026-04-05T10:30:47.799Z</time></trkpt><trkpt lat="41.3488459" lon="1.381082"><ele>374.0</ele><time>2026-04-05T10:30:48.8Z</time></trkpt><trkpt lat="41.3489343" lon="1.3812445"><ele>375.75</ele><time>2026-04-05T10:30:49.8Z</time></trkpt><trkpt lat="41.3489966" lon="1.3814068"><ele>377.5</ele><time>2026-04-05T10:30:50.799Z</time></trkpt><trkpt lat="41.3490166" lon="1.3815864"><ele>379.25</ele><time>2026-04-05T10:30:51.799Z</time></trkpt><trkpt lat="41.3489944" lon="1.381773"><ele>381.0</ele><time>2026-04-05T10:30:52.8Z</time></trkpt><trkpt lat="41.3489375" lon="1.3819352"><ele>381.0</ele><time>2026-04-05T10:30:53.799Z</time></trkpt><trkpt lat="41.3488859" lon="1.3820985"><ele>381.0</ele><time>2026-04-05T10:30:54.799Z</time></trkpt><trkpt lat="41.3488635" lon="1.3822816"><ele>381.0</ele><time>2026-04-05T10:30:55.799Z</time></trkpt><trkpt lat="41.3488751" lon="1.3824868"><ele>381.0</ele><time>2026-04-05T10:30:56.799Z</time></trkpt><trkpt lat="41.348916" lon="1.3827126"><ele>380.3333333333333</ele><time>2026-04-05T10:30:57.799Z</time></trkpt><trkpt lat="41.348975" lon="1.3829541"><ele>379.66666666666663</ele><time>2026-04-05T10:30:58.799Z</time></trkpt><trkpt lat="41.3490339" lon="1.3832067"><ele>379.0</ele><time>2026-04-05T10:30:59.799Z</time></trkpt><trkpt lat="41.3490926" lon="1.3834582"><ele>378.3333333333333</ele><time>2026-04-05T10:31:00.8Z</time></trkpt><trkpt lat="41.3491451" lon="1.3836999"><ele>377.6666666666667</ele><time>2026-04-05T10:31:01.8Z</time></trkpt><trkpt lat="41.3492026" lon="1.3839506"><ele>377.0</ele><time>2026-04-05T10:31:02.8Z</time></trkpt><trkpt lat="41.3492601" lon="1.3842124"><ele>376.33333333333337</ele><time>2026-04-05T10:31:03.8Z</time></trkpt><trkpt lat="41.3493207" lon="1.3844818"><ele>375.6666666666667</ele><time>2026-04-05T10:31:04.799Z</time></trkpt><trkpt lat="41.3493799" lon="1.3847472"><ele>375.0</ele><time>2026-04-05T10:31:05.799Z</time></trkpt><trkpt lat="41.3494374" lon="1.3850076"><ele>374.3333333333333</ele><time>2026-04-05T10:31:06.799Z</time></trkpt><trkpt lat="41.3494891" lon="1.3852585"><ele>373.66666666666663</ele><time>2026-04-05T10:31:07.799Z</time></trkpt><trkpt lat="41.3495439" lon="1.3855046"><ele>373.0</ele><time>2026-04-05T10:31:08.799Z</time></trkpt><trkpt lat="41.3495943" lon="1.3857506"><ele>373.0</ele><time>2026-04-05T10:31:09.8Z</time></trkpt><trkpt lat="41.3496357" lon="1.3860012"><ele>373.0</ele><time>2026-04-05T10:31:10.8Z</time></trkpt><trkpt lat="41.3496582" lon="1.3862574"><ele>373.0</ele><time>2026-04-05T10:31:11.799Z</time></trkpt><trkpt lat="41.3496723" lon="1.3865087"><ele>373.0</ele><time>2026-04-05T10:31:12.799Z</time></trkpt><trkpt lat="41.3496863" lon="1.386759"><ele>373.0</ele><time>2026-04-05T10:31:13.8Z</time></trkpt><trkpt lat="41.3496986" lon="1.3870043"><ele>373.0</ele><time>2026-04-05T10:31:14.8Z</time></trkpt><trkpt lat="41.3497097" lon="1.3872489"><ele>377.66666666666663</ele><time>2026-04-05T10:31:15.8Z</time></trkpt><trkpt lat="41.3497242" lon="1.3874759"><ele>382.3333333333333</ele><time>2026-04-05T10:31:16.8Z</time></trkpt><trkpt lat="41.3497383" lon="1.3877004"><ele>387.0</ele><time>2026-04-05T10:31:17.799Z</time></trkpt><trkpt lat="41.3498104" lon="1.3878789"><ele>386.0</ele><time>2026-04-05T10:31:18.799Z</time></trkpt><trkpt lat="41.3499028" lon="1.3880766"><ele>385.0</ele><time>2026-04-05T10:31:19.8Z</time></trkpt><trkpt lat="41.3499956" lon="1.3882749"><ele>384.0</ele><time>2026-04-05T10:31:20.799Z</time></trkpt><trkpt lat="41.3500864" lon="1.3884539"><ele>384.0</ele><time>2026-04-05T10:31:21.8Z</time></trkpt><trkpt lat="41.350196" lon="1.388605"><ele>384.0</ele><time>2026-04-05T10:31:22.799Z</time></trkpt><trkpt lat="41.3503271" lon="1.3887369"><ele>384.0</ele><time>2026-04-05T10:31:23.8Z</time></trkpt><trkpt lat="41.3504842" lon="1.3888531"><ele>385.66666666666663</ele><time>2026-04-05T10:31:24.799Z</time></trkpt><trkpt lat="41.3506424" lon="1.3889698"><ele>387.3333333333333</ele><time>2026-04-05T10:31:25.799Z</time></trkpt><trkpt lat="41.3507981" lon="1.3890867"><ele>389.0</ele><time>2026-04-05T10:31:26.799Z</time></trkpt><trkpt lat="41.3509397" lon="1.3892027"><ele>389.0</ele><time>2026-04-05T10:31:27.799Z</time></trkpt><trkpt lat="41.3510721" lon="1.3893036"><ele>389.0</ele><time>2026-04-05T10:31:28.799Z</time></trkpt><trkpt lat="41.3512002" lon="1.3893807"><ele>389.0</ele><time>2026-04-05T10:31:29.799Z</time></trkpt><trkpt lat="41.3513364" lon="1.389422"><ele>389.0</ele><time>2026-04-05T10:31:30.8Z</time></trkpt><trkpt lat="41.3514787" lon="1.3894252"><ele>392.66666666666663</ele><time>2026-04-05T10:31:31.799Z</time></trkpt><trkpt lat="41.3516305" lon="1.3893964"><ele>396.33333333333337</ele><time>2026-04-05T10:31:32.799Z</time></trkpt><trkpt lat="41.3517824" lon="1.3893787"><ele>400.0</ele><time>2026-04-05T10:31:33.8Z</time></trkpt><trkpt lat="41.3519321" lon="1.3893988"><ele>400.0</ele><time>2026-04-05T10:31:34.8Z</time></trkpt><trkpt lat="41.352072" lon="1.3894595"><ele>400.0</ele><time>2026-04-05T10:31:35.8Z</time></trkpt><trkpt lat="41.3522042" lon="1.3895379"><ele>400.0</ele><time>2026-04-05T10:31:36.8Z</time></trkpt><trkpt lat="41.35232" lon="1.3896834"><ele>399.33333333333337</ele><time>2026-04-05T10:31:37.799Z</time></trkpt><trkpt lat="41.352428" lon="1.3898671"><ele>398.66666666666663</ele><time>2026-04-05T10:31:38.8Z</time></trkpt><trkpt lat="41.3525367" lon="1.3900718"><ele>398.0</ele><time>2026-04-05T10:31:39.799Z</time></trkpt><trkpt lat="41.352639" lon="1.3902661"><ele>398.0</ele><time>2026-04-05T10:31:40.799Z</time></trkpt><trkpt lat="41.3527355" lon="1.3904468"><ele>398.0</ele><time>2026-04-05T10:31:41.799Z</time></trkpt><trkpt lat="41.3528358" lon="1.3906181"><ele>398.0</ele><time>2026-04-05T10:31:42.799Z</time></trkpt><trkpt lat="41.3528973" lon="1.3907833"><ele>395.0</ele><time>2026-04-05T10:31:43.8Z</time></trkpt><trkpt lat="41.3529458" lon="1.3909725"><ele>392.0</ele><time>2026-04-05T10:31:44.799Z</time></trkpt><trkpt lat="41.3529752" lon="1.3911767"><ele>389.0</ele><time>2026-04-05T10:31:45.8Z</time></trkpt><trkpt lat="41.3529972" lon="1.391384"><ele>389.0</ele><time>2026-04-05T10:31:46.8Z</time></trkpt><trkpt lat="41.3530358" lon="1.3915875"><ele>389.0</ele><time>2026-04-05T10:31:47.799Z</time></trkpt><trkpt lat="41.3530957" lon="1.3917845"><ele>389.0</ele><time>2026-04-05T10:31:48.799Z</time></trkpt><trkpt lat="41.3531851" lon="1.3919706"><ele>393.5</ele><time>2026-04-05T10:31:49.8Z</time></trkpt><trkpt lat="41.3532667" lon="1.3921473"><ele>398.0</ele><time>2026-04-05T10:31:50.799Z</time></trkpt><trkpt lat="41.353322" lon="1.3923152"><ele>402.5</ele><time>2026-04-05T10:31:51.799Z</time></trkpt><trkpt lat="41.3533436" lon="1.3924812"><ele>407.0</ele><time>2026-04-05T10:31:52.799Z</time></trkpt><trkpt lat="41.3533332" lon="1.3926441"><ele>407.0</ele><time>2026-04-05T10:31:53.8Z</time></trkpt><trkpt lat="41.353308" lon="1.3927897"><ele>407.0</ele><time>2026-04-05T10:31:54.8Z</time></trkpt><trkpt lat="41.3532926" lon="1.3929355"><ele>407.0</ele><time>2026-04-05T10:31:55.8Z</time></trkpt><trkpt lat="41.3533042" lon="1.3930967"><ele>407.0</ele><time>2026-04-05T10:31:56.799Z</time></trkpt><trkpt lat="41.3533483" lon="1.3932543"><ele>407.0</ele><time>2026-04-05T10:31:57.8Z</time></trkpt><trkpt lat="41.3534242" lon="1.3934127"><ele>407.0</ele><time>2026-04-05T10:31:58.8Z</time></trkpt><trkpt lat="41.3535138" lon="1.3935548"><ele>407.0</ele><time>2026-04-05T10:31:59.8Z</time></trkpt><trkpt lat="41.3536286" lon="1.393722"><ele>409.66666666666663</ele><time>2026-04-05T10:32:00.799Z</time></trkpt><trkpt lat="41.3537455" lon="1.3938819"><ele>412.33333333333337</ele><time>2026-04-05T10:32:01.799Z</time></trkpt><trkpt lat="41.3538852" lon="1.394023"><ele>415.0</ele><time>2026-04-05T10:32:02.799Z</time></trkpt><trkpt lat="41.35405" lon="1.3941468"><ele>415.0</ele><time>2026-04-05T10:32:03.799Z</time></trkpt><trkpt lat="41.3542294" lon="1.3942551"><ele>415.0</ele><time>2026-04-05T10:32:04.799Z</time></trkpt><trkpt lat="41.354402" lon="1.3943717"><ele>415.0</ele><time>2026-04-05T10:32:05.8Z</time></trkpt><trkpt lat="41.354571" lon="1.3944788"><ele>414.33333333333337</ele><time>2026-04-05T10:32:06.8Z</time></trkpt><trkpt lat="41.3547419" lon="1.3945867"><ele>413.66666666666663</ele><time>2026-04-05T10:32:07.799Z</time></trkpt><trkpt lat="41.3549016" lon="1.3946931"><ele>413.0</ele><time>2026-04-05T10:32:08.799Z</time></trkpt><trkpt lat="41.3550559" lon="1.3948053"><ele>413.0</ele><time>2026-04-05T10:32:09.799Z</time></trkpt><trkpt lat="41.3552049" lon="1.3949389"><ele>413.0</ele><time>2026-04-05T10:32:10.799Z</time></trkpt><trkpt lat="41.3553624" lon="1.3950932"><ele>413.0</ele><time>2026-04-05T10:32:11.8Z</time></trkpt><trkpt lat="41.3555269" lon="1.3952184"><ele>414.0</ele><time>2026-04-05T10:32:12.799Z</time></trkpt><trkpt lat="41.3556857" lon="1.3953209"><ele>415.0</ele><time>2026-04-05T10:32:13.8Z</time></trkpt><trkpt lat="41.3558308" lon="1.3954347"><ele>416.0</ele><time>2026-04-05T10:32:14.8Z</time></trkpt><trkpt lat="41.355966" lon="1.3955874"><ele>416.0</ele><time>2026-04-05T10:32:15.799Z</time></trkpt><trkpt lat="41.3561154" lon="1.3957325"><ele>416.0</ele><time>2026-04-05T10:32:16.799Z</time></trkpt><trkpt lat="41.3562795" lon="1.3958519"><ele>416.0</ele><time>2026-04-05T10:32:17.8Z</time></trkpt><trkpt lat="41.3564243" lon="1.3959876"><ele>419.0</ele><time>2026-04-05T10:32:18.8Z</time></trkpt><trkpt lat="41.3565447" lon="1.3961636"><ele>422.0</ele><time>2026-04-05T10:32:19.799Z</time></trkpt><trkpt lat="41.3566602" lon="1.3963382"><ele>425.0</ele><time>2026-04-05T10:32:20.799Z</time></trkpt><trkpt lat="41.3567902" lon="1.396457"><ele>425.0</ele><time>2026-04-05T10:32:21.8Z</time></trkpt><trkpt lat="41.3569112" lon="1.3965621"><ele>425.0</ele><time>2026-04-05T10:32:22.799Z</time></trkpt><trkpt lat="41.3570065" lon="1.3967031"><ele>425.0</ele><time>2026-04-05T10:32:23.8Z</time></trkpt><trkpt lat="41.3570806" lon="1.3968778"><ele>425.0</ele><time>2026-04-05T10:32:24.799Z</time></trkpt><trkpt lat="41.3571364" lon="1.39707"><ele>423.5</ele><time>2026-04-05T10:32:25.799Z</time></trkpt><trkpt lat="41.3571944" lon="1.3972532"><ele>422.0</ele><time>2026-04-05T10:32:26.8Z</time></trkpt><trkpt lat="41.3572703" lon="1.3974081"><ele>420.5</ele><time>2026-04-05T10:32:27.799Z</time></trkpt><trkpt lat="41.3573715" lon="1.3975445"><ele>419.0</ele><time>2026-04-05T10:32:28.8Z</time></trkpt><trkpt lat="41.357487" lon="1.3976615"><ele>422.75</ele><time>2026-04-05T10:32:29.799Z</time></trkpt><trkpt lat="41.3575966" lon="1.3977632"><ele>426.5</ele><time>2026-04-05T10:32:30.799Z</time></trkpt><trkpt lat="41.3577008" lon="1.3978529"><ele>430.25</ele><time>2026-04-05T10:32:31.8Z</time></trkpt><trkpt lat="41.3578085" lon="1.3979067"><ele>434.0</ele><time>2026-04-05T10:32:32.8Z</time></trkpt><trkpt lat="41.3579364" lon="1.397917"><ele>436.25</ele><time>2026-04-05T10:32:33.799Z</time></trkpt><trkpt lat="41.3580678" lon="1.3978851"><ele>438.5</ele><time>2026-04-05T10:32:34.799Z</time></trkpt><trkpt lat="41.3581908" lon="1.3978438"><ele>440.75</ele><time>2026-04-05T10:32:35.799Z</time></trkpt><trkpt lat="41.3583074" lon="1.397835"><ele>443.0</ele><time>2026-04-05T10:32:36.8Z</time></trkpt><trkpt lat="41.3584216" lon="1.3978696"><ele>443.0</ele><time>2026-04-05T10:32:37.799Z</time></trkpt><trkpt lat="41.358521" lon="1.397953"><ele>443.0</ele><time>2026-04-05T10:32:38.799Z</time></trkpt><trkpt lat="41.3586097" lon="1.3980594"><ele>443.0</ele><time>2026-04-05T10:32:39.8Z</time></trkpt><trkpt lat="41.3586949" lon="1.398172"><ele>443.0</ele><time>2026-04-05T10:32:40.799Z</time></trkpt><trkpt lat="41.3587829" lon="1.3982707"><ele>442.75</ele><time>2026-04-05T10:32:41.799Z</time></trkpt><trkpt lat="41.3588841" lon="1.3983544"><ele>442.5</ele><time>2026-04-05T10:32:42.8Z</time></trkpt><trkpt lat="41.3589982" lon="1.3984177"><ele>442.25</ele><time>2026-04-05T10:32:43.8Z</time></trkpt><trkpt lat="41.3591207" lon="1.3984712"><ele>442.0</ele><time>2026-04-05T10:32:44.799Z</time></trkpt><trkpt lat="41.3592522" lon="1.3985312"><ele>442.0</ele><time>2026-04-05T10:32:45.8Z</time></trkpt><trkpt lat="41.3593827" lon="1.3985995"><ele>442.0</ele><time>2026-04-05T10:32:46.8Z</time></trkpt><trkpt lat="41.3595144" lon="1.3986821"><ele>442.0</ele><time>2026-04-05T10:32:47.799Z</time></trkpt><trkpt lat="41.3596504" lon="1.3987713"><ele>442.0</ele><time>2026-04-05T10:32:48.799Z</time></trkpt><trkpt lat="41.3598004" lon="1.398864"><ele>442.0</ele><time>2026-04-05T10:32:49.8Z</time></trkpt><trkpt lat="41.3599512" lon="1.3989583"><ele>442.0</ele><time>2026-04-05T10:32:50.799Z</time></trkpt><trkpt lat="41.3600973" lon="1.399051"><ele>442.0</ele><time>2026-04-05T10:32:51.799Z</time></trkpt><trkpt lat="41.3602331" lon="1.3991422"><ele>442.0</ele><time>2026-04-05T10:32:52.8Z</time></trkpt><trkpt lat="41.3603593" lon="1.399238"><ele>442.0</ele><time>2026-04-05T10:32:53.799Z</time></trkpt><trkpt lat="41.360465" lon="1.399353"><ele>442.0</ele><time>2026-04-05T10:32:54.8Z</time></trkpt><trkpt lat="41.360561" lon="1.3994804"><ele>442.0</ele><time>2026-04-05T10:32:55.799Z</time></trkpt><trkpt lat="41.3606602" lon="1.3995862"><ele>443.25</ele><time>2026-04-05T10:32:56.8Z</time></trkpt><trkpt lat="41.3607746" lon="1.3996617"><ele>444.5</ele><time>2026-04-05T10:32:57.8Z</time></trkpt><trkpt lat="41.3609022" lon="1.3997073"><ele>445.75</ele><time>2026-04-05T10:32:58.799Z</time></trkpt><trkpt lat="41.3610359" lon="1.3997175"><ele>447.0</ele><time>2026-04-05T10:32:59.8Z</time></trkpt><trkpt lat="41.3611668" lon="1.399738"><ele>447.0</ele><time>2026-04-05T10:33:00.799Z</time></trkpt><trkpt lat="41.361276" lon="1.3998043"><ele>447.0</ele><time>2026-04-05T10:33:01.799Z</time></trkpt><trkpt lat="41.3613751" lon="1.3999153"><ele>447.0</ele><time>2026-04-05T10:33:02.799Z</time></trkpt><trkpt lat="41.3614622" lon="1.4000572"><ele>447.0</ele><time>2026-04-05T10:33:03.799Z</time></trkpt><trkpt lat="41.3615458" lon="1.4002045"><ele>448.5</ele><time>2026-04-05T10:33:04.8Z</time></trkpt><trkpt lat="41.3616255" lon="1.4003459"><ele>450.0</ele><time>2026-04-05T10:33:05.799Z</time></trkpt><trkpt lat="41.3617024" lon="1.4004789"><ele>451.5</ele><time>2026-04-05T10:33:06.8Z</time></trkpt><trkpt lat="41.3617683" lon="1.4005912"><ele>453.0</ele><time>2026-04-05T10:33:07.8Z</time></trkpt><trkpt lat="41.3618281" lon="1.4007039"><ele>453.4</ele><time>2026-04-05T10:33:08.799Z</time></trkpt><trkpt lat="41.3618875" lon="1.4008184"><ele>453.79999999999995</ele><time>2026-04-05T10:33:09.8Z</time></trkpt><trkpt lat="41.3619482" lon="1.4009306"><ele>454.2</ele><time>2026-04-05T10:33:10.799Z</time></trkpt><trkpt lat="41.3620127" lon="1.4010412"><ele>454.6</ele><time>2026-04-05T10:33:11.799Z</time></trkpt><trkpt lat="41.3620704" lon="1.4011493"><ele>455.0</ele><time>2026-04-05T10:33:12.799Z</time></trkpt><trkpt lat="41.3621322" lon="1.4012535"><ele>455.8</ele><time>2026-04-05T10:33:13.8Z</time></trkpt><trkpt lat="41.3621912" lon="1.4013529"><ele>456.6</ele><time>2026-04-05T10:33:14.799Z</time></trkpt><trkpt lat="41.3622515" lon="1.4014529"><ele>457.4</ele><time>2026-04-05T10:33:15.799Z</time></trkpt><trkpt lat="41.3623137" lon="1.4015512"><ele>458.2</ele><time>2026-04-05T10:33:16.8Z</time></trkpt><trkpt lat="41.362386" lon="1.4016545"><ele>459.0</ele><time>2026-04-05T10:33:17.799Z</time></trkpt><trkpt lat="41.3624618" lon="1.4017543"><ele>459.2</ele><time>2026-04-05T10:33:18.8Z</time></trkpt><trkpt lat="41.3625392" lon="1.4018504"><ele>459.4</ele><time>2026-04-05T10:33:19.8Z</time></trkpt><trkpt lat="41.3626149" lon="1.401945"><ele>459.6</ele><time>2026-04-05T10:33:20.8Z</time></trkpt><trkpt lat="41.3626904" lon="1.4020384"><ele>459.8</ele><time>2026-04-05T10:33:21.799Z</time></trkpt><trkpt lat="41.3627689" lon="1.4021352"><ele>460.0</ele><time>2026-04-05T10:33:22.799Z</time></trkpt><trkpt lat="41.362851" lon="1.4022346"><ele>460.75</ele><time>2026-04-05T10:33:23.799Z</time></trkpt><trkpt lat="41.3629395" lon="1.4023382"><ele>461.5</ele><time>2026-04-05T10:33:24.799Z</time></trkpt><trkpt lat="41.3630248" lon="1.4024413"><ele>462.25</ele><time>2026-04-05T10:33:25.8Z</time></trkpt><trkpt lat="41.3631102" lon="1.4025429"><ele>463.0</ele><time>2026-04-05T10:33:26.799Z</time></trkpt><trkpt lat="41.3631983" lon="1.4026473"><ele>463.5</ele><time>2026-04-05T10:33:27.8Z</time></trkpt><trkpt lat="41.3632862" lon="1.4027528"><ele>464.0</ele><time>2026-04-05T10:33:28.8Z</time></trkpt><trkpt lat="41.3633737" lon="1.4028638"><ele>464.5</ele><time>2026-04-05T10:33:29.799Z</time></trkpt><trkpt lat="41.3634639" lon="1.4029777"><ele>465.0</ele><time>2026-04-05T10:33:30.799Z</time></trkpt><trkpt lat="41.3635521" lon="1.4030941"><ele>465.25</ele><time>2026-04-05T10:33:31.799Z</time></trkpt><trkpt lat="41.3636457" lon="1.4032149"><ele>465.5</ele><time>2026-04-05T10:33:32.799Z</time></trkpt><trkpt lat="41.363745" lon="1.403335"><ele>465.75</ele><time>2026-04-05T10:33:33.8Z</time></trkpt><trkpt lat="41.3638451" lon="1.4034601"><ele>466.0</ele><time>2026-04-05T10:33:34.8Z</time></trkpt><trkpt lat="41.3639499" lon="1.4035902"><ele>467.33333333333337</ele><time>2026-04-05T10:33:35.8Z</time></trkpt><trkpt lat="41.3640599" lon="1.4037278"><ele>468.66666666666663</ele><time>2026-04-05T10:33:36.8Z</time></trkpt><trkpt lat="41.3641792" lon="1.403876"><ele>470.0</ele><time>2026-04-05T10:33:37.799Z</time></trkpt><trkpt lat="41.3643089" lon="1.4040362"><ele>470.0</ele><time>2026-04-05T10:33:38.799Z</time></trkpt><trkpt lat="41.3644521" lon="1.4042102"><ele>470.0</ele><time>2026-04-05T10:33:39.799Z</time></trkpt><trkpt lat="41.3646019" lon="1.4043885"><ele>470.0</ele><time>2026-04-05T10:33:40.8Z</time></trkpt><trkpt lat="41.3647508" lon="1.4045696"><ele>470.66666666666663</ele><time>2026-04-05T10:33:41.8Z</time></trkpt><trkpt lat="41.3648983" lon="1.40475"><ele>471.33333333333337</ele><time>2026-04-05T10:33:42.799Z</time></trkpt><trkpt lat="41.3650412" lon="1.4049335"><ele>472.0</ele><time>2026-04-05T10:33:43.799Z</time></trkpt><trkpt lat="41.3651893" lon="1.4051201"><ele>472.0</ele><time>2026-04-05T10:33:44.799Z</time></trkpt><trkpt lat="41.365348" lon="1.4053253"><ele>472.0</ele><time>2026-04-05T10:33:45.8Z</time></trkpt><trkpt lat="41.3655093" lon="1.4055456"><ele>473.5</ele><time>2026-04-05T10:33:46.799Z</time></trkpt><trkpt lat="41.3656724" lon="1.4057592"><ele>475.0</ele><time>2026-04-05T10:33:47.799Z</time></trkpt><trkpt lat="41.3658381" lon="1.4059605"><ele>475.0</ele><time>2026-04-05T10:33:48.8Z</time></trkpt><trkpt lat="41.3660082" lon="1.4061439"><ele>475.0</ele><time>2026-04-05T10:33:49.799Z</time></trkpt><trkpt lat="41.3661844" lon="1.4063197"><ele>475.0</ele><time>2026-04-05T10:33:50.8Z</time></trkpt><trkpt lat="41.3663648" lon="1.4064889"><ele>476.33333333333337</ele><time>2026-04-05T10:33:51.799Z</time></trkpt><trkpt lat="41.3665329" lon="1.4066531"><ele>477.66666666666663</ele><time>2026-04-05T10:33:52.799Z</time></trkpt><trkpt lat="41.3667062" lon="1.4068135"><ele>479.0</ele><time>2026-04-05T10:33:53.8Z</time></trkpt><trkpt lat="41.3668805" lon="1.4069746"><ele>479.0</ele><time>2026-04-05T10:33:54.799Z</time></trkpt><trkpt lat="41.367048" lon="1.407127"><ele>479.0</ele><time>2026-04-05T10:33:55.8Z</time></trkpt><trkpt lat="41.3672053" lon="1.4072801"><ele>479.0</ele><time>2026-04-05T10:33:56.799Z</time></trkpt><trkpt lat="41.3673527" lon="1.4074359"><ele>479.3333333333333</ele><time>2026-04-05T10:33:57.799Z</time></trkpt><trkpt lat="41.3674903" lon="1.407597"><ele>479.66666666666663</ele><time>2026-04-05T10:33:58.799Z</time></trkpt><trkpt lat="41.3676159" lon="1.4077585"><ele>480.0</ele><time>2026-04-05T10:33:59.8Z</time></trkpt><trkpt lat="41.3677305" lon="1.4079248"><ele>478.0</ele><time>2026-04-05T10:34:00.8Z</time></trkpt><trkpt lat="41.3678222" lon="1.4081013"><ele>476.0</ele><time>2026-04-05T10:34:01.799Z</time></trkpt><trkpt lat="41.3678927" lon="1.4082941"><ele>474.0</ele><time>2026-04-05T10:34:02.799Z</time></trkpt><trkpt lat="41.3679473" lon="1.4084918"><ele>474.0</ele><time>2026-04-05T10:34:03.799Z</time></trkpt><trkpt lat="41.3679985" lon="1.4086775"><ele>474.0</ele><time>2026-04-05T10:34:04.8Z</time></trkpt><trkpt lat="41.3680529" lon="1.4088394"><ele>474.0</ele><time>2026-04-05T10:34:05.8Z</time></trkpt><trkpt lat="41.3681228" lon="1.4089805"><ele>474.0</ele><time>2026-04-05T10:34:06.8Z</time></trkpt><trkpt lat="41.3682213" lon="1.4090949"><ele>475.33333333333337</ele><time>2026-04-05T10:34:07.8Z</time></trkpt><trkpt lat="41.3683482" lon="1.4091885"><ele>476.6666666666667</ele><time>2026-04-05T10:34:08.8Z</time></trkpt><trkpt lat="41.3684947" lon="1.4092616"><ele>478.0</ele><time>2026-04-05T10:34:09.8Z</time></trkpt><trkpt lat="41.3686495" lon="1.4093102"><ele>478.0</ele><time>2026-04-05T10:34:10.8Z</time></trkpt><trkpt lat="41.3687994" lon="1.409333"><ele>478.0</ele><time>2026-04-05T10:34:11.799Z</time></trkpt><trkpt lat="41.3689477" lon="1.4093403"><ele>478.0</ele><time>2026-04-05T10:34:12.799Z</time></trkpt><trkpt lat="41.369083" lon="1.4093459"><ele>478.0</ele><time>2026-04-05T10:34:13.8Z</time></trkpt><trkpt lat="41.3692068" lon="1.409361"><ele>477.79999999999995</ele><time>2026-04-05T10:34:14.8Z</time></trkpt><trkpt lat="41.3692923" lon="1.4094133"><ele>477.59999999999997</ele><time>2026-04-05T10:34:15.8Z</time></trkpt><trkpt lat="41.3693616" lon="1.4094874"><ele>477.40000000000003</ele><time>2026-04-05T10:34:16.8Z</time></trkpt><trkpt lat="41.3694066" lon="1.409571"><ele>477.20000000000005</ele><time>2026-04-05T10:34:17.799Z</time></trkpt><trkpt lat="41.3694042" lon="1.4096934"><ele>477.0</ele><time>2026-04-05T10:34:18.799Z</time></trkpt><trkpt lat="41.3693783" lon="1.4098244"><ele>477.0</ele><time>2026-04-05T10:34:19.8Z</time></trkpt><trkpt lat="41.3693189" lon="1.409946"><ele>477.0</ele><time>2026-04-05T10:34:20.799Z</time></trkpt><trkpt lat="41.3692306" lon="1.4100589"><ele>477.0</ele><time>2026-04-05T10:34:21.799Z</time></trkpt><trkpt lat="41.3691337" lon="1.4101731"><ele>477.0</ele><time>2026-04-05T10:34:22.8Z</time></trkpt><trkpt lat="41.3690499" lon="1.4102994"><ele>477.0</ele><time>2026-04-05T10:34:23.799Z</time></trkpt><trkpt lat="41.3689568" lon="1.4104222"><ele>477.0</ele><time>2026-04-05T10:34:24.799Z</time></trkpt><trkpt lat="41.3688764" lon="1.4105633"><ele>477.0</ele><time>2026-04-05T10:34:25.8Z</time></trkpt><trkpt lat="41.3688164" lon="1.4107251"><ele>477.0</ele><time>2026-04-05T10:34:26.799Z</time></trkpt><trkpt lat="41.3687609" lon="1.4109269"><ele>477.0</ele><time>2026-04-05T10:34:27.799Z</time></trkpt><trkpt lat="41.3687237" lon="1.4111048"><ele>477.0</ele><time>2026-04-05T10:34:28.799Z</time></trkpt><trkpt lat="41.3687163" lon="1.4112805"><ele>477.0</ele><time>2026-04-05T10:34:29.8Z</time></trkpt><trkpt lat="41.3687421" lon="1.4114566"><ele>477.0</ele><time>2026-04-05T10:34:30.799Z</time></trkpt><trkpt lat="41.3687642" lon="1.4116481"><ele>477.0</ele><time>2026-04-05T10:34:31.799Z</time></trkpt><trkpt lat="41.3687536" lon="1.4118444"><ele>477.0</ele><time>2026-04-05T10:34:32.8Z</time></trkpt><trkpt lat="41.3687136" lon="1.4120521"><ele>477.0</ele><time>2026-04-05T10:34:33.799Z</time></trkpt><trkpt lat="41.3686824" lon="1.4122705"><ele>478.66666666666663</ele><time>2026-04-05T10:34:34.799Z</time></trkpt><trkpt lat="41.3686755" lon="1.4124991"><ele>480.3333333333333</ele><time>2026-04-05T10:34:35.799Z</time></trkpt><trkpt lat="41.3686792" lon="1.4127333"><ele>482.0</ele><time>2026-04-05T10:34:36.8Z</time></trkpt><trkpt lat="41.3686865" lon="1.4129604"><ele>482.66666666666663</ele><time>2026-04-05T10:34:37.8Z</time></trkpt><trkpt lat="41.368698" lon="1.4131822"><ele>483.33333333333337</ele><time>2026-04-05T10:34:38.8Z</time></trkpt><trkpt lat="41.3687278" lon="1.4133998"><ele>484.0</ele><time>2026-04-05T10:34:39.799Z</time></trkpt><trkpt lat="41.368782" lon="1.4136034"><ele>484.0</ele><time>2026-04-05T10:34:40.8Z</time></trkpt><trkpt lat="41.368844" lon="1.4137994"><ele>484.0</ele><time>2026-04-05T10:34:41.799Z</time></trkpt><trkpt lat="41.3688886" lon="1.413994"><ele>484.0</ele><time>2026-04-05T10:34:42.799Z</time></trkpt><trkpt lat="41.3688992" lon="1.414186"><ele>485.0</ele><time>2026-04-05T10:34:43.8Z</time></trkpt><trkpt lat="41.3688783" lon="1.4143616"><ele>486.0</ele><time>2026-04-05T10:34:44.8Z</time></trkpt><trkpt lat="41.3688482" lon="1.4145337"><ele>487.0</ele><time>2026-04-05T10:34:45.799Z</time></trkpt><trkpt lat="41.3688568" lon="1.4146977"><ele>488.0</ele><time>2026-04-05T10:34:46.799Z</time></trkpt><trkpt lat="41.3689093" lon="1.4148673"><ele>490.5</ele><time>2026-04-05T10:34:47.799Z</time></trkpt><trkpt lat="41.3689842" lon="1.4150409"><ele>493.0</ele><time>2026-04-05T10:34:48.8Z</time></trkpt><trkpt lat="41.3690377" lon="1.4152216"><ele>495.5</ele><time>2026-04-05T10:34:49.799Z</time></trkpt><trkpt lat="41.3690569" lon="1.4154241"><ele>498.0</ele><time>2026-04-05T10:34:50.799Z</time></trkpt><trkpt lat="41.3690417" lon="1.4156358"><ele>499.33333333333337</ele><time>2026-04-05T10:34:51.799Z</time></trkpt><trkpt lat="41.3690267" lon="1.4158609"><ele>500.6666666666667</ele><time>2026-04-05T10:34:52.799Z</time></trkpt><trkpt lat="41.3690306" lon="1.416094"><ele>502.0</ele><time>2026-04-05T10:34:53.8Z</time></trkpt><trkpt lat="41.3690424" lon="1.416336"><ele>502.6666666666667</ele><time>2026-04-05T10:34:54.799Z</time></trkpt><trkpt lat="41.3690552" lon="1.4165809"><ele>503.33333333333337</ele><time>2026-04-05T10:34:55.799Z</time></trkpt><trkpt lat="41.3690704" lon="1.4168284"><ele>504.0</ele><time>2026-04-05T10:34:56.8Z</time></trkpt><trkpt lat="41.3690916" lon="1.4170715"><ele>505.33333333333337</ele><time>2026-04-05T10:34:57.799Z</time></trkpt><trkpt lat="41.3691136" lon="1.4173136"><ele>506.6666666666667</ele><time>2026-04-05T10:34:58.8Z</time></trkpt><trkpt lat="41.3691347" lon="1.4175474"><ele>508.0</ele><time>2026-04-05T10:34:59.799Z</time></trkpt><trkpt lat="41.3691404" lon="1.4177707"><ele>508.0</ele><time>2026-04-05T10:35:00.8Z</time></trkpt><trkpt lat="41.3691284" lon="1.4179848"><ele>508.0</ele><time>2026-04-05T10:35:01.799Z</time></trkpt><trkpt lat="41.3691386" lon="1.4181845"><ele>508.0</ele><time>2026-04-05T10:35:02.799Z</time></trkpt><trkpt lat="41.3691673" lon="1.4183837"><ele>508.75</ele><time>2026-04-05T10:35:03.8Z</time></trkpt><trkpt lat="41.3692082" lon="1.4185629"><ele>509.5</ele><time>2026-04-05T10:35:04.8Z</time></trkpt><trkpt lat="41.3692147" lon="1.4187446"><ele>510.25</ele><time>2026-04-05T10:35:05.799Z</time></trkpt><trkpt lat="41.3692185" lon="1.4189243"><ele>511.0</ele><time>2026-04-05T10:35:06.799Z</time></trkpt><trkpt lat="41.3692525" lon="1.4190749"><ele>511.8</ele><time>2026-04-05T10:35:07.799Z</time></trkpt><trkpt lat="41.3692735" lon="1.4192187"><ele>512.6</ele><time>2026-04-05T10:35:08.8Z</time></trkpt><trkpt lat="41.3692609" lon="1.419349"><ele>513.4</ele><time>2026-04-05T10:35:09.8Z</time></trkpt><trkpt lat="41.3692039" lon="1.419466"><ele>514.2</ele><time>2026-04-05T10:35:10.799Z</time></trkpt><trkpt lat="41.3691181" lon="1.4195872"><ele>515.0</ele><time>2026-04-05T10:35:11.799Z</time></trkpt><trkpt lat="41.3690354" lon="1.4197193"><ele>517.25</ele><time>2026-04-05T10:35:12.8Z</time></trkpt><trkpt lat="41.3689711" lon="1.4198674"><ele>519.5</ele><time>2026-04-05T10:35:13.8Z</time></trkpt><trkpt lat="41.3689229" lon="1.420022"><ele>521.75</ele><time>2026-04-05T10:35:14.8Z</time></trkpt><trkpt lat="41.3689008" lon="1.4201791"><ele>524.0</ele><time>2026-04-05T10:35:15.8Z</time></trkpt><trkpt lat="41.3689223" lon="1.4203165"><ele>524.0</ele><time>2026-04-05T10:35:16.799Z</time></trkpt><trkpt lat="41.3689837" lon="1.4204316"><ele>524.0</ele><time>2026-04-05T10:35:17.799Z</time></trkpt><trkpt lat="41.3690778" lon="1.4205093"><ele>524.0</ele><time>2026-04-05T10:35:18.799Z</time></trkpt><trkpt lat="41.3691903" lon="1.4205694"><ele>524.0</ele><time>2026-04-05T10:35:19.8Z</time></trkpt><trkpt lat="41.3693028" lon="1.4206366"><ele>522.75</ele><time>2026-04-05T10:35:20.8Z</time></trkpt><trkpt lat="41.3693987" lon="1.4207331"><ele>521.5</ele><time>2026-04-05T10:35:21.8Z</time></trkpt><trkpt lat="41.3694644" lon="1.4208731"><ele>520.25</ele><time>2026-04-05T10:35:22.8Z</time></trkpt><trkpt lat="41.3695251" lon="1.4210203"><ele>519.0</ele><time>2026-04-05T10:35:23.799Z</time></trkpt><trkpt lat="41.3696056" lon="1.4211567"><ele>524.0</ele><time>2026-04-05T10:35:24.799Z</time></trkpt><trkpt lat="41.3697135" lon="1.4213006"><ele>529.0</ele><time>2026-04-05T10:35:25.8Z</time></trkpt><trkpt lat="41.3698325" lon="1.4214588"><ele>534.0</ele><time>2026-04-05T10:35:26.799Z</time></trkpt><trkpt lat="41.3699495" lon="1.4216105"><ele>534.0</ele><time>2026-04-05T10:35:27.799Z</time></trkpt><trkpt lat="41.3700659" lon="1.4217463"><ele>534.0</ele><time>2026-04-05T10:35:28.799Z</time></trkpt><trkpt lat="41.3701821" lon="1.4218492"><ele>534.0</ele><time>2026-04-05T10:35:29.8Z</time></trkpt><trkpt lat="41.3702866" lon="1.4219505"><ele>534.0</ele><time>2026-04-05T10:35:30.8Z</time></trkpt><trkpt lat="41.3703628" lon="1.4220611"><ele>534.0</ele><time>2026-04-05T10:35:31.8Z</time></trkpt><trkpt lat="41.370415" lon="1.422186"><ele>534.0</ele><time>2026-04-05T10:35:32.8Z</time></trkpt><trkpt lat="41.3704561" lon="1.4223164"><ele>534.0</ele><time>2026-04-05T10:35:33.799Z</time></trkpt><trkpt lat="41.3704785" lon="1.4224542"><ele>534.0</ele><time>2026-04-05T10:35:34.8Z</time></trkpt><trkpt lat="41.3704712" lon="1.4225897"><ele>534.0</ele><time>2026-04-05T10:35:35.8Z</time></trkpt><trkpt lat="41.3704253" lon="1.4227028"><ele>534.0</ele><time>2026-04-05T10:35:36.8Z</time></trkpt><trkpt lat="41.3703394" lon="1.4227843"><ele>534.0</ele><time>2026-04-05T10:35:37.8Z</time></trkpt><trkpt lat="41.3702293" lon="1.4228291"><ele>534.0</ele><time>2026-04-05T10:35:38.799Z</time></trkpt><trkpt lat="41.3701071" lon="1.422833"><ele>534.0</ele><time>2026-04-05T10:35:39.799Z</time></trkpt><trkpt lat="41.369983" lon="1.42285"><ele>534.0</ele><time>2026-04-05T10:35:40.799Z</time></trkpt><trkpt lat="41.3698672" lon="1.4229068"><ele>534.0</ele><time>2026-04-05T10:35:41.799Z</time></trkpt><trkpt lat="41.3697826" lon="1.4229853"><ele>534.0</ele><time>2026-04-05T10:35:42.8Z</time></trkpt><trkpt lat="41.3697271" lon="1.4231308"><ele>534.0</ele><time>2026-04-05T10:35:43.799Z</time></trkpt><trkpt lat="41.3697069" lon="1.4233"><ele>537.0</ele><time>2026-04-05T10:35:44.8Z</time></trkpt><trkpt lat="41.3697244" lon="1.4234793"><ele>540.0</ele><time>2026-04-05T10:35:45.8Z</time></trkpt><trkpt lat="41.3697617" lon="1.4236701"><ele>543.0</ele><time>2026-04-05T10:35:46.8Z</time></trkpt><trkpt lat="41.3698114" lon="1.4238566"><ele>546.0</ele><time>2026-04-05T10:35:47.799Z</time></trkpt><trkpt lat="41.369871" lon="1.4240554"><ele>546.6666666666666</ele><time>2026-04-05T10:35:48.799Z</time></trkpt><trkpt lat="41.369931" lon="1.4242633"><ele>547.3333333333333</ele><time>2026-04-05T10:35:49.8Z</time></trkpt><trkpt lat="41.3699932" lon="1.4244541"><ele>548.0</ele><time>2026-04-05T10:35:50.799Z</time></trkpt><trkpt lat="41.3700766" lon="1.4246307"><ele>546.3333333333333</ele><time>2026-04-05T10:35:51.799Z</time></trkpt><trkpt lat="41.3701838" lon="1.4247981"><ele>544.6666666666666</ele><time>2026-04-05T10:35:52.799Z</time></trkpt><trkpt lat="41.3702913" lon="1.4249469"><ele>543.0</ele><time>2026-04-05T10:35:53.8Z</time></trkpt><trkpt lat="41.370386" lon="1.4250946"><ele>543.0</ele><time>2026-04-05T10:35:54.799Z</time></trkpt><trkpt lat="41.3704448" lon="1.4252313"><ele>543.0</ele><time>2026-04-05T10:35:55.8Z</time></trkpt><trkpt lat="41.3704613" lon="1.4253737"><ele>543.0</ele><time>2026-04-05T10:35:56.8Z</time></trkpt><trkpt lat="41.3704349" lon="1.425521"><ele>543.0</ele><time>2026-04-05T10:35:57.8Z</time></trkpt><trkpt lat="41.370383" lon="1.4256676"><ele>544.0</ele><time>2026-04-05T10:35:58.8Z</time></trkpt><trkpt lat="41.3703344" lon="1.4258296"><ele>545.0</ele><time>2026-04-05T10:35:59.8Z</time></trkpt><trkpt lat="41.3703176" lon="1.4259884"><ele>546.0</ele><time>2026-04-05T10:36:00.8Z</time></trkpt><trkpt lat="41.3703184" lon="1.4261306"><ele>547.0</ele><time>2026-04-05T10:36:01.8Z</time></trkpt><trkpt lat="41.3703154" lon="1.4262778"><ele>548.8000000000001</ele><time>2026-04-05T10:36:02.799Z</time></trkpt><trkpt lat="41.3702579" lon="1.4263807"><ele>550.6</ele><time>2026-04-05T10:36:03.799Z</time></trkpt><trkpt lat="41.370197" lon="1.426504"><ele>552.4000000000001</ele><time>2026-04-05T10:36:04.8Z</time></trkpt><trkpt lat="41.3700805" lon="1.4265188"><ele>554.2</ele><time>2026-04-05T10:36:05.799Z</time></trkpt><trkpt lat="41.3699924" lon="1.4265786"><ele>556.0</ele><time>2026-04-05T10:36:06.799Z</time></trkpt><trkpt lat="41.369928" lon="1.426664"><ele>556.0</ele><time>2026-04-05T10:36:07.8Z</time></trkpt><trkpt lat="41.369913" lon="1.4268005"><ele>556.0</ele><time>2026-04-05T10:36:08.799Z</time></trkpt><trkpt lat="41.3699251" lon="1.4269542"><ele>556.0</ele><time>2026-04-05T10:36:09.799Z</time></trkpt><trkpt lat="41.3699746" lon="1.4271246"><ele>556.0</ele><time>2026-04-05T10:36:10.799Z</time></trkpt><trkpt lat="41.3700432" lon="1.4272935"><ele>556.0</ele><time>2026-04-05T10:36:11.8Z</time></trkpt><trkpt lat="41.3701303" lon="1.427454"><ele>556.0</ele><time>2026-04-05T10:36:12.8Z</time></trkpt><trkpt lat="41.370224" lon="1.4276061"><ele>556.0</ele><time>2026-04-05T10:36:13.8Z</time></trkpt><trkpt lat="41.3703151" lon="1.4277424"><ele>556.0</ele><time>2026-04-05T10:36:14.8Z</time></trkpt><trkpt lat="41.3703805" lon="1.4278782"><ele>555.5</ele><time>2026-04-05T10:36:15.799Z</time></trkpt><trkpt lat="41.3704155" lon="1.4280122"><ele>555.0</ele><time>2026-04-05T10:36:16.799Z</time></trkpt><trkpt lat="41.3704048" lon="1.4281617"><ele>554.5</ele><time>2026-04-05T10:36:17.799Z</time></trkpt><trkpt lat="41.3703887" lon="1.4283218"><ele>554.0</ele><time>2026-04-05T10:36:18.799Z</time></trkpt><trkpt lat="41.3703991" lon="1.4284929"><ele>554.0</ele><time>2026-04-05T10:36:19.799Z</time></trkpt><trkpt lat="41.3704342" lon="1.4286494"><ele>554.0</ele><time>2026-04-05T10:36:20.799Z</time></trkpt><trkpt lat="41.3704352" lon="1.4288022"><ele>554.0</ele><time>2026-04-05T10:36:21.8Z</time></trkpt><trkpt lat="41.3703968" lon="1.4289605"><ele>554.0</ele><time>2026-04-05T10:36:22.799Z</time></trkpt><trkpt lat="41.3703309" lon="1.4291077"><ele>554.5</ele><time>2026-04-05T10:36:23.8Z</time></trkpt><trkpt lat="41.3702667" lon="1.4292517"><ele>555.0</ele><time>2026-04-05T10:36:24.8Z</time></trkpt><trkpt lat="41.3702402" lon="1.4293937"><ele>555.5</ele><time>2026-04-05T10:36:25.8Z</time></trkpt><trkpt lat="41.3702703" lon="1.4295324"><ele>556.0</ele><time>2026-04-05T10:36:26.8Z</time></trkpt><trkpt lat="41.3703333" lon="1.4296749"><ele>556.0</ele><time>2026-04-05T10:36:27.8Z</time></trkpt><trkpt lat="41.3703975" lon="1.4298174"><ele>556.0</ele><time>2026-04-05T10:36:28.799Z</time></trkpt><trkpt lat="41.3704746" lon="1.4299426"><ele>556.0</ele><time>2026-04-05T10:36:29.799Z</time></trkpt><trkpt lat="41.3706166" lon="1.4299894"><ele>556.0</ele><time>2026-04-05T10:36:30.799Z</time></trkpt><trkpt lat="41.3707549" lon="1.4300385"><ele>562.0</ele><time>2026-04-05T10:36:31.799Z</time></trkpt><trkpt lat="41.3708922" lon="1.4300995"><ele>568.0</ele><time>2026-04-05T10:36:32.8Z</time></trkpt><trkpt lat="41.3710296" lon="1.4301721"><ele>574.0</ele><time>2026-04-05T10:36:33.799Z</time></trkpt><trkpt lat="41.3711674" lon="1.4302456"><ele>580.0</ele><time>2026-04-05T10:36:34.8Z</time></trkpt><trkpt lat="41.3712924" lon="1.4303117"><ele>581.5</ele><time>2026-04-05T10:36:35.8Z</time></trkpt><trkpt lat="41.3714029" lon="1.4303498"><ele>583.0</ele><time>2026-04-05T10:36:36.8Z</time></trkpt><trkpt lat="41.3715115" lon="1.4303464"><ele>584.5</ele><time>2026-04-05T10:36:37.799Z</time></trkpt><trkpt lat="41.371613" lon="1.4302822"><ele>586.0</ele><time>2026-04-05T10:36:38.799Z</time></trkpt><trkpt lat="41.3717051" lon="1.4301773"><ele>586.0</ele><time>2026-04-05T10:36:39.799Z</time></trkpt><trkpt lat="41.3717967" lon="1.430058"><ele>586.0</ele><time>2026-04-05T10:36:40.8Z</time></trkpt><trkpt lat="41.3718482" lon="1.4298575"><ele>586.0</ele><time>2026-04-05T10:36:41.8Z</time></trkpt><trkpt lat="41.3719045" lon="1.4296754"><ele>586.0</ele><time>2026-04-05T10:36:42.8Z</time></trkpt><trkpt lat="41.371967" lon="1.4294817"><ele>591.0</ele><time>2026-04-05T10:36:43.8Z</time></trkpt><trkpt lat="41.3720372" lon="1.4292681"><ele>596.0</ele><time>2026-04-05T10:36:44.8Z</time></trkpt><trkpt lat="41.3721057" lon="1.4290456"><ele>601.0</ele><time>2026-04-05T10:36:45.8Z</time></trkpt><trkpt lat="41.37217" lon="1.4288371"><ele>599.75</ele><time>2026-04-05T10:36:46.799Z</time></trkpt><trkpt lat="41.3722304" lon="1.4286485"><ele>598.5</ele><time>2026-04-05T10:36:47.799Z</time></trkpt><trkpt lat="41.3722977" lon="1.4284783"><ele>597.25</ele><time>2026-04-05T10:36:48.8Z</time></trkpt><trkpt lat="41.3723652" lon="1.4283356"><ele>596.0</ele><time>2026-04-05T10:36:49.8Z</time></trkpt><trkpt lat="41.372446" lon="1.4282315"><ele>596.0</ele><time>2026-04-05T10:36:50.8Z</time></trkpt><trkpt lat="41.3725466" lon="1.4281704"><ele>596.0</ele><time>2026-04-05T10:36:51.799Z</time></trkpt><trkpt lat="41.3726598" lon="1.4281538"><ele>596.0</ele><time>2026-04-05T10:36:52.8Z</time></trkpt><trkpt lat="41.3727703" lon="1.4281946"><ele>596.0</ele><time>2026-04-05T10:36:53.799Z</time></trkpt><trkpt lat="41.3728633" lon="1.4282771"><ele>596.0</ele><time>2026-04-05T10:36:54.8Z</time></trkpt><trkpt lat="41.3729572" lon="1.428344"><ele>596.0</ele><time>2026-04-05T10:36:55.8Z</time></trkpt><trkpt lat="41.3730782" lon="1.4283731"><ele>596.0</ele><time>2026-04-05T10:36:56.8Z</time></trkpt><trkpt lat="41.3732099" lon="1.4283905"><ele>596.0</ele><time>2026-04-05T10:36:57.8Z</time></trkpt><trkpt lat="41.3733387" lon="1.4284143"><ele>596.5</ele><time>2026-04-05T10:36:58.799Z</time></trkpt><trkpt lat="41.373458" lon="1.4284575"><ele>597.0</ele><time>2026-04-05T10:36:59.8Z</time></trkpt><trkpt lat="41.3735661" lon="1.4285031"><ele>597.5</ele><time>2026-04-05T10:37:00.799Z</time></trkpt><trkpt lat="41.3736603" lon="1.4285757"><ele>598.0</ele><time>2026-04-05T10:37:01.8Z</time></trkpt><trkpt lat="41.3737499" lon="1.4286601"><ele>597.75</ele><time>2026-04-05T10:37:02.799Z</time></trkpt><trkpt lat="41.3738556" lon="1.4286835"><ele>597.5</ele><time>2026-04-05T10:37:03.799Z</time></trkpt><trkpt lat="41.3739687" lon="1.4286523"><ele>597.25</ele><time>2026-04-05T10:37:04.8Z</time></trkpt><trkpt lat="41.3740798" lon="1.4286007"><ele>597.0</ele><time>2026-04-05T10:37:05.8Z</time></trkpt><trkpt lat="41.3742125" lon="1.4285658"><ele>597.0</ele><time>2026-04-05T10:37:06.799Z</time></trkpt><trkpt lat="41.3743494" lon="1.4285681"><ele>597.0</ele><time>2026-04-05T10:37:07.799Z</time></trkpt><trkpt lat="41.3744795" lon="1.4285677"><ele>597.0</ele><time>2026-04-05T10:37:08.8Z</time></trkpt><trkpt lat="41.3745992" lon="1.4285853"><ele>597.0</ele><time>2026-04-05T10:37:09.8Z</time></trkpt><trkpt lat="41.3747094" lon="1.4286589"><ele>599.0</ele><time>2026-04-05T10:37:10.799Z</time></trkpt><trkpt lat="41.3748208" lon="1.4287318"><ele>601.0</ele><time>2026-04-05T10:37:11.8Z</time></trkpt><trkpt lat="41.374935" lon="1.4287941"><ele>603.0</ele><time>2026-04-05T10:37:12.8Z</time></trkpt><trkpt lat="41.37504" lon="1.4287415"><ele>605.0</ele><time>2026-04-05T10:37:13.799Z</time></trkpt><trkpt lat="41.3751407" lon="1.428707"><ele>605.0</ele><time>2026-04-05T10:37:14.799Z</time></trkpt><trkpt lat="41.3752391" lon="1.4285747"><ele>605.0</ele><time>2026-04-05T10:37:15.799Z</time></trkpt><trkpt lat="41.3753424" lon="1.4284632"><ele>605.0</ele><time>2026-04-05T10:37:16.799Z</time></trkpt><trkpt lat="41.3754524" lon="1.4283774"><ele>605.0</ele><time>2026-04-05T10:37:17.799Z</time></trkpt><trkpt lat="41.3755673" lon="1.4283318"><ele>608.0</ele><time>2026-04-05T10:37:18.799Z</time></trkpt><trkpt lat="41.375688" lon="1.4283379"><ele>611.0</ele><time>2026-04-05T10:37:19.8Z</time></trkpt><trkpt lat="41.3758103" lon="1.4283866"><ele>614.0</ele><time>2026-04-05T10:37:20.799Z</time></trkpt><trkpt lat="41.3759408" lon="1.4284304"><ele>617.0</ele><time>2026-04-05T10:37:21.8Z</time></trkpt><trkpt lat="41.376082" lon="1.4284357"><ele>617.0</ele><time>2026-04-05T10:37:22.799Z</time></trkpt><trkpt lat="41.3762188" lon="1.4284013"><ele>617.0</ele><time>2026-04-05T10:37:23.8Z</time></trkpt><trkpt lat="41.3763513" lon="1.4283607"><ele>617.0</ele><time>2026-04-05T10:37:24.8Z</time></trkpt><trkpt lat="41.3764772" lon="1.4283444"><ele>617.0</ele><time>2026-04-05T10:37:25.799Z</time></trkpt><trkpt lat="41.3765984" lon="1.4283668"><ele>618.25</ele><time>2026-04-05T10:37:26.8Z</time></trkpt><trkpt lat="41.3767185" lon="1.428421"><ele>619.5</ele><time>2026-04-05T10:37:27.8Z</time></trkpt><trkpt lat="41.3768469" lon="1.4284586"><ele>620.75</ele><time>2026-04-05T10:37:28.8Z</time></trkpt><trkpt lat="41.3769819" lon="1.4284537"><ele>622.0</ele><time>2026-04-05T10:37:29.8Z</time></trkpt><trkpt lat="41.3771172" lon="1.4284373"><ele>623.25</ele><time>2026-04-05T10:37:30.8Z</time></trkpt><trkpt lat="41.3772348" lon="1.4283505"><ele>624.5</ele><time>2026-04-05T10:37:31.8Z</time></trkpt><trkpt lat="41.3773488" lon="1.4282682"><ele>625.75</ele><time>2026-04-05T10:37:32.799Z</time></trkpt><trkpt lat="41.3774488" lon="1.4281495"><ele>627.0</ele><time>2026-04-05T10:37:33.8Z</time></trkpt><trkpt lat="41.3774475" lon="1.4279434"><ele>627.0</ele><time>2026-04-05T10:37:34.799Z</time></trkpt><trkpt lat="41.3774852" lon="1.4277789"><ele>627.0</ele><time>2026-04-05T10:37:35.8Z</time></trkpt><trkpt lat="41.3775433" lon="1.4276413"><ele>627.0</ele><time>2026-04-05T10:37:36.799Z</time></trkpt><trkpt lat="41.3776331" lon="1.4275239"><ele>627.0</ele><time>2026-04-05T10:37:37.799Z</time></trkpt><trkpt lat="41.3777441" lon="1.4274177"><ele>627.0</ele><time>2026-04-05T10:37:38.8Z</time></trkpt><trkpt lat="41.3778704" lon="1.4273528"><ele>627.0</ele><time>2026-04-05T10:37:39.8Z</time></trkpt><trkpt lat="41.3780093" lon="1.4273156"><ele>627.0</ele><time>2026-04-05T10:37:40.8Z</time></trkpt><trkpt lat="41.3781515" lon="1.4273033"><ele>627.0</ele><time>2026-04-05T10:37:41.8Z</time></trkpt><trkpt lat="41.3782995" lon="1.4273018"><ele>629.75</ele><time>2026-04-05T10:37:42.8Z</time></trkpt><trkpt lat="41.3784461" lon="1.4272992"><ele>632.5</ele><time>2026-04-05T10:37:43.799Z</time></trkpt><trkpt lat="41.378591" lon="1.4273257"><ele>635.25</ele><time>2026-04-05T10:37:44.799Z</time></trkpt><trkpt lat="41.3787244" lon="1.4273706"><ele>638.0</ele><time>2026-04-05T10:37:45.799Z</time></trkpt><trkpt lat="41.3788329" lon="1.427428"><ele>637.0</ele><time>2026-04-05T10:37:46.799Z</time></trkpt><trkpt lat="41.3789283" lon="1.4275146"><ele>636.0</ele><time>2026-04-05T10:37:47.8Z</time></trkpt><trkpt lat="41.37901" lon="1.4276225"><ele>635.0</ele><time>2026-04-05T10:37:48.8Z</time></trkpt><trkpt lat="41.3790879" lon="1.4277291"><ele>634.0</ele><time>2026-04-05T10:37:49.8Z</time></trkpt><trkpt lat="41.3791637" lon="1.4278106"><ele>633.0</ele><time>2026-04-05T10:37:50.8Z</time></trkpt><trkpt lat="41.3792464" lon="1.4278514"><ele>633.0</ele><time>2026-04-05T10:37:51.8Z</time></trkpt><trkpt lat="41.3793462" lon="1.4278422"><ele>633.0</ele><time>2026-04-05T10:37:52.8Z</time></trkpt><trkpt lat="41.3794527" lon="1.4278057"><ele>633.0</ele><time>2026-04-05T10:37:53.8Z</time></trkpt><trkpt lat="41.3795705" lon="1.4277328"><ele>633.0</ele><time>2026-04-05T10:37:54.799Z</time></trkpt><trkpt lat="41.3796955" lon="1.4276557"><ele>635.5</ele><time>2026-04-05T10:37:55.799Z</time></trkpt><trkpt lat="41.3798096" lon="1.4275792"><ele>638.0</ele><time>2026-04-05T10:37:56.8Z</time></trkpt><trkpt lat="41.3799106" lon="1.4274996"><ele>640.5</ele><time>2026-04-05T10:37:57.799Z</time></trkpt><trkpt lat="41.3799901" lon="1.4273959"><ele>643.0</ele><time>2026-04-05T10:37:58.799Z</time></trkpt><trkpt lat="41.3800439" lon="1.4272547"><ele>640.5</ele><time>2026-04-05T10:37:59.8Z</time></trkpt><trkpt lat="41.3800742" lon="1.4270886"><ele>638.0</ele><time>2026-04-05T10:38:00.799Z</time></trkpt><trkpt lat="41.3800905" lon="1.4269188"><ele>635.5</ele><time>2026-04-05T10:38:01.799Z</time></trkpt><trkpt lat="41.3801197" lon="1.4267548"><ele>633.0</ele><time>2026-04-05T10:38:02.799Z</time></trkpt><trkpt lat="41.3801689" lon="1.4266208"><ele>633.0</ele><time>2026-04-05T10:38:03.8Z</time></trkpt><trkpt lat="41.3802572" lon="1.4265233"><ele>633.0</ele><time>2026-04-05T10:38:04.799Z</time></trkpt><trkpt lat="41.3803652" lon="1.4264568"><ele>633.0</ele><time>2026-04-05T10:38:05.8Z</time></trkpt><trkpt lat="41.3804943" lon="1.4264194"><ele>633.0</ele><time>2026-04-05T10:38:06.799Z</time></trkpt><trkpt lat="41.3806345" lon="1.4264065"><ele>635.75</ele><time>2026-04-05T10:38:07.8Z</time></trkpt><trkpt lat="41.3807711" lon="1.4264198"><ele>638.5</ele><time>2026-04-05T10:38:08.799Z</time></trkpt><trkpt lat="41.3809194" lon="1.4264537"><ele>641.25</ele><time>2026-04-05T10:38:09.799Z</time></trkpt><trkpt lat="41.3810701" lon="1.4264775"><ele>644.0</ele><time>2026-04-05T10:38:10.799Z</time></trkpt><trkpt lat="41.3812658" lon="1.4265109"><ele>644.6666666666666</ele><time>2026-04-05T10:38:11.799Z</time></trkpt><trkpt lat="41.3814404" lon="1.4265441"><ele>645.3333333333334</ele><time>2026-04-05T10:38:12.799Z</time></trkpt><trkpt lat="41.3815975" lon="1.4265789"><ele>646.0</ele><time>2026-04-05T10:38:13.799Z</time></trkpt><trkpt lat="41.3817408" lon="1.4266178"><ele>646.0</ele><time>2026-04-05T10:38:14.8Z</time></trkpt><trkpt lat="41.3818562" lon="1.4266661"><ele>646.0</ele><time>2026-04-05T10:38:15.799Z</time></trkpt><trkpt lat="41.3819454" lon="1.4267475"><ele>646.0</ele><time>2026-04-05T10:38:16.799Z</time></trkpt><trkpt lat="41.3820155" lon="1.4268778"><ele>646.0</ele><time>2026-04-05T10:38:17.8Z</time></trkpt><trkpt lat="41.3820776" lon="1.4270561"><ele>648.25</ele><time>2026-04-05T10:38:18.8Z</time></trkpt><trkpt lat="41.3821257" lon="1.4272492"><ele>650.5</ele><time>2026-04-05T10:38:19.799Z</time></trkpt><trkpt lat="41.3821703" lon="1.42743"><ele>652.75</ele><time>2026-04-05T10:38:20.799Z</time></trkpt><trkpt lat="41.3822177" lon="1.4275848"><ele>655.0</ele><time>2026-04-05T10:38:21.8Z</time></trkpt><trkpt lat="41.3822842" lon="1.4277043"><ele>655.0</ele><time>2026-04-05T10:38:22.8Z</time></trkpt><trkpt lat="41.3823537" lon="1.4278055"><ele>655.0</ele><time>2026-04-05T10:38:23.799Z</time></trkpt><trkpt lat="41.382435" lon="1.4278714"><ele>655.0</ele><time>2026-04-05T10:38:24.8Z</time></trkpt><trkpt lat="41.3825522" lon="1.427783"><ele>655.0</ele><time>2026-04-05T10:38:25.8Z</time></trkpt><trkpt lat="41.3826695" lon="1.4276935"><ele>655.0</ele><time>2026-04-05T10:38:26.799Z</time></trkpt><trkpt lat="41.3827911" lon="1.4275869"><ele>655.0</ele><time>2026-04-05T10:38:27.799Z</time></trkpt><trkpt lat="41.3829059" lon="1.4274836"><ele>655.0</ele><time>2026-04-05T10:38:28.8Z</time></trkpt><trkpt lat="41.3830094" lon="1.4273865"><ele>655.0</ele><time>2026-04-05T10:38:29.8Z</time></trkpt><trkpt lat="41.3831054" lon="1.4272938"><ele>653.6</ele><time>2026-04-05T10:38:30.8Z</time></trkpt><trkpt lat="41.3831956" lon="1.4272116"><ele>652.2</ele><time>2026-04-05T10:38:31.8Z</time></trkpt><trkpt lat="41.3832825" lon="1.4271363"><ele>650.8</ele><time>2026-04-05T10:38:32.799Z</time></trkpt><trkpt lat="41.3833783" lon="1.4270764"><ele>649.4</ele><time>2026-04-05T10:38:33.799Z</time></trkpt><trkpt lat="41.3834796" lon="1.4270351"><ele>648.0</ele><time>2026-04-05T10:38:34.799Z</time></trkpt><trkpt lat="41.3835972" lon="1.4270204"><ele>648.0</ele><time>2026-04-05T10:38:35.8Z</time></trkpt><trkpt lat="41.3837295" lon="1.4270406"><ele>648.0</ele><time>2026-04-05T10:38:36.799Z</time></trkpt><trkpt lat="41.3838789" lon="1.4270931"><ele>648.0</ele><time>2026-04-05T10:38:37.8Z</time></trkpt><trkpt lat="41.3840191" lon="1.42716"><ele>648.0</ele><time>2026-04-05T10:38:38.799Z</time></trkpt><trkpt lat="41.3841764" lon="1.4272361"><ele>656.0</ele><time>2026-04-05T10:38:39.799Z</time></trkpt><trkpt lat="41.3843388" lon="1.4273016"><ele>664.0</ele><time>2026-04-05T10:38:40.8Z</time></trkpt><trkpt lat="41.3844894" lon="1.4273815"><ele>672.0</ele><time>2026-04-05T10:38:41.8Z</time></trkpt><trkpt lat="41.3846313" lon="1.4274959"><ele>670.6666666666666</ele><time>2026-04-05T10:38:42.799Z</time></trkpt><trkpt lat="41.3847623" lon="1.4276186"><ele>669.3333333333333</ele><time>2026-04-05T10:38:43.799Z</time></trkpt><trkpt lat="41.3849041" lon="1.427793"><ele>668.0</ele><time>2026-04-05T10:38:44.799Z</time></trkpt><trkpt lat="41.3850339" lon="1.4279427"><ele>671.25</ele><time>2026-04-05T10:38:45.799Z</time></trkpt><trkpt lat="41.3851539" lon="1.428071"><ele>674.5</ele><time>2026-04-05T10:38:46.8Z</time></trkpt><trkpt lat="41.3852666" lon="1.4281612"><ele>677.75</ele><time>2026-04-05T10:38:47.8Z</time></trkpt><trkpt lat="41.3853789" lon="1.4282347"><ele>681.0</ele><time>2026-04-05T10:38:48.799Z</time></trkpt><trkpt lat="41.3854951" lon="1.4282147"><ele>679.8</ele><time>2026-04-05T10:38:49.8Z</time></trkpt><trkpt lat="41.3855958" lon="1.4282423"><ele>678.5999999999999</ele><time>2026-04-05T10:38:50.8Z</time></trkpt><trkpt lat="41.3856969" lon="1.4283111"><ele>677.4</ele><time>2026-04-05T10:38:51.799Z</time></trkpt><trkpt lat="41.3857651" lon="1.4284174"><ele>676.2</ele><time>2026-04-05T10:38:52.799Z</time></trkpt><trkpt lat="41.3858148" lon="1.4285584"><ele>675.0</ele><time>2026-04-05T10:38:53.799Z</time></trkpt><trkpt lat="41.3858708" lon="1.428738"><ele>677.75</ele><time>2026-04-05T10:38:54.8Z</time></trkpt><trkpt lat="41.3859281" lon="1.4289277"><ele>680.5</ele><time>2026-04-05T10:38:55.799Z</time></trkpt><trkpt lat="41.3859733" lon="1.4291138"><ele>683.25</ele><time>2026-04-05T10:38:56.8Z</time></trkpt><trkpt lat="41.3859963" lon="1.4292865"><ele>686.0</ele><time>2026-04-05T10:38:57.799Z</time></trkpt><trkpt lat="41.3860144" lon="1.4294407"><ele>686.0</ele><time>2026-04-05T10:38:58.8Z</time></trkpt><trkpt lat="41.3860524" lon="1.429569"><ele>686.0</ele><time>2026-04-05T10:38:59.799Z</time></trkpt><trkpt lat="41.3861167" lon="1.4296652"><ele>686.0</ele><time>2026-04-05T10:39:00.799Z</time></trkpt><trkpt lat="41.3861877" lon="1.429747"><ele>686.0</ele><time>2026-04-05T10:39:01.8Z</time></trkpt><trkpt lat="41.3863065" lon="1.4297442"><ele>686.0</ele><time>2026-04-05T10:39:02.8Z</time></trkpt><trkpt lat="41.3864194" lon="1.4297419"><ele>688.0</ele><time>2026-04-05T10:39:03.799Z</time></trkpt><trkpt lat="41.3865362" lon="1.4297398"><ele>690.0</ele><time>2026-04-05T10:39:04.8Z</time></trkpt><trkpt lat="41.3866524" lon="1.4297632"><ele>692.0</ele><time>2026-04-05T10:39:05.8Z</time></trkpt><trkpt lat="41.3867669" lon="1.4298172"><ele>694.0</ele><time>2026-04-05T10:39:06.8Z</time></trkpt><trkpt lat="41.3868764" lon="1.4299071"><ele>694.0</ele><time>2026-04-05T10:39:07.799Z</time></trkpt><trkpt lat="41.386977" lon="1.4300155"><ele>694.0</ele><time>2026-04-05T10:39:08.8Z</time></trkpt><trkpt lat="41.3870703" lon="1.4301407"><ele>694.0</ele><time>2026-04-05T10:39:09.799Z</time></trkpt><trkpt lat="41.3871473" lon="1.4302762"><ele>694.0</ele><time>2026-04-05T10:39:10.8Z</time></trkpt><trkpt lat="41.3872019" lon="1.4304305"><ele>694.75</ele><time>2026-04-05T10:39:11.8Z</time></trkpt><trkpt lat="41.3872286" lon="1.4305963"><ele>695.5</ele><time>2026-04-05T10:39:12.8Z</time></trkpt><trkpt lat="41.3872433" lon="1.4307756"><ele>696.25</ele><time>2026-04-05T10:39:13.799Z</time></trkpt><trkpt lat="41.3872849" lon="1.430933"><ele>697.0</ele><time>2026-04-05T10:39:14.799Z</time></trkpt><trkpt lat="41.3873553" lon="1.4310837"><ele>697.0</ele><time>2026-04-05T10:39:15.799Z</time></trkpt><trkpt lat="41.3874444" lon="1.4312362"><ele>697.0</ele><time>2026-04-05T10:39:16.8Z</time></trkpt><trkpt lat="41.3875402" lon="1.4313811"><ele>697.0</ele><time>2026-04-05T10:39:17.8Z</time></trkpt><trkpt lat="41.3876422" lon="1.4315426"><ele>697.0</ele><time>2026-04-05T10:39:18.8Z</time></trkpt><trkpt lat="41.3877566" lon="1.4317112"><ele>699.0</ele><time>2026-04-05T10:39:19.799Z</time></trkpt><trkpt lat="41.3878755" lon="1.4318939"><ele>701.0</ele><time>2026-04-05T10:39:20.8Z</time></trkpt><trkpt lat="41.3880036" lon="1.4320908"><ele>703.0</ele><time>2026-04-05T10:39:21.799Z</time></trkpt><trkpt lat="41.3881389" lon="1.432313"><ele>704.0</ele><time>2026-04-05T10:39:22.8Z</time></trkpt><trkpt lat="41.3882765" lon="1.4325298"><ele>705.0</ele><time>2026-04-05T10:39:23.8Z</time></trkpt><trkpt lat="41.3884058" lon="1.4327309"><ele>706.0</ele><time>2026-04-05T10:39:24.799Z</time></trkpt><trkpt lat="41.3885145" lon="1.4329011"><ele>706.25</ele><time>2026-04-05T10:39:25.8Z</time></trkpt><trkpt lat="41.3886152" lon="1.4330319"><ele>706.5</ele><time>2026-04-05T10:39:26.799Z</time></trkpt><trkpt lat="41.388723" lon="1.4331196"><ele>706.75</ele><time>2026-04-05T10:39:27.8Z</time></trkpt><trkpt lat="41.388854" lon="1.4331683"><ele>707.0</ele><time>2026-04-05T10:39:28.8Z</time></trkpt><trkpt lat="41.3889918" lon="1.4332126"><ele>707.0</ele><time>2026-04-05T10:39:29.799Z</time></trkpt><trkpt lat="41.3891847" lon="1.433174"><ele>707.0</ele><time>2026-04-05T10:39:30.799Z</time></trkpt><trkpt lat="41.389365" lon="1.4331549"><ele>707.0</ele><time>2026-04-05T10:39:31.799Z</time></trkpt><trkpt lat="41.3895438" lon="1.4331626"><ele>706.0</ele><time>2026-04-05T10:39:32.799Z</time></trkpt><trkpt lat="41.3897174" lon="1.4332008"><ele>705.0</ele><time>2026-04-05T10:39:33.8Z</time></trkpt><trkpt lat="41.3898901" lon="1.4332464"><ele>704.0</ele><time>2026-04-05T10:39:34.8Z</time></trkpt><trkpt lat="41.3900636" lon="1.4332777"><ele>704.0</ele><time>2026-04-05T10:39:35.8Z</time></trkpt><trkpt lat="41.3902289" lon="1.4333063"><ele>704.0</ele><time>2026-04-05T10:39:36.8Z</time></trkpt><trkpt lat="41.3903876" lon="1.4333545"><ele>704.0</ele><time>2026-04-05T10:39:37.799Z</time></trkpt><trkpt lat="41.3905428" lon="1.4334058"><ele>704.6666666666666</ele><time>2026-04-05T10:39:38.8Z</time></trkpt><trkpt lat="41.3906843" lon="1.4334722"><ele>705.3333333333334</ele><time>2026-04-05T10:39:39.8Z</time></trkpt><trkpt lat="41.3908193" lon="1.4335401"><ele>706.0</ele><time>2026-04-05T10:39:40.8Z</time></trkpt><trkpt lat="41.3909668" lon="1.4336046"><ele>706.0</ele><time>2026-04-05T10:39:41.8Z</time></trkpt><trkpt lat="41.3911288" lon="1.433671"><ele>706.0</ele><time>2026-04-05T10:39:42.8Z</time></trkpt><trkpt lat="41.391298" lon="1.4337573"><ele>706.0</ele><time>2026-04-05T10:39:43.799Z</time></trkpt><trkpt lat="41.3914678" lon="1.4338627"><ele>700.3333333333334</ele><time>2026-04-05T10:39:44.799Z</time></trkpt><trkpt lat="41.3916441" lon="1.4339725"><ele>694.6666666666666</ele><time>2026-04-05T10:39:45.799Z</time></trkpt><trkpt lat="41.3918148" lon="1.434073"><ele>689.0</ele><time>2026-04-05T10:39:46.799Z</time></trkpt><trkpt lat="41.3919836" lon="1.4341758"><ele>689.0</ele><time>2026-04-05T10:39:47.8Z</time></trkpt><trkpt lat="41.3921493" lon="1.4342773"><ele>689.0</ele><time>2026-04-05T10:39:48.8Z</time></trkpt><trkpt lat="41.3923121" lon="1.4343771"><ele>689.0</ele><time>2026-04-05T10:39:49.8Z</time></trkpt><trkpt lat="41.392471" lon="1.4344694"><ele>690.0</ele><time>2026-04-05T10:39:50.8Z</time></trkpt><trkpt lat="41.392627" lon="1.4345522"><ele>691.0</ele><time>2026-04-05T10:39:51.799Z</time></trkpt><trkpt lat="41.3927774" lon="1.4346224"><ele>692.0</ele><time>2026-04-05T10:39:52.8Z</time></trkpt><trkpt lat="41.3929193" lon="1.4346625"><ele>691.25</ele><time>2026-04-05T10:39:53.8Z</time></trkpt><trkpt lat="41.3930589" lon="1.4346627"><ele>690.5</ele><time>2026-04-05T10:39:54.799Z</time></trkpt><trkpt lat="41.3932074" lon="1.4346272"><ele>689.75</ele><time>2026-04-05T10:39:55.8Z</time></trkpt><trkpt lat="41.3933512" lon="1.4345801"><ele>689.0</ele><time>2026-04-05T10:39:56.8Z</time></trkpt><trkpt lat="41.3934905" lon="1.4345345"><ele>689.0</ele><time>2026-04-05T10:39:57.8Z</time></trkpt><trkpt lat="41.3936192" lon="1.4345144"><ele>689.0</ele><time>2026-04-05T10:39:58.799Z</time></trkpt><trkpt lat="41.3937449" lon="1.4345414"><ele>689.0</ele><time>2026-04-05T10:39:59.8Z</time></trkpt><trkpt lat="41.3938639" lon="1.4346122"><ele>689.0</ele><time>2026-04-05T10:40:00.8Z</time></trkpt><trkpt lat="41.393983" lon="1.4347062"><ele>685.25</ele><time>2026-04-05T10:40:01.8Z</time></trkpt><trkpt lat="41.3941072" lon="1.4348001"><ele>681.5</ele><time>2026-04-05T10:40:02.8Z</time></trkpt><trkpt lat="41.394235" lon="1.4348834"><ele>677.75</ele><time>2026-04-05T10:40:03.8Z</time></trkpt><trkpt lat="41.3943637" lon="1.4349588"><ele>674.0</ele><time>2026-04-05T10:40:04.799Z</time></trkpt><trkpt lat="41.3944789" lon="1.4350109"><ele>674.0</ele><time>2026-04-05T10:40:05.8Z</time></trkpt><trkpt lat="41.3945842" lon="1.4350333"><ele>674.0</ele><time>2026-04-05T10:40:06.799Z</time></trkpt><trkpt lat="41.394686" lon="1.4350143"><ele>674.0</ele><time>2026-04-05T10:40:07.799Z</time></trkpt><trkpt lat="41.3947841" lon="1.4349463"><ele>674.0</ele><time>2026-04-05T10:40:08.799Z</time></trkpt><trkpt lat="41.3948639" lon="1.4348498"><ele>674.0</ele><time>2026-04-05T10:40:09.8Z</time></trkpt><trkpt lat="41.3949344" lon="1.4347456"><ele>673.6</ele><time>2026-04-05T10:40:10.8Z</time></trkpt><trkpt lat="41.3950204" lon="1.4346792"><ele>673.2</ele><time>2026-04-05T10:40:11.799Z</time></trkpt><trkpt lat="41.3951067" lon="1.4346561"><ele>672.8000000000001</ele><time>2026-04-05T10:40:12.799Z</time></trkpt><trkpt lat="41.3951884" lon="1.4347092"><ele>672.4000000000001</ele><time>2026-04-05T10:40:13.799Z</time></trkpt><trkpt lat="41.3952474" lon="1.4348023"><ele>672.0</ele><time>2026-04-05T10:40:14.8Z</time></trkpt><trkpt lat="41.3952684" lon="1.4349216"><ele>672.0</ele><time>2026-04-05T10:40:15.8Z</time></trkpt><trkpt lat="41.395257" lon="1.4350693"><ele>672.0</ele><time>2026-04-05T10:40:16.8Z</time></trkpt><trkpt lat="41.3952376" lon="1.435243"><ele>672.0</ele><time>2026-04-05T10:40:17.8Z</time></trkpt><trkpt lat="41.3952271" lon="1.435433"><ele>672.0</ele><time>2026-04-05T10:40:18.8Z</time></trkpt><trkpt lat="41.3952397" lon="1.4356199"><ele>669.6666666666666</ele><time>2026-04-05T10:40:19.8Z</time></trkpt><trkpt lat="41.3952847" lon="1.4358216"><ele>667.3333333333333</ele><time>2026-04-05T10:40:20.8Z</time></trkpt><trkpt lat="41.3953591" lon="1.4360463"><ele>665.0</ele><time>2026-04-05T10:40:21.799Z</time></trkpt><trkpt lat="41.3954532" lon="1.4362943"><ele>664.6666666666666</ele><time>2026-04-05T10:40:22.799Z</time></trkpt><trkpt lat="41.3955461" lon="1.4365552"><ele>664.3333333333334</ele><time>2026-04-05T10:40:23.799Z</time></trkpt><trkpt lat="41.3956365" lon="1.4368041"><ele>664.0</ele><time>2026-04-05T10:40:24.799Z</time></trkpt><trkpt lat="41.3957201" lon="1.4370467"><ele>662.6666666666667</ele><time>2026-04-05T10:40:25.8Z</time></trkpt><trkpt lat="41.3957971" lon="1.4372752"><ele>661.3333333333334</ele><time>2026-04-05T10:40:26.8Z</time></trkpt><trkpt lat="41.3958658" lon="1.4374844"><ele>660.0</ele><time>2026-04-05T10:40:27.8Z</time></trkpt><trkpt lat="41.3959355" lon="1.4376825"><ele>660.0</ele><time>2026-04-05T10:40:28.799Z</time></trkpt><trkpt lat="41.3959932" lon="1.4378621"><ele>660.0</ele><time>2026-04-05T10:40:29.799Z</time></trkpt><trkpt lat="41.3960225" lon="1.4380381"><ele>660.0</ele><time>2026-04-05T10:40:30.799Z</time></trkpt><trkpt lat="41.3960259" lon="1.4382207"><ele>660.0</ele><time>2026-04-05T10:40:31.799Z</time></trkpt><trkpt lat="41.3960047" lon="1.4384042"><ele>658.6666666666666</ele><time>2026-04-05T10:40:32.799Z</time></trkpt><trkpt lat="41.3959776" lon="1.4386033"><ele>657.3333333333333</ele><time>2026-04-05T10:40:33.799Z</time></trkpt><trkpt lat="41.3959522" lon="1.4388098"><ele>656.0</ele><time>2026-04-05T10:40:34.8Z</time></trkpt><trkpt lat="41.3959244" lon="1.4390147"><ele>655.0</ele><time>2026-04-05T10:40:35.799Z</time></trkpt><trkpt lat="41.3959105" lon="1.4392248"><ele>654.0</ele><time>2026-04-05T10:40:36.799Z</time></trkpt><trkpt lat="41.3959192" lon="1.4394588"><ele>653.0</ele><time>2026-04-05T10:40:37.799Z</time></trkpt><trkpt lat="41.3959453" lon="1.4397261"><ele>651.6666666666666</ele><time>2026-04-05T10:40:38.8Z</time></trkpt><trkpt lat="41.3959734" lon="1.4400112"><ele>650.3333333333334</ele><time>2026-04-05T10:40:39.799Z</time></trkpt><trkpt lat="41.3959996" lon="1.4402908"><ele>649.0</ele><time>2026-04-05T10:40:40.799Z</time></trkpt><trkpt lat="41.3960252" lon="1.4405853"><ele>648.0</ele><time>2026-04-05T10:40:41.799Z</time></trkpt><trkpt lat="41.3960514" lon="1.4408689"><ele>647.0</ele><time>2026-04-05T10:40:42.799Z</time></trkpt><trkpt lat="41.3960745" lon="1.4411341"><ele>646.0</ele><time>2026-04-05T10:40:43.799Z</time></trkpt><trkpt lat="41.3960987" lon="1.4413902"><ele>646.0</ele><time>2026-04-05T10:40:44.8Z</time></trkpt><trkpt lat="41.3961227" lon="1.4416372"><ele>646.0</ele><time>2026-04-05T10:40:45.8Z</time></trkpt><trkpt lat="41.3961423" lon="1.4418626"><ele>646.0</ele><time>2026-04-05T10:40:46.8Z</time></trkpt><trkpt lat="41.3961626" lon="1.4420713"><ele>646.25</ele><time>2026-04-05T10:40:47.799Z</time></trkpt><trkpt lat="41.3961984" lon="1.4422631"><ele>646.5</ele><time>2026-04-05T10:40:48.8Z</time></trkpt><trkpt lat="41.3962505" lon="1.442447"><ele>646.75</ele><time>2026-04-05T10:40:49.8Z</time></trkpt><trkpt lat="41.3963137" lon="1.4426199"><ele>647.0</ele><time>2026-04-05T10:40:50.799Z</time></trkpt><trkpt lat="41.3963766" lon="1.442785"><ele>649.0</ele><time>2026-04-05T10:40:51.8Z</time></trkpt><trkpt lat="41.3964388" lon="1.442941"><ele>651.0</ele><time>2026-04-05T10:40:52.799Z</time></trkpt><trkpt lat="41.3965132" lon="1.4430774"><ele>653.0</ele><time>2026-04-05T10:40:53.8Z</time></trkpt><trkpt lat="41.3966086" lon="1.4431867"><ele>655.0</ele><time>2026-04-05T10:40:54.8Z</time></trkpt><trkpt lat="41.3967273" lon="1.4432662"><ele>655.0</ele><time>2026-04-05T10:40:55.8Z</time></trkpt><trkpt lat="41.396867" lon="1.4433261"><ele>655.0</ele><time>2026-04-05T10:40:56.799Z</time></trkpt><trkpt lat="41.3970054" lon="1.4433695"><ele>655.0</ele><time>2026-04-05T10:40:57.799Z</time></trkpt><trkpt lat="41.3971419" lon="1.443379"><ele>655.0</ele><time>2026-04-05T10:40:58.799Z</time></trkpt><trkpt lat="41.3972773" lon="1.443345"><ele>654.75</ele><time>2026-04-05T10:40:59.8Z</time></trkpt><trkpt lat="41.3974088" lon="1.4432774"><ele>654.5</ele><time>2026-04-05T10:41:00.8Z</time></trkpt><trkpt lat="41.3975361" lon="1.4432057"><ele>654.25</ele><time>2026-04-05T10:41:01.8Z</time></trkpt><trkpt lat="41.3976604" lon="1.443154"><ele>654.0</ele><time>2026-04-05T10:41:02.799Z</time></trkpt><trkpt lat="41.3977835" lon="1.4431383"><ele>654.0</ele><time>2026-04-05T10:41:03.8Z</time></trkpt><trkpt lat="41.3978932" lon="1.4431719"><ele>654.0</ele><time>2026-04-05T10:41:04.8Z</time></trkpt><trkpt lat="41.3980011" lon="1.4432355"><ele>654.0</ele><time>2026-04-05T10:41:05.799Z</time></trkpt><trkpt lat="41.3981121" lon="1.4433061"><ele>654.0</ele><time>2026-04-05T10:41:06.799Z</time></trkpt><trkpt lat="41.3982179" lon="1.4433654"><ele>653.8000000000001</ele><time>2026-04-05T10:41:07.8Z</time></trkpt><trkpt lat="41.3983107" lon="1.4434308"><ele>653.6</ele><time>2026-04-05T10:41:08.799Z</time></trkpt><trkpt lat="41.3983882" lon="1.4435156"><ele>653.4</ele><time>2026-04-05T10:41:09.799Z</time></trkpt><trkpt lat="41.3984332" lon="1.4436216"><ele>653.2</ele><time>2026-04-05T10:41:10.799Z</time></trkpt><trkpt lat="41.3984445" lon="1.4437407"><ele>653.0</ele><time>2026-04-05T10:41:11.799Z</time></trkpt><trkpt lat="41.3984273" lon="1.4438725"><ele>652.25</ele><time>2026-04-05T10:41:12.799Z</time></trkpt><trkpt lat="41.3983809" lon="1.4440229"><ele>651.5</ele><time>2026-04-05T10:41:13.8Z</time></trkpt><trkpt lat="41.3983177" lon="1.4441984"><ele>650.75</ele><time>2026-04-05T10:41:14.8Z</time></trkpt><trkpt lat="41.3982428" lon="1.4443942"><ele>650.0</ele><time>2026-04-05T10:41:15.8Z</time></trkpt><trkpt lat="41.3981693" lon="1.4446001"><ele>651.3333333333333</ele><time>2026-04-05T10:41:16.799Z</time></trkpt><trkpt lat="41.3980854" lon="1.4448331"><ele>652.6666666666666</ele><time>2026-04-05T10:41:17.799Z</time></trkpt><trkpt lat="41.3980057" lon="1.4450891"><ele>654.0</ele><time>2026-04-05T10:41:18.8Z</time></trkpt><trkpt lat="41.3979419" lon="1.4453537"><ele>650.3333333333334</ele><time>2026-04-05T10:41:19.799Z</time></trkpt><trkpt lat="41.3978916" lon="1.4456089"><ele>646.6666666666667</ele><time>2026-04-05T10:41:20.8Z</time></trkpt><trkpt lat="41.3978425" lon="1.4458538"><ele>643.0</ele><time>2026-04-05T10:41:21.799Z</time></trkpt><trkpt lat="41.3977936" lon="1.4461007"><ele>643.0</ele><time>2026-04-05T10:41:22.799Z</time></trkpt><trkpt lat="41.3977426" lon="1.4463529"><ele>643.0</ele><time>2026-04-05T10:41:23.8Z</time></trkpt><trkpt lat="41.3976871" lon="1.4465965"><ele>643.0</ele><time>2026-04-05T10:41:24.8Z</time></trkpt><trkpt lat="41.3976177" lon="1.4468243"><ele>643.0</ele><time>2026-04-05T10:41:25.8Z</time></trkpt><trkpt lat="41.3975402" lon="1.4470386"><ele>643.0</ele><time>2026-04-05T10:41:26.799Z</time></trkpt><trkpt lat="41.397466" lon="1.4472433"><ele>643.0</ele><time>2026-04-05T10:41:27.799Z</time></trkpt><trkpt lat="41.3974072" lon="1.4474239"><ele>642.25</ele><time>2026-04-05T10:41:28.799Z</time></trkpt><trkpt lat="41.3973643" lon="1.447592"><ele>641.5</ele><time>2026-04-05T10:41:29.8Z</time></trkpt><trkpt lat="41.3973602" lon="1.4477699"><ele>640.75</ele><time>2026-04-05T10:41:30.8Z</time></trkpt><trkpt lat="41.3973867" lon="1.4479642"><ele>640.0</ele><time>2026-04-05T10:41:31.8Z</time></trkpt><trkpt lat="41.3974341" lon="1.4481762"><ele>639.5</ele><time>2026-04-05T10:41:32.8Z</time></trkpt><trkpt lat="41.3974853" lon="1.4483805"><ele>639.0</ele><time>2026-04-05T10:41:33.799Z</time></trkpt><trkpt lat="41.3975309" lon="1.4485723"><ele>638.5</ele><time>2026-04-05T10:41:34.8Z</time></trkpt><trkpt lat="41.3975657" lon="1.4487465"><ele>638.0</ele><time>2026-04-05T10:41:35.799Z</time></trkpt><trkpt lat="41.3975713" lon="1.4489205"><ele>637.0</ele><time>2026-04-05T10:41:36.8Z</time></trkpt><trkpt lat="41.3975454" lon="1.4491069"><ele>636.0</ele><time>2026-04-05T10:41:37.799Z</time></trkpt><trkpt lat="41.3975041" lon="1.4492977"><ele>635.0</ele><time>2026-04-05T10:41:38.799Z</time></trkpt><trkpt lat="41.3974552" lon="1.4495252"><ele>634.6666666666666</ele><time>2026-04-05T10:41:39.799Z</time></trkpt><trkpt lat="41.3973997" lon="1.4497723"><ele>634.3333333333334</ele><time>2026-04-05T10:41:40.8Z</time></trkpt><trkpt lat="41.3973498" lon="1.4500131"><ele>634.0</ele><time>2026-04-05T10:41:41.8Z</time></trkpt><trkpt lat="41.3973022" lon="1.4502474"><ele>632.3333333333334</ele><time>2026-04-05T10:41:42.799Z</time></trkpt><trkpt lat="41.3972531" lon="1.4504781"><ele>630.6666666666666</ele><time>2026-04-05T10:41:43.8Z</time></trkpt><trkpt lat="41.3972107" lon="1.4506752"><ele>629.0</ele><time>2026-04-05T10:41:44.8Z</time></trkpt><trkpt lat="41.3971562" lon="1.4508579"><ele>627.6666666666666</ele><time>2026-04-05T10:41:45.799Z</time></trkpt><trkpt lat="41.3970704" lon="1.4510113"><ele>626.3333333333334</ele><time>2026-04-05T10:41:46.799Z</time></trkpt><trkpt lat="41.3969602" lon="1.4511412"><ele>625.0</ele><time>2026-04-05T10:41:47.799Z</time></trkpt><trkpt lat="41.3968359" lon="1.4512734"><ele>624.3333333333334</ele><time>2026-04-05T10:41:48.799Z</time></trkpt><trkpt lat="41.3967075" lon="1.4514061"><ele>623.6666666666666</ele><time>2026-04-05T10:41:49.799Z</time></trkpt><trkpt lat="41.3965835" lon="1.4515351"><ele>623.0</ele><time>2026-04-05T10:41:50.799Z</time></trkpt><trkpt lat="41.3964718" lon="1.4516516"><ele>623.0</ele><time>2026-04-05T10:41:51.799Z</time></trkpt><trkpt lat="41.3963814" lon="1.4517558"><ele>623.0</ele><time>2026-04-05T10:41:52.8Z</time></trkpt><trkpt lat="41.3963046" lon="1.4518695"><ele>623.0</ele><time>2026-04-05T10:41:53.799Z</time></trkpt><trkpt lat="41.3962594" lon="1.452013"><ele>623.0</ele><time>2026-04-05T10:41:54.799Z</time></trkpt><trkpt lat="41.3962462" lon="1.4521753"><ele>622.1999999999999</ele><time>2026-04-05T10:41:55.8Z</time></trkpt><trkpt lat="41.3962407" lon="1.4523366"><ele>621.4</ele><time>2026-04-05T10:41:56.8Z</time></trkpt><trkpt lat="41.3962454" lon="1.4524786"><ele>620.5999999999999</ele><time>2026-04-05T10:41:57.8Z</time></trkpt><trkpt lat="41.3962563" lon="1.4526122"><ele>619.8</ele><time>2026-04-05T10:41:58.799Z</time></trkpt><trkpt lat="41.3963138" lon="1.4526728"><ele>619.0</ele><time>2026-04-05T10:41:59.799Z</time></trkpt><trkpt lat="41.3964071" lon="1.4527154"><ele>619.0</ele><time>2026-04-05T10:42:00.799Z</time></trkpt><trkpt lat="41.3965137" lon="1.4527315"><ele>619.0</ele><time>2026-04-05T10:42:01.8Z</time></trkpt><trkpt lat="41.3966401" lon="1.4527151"><ele>619.0</ele><time>2026-04-05T10:42:02.799Z</time></trkpt><trkpt lat="41.3967724" lon="1.4527014"><ele>619.0</ele><time>2026-04-05T10:42:03.799Z</time></trkpt><trkpt lat="41.3969012" lon="1.4526878"><ele>619.0</ele><time>2026-04-05T10:42:04.8Z</time></trkpt><trkpt lat="41.3970208" lon="1.4526697"><ele>619.0</ele><time>2026-04-05T10:42:05.8Z</time></trkpt><trkpt lat="41.3971378" lon="1.4526485"><ele>619.0</ele><time>2026-04-05T10:42:06.8Z</time></trkpt><trkpt lat="41.3972359" lon="1.4526318"><ele>619.0</ele><time>2026-04-05T10:42:07.799Z</time></trkpt><trkpt lat="41.3973089" lon="1.4526451"><ele>619.0</ele><time>2026-04-05T10:42:08.799Z</time></trkpt><trkpt lat="41.3973537" lon="1.4527055"><ele>619.0</ele><time>2026-04-05T10:42:09.8Z</time></trkpt><trkpt lat="41.3973705" lon="1.4527914"><ele>619.0</ele><time>2026-04-05T10:42:10.799Z</time></trkpt><trkpt lat="41.3973644" lon="1.4528921"><ele>619.0</ele><time>2026-04-05T10:42:11.8Z</time></trkpt><trkpt lat="41.39733" lon="1.4529841"><ele>619.0</ele><time>2026-04-05T10:42:12.8Z</time></trkpt><trkpt lat="41.3972557" lon="1.4530545"><ele>619.0</ele><time>2026-04-05T10:42:13.799Z</time></trkpt><trkpt lat="41.3971678" lon="1.4531202"><ele>619.0</ele><time>2026-04-05T10:42:14.799Z</time></trkpt><trkpt lat="41.3970783" lon="1.4532021"><ele>617.5</ele><time>2026-04-05T10:42:15.799Z</time></trkpt><trkpt lat="41.3969973" lon="1.4533087"><ele>616.0</ele><time>2026-04-05T10:42:16.8Z</time></trkpt><trkpt lat="41.3969173" lon="1.4534305"><ele>614.5</ele><time>2026-04-05T10:42:17.799Z</time></trkpt><trkpt lat="41.3968418" lon="1.453565"><ele>613.0</ele><time>2026-04-05T10:42:18.8Z</time></trkpt><trkpt lat="41.3967745" lon="1.4537013"><ele>613.6</ele><time>2026-04-05T10:42:19.8Z</time></trkpt><trkpt lat="41.3967018" lon="1.4538268"><ele>614.1999999999999</ele><time>2026-04-05T10:42:20.8Z</time></trkpt><trkpt lat="41.3966328" lon="1.4539486"><ele>614.8</ele><time>2026-04-05T10:42:21.799Z</time></trkpt><trkpt lat="41.396567" lon="1.4540637"><ele>615.4</ele><time>2026-04-05T10:42:22.8Z</time></trkpt><trkpt lat="41.3965052" lon="1.4541721"><ele>616.0</ele><time>2026-04-05T10:42:23.8Z</time></trkpt><trkpt lat="41.3964462" lon="1.4542771"><ele>616.0</ele><time>2026-04-05T10:42:24.8Z</time></trkpt><trkpt lat="41.3963917" lon="1.4543798"><ele>616.0</ele><time>2026-04-05T10:42:25.799Z</time></trkpt><trkpt lat="41.396335" lon="1.4544817"><ele>616.0</ele><time>2026-04-05T10:42:26.8Z</time></trkpt><trkpt lat="41.3962731" lon="1.4545873"><ele>616.0</ele><time>2026-04-05T10:42:27.799Z</time></trkpt><trkpt lat="41.3962259" lon="1.4546968"><ele>616.0</ele><time>2026-04-05T10:42:28.8Z</time></trkpt><trkpt lat="41.3961981" lon="1.4548213"><ele>615.8</ele><time>2026-04-05T10:42:29.8Z</time></trkpt><trkpt lat="41.3961889" lon="1.454956"><ele>615.6</ele><time>2026-04-05T10:42:30.799Z</time></trkpt><trkpt lat="41.3961949" lon="1.4550968"><ele>615.4</ele><time>2026-04-05T10:42:31.8Z</time></trkpt><trkpt lat="41.3962149" lon="1.4552472"><ele>615.2</ele><time>2026-04-05T10:42:32.8Z</time></trkpt><trkpt lat="41.3962352" lon="1.4554092"><ele>615.0</ele><time>2026-04-05T10:42:33.8Z</time></trkpt><trkpt lat="41.396261" lon="1.4555852"><ele>616.0</ele><time>2026-04-05T10:42:34.8Z</time></trkpt><trkpt lat="41.3962938" lon="1.4557649"><ele>617.0</ele><time>2026-04-05T10:42:35.799Z</time></trkpt><trkpt lat="41.3963237" lon="1.4559425"><ele>618.0</ele><time>2026-04-05T10:42:36.8Z</time></trkpt><trkpt lat="41.396359" lon="1.4561361"><ele>619.0</ele><time>2026-04-05T10:42:37.8Z</time></trkpt><trkpt lat="41.3963934" lon="1.4563404"><ele>620.0</ele><time>2026-04-05T10:42:38.8Z</time></trkpt><trkpt lat="41.3964284" lon="1.4565381"><ele>621.0</ele><time>2026-04-05T10:42:39.799Z</time></trkpt><trkpt lat="41.396461" lon="1.4567244"><ele>622.0</ele><time>2026-04-05T10:42:40.799Z</time></trkpt><trkpt lat="41.3964934" lon="1.456896"><ele>623.0</ele><time>2026-04-05T10:42:41.8Z</time></trkpt><trkpt lat="41.3965239" lon="1.4570567"><ele>623.5</ele><time>2026-04-05T10:42:42.8Z</time></trkpt><trkpt lat="41.3965528" lon="1.4572145"><ele>624.0</ele><time>2026-04-05T10:42:43.8Z</time></trkpt><trkpt lat="41.3965829" lon="1.4573778"><ele>624.5</ele><time>2026-04-05T10:42:44.8Z</time></trkpt><trkpt lat="41.3966121" lon="1.4575442"><ele>625.0</ele><time>2026-04-05T10:42:45.799Z</time></trkpt><trkpt lat="41.3966426" lon="1.4577144"><ele>625.0</ele><time>2026-04-05T10:42:46.8Z</time></trkpt><trkpt lat="41.3966753" lon="1.4578866"><ele>625.0</ele><time>2026-04-05T10:42:47.8Z</time></trkpt><trkpt lat="41.3967103" lon="1.4580691"><ele>625.0</ele><time>2026-04-05T10:42:48.8Z</time></trkpt><trkpt lat="41.3967518" lon="1.4582656"><ele>625.0</ele><time>2026-04-05T10:42:49.799Z</time></trkpt><trkpt lat="41.3967896" lon="1.4584733"><ele>625.75</ele><time>2026-04-05T10:42:50.799Z</time></trkpt><trkpt lat="41.396823" lon="1.4586637"><ele>626.5</ele><time>2026-04-05T10:42:51.799Z</time></trkpt><trkpt lat="41.3968596" lon="1.4588396"><ele>627.25</ele><time>2026-04-05T10:42:52.8Z</time></trkpt><trkpt lat="41.3969053" lon="1.4590063"><ele>628.0</ele><time>2026-04-05T10:42:53.8Z</time></trkpt><trkpt lat="41.3969624" lon="1.4591702"><ele>629.25</ele><time>2026-04-05T10:42:54.8Z</time></trkpt><trkpt lat="41.3970242" lon="1.4593271"><ele>630.5</ele><time>2026-04-05T10:42:55.8Z</time></trkpt><trkpt lat="41.3970833" lon="1.4594736"><ele>631.75</ele><time>2026-04-05T10:42:56.8Z</time></trkpt><trkpt lat="41.3971417" lon="1.4596214"><ele>633.0</ele><time>2026-04-05T10:42:57.799Z</time></trkpt><trkpt lat="41.3972078" lon="1.4597823"><ele>633.3333333333334</ele><time>2026-04-05T10:42:58.799Z</time></trkpt><trkpt lat="41.3972814" lon="1.4599588"><ele>633.6666666666667</ele><time>2026-04-05T10:42:59.8Z</time></trkpt><trkpt lat="41.3973557" lon="1.4601368"><ele>634.0</ele><time>2026-04-05T10:43:00.799Z</time></trkpt><trkpt lat="41.3974351" lon="1.4603168"><ele>634.0</ele><time>2026-04-05T10:43:01.8Z</time></trkpt><trkpt lat="41.3975187" lon="1.460517"><ele>634.0</ele><time>2026-04-05T10:43:02.799Z</time></trkpt><trkpt lat="41.3976144" lon="1.46074"><ele>634.0</ele><time>2026-04-05T10:43:03.799Z</time></trkpt><trkpt lat="41.3977153" lon="1.460973"><ele>634.0</ele><time>2026-04-05T10:43:04.799Z</time></trkpt><trkpt lat="41.3978181" lon="1.4612035"><ele>634.0</ele><time>2026-04-05T10:43:05.799Z</time></trkpt><trkpt lat="41.3979153" lon="1.4614281"><ele>634.0</ele><time>2026-04-05T10:43:06.799Z</time></trkpt><trkpt lat="41.3980067" lon="1.4616395"><ele>635.3333333333334</ele><time>2026-04-05T10:43:07.8Z</time></trkpt><trkpt lat="41.3980924" lon="1.4618443"><ele>636.6666666666666</ele><time>2026-04-05T10:43:08.8Z</time></trkpt><trkpt lat="41.3981698" lon="1.4620406"><ele>638.0</ele><time>2026-04-05T10:43:09.799Z</time></trkpt><trkpt lat="41.3982218" lon="1.4622388"><ele>639.6666666666666</ele><time>2026-04-05T10:43:10.8Z</time></trkpt><trkpt lat="41.3982435" lon="1.4624437"><ele>641.3333333333334</ele><time>2026-04-05T10:43:11.8Z</time></trkpt><trkpt lat="41.3982389" lon="1.4626575"><ele>643.0</ele><time>2026-04-05T10:43:12.8Z</time></trkpt><trkpt lat="41.3982123" lon="1.4628786"><ele>644.0</ele><time>2026-04-05T10:43:13.8Z</time></trkpt><trkpt lat="41.3981665" lon="1.4631242"><ele>645.0</ele><time>2026-04-05T10:43:14.8Z</time></trkpt><trkpt lat="41.3981195" lon="1.4633892"><ele>646.0</ele><time>2026-04-05T10:43:15.8Z</time></trkpt><trkpt lat="41.3980671" lon="1.4636674"><ele>647.5</ele><time>2026-04-05T10:43:16.8Z</time></trkpt><trkpt lat="41.398011" lon="1.4639728"><ele>649.0</ele><time>2026-04-05T10:43:17.799Z</time></trkpt><trkpt lat="41.3979528" lon="1.4642971"><ele>638.5</ele><time>2026-04-05T10:43:18.8Z</time></trkpt><trkpt lat="41.3979006" lon="1.4646267"><ele>628.0</ele><time>2026-04-05T10:43:19.8Z</time></trkpt><trkpt lat="41.3978529" lon="1.4649728"><ele>628.0</ele><time>2026-04-05T10:43:20.8Z</time></trkpt><trkpt lat="41.3978074" lon="1.4653354"><ele>628.0</ele><time>2026-04-05T10:43:21.8Z</time></trkpt><trkpt lat="41.3977674" lon="1.4656966"><ele>627.0</ele><time>2026-04-05T10:43:22.799Z</time></trkpt><trkpt lat="41.3977254" lon="1.4660461"><ele>626.0</ele><time>2026-04-05T10:43:23.8Z</time></trkpt><trkpt lat="41.3976838" lon="1.4664061"><ele>626.0</ele><time>2026-04-05T10:43:24.8Z</time></trkpt><trkpt lat="41.3976458" lon="1.4667547"><ele>626.0</ele><time>2026-04-05T10:43:25.8Z</time></trkpt><trkpt lat="41.3976101" lon="1.4670873"><ele>628.0</ele><time>2026-04-05T10:43:26.799Z</time></trkpt><trkpt lat="41.3975771" lon="1.4674001"><ele>630.0</ele><time>2026-04-05T10:43:27.8Z</time></trkpt><trkpt lat="41.3975422" lon="1.4677045"><ele>631.0</ele><time>2026-04-05T10:43:28.8Z</time></trkpt><trkpt lat="41.3975103" lon="1.4679882"><ele>632.0</ele><time>2026-04-05T10:43:29.8Z</time></trkpt><trkpt lat="41.3974805" lon="1.4682421"><ele>633.0</ele><time>2026-04-05T10:43:30.799Z</time></trkpt><trkpt lat="41.3974546" lon="1.4684664"><ele>633.0</ele><time>2026-04-05T10:43:31.799Z</time></trkpt><trkpt lat="41.3974371" lon="1.4686681"><ele>633.0</ele><time>2026-04-05T10:43:32.799Z</time></trkpt><trkpt lat="41.397422" lon="1.4688674"><ele>633.0</ele><time>2026-04-05T10:43:33.8Z</time></trkpt><trkpt lat="41.3974151" lon="1.4690652"><ele>632.5</ele><time>2026-04-05T10:43:34.8Z</time></trkpt><trkpt lat="41.3974028" lon="1.469262"><ele>632.0</ele><time>2026-04-05T10:43:35.8Z</time></trkpt><trkpt lat="41.3973874" lon="1.4694575"><ele>631.5</ele><time>2026-04-05T10:43:36.799Z</time></trkpt><trkpt lat="41.3973766" lon="1.4696437"><ele>631.0</ele><time>2026-04-05T10:43:37.799Z</time></trkpt><trkpt lat="41.3973695" lon="1.4698205"><ele>631.0</ele><time>2026-04-05T10:43:38.8Z</time></trkpt><trkpt lat="41.3973683" lon="1.4699807"><ele>631.0</ele><time>2026-04-05T10:43:39.799Z</time></trkpt><trkpt lat="41.397397" lon="1.470128"><ele>631.0</ele><time>2026-04-05T10:43:40.8Z</time></trkpt><trkpt lat="41.3974579" lon="1.4702681"><ele>631.0</ele><time>2026-04-05T10:43:41.8Z</time></trkpt><trkpt lat="41.3975271" lon="1.4704096"><ele>629.25</ele><time>2026-04-05T10:43:42.799Z</time></trkpt><trkpt lat="41.397593" lon="1.4705547"><ele>627.5</ele><time>2026-04-05T10:43:43.8Z</time></trkpt><trkpt lat="41.39766" lon="1.4706927"><ele>625.75</ele><time>2026-04-05T10:43:44.8Z</time></trkpt><trkpt lat="41.3977321" lon="1.4708216"><ele>624.0</ele><time>2026-04-05T10:43:45.799Z</time></trkpt><trkpt lat="41.3978191" lon="1.4709297"><ele>624.0</ele><time>2026-04-05T10:43:46.8Z</time></trkpt><trkpt lat="41.397908" lon="1.4710215"><ele>624.0</ele><time>2026-04-05T10:43:47.799Z</time></trkpt><trkpt lat="41.3980046" lon="1.4711031"><ele>624.0</ele><time>2026-04-05T10:43:48.799Z</time></trkpt><trkpt lat="41.398104" lon="1.4711906"><ele>624.0</ele><time>2026-04-05T10:43:49.799Z</time></trkpt><trkpt lat="41.3982067" lon="1.471282"><ele>622.5</ele><time>2026-04-05T10:43:50.8Z</time></trkpt><trkpt lat="41.3983136" lon="1.4713747"><ele>621.0</ele><time>2026-04-05T10:43:51.799Z</time></trkpt><trkpt lat="41.3984351" lon="1.4714632"><ele>619.5</ele><time>2026-04-05T10:43:52.8Z</time></trkpt><trkpt lat="41.3985597" lon="1.4715635"><ele>618.0</ele><time>2026-04-05T10:43:53.8Z</time></trkpt><trkpt lat="41.3986861" lon="1.4716461"><ele>618.0</ele><time>2026-04-05T10:43:54.8Z</time></trkpt><trkpt lat="41.3988125" lon="1.4717258"><ele>618.0</ele><time>2026-04-05T10:43:55.799Z</time></trkpt><trkpt lat="41.3989333" lon="1.4717983"><ele>618.0</ele><time>2026-04-05T10:43:56.8Z</time></trkpt><trkpt lat="41.3990546" lon="1.4718541"><ele>618.0</ele><time>2026-04-05T10:43:57.799Z</time></trkpt><trkpt lat="41.3991835" lon="1.4718797"><ele>618.0</ele><time>2026-04-05T10:43:58.799Z</time></trkpt><trkpt lat="41.3993135" lon="1.4718735"><ele>618.0</ele><time>2026-04-05T10:43:59.799Z</time></trkpt><trkpt lat="41.3994468" lon="1.4718408"><ele>618.0</ele><time>2026-04-05T10:44:00.799Z</time></trkpt><trkpt lat="41.3995769" lon="1.4718054"><ele>618.0</ele><time>2026-04-05T10:44:01.8Z</time></trkpt><trkpt lat="41.3997083" lon="1.4717836"><ele>618.0</ele><time>2026-04-05T10:44:02.799Z</time></trkpt><trkpt lat="41.3998406" lon="1.4717701"><ele>618.0</ele><time>2026-04-05T10:44:03.799Z</time></trkpt><trkpt lat="41.3999729" lon="1.4717599"><ele>618.0</ele><time>2026-04-05T10:44:04.8Z</time></trkpt><trkpt lat="41.4001018" lon="1.4717564"><ele>618.0</ele><time>2026-04-05T10:44:05.799Z</time></trkpt><trkpt lat="41.4002187" lon="1.4717615"><ele>618.0</ele><time>2026-04-05T10:44:06.8Z</time></trkpt><trkpt lat="41.4003261" lon="1.4717748"><ele>618.0</ele><time>2026-04-05T10:44:07.799Z</time></trkpt><trkpt lat="41.4004259" lon="1.4718075"><ele>618.0</ele><time>2026-04-05T10:44:08.799Z</time></trkpt><trkpt lat="41.4005171" lon="1.4718648"><ele>618.0</ele><time>2026-04-05T10:44:09.799Z</time></trkpt><trkpt lat="41.4006093" lon="1.471941"><ele>618.0</ele><time>2026-04-05T10:44:10.799Z</time></trkpt><trkpt lat="41.4007036" lon="1.4720273"><ele>616.5</ele><time>2026-04-05T10:44:11.8Z</time></trkpt><trkpt lat="41.4008003" lon="1.472117"><ele>615.0</ele><time>2026-04-05T10:44:12.799Z</time></trkpt><trkpt lat="41.4008932" lon="1.4722055"><ele>613.5</ele><time>2026-04-05T10:44:13.8Z</time></trkpt><trkpt lat="41.4009834" lon="1.4722908"><ele>612.0</ele><time>2026-04-05T10:44:14.8Z</time></trkpt><trkpt lat="41.40107" lon="1.472376"><ele>612.0</ele><time>2026-04-05T10:44:15.8Z</time></trkpt><trkpt lat="41.4011544" lon="1.4724562"><ele>612.0</ele><time>2026-04-05T10:44:16.799Z</time></trkpt><trkpt lat="41.4012288" lon="1.472528"><ele>612.0</ele><time>2026-04-05T10:44:17.799Z</time></trkpt><trkpt lat="41.4012827" lon="1.4725834"><ele>612.0</ele><time>2026-04-05T10:44:18.799Z</time></trkpt><trkpt lat="41.4013221" lon="1.4726744"><ele>612.0</ele><time>2026-04-05T10:44:20.8Z</time></trkpt><trkpt lat="41.4014004" lon="1.4727477"><ele>612.0</ele><time>2026-04-05T10:44:35.8Z</time></trkpt><trkpt lat="41.4014687" lon="1.472792"><ele>611.6666666666666</ele><time>2026-04-05T10:44:36.8Z</time></trkpt><trkpt lat="41.4015375" lon="1.472848"><ele>611.3333333333334</ele><time>2026-04-05T10:44:37.8Z</time></trkpt><trkpt lat="41.4016132" lon="1.4729063"><ele>611.0</ele><time>2026-04-05T10:44:38.8Z</time></trkpt><trkpt lat="41.401687" lon="1.4729641"><ele>610.6666666666667</ele><time>2026-04-05T10:44:39.799Z</time></trkpt><trkpt lat="41.4017613" lon="1.4730263"><ele>610.3333333333334</ele><time>2026-04-05T10:44:40.8Z</time></trkpt><trkpt lat="41.4018441" lon="1.4730888"><ele>610.0</ele><time>2026-04-05T10:44:41.799Z</time></trkpt><trkpt lat="41.4019322" lon="1.4731497"><ele>610.0</ele><time>2026-04-05T10:44:42.8Z</time></trkpt><trkpt lat="41.4020363" lon="1.4732145"><ele>610.0</ele><time>2026-04-05T10:44:43.799Z</time></trkpt><trkpt lat="41.4021577" lon="1.4732726"><ele>610.0</ele><time>2026-04-05T10:44:44.799Z</time></trkpt><trkpt lat="41.4022962" lon="1.4733225"><ele>610.0</ele><time>2026-04-05T10:44:45.799Z</time></trkpt><trkpt lat="41.4024384" lon="1.4733696"><ele>612.6666666666667</ele><time>2026-04-05T10:44:46.799Z</time></trkpt><trkpt lat="41.4025844" lon="1.4734183"><ele>615.3333333333334</ele><time>2026-04-05T10:44:47.799Z</time></trkpt><trkpt lat="41.4027313" lon="1.4734692"><ele>618.0</ele><time>2026-04-05T10:44:48.8Z</time></trkpt><trkpt lat="41.4028792" lon="1.4735205"><ele>618.5</ele><time>2026-04-05T10:44:49.799Z</time></trkpt><trkpt lat="41.4030168" lon="1.4735757"><ele>619.0</ele><time>2026-04-05T10:44:50.8Z</time></trkpt><trkpt lat="41.4031557" lon="1.4736095"><ele>619.5</ele><time>2026-04-05T10:44:51.8Z</time></trkpt><trkpt lat="41.4033099" lon="1.4736269"><ele>620.0</ele><time>2026-04-05T10:44:52.8Z</time></trkpt><trkpt lat="41.4034729" lon="1.47363"><ele>620.0</ele><time>2026-04-05T10:44:53.8Z</time></trkpt><trkpt lat="41.4036387" lon="1.4736241"><ele>620.0</ele><time>2026-04-05T10:44:54.8Z</time></trkpt><trkpt lat="41.4038003" lon="1.4736139"><ele>620.0</ele><time>2026-04-05T10:44:55.8Z</time></trkpt><trkpt lat="41.403958" lon="1.4736112"><ele>619.3333333333333</ele><time>2026-04-05T10:44:56.8Z</time></trkpt><trkpt lat="41.4041055" lon="1.473606"><ele>618.6666666666666</ele><time>2026-04-05T10:44:57.799Z</time></trkpt><trkpt lat="41.4042569" lon="1.4736064"><ele>618.0</ele><time>2026-04-05T10:44:58.8Z</time></trkpt><trkpt lat="41.4044062" lon="1.4736344"><ele>618.0</ele><time>2026-04-05T10:44:59.8Z</time></trkpt><trkpt lat="41.4045584" lon="1.4736806"><ele>618.0</ele><time>2026-04-05T10:45:00.8Z</time></trkpt><trkpt lat="41.4046955" lon="1.4737444"><ele>618.0</ele><time>2026-04-05T10:45:01.8Z</time></trkpt><trkpt lat="41.4048297" lon="1.4738057"><ele>618.0</ele><time>2026-04-05T10:45:02.8Z</time></trkpt><trkpt lat="41.4049701" lon="1.4738648"><ele>617.6666666666666</ele><time>2026-04-05T10:45:03.8Z</time></trkpt><trkpt lat="41.4051198" lon="1.4739244"><ele>617.3333333333333</ele><time>2026-04-05T10:45:04.799Z</time></trkpt><trkpt lat="41.4052718" lon="1.4739839"><ele>617.0</ele><time>2026-04-05T10:45:05.8Z</time></trkpt><trkpt lat="41.4054192" lon="1.4740522"><ele>619.6666666666666</ele><time>2026-04-05T10:45:06.8Z</time></trkpt><trkpt lat="41.4055589" lon="1.4741544"><ele>622.3333333333334</ele><time>2026-04-05T10:45:07.799Z</time></trkpt><trkpt lat="41.4056873" lon="1.4743011"><ele>625.0</ele><time>2026-04-05T10:45:08.8Z</time></trkpt><trkpt lat="41.4058115" lon="1.4744728"><ele>624.0</ele><time>2026-04-05T10:45:09.8Z</time></trkpt><trkpt lat="41.4059251" lon="1.4746453"><ele>623.0</ele><time>2026-04-05T10:45:10.799Z</time></trkpt><trkpt lat="41.4060307" lon="1.4748023"><ele>622.0</ele><time>2026-04-05T10:45:11.8Z</time></trkpt><trkpt lat="41.4061264" lon="1.474949"><ele>622.0</ele><time>2026-04-05T10:45:12.8Z</time></trkpt><trkpt lat="41.4062048" lon="1.4750957"><ele>622.0</ele><time>2026-04-05T10:45:13.8Z</time></trkpt><trkpt lat="41.4062525" lon="1.4752535"><ele>622.0</ele><time>2026-04-05T10:45:14.799Z</time></trkpt><trkpt lat="41.4062755" lon="1.4754293"><ele>622.0</ele><time>2026-04-05T10:45:15.799Z</time></trkpt><trkpt lat="41.4062876" lon="1.4756018"><ele>622.25</ele><time>2026-04-05T10:45:16.799Z</time></trkpt><trkpt lat="41.4062964" lon="1.475761"><ele>622.5</ele><time>2026-04-05T10:45:17.8Z</time></trkpt><trkpt lat="41.406322" lon="1.4759081"><ele>622.75</ele><time>2026-04-05T10:45:18.799Z</time></trkpt><trkpt lat="41.4063693" lon="1.4760445"><ele>623.0</ele><time>2026-04-05T10:45:19.799Z</time></trkpt><trkpt lat="41.4064436" lon="1.4761615"><ele>624.75</ele><time>2026-04-05T10:45:20.799Z</time></trkpt><trkpt lat="41.4065297" lon="1.4762526"><ele>626.5</ele><time>2026-04-05T10:45:21.799Z</time></trkpt><trkpt lat="41.4066356" lon="1.47631"><ele>628.25</ele><time>2026-04-05T10:45:22.799Z</time></trkpt><trkpt lat="41.4067583" lon="1.4763293"><ele>630.0</ele><time>2026-04-05T10:45:23.8Z</time></trkpt><trkpt lat="41.4068894" lon="1.4763652"><ele>630.0</ele><time>2026-04-05T10:45:24.799Z</time></trkpt><trkpt lat="41.4070163" lon="1.4764242"><ele>630.0</ele><time>2026-04-05T10:45:25.799Z</time></trkpt><trkpt lat="41.4071455" lon="1.4764755"><ele>630.0</ele><time>2026-04-05T10:45:26.8Z</time></trkpt><trkpt lat="41.4072843" lon="1.4765123"><ele>630.0</ele><time>2026-04-05T10:45:27.8Z</time></trkpt><trkpt lat="41.4074291" lon="1.4765475"><ele>632.0</ele><time>2026-04-05T10:45:28.799Z</time></trkpt><trkpt lat="41.4075834" lon="1.4765856"><ele>634.0</ele><time>2026-04-05T10:45:29.799Z</time></trkpt><trkpt lat="41.4077343" lon="1.4766102"><ele>636.0</ele><time>2026-04-05T10:45:30.8Z</time></trkpt><trkpt lat="41.4078659" lon="1.4766315"><ele>638.0</ele><time>2026-04-05T10:45:31.799Z</time></trkpt><trkpt lat="41.4079776" lon="1.4766408"><ele>638.25</ele><time>2026-04-05T10:45:32.799Z</time></trkpt><trkpt lat="41.4080904" lon="1.4766195"><ele>638.5</ele><time>2026-04-05T10:45:33.799Z</time></trkpt><trkpt lat="41.4082185" lon="1.476575"><ele>638.75</ele><time>2026-04-05T10:45:34.8Z</time></trkpt><trkpt lat="41.4083495" lon="1.4765411"><ele>639.0</ele><time>2026-04-05T10:45:35.799Z</time></trkpt><trkpt lat="41.4084916" lon="1.4765405"><ele>639.0</ele><time>2026-04-05T10:45:36.799Z</time></trkpt><trkpt lat="41.408633" lon="1.4765852"><ele>639.0</ele><time>2026-04-05T10:45:37.8Z</time></trkpt><trkpt lat="41.4087885" lon="1.4766743"><ele>639.0</ele><time>2026-04-05T10:45:38.8Z</time></trkpt><trkpt lat="41.408953" lon="1.4767754"><ele>642.3333333333334</ele><time>2026-04-05T10:45:39.8Z</time></trkpt><trkpt lat="41.4091115" lon="1.4768682"><ele>645.6666666666667</ele><time>2026-04-05T10:45:40.8Z</time></trkpt><trkpt lat="41.4092642" lon="1.4769529"><ele>649.0</ele><time>2026-04-05T10:45:41.799Z</time></trkpt><trkpt lat="41.4094063" lon="1.4770341"><ele>646.75</ele><time>2026-04-05T10:45:42.799Z</time></trkpt><trkpt lat="41.4095299" lon="1.4771067"><ele>644.5</ele><time>2026-04-05T10:45:43.8Z</time></trkpt><trkpt lat="41.4096308" lon="1.4771804"><ele>642.25</ele><time>2026-04-05T10:45:44.799Z</time></trkpt><trkpt lat="41.4097033" lon="1.477282"><ele>640.0</ele><time>2026-04-05T10:45:45.8Z</time></trkpt><trkpt lat="41.4097633" lon="1.4773904"><ele>640.0</ele><time>2026-04-05T10:45:46.799Z</time></trkpt><trkpt lat="41.409767" lon="1.4775478"><ele>640.0</ele><time>2026-04-05T10:45:47.799Z</time></trkpt><trkpt lat="41.4097647" lon="1.4777163"><ele>640.0</ele><time>2026-04-05T10:45:48.8Z</time></trkpt><trkpt lat="41.4097454" lon="1.4778896"><ele>640.0</ele><time>2026-04-05T10:45:49.799Z</time></trkpt><trkpt lat="41.4097189" lon="1.4780554"><ele>640.25</ele><time>2026-04-05T10:45:50.799Z</time></trkpt><trkpt lat="41.4096964" lon="1.4782222"><ele>640.5</ele><time>2026-04-05T10:45:51.8Z</time></trkpt><trkpt lat="41.4096886" lon="1.4783829"><ele>640.75</ele><time>2026-04-05T10:45:52.8Z</time></trkpt><trkpt lat="41.4097149" lon="1.4785368"><ele>641.0</ele><time>2026-04-05T10:45:53.8Z</time></trkpt><trkpt lat="41.4097728" lon="1.4786806"><ele>644.75</ele><time>2026-04-05T10:45:54.799Z</time></trkpt><trkpt lat="41.4098506" lon="1.4788194"><ele>648.5</ele><time>2026-04-05T10:45:55.8Z</time></trkpt><trkpt lat="41.409938" lon="1.4789641"><ele>652.25</ele><time>2026-04-05T10:45:56.8Z</time></trkpt><trkpt lat="41.4100252" lon="1.4791131"><ele>656.0</ele><time>2026-04-05T10:45:57.8Z</time></trkpt><trkpt lat="41.410112" lon="1.4792531"><ele>656.0</ele><time>2026-04-05T10:45:58.799Z</time></trkpt><trkpt lat="41.4101919" lon="1.4793793"><ele>656.0</ele><time>2026-04-05T10:45:59.8Z</time></trkpt><trkpt lat="41.4102753" lon="1.4794755"><ele>656.0</ele><time>2026-04-05T10:46:00.8Z</time></trkpt><trkpt lat="41.4103592" lon="1.4795421"><ele>656.0</ele><time>2026-04-05T10:46:01.8Z</time></trkpt><trkpt lat="41.4104351" lon="1.479565"><ele>656.0</ele><time>2026-04-05T10:46:02.8Z</time></trkpt><trkpt lat="41.4106122" lon="1.4792987"><ele>655.0</ele><time>2026-04-05T10:46:04.799Z</time></trkpt><trkpt lat="41.4107033" lon="1.4791724"><ele>654.0</ele><time>2026-04-05T10:46:05.8Z</time></trkpt><trkpt lat="41.4108171" lon="1.4790829"><ele>653.0</ele><time>2026-04-05T10:46:06.799Z</time></trkpt><trkpt lat="41.4109337" lon="1.4790351"><ele>652.0</ele><time>2026-04-05T10:46:07.799Z</time></trkpt><trkpt lat="41.4110606" lon="1.4790397"><ele>652.0</ele><time>2026-04-05T10:46:08.8Z</time></trkpt><trkpt lat="41.4112002" lon="1.4790789"><ele>652.0</ele><time>2026-04-05T10:46:09.8Z</time></trkpt><trkpt lat="41.4113414" lon="1.4791265"><ele>652.0</ele><time>2026-04-05T10:46:10.8Z</time></trkpt><trkpt lat="41.4114781" lon="1.4791941"><ele>652.0</ele><time>2026-04-05T10:46:11.8Z</time></trkpt><trkpt lat="41.4116018" lon="1.4792805"><ele>654.25</ele><time>2026-04-05T10:46:12.799Z</time></trkpt><trkpt lat="41.411736" lon="1.4793864"><ele>656.5</ele><time>2026-04-05T10:46:13.799Z</time></trkpt><trkpt lat="41.4118596" lon="1.4794792"><ele>658.75</ele><time>2026-04-05T10:46:14.799Z</time></trkpt><trkpt lat="41.4119646" lon="1.4795742"><ele>661.0</ele><time>2026-04-05T10:46:15.8Z</time></trkpt><trkpt lat="41.4120489" lon="1.4796841"><ele>663.0</ele><time>2026-04-05T10:46:16.799Z</time></trkpt><trkpt lat="41.4121042" lon="1.479779"><ele>665.0</ele><time>2026-04-05T10:46:17.799Z</time></trkpt><trkpt lat="41.4121545" lon="1.4798444"><ele>667.0</ele><time>2026-04-05T10:46:18.799Z</time></trkpt><trkpt lat="41.4122615" lon="1.4798662"><ele>669.0</ele><time>2026-04-05T10:46:20.799Z</time></trkpt><trkpt lat="41.4122942" lon="1.4797526"><ele>671.0</ele><time>2026-04-05T10:46:21.8Z</time></trkpt><trkpt lat="41.4123165" lon="1.4796559"><ele>673.0</ele><time>2026-04-05T10:46:22.8Z</time></trkpt><trkpt lat="41.4122867" lon="1.47952"><ele>673.0</ele><time>2026-04-05T10:46:23.799Z</time></trkpt><trkpt lat="41.4122459" lon="1.479369"><ele>673.0</ele><time>2026-04-05T10:46:24.799Z</time></trkpt><trkpt lat="41.4121829" lon="1.4792018"><ele>673.0</ele><time>2026-04-05T10:46:25.8Z</time></trkpt><trkpt lat="41.4121105" lon="1.4790371"><ele>673.0</ele><time>2026-04-05T10:46:26.8Z</time></trkpt><trkpt lat="41.4120437" lon="1.4788811"><ele>668.4</ele><time>2026-04-05T10:46:27.8Z</time></trkpt><trkpt lat="41.4119976" lon="1.4787336"><ele>663.8</ele><time>2026-04-05T10:46:28.799Z</time></trkpt><trkpt lat="41.4119763" lon="1.4786038"><ele>659.2</ele><time>2026-04-05T10:46:29.799Z</time></trkpt><trkpt lat="41.4120067" lon="1.478514"><ele>654.6</ele><time>2026-04-05T10:46:30.799Z</time></trkpt><trkpt lat="41.4120672" lon="1.4784471"><ele>650.0</ele><time>2026-04-05T10:46:31.8Z</time></trkpt><trkpt lat="41.4121563" lon="1.4784118"><ele>653.5</ele><time>2026-04-05T10:46:32.799Z</time></trkpt><trkpt lat="41.4122682" lon="1.4783987"><ele>657.0</ele><time>2026-04-05T10:46:33.799Z</time></trkpt><trkpt lat="41.4123946" lon="1.4783921"><ele>660.5</ele><time>2026-04-05T10:46:34.8Z</time></trkpt><trkpt lat="41.4125073" lon="1.4784047"><ele>664.0</ele><time>2026-04-05T10:46:35.799Z</time></trkpt><trkpt lat="41.4126126" lon="1.4784467"><ele>664.0</ele><time>2026-04-05T10:46:36.799Z</time></trkpt><trkpt lat="41.4126911" lon="1.478526"><ele>664.0</ele><time>2026-04-05T10:46:37.8Z</time></trkpt><trkpt lat="41.4127515" lon="1.4786414"><ele>664.0</ele><time>2026-04-05T10:46:38.8Z</time></trkpt><trkpt lat="41.412805" lon="1.4788053"><ele>664.0</ele><time>2026-04-05T10:46:39.799Z</time></trkpt><trkpt lat="41.4128562" lon="1.4789945"><ele>667.0</ele><time>2026-04-05T10:46:40.799Z</time></trkpt><trkpt lat="41.4129063" lon="1.4791893"><ele>670.0</ele><time>2026-04-05T10:46:41.799Z</time></trkpt><trkpt lat="41.4129708" lon="1.4793988"><ele>673.0</ele><time>2026-04-05T10:46:42.799Z</time></trkpt><trkpt lat="41.4130507" lon="1.4796102"><ele>674.3333333333334</ele><time>2026-04-05T10:46:43.799Z</time></trkpt><trkpt lat="41.4131436" lon="1.479813"><ele>675.6666666666666</ele><time>2026-04-05T10:46:44.8Z</time></trkpt><trkpt lat="41.4132438" lon="1.4800136"><ele>677.0</ele><time>2026-04-05T10:46:45.8Z</time></trkpt><trkpt lat="41.4133403" lon="1.4802159"><ele>677.0</ele><time>2026-04-05T10:46:46.799Z</time></trkpt><trkpt lat="41.4134394" lon="1.4804157"><ele>677.0</ele><time>2026-04-05T10:46:47.799Z</time></trkpt><trkpt lat="41.4135339" lon="1.4806131"><ele>677.0</ele><time>2026-04-05T10:46:48.8Z</time></trkpt><trkpt lat="41.4136275" lon="1.480814"><ele>677.6666666666666</ele><time>2026-04-05T10:46:49.8Z</time></trkpt><trkpt lat="41.4137229" lon="1.4810199"><ele>678.3333333333334</ele><time>2026-04-05T10:46:50.8Z</time></trkpt><trkpt lat="41.4138207" lon="1.4812271"><ele>679.0</ele><time>2026-04-05T10:46:51.8Z</time></trkpt><trkpt lat="41.4139185" lon="1.4814308"><ele>679.0</ele><time>2026-04-05T10:46:52.799Z</time></trkpt><trkpt lat="41.414022" lon="1.4816294"><ele>679.0</ele><time>2026-04-05T10:46:53.8Z</time></trkpt><trkpt lat="41.4141189" lon="1.4818365"><ele>679.0</ele><time>2026-04-05T10:46:54.799Z</time></trkpt><trkpt lat="41.4142059" lon="1.4820518"><ele>679.0</ele><time>2026-04-05T10:46:55.799Z</time></trkpt><trkpt lat="41.4142686" lon="1.4822788"><ele>679.0</ele><time>2026-04-05T10:46:56.8Z</time></trkpt><trkpt lat="41.4143106" lon="1.4825258"><ele>679.0</ele><time>2026-04-05T10:46:57.8Z</time></trkpt><trkpt lat="41.4143518" lon="1.482773"><ele>679.3333333333334</ele><time>2026-04-05T10:46:58.799Z</time></trkpt><trkpt lat="41.4143929" lon="1.4830178"><ele>679.6666666666666</ele><time>2026-04-05T10:46:59.8Z</time></trkpt><trkpt lat="41.4144296" lon="1.483262"><ele>680.0</ele><time>2026-04-05T10:47:00.8Z</time></trkpt><trkpt lat="41.414466" lon="1.4834954"><ele>680.0</ele><time>2026-04-05T10:47:01.8Z</time></trkpt><trkpt lat="41.4145045" lon="1.4837141"><ele>680.0</ele><time>2026-04-05T10:47:02.8Z</time></trkpt><trkpt lat="41.4145399" lon="1.483927"><ele>680.0</ele><time>2026-04-05T10:47:03.799Z</time></trkpt><trkpt lat="41.414576" lon="1.4841421"><ele>680.0</ele><time>2026-04-05T10:47:04.8Z</time></trkpt><trkpt lat="41.414611" lon="1.4843529"><ele>680.0</ele><time>2026-04-05T10:47:05.799Z</time></trkpt><trkpt lat="41.4146426" lon="1.4845555"><ele>680.0</ele><time>2026-04-05T10:47:06.799Z</time></trkpt><trkpt lat="41.4146733" lon="1.4847447"><ele>679.25</ele><time>2026-04-05T10:47:07.799Z</time></trkpt><trkpt lat="41.4147041" lon="1.4849314"><ele>678.5</ele><time>2026-04-05T10:47:08.799Z</time></trkpt><trkpt lat="41.4147333" lon="1.4851054"><ele>677.75</ele><time>2026-04-05T10:47:09.8Z</time></trkpt><trkpt lat="41.4147689" lon="1.4852637"><ele>677.0</ele><time>2026-04-05T10:47:10.8Z</time></trkpt><trkpt lat="41.414818" lon="1.4854088"><ele>677.5</ele><time>2026-04-05T10:47:11.799Z</time></trkpt><trkpt lat="41.4148902" lon="1.4855382"><ele>678.0</ele><time>2026-04-05T10:47:12.8Z</time></trkpt><trkpt lat="41.4149694" lon="1.4856651"><ele>678.5</ele><time>2026-04-05T10:47:13.799Z</time></trkpt><trkpt lat="41.4150513" lon="1.4857889"><ele>679.0</ele><time>2026-04-05T10:47:14.799Z</time></trkpt><trkpt lat="41.4151336" lon="1.4859127"><ele>679.0</ele><time>2026-04-05T10:47:15.799Z</time></trkpt><trkpt lat="41.4152129" lon="1.4860375"><ele>679.0</ele><time>2026-04-05T10:47:16.799Z</time></trkpt><trkpt lat="41.4152928" lon="1.4861569"><ele>679.0</ele><time>2026-04-05T10:47:17.8Z</time></trkpt><trkpt lat="41.4153687" lon="1.4862712"><ele>679.0</ele><time>2026-04-05T10:47:18.8Z</time></trkpt><trkpt lat="41.4154381" lon="1.4863822"><ele>679.0</ele><time>2026-04-05T10:47:19.799Z</time></trkpt><trkpt lat="41.4155039" lon="1.4864914"><ele>679.0</ele><time>2026-04-05T10:47:20.799Z</time></trkpt><trkpt lat="41.4155684" lon="1.4866202"><ele>679.0</ele><time>2026-04-05T10:47:21.8Z</time></trkpt><trkpt lat="41.4156223" lon="1.4867648"><ele>679.0</ele><time>2026-04-05T10:47:22.799Z</time></trkpt><trkpt lat="41.4156743" lon="1.4869351"><ele>679.6666666666667</ele><time>2026-04-05T10:47:23.8Z</time></trkpt><trkpt lat="41.415723" lon="1.4871276"><ele>680.3333333333334</ele><time>2026-04-05T10:47:24.799Z</time></trkpt><trkpt lat="41.4157712" lon="1.4873391"><ele>681.0</ele><time>2026-04-05T10:47:25.8Z</time></trkpt><trkpt lat="41.4158193" lon="1.4875737"><ele>681.0</ele><time>2026-04-05T10:47:26.799Z</time></trkpt><trkpt lat="41.4158684" lon="1.4878308"><ele>681.0</ele><time>2026-04-05T10:47:27.799Z</time></trkpt><trkpt lat="41.4159204" lon="1.4881202"><ele>681.0</ele><time>2026-04-05T10:47:28.8Z</time></trkpt><trkpt lat="41.4159768" lon="1.4884029"><ele>681.0</ele><time>2026-04-05T10:47:29.8Z</time></trkpt><trkpt lat="41.4160399" lon="1.488689"><ele>681.0</ele><time>2026-04-05T10:47:30.8Z</time></trkpt><trkpt lat="41.4161069" lon="1.4889714"><ele>681.0</ele><time>2026-04-05T10:47:31.799Z</time></trkpt><trkpt lat="41.4161688" lon="1.4892471"><ele>681.3333333333334</ele><time>2026-04-05T10:47:32.8Z</time></trkpt><trkpt lat="41.4162312" lon="1.4895192"><ele>681.6666666666667</ele><time>2026-04-05T10:47:33.799Z</time></trkpt><trkpt lat="41.4162947" lon="1.4897923"><ele>682.0</ele><time>2026-04-05T10:47:34.8Z</time></trkpt><trkpt lat="41.4163566" lon="1.4900593"><ele>681.3333333333334</ele><time>2026-04-05T10:47:35.799Z</time></trkpt><trkpt lat="41.4164323" lon="1.4903219"><ele>680.6666666666666</ele><time>2026-04-05T10:47:36.799Z</time></trkpt><trkpt lat="41.4165263" lon="1.4905844"><ele>680.0</ele><time>2026-04-05T10:47:37.799Z</time></trkpt><trkpt lat="41.4166384" lon="1.4908489"><ele>680.3333333333333</ele><time>2026-04-05T10:47:38.799Z</time></trkpt><trkpt lat="41.4167541" lon="1.4910901"><ele>680.6666666666666</ele><time>2026-04-05T10:47:39.799Z</time></trkpt><trkpt lat="41.4168584" lon="1.4913237"><ele>681.0</ele><time>2026-04-05T10:47:40.799Z</time></trkpt><trkpt lat="41.4169558" lon="1.4915456"><ele>681.0</ele><time>2026-04-05T10:47:41.8Z</time></trkpt><trkpt lat="41.4170557" lon="1.4917492"><ele>681.0</ele><time>2026-04-05T10:47:42.799Z</time></trkpt><trkpt lat="41.4171581" lon="1.4919451"><ele>681.0</ele><time>2026-04-05T10:47:43.8Z</time></trkpt><trkpt lat="41.4172536" lon="1.4921394"><ele>682.3333333333334</ele><time>2026-04-05T10:47:44.799Z</time></trkpt><trkpt lat="41.4173384" lon="1.4923278"><ele>683.6666666666667</ele><time>2026-04-05T10:47:45.8Z</time></trkpt><trkpt lat="41.4174206" lon="1.4925234"><ele>685.0</ele><time>2026-04-05T10:47:46.799Z</time></trkpt><trkpt lat="41.4175051" lon="1.492719"><ele>685.3333333333334</ele><time>2026-04-05T10:47:47.8Z</time></trkpt><trkpt lat="41.4175955" lon="1.4929264"><ele>685.6666666666666</ele><time>2026-04-05T10:47:48.799Z</time></trkpt><trkpt lat="41.4176905" lon="1.4931305"><ele>686.0</ele><time>2026-04-05T10:47:49.8Z</time></trkpt><trkpt lat="41.417805" lon="1.4933385"><ele>686.0</ele><time>2026-04-05T10:47:50.8Z</time></trkpt><trkpt lat="41.4179429" lon="1.4935511"><ele>686.0</ele><time>2026-04-05T10:47:51.799Z</time></trkpt><trkpt lat="41.4180783" lon="1.4937598"><ele>686.0</ele><time>2026-04-05T10:47:52.8Z</time></trkpt><trkpt lat="41.4182098" lon="1.4939576"><ele>684.3333333333333</ele><time>2026-04-05T10:47:53.8Z</time></trkpt><trkpt lat="41.4183411" lon="1.4941501"><ele>682.6666666666666</ele><time>2026-04-05T10:47:54.8Z</time></trkpt><trkpt lat="41.4184703" lon="1.49434"><ele>681.0</ele><time>2026-04-05T10:47:55.8Z</time></trkpt><trkpt lat="41.4186031" lon="1.4945232"><ele>680.0</ele><time>2026-04-05T10:47:56.8Z</time></trkpt><trkpt lat="41.418733" lon="1.4947095"><ele>679.0</ele><time>2026-04-05T10:47:57.799Z</time></trkpt><trkpt lat="41.4188691" lon="1.4948926"><ele>678.0</ele><time>2026-04-05T10:47:58.8Z</time></trkpt><trkpt lat="41.4189992" lon="1.4950831"><ele>678.0</ele><time>2026-04-05T10:47:59.8Z</time></trkpt><trkpt lat="41.4191183" lon="1.4952786"><ele>678.0</ele><time>2026-04-05T10:48:00.799Z</time></trkpt><trkpt lat="41.4192204" lon="1.4954864"><ele>678.0</ele><time>2026-04-05T10:48:01.8Z</time></trkpt><trkpt lat="41.4193088" lon="1.4957099"><ele>677.6666666666666</ele><time>2026-04-05T10:48:02.8Z</time></trkpt><trkpt lat="41.4193954" lon="1.4959462"><ele>677.3333333333333</ele><time>2026-04-05T10:48:03.8Z</time></trkpt><trkpt lat="41.4194912" lon="1.4962043"><ele>677.0</ele><time>2026-04-05T10:48:04.8Z</time></trkpt><trkpt lat="41.4195902" lon="1.4964658"><ele>677.3333333333333</ele><time>2026-04-05T10:48:05.8Z</time></trkpt><trkpt lat="41.4196795" lon="1.496716"><ele>677.6666666666666</ele><time>2026-04-05T10:48:06.799Z</time></trkpt><trkpt lat="41.4197663" lon="1.4969585"><ele>678.0</ele><time>2026-04-05T10:48:07.799Z</time></trkpt><trkpt lat="41.4198493" lon="1.4971803"><ele>676.3333333333334</ele><time>2026-04-05T10:48:08.799Z</time></trkpt><trkpt lat="41.4199237" lon="1.4973812"><ele>674.6666666666667</ele><time>2026-04-05T10:48:09.8Z</time></trkpt><trkpt lat="41.4199954" lon="1.4975686"><ele>673.0</ele><time>2026-04-05T10:48:10.799Z</time></trkpt><trkpt lat="41.42005" lon="1.4977258"><ele>673.0</ele><time>2026-04-05T10:48:11.8Z</time></trkpt><trkpt lat="41.4200777" lon="1.4978798"><ele>673.0</ele><time>2026-04-05T10:48:12.8Z</time></trkpt><trkpt lat="41.4200671" lon="1.4980385"><ele>673.0</ele><time>2026-04-05T10:48:13.799Z</time></trkpt><trkpt lat="41.4200091" lon="1.4982155"><ele>673.0</ele><time>2026-04-05T10:48:14.799Z</time></trkpt><trkpt lat="41.4199255" lon="1.4984145"><ele>672.3333333333334</ele><time>2026-04-05T10:48:15.8Z</time></trkpt><trkpt lat="41.4198306" lon="1.4986365"><ele>671.6666666666666</ele><time>2026-04-05T10:48:16.8Z</time></trkpt><trkpt lat="41.4197352" lon="1.4988694"><ele>671.0</ele><time>2026-04-05T10:48:17.799Z</time></trkpt><trkpt lat="41.4196428" lon="1.4990915"><ele>671.0</ele><time>2026-04-05T10:48:18.8Z</time></trkpt><trkpt lat="41.4195532" lon="1.499305"><ele>671.0</ele><time>2026-04-05T10:48:19.8Z</time></trkpt><trkpt lat="41.4194687" lon="1.4995062"><ele>671.0</ele><time>2026-04-05T10:48:20.799Z</time></trkpt><trkpt lat="41.4194015" lon="1.4996783"><ele>669.8</ele><time>2026-04-05T10:48:21.8Z</time></trkpt><trkpt lat="41.4193486" lon="1.499825"><ele>668.5999999999999</ele><time>2026-04-05T10:48:22.8Z</time></trkpt><trkpt lat="41.4192885" lon="1.4999374"><ele>667.4</ele><time>2026-04-05T10:48:23.799Z</time></trkpt><trkpt lat="41.4192125" lon="1.5000123"><ele>666.2</ele><time>2026-04-05T10:48:24.8Z</time></trkpt><trkpt lat="41.419109" lon="1.5000418"><ele>665.0</ele><time>2026-04-05T10:48:25.799Z</time></trkpt><trkpt lat="41.4189936" lon="1.500065"><ele>665.0</ele><time>2026-04-05T10:48:26.799Z</time></trkpt><trkpt lat="41.4188901" lon="1.5001152"><ele>665.0</ele><time>2026-04-05T10:48:27.8Z</time></trkpt><trkpt lat="41.4188024" lon="1.5002023"><ele>665.0</ele><time>2026-04-05T10:48:28.8Z</time></trkpt><trkpt lat="41.4187253" lon="1.5002972"><ele>665.0</ele><time>2026-04-05T10:48:29.8Z</time></trkpt><trkpt lat="41.4187023" lon="1.500411"><ele>665.0</ele><time>2026-04-05T10:48:30.799Z</time></trkpt><trkpt lat="41.4186677" lon="1.5005251"><ele>663.0</ele><time>2026-04-05T10:48:31.8Z</time></trkpt><trkpt lat="41.4186053" lon="1.500628"><ele>661.0</ele><time>2026-04-05T10:48:32.8Z</time></trkpt><trkpt lat="41.4185135" lon="1.5007017"><ele>659.0</ele><time>2026-04-05T10:48:33.8Z</time></trkpt><trkpt lat="41.4184072" lon="1.5007398"><ele>657.0</ele><time>2026-04-05T10:48:34.799Z</time></trkpt><trkpt lat="41.4183037" lon="1.5007756"><ele>655.0</ele><time>2026-04-05T10:48:35.799Z</time></trkpt><trkpt lat="41.418216" lon="1.5008338"><ele>655.0</ele><time>2026-04-05T10:48:36.8Z</time></trkpt><trkpt lat="41.4181506" lon="1.5009239"><ele>655.0</ele><time>2026-04-05T10:48:37.799Z</time></trkpt><trkpt lat="41.4181253" lon="1.5010387"><ele>655.0</ele><time>2026-04-05T10:48:38.799Z</time></trkpt><trkpt lat="41.418116" lon="1.5011731"><ele>655.0</ele><time>2026-04-05T10:48:39.8Z</time></trkpt><trkpt lat="41.418099" lon="1.5013234"><ele>655.0</ele><time>2026-04-05T10:48:40.8Z</time></trkpt><trkpt lat="41.4180607" lon="1.5014645"><ele>655.75</ele><time>2026-04-05T10:48:41.8Z</time></trkpt><trkpt lat="41.4179918" lon="1.5015939"><ele>656.5</ele><time>2026-04-05T10:48:42.799Z</time></trkpt><trkpt lat="41.4178987" lon="1.5017042"><ele>657.25</ele><time>2026-04-05T10:48:43.8Z</time></trkpt><trkpt lat="41.4177981" lon="1.5017983"><ele>658.0</ele><time>2026-04-05T10:48:44.799Z</time></trkpt><trkpt lat="41.4176983" lon="1.501884"><ele>658.0</ele><time>2026-04-05T10:48:45.799Z</time></trkpt><trkpt lat="41.4175988" lon="1.5019711"><ele>658.0</ele><time>2026-04-05T10:48:46.799Z</time></trkpt><trkpt lat="41.4175047" lon="1.5020807"><ele>658.0</ele><time>2026-04-05T10:48:47.799Z</time></trkpt><trkpt lat="41.4174371" lon="1.5022264"><ele>658.0</ele><time>2026-04-05T10:48:48.799Z</time></trkpt><trkpt lat="41.4173947" lon="1.5023904"><ele>656.0</ele><time>2026-04-05T10:48:49.8Z</time></trkpt><trkpt lat="41.4173747" lon="1.5025767"><ele>654.0</ele><time>2026-04-05T10:48:50.8Z</time></trkpt><trkpt lat="41.4173597" lon="1.5027773"><ele>652.0</ele><time>2026-04-05T10:48:51.799Z</time></trkpt><trkpt lat="41.4173472" lon="1.5029847"><ele>650.0</ele><time>2026-04-05T10:48:52.799Z</time></trkpt><trkpt lat="41.4173377" lon="1.5031901"><ele>649.25</ele><time>2026-04-05T10:48:53.8Z</time></trkpt><trkpt lat="41.4173329" lon="1.5033895"><ele>648.5</ele><time>2026-04-05T10:48:54.799Z</time></trkpt><trkpt lat="41.4173244" lon="1.5035866"><ele>647.75</ele><time>2026-04-05T10:48:55.799Z</time></trkpt><trkpt lat="41.4172961" lon="1.5037807"><ele>647.0</ele><time>2026-04-05T10:48:56.799Z</time></trkpt><trkpt lat="41.4172555" lon="1.5039804"><ele>645.3333333333333</ele><time>2026-04-05T10:48:57.799Z</time></trkpt><trkpt lat="41.4172109" lon="1.5041848"><ele>643.6666666666666</ele><time>2026-04-05T10:48:58.799Z</time></trkpt><trkpt lat="41.4171626" lon="1.5043888"><ele>642.0</ele><time>2026-04-05T10:48:59.799Z</time></trkpt><trkpt lat="41.4171155" lon="1.5045873"><ele>642.0</ele><time>2026-04-05T10:49:00.799Z</time></trkpt><trkpt lat="41.4170701" lon="1.5047762"><ele>642.0</ele><time>2026-04-05T10:49:01.799Z</time></trkpt><trkpt lat="41.4170246" lon="1.5049571"><ele>642.0</ele><time>2026-04-05T10:49:02.799Z</time></trkpt><trkpt lat="41.4169763" lon="1.5051334"><ele>642.0</ele><time>2026-04-05T10:49:03.799Z</time></trkpt><trkpt lat="41.4169273" lon="1.505311"><ele>641.2</ele><time>2026-04-05T10:49:04.8Z</time></trkpt><trkpt lat="41.4168811" lon="1.5054768"><ele>640.4000000000001</ele><time>2026-04-05T10:49:05.8Z</time></trkpt><trkpt lat="41.4168431" lon="1.5056224"><ele>639.5999999999999</ele><time>2026-04-05T10:49:06.799Z</time></trkpt><trkpt lat="41.4168257" lon="1.5057466"><ele>638.8</ele><time>2026-04-05T10:49:07.8Z</time></trkpt><trkpt lat="41.4168295" lon="1.5058562"><ele>638.0</ele><time>2026-04-05T10:49:08.8Z</time></trkpt><trkpt lat="41.4168861" lon="1.5059286"><ele>638.0</ele><time>2026-04-05T10:49:09.8Z</time></trkpt><trkpt lat="41.4169722" lon="1.5059676"><ele>638.0</ele><time>2026-04-05T10:49:10.8Z</time></trkpt><trkpt lat="41.4170847" lon="1.5060085"><ele>638.0</ele><time>2026-04-05T10:49:11.799Z</time></trkpt><trkpt lat="41.4172065" lon="1.5060629"><ele>638.0</ele><time>2026-04-05T10:49:12.8Z</time></trkpt><trkpt lat="41.4173392" lon="1.5061272"><ele>637.25</ele><time>2026-04-05T10:49:13.8Z</time></trkpt><trkpt lat="41.4174675" lon="1.5061939"><ele>636.5</ele><time>2026-04-05T10:49:14.8Z</time></trkpt><trkpt lat="41.4175921" lon="1.5062561"><ele>635.75</ele><time>2026-04-05T10:49:15.8Z</time></trkpt><trkpt lat="41.417706" lon="1.5063358"><ele>635.0</ele><time>2026-04-05T10:49:16.799Z</time></trkpt><trkpt lat="41.4178043" lon="1.5064432"><ele>634.25</ele><time>2026-04-05T10:49:17.799Z</time></trkpt><trkpt lat="41.4178893" lon="1.5065703"><ele>633.5</ele><time>2026-04-05T10:49:18.8Z</time></trkpt><trkpt lat="41.4179596" lon="1.5067056"><ele>632.75</ele><time>2026-04-05T10:49:19.799Z</time></trkpt><trkpt lat="41.4180084" lon="1.5068635"><ele>632.0</ele><time>2026-04-05T10:49:20.8Z</time></trkpt><trkpt lat="41.4180336" lon="1.5070361"><ele>631.6666666666666</ele><time>2026-04-05T10:49:21.8Z</time></trkpt><trkpt lat="41.4180358" lon="1.5072259"><ele>631.3333333333334</ele><time>2026-04-05T10:49:22.8Z</time></trkpt><trkpt lat="41.4180197" lon="1.5074273"><ele>631.0</ele><time>2026-04-05T10:49:23.799Z</time></trkpt><trkpt lat="41.417983" lon="1.5076358"><ele>639.3333333333334</ele><time>2026-04-05T10:49:24.8Z</time></trkpt><trkpt lat="41.4179316" lon="1.5078524"><ele>647.6666666666666</ele><time>2026-04-05T10:49:25.8Z</time></trkpt><trkpt lat="41.4178802" lon="1.508075"><ele>656.0</ele><time>2026-04-05T10:49:26.799Z</time></trkpt><trkpt lat="41.4178258" lon="1.5082919"><ele>656.0</ele><time>2026-04-05T10:49:27.8Z</time></trkpt><trkpt lat="41.4177578" lon="1.5084973"><ele>656.0</ele><time>2026-04-05T10:49:28.799Z</time></trkpt><trkpt lat="41.4176764" lon="1.5086961"><ele>656.0</ele><time>2026-04-05T10:49:29.799Z</time></trkpt><trkpt lat="41.417601" lon="1.5088969"><ele>652.3333333333333</ele><time>2026-04-05T10:49:30.8Z</time></trkpt><trkpt lat="41.4175429" lon="1.5091114"><ele>648.6666666666666</ele><time>2026-04-05T10:49:31.799Z</time></trkpt><trkpt lat="41.4175023" lon="1.5093527"><ele>645.0</ele><time>2026-04-05T10:49:32.799Z</time></trkpt><trkpt lat="41.4174844" lon="1.509609"><ele>644.3333333333334</ele><time>2026-04-05T10:49:33.8Z</time></trkpt><trkpt lat="41.4174804" lon="1.5098591"><ele>643.6666666666667</ele><time>2026-04-05T10:49:34.8Z</time></trkpt><trkpt lat="41.4174681" lon="1.5101015"><ele>643.0</ele><time>2026-04-05T10:49:35.799Z</time></trkpt><trkpt lat="41.4174513" lon="1.5103357"><ele>642.0</ele><time>2026-04-05T10:49:36.8Z</time></trkpt><trkpt lat="41.4174365" lon="1.5105702"><ele>641.0</ele><time>2026-04-05T10:49:37.8Z</time></trkpt><trkpt lat="41.4174261" lon="1.510799"><ele>640.0</ele><time>2026-04-05T10:49:38.799Z</time></trkpt><trkpt lat="41.4174176" lon="1.5110186"><ele>640.0</ele><time>2026-04-05T10:49:39.8Z</time></trkpt><trkpt lat="41.4174053" lon="1.5112254"><ele>640.0</ele><time>2026-04-05T10:49:40.799Z</time></trkpt><trkpt lat="41.4173867" lon="1.5114156"><ele>640.0</ele><time>2026-04-05T10:49:41.799Z</time></trkpt><trkpt lat="41.4173442" lon="1.5115822"><ele>640.0</ele><time>2026-04-05T10:49:42.8Z</time></trkpt><trkpt lat="41.4172654" lon="1.5117223"><ele>638.3333333333334</ele><time>2026-04-05T10:49:43.8Z</time></trkpt><trkpt lat="41.4171549" lon="1.5118411"><ele>636.6666666666666</ele><time>2026-04-05T10:49:44.8Z</time></trkpt><trkpt lat="41.4170307" lon="1.5119496"><ele>635.0</ele><time>2026-04-05T10:49:45.799Z</time></trkpt><trkpt lat="41.4168915" lon="1.5120703"><ele>633.6666666666666</ele><time>2026-04-05T10:49:46.8Z</time></trkpt><trkpt lat="41.4167448" lon="1.5121961"><ele>632.3333333333334</ele><time>2026-04-05T10:49:47.799Z</time></trkpt><trkpt lat="41.4165985" lon="1.5123129"><ele>631.0</ele><time>2026-04-05T10:49:48.799Z</time></trkpt><trkpt lat="41.4164574" lon="1.5124261"><ele>634.3333333333334</ele><time>2026-04-05T10:49:49.8Z</time></trkpt><trkpt lat="41.4163189" lon="1.5125378"><ele>637.6666666666666</ele><time>2026-04-05T10:49:50.799Z</time></trkpt><trkpt lat="41.416184" lon="1.5126525"><ele>641.0</ele><time>2026-04-05T10:49:51.799Z</time></trkpt><trkpt lat="41.4160589" lon="1.5127797"><ele>637.0</ele><time>2026-04-05T10:49:52.799Z</time></trkpt><trkpt lat="41.4159536" lon="1.5129298"><ele>633.0</ele><time>2026-04-05T10:49:53.799Z</time></trkpt><trkpt lat="41.4158564" lon="1.5131032"><ele>629.0</ele><time>2026-04-05T10:49:54.8Z</time></trkpt><trkpt lat="41.4157591" lon="1.5132676"><ele>629.0</ele><time>2026-04-05T10:49:55.8Z</time></trkpt><trkpt lat="41.4156646" lon="1.5134276"><ele>629.0</ele><time>2026-04-05T10:49:56.8Z</time></trkpt><trkpt lat="41.4155664" lon="1.5135621"><ele>629.0</ele><time>2026-04-05T10:49:57.8Z</time></trkpt><trkpt lat="41.4154555" lon="1.5136774"><ele>629.0</ele><time>2026-04-05T10:49:58.799Z</time></trkpt><trkpt lat="41.4153338" lon="1.5137683"><ele>626.75</ele><time>2026-04-05T10:49:59.8Z</time></trkpt><trkpt lat="41.4152122" lon="1.5138527"><ele>624.5</ele><time>2026-04-05T10:50:00.799Z</time></trkpt><trkpt lat="41.4150901" lon="1.513922"><ele>622.25</ele><time>2026-04-05T10:50:01.8Z</time></trkpt><trkpt lat="41.4149596" lon="1.5139663"><ele>620.0</ele><time>2026-04-05T10:50:02.8Z</time></trkpt><trkpt lat="41.4148191" lon="1.5139819"><ele>620.0</ele><time>2026-04-05T10:50:03.8Z</time></trkpt><trkpt lat="41.4146698" lon="1.5139804"><ele>620.0</ele><time>2026-04-05T10:50:04.8Z</time></trkpt><trkpt lat="41.4145317" lon="1.5139726"><ele>620.0</ele><time>2026-04-05T10:50:05.799Z</time></trkpt><trkpt lat="41.4143956" lon="1.5139524"><ele>620.0</ele><time>2026-04-05T10:50:06.799Z</time></trkpt><trkpt lat="41.4142679" lon="1.5139104"><ele>618.5</ele><time>2026-04-05T10:50:07.8Z</time></trkpt><trkpt lat="41.414152" lon="1.513835"><ele>617.0</ele><time>2026-04-05T10:50:08.799Z</time></trkpt><trkpt lat="41.4140482" lon="1.5137301"><ele>615.5</ele><time>2026-04-05T10:50:09.799Z</time></trkpt><trkpt lat="41.4139513" lon="1.5136237"><ele>614.0</ele><time>2026-04-05T10:50:10.8Z</time></trkpt><trkpt lat="41.4138535" lon="1.5135413"><ele>616.2</ele><time>2026-04-05T10:50:11.8Z</time></trkpt><trkpt lat="41.4137487" lon="1.5135072"><ele>618.4</ele><time>2026-04-05T10:50:12.799Z</time></trkpt><trkpt lat="41.4136462" lon="1.513519"><ele>620.6</ele><time>2026-04-05T10:50:13.799Z</time></trkpt><trkpt lat="41.4135466" lon="1.513529"><ele>622.8</ele><time>2026-04-05T10:50:14.799Z</time></trkpt><trkpt lat="41.4134433" lon="1.5135918"><ele>625.0</ele><time>2026-04-05T10:50:15.8Z</time></trkpt><trkpt lat="41.4133541" lon="1.5136619"><ele>625.0</ele><time>2026-04-05T10:50:16.799Z</time></trkpt><trkpt lat="41.4132638" lon="1.5137282"><ele>625.0</ele><time>2026-04-05T10:50:17.8Z</time></trkpt><trkpt lat="41.4131718" lon="1.5137681"><ele>625.0</ele><time>2026-04-05T10:50:18.8Z</time></trkpt><trkpt lat="41.4130853" lon="1.5137815"><ele>625.0</ele><time>2026-04-05T10:50:19.8Z</time></trkpt><trkpt lat="41.4130023" lon="1.5137785"><ele>625.0</ele><time>2026-04-05T10:50:20.8Z</time></trkpt><trkpt lat="41.4129248" lon="1.5137752"><ele>625.0</ele><time>2026-04-05T10:50:21.8Z</time></trkpt><trkpt lat="41.4128587" lon="1.5137853"><ele>624.0</ele><time>2026-04-05T10:50:22.799Z</time></trkpt><trkpt lat="41.4127642" lon="1.5138762"><ele>623.0</ele><time>2026-04-05T10:50:24.799Z</time></trkpt><trkpt lat="41.4127549" lon="1.5140233"><ele>622.0</ele><time>2026-04-05T10:50:26.799Z</time></trkpt><trkpt lat="41.4128295" lon="1.5141258"><ele>621.0</ele><time>2026-04-05T10:50:28.799Z</time></trkpt><trkpt lat="41.4129391" lon="1.5141946"><ele>619.6666666666666</ele><time>2026-04-05T10:50:30.8Z</time></trkpt><trkpt lat="41.4130602" lon="1.5142564"><ele>618.3333333333334</ele><time>2026-04-05T10:50:32.8Z</time></trkpt><trkpt lat="41.4131238" lon="1.5142895"><ele>617.0</ele><time>2026-04-05T10:50:33.799Z</time></trkpt><trkpt lat="41.4131929" lon="1.5143118"><ele>615.6666666666667</ele><time>2026-04-05T10:50:34.799Z</time></trkpt><trkpt lat="41.4132635" lon="1.5143196"><ele>614.3333333333334</ele><time>2026-04-05T10:50:35.8Z</time></trkpt><trkpt lat="41.4133401" lon="1.5143068"><ele>613.0</ele><time>2026-04-05T10:50:36.799Z</time></trkpt><trkpt lat="41.413415" lon="1.5142819"><ele>613.0</ele><time>2026-04-05T10:50:37.799Z</time></trkpt><trkpt lat="41.413489" lon="1.5142647"><ele>613.0</ele><time>2026-04-05T10:50:38.8Z</time></trkpt><trkpt lat="41.4135638" lon="1.5142694"><ele>613.0</ele><time>2026-04-05T10:50:39.799Z</time></trkpt><trkpt lat="41.4136324" lon="1.5143024"><ele>613.0</ele><time>2026-04-05T10:50:40.799Z</time></trkpt><trkpt lat="41.4136929" lon="1.5143568"><ele>613.0</ele><time>2026-04-05T10:50:41.8Z</time></trkpt><trkpt lat="41.4137491" lon="1.5144108"><ele>613.0</ele><time>2026-04-05T10:50:42.799Z</time></trkpt><trkpt lat="41.4138068" lon="1.5144588"><ele>613.0</ele><time>2026-04-05T10:50:43.8Z</time></trkpt><trkpt lat="41.4138668" lon="1.5145111"><ele>613.1666666666667</ele><time>2026-04-05T10:50:44.8Z</time></trkpt><trkpt lat="41.4139229" lon="1.5145699"><ele>613.3333333333334</ele><time>2026-04-05T10:50:45.799Z</time></trkpt><trkpt lat="41.4139816" lon="1.5146308"><ele>613.5</ele><time>2026-04-05T10:50:46.799Z</time></trkpt><trkpt lat="41.4140398" lon="1.5146894"><ele>613.6666666666666</ele><time>2026-04-05T10:50:47.8Z</time></trkpt><trkpt lat="41.4141005" lon="1.5147505"><ele>613.8333333333333</ele><time>2026-04-05T10:50:48.799Z</time></trkpt><trkpt lat="41.4141619" lon="1.514809"><ele>614.0</ele><time>2026-04-05T10:50:49.8Z</time></trkpt><trkpt lat="41.4142262" lon="1.514871"><ele>612.6666666666666</ele><time>2026-04-05T10:50:50.8Z</time></trkpt><trkpt lat="41.4142898" lon="1.5149321"><ele>611.3333333333333</ele><time>2026-04-05T10:50:51.799Z</time></trkpt><trkpt lat="41.4143533" lon="1.5150007"><ele>610.0</ele><time>2026-04-05T10:50:52.799Z</time></trkpt><trkpt lat="41.4144059" lon="1.5150975"><ele>608.6666666666666</ele><time>2026-04-05T10:50:53.799Z</time></trkpt><trkpt lat="41.4144448" lon="1.5152091"><ele>607.3333333333334</ele><time>2026-04-05T10:50:54.8Z</time></trkpt><trkpt lat="41.4144659" lon="1.5153326"><ele>606.0</ele><time>2026-04-05T10:50:55.8Z</time></trkpt><trkpt lat="41.4144701" lon="1.5154617"><ele>606.0</ele><time>2026-04-05T10:50:56.8Z</time></trkpt><trkpt lat="41.4144739" lon="1.5155865"><ele>606.0</ele><time>2026-04-05T10:50:57.8Z</time></trkpt><trkpt lat="41.414479" lon="1.5157081"><ele>606.0</ele><time>2026-04-05T10:50:58.8Z</time></trkpt><trkpt lat="41.4144922" lon="1.5158232"><ele>606.0</ele><time>2026-04-05T10:50:59.799Z</time></trkpt><trkpt lat="41.4145198" lon="1.5159325"><ele>606.0</ele><time>2026-04-05T10:51:00.799Z</time></trkpt><trkpt lat="41.4145582" lon="1.516027"><ele>606.0</ele><time>2026-04-05T10:51:01.8Z</time></trkpt><trkpt lat="41.4146066" lon="1.5161116"><ele>604.0</ele><time>2026-04-05T10:51:02.799Z</time></trkpt><trkpt lat="41.4146639" lon="1.5161877"><ele>602.0</ele><time>2026-04-05T10:51:03.8Z</time></trkpt><trkpt lat="41.4147159" lon="1.5162454"><ele>600.0</ele><time>2026-04-05T10:51:04.8Z</time></trkpt><trkpt lat="41.4148237" lon="1.5163306"><ele>598.0</ele><time>2026-04-05T10:51:06.8Z</time></trkpt><trkpt lat="41.414879" lon="1.516378"><ele>596.0</ele><time>2026-04-05T10:51:07.799Z</time></trkpt><trkpt lat="41.4149337" lon="1.5164324"><ele>594.0</ele><time>2026-04-05T10:51:08.8Z</time></trkpt><trkpt lat="41.4149868" lon="1.5164993"><ele>594.0</ele><time>2026-04-05T10:51:09.799Z</time></trkpt><trkpt lat="41.4150269" lon="1.5165808"><ele>594.0</ele><time>2026-04-05T10:51:10.799Z</time></trkpt><trkpt lat="41.4150543" lon="1.5166731"><ele>594.0</ele><time>2026-04-05T10:51:11.799Z</time></trkpt><trkpt lat="41.4150619" lon="1.5167572"><ele>594.0</ele><time>2026-04-05T10:51:12.8Z</time></trkpt><trkpt lat="41.4150613" lon="1.516856"><ele>594.0</ele><time>2026-04-05T10:51:14.8Z</time></trkpt><trkpt lat="41.4150581" lon="1.5169541"><ele>594.0</ele><time>2026-04-05T10:51:16.799Z</time></trkpt><trkpt lat="41.4150616" lon="1.5170768"><ele>594.1666666666666</ele><time>2026-04-05T10:51:18.8Z</time></trkpt><trkpt lat="41.4150509" lon="1.5172371"><ele>594.3333333333334</ele><time>2026-04-05T10:51:20.799Z</time></trkpt><trkpt lat="41.415043" lon="1.5173312"><ele>594.5</ele><time>2026-04-05T10:51:21.799Z</time></trkpt><trkpt lat="41.4150361" lon="1.5174297"><ele>594.6666666666667</ele><time>2026-04-05T10:51:22.8Z</time></trkpt><trkpt lat="41.4150286" lon="1.5175389"><ele>594.8333333333334</ele><time>2026-04-05T10:51:23.799Z</time></trkpt><trkpt lat="41.4150253" lon="1.5176531"><ele>595.0</ele><time>2026-04-05T10:51:24.799Z</time></trkpt><trkpt lat="41.4150198" lon="1.517771"><ele>595.0</ele><time>2026-04-05T10:51:25.8Z</time></trkpt><trkpt lat="41.4150126" lon="1.5178933"><ele>595.0</ele><time>2026-04-05T10:51:26.799Z</time></trkpt><trkpt lat="41.4150039" lon="1.518004"><ele>595.0</ele><time>2026-04-05T10:51:27.799Z</time></trkpt><trkpt lat="41.4149944" lon="1.5181126"><ele>595.0</ele><time>2026-04-05T10:51:28.8Z</time></trkpt><trkpt lat="41.414991" lon="1.5182206"><ele>595.0</ele><time>2026-04-05T10:51:29.799Z</time></trkpt><trkpt lat="41.4149846" lon="1.5183229"><ele>595.0</ele><time>2026-04-05T10:51:30.8Z</time></trkpt><trkpt lat="41.4149766" lon="1.5184256"><ele>593.6666666666667</ele><time>2026-04-05T10:51:31.799Z</time></trkpt><trkpt lat="41.4149651" lon="1.518535"><ele>592.3333333333334</ele><time>2026-04-05T10:51:32.8Z</time></trkpt><trkpt lat="41.414958" lon="1.5186491"><ele>591.0</ele><time>2026-04-05T10:51:33.799Z</time></trkpt><trkpt lat="41.4149524" lon="1.5187674"><ele>589.6666666666666</ele><time>2026-04-05T10:51:34.799Z</time></trkpt><trkpt lat="41.4149501" lon="1.5188908"><ele>588.3333333333333</ele><time>2026-04-05T10:51:35.8Z</time></trkpt><trkpt lat="41.4149443" lon="1.5190068"><ele>587.0</ele><time>2026-04-05T10:51:36.8Z</time></trkpt><trkpt lat="41.4149365" lon="1.5191187"><ele>586.5</ele><time>2026-04-05T10:51:37.8Z</time></trkpt><trkpt lat="41.4149311" lon="1.5192239"><ele>586.0</ele><time>2026-04-05T10:51:38.8Z</time></trkpt><trkpt lat="41.4149183" lon="1.5193269"><ele>585.5</ele><time>2026-04-05T10:51:39.8Z</time></trkpt><trkpt lat="41.4149026" lon="1.5194249"><ele>585.0</ele><time>2026-04-05T10:51:40.799Z</time></trkpt><trkpt lat="41.4148861" lon="1.5195244"><ele>584.5</ele><time>2026-04-05T10:51:41.799Z</time></trkpt><trkpt lat="41.4148722" lon="1.5196343"><ele>584.0</ele><time>2026-04-05T10:51:42.8Z</time></trkpt><trkpt lat="41.4148684" lon="1.519752"><ele>583.25</ele><time>2026-04-05T10:51:43.799Z</time></trkpt><trkpt lat="41.4148827" lon="1.5198907"><ele>582.5</ele><time>2026-04-05T10:51:44.799Z</time></trkpt><trkpt lat="41.4149182" lon="1.5200431"><ele>581.75</ele><time>2026-04-05T10:51:45.8Z</time></trkpt><trkpt lat="41.4149679" lon="1.5201831"><ele>581.0</ele><time>2026-04-05T10:51:46.8Z</time></trkpt><trkpt lat="41.4150146" lon="1.5203184"><ele>580.8</ele><time>2026-04-05T10:51:47.799Z</time></trkpt><trkpt lat="41.4150361" lon="1.520459"><ele>580.6</ele><time>2026-04-05T10:51:48.799Z</time></trkpt><trkpt lat="41.4150207" lon="1.5205913"><ele>580.4</ele><time>2026-04-05T10:51:49.8Z</time></trkpt><trkpt lat="41.4149762" lon="1.5207164"><ele>580.2</ele><time>2026-04-05T10:51:50.8Z</time></trkpt><trkpt lat="41.4149117" lon="1.5208418"><ele>580.0</ele><time>2026-04-05T10:51:51.8Z</time></trkpt><trkpt lat="41.4148468" lon="1.5209706"><ele>580.0</ele><time>2026-04-05T10:51:52.799Z</time></trkpt><trkpt lat="41.4147921" lon="1.5210998"><ele>580.0</ele><time>2026-04-05T10:51:53.799Z</time></trkpt><trkpt lat="41.4147584" lon="1.5212391"><ele>580.0</ele><time>2026-04-05T10:51:54.799Z</time></trkpt><trkpt lat="41.4147445" lon="1.5213706"><ele>580.0</ele><time>2026-04-05T10:51:55.8Z</time></trkpt><trkpt lat="41.4147959" lon="1.5215299"><ele>579.8</ele><time>2026-04-05T10:51:56.799Z</time></trkpt><trkpt lat="41.4148415" lon="1.5216732"><ele>579.6</ele><time>2026-04-05T10:51:57.799Z</time></trkpt><trkpt lat="41.4148994" lon="1.5217999"><ele>579.4</ele><time>2026-04-05T10:51:58.799Z</time></trkpt><trkpt lat="41.4149452" lon="1.5219273"><ele>579.2</ele><time>2026-04-05T10:51:59.8Z</time></trkpt><trkpt lat="41.4149735" lon="1.522064"><ele>579.0</ele><time>2026-04-05T10:52:00.8Z</time></trkpt><trkpt lat="41.4149706" lon="1.5222029"><ele>578.75</ele><time>2026-04-05T10:52:01.8Z</time></trkpt><trkpt lat="41.4149348" lon="1.5223519"><ele>578.5</ele><time>2026-04-05T10:52:02.8Z</time></trkpt><trkpt lat="41.4148677" lon="1.5224911"><ele>578.25</ele><time>2026-04-05T10:52:03.8Z</time></trkpt><trkpt lat="41.4147911" lon="1.522631"><ele>578.0</ele><time>2026-04-05T10:52:04.799Z</time></trkpt><trkpt lat="41.4147103" lon="1.5227821"><ele>582.5</ele><time>2026-04-05T10:52:05.799Z</time></trkpt><trkpt lat="41.414634" lon="1.5229302"><ele>587.0</ele><time>2026-04-05T10:52:06.799Z</time></trkpt><trkpt lat="41.414566" lon="1.5230843"><ele>591.5</ele><time>2026-04-05T10:52:07.8Z</time></trkpt><trkpt lat="41.4145027" lon="1.5232339"><ele>596.0</ele><time>2026-04-05T10:52:08.799Z</time></trkpt><trkpt lat="41.4144583" lon="1.5233946"><ele>596.0</ele><time>2026-04-05T10:52:09.8Z</time></trkpt><trkpt lat="41.4144245" lon="1.5235549"><ele>596.0</ele><time>2026-04-05T10:52:10.8Z</time></trkpt><trkpt lat="41.4143895" lon="1.5237135"><ele>596.0</ele><time>2026-04-05T10:52:11.8Z</time></trkpt><trkpt lat="41.4143503" lon="1.5238668"><ele>596.0</ele><time>2026-04-05T10:52:12.799Z</time></trkpt><trkpt lat="41.4143028" lon="1.5240192"><ele>590.0</ele><time>2026-04-05T10:52:13.799Z</time></trkpt><trkpt lat="41.4142582" lon="1.5241681"><ele>584.0</ele><time>2026-04-05T10:52:14.799Z</time></trkpt><trkpt lat="41.4142314" lon="1.5243242"><ele>578.0</ele><time>2026-04-05T10:52:15.799Z</time></trkpt><trkpt lat="41.4142302" lon="1.524495"><ele>572.0</ele><time>2026-04-05T10:52:16.799Z</time></trkpt><trkpt lat="41.4142504" lon="1.524671"><ele>569.75</ele><time>2026-04-05T10:52:17.799Z</time></trkpt><trkpt lat="41.4142722" lon="1.5248437"><ele>567.5</ele><time>2026-04-05T10:52:18.799Z</time></trkpt><trkpt lat="41.414282" lon="1.5250146"><ele>565.25</ele><time>2026-04-05T10:52:19.799Z</time></trkpt><trkpt lat="41.414259" lon="1.5251847"><ele>563.0</ele><time>2026-04-05T10:52:20.799Z</time></trkpt><trkpt lat="41.4142165" lon="1.5253612"><ele>560.5</ele><time>2026-04-05T10:52:21.8Z</time></trkpt><trkpt lat="41.4141593" lon="1.5255303"><ele>558.0</ele><time>2026-04-05T10:52:22.8Z</time></trkpt><trkpt lat="41.4140868" lon="1.5256901"><ele>555.5</ele><time>2026-04-05T10:52:23.799Z</time></trkpt><trkpt lat="41.4140032" lon="1.5258403"><ele>553.0</ele><time>2026-04-05T10:52:24.799Z</time></trkpt><trkpt lat="41.4139155" lon="1.5259913"><ele>553.0</ele><time>2026-04-05T10:52:25.799Z</time></trkpt><trkpt lat="41.4138221" lon="1.5261539"><ele>553.0</ele><time>2026-04-05T10:52:26.8Z</time></trkpt><trkpt lat="41.4137279" lon="1.5263161"><ele>553.0</ele><time>2026-04-05T10:52:27.799Z</time></trkpt><trkpt lat="41.4136317" lon="1.5264812"><ele>553.3333333333334</ele><time>2026-04-05T10:52:28.799Z</time></trkpt><trkpt lat="41.4135312" lon="1.5266514"><ele>553.6666666666666</ele><time>2026-04-05T10:52:29.799Z</time></trkpt><trkpt lat="41.4134298" lon="1.5268189"><ele>554.0</ele><time>2026-04-05T10:52:30.8Z</time></trkpt><trkpt lat="41.4133089" lon="1.5269758"><ele>552.3333333333333</ele><time>2026-04-05T10:52:31.8Z</time></trkpt><trkpt lat="41.4131823" lon="1.5271226"><ele>550.6666666666666</ele><time>2026-04-05T10:52:32.8Z</time></trkpt><trkpt lat="41.4130394" lon="1.5272671"><ele>549.0</ele><time>2026-04-05T10:52:33.8Z</time></trkpt><trkpt lat="41.4128918" lon="1.5274186"><ele>549.0</ele><time>2026-04-05T10:52:34.8Z</time></trkpt><trkpt lat="41.4127494" lon="1.5275685"><ele>549.0</ele><time>2026-04-05T10:52:35.799Z</time></trkpt><trkpt lat="41.4126075" lon="1.5277126"><ele>549.0</ele><time>2026-04-05T10:52:36.799Z</time></trkpt><trkpt lat="41.412471" lon="1.5278592"><ele>546.0</ele><time>2026-04-05T10:52:37.799Z</time></trkpt><trkpt lat="41.4123296" lon="1.5279915"><ele>543.0</ele><time>2026-04-05T10:52:38.799Z</time></trkpt><trkpt lat="41.4121628" lon="1.5281128"><ele>540.0</ele><time>2026-04-05T10:52:39.799Z</time></trkpt><trkpt lat="41.4119701" lon="1.5282167"><ele>540.0</ele><time>2026-04-05T10:52:40.8Z</time></trkpt><trkpt lat="41.4117707" lon="1.5283164"><ele>540.0</ele><time>2026-04-05T10:52:41.799Z</time></trkpt><trkpt lat="41.4115762" lon="1.5284405"><ele>540.0</ele><time>2026-04-05T10:52:42.8Z</time></trkpt><trkpt lat="41.4113869" lon="1.528579"><ele>539.0</ele><time>2026-04-05T10:52:43.8Z</time></trkpt><trkpt lat="41.4112047" lon="1.5287248"><ele>538.0</ele><time>2026-04-05T10:52:44.799Z</time></trkpt><trkpt lat="41.411024" lon="1.5288652"><ele>537.0</ele><time>2026-04-05T10:52:45.8Z</time></trkpt><trkpt lat="41.4108524" lon="1.5290122"><ele>537.0</ele><time>2026-04-05T10:52:46.799Z</time></trkpt><trkpt lat="41.4106947" lon="1.5291703"><ele>537.0</ele><time>2026-04-05T10:52:47.799Z</time></trkpt><trkpt lat="41.4105572" lon="1.5293455"><ele>537.0</ele><time>2026-04-05T10:52:48.799Z</time></trkpt><trkpt lat="41.4104295" lon="1.5295206"><ele>536.3333333333334</ele><time>2026-04-05T10:52:49.799Z</time></trkpt><trkpt lat="41.4103047" lon="1.5296805"><ele>535.6666666666667</ele><time>2026-04-05T10:52:50.799Z</time></trkpt><trkpt lat="41.4101784" lon="1.5298161"><ele>535.0</ele><time>2026-04-05T10:52:51.799Z</time></trkpt><trkpt lat="41.4100662" lon="1.5299309"><ele>535.0</ele><time>2026-04-05T10:52:52.799Z</time></trkpt><trkpt lat="41.4099709" lon="1.530064"><ele>535.0</ele><time>2026-04-05T10:52:53.8Z</time></trkpt><trkpt lat="41.409901" lon="1.5302106"><ele>535.0</ele><time>2026-04-05T10:52:54.799Z</time></trkpt><trkpt lat="41.4098186" lon="1.5303385"><ele>535.0</ele><time>2026-04-05T10:52:55.799Z</time></trkpt><trkpt lat="41.409711" lon="1.530425"><ele>534.75</ele><time>2026-04-05T10:52:56.799Z</time></trkpt><trkpt lat="41.4095788" lon="1.5304662"><ele>534.5</ele><time>2026-04-05T10:52:57.799Z</time></trkpt><trkpt lat="41.4094382" lon="1.5304864"><ele>534.25</ele><time>2026-04-05T10:52:58.799Z</time></trkpt><trkpt lat="41.4093092" lon="1.5305275"><ele>534.0</ele><time>2026-04-05T10:52:59.799Z</time></trkpt><trkpt lat="41.4091971" lon="1.530607"><ele>534.0</ele><time>2026-04-05T10:53:00.8Z</time></trkpt><trkpt lat="41.4090924" lon="1.5307169"><ele>534.0</ele><time>2026-04-05T10:53:01.8Z</time></trkpt><trkpt lat="41.4090023" lon="1.5308595"><ele>534.0</ele><time>2026-04-05T10:53:02.8Z</time></trkpt><trkpt lat="41.4089325" lon="1.5310347"><ele>534.0</ele><time>2026-04-05T10:53:03.8Z</time></trkpt><trkpt lat="41.4088757" lon="1.5312022"><ele>532.3333333333334</ele><time>2026-04-05T10:53:04.799Z</time></trkpt><trkpt lat="41.4088322" lon="1.5313999"><ele>530.6666666666667</ele><time>2026-04-05T10:53:05.8Z</time></trkpt><trkpt lat="41.4087333" lon="1.5315696"><ele>529.0</ele><time>2026-04-05T10:53:06.8Z</time></trkpt><trkpt lat="41.4086152" lon="1.5317293"><ele>529.0</ele><time>2026-04-05T10:53:07.8Z</time></trkpt><trkpt lat="41.408473" lon="1.5318752"><ele>529.0</ele><time>2026-04-05T10:53:08.8Z</time></trkpt><trkpt lat="41.4083091" lon="1.5320131"><ele>529.0</ele><time>2026-04-05T10:53:09.799Z</time></trkpt><trkpt lat="41.4081486" lon="1.5321286"><ele>526.0</ele><time>2026-04-05T10:53:10.799Z</time></trkpt><trkpt lat="41.4079828" lon="1.5322228"><ele>523.0</ele><time>2026-04-05T10:53:11.8Z</time></trkpt><trkpt lat="41.4078205" lon="1.5323015"><ele>520.0</ele><time>2026-04-05T10:53:12.8Z</time></trkpt><trkpt lat="41.4076689" lon="1.532377"><ele>520.0</ele><time>2026-04-05T10:53:13.799Z</time></trkpt><trkpt lat="41.407528" lon="1.532458"><ele>520.0</ele><time>2026-04-05T10:53:14.8Z</time></trkpt><trkpt lat="41.4074015" lon="1.5325619"><ele>520.0</ele><time>2026-04-05T10:53:15.799Z</time></trkpt><trkpt lat="41.4072909" lon="1.5327021"><ele>520.0</ele><time>2026-04-05T10:53:16.799Z</time></trkpt><trkpt lat="41.4071751" lon="1.5328721"><ele>520.0</ele><time>2026-04-05T10:53:17.799Z</time></trkpt><trkpt lat="41.4070479" lon="1.5330392"><ele>520.0</ele><time>2026-04-05T10:53:18.799Z</time></trkpt><trkpt lat="41.4069182" lon="1.533195"><ele>518.3333333333334</ele><time>2026-04-05T10:53:19.799Z</time></trkpt><trkpt lat="41.4067904" lon="1.5333467"><ele>516.6666666666666</ele><time>2026-04-05T10:53:20.8Z</time></trkpt><trkpt lat="41.4066649" lon="1.5334947"><ele>515.0</ele><time>2026-04-05T10:53:21.8Z</time></trkpt><trkpt lat="41.4065385" lon="1.5336246"><ele>513.5</ele><time>2026-04-05T10:53:22.799Z</time></trkpt><trkpt lat="41.4064115" lon="1.5337287"><ele>512.0</ele><time>2026-04-05T10:53:23.8Z</time></trkpt><trkpt lat="41.4062715" lon="1.5338059"><ele>510.5</ele><time>2026-04-05T10:53:24.8Z</time></trkpt><trkpt lat="41.4061367" lon="1.5338568"><ele>509.0</ele><time>2026-04-05T10:53:25.799Z</time></trkpt><trkpt lat="41.4060124" lon="1.5339413"><ele>509.0</ele><time>2026-04-05T10:53:26.8Z</time></trkpt><trkpt lat="41.4058943" lon="1.5340649"><ele>509.0</ele><time>2026-04-05T10:53:27.799Z</time></trkpt><trkpt lat="41.4057827" lon="1.5342395"><ele>509.0</ele><time>2026-04-05T10:53:28.799Z</time></trkpt><trkpt lat="41.4056774" lon="1.5344227"><ele>507.3333333333333</ele><time>2026-04-05T10:53:29.8Z</time></trkpt><trkpt lat="41.405559" lon="1.5345954"><ele>505.66666666666663</ele><time>2026-04-05T10:53:30.799Z</time></trkpt><trkpt lat="41.405433" lon="1.5347533"><ele>504.0</ele><time>2026-04-05T10:53:31.799Z</time></trkpt><trkpt lat="41.4053023" lon="1.5349033"><ele>504.0</ele><time>2026-04-05T10:53:32.799Z</time></trkpt><trkpt lat="41.4051542" lon="1.5350249"><ele>504.0</ele><time>2026-04-05T10:53:33.8Z</time></trkpt><trkpt lat="41.4050044" lon="1.5351321"><ele>504.0</ele><time>2026-04-05T10:53:34.799Z</time></trkpt><trkpt lat="41.4048562" lon="1.5352184"><ele>504.0</ele><time>2026-04-05T10:53:35.8Z</time></trkpt><trkpt lat="41.404709" lon="1.5352799"><ele>504.0</ele><time>2026-04-05T10:53:36.799Z</time></trkpt><trkpt lat="41.4045693" lon="1.5353321"><ele>504.0</ele><time>2026-04-05T10:53:37.8Z</time></trkpt><trkpt lat="41.4044381" lon="1.5353983"><ele>504.0</ele><time>2026-04-05T10:53:38.8Z</time></trkpt><trkpt lat="41.4043134" lon="1.5355172"><ele>503.66666666666663</ele><time>2026-04-05T10:53:39.8Z</time></trkpt><trkpt lat="41.4041959" lon="1.5356661"><ele>503.3333333333333</ele><time>2026-04-05T10:53:40.799Z</time></trkpt><trkpt lat="41.4041047" lon="1.5358233"><ele>503.0</ele><time>2026-04-05T10:53:41.8Z</time></trkpt><trkpt lat="41.4040427" lon="1.5359995"><ele>503.0</ele><time>2026-04-05T10:53:42.799Z</time></trkpt><trkpt lat="41.4040024" lon="1.5361828"><ele>503.0</ele><time>2026-04-05T10:53:43.8Z</time></trkpt><trkpt lat="41.4039459" lon="1.5363464"><ele>503.0</ele><time>2026-04-05T10:53:44.8Z</time></trkpt><trkpt lat="41.4038708" lon="1.5365052"><ele>503.0</ele><time>2026-04-05T10:53:45.799Z</time></trkpt><trkpt lat="41.4037727" lon="1.5366336"><ele>502.0</ele><time>2026-04-05T10:53:46.799Z</time></trkpt><trkpt lat="41.4036134" lon="1.5366449"><ele>501.0</ele><time>2026-04-05T10:53:47.799Z</time></trkpt><trkpt lat="41.4034686" lon="1.5366793"><ele>500.0</ele><time>2026-04-05T10:53:48.799Z</time></trkpt><trkpt lat="41.4033181" lon="1.5366875"><ele>500.0</ele><time>2026-04-05T10:53:49.8Z</time></trkpt><trkpt lat="41.4031769" lon="1.5366732"><ele>500.0</ele><time>2026-04-05T10:53:50.8Z</time></trkpt><trkpt lat="41.4030433" lon="1.5366396"><ele>500.0</ele><time>2026-04-05T10:53:51.8Z</time></trkpt><trkpt lat="41.4029181" lon="1.5366251"><ele>500.0</ele><time>2026-04-05T10:53:52.799Z</time></trkpt><trkpt lat="41.4027986" lon="1.5366469"><ele>500.25</ele><time>2026-04-05T10:53:53.799Z</time></trkpt><trkpt lat="41.4026795" lon="1.5367061"><ele>500.5</ele><time>2026-04-05T10:53:54.799Z</time></trkpt><trkpt lat="41.4025581" lon="1.5368147"><ele>500.75</ele><time>2026-04-05T10:53:55.799Z</time></trkpt><trkpt lat="41.4024451" lon="1.536948"><ele>501.0</ele><time>2026-04-05T10:53:56.8Z</time></trkpt><trkpt lat="41.4023189" lon="1.5371077"><ele>501.0</ele><time>2026-04-05T10:53:57.799Z</time></trkpt><trkpt lat="41.4021753" lon="1.537281"><ele>501.0</ele><time>2026-04-05T10:53:58.8Z</time></trkpt><trkpt lat="41.4020222" lon="1.5374701"><ele>501.0</ele><time>2026-04-05T10:53:59.799Z</time></trkpt><trkpt lat="41.4018771" lon="1.5376614"><ele>497.33333333333337</ele><time>2026-04-05T10:54:00.799Z</time></trkpt><trkpt lat="41.4017414" lon="1.5378467"><ele>493.6666666666667</ele><time>2026-04-05T10:54:01.799Z</time></trkpt><trkpt lat="41.401605" lon="1.5380253"><ele>490.0</ele><time>2026-04-05T10:54:02.8Z</time></trkpt><trkpt lat="41.4014605" lon="1.5382024"><ele>486.33333333333337</ele><time>2026-04-05T10:54:03.799Z</time></trkpt><trkpt lat="41.4013014" lon="1.5383674"><ele>482.66666666666663</ele><time>2026-04-05T10:54:04.799Z</time></trkpt><trkpt lat="41.4011313" lon="1.5385196"><ele>479.0</ele><time>2026-04-05T10:54:05.8Z</time></trkpt><trkpt lat="41.400966" lon="1.5386623"><ele>480.3333333333333</ele><time>2026-04-05T10:54:06.8Z</time></trkpt><trkpt lat="41.4008105" lon="1.5387937"><ele>481.66666666666663</ele><time>2026-04-05T10:54:07.8Z</time></trkpt><trkpt lat="41.4006777" lon="1.5389028"><ele>483.0</ele><time>2026-04-05T10:54:08.799Z</time></trkpt><trkpt lat="41.4005458" lon="1.5390177"><ele>486.33333333333337</ele><time>2026-04-05T10:54:09.8Z</time></trkpt><trkpt lat="41.4004498" lon="1.5391565"><ele>489.6666666666667</ele><time>2026-04-05T10:54:10.799Z</time></trkpt><trkpt lat="41.4003776" lon="1.5393311"><ele>493.0</ele><time>2026-04-05T10:54:11.8Z</time></trkpt><trkpt lat="41.4004183" lon="1.5395382"><ele>490.6666666666667</ele><time>2026-04-05T10:54:12.8Z</time></trkpt><trkpt lat="41.4004467" lon="1.539741"><ele>488.33333333333337</ele><time>2026-04-05T10:54:13.799Z</time></trkpt><trkpt lat="41.400497" lon="1.5399326"><ele>486.0</ele><time>2026-04-05T10:54:14.799Z</time></trkpt><trkpt lat="41.4005764" lon="1.5401155"><ele>485.66666666666663</ele><time>2026-04-05T10:54:15.799Z</time></trkpt><trkpt lat="41.4006744" lon="1.5402804"><ele>485.3333333333333</ele><time>2026-04-05T10:54:16.8Z</time></trkpt><trkpt lat="41.4007594" lon="1.5404458"><ele>485.0</ele><time>2026-04-05T10:54:17.8Z</time></trkpt><trkpt lat="41.4008173" lon="1.5406228"><ele>483.5</ele><time>2026-04-05T10:54:18.8Z</time></trkpt><trkpt lat="41.4008498" lon="1.5408141"><ele>482.0</ele><time>2026-04-05T10:54:19.8Z</time></trkpt><trkpt lat="41.4008456" lon="1.540992"><ele>480.5</ele><time>2026-04-05T10:54:20.8Z</time></trkpt><trkpt lat="41.4007982" lon="1.5411493"><ele>479.0</ele><time>2026-04-05T10:54:21.799Z</time></trkpt><trkpt lat="41.4007099" lon="1.5412946"><ele>475.66666666666663</ele><time>2026-04-05T10:54:22.8Z</time></trkpt><trkpt lat="41.4005872" lon="1.5414298"><ele>472.33333333333337</ele><time>2026-04-05T10:54:23.8Z</time></trkpt><trkpt lat="41.4004537" lon="1.5415679"><ele>469.0</ele><time>2026-04-05T10:54:24.799Z</time></trkpt><trkpt lat="41.4003378" lon="1.5417028"><ele>469.0</ele><time>2026-04-05T10:54:25.8Z</time></trkpt><trkpt lat="41.400229" lon="1.5418075"><ele>469.0</ele><time>2026-04-05T10:54:26.799Z</time></trkpt><trkpt lat="41.4001386" lon="1.5419017"><ele>469.0</ele><time>2026-04-05T10:54:27.8Z</time></trkpt><trkpt lat="41.4000689" lon="1.5420222"><ele>469.0</ele><time>2026-04-05T10:54:28.8Z</time></trkpt><trkpt lat="41.400023" lon="1.5421855"><ele>470.75</ele><time>2026-04-05T10:54:29.8Z</time></trkpt><trkpt lat="41.3999556" lon="1.5423433"><ele>472.5</ele><time>2026-04-05T10:54:30.799Z</time></trkpt><trkpt lat="41.3998577" lon="1.5424925"><ele>474.25</ele><time>2026-04-05T10:54:31.799Z</time></trkpt><trkpt lat="41.3997405" lon="1.5426406"><ele>476.0</ele><time>2026-04-05T10:54:32.8Z</time></trkpt><trkpt lat="41.3996257" lon="1.5427827"><ele>470.66666666666663</ele><time>2026-04-05T10:54:33.799Z</time></trkpt><trkpt lat="41.3995339" lon="1.5429606"><ele>465.33333333333337</ele><time>2026-04-05T10:54:34.799Z</time></trkpt><trkpt lat="41.3994488" lon="1.5431481"><ele>460.0</ele><time>2026-04-05T10:54:35.799Z</time></trkpt><trkpt lat="41.3993758" lon="1.5433474"><ele>460.0</ele><time>2026-04-05T10:54:36.799Z</time></trkpt><trkpt lat="41.3993102" lon="1.5435582"><ele>460.0</ele><time>2026-04-05T10:54:37.799Z</time></trkpt><trkpt lat="41.3992546" lon="1.543772"><ele>460.0</ele><time>2026-04-05T10:54:38.8Z</time></trkpt><trkpt lat="41.3991992" lon="1.543976"><ele>462.0</ele><time>2026-04-05T10:54:39.799Z</time></trkpt><trkpt lat="41.3991416" lon="1.5441611"><ele>464.0</ele><time>2026-04-05T10:54:40.799Z</time></trkpt><trkpt lat="41.3990823" lon="1.544332"><ele>466.0</ele><time>2026-04-05T10:54:41.799Z</time></trkpt><trkpt lat="41.3990359" lon="1.544504"><ele>468.0</ele><time>2026-04-05T10:54:42.8Z</time></trkpt><trkpt lat="41.3990071" lon="1.5446899"><ele>469.0</ele><time>2026-04-05T10:54:43.8Z</time></trkpt><trkpt lat="41.3989889" lon="1.5448965"><ele>470.0</ele><time>2026-04-05T10:54:44.8Z</time></trkpt><trkpt lat="41.3989727" lon="1.5451178"><ele>471.0</ele><time>2026-04-05T10:54:45.799Z</time></trkpt><trkpt lat="41.3989643" lon="1.5453411"><ele>469.66666666666663</ele><time>2026-04-05T10:54:46.8Z</time></trkpt><trkpt lat="41.3989592" lon="1.5455644"><ele>468.3333333333333</ele><time>2026-04-05T10:54:47.799Z</time></trkpt><trkpt lat="41.3989486" lon="1.5457784"><ele>467.0</ele><time>2026-04-05T10:54:48.799Z</time></trkpt><trkpt lat="41.3989115" lon="1.5459848"><ele>467.0</ele><time>2026-04-05T10:54:49.8Z</time></trkpt><trkpt lat="41.3988568" lon="1.5461717"><ele>467.0</ele><time>2026-04-05T10:54:50.8Z</time></trkpt><trkpt lat="41.3988111" lon="1.5463568"><ele>467.0</ele><time>2026-04-05T10:54:51.799Z</time></trkpt><trkpt lat="41.3987955" lon="1.5465534"><ele>467.0</ele><time>2026-04-05T10:54:52.799Z</time></trkpt><trkpt lat="41.398808" lon="1.5467474"><ele>465.3333333333333</ele><time>2026-04-05T10:54:53.799Z</time></trkpt><trkpt lat="41.3988504" lon="1.5469404"><ele>463.66666666666663</ele><time>2026-04-05T10:54:54.8Z</time></trkpt><trkpt lat="41.3989223" lon="1.54712"><ele>462.0</ele><time>2026-04-05T10:54:55.799Z</time></trkpt><trkpt lat="41.3989832" lon="1.5473053"><ele>461.25</ele><time>2026-04-05T10:54:56.799Z</time></trkpt><trkpt lat="41.3990149" lon="1.547494"><ele>460.5</ele><time>2026-04-05T10:54:57.8Z</time></trkpt><trkpt lat="41.3990368" lon="1.5476765"><ele>459.75</ele><time>2026-04-05T10:54:58.8Z</time></trkpt><trkpt lat="41.3990879" lon="1.5478391"><ele>459.0</ele><time>2026-04-05T10:54:59.8Z</time></trkpt><trkpt lat="41.399171" lon="1.5479951"><ele>454.33333333333337</ele><time>2026-04-05T10:55:00.799Z</time></trkpt><trkpt lat="41.3992748" lon="1.5481447"><ele>449.6666666666667</ele><time>2026-04-05T10:55:01.799Z</time></trkpt><trkpt lat="41.3993871" lon="1.5482846"><ele>445.0</ele><time>2026-04-05T10:55:02.799Z</time></trkpt><trkpt lat="41.3994957" lon="1.5484324"><ele>445.0</ele><time>2026-04-05T10:55:03.799Z</time></trkpt><trkpt lat="41.3995944" lon="1.5485869"><ele>445.0</ele><time>2026-04-05T10:55:04.8Z</time></trkpt><trkpt lat="41.3996952" lon="1.54874"><ele>445.0</ele><time>2026-04-05T10:55:05.8Z</time></trkpt><trkpt lat="41.3998002" lon="1.5488823"><ele>446.5</ele><time>2026-04-05T10:55:06.799Z</time></trkpt><trkpt lat="41.3999036" lon="1.5490178"><ele>448.0</ele><time>2026-04-05T10:55:07.8Z</time></trkpt><trkpt lat="41.3999854" lon="1.5491672"><ele>449.5</ele><time>2026-04-05T10:55:08.8Z</time></trkpt><trkpt lat="41.4000525" lon="1.5493162"><ele>451.0</ele><time>2026-04-05T10:55:09.799Z</time></trkpt><trkpt lat="41.4001124" lon="1.5494599"><ele>448.25</ele><time>2026-04-05T10:55:10.799Z</time></trkpt><trkpt lat="41.4001553" lon="1.5496064"><ele>445.5</ele><time>2026-04-05T10:55:11.8Z</time></trkpt><trkpt lat="41.4001664" lon="1.5497755"><ele>442.75</ele><time>2026-04-05T10:55:12.8Z</time></trkpt><trkpt lat="41.400162" lon="1.5499429"><ele>440.0</ele><time>2026-04-05T10:55:13.799Z</time></trkpt><trkpt lat="41.4001786" lon="1.550096"><ele>440.0</ele><time>2026-04-05T10:55:14.8Z</time></trkpt><trkpt lat="41.4002089" lon="1.5502335"><ele>440.0</ele><time>2026-04-05T10:55:15.799Z</time></trkpt><trkpt lat="41.4002379" lon="1.5503577"><ele>440.0</ele><time>2026-04-05T10:55:16.799Z</time></trkpt><trkpt lat="41.400247" lon="1.5504852"><ele>440.0</ele><time>2026-04-05T10:55:17.8Z</time></trkpt><trkpt lat="41.4002256" lon="1.5506159"><ele>440.0</ele><time>2026-04-05T10:55:18.799Z</time></trkpt><trkpt lat="41.4001598" lon="1.5507437"><ele>441.75</ele><time>2026-04-05T10:55:19.8Z</time></trkpt><trkpt lat="41.4000548" lon="1.5508609"><ele>443.5</ele><time>2026-04-05T10:55:20.8Z</time></trkpt><trkpt lat="41.3999282" lon="1.5509538"><ele>445.25</ele><time>2026-04-05T10:55:21.799Z</time></trkpt><trkpt lat="41.3998017" lon="1.5510275"><ele>447.0</ele><time>2026-04-05T10:55:22.8Z</time></trkpt><trkpt lat="41.3996762" lon="1.5510773"><ele>444.25</ele><time>2026-04-05T10:55:23.8Z</time></trkpt><trkpt lat="41.399547" lon="1.5510926"><ele>441.5</ele><time>2026-04-05T10:55:24.8Z</time></trkpt><trkpt lat="41.3994162" lon="1.5510742"><ele>438.75</ele><time>2026-04-05T10:55:25.799Z</time></trkpt><trkpt lat="41.3992905" lon="1.5510518"><ele>436.0</ele><time>2026-04-05T10:55:26.8Z</time></trkpt><trkpt lat="41.3991762" lon="1.5510229"><ele>436.0</ele><time>2026-04-05T10:55:27.799Z</time></trkpt><trkpt lat="41.3990709" lon="1.5509759"><ele>436.0</ele><time>2026-04-05T10:55:28.799Z</time></trkpt><trkpt lat="41.3989763" lon="1.5509277"><ele>436.0</ele><time>2026-04-05T10:55:29.8Z</time></trkpt><trkpt lat="41.3988867" lon="1.5509209"><ele>436.0</ele><time>2026-04-05T10:55:30.8Z</time></trkpt><trkpt lat="41.3988027" lon="1.5509565"><ele>436.0</ele><time>2026-04-05T10:55:31.799Z</time></trkpt><trkpt lat="41.3987344" lon="1.5510528"><ele>436.0</ele><time>2026-04-05T10:55:32.8Z</time></trkpt><trkpt lat="41.3986819" lon="1.5511981"><ele>436.0</ele><time>2026-04-05T10:55:33.799Z</time></trkpt><trkpt lat="41.3986455" lon="1.5513608"><ele>436.0</ele><time>2026-04-05T10:55:34.799Z</time></trkpt><trkpt lat="41.39863" lon="1.5515304"><ele>436.0</ele><time>2026-04-05T10:55:35.8Z</time></trkpt><trkpt lat="41.3986432" lon="1.5516945"><ele>435.0</ele><time>2026-04-05T10:55:36.8Z</time></trkpt><trkpt lat="41.3986828" lon="1.5518544"><ele>434.0</ele><time>2026-04-05T10:55:37.799Z</time></trkpt><trkpt lat="41.3987357" lon="1.5520064"><ele>433.0</ele><time>2026-04-05T10:55:38.8Z</time></trkpt><trkpt lat="41.3987914" lon="1.5521495"><ele>432.0</ele><time>2026-04-05T10:55:39.8Z</time></trkpt><trkpt lat="41.3988211" lon="1.552301"><ele>431.0</ele><time>2026-04-05T10:55:40.799Z</time></trkpt><trkpt lat="41.3988141" lon="1.5524589"><ele>430.0</ele><time>2026-04-05T10:55:41.799Z</time></trkpt><trkpt lat="41.3987584" lon="1.5526065"><ele>429.0</ele><time>2026-04-05T10:55:42.8Z</time></trkpt><trkpt lat="41.3986695" lon="1.5527329"><ele>428.0</ele><time>2026-04-05T10:55:43.8Z</time></trkpt><trkpt lat="41.3985663" lon="1.5528525"><ele>432.25</ele><time>2026-04-05T10:55:44.799Z</time></trkpt><trkpt lat="41.3984702" lon="1.5529623"><ele>436.5</ele><time>2026-04-05T10:55:45.8Z</time></trkpt><trkpt lat="41.3983756" lon="1.5530631"><ele>440.75</ele><time>2026-04-05T10:55:46.799Z</time></trkpt><trkpt lat="41.3982792" lon="1.5531518"><ele>445.0</ele><time>2026-04-05T10:55:47.799Z</time></trkpt><trkpt lat="41.3981736" lon="1.5532215"><ele>445.0</ele><time>2026-04-05T10:55:48.799Z</time></trkpt><trkpt lat="41.3980631" lon="1.5532545"><ele>445.0</ele><time>2026-04-05T10:55:49.799Z</time></trkpt><trkpt lat="41.397954" lon="1.5532512"><ele>445.0</ele><time>2026-04-05T10:55:50.799Z</time></trkpt><trkpt lat="41.3978419" lon="1.5532156"><ele>445.0</ele><time>2026-04-05T10:55:51.799Z</time></trkpt><trkpt lat="41.3977427" lon="1.5531622"><ele>445.0</ele><time>2026-04-05T10:55:52.8Z</time></trkpt><trkpt lat="41.3976572" lon="1.5530944"><ele>443.8</ele><time>2026-04-05T10:55:53.799Z</time></trkpt><trkpt lat="41.3975703" lon="1.5530493"><ele>442.6</ele><time>2026-04-05T10:55:54.8Z</time></trkpt><trkpt lat="41.3974735" lon="1.5530269"><ele>441.4</ele><time>2026-04-05T10:55:55.799Z</time></trkpt><trkpt lat="41.3973724" lon="1.5530473"><ele>440.2</ele><time>2026-04-05T10:55:56.799Z</time></trkpt><trkpt lat="41.39727" lon="1.5531137"><ele>439.0</ele><time>2026-04-05T10:55:57.799Z</time></trkpt><trkpt lat="41.3971763" lon="1.5532172"><ele>434.5</ele><time>2026-04-05T10:55:58.799Z</time></trkpt><trkpt lat="41.3970886" lon="1.5533367"><ele>430.0</ele><time>2026-04-05T10:55:59.799Z</time></trkpt><trkpt lat="41.3969919" lon="1.5534464"><ele>425.5</ele><time>2026-04-05T10:56:00.8Z</time></trkpt><trkpt lat="41.3968861" lon="1.5535428"><ele>421.0</ele><time>2026-04-05T10:56:01.799Z</time></trkpt><trkpt lat="41.3967802" lon="1.5536436"><ele>425.75</ele><time>2026-04-05T10:56:02.799Z</time></trkpt><trkpt lat="41.3966858" lon="1.5537761"><ele>430.5</ele><time>2026-04-05T10:56:03.8Z</time></trkpt><trkpt lat="41.3965942" lon="1.5539137"><ele>435.25</ele><time>2026-04-05T10:56:04.799Z</time></trkpt><trkpt lat="41.3964971" lon="1.5540483"><ele>440.0</ele><time>2026-04-05T10:56:05.799Z</time></trkpt><trkpt lat="41.3963861" lon="1.5541146"><ele>436.5</ele><time>2026-04-05T10:56:06.799Z</time></trkpt><trkpt lat="41.3962714" lon="1.554138"><ele>433.0</ele><time>2026-04-05T10:56:07.8Z</time></trkpt><trkpt lat="41.3961591" lon="1.5541035"><ele>429.5</ele><time>2026-04-05T10:56:08.799Z</time></trkpt><trkpt lat="41.3960443" lon="1.5540675"><ele>426.0</ele><time>2026-04-05T10:56:09.799Z</time></trkpt><trkpt lat="41.3959207" lon="1.5540569"><ele>426.0</ele><time>2026-04-05T10:56:10.799Z</time></trkpt><trkpt lat="41.3957945" lon="1.5540659"><ele>426.0</ele><time>2026-04-05T10:56:11.8Z</time></trkpt><trkpt lat="41.3956807" lon="1.5541708"><ele>426.0</ele><time>2026-04-05T10:56:12.8Z</time></trkpt><trkpt lat="41.3955884" lon="1.5542842"><ele>426.0</ele><time>2026-04-05T10:56:13.799Z</time></trkpt><trkpt lat="41.3954992" lon="1.5543942"><ele>423.25</ele><time>2026-04-05T10:56:14.8Z</time></trkpt><trkpt lat="41.3954167" lon="1.5544965"><ele>420.5</ele><time>2026-04-05T10:56:15.8Z</time></trkpt><trkpt lat="41.3953388" lon="1.5545992"><ele>417.75</ele><time>2026-04-05T10:56:16.799Z</time></trkpt><trkpt lat="41.3952848" lon="1.554731"><ele>415.0</ele><time>2026-04-05T10:56:17.8Z</time></trkpt><trkpt lat="41.3952509" lon="1.5548856"><ele>415.0</ele><time>2026-04-05T10:56:18.8Z</time></trkpt><trkpt lat="41.3952363" lon="1.5550547"><ele>415.0</ele><time>2026-04-05T10:56:19.8Z</time></trkpt><trkpt lat="41.3952397" lon="1.5552271"><ele>415.0</ele><time>2026-04-05T10:56:20.799Z</time></trkpt><trkpt lat="41.3952399" lon="1.5554031"><ele>415.0</ele><time>2026-04-05T10:56:21.8Z</time></trkpt><trkpt lat="41.3952269" lon="1.5555814"><ele>415.0</ele><time>2026-04-05T10:56:22.799Z</time></trkpt><trkpt lat="41.3951927" lon="1.5557571"><ele>415.0</ele><time>2026-04-05T10:56:23.799Z</time></trkpt><trkpt lat="41.3951448" lon="1.5559384"><ele>415.0</ele><time>2026-04-05T10:56:24.799Z</time></trkpt><trkpt lat="41.3950944" lon="1.5561173"><ele>415.0</ele><time>2026-04-05T10:56:25.8Z</time></trkpt><trkpt lat="41.3950352" lon="1.5562929"><ele>417.75</ele><time>2026-04-05T10:56:26.8Z</time></trkpt><trkpt lat="41.3949703" lon="1.556465"><ele>420.5</ele><time>2026-04-05T10:56:27.799Z</time></trkpt><trkpt lat="41.3949037" lon="1.5566361"><ele>423.25</ele><time>2026-04-05T10:56:28.8Z</time></trkpt><trkpt lat="41.3948553" lon="1.5568006"><ele>426.0</ele><time>2026-04-05T10:56:29.8Z</time></trkpt><trkpt lat="41.3948152" lon="1.5569677"><ele>422.5</ele><time>2026-04-05T10:56:30.8Z</time></trkpt><trkpt lat="41.3947723" lon="1.5571304"><ele>419.0</ele><time>2026-04-05T10:56:31.8Z</time></trkpt><trkpt lat="41.394696" lon="1.5572725"><ele>415.5</ele><time>2026-04-05T10:56:32.799Z</time></trkpt><trkpt lat="41.3945911" lon="1.5573961"><ele>412.0</ele><time>2026-04-05T10:56:33.799Z</time></trkpt><trkpt lat="41.3944665" lon="1.5575183"><ele>412.0</ele><time>2026-04-05T10:56:34.799Z</time></trkpt><trkpt lat="41.394343" lon="1.5576434"><ele>412.0</ele><time>2026-04-05T10:56:35.8Z</time></trkpt><trkpt lat="41.3942279" lon="1.5577839"><ele>412.0</ele><time>2026-04-05T10:56:36.8Z</time></trkpt><trkpt lat="41.394127" lon="1.5579365"><ele>409.75</ele><time>2026-04-05T10:56:37.799Z</time></trkpt><trkpt lat="41.3940353" lon="1.5580891"><ele>407.5</ele><time>2026-04-05T10:56:38.799Z</time></trkpt><trkpt lat="41.3939458" lon="1.5582412"><ele>405.25</ele><time>2026-04-05T10:56:39.799Z</time></trkpt><trkpt lat="41.39386" lon="1.5583915"><ele>403.0</ele><time>2026-04-05T10:56:40.8Z</time></trkpt><trkpt lat="41.3937718" lon="1.558538"><ele>403.0</ele><time>2026-04-05T10:56:41.8Z</time></trkpt><trkpt lat="41.3936807" lon="1.5586841"><ele>403.0</ele><time>2026-04-05T10:56:42.799Z</time></trkpt><trkpt lat="41.3935862" lon="1.5588386"><ele>403.0</ele><time>2026-04-05T10:56:43.799Z</time></trkpt><trkpt lat="41.3934896" lon="1.5589924"><ele>403.0</ele><time>2026-04-05T10:56:44.799Z</time></trkpt><trkpt lat="41.3933871" lon="1.5591484"><ele>404.75</ele><time>2026-04-05T10:56:45.799Z</time></trkpt><trkpt lat="41.3932777" lon="1.5592949"><ele>406.5</ele><time>2026-04-05T10:56:46.799Z</time></trkpt><trkpt lat="41.3931775" lon="1.5594263"><ele>408.25</ele><time>2026-04-05T10:56:47.799Z</time></trkpt><trkpt lat="41.3930794" lon="1.5595491"><ele>410.0</ele><time>2026-04-05T10:56:48.8Z</time></trkpt><trkpt lat="41.3929851" lon="1.5596641"><ele>410.0</ele><time>2026-04-05T10:56:49.799Z</time></trkpt><trkpt lat="41.392907" lon="1.5597842"><ele>410.0</ele><time>2026-04-05T10:56:50.799Z</time></trkpt><trkpt lat="41.3928415" lon="1.5599243"><ele>410.0</ele><time>2026-04-05T10:56:51.8Z</time></trkpt><trkpt lat="41.3927989" lon="1.5600869"><ele>410.0</ele><time>2026-04-05T10:56:52.8Z</time></trkpt><trkpt lat="41.3927602" lon="1.5602519"><ele>411.0</ele><time>2026-04-05T10:56:53.799Z</time></trkpt><trkpt lat="41.3927013" lon="1.5604076"><ele>412.0</ele><time>2026-04-05T10:56:54.8Z</time></trkpt><trkpt lat="41.3926169" lon="1.560553"><ele>413.0</ele><time>2026-04-05T10:56:55.8Z</time></trkpt><trkpt lat="41.3925322" lon="1.5606942"><ele>414.0</ele><time>2026-04-05T10:56:56.8Z</time></trkpt><trkpt lat="41.3924607" lon="1.5608443"><ele>414.0</ele><time>2026-04-05T10:56:57.8Z</time></trkpt><trkpt lat="41.3924021" lon="1.5610047"><ele>414.0</ele><time>2026-04-05T10:56:58.799Z</time></trkpt><trkpt lat="41.3923518" lon="1.5611605"><ele>414.0</ele><time>2026-04-05T10:56:59.799Z</time></trkpt><trkpt lat="41.3922996" lon="1.5613047"><ele>414.0</ele><time>2026-04-05T10:57:00.799Z</time></trkpt><trkpt lat="41.3922501" lon="1.5614458"><ele>415.0</ele><time>2026-04-05T10:57:01.799Z</time></trkpt><trkpt lat="41.3921979" lon="1.5615837"><ele>416.0</ele><time>2026-04-05T10:57:02.8Z</time></trkpt><trkpt lat="41.3921468" lon="1.5617217"><ele>417.0</ele><time>2026-04-05T10:57:03.799Z</time></trkpt><trkpt lat="41.3920914" lon="1.5618613"><ele>418.0</ele><time>2026-04-05T10:57:04.8Z</time></trkpt><trkpt lat="41.3920263" lon="1.5619974"><ele>415.0</ele><time>2026-04-05T10:57:05.8Z</time></trkpt><trkpt lat="41.3919495" lon="1.562122"><ele>412.0</ele><time>2026-04-05T10:57:06.799Z</time></trkpt><trkpt lat="41.3918641" lon="1.5622406"><ele>409.0</ele><time>2026-04-05T10:57:07.799Z</time></trkpt><trkpt lat="41.3917755" lon="1.5623586"><ele>406.0</ele><time>2026-04-05T10:57:08.8Z</time></trkpt><trkpt lat="41.3916865" lon="1.5624742"><ele>406.0</ele><time>2026-04-05T10:57:09.799Z</time></trkpt><trkpt lat="41.3916014" lon="1.5625889"><ele>406.0</ele><time>2026-04-05T10:57:10.799Z</time></trkpt><trkpt lat="41.391521" lon="1.5626973"><ele>406.0</ele><time>2026-04-05T10:57:11.8Z</time></trkpt><trkpt lat="41.3914433" lon="1.5628036"><ele>406.0</ele><time>2026-04-05T10:57:12.8Z</time></trkpt><trkpt lat="41.3913632" lon="1.5629139"><ele>404.25</ele><time>2026-04-05T10:57:13.8Z</time></trkpt><trkpt lat="41.3912818" lon="1.5630283"><ele>402.5</ele><time>2026-04-05T10:57:14.8Z</time></trkpt><trkpt lat="41.391205" lon="1.5631479"><ele>400.75</ele><time>2026-04-05T10:57:15.8Z</time></trkpt><trkpt lat="41.3911302" lon="1.5632686"><ele>399.0</ele><time>2026-04-05T10:57:16.799Z</time></trkpt><trkpt lat="41.3910639" lon="1.5633872"><ele>399.0</ele><time>2026-04-05T10:57:17.799Z</time></trkpt><trkpt lat="41.3909958" lon="1.5635052"><ele>399.0</ele><time>2026-04-05T10:57:18.799Z</time></trkpt><trkpt lat="41.3909293" lon="1.5636232"><ele>399.0</ele><time>2026-04-05T10:57:19.799Z</time></trkpt><trkpt lat="41.3908605" lon="1.5637466"><ele>399.0</ele><time>2026-04-05T10:57:20.799Z</time></trkpt><trkpt lat="41.3907925" lon="1.563871"><ele>399.4</ele><time>2026-04-05T10:57:21.8Z</time></trkpt><trkpt lat="41.3907261" lon="1.5639966"><ele>399.79999999999995</ele><time>2026-04-05T10:57:22.799Z</time></trkpt><trkpt lat="41.3906635" lon="1.5641246"><ele>400.20000000000005</ele><time>2026-04-05T10:57:23.8Z</time></trkpt><trkpt lat="41.3906092" lon="1.5642558"><ele>400.6</ele><time>2026-04-05T10:57:24.8Z</time></trkpt><trkpt lat="41.390571" lon="1.5643877"><ele>401.0</ele><time>2026-04-05T10:57:25.799Z</time></trkpt><trkpt lat="41.3905381" lon="1.5645121"><ele>400.8</ele><time>2026-04-05T10:57:26.8Z</time></trkpt><trkpt lat="41.3905118" lon="1.5646356"><ele>400.6</ele><time>2026-04-05T10:57:27.799Z</time></trkpt><trkpt lat="41.3904858" lon="1.5647549"><ele>400.4</ele><time>2026-04-05T10:57:28.8Z</time></trkpt><trkpt lat="41.3904646" lon="1.5648685"><ele>400.2</ele><time>2026-04-05T10:57:29.799Z</time></trkpt><trkpt lat="41.3904369" lon="1.5649827"><ele>400.0</ele><time>2026-04-05T10:57:30.8Z</time></trkpt><trkpt lat="41.3904159" lon="1.5650919"><ele>398.50000000000006</ele><time>2026-04-05T10:57:31.799Z</time></trkpt><trkpt lat="41.3903992" lon="1.5651966"><ele>397.0</ele><time>2026-04-05T10:57:32.8Z</time></trkpt><trkpt lat="41.3903807" lon="1.5652896"><ele>395.5</ele><time>2026-04-05T10:57:33.8Z</time></trkpt><trkpt lat="41.3903618" lon="1.5653799"><ele>394.0</ele><time>2026-04-05T10:57:34.799Z</time></trkpt><trkpt lat="41.3903432" lon="1.5654789"><ele>392.50000000000006</ele><time>2026-04-05T10:57:35.799Z</time></trkpt><trkpt lat="41.3903183" lon="1.5655964"><ele>391.0</ele><time>2026-04-05T10:57:36.799Z</time></trkpt><trkpt lat="41.3902923" lon="1.565719"><ele>390.8</ele><time>2026-04-05T10:57:37.8Z</time></trkpt><trkpt lat="41.3902674" lon="1.5658437"><ele>390.6</ele><time>2026-04-05T10:57:38.799Z</time></trkpt><trkpt lat="41.3902429" lon="1.5659672"><ele>390.4</ele><time>2026-04-05T10:57:39.799Z</time></trkpt><trkpt lat="41.3902152" lon="1.5660881"><ele>390.2</ele><time>2026-04-05T10:57:40.8Z</time></trkpt><trkpt lat="41.3901911" lon="1.5662073"><ele>390.0</ele><time>2026-04-05T10:57:41.8Z</time></trkpt><trkpt lat="41.3901651" lon="1.5663247"><ele>389.85714285714283</ele><time>2026-04-05T10:57:42.799Z</time></trkpt><trkpt lat="41.3901472" lon="1.5664353"><ele>389.71428571428567</ele><time>2026-04-05T10:57:43.8Z</time></trkpt><trkpt lat="41.390128" lon="1.5665351"><ele>389.57142857142856</ele><time>2026-04-05T10:57:44.8Z</time></trkpt><trkpt lat="41.3901092" lon="1.5666329"><ele>389.42857142857144</ele><time>2026-04-05T10:57:45.8Z</time></trkpt><trkpt lat="41.3900885" lon="1.5667232"><ele>389.2857142857143</ele><time>2026-04-05T10:57:46.799Z</time></trkpt><trkpt lat="41.3900683" lon="1.5668096"><ele>389.14285714285717</ele><time>2026-04-05T10:57:47.8Z</time></trkpt><trkpt lat="41.3900509" lon="1.566896"><ele>389.0</ele><time>2026-04-05T10:57:48.8Z</time></trkpt><trkpt lat="41.3900322" lon="1.5669935"><ele>388.8333333333333</ele><time>2026-04-05T10:57:49.799Z</time></trkpt><trkpt lat="41.3900139" lon="1.5670942"><ele>388.66666666666663</ele><time>2026-04-05T10:57:50.799Z</time></trkpt><trkpt lat="41.3899934" lon="1.5672015"><ele>388.5</ele><time>2026-04-05T10:57:51.799Z</time></trkpt><trkpt lat="41.3899682" lon="1.5673154"><ele>388.33333333333337</ele><time>2026-04-05T10:57:52.799Z</time></trkpt><trkpt lat="41.3899385" lon="1.5674295"><ele>388.1666666666667</ele><time>2026-04-05T10:57:53.799Z</time></trkpt><trkpt lat="41.3899196" lon="1.5675484"><ele>388.0</ele><time>2026-04-05T10:57:54.799Z</time></trkpt><trkpt lat="41.3899006" lon="1.5676622"><ele>388.00000000000006</ele><time>2026-04-05T10:57:55.799Z</time></trkpt><trkpt lat="41.3898791" lon="1.5677737"><ele>388.0</ele><time>2026-04-05T10:57:56.799Z</time></trkpt><trkpt lat="41.3898596" lon="1.5678747"><ele>388.0</ele><time>2026-04-05T10:57:57.8Z</time></trkpt><trkpt lat="41.3898395" lon="1.5679741"><ele>388.0</ele><time>2026-04-05T10:57:58.799Z</time></trkpt><trkpt lat="41.3898202" lon="1.5680689"><ele>388.00000000000006</ele><time>2026-04-05T10:57:59.799Z</time></trkpt><trkpt lat="41.3898007" lon="1.5681639"><ele>388.0</ele><time>2026-04-05T10:58:00.799Z</time></trkpt><trkpt lat="41.3897803" lon="1.568277"><ele>387.4</ele><time>2026-04-05T10:58:01.799Z</time></trkpt><trkpt lat="41.3897581" lon="1.5683893"><ele>386.79999999999995</ele><time>2026-04-05T10:58:02.799Z</time></trkpt><trkpt lat="41.3897325" lon="1.5685042"><ele>386.2</ele><time>2026-04-05T10:58:03.799Z</time></trkpt><trkpt lat="41.3897" lon="1.5686179"><ele>385.6</ele><time>2026-04-05T10:58:04.8Z</time></trkpt><trkpt lat="41.3896624" lon="1.5687299"><ele>385.0</ele><time>2026-04-05T10:58:05.8Z</time></trkpt><trkpt lat="41.3896197" lon="1.5688377"><ele>384.1666666666667</ele><time>2026-04-05T10:58:06.799Z</time></trkpt><trkpt lat="41.389572" lon="1.5689376"><ele>383.33333333333337</ele><time>2026-04-05T10:58:07.8Z</time></trkpt><trkpt lat="41.3895208" lon="1.5690335"><ele>382.5</ele><time>2026-04-05T10:58:08.8Z</time></trkpt><trkpt lat="41.389471" lon="1.5691222"><ele>381.6666666666667</ele><time>2026-04-05T10:58:09.799Z</time></trkpt><trkpt lat="41.3894223" lon="1.5692054"><ele>380.83333333333337</ele><time>2026-04-05T10:58:10.799Z</time></trkpt><trkpt lat="41.389377" lon="1.5692849"><ele>380.0</ele><time>2026-04-05T10:58:11.8Z</time></trkpt><trkpt lat="41.3893317" lon="1.5693605"><ele>380.0</ele><time>2026-04-05T10:58:12.8Z</time></trkpt><trkpt lat="41.3892916" lon="1.5694314"><ele>380.0</ele><time>2026-04-05T10:58:13.8Z</time></trkpt><trkpt lat="41.3892505" lon="1.5695005"><ele>380.0</ele><time>2026-04-05T10:58:14.8Z</time></trkpt><trkpt lat="41.3892125" lon="1.5695697"><ele>380.0</ele><time>2026-04-05T10:58:15.799Z</time></trkpt><trkpt lat="41.3891411" lon="1.5697026"><ele>380.0</ele><time>2026-04-05T10:58:17.799Z</time></trkpt><trkpt lat="41.3890836" lon="1.5698061"><ele>380.0</ele><time>2026-04-05T10:58:19.799Z</time></trkpt><trkpt lat="41.3890396" lon="1.5698994"><ele>379.6666666666667</ele><time>2026-04-05T10:58:21.799Z</time></trkpt><trkpt lat="41.3889944" lon="1.5699744"><ele>379.33333333333337</ele><time>2026-04-05T10:58:23.8Z</time></trkpt><trkpt lat="41.3889496" lon="1.5700533"><ele>379.0</ele><time>2026-04-05T10:58:26.799Z</time></trkpt><trkpt lat="41.3888961" lon="1.5701455"><ele>378.6666666666667</ele><time>2026-04-05T10:58:39.799Z</time></trkpt><trkpt lat="41.3888445" lon="1.5702185"><ele>378.3333333333333</ele><time>2026-04-05T10:58:41.8Z</time></trkpt><trkpt lat="41.3887978" lon="1.5702887"><ele>378.0</ele><time>2026-04-05T10:58:48.799Z</time></trkpt><trkpt lat="41.3887324" lon="1.5703908"><ele>378.0</ele><time>2026-04-05T10:58:50.8Z</time></trkpt><trkpt lat="41.3886674" lon="1.5705039"><ele>378.0</ele><time>2026-04-05T10:58:52.8Z</time></trkpt><trkpt lat="41.3886017" lon="1.570619"><ele>378.0</ele><time>2026-04-05T10:58:54.799Z</time></trkpt><trkpt lat="41.3885335" lon="1.5707361"><ele>378.0</ele><time>2026-04-05T10:58:56.799Z</time></trkpt><trkpt lat="41.3884656" lon="1.5708358"><ele>378.0</ele><time>2026-04-05T10:58:58.799Z</time></trkpt><trkpt lat="41.3884125" lon="1.5709512"><ele>378.0</ele><time>2026-04-05T10:59:02.8Z</time></trkpt><trkpt lat="41.388333" lon="1.5710915"><ele>378.0</ele><time>2026-04-05T10:59:04.799Z</time></trkpt><trkpt lat="41.388291" lon="1.5711685"><ele>378.0</ele><time>2026-04-05T10:59:05.8Z</time></trkpt><trkpt lat="41.3882514" lon="1.5712389"><ele>378.0</ele><time>2026-04-05T10:59:06.8Z</time></trkpt><trkpt lat="41.3882118" lon="1.5713076"><ele>378.0</ele><time>2026-04-05T10:59:07.799Z</time></trkpt><trkpt lat="41.3881726" lon="1.5713738"><ele>378.0</ele><time>2026-04-05T10:59:08.799Z</time></trkpt><trkpt lat="41.3881014" lon="1.5715033"><ele>376.59999999999997</ele><time>2026-04-05T10:59:10.8Z</time></trkpt><trkpt lat="41.3880275" lon="1.5716246"><ele>375.2</ele><time>2026-04-05T10:59:12.799Z</time></trkpt><trkpt lat="41.3879546" lon="1.5717458"><ele>373.8</ele><time>2026-04-05T10:59:14.8Z</time></trkpt><trkpt lat="41.3878792" lon="1.5718725"><ele>372.4</ele><time>2026-04-05T10:59:16.8Z</time></trkpt><trkpt lat="41.3878419" lon="1.5719433"><ele>371.0</ele><time>2026-04-05T10:59:17.799Z</time></trkpt><trkpt lat="41.3878015" lon="1.5720147"><ele>371.0</ele><time>2026-04-05T10:59:18.799Z</time></trkpt><trkpt lat="41.3877611" lon="1.5720856"><ele>371.0</ele><time>2026-04-05T10:59:19.799Z</time></trkpt><trkpt lat="41.3877185" lon="1.5721595"><ele>371.0</ele><time>2026-04-05T10:59:20.799Z</time></trkpt><trkpt lat="41.3876808" lon="1.5722301"><ele>371.0</ele><time>2026-04-05T10:59:21.8Z</time></trkpt><trkpt lat="41.3876385" lon="1.5723004"><ele>371.0</ele><time>2026-04-05T10:59:22.799Z</time></trkpt><trkpt lat="41.3875968" lon="1.5723695"><ele>371.0</ele><time>2026-04-05T10:59:23.799Z</time></trkpt><trkpt lat="41.3875611" lon="1.5724428"><ele>371.0</ele><time>2026-04-05T10:59:24.799Z</time></trkpt><trkpt lat="41.3875249" lon="1.5725222"><ele>371.0</ele><time>2026-04-05T10:59:25.799Z</time></trkpt><trkpt lat="41.3874916" lon="1.5726067"><ele>371.0</ele><time>2026-04-05T10:59:26.8Z</time></trkpt><trkpt lat="41.3874602" lon="1.5726966"><ele>371.0</ele><time>2026-04-05T10:59:27.799Z</time></trkpt><trkpt lat="41.3874283" lon="1.5727867"><ele>371.0</ele><time>2026-04-05T10:59:28.799Z</time></trkpt><trkpt lat="41.3873928" lon="1.5728766"><ele>371.0</ele><time>2026-04-05T10:59:29.799Z</time></trkpt><trkpt lat="41.387357" lon="1.572968"><ele>371.0</ele><time>2026-04-05T10:59:30.8Z</time></trkpt><trkpt lat="41.3873245" lon="1.5730565"><ele>371.0</ele><time>2026-04-05T10:59:31.8Z</time></trkpt><trkpt lat="41.3872911" lon="1.5731413"><ele>370.83333333333337</ele><time>2026-04-05T10:59:32.799Z</time></trkpt><trkpt lat="41.3872587" lon="1.5732305"><ele>370.6666666666667</ele><time>2026-04-05T10:59:33.799Z</time></trkpt><trkpt lat="41.3872257" lon="1.5733157"><ele>370.5</ele><time>2026-04-05T10:59:34.8Z</time></trkpt><trkpt lat="41.3871931" lon="1.5734017"><ele>370.3333333333333</ele><time>2026-04-05T10:59:35.799Z</time></trkpt><trkpt lat="41.3871634" lon="1.5734843"><ele>370.16666666666663</ele><time>2026-04-05T10:59:36.8Z</time></trkpt><trkpt lat="41.3871329" lon="1.573561"><ele>370.0</ele><time>2026-04-05T10:59:37.8Z</time></trkpt><trkpt lat="41.3870821" lon="1.5736915"><ele>369.8</ele><time>2026-04-05T10:59:39.799Z</time></trkpt><trkpt lat="41.3870369" lon="1.5738116"><ele>369.6</ele><time>2026-04-05T10:59:41.799Z</time></trkpt><trkpt lat="41.3869835" lon="1.5739683"><ele>369.4</ele><time>2026-04-05T10:59:43.799Z</time></trkpt><trkpt lat="41.3869531" lon="1.5740546"><ele>369.2</ele><time>2026-04-05T10:59:44.8Z</time></trkpt><trkpt lat="41.3869181" lon="1.5741467"><ele>369.0</ele><time>2026-04-05T10:59:45.8Z</time></trkpt><trkpt lat="41.3868808" lon="1.5742442"><ele>369.0</ele><time>2026-04-05T10:59:46.8Z</time></trkpt><trkpt lat="41.3868417" lon="1.5743411"><ele>369.0</ele><time>2026-04-05T10:59:47.8Z</time></trkpt><trkpt lat="41.3868027" lon="1.5744291"><ele>369.0</ele><time>2026-04-05T10:59:48.8Z</time></trkpt><trkpt lat="41.3867622" lon="1.5745367"><ele>369.0</ele><time>2026-04-05T10:59:49.8Z</time></trkpt><trkpt lat="41.3867229" lon="1.5746435"><ele>369.0</ele><time>2026-04-05T10:59:50.8Z</time></trkpt><trkpt lat="41.3866836" lon="1.5747483"><ele>369.0</ele><time>2026-04-05T10:59:51.8Z</time></trkpt><trkpt lat="41.386644" lon="1.5748537"><ele>368.0</ele><time>2026-04-05T10:59:52.799Z</time></trkpt><trkpt lat="41.3866029" lon="1.5749604"><ele>367.0</ele><time>2026-04-05T10:59:53.8Z</time></trkpt><trkpt lat="41.3865646" lon="1.5750675"><ele>366.0</ele><time>2026-04-05T10:59:54.8Z</time></trkpt><trkpt lat="41.3865234" lon="1.5751773"><ele>365.0</ele><time>2026-04-05T10:59:55.8Z</time></trkpt><trkpt lat="41.3864807" lon="1.5752874"><ele>364.0</ele><time>2026-04-05T10:59:56.8Z</time></trkpt><trkpt lat="41.3864411" lon="1.5753997"><ele>363.79999999999995</ele><time>2026-04-05T10:59:57.8Z</time></trkpt><trkpt lat="41.3863976" lon="1.5755131"><ele>363.59999999999997</ele><time>2026-04-05T10:59:58.799Z</time></trkpt><trkpt lat="41.3863534" lon="1.5756269"><ele>363.4</ele><time>2026-04-05T10:59:59.8Z</time></trkpt><trkpt lat="41.386308" lon="1.5757414"><ele>363.2</ele><time>2026-04-05T11:00:00.799Z</time></trkpt><trkpt lat="41.3862609" lon="1.5758604"><ele>363.0</ele><time>2026-04-05T11:00:01.8Z</time></trkpt><trkpt lat="41.3862168" lon="1.5759785"><ele>363.0</ele><time>2026-04-05T11:00:02.8Z</time></trkpt><trkpt lat="41.3861715" lon="1.5760931"><ele>363.0</ele><time>2026-04-05T11:00:03.799Z</time></trkpt><trkpt lat="41.3861258" lon="1.5762018"><ele>363.0</ele><time>2026-04-05T11:00:04.8Z</time></trkpt><trkpt lat="41.3860821" lon="1.5763132"><ele>363.0</ele><time>2026-04-05T11:00:05.799Z</time></trkpt><trkpt lat="41.3860399" lon="1.5764184"><ele>363.0</ele><time>2026-04-05T11:00:06.799Z</time></trkpt><trkpt lat="41.3860022" lon="1.5765197"><ele>362.3333333333333</ele><time>2026-04-05T11:00:07.8Z</time></trkpt><trkpt lat="41.3859696" lon="1.576608"><ele>361.6666666666667</ele><time>2026-04-05T11:00:08.799Z</time></trkpt><trkpt lat="41.3859391" lon="1.5766983"><ele>361.0</ele><time>2026-04-05T11:00:09.799Z</time></trkpt><trkpt lat="41.3859023" lon="1.5767993"><ele>360.33333333333337</ele><time>2026-04-05T11:00:10.8Z</time></trkpt><trkpt lat="41.3858636" lon="1.5769076"><ele>359.6666666666667</ele><time>2026-04-05T11:00:11.799Z</time></trkpt><trkpt lat="41.3858196" lon="1.5770341"><ele>359.0</ele><time>2026-04-05T11:00:12.8Z</time></trkpt><trkpt lat="41.3857718" lon="1.5771607"><ele>357.5</ele><time>2026-04-05T11:00:13.799Z</time></trkpt><trkpt lat="41.3857193" lon="1.5772923"><ele>356.0</ele><time>2026-04-05T11:00:14.799Z</time></trkpt><trkpt lat="41.3856698" lon="1.577434"><ele>354.5</ele><time>2026-04-05T11:00:15.799Z</time></trkpt><trkpt lat="41.3856183" lon="1.5775802"><ele>353.0</ele><time>2026-04-05T11:00:16.799Z</time></trkpt><trkpt lat="41.385566" lon="1.5777273"><ele>352.75</ele><time>2026-04-05T11:00:17.8Z</time></trkpt><trkpt lat="41.3855162" lon="1.5778765"><ele>352.5</ele><time>2026-04-05T11:00:18.8Z</time></trkpt><trkpt lat="41.3854632" lon="1.5780305"><ele>352.25</ele><time>2026-04-05T11:00:19.799Z</time></trkpt><trkpt lat="41.3854058" lon="1.5781905"><ele>352.0</ele><time>2026-04-05T11:00:20.799Z</time></trkpt><trkpt lat="41.3853507" lon="1.5783558"><ele>352.75</ele><time>2026-04-05T11:00:21.799Z</time></trkpt><trkpt lat="41.3852982" lon="1.578515"><ele>353.5</ele><time>2026-04-05T11:00:22.799Z</time></trkpt><trkpt lat="41.3852457" lon="1.5786676"><ele>354.25</ele><time>2026-04-05T11:00:23.8Z</time></trkpt><trkpt lat="41.3851963" lon="1.5788191"><ele>355.0</ele><time>2026-04-05T11:00:24.8Z</time></trkpt><trkpt lat="41.3851482" lon="1.5789622"><ele>355.0</ele><time>2026-04-05T11:00:25.799Z</time></trkpt><trkpt lat="41.3850988" lon="1.5791027"><ele>355.0</ele><time>2026-04-05T11:00:26.8Z</time></trkpt><trkpt lat="41.3850492" lon="1.5792357"><ele>355.0</ele><time>2026-04-05T11:00:27.8Z</time></trkpt><trkpt lat="41.3850036" lon="1.5793655"><ele>355.0</ele><time>2026-04-05T11:00:28.799Z</time></trkpt><trkpt lat="41.3849571" lon="1.5795"><ele>355.0</ele><time>2026-04-05T11:00:29.8Z</time></trkpt><trkpt lat="41.3849109" lon="1.5796287"><ele>354.0</ele><time>2026-04-05T11:00:30.8Z</time></trkpt><trkpt lat="41.3848634" lon="1.5797628"><ele>353.0</ele><time>2026-04-05T11:00:31.799Z</time></trkpt><trkpt lat="41.3848191" lon="1.5798998"><ele>352.0</ele><time>2026-04-05T11:00:32.8Z</time></trkpt><trkpt lat="41.3847735" lon="1.5800415"><ele>351.0</ele><time>2026-04-05T11:00:33.799Z</time></trkpt><trkpt lat="41.3847211" lon="1.5801884"><ele>351.75</ele><time>2026-04-05T11:00:34.8Z</time></trkpt><trkpt lat="41.3846626" lon="1.5803425"><ele>352.5</ele><time>2026-04-05T11:00:35.799Z</time></trkpt><trkpt lat="41.3845981" lon="1.5805176"><ele>353.25</ele><time>2026-04-05T11:00:36.799Z</time></trkpt><trkpt lat="41.3845367" lon="1.5807028"><ele>354.0</ele><time>2026-04-05T11:00:37.799Z</time></trkpt><trkpt lat="41.3844839" lon="1.5808924"><ele>354.0</ele><time>2026-04-05T11:00:38.8Z</time></trkpt><trkpt lat="41.3844454" lon="1.5810926"><ele>354.0</ele><time>2026-04-05T11:00:39.8Z</time></trkpt><trkpt lat="41.384424" lon="1.5813019"><ele>354.0</ele><time>2026-04-05T11:00:40.799Z</time></trkpt><trkpt lat="41.3844173" lon="1.5815181"><ele>353.0</ele><time>2026-04-05T11:00:41.8Z</time></trkpt><trkpt lat="41.3844192" lon="1.5817413"><ele>352.0</ele><time>2026-04-05T11:00:42.799Z</time></trkpt><trkpt lat="41.3844204" lon="1.581962"><ele>351.0</ele><time>2026-04-05T11:00:43.8Z</time></trkpt><trkpt lat="41.3844219" lon="1.5821784"><ele>350.0</ele><time>2026-04-05T11:00:44.799Z</time></trkpt><trkpt lat="41.3844242" lon="1.5823853"><ele>349.0</ele><time>2026-04-05T11:00:45.8Z</time></trkpt><trkpt lat="41.3844205" lon="1.5825904"><ele>348.0</ele><time>2026-04-05T11:00:46.799Z</time></trkpt><trkpt lat="41.3844219" lon="1.5827857"><ele>347.25</ele><time>2026-04-05T11:00:47.8Z</time></trkpt><trkpt lat="41.3844246" lon="1.582969"><ele>346.5</ele><time>2026-04-05T11:00:48.8Z</time></trkpt><trkpt lat="41.3844271" lon="1.5831527"><ele>345.75</ele><time>2026-04-05T11:00:49.799Z</time></trkpt><trkpt lat="41.3844274" lon="1.5833403"><ele>345.0</ele><time>2026-04-05T11:00:50.8Z</time></trkpt><trkpt lat="41.3844317" lon="1.5835261"><ele>344.75</ele><time>2026-04-05T11:00:51.8Z</time></trkpt><trkpt lat="41.3844332" lon="1.5837015"><ele>344.5</ele><time>2026-04-05T11:00:52.8Z</time></trkpt><trkpt lat="41.3844326" lon="1.5838658"><ele>344.25</ele><time>2026-04-05T11:00:53.799Z</time></trkpt><trkpt lat="41.3844345" lon="1.5840178"><ele>344.0</ele><time>2026-04-05T11:00:54.8Z</time></trkpt><trkpt lat="41.3844378" lon="1.5841599"><ele>344.0</ele><time>2026-04-05T11:00:55.8Z</time></trkpt><trkpt lat="41.3844391" lon="1.5842943"><ele>344.0</ele><time>2026-04-05T11:00:56.799Z</time></trkpt><trkpt lat="41.38444" lon="1.5844358"><ele>344.0</ele><time>2026-04-05T11:00:57.799Z</time></trkpt><trkpt lat="41.3844382" lon="1.5845828"><ele>344.0</ele><time>2026-04-05T11:00:58.8Z</time></trkpt><trkpt lat="41.3844325" lon="1.5847328"><ele>344.0</ele><time>2026-04-05T11:00:59.8Z</time></trkpt><trkpt lat="41.3844223" lon="1.5848873"><ele>344.0</ele><time>2026-04-05T11:01:00.799Z</time></trkpt><trkpt lat="41.3844097" lon="1.5850457"><ele>344.0</ele><time>2026-04-05T11:01:01.799Z</time></trkpt><trkpt lat="41.3843911" lon="1.5852025"><ele>344.0</ele><time>2026-04-05T11:01:02.799Z</time></trkpt><trkpt lat="41.3843679" lon="1.5853545"><ele>344.0</ele><time>2026-04-05T11:01:03.8Z</time></trkpt><trkpt lat="41.3843453" lon="1.5855101"><ele>343.6</ele><time>2026-04-05T11:01:04.799Z</time></trkpt><trkpt lat="41.3843203" lon="1.5856552"><ele>343.2</ele><time>2026-04-05T11:01:05.8Z</time></trkpt><trkpt lat="41.3842924" lon="1.5857949"><ele>342.8</ele><time>2026-04-05T11:01:06.799Z</time></trkpt><trkpt lat="41.3842647" lon="1.5859195"><ele>342.40000000000003</ele><time>2026-04-05T11:01:07.799Z</time></trkpt><trkpt lat="41.3842309" lon="1.5860467"><ele>342.0</ele><time>2026-04-05T11:01:08.799Z</time></trkpt><trkpt lat="41.3841938" lon="1.5861873"><ele>342.0</ele><time>2026-04-05T11:01:09.8Z</time></trkpt><trkpt lat="41.3841539" lon="1.586336"><ele>342.0</ele><time>2026-04-05T11:01:10.8Z</time></trkpt><trkpt lat="41.3841183" lon="1.5864824"><ele>342.0</ele><time>2026-04-05T11:01:11.8Z</time></trkpt><trkpt lat="41.3840853" lon="1.5866279"><ele>342.0</ele><time>2026-04-05T11:01:12.799Z</time></trkpt><trkpt lat="41.3840571" lon="1.5867758"><ele>342.0</ele><time>2026-04-05T11:01:13.799Z</time></trkpt><trkpt lat="41.3840324" lon="1.5869214"><ele>342.0</ele><time>2026-04-05T11:01:14.799Z</time></trkpt><trkpt lat="41.3840112" lon="1.587062"><ele>342.0</ele><time>2026-04-05T11:01:15.799Z</time></trkpt><trkpt lat="41.3839903" lon="1.587201"><ele>342.0</ele><time>2026-04-05T11:01:16.799Z</time></trkpt><trkpt lat="41.383967" lon="1.5873458"><ele>342.0</ele><time>2026-04-05T11:01:17.799Z</time></trkpt><trkpt lat="41.3839445" lon="1.5874955"><ele>341.5</ele><time>2026-04-05T11:01:18.799Z</time></trkpt><trkpt lat="41.3839181" lon="1.5876611"><ele>341.0</ele><time>2026-04-05T11:01:19.8Z</time></trkpt><trkpt lat="41.3838878" lon="1.5878432"><ele>340.5</ele><time>2026-04-05T11:01:20.8Z</time></trkpt><trkpt lat="41.383857" lon="1.5880318"><ele>340.0</ele><time>2026-04-05T11:01:21.8Z</time></trkpt><trkpt lat="41.3838246" lon="1.5882331"><ele>340.0</ele><time>2026-04-05T11:01:22.8Z</time></trkpt><trkpt lat="41.3837886" lon="1.5884433"><ele>340.0</ele><time>2026-04-05T11:01:23.799Z</time></trkpt><trkpt lat="41.3837515" lon="1.5886674"><ele>340.0</ele><time>2026-04-05T11:01:24.8Z</time></trkpt><trkpt lat="41.3837128" lon="1.5889005"><ele>340.0</ele><time>2026-04-05T11:01:25.8Z</time></trkpt><trkpt lat="41.3836698" lon="1.5891301"><ele>340.0</ele><time>2026-04-05T11:01:26.799Z</time></trkpt><trkpt lat="41.3836331" lon="1.589353"><ele>340.0</ele><time>2026-04-05T11:01:27.799Z</time></trkpt><trkpt lat="41.383598" lon="1.5895779"><ele>339.66666666666663</ele><time>2026-04-05T11:01:28.8Z</time></trkpt><trkpt lat="41.3835781" lon="1.589794"><ele>339.3333333333333</ele><time>2026-04-05T11:01:29.799Z</time></trkpt><trkpt lat="41.383589" lon="1.5900001"><ele>339.0</ele><time>2026-04-05T11:01:30.799Z</time></trkpt><trkpt lat="41.3836286" lon="1.5902099"><ele>338.6666666666667</ele><time>2026-04-05T11:01:31.799Z</time></trkpt><trkpt lat="41.3836823" lon="1.5904369"><ele>338.33333333333337</ele><time>2026-04-05T11:01:32.799Z</time></trkpt><trkpt lat="41.3837179" lon="1.5906853"><ele>338.0</ele><time>2026-04-05T11:01:33.8Z</time></trkpt><trkpt lat="41.3837401" lon="1.5909472"><ele>337.33333333333337</ele><time>2026-04-05T11:01:34.8Z</time></trkpt><trkpt lat="41.3837598" lon="1.5912259"><ele>336.6666666666667</ele><time>2026-04-05T11:01:35.799Z</time></trkpt><trkpt lat="41.3837774" lon="1.5915001"><ele>336.0</ele><time>2026-04-05T11:01:36.8Z</time></trkpt><trkpt lat="41.3837859" lon="1.5917687"><ele>335.6666666666667</ele><time>2026-04-05T11:01:37.8Z</time></trkpt><trkpt lat="41.3837939" lon="1.5920259"><ele>335.33333333333337</ele><time>2026-04-05T11:01:38.799Z</time></trkpt><trkpt lat="41.3838027" lon="1.5922756"><ele>335.0</ele><time>2026-04-05T11:01:39.799Z</time></trkpt><trkpt lat="41.3838177" lon="1.5925181"><ele>335.0</ele><time>2026-04-05T11:01:40.8Z</time></trkpt><trkpt lat="41.3838444" lon="1.5927541"><ele>335.0</ele><time>2026-04-05T11:01:41.799Z</time></trkpt><trkpt lat="41.3838953" lon="1.5929856"><ele>335.0</ele><time>2026-04-05T11:01:42.799Z</time></trkpt><trkpt lat="41.3839674" lon="1.5932051"><ele>331.6666666666667</ele><time>2026-04-05T11:01:43.799Z</time></trkpt><trkpt lat="41.3840632" lon="1.5934018"><ele>328.3333333333333</ele><time>2026-04-05T11:01:44.8Z</time></trkpt><trkpt lat="41.3841774" lon="1.5935895"><ele>325.0</ele><time>2026-04-05T11:01:45.8Z</time></trkpt><trkpt lat="41.3843153" lon="1.5937547"><ele>324.66666666666663</ele><time>2026-04-05T11:01:46.8Z</time></trkpt><trkpt lat="41.3844796" lon="1.5939026"><ele>324.3333333333333</ele><time>2026-04-05T11:01:47.8Z</time></trkpt><trkpt lat="41.3846671" lon="1.5940426"><ele>324.0</ele><time>2026-04-05T11:01:48.8Z</time></trkpt><trkpt lat="41.3848555" lon="1.5941798"><ele>321.6666666666667</ele><time>2026-04-05T11:01:49.8Z</time></trkpt><trkpt lat="41.3850397" lon="1.5943175"><ele>319.33333333333337</ele><time>2026-04-05T11:01:50.799Z</time></trkpt><trkpt lat="41.3852268" lon="1.59446"><ele>317.0</ele><time>2026-04-05T11:01:51.8Z</time></trkpt><trkpt lat="41.3854163" lon="1.5946037"><ele>315.33333333333337</ele><time>2026-04-05T11:01:52.8Z</time></trkpt><trkpt lat="41.3856074" lon="1.5947531"><ele>313.6666666666667</ele><time>2026-04-05T11:01:53.8Z</time></trkpt><trkpt lat="41.3857951" lon="1.5948989"><ele>312.0</ele><time>2026-04-05T11:01:54.799Z</time></trkpt><trkpt lat="41.3859811" lon="1.5950405"><ele>312.0</ele><time>2026-04-05T11:01:55.8Z</time></trkpt><trkpt lat="41.3861672" lon="1.5951825"><ele>312.0</ele><time>2026-04-05T11:01:56.8Z</time></trkpt><trkpt lat="41.3863535" lon="1.5953259"><ele>312.0</ele><time>2026-04-05T11:01:57.8Z</time></trkpt><trkpt lat="41.3865481" lon="1.5954773"><ele>311.3333333333333</ele><time>2026-04-05T11:01:58.799Z</time></trkpt><trkpt lat="41.3867398" lon="1.5956248"><ele>310.66666666666663</ele><time>2026-04-05T11:01:59.8Z</time></trkpt><trkpt lat="41.3869279" lon="1.5957677"><ele>310.0</ele><time>2026-04-05T11:02:00.8Z</time></trkpt><trkpt lat="41.3871139" lon="1.5959043"><ele>311.0</ele><time>2026-04-05T11:02:01.8Z</time></trkpt><trkpt lat="41.3873005" lon="1.5960448"><ele>312.0</ele><time>2026-04-05T11:02:02.799Z</time></trkpt><trkpt lat="41.3874895" lon="1.5961866"><ele>313.0</ele><time>2026-04-05T11:02:03.8Z</time></trkpt><trkpt lat="41.38767" lon="1.5963267"><ele>313.66666666666663</ele><time>2026-04-05T11:02:04.799Z</time></trkpt><trkpt lat="41.3878458" lon="1.5964616"><ele>314.3333333333333</ele><time>2026-04-05T11:02:05.8Z</time></trkpt><trkpt lat="41.3880189" lon="1.5965984"><ele>315.0</ele><time>2026-04-05T11:02:06.8Z</time></trkpt><trkpt lat="41.3881962" lon="1.5967318"><ele>315.6666666666667</ele><time>2026-04-05T11:02:07.799Z</time></trkpt><trkpt lat="41.388365" lon="1.5968639"><ele>316.33333333333337</ele><time>2026-04-05T11:02:08.8Z</time></trkpt><trkpt lat="41.388528" lon="1.596987"><ele>317.0</ele><time>2026-04-05T11:02:09.8Z</time></trkpt><trkpt lat="41.3886855" lon="1.59711"><ele>317.0</ele><time>2026-04-05T11:02:10.8Z</time></trkpt><trkpt lat="41.3888461" lon="1.5972317"><ele>317.0</ele><time>2026-04-05T11:02:11.8Z</time></trkpt><trkpt lat="41.3890043" lon="1.5973526"><ele>317.0</ele><time>2026-04-05T11:02:12.8Z</time></trkpt><trkpt lat="41.3891575" lon="1.5974683"><ele>317.0</ele><time>2026-04-05T11:02:13.799Z</time></trkpt><trkpt lat="41.3893048" lon="1.5975791"><ele>317.0</ele><time>2026-04-05T11:02:14.8Z</time></trkpt><trkpt lat="41.3894388" lon="1.5976935"><ele>317.0</ele><time>2026-04-05T11:02:15.799Z</time></trkpt><trkpt lat="41.3895544" lon="1.5978325"><ele>316.33333333333337</ele><time>2026-04-05T11:02:16.799Z</time></trkpt><trkpt lat="41.3896408" lon="1.5979955"><ele>315.6666666666667</ele><time>2026-04-05T11:02:17.8Z</time></trkpt><trkpt lat="41.389693" lon="1.5981851"><ele>315.0</ele><time>2026-04-05T11:02:18.8Z</time></trkpt><trkpt lat="41.3897241" lon="1.5983982"><ele>314.6666666666667</ele><time>2026-04-05T11:02:19.8Z</time></trkpt><trkpt lat="41.3897514" lon="1.5986147"><ele>314.33333333333337</ele><time>2026-04-05T11:02:20.8Z</time></trkpt><trkpt lat="41.3897724" lon="1.5988287"><ele>314.0</ele><time>2026-04-05T11:02:21.8Z</time></trkpt><trkpt lat="41.3897906" lon="1.5990355"><ele>314.0</ele><time>2026-04-05T11:02:22.8Z</time></trkpt><trkpt lat="41.3898036" lon="1.5992372"><ele>314.0</ele><time>2026-04-05T11:02:23.8Z</time></trkpt><trkpt lat="41.3897983" lon="1.5994353"><ele>314.0</ele><time>2026-04-05T11:02:24.8Z</time></trkpt><trkpt lat="41.3897662" lon="1.5996336"><ele>314.0</ele><time>2026-04-05T11:02:25.799Z</time></trkpt><trkpt lat="41.3897036" lon="1.5998485"><ele>314.0</ele><time>2026-04-05T11:02:26.8Z</time></trkpt><trkpt lat="41.3896391" lon="1.6000665"><ele>314.0</ele><time>2026-04-05T11:02:27.8Z</time></trkpt><trkpt lat="41.3895723" lon="1.6002741"><ele>312.6666666666667</ele><time>2026-04-05T11:02:28.799Z</time></trkpt><trkpt lat="41.3895108" lon="1.6004846"><ele>311.3333333333333</ele><time>2026-04-05T11:02:29.8Z</time></trkpt><trkpt lat="41.3894498" lon="1.6006966"><ele>310.0</ele><time>2026-04-05T11:02:30.799Z</time></trkpt><trkpt lat="41.3893871" lon="1.6009105"><ele>310.0</ele><time>2026-04-05T11:02:31.8Z</time></trkpt><trkpt lat="41.389319" lon="1.6011236"><ele>310.0</ele><time>2026-04-05T11:02:32.799Z</time></trkpt><trkpt lat="41.3892509" lon="1.6013378"><ele>310.0</ele><time>2026-04-05T11:02:33.799Z</time></trkpt><trkpt lat="41.3891867" lon="1.6015547"><ele>309.66666666666663</ele><time>2026-04-05T11:02:34.8Z</time></trkpt><trkpt lat="41.3891197" lon="1.6017715"><ele>309.3333333333333</ele><time>2026-04-05T11:02:35.799Z</time></trkpt><trkpt lat="41.3890551" lon="1.6019931"><ele>309.0</ele><time>2026-04-05T11:02:36.799Z</time></trkpt><trkpt lat="41.3889897" lon="1.6022134"><ele>308.6666666666667</ele><time>2026-04-05T11:02:37.8Z</time></trkpt><trkpt lat="41.3889274" lon="1.6024319"><ele>308.33333333333337</ele><time>2026-04-05T11:02:38.8Z</time></trkpt><trkpt lat="41.3888601" lon="1.6026607"><ele>308.0</ele><time>2026-04-05T11:02:39.8Z</time></trkpt><trkpt lat="41.3887995" lon="1.6028711"><ele>307.0</ele><time>2026-04-05T11:02:40.8Z</time></trkpt><trkpt lat="41.388738" lon="1.6030815"><ele>306.0</ele><time>2026-04-05T11:02:41.8Z</time></trkpt><trkpt lat="41.3886756" lon="1.6032882"><ele>305.0</ele><time>2026-04-05T11:02:42.8Z</time></trkpt><trkpt lat="41.3886138" lon="1.6034933"><ele>304.33333333333337</ele><time>2026-04-05T11:02:43.799Z</time></trkpt><trkpt lat="41.3885549" lon="1.6037009"><ele>303.6666666666667</ele><time>2026-04-05T11:02:44.8Z</time></trkpt><trkpt lat="41.3884947" lon="1.603904"><ele>303.0</ele><time>2026-04-05T11:02:45.8Z</time></trkpt><trkpt lat="41.3884308" lon="1.604104"><ele>303.0</ele><time>2026-04-05T11:02:46.8Z</time></trkpt><trkpt lat="41.3883666" lon="1.6043115"><ele>303.0</ele><time>2026-04-05T11:02:47.799Z</time></trkpt><trkpt lat="41.3883011" lon="1.6045197"><ele>303.0</ele><time>2026-04-05T11:02:48.8Z</time></trkpt><trkpt lat="41.3882366" lon="1.6047273"><ele>302.6666666666667</ele><time>2026-04-05T11:02:49.799Z</time></trkpt><trkpt lat="41.3881722" lon="1.6049341"><ele>302.33333333333337</ele><time>2026-04-05T11:02:50.8Z</time></trkpt><trkpt lat="41.388109" lon="1.6051416"><ele>302.0</ele><time>2026-04-05T11:02:51.8Z</time></trkpt><trkpt lat="41.3880454" lon="1.6053449"><ele>301.0</ele><time>2026-04-05T11:02:52.8Z</time></trkpt><trkpt lat="41.3879828" lon="1.6055423"><ele>300.0</ele><time>2026-04-05T11:02:53.8Z</time></trkpt><trkpt lat="41.3879273" lon="1.6057383"><ele>299.0</ele><time>2026-04-05T11:02:54.799Z</time></trkpt><trkpt lat="41.3878731" lon="1.6059303"><ele>299.0</ele><time>2026-04-05T11:02:55.8Z</time></trkpt><trkpt lat="41.3878197" lon="1.6061118"><ele>299.0</ele><time>2026-04-05T11:02:56.8Z</time></trkpt><trkpt lat="41.3877686" lon="1.6062837"><ele>299.0</ele><time>2026-04-05T11:02:57.799Z</time></trkpt><trkpt lat="41.3877152" lon="1.6064543"><ele>299.0</ele><time>2026-04-05T11:02:58.799Z</time></trkpt><trkpt lat="41.3876658" lon="1.6066238"><ele>299.25</ele><time>2026-04-05T11:02:59.799Z</time></trkpt><trkpt lat="41.3876176" lon="1.6067891"><ele>299.5</ele><time>2026-04-05T11:03:00.8Z</time></trkpt><trkpt lat="41.3875735" lon="1.6069353"><ele>299.75</ele><time>2026-04-05T11:03:01.799Z</time></trkpt><trkpt lat="41.3875336" lon="1.6070682"><ele>300.0</ele><time>2026-04-05T11:03:02.8Z</time></trkpt><trkpt lat="41.3874946" lon="1.6071856"><ele>300.0</ele><time>2026-04-05T11:03:03.799Z</time></trkpt><trkpt lat="41.3874431" lon="1.6072702"><ele>300.0</ele><time>2026-04-05T11:03:04.8Z</time></trkpt><trkpt lat="41.3873839" lon="1.6073273"><ele>300.0</ele><time>2026-04-05T11:03:05.8Z</time></trkpt><trkpt lat="41.3873317" lon="1.6073887"><ele>300.0</ele><time>2026-04-05T11:03:06.799Z</time></trkpt><trkpt lat="41.3873015" lon="1.6074739"><ele>300.0</ele><time>2026-04-05T11:03:07.8Z</time></trkpt><trkpt lat="41.387299" lon="1.6075742"><ele>300.0</ele><time>2026-04-05T11:03:08.799Z</time></trkpt><trkpt lat="41.3873148" lon="1.6076794"><ele>300.0</ele><time>2026-04-05T11:03:09.8Z</time></trkpt><trkpt lat="41.3873192" lon="1.6077878"><ele>300.0</ele><time>2026-04-05T11:03:10.799Z</time></trkpt><trkpt lat="41.3872879" lon="1.6079023"><ele>300.0</ele><time>2026-04-05T11:03:11.799Z</time></trkpt><trkpt lat="41.3872445" lon="1.6080278"><ele>300.0</ele><time>2026-04-05T11:03:12.799Z</time></trkpt><trkpt lat="41.3872048" lon="1.6081536"><ele>300.0</ele><time>2026-04-05T11:03:13.8Z</time></trkpt><trkpt lat="41.3871673" lon="1.6082729"><ele>300.0</ele><time>2026-04-05T11:03:14.8Z</time></trkpt><trkpt lat="41.3871333" lon="1.6083897"><ele>300.0</ele><time>2026-04-05T11:03:15.799Z</time></trkpt><trkpt lat="41.3870978" lon="1.6084994"><ele>300.0</ele><time>2026-04-05T11:03:16.8Z</time></trkpt><trkpt lat="41.3870641" lon="1.6086057"><ele>300.0</ele><time>2026-04-05T11:03:17.8Z</time></trkpt><trkpt lat="41.3870333" lon="1.6087096"><ele>300.0</ele><time>2026-04-05T11:03:18.8Z</time></trkpt><trkpt lat="41.3870045" lon="1.6088115"><ele>300.0</ele><time>2026-04-05T11:03:19.799Z</time></trkpt><trkpt lat="41.3869761" lon="1.6089141"><ele>300.0</ele><time>2026-04-05T11:03:20.8Z</time></trkpt><trkpt lat="41.3869497" lon="1.6090178"><ele>300.0</ele><time>2026-04-05T11:03:21.8Z</time></trkpt><trkpt lat="41.3869216" lon="1.6091233"><ele>300.0</ele><time>2026-04-05T11:03:22.8Z</time></trkpt><trkpt lat="41.3868966" lon="1.6092195"><ele>300.0</ele><time>2026-04-05T11:03:23.8Z</time></trkpt><trkpt lat="41.3868688" lon="1.6093029"><ele>300.0</ele><time>2026-04-05T11:03:24.8Z</time></trkpt><trkpt lat="41.3868319" lon="1.6094028"><ele>300.0</ele><time>2026-04-05T11:03:26.799Z</time></trkpt><trkpt lat="41.386812" lon="1.6094825"><ele>300.0</ele><time>2026-04-05T11:03:30.8Z</time></trkpt><trkpt lat="41.3867777" lon="1.6095715"><ele>300.0</ele><time>2026-04-05T11:03:43.8Z</time></trkpt><trkpt lat="41.3867422" lon="1.6097137"><ele>300.0</ele><time>2026-04-05T11:03:45.799Z</time></trkpt><trkpt lat="41.3867188" lon="1.6097929"><ele>300.0</ele><time>2026-04-05T11:03:46.799Z</time></trkpt><trkpt lat="41.3866946" lon="1.6098764"><ele>300.0</ele><time>2026-04-05T11:03:47.8Z</time></trkpt><trkpt lat="41.3866687" lon="1.6099603"><ele>300.0</ele><time>2026-04-05T11:03:48.799Z</time></trkpt><trkpt lat="41.3866424" lon="1.6100506"><ele>299.99999999999994</ele><time>2026-04-05T11:03:49.8Z</time></trkpt><trkpt lat="41.3866164" lon="1.6101378"><ele>300.0</ele><time>2026-04-05T11:03:50.799Z</time></trkpt><trkpt lat="41.3865918" lon="1.6102223"><ele>300.0</ele><time>2026-04-05T11:03:51.8Z</time></trkpt><trkpt lat="41.3865662" lon="1.6103126"><ele>300.0</ele><time>2026-04-05T11:03:52.799Z</time></trkpt><trkpt lat="41.3865392" lon="1.610405"><ele>300.0</ele><time>2026-04-05T11:03:53.799Z</time></trkpt><trkpt lat="41.3865112" lon="1.6105027"><ele>299.99999999999994</ele><time>2026-04-05T11:03:54.8Z</time></trkpt><trkpt lat="41.3864797" lon="1.6106025"><ele>300.0</ele><time>2026-04-05T11:03:55.799Z</time></trkpt><trkpt lat="41.3864518" lon="1.6107015"><ele>300.0</ele><time>2026-04-05T11:03:56.799Z</time></trkpt><trkpt lat="41.3864261" lon="1.6107955"><ele>300.0</ele><time>2026-04-05T11:03:57.799Z</time></trkpt><trkpt lat="41.3864024" lon="1.6108802"><ele>300.0</ele><time>2026-04-05T11:03:58.8Z</time></trkpt><trkpt lat="41.3863781" lon="1.6109609"><ele>300.0</ele><time>2026-04-05T11:03:59.799Z</time></trkpt><trkpt lat="41.3863324" lon="1.6111136"><ele>300.0</ele><time>2026-04-05T11:04:01.799Z</time></trkpt><trkpt lat="41.3862913" lon="1.6112381"><ele>300.0</ele><time>2026-04-05T11:04:03.8Z</time></trkpt><trkpt lat="41.3862679" lon="1.6113197"><ele>299.5</ele><time>2026-04-05T11:04:05.799Z</time></trkpt><trkpt lat="41.3862333" lon="1.6113944"><ele>299.0</ele><time>2026-04-05T11:04:12.799Z</time></trkpt><trkpt lat="41.3862003" lon="1.6115161"><ele>298.5</ele><time>2026-04-05T11:04:14.8Z</time></trkpt><trkpt lat="41.3861634" lon="1.6116544"><ele>298.0</ele><time>2026-04-05T11:04:16.8Z</time></trkpt><trkpt lat="41.3861141" lon="1.6117535"><ele>297.5</ele><time>2026-04-05T11:04:18.799Z</time></trkpt><trkpt lat="41.3860489" lon="1.6117468"><ele>297.0</ele><time>2026-04-05T11:04:20.799Z</time></trkpt><trkpt lat="41.3859816" lon="1.6116738"><ele>297.0</ele><time>2026-04-05T11:04:22.8Z</time></trkpt><trkpt lat="41.3858932" lon="1.611574"><ele>297.0</ele><time>2026-04-05T11:04:24.799Z</time></trkpt><trkpt lat="41.3858085" lon="1.6114587"><ele>297.0</ele><time>2026-04-05T11:04:26.799Z</time></trkpt><trkpt lat="41.3857318" lon="1.6113518"><ele>297.0</ele><time>2026-04-05T11:04:28.799Z</time></trkpt><trkpt lat="41.385653" lon="1.611248"><ele>296.8</ele><time>2026-04-05T11:04:30.8Z</time></trkpt><trkpt lat="41.3855705" lon="1.6111417"><ele>296.6</ele><time>2026-04-05T11:04:32.799Z</time></trkpt><trkpt lat="41.3854896" lon="1.6110265"><ele>296.40000000000003</ele><time>2026-04-05T11:04:34.8Z</time></trkpt><trkpt lat="41.3854131" lon="1.6109166"><ele>296.2</ele><time>2026-04-05T11:04:36.8Z</time></trkpt><trkpt lat="41.3853479" lon="1.6108314"><ele>296.0</ele><time>2026-04-05T11:04:38.799Z</time></trkpt><trkpt lat="41.3852732" lon="1.6107677"><ele>295.6666666666667</ele><time>2026-04-05T11:04:40.8Z</time></trkpt><trkpt lat="41.3852018" lon="1.6107051"><ele>295.33333333333337</ele><time>2026-04-05T11:04:42.799Z</time></trkpt><trkpt lat="41.3851522" lon="1.610634"><ele>295.0</ele><time>2026-04-05T11:04:44.8Z</time></trkpt><trkpt lat="41.3850857" lon="1.6105888"><ele>294.6666666666667</ele><time>2026-04-05T11:04:47.799Z</time></trkpt><trkpt lat="41.3851239" lon="1.6106556"><ele>294.3333333333333</ele><time>2026-04-05T11:04:52.799Z</time></trkpt><trkpt lat="41.3851458" lon="1.6107546"><ele>294.0</ele><time>2026-04-05T11:04:58.8Z</time></trkpt><trkpt lat="41.3850592" lon="1.6108509"><ele>294.0</ele><time>2026-04-05T11:05:00.8Z</time></trkpt><trkpt lat="41.3849584" lon="1.6109558"><ele>294.0</ele><time>2026-04-05T11:05:02.799Z</time></trkpt><trkpt lat="41.384904" lon="1.6110095"><ele>294.0</ele><time>2026-04-05T11:05:03.8Z</time></trkpt><trkpt lat="41.3848511" lon="1.6110632"><ele>294.0</ele><time>2026-04-05T11:05:04.8Z</time></trkpt><trkpt lat="41.3847971" lon="1.6111173"><ele>294.0</ele><time>2026-04-05T11:05:05.799Z</time></trkpt><trkpt lat="41.384701" lon="1.611212"><ele>294.0</ele><time>2026-04-05T11:05:07.799Z</time></trkpt><trkpt lat="41.3846034" lon="1.6113107"><ele>293.2</ele><time>2026-04-05T11:05:09.8Z</time></trkpt><trkpt lat="41.3845504" lon="1.611366"><ele>292.4</ele><time>2026-04-05T11:05:10.8Z</time></trkpt><trkpt lat="41.3844955" lon="1.611422"><ele>291.6</ele><time>2026-04-05T11:05:11.8Z</time></trkpt><trkpt lat="41.3844013" lon="1.611517"><ele>290.8</ele><time>2026-04-05T11:05:13.799Z</time></trkpt><trkpt lat="41.3843136" lon="1.6116169"><ele>290.0</ele><time>2026-04-05T11:05:15.8Z</time></trkpt><trkpt lat="41.3842251" lon="1.6117058"><ele>290.0</ele><time>2026-04-05T11:05:17.799Z</time></trkpt><trkpt lat="41.3841238" lon="1.6118028"><ele>290.0</ele><time>2026-04-05T11:05:19.799Z</time></trkpt><trkpt lat="41.3840262" lon="1.6119067"><ele>290.0</ele><time>2026-04-05T11:05:21.799Z</time></trkpt><trkpt lat="41.3839275" lon="1.6120124"><ele>290.0</ele><time>2026-04-05T11:05:23.799Z</time></trkpt><trkpt lat="41.3838751" lon="1.6120657"><ele>290.0</ele><time>2026-04-05T11:05:24.799Z</time></trkpt><trkpt lat="41.3838027" lon="1.6121882"><ele>290.0</ele><time>2026-04-05T11:05:26.8Z</time></trkpt><trkpt lat="41.3837386" lon="1.6122991"><ele>290.0</ele><time>2026-04-05T11:05:28.799Z</time></trkpt><trkpt lat="41.383731" lon="1.6123992"><ele>290.0</ele><time>2026-04-05T11:05:30.799Z</time></trkpt><trkpt lat="41.3838094" lon="1.6124853"><ele>290.0</ele><time>2026-04-05T11:05:32.799Z</time></trkpt><trkpt lat="41.3839156" lon="1.6125767"><ele>290.0</ele><time>2026-04-05T11:05:34.8Z</time></trkpt><trkpt lat="41.3839724" lon="1.6126318"><ele>290.0</ele><time>2026-04-05T11:05:35.8Z</time></trkpt><trkpt lat="41.3840328" lon="1.6126838"><ele>290.0</ele><time>2026-04-05T11:05:36.799Z</time></trkpt><trkpt lat="41.3840864" lon="1.612735"><ele>290.0</ele><time>2026-04-05T11:05:37.799Z</time></trkpt><trkpt lat="41.3841765" lon="1.6128191"><ele>290.0</ele><time>2026-04-05T11:05:39.8Z</time></trkpt><trkpt lat="41.3842556" lon="1.6128698"><ele>290.0</ele><time>2026-04-05T11:05:41.799Z</time></trkpt><trkpt lat="41.3843353" lon="1.6128063"><ele>290.0</ele><time>2026-04-05T11:05:43.799Z</time></trkpt><trkpt lat="41.3843775" lon="1.6127418"><ele>290.0</ele><time>2026-04-05T11:05:44.8Z</time></trkpt><trkpt lat="41.3844181" lon="1.6126733"><ele>290.0</ele><time>2026-04-05T11:05:45.799Z</time></trkpt><trkpt lat="41.3844662" lon="1.612613"><ele>290.0</ele><time>2026-04-05T11:05:46.799Z</time></trkpt><trkpt lat="41.3845703" lon="1.6125749"><ele>290.0</ele><time>2026-04-05T11:05:48.799Z</time></trkpt><trkpt lat="41.3846759" lon="1.6126553"><ele>290.0</ele><time>2026-04-05T11:05:50.799Z</time></trkpt><trkpt lat="41.3847389" lon="1.6127089"><ele>290.0</ele><time>2026-04-05T11:05:51.8Z</time></trkpt><trkpt lat="41.3848061" lon="1.6127613"><ele>290.6666666666667</ele><time>2026-04-05T11:05:52.799Z</time></trkpt><trkpt lat="41.3848698" lon="1.6128231"><ele>291.33333333333337</ele><time>2026-04-05T11:05:53.8Z</time></trkpt><trkpt lat="41.3849284" lon="1.6128844"><ele>292.0</ele><time>2026-04-05T11:05:54.8Z</time></trkpt><trkpt lat="41.3849906" lon="1.6129473"><ele>292.6666666666667</ele><time>2026-04-05T11:05:55.799Z</time></trkpt><trkpt lat="41.3850585" lon="1.613013"><ele>293.3333333333333</ele><time>2026-04-05T11:05:56.799Z</time></trkpt><trkpt lat="41.3851283" lon="1.6130809"><ele>294.0</ele><time>2026-04-05T11:05:57.799Z</time></trkpt><trkpt lat="41.3852014" lon="1.6131514"><ele>294.0</ele><time>2026-04-05T11:05:58.799Z</time></trkpt><trkpt lat="41.3852768" lon="1.6132266"><ele>294.0</ele><time>2026-04-05T11:05:59.799Z</time></trkpt><trkpt lat="41.385346" lon="1.6132994"><ele>294.0</ele><time>2026-04-05T11:06:00.799Z</time></trkpt><trkpt lat="41.3854116" lon="1.6133646"><ele>294.0</ele><time>2026-04-05T11:06:01.8Z</time></trkpt><trkpt lat="41.3854669" lon="1.6134183"><ele>294.0</ele><time>2026-04-05T11:06:02.8Z</time></trkpt><trkpt lat="41.385519" lon="1.6134708"><ele>294.0</ele><time>2026-04-05T11:06:04.8Z</time></trkpt><trkpt lat="41.3855611" lon="1.6135445"><ele>294.0</ele><time>2026-04-05T11:06:09.8Z</time></trkpt><trkpt lat="41.3855481" lon="1.6136558"><ele>294.0</ele><time>2026-04-05T11:06:13.8Z</time></trkpt><trkpt lat="41.3855162" lon="1.6137861"><ele>294.0</ele><time>2026-04-05T11:06:15.8Z</time></trkpt><trkpt lat="41.3854678" lon="1.6139328"><ele>294.0</ele><time>2026-04-05T11:06:17.799Z</time></trkpt><trkpt lat="41.3854215" lon="1.6140901"><ele>294.0</ele><time>2026-04-05T11:06:19.8Z</time></trkpt><trkpt lat="41.3853974" lon="1.6141738"><ele>294.0</ele><time>2026-04-05T11:06:20.8Z</time></trkpt><trkpt lat="41.3853699" lon="1.614256"><ele>294.0</ele><time>2026-04-05T11:06:21.8Z</time></trkpt><trkpt lat="41.3853481" lon="1.6143351"><ele>294.0</ele><time>2026-04-05T11:06:22.799Z</time></trkpt><trkpt lat="41.3853053" lon="1.6144816"><ele>294.0</ele><time>2026-04-05T11:06:24.799Z</time></trkpt><trkpt lat="41.3852671" lon="1.6146152"><ele>294.0</ele><time>2026-04-05T11:06:26.799Z</time></trkpt><trkpt lat="41.3852351" lon="1.6147294"><ele>294.0</ele><time>2026-04-05T11:06:28.799Z</time></trkpt><trkpt lat="41.3852094" lon="1.6148147"><ele>294.0</ele><time>2026-04-05T11:06:30.8Z</time></trkpt><trkpt lat="41.3851734" lon="1.6149323"><ele>294.0</ele><time>2026-04-05T11:06:32.799Z</time></trkpt><trkpt lat="41.3851425" lon="1.6150283"><ele>294.0</ele><time>2026-04-05T11:06:33.799Z</time></trkpt><trkpt lat="41.3851138" lon="1.6151343"><ele>294.0</ele><time>2026-04-05T11:06:34.799Z</time></trkpt><trkpt lat="41.3850773" lon="1.6152558"><ele>294.0</ele><time>2026-04-05T11:06:35.799Z</time></trkpt><trkpt lat="41.3850352" lon="1.6154"><ele>294.0</ele><time>2026-04-05T11:06:36.8Z</time></trkpt><trkpt lat="41.3849875" lon="1.6155602"><ele>294.0</ele><time>2026-04-05T11:06:37.799Z</time></trkpt><trkpt lat="41.3849362" lon="1.6157246"><ele>294.0</ele><time>2026-04-05T11:06:38.799Z</time></trkpt><trkpt lat="41.3848827" lon="1.6159008"><ele>294.0</ele><time>2026-04-05T11:06:39.8Z</time></trkpt><trkpt lat="41.3848264" lon="1.6160813"><ele>294.3333333333333</ele><time>2026-04-05T11:06:40.799Z</time></trkpt><trkpt lat="41.3847664" lon="1.6162721"><ele>294.66666666666663</ele><time>2026-04-05T11:06:41.8Z</time></trkpt><trkpt lat="41.3847088" lon="1.6164687"><ele>295.0</ele><time>2026-04-05T11:06:42.799Z</time></trkpt><trkpt lat="41.38465" lon="1.6166688"><ele>293.66666666666663</ele><time>2026-04-05T11:06:43.799Z</time></trkpt><trkpt lat="41.3845902" lon="1.6168651"><ele>292.3333333333333</ele><time>2026-04-05T11:06:44.799Z</time></trkpt><trkpt lat="41.3845285" lon="1.6170673"><ele>291.0</ele><time>2026-04-05T11:06:45.8Z</time></trkpt><trkpt lat="41.3844686" lon="1.6172736"><ele>291.0</ele><time>2026-04-05T11:06:46.8Z</time></trkpt><trkpt lat="41.3844083" lon="1.6174763"><ele>291.0</ele><time>2026-04-05T11:06:47.799Z</time></trkpt><trkpt lat="41.3843493" lon="1.6176692"><ele>291.0</ele><time>2026-04-05T11:06:48.799Z</time></trkpt><trkpt lat="41.3842915" lon="1.6178593"><ele>291.40000000000003</ele><time>2026-04-05T11:06:49.799Z</time></trkpt><trkpt lat="41.3842388" lon="1.618036"><ele>291.8</ele><time>2026-04-05T11:06:50.8Z</time></trkpt><trkpt lat="41.3841878" lon="1.6181905"><ele>292.20000000000005</ele><time>2026-04-05T11:06:51.799Z</time></trkpt><trkpt lat="41.3841495" lon="1.6183109"><ele>292.6</ele><time>2026-04-05T11:06:52.8Z</time></trkpt><trkpt lat="41.3841127" lon="1.6183973"><ele>293.0</ele><time>2026-04-05T11:06:53.799Z</time></trkpt><trkpt lat="41.3840624" lon="1.6184778"><ele>293.0</ele><time>2026-04-05T11:06:54.8Z</time></trkpt><trkpt lat="41.3840015" lon="1.618569"><ele>293.0</ele><time>2026-04-05T11:06:55.799Z</time></trkpt><trkpt lat="41.3839653" lon="1.6186783"><ele>293.0</ele><time>2026-04-05T11:06:56.8Z</time></trkpt><trkpt lat="41.3839528" lon="1.6188031"><ele>293.0</ele><time>2026-04-05T11:06:57.799Z</time></trkpt><trkpt lat="41.3839477" lon="1.6189457"><ele>293.0</ele><time>2026-04-05T11:06:58.799Z</time></trkpt><trkpt lat="41.3839194" lon="1.6190981"><ele>293.0</ele><time>2026-04-05T11:06:59.799Z</time></trkpt><trkpt lat="41.3838648" lon="1.6192646"><ele>293.0</ele><time>2026-04-05T11:07:00.8Z</time></trkpt><trkpt lat="41.3838092" lon="1.6194387"><ele>293.0</ele><time>2026-04-05T11:07:01.799Z</time></trkpt><trkpt lat="41.3837563" lon="1.6196251"><ele>293.0</ele><time>2026-04-05T11:07:02.799Z</time></trkpt><trkpt lat="41.3837004" lon="1.6198223"><ele>293.0</ele><time>2026-04-05T11:07:03.8Z</time></trkpt><trkpt lat="41.3836444" lon="1.6200363"><ele>293.0</ele><time>2026-04-05T11:07:04.799Z</time></trkpt><trkpt lat="41.3835928" lon="1.6202612"><ele>293.0</ele><time>2026-04-05T11:07:05.8Z</time></trkpt><trkpt lat="41.383553" lon="1.6204939"><ele>293.6666666666667</ele><time>2026-04-05T11:07:06.8Z</time></trkpt><trkpt lat="41.3835343" lon="1.6207339"><ele>294.3333333333333</ele><time>2026-04-05T11:07:07.8Z</time></trkpt><trkpt lat="41.3835376" lon="1.6209793"><ele>295.0</ele><time>2026-04-05T11:07:08.8Z</time></trkpt><trkpt lat="41.3835484" lon="1.6212036"><ele>295.66666666666663</ele><time>2026-04-05T11:07:09.799Z</time></trkpt><trkpt lat="41.3835843" lon="1.6214452"><ele>296.3333333333333</ele><time>2026-04-05T11:07:10.799Z</time></trkpt><trkpt lat="41.3836193" lon="1.621681"><ele>297.0</ele><time>2026-04-05T11:07:11.799Z</time></trkpt><trkpt lat="41.3836584" lon="1.6219238"><ele>297.6666666666667</ele><time>2026-04-05T11:07:12.799Z</time></trkpt><trkpt lat="41.3836965" lon="1.6221772"><ele>298.33333333333337</ele><time>2026-04-05T11:07:13.799Z</time></trkpt><trkpt lat="41.3837366" lon="1.6224329"><ele>299.0</ele><time>2026-04-05T11:07:14.799Z</time></trkpt><trkpt lat="41.383777" lon="1.6226938"><ele>299.6666666666667</ele><time>2026-04-05T11:07:15.8Z</time></trkpt><trkpt lat="41.3838165" lon="1.6229596"><ele>300.3333333333333</ele><time>2026-04-05T11:07:16.799Z</time></trkpt><trkpt lat="41.3838594" lon="1.6232401"><ele>301.0</ele><time>2026-04-05T11:07:17.8Z</time></trkpt><trkpt lat="41.383903" lon="1.6235297"><ele>300.0</ele><time>2026-04-05T11:07:18.799Z</time></trkpt><trkpt lat="41.3839466" lon="1.6238193"><ele>299.0</ele><time>2026-04-05T11:07:19.8Z</time></trkpt><trkpt lat="41.3839905" lon="1.6241049"><ele>298.0</ele><time>2026-04-05T11:07:20.8Z</time></trkpt><trkpt lat="41.3840359" lon="1.6243833"><ele>298.3333333333333</ele><time>2026-04-05T11:07:21.8Z</time></trkpt><trkpt lat="41.3840803" lon="1.6246583"><ele>298.6666666666667</ele><time>2026-04-05T11:07:22.8Z</time></trkpt><trkpt lat="41.3841244" lon="1.6249351"><ele>299.0</ele><time>2026-04-05T11:07:23.799Z</time></trkpt><trkpt lat="41.3841707" lon="1.6252122"><ele>298.33333333333337</ele><time>2026-04-05T11:07:24.799Z</time></trkpt><trkpt lat="41.3842114" lon="1.6254881"><ele>297.6666666666667</ele><time>2026-04-05T11:07:25.799Z</time></trkpt><trkpt lat="41.3842565" lon="1.6257623"><ele>297.0</ele><time>2026-04-05T11:07:26.8Z</time></trkpt><trkpt lat="41.3842996" lon="1.6260325"><ele>297.0</ele><time>2026-04-05T11:07:27.8Z</time></trkpt><trkpt lat="41.3843422" lon="1.6262932"><ele>297.0</ele><time>2026-04-05T11:07:28.8Z</time></trkpt><trkpt lat="41.3843848" lon="1.6265491"><ele>297.0</ele><time>2026-04-05T11:07:29.799Z</time></trkpt><trkpt lat="41.3844223" lon="1.6268113"><ele>296.6666666666667</ele><time>2026-04-05T11:07:30.799Z</time></trkpt><trkpt lat="41.3844491" lon="1.6270718"><ele>296.33333333333337</ele><time>2026-04-05T11:07:31.8Z</time></trkpt><trkpt lat="41.384456" lon="1.6273431"><ele>296.0</ele><time>2026-04-05T11:07:32.8Z</time></trkpt><trkpt lat="41.3844548" lon="1.6276235"><ele>293.6666666666667</ele><time>2026-04-05T11:07:33.8Z</time></trkpt><trkpt lat="41.3844476" lon="1.6279096"><ele>291.3333333333333</ele><time>2026-04-05T11:07:34.8Z</time></trkpt><trkpt lat="41.3844359" lon="1.6281938"><ele>289.0</ele><time>2026-04-05T11:07:35.8Z</time></trkpt><trkpt lat="41.384428" lon="1.628483"><ele>287.66666666666663</ele><time>2026-04-05T11:07:36.8Z</time></trkpt><trkpt lat="41.3844184" lon="1.6287702"><ele>286.3333333333333</ele><time>2026-04-05T11:07:37.8Z</time></trkpt><trkpt lat="41.384406" lon="1.6290559"><ele>285.0</ele><time>2026-04-05T11:07:38.8Z</time></trkpt><trkpt lat="41.384396" lon="1.6293398"><ele>283.3333333333333</ele><time>2026-04-05T11:07:39.799Z</time></trkpt><trkpt lat="41.3843905" lon="1.6296235"><ele>281.66666666666663</ele><time>2026-04-05T11:07:40.8Z</time></trkpt><trkpt lat="41.3843829" lon="1.6299139"><ele>280.0</ele><time>2026-04-05T11:07:41.799Z</time></trkpt><trkpt lat="41.3843748" lon="1.6302249"><ele>277.5</ele><time>2026-04-05T11:07:42.799Z</time></trkpt><trkpt lat="41.3843649" lon="1.630534"><ele>275.0</ele><time>2026-04-05T11:07:43.799Z</time></trkpt><trkpt lat="41.3843549" lon="1.6308316"><ele>275.0</ele><time>2026-04-05T11:07:44.8Z</time></trkpt><trkpt lat="41.3843451" lon="1.6311211"><ele>275.0</ele><time>2026-04-05T11:07:45.8Z</time></trkpt><trkpt lat="41.384336" lon="1.6314038"><ele>275.0</ele><time>2026-04-05T11:07:46.8Z</time></trkpt><trkpt lat="41.384325" lon="1.6316766"><ele>274.6666666666667</ele><time>2026-04-05T11:07:47.8Z</time></trkpt><trkpt lat="41.3843175" lon="1.6319451"><ele>274.3333333333333</ele><time>2026-04-05T11:07:48.8Z</time></trkpt><trkpt lat="41.3843114" lon="1.6322076"><ele>274.0</ele><time>2026-04-05T11:07:49.799Z</time></trkpt><trkpt lat="41.3843023" lon="1.6324699"><ele>272.66666666666663</ele><time>2026-04-05T11:07:50.8Z</time></trkpt><trkpt lat="41.384278" lon="1.6327249"><ele>271.3333333333333</ele><time>2026-04-05T11:07:51.8Z</time></trkpt><trkpt lat="41.3842264" lon="1.6329893"><ele>270.0</ele><time>2026-04-05T11:07:52.8Z</time></trkpt><trkpt lat="41.3841483" lon="1.6332534"><ele>266.5</ele><time>2026-04-05T11:07:53.8Z</time></trkpt><trkpt lat="41.384038" lon="1.633522"><ele>263.0</ele><time>2026-04-05T11:07:54.8Z</time></trkpt><trkpt lat="41.3839056" lon="1.6337749"><ele>261.33333333333337</ele><time>2026-04-05T11:07:55.8Z</time></trkpt><trkpt lat="41.3837596" lon="1.6340038"><ele>259.6666666666667</ele><time>2026-04-05T11:07:56.799Z</time></trkpt><trkpt lat="41.3836069" lon="1.6342107"><ele>258.0</ele><time>2026-04-05T11:07:57.799Z</time></trkpt><trkpt lat="41.3834578" lon="1.6344036"><ele>260.6666666666667</ele><time>2026-04-05T11:07:58.799Z</time></trkpt><trkpt lat="41.3833112" lon="1.6345882"><ele>263.33333333333337</ele><time>2026-04-05T11:07:59.8Z</time></trkpt><trkpt lat="41.3831657" lon="1.6347548"><ele>266.0</ele><time>2026-04-05T11:08:00.797Z</time></trkpt><trkpt lat="41.3830252" lon="1.6348937"><ele>263.6666666666667</ele><time>2026-04-05T11:08:01.8Z</time></trkpt><trkpt lat="41.3828794" lon="1.6350149"><ele>261.3333333333333</ele><time>2026-04-05T11:08:02.799Z</time></trkpt><trkpt lat="41.3827413" lon="1.6351273"><ele>259.0</ele><time>2026-04-05T11:08:03.799Z</time></trkpt><trkpt lat="41.3826157" lon="1.6352437"><ele>262.3333333333333</ele><time>2026-04-05T11:08:04.799Z</time></trkpt><trkpt lat="41.3824979" lon="1.6353799"><ele>265.6666666666667</ele><time>2026-04-05T11:08:05.8Z</time></trkpt><trkpt lat="41.3823876" lon="1.6355494"><ele>269.0</ele><time>2026-04-05T11:08:06.799Z</time></trkpt><trkpt lat="41.3822902" lon="1.6357463"><ele>269.0</ele><time>2026-04-05T11:08:07.799Z</time></trkpt><trkpt lat="41.3822033" lon="1.6359654"><ele>269.0</ele><time>2026-04-05T11:08:08.799Z</time></trkpt><trkpt lat="41.382119" lon="1.6361957"><ele>269.0</ele><time>2026-04-05T11:08:09.8Z</time></trkpt><trkpt lat="41.3820319" lon="1.6364244"><ele>267.33333333333337</ele><time>2026-04-05T11:08:10.799Z</time></trkpt><trkpt lat="41.3819434" lon="1.6366898"><ele>265.6666666666667</ele><time>2026-04-05T11:08:11.8Z</time></trkpt><trkpt lat="41.3818516" lon="1.6369601"><ele>264.0</ele><time>2026-04-05T11:08:12.8Z</time></trkpt><trkpt lat="41.3817547" lon="1.6372412"><ele>264.0</ele><time>2026-04-05T11:08:13.8Z</time></trkpt><trkpt lat="41.3816618" lon="1.6375072"><ele>264.0</ele><time>2026-04-05T11:08:14.799Z</time></trkpt><trkpt lat="41.3815711" lon="1.6377696"><ele>264.0</ele><time>2026-04-05T11:08:15.799Z</time></trkpt><trkpt lat="41.3814765" lon="1.6380417"><ele>265.0</ele><time>2026-04-05T11:08:16.8Z</time></trkpt><trkpt lat="41.3813835" lon="1.6383128"><ele>266.0</ele><time>2026-04-05T11:08:17.8Z</time></trkpt><trkpt lat="41.3812908" lon="1.6385843"><ele>267.0</ele><time>2026-04-05T11:08:18.799Z</time></trkpt><trkpt lat="41.3811962" lon="1.6388544"><ele>264.3333333333333</ele><time>2026-04-05T11:08:19.8Z</time></trkpt><trkpt lat="41.3811031" lon="1.6391225"><ele>261.66666666666663</ele><time>2026-04-05T11:08:20.8Z</time></trkpt><trkpt lat="41.3810063" lon="1.6393909"><ele>259.0</ele><time>2026-04-05T11:08:21.8Z</time></trkpt><trkpt lat="41.3809141" lon="1.6396543"><ele>259.0</ele><time>2026-04-05T11:08:22.8Z</time></trkpt><trkpt lat="41.3808238" lon="1.6399208"><ele>259.0</ele><time>2026-04-05T11:08:23.8Z</time></trkpt><trkpt lat="41.3807281" lon="1.6401811"><ele>259.0</ele><time>2026-04-05T11:08:24.799Z</time></trkpt><trkpt lat="41.380622" lon="1.6404242"><ele>257.3333333333333</ele><time>2026-04-05T11:08:25.799Z</time></trkpt><trkpt lat="41.3804967" lon="1.6406522"><ele>255.66666666666669</ele><time>2026-04-05T11:08:26.799Z</time></trkpt><trkpt lat="41.3803408" lon="1.6408553"><ele>254.0</ele><time>2026-04-05T11:08:27.8Z</time></trkpt><trkpt lat="41.3801698" lon="1.6410434"><ele>253.5</ele><time>2026-04-05T11:08:28.8Z</time></trkpt><trkpt lat="41.3799914" lon="1.6412311"><ele>253.0</ele><time>2026-04-05T11:08:29.8Z</time></trkpt><trkpt lat="41.3798067" lon="1.6414189"><ele>258.0</ele><time>2026-04-05T11:08:30.8Z</time></trkpt><trkpt lat="41.3796254" lon="1.6416138"><ele>263.0</ele><time>2026-04-05T11:08:31.8Z</time></trkpt><trkpt lat="41.379444" lon="1.6418046"><ele>258.5</ele><time>2026-04-05T11:08:32.8Z</time></trkpt><trkpt lat="41.3792629" lon="1.6419987"><ele>254.0</ele><time>2026-04-05T11:08:33.799Z</time></trkpt><trkpt lat="41.379074" lon="1.6421963"><ele>254.0</ele><time>2026-04-05T11:08:34.8Z</time></trkpt><trkpt lat="41.3788853" lon="1.6423991"><ele>254.0</ele><time>2026-04-05T11:08:35.8Z</time></trkpt><trkpt lat="41.3786823" lon="1.6426055"><ele>253.5</ele><time>2026-04-05T11:08:36.8Z</time></trkpt><trkpt lat="41.37847" lon="1.6428252"><ele>253.0</ele><time>2026-04-05T11:08:37.8Z</time></trkpt><trkpt lat="41.3782511" lon="1.6430529"><ele>253.0</ele><time>2026-04-05T11:08:38.8Z</time></trkpt><trkpt lat="41.378021" lon="1.6432938"><ele>253.0</ele><time>2026-04-05T11:08:39.799Z</time></trkpt><trkpt lat="41.3777916" lon="1.6435344"><ele>251.5</ele><time>2026-04-05T11:08:40.8Z</time></trkpt><trkpt lat="41.3775641" lon="1.6437688"><ele>250.0</ele><time>2026-04-05T11:08:41.8Z</time></trkpt><trkpt lat="41.3773432" lon="1.6439967"><ele>255.0</ele><time>2026-04-05T11:08:42.8Z</time></trkpt><trkpt lat="41.3771184" lon="1.6442263"><ele>260.0</ele><time>2026-04-05T11:08:43.8Z</time></trkpt><trkpt lat="41.3768925" lon="1.6444586"><ele>254.5</ele><time>2026-04-05T11:08:44.799Z</time></trkpt><trkpt lat="41.3766665" lon="1.6446947"><ele>249.0</ele><time>2026-04-05T11:08:45.799Z</time></trkpt><trkpt lat="41.376435" lon="1.6449371"><ele>248.0</ele><time>2026-04-05T11:08:46.8Z</time></trkpt><trkpt lat="41.3762033" lon="1.6451807"><ele>247.0</ele><time>2026-04-05T11:08:47.799Z</time></trkpt><trkpt lat="41.3759663" lon="1.6454256"><ele>247.0</ele><time>2026-04-05T11:08:48.8Z</time></trkpt><trkpt lat="41.3757285" lon="1.6456737"><ele>247.0</ele><time>2026-04-05T11:08:49.799Z</time></trkpt><trkpt lat="41.3754922" lon="1.6459223"><ele>246.0</ele><time>2026-04-05T11:08:50.799Z</time></trkpt><trkpt lat="41.3752678" lon="1.6461559"><ele>245.0</ele><time>2026-04-05T11:08:51.8Z</time></trkpt><trkpt lat="41.3750486" lon="1.6463867"><ele>245.0</ele><time>2026-04-05T11:08:52.799Z</time></trkpt><trkpt lat="41.3748282" lon="1.6466185"><ele>245.0</ele><time>2026-04-05T11:08:53.799Z</time></trkpt><trkpt lat="41.3746085" lon="1.6468472"><ele>245.0</ele><time>2026-04-05T11:08:54.8Z</time></trkpt><trkpt lat="41.3744016" lon="1.6470636"><ele>245.0</ele><time>2026-04-05T11:08:55.799Z</time></trkpt><trkpt lat="41.374197" lon="1.6472753"><ele>245.0</ele><time>2026-04-05T11:08:56.8Z</time></trkpt><trkpt lat="41.3740022" lon="1.6474831"><ele>245.0</ele><time>2026-04-05T11:08:57.799Z</time></trkpt><trkpt lat="41.3738046" lon="1.6476861"><ele>242.0</ele><time>2026-04-05T11:08:58.799Z</time></trkpt><trkpt lat="41.3736038" lon="1.6478974"><ele>239.0</ele><time>2026-04-05T11:08:59.799Z</time></trkpt><trkpt lat="41.3734" lon="1.6481116"><ele>239.0</ele><time>2026-04-05T11:09:00.799Z</time></trkpt><trkpt lat="41.3731965" lon="1.6483241"><ele>239.0</ele><time>2026-04-05T11:09:01.799Z</time></trkpt><trkpt lat="41.3730014" lon="1.6485265"><ele>237.0</ele><time>2026-04-05T11:09:02.8Z</time></trkpt><trkpt lat="41.3728091" lon="1.6487251"><ele>235.0</ele><time>2026-04-05T11:09:03.799Z</time></trkpt><trkpt lat="41.372619" lon="1.6489243"><ele>235.0</ele><time>2026-04-05T11:09:04.8Z</time></trkpt><trkpt lat="41.3724341" lon="1.6491193"><ele>235.0</ele><time>2026-04-05T11:09:05.799Z</time></trkpt><trkpt lat="41.3722524" lon="1.6493075"><ele>232.5</ele><time>2026-04-05T11:09:06.799Z</time></trkpt><trkpt lat="41.3720727" lon="1.649496"><ele>230.0</ele><time>2026-04-05T11:09:07.799Z</time></trkpt><trkpt lat="41.3718926" lon="1.6496785"><ele>230.0</ele><time>2026-04-05T11:09:08.8Z</time></trkpt><trkpt lat="41.3717108" lon="1.6498668"><ele>230.0</ele><time>2026-04-05T11:09:09.799Z</time></trkpt><trkpt lat="41.3715288" lon="1.6500546"><ele>230.0</ele><time>2026-04-05T11:09:10.799Z</time></trkpt><trkpt lat="41.3713443" lon="1.6502447"><ele>230.0</ele><time>2026-04-05T11:09:11.8Z</time></trkpt><trkpt lat="41.3711628" lon="1.6504343"><ele>230.0</ele><time>2026-04-05T11:09:12.799Z</time></trkpt><trkpt lat="41.370985" lon="1.6506198"><ele>230.0</ele><time>2026-04-05T11:09:13.8Z</time></trkpt><trkpt lat="41.3708059" lon="1.6508032"><ele>230.0</ele><time>2026-04-05T11:09:14.799Z</time></trkpt><trkpt lat="41.3706289" lon="1.6509925"><ele>230.0</ele><time>2026-04-05T11:09:15.8Z</time></trkpt><trkpt lat="41.3704538" lon="1.6511782"><ele>229.0</ele><time>2026-04-05T11:09:16.8Z</time></trkpt><trkpt lat="41.3702819" lon="1.6513603"><ele>228.0</ele><time>2026-04-05T11:09:17.8Z</time></trkpt><trkpt lat="41.3701011" lon="1.6515448"><ele>227.0</ele><time>2026-04-05T11:09:18.8Z</time></trkpt><trkpt lat="41.3699151" lon="1.651732"><ele>227.0</ele><time>2026-04-05T11:09:19.8Z</time></trkpt><trkpt lat="41.3697305" lon="1.6519177"><ele>227.0</ele><time>2026-04-05T11:09:20.8Z</time></trkpt><trkpt lat="41.369559" lon="1.6520988"><ele>226.33333333333334</ele><time>2026-04-05T11:09:21.8Z</time></trkpt><trkpt lat="41.369387" lon="1.6522809"><ele>225.66666666666669</ele><time>2026-04-05T11:09:22.8Z</time></trkpt><trkpt lat="41.3692139" lon="1.6524618"><ele>225.0</ele><time>2026-04-05T11:09:23.799Z</time></trkpt><trkpt lat="41.3690405" lon="1.6526477"><ele>224.33333333333331</ele><time>2026-04-05T11:09:24.8Z</time></trkpt><trkpt lat="41.3688661" lon="1.6528327"><ele>223.66666666666666</ele><time>2026-04-05T11:09:25.799Z</time></trkpt><trkpt lat="41.3686923" lon="1.6530127"><ele>223.0</ele><time>2026-04-05T11:09:26.8Z</time></trkpt><trkpt lat="41.368514" lon="1.6532006"><ele>223.0</ele><time>2026-04-05T11:09:27.8Z</time></trkpt><trkpt lat="41.368325" lon="1.6533981"><ele>223.0</ele><time>2026-04-05T11:09:28.799Z</time></trkpt><trkpt lat="41.368128" lon="1.6536043"><ele>220.5</ele><time>2026-04-05T11:09:29.8Z</time></trkpt><trkpt lat="41.3679305" lon="1.6538091"><ele>218.0</ele><time>2026-04-05T11:09:30.799Z</time></trkpt><trkpt lat="41.36773" lon="1.6540219"><ele>218.0</ele><time>2026-04-05T11:09:31.8Z</time></trkpt><trkpt lat="41.3675213" lon="1.6542441"><ele>218.0</ele><time>2026-04-05T11:09:32.799Z</time></trkpt><trkpt lat="41.3673133" lon="1.6544642"><ele>217.0</ele><time>2026-04-05T11:09:33.799Z</time></trkpt><trkpt lat="41.3671063" lon="1.6546749"><ele>216.0</ele><time>2026-04-05T11:09:34.8Z</time></trkpt><trkpt lat="41.3668995" lon="1.6548891"><ele>216.0</ele><time>2026-04-05T11:09:35.799Z</time></trkpt><trkpt lat="41.3666938" lon="1.655099"><ele>216.0</ele><time>2026-04-05T11:09:36.8Z</time></trkpt><trkpt lat="41.3664944" lon="1.6553057"><ele>216.5</ele><time>2026-04-05T11:09:37.799Z</time></trkpt><trkpt lat="41.3662994" lon="1.6555138"><ele>217.0</ele><time>2026-04-05T11:09:38.799Z</time></trkpt><trkpt lat="41.3661083" lon="1.6557193"><ele>217.0</ele><time>2026-04-05T11:09:39.8Z</time></trkpt><trkpt lat="41.3659143" lon="1.6559173"><ele>217.0</ele><time>2026-04-05T11:09:40.8Z</time></trkpt><trkpt lat="41.3657241" lon="1.6561125"><ele>216.0</ele><time>2026-04-05T11:09:41.799Z</time></trkpt><trkpt lat="41.3655381" lon="1.6563087"><ele>215.0</ele><time>2026-04-05T11:09:42.8Z</time></trkpt><trkpt lat="41.3653488" lon="1.656501"><ele>215.0</ele><time>2026-04-05T11:09:43.799Z</time></trkpt><trkpt lat="41.3651614" lon="1.6566919"><ele>215.0</ele><time>2026-04-05T11:09:44.799Z</time></trkpt><trkpt lat="41.3649779" lon="1.6568834"><ele>214.0</ele><time>2026-04-05T11:09:45.799Z</time></trkpt><trkpt lat="41.3647808" lon="1.6570981"><ele>213.0</ele><time>2026-04-05T11:09:46.8Z</time></trkpt><trkpt lat="41.3645772" lon="1.6573288"><ele>212.5</ele><time>2026-04-05T11:09:47.799Z</time></trkpt><trkpt lat="41.3643649" lon="1.6575597"><ele>212.0</ele><time>2026-04-05T11:09:48.799Z</time></trkpt><trkpt lat="41.3641473" lon="1.6577872"><ele>212.0</ele><time>2026-04-05T11:09:49.799Z</time></trkpt><trkpt lat="41.3639218" lon="1.6580084"><ele>212.0</ele><time>2026-04-05T11:09:50.799Z</time></trkpt><trkpt lat="41.3637136" lon="1.6582209"><ele>216.5</ele><time>2026-04-05T11:09:51.799Z</time></trkpt><trkpt lat="41.3635176" lon="1.6584226"><ele>221.0</ele><time>2026-04-05T11:09:52.799Z</time></trkpt><trkpt lat="41.3633296" lon="1.6586114"><ele>221.66666666666669</ele><time>2026-04-05T11:09:53.799Z</time></trkpt><trkpt lat="41.3631568" lon="1.6587842"><ele>222.33333333333331</ele><time>2026-04-05T11:09:54.8Z</time></trkpt><trkpt lat="41.3630046" lon="1.6589406"><ele>223.0</ele><time>2026-04-05T11:09:55.8Z</time></trkpt><trkpt lat="41.3628681" lon="1.6590803"><ele>223.0</ele><time>2026-04-05T11:09:56.8Z</time></trkpt><trkpt lat="41.3627419" lon="1.6592121"><ele>223.0</ele><time>2026-04-05T11:09:57.799Z</time></trkpt><trkpt lat="41.3626301" lon="1.6593252"><ele>223.0</ele><time>2026-04-05T11:09:58.8Z</time></trkpt><trkpt lat="41.36253" lon="1.6594127"><ele>223.0</ele><time>2026-04-05T11:09:59.799Z</time></trkpt><trkpt lat="41.3624312" lon="1.6594693"><ele>222.8</ele><time>2026-04-05T11:10:00.8Z</time></trkpt><trkpt lat="41.3623274" lon="1.6595076"><ele>222.60000000000002</ele><time>2026-04-05T11:10:01.799Z</time></trkpt><trkpt lat="41.3622408" lon="1.6595713"><ele>222.39999999999998</ele><time>2026-04-05T11:10:02.8Z</time></trkpt><trkpt lat="41.3621715" lon="1.6596781"><ele>222.2</ele><time>2026-04-05T11:10:03.799Z</time></trkpt><trkpt lat="41.3621064" lon="1.6598211"><ele>222.0</ele><time>2026-04-05T11:10:04.8Z</time></trkpt><trkpt lat="41.3620188" lon="1.6599541"><ele>222.0</ele><time>2026-04-05T11:10:05.8Z</time></trkpt><trkpt lat="41.3619137" lon="1.6600732"><ele>222.0</ele><time>2026-04-05T11:10:06.8Z</time></trkpt><trkpt lat="41.3618061" lon="1.6601816"><ele>222.0</ele><time>2026-04-05T11:10:07.799Z</time></trkpt><trkpt lat="41.3616902" lon="1.6602977"><ele>222.0</ele><time>2026-04-05T11:10:08.8Z</time></trkpt><trkpt lat="41.3615724" lon="1.6604208"><ele>221.66666666666669</ele><time>2026-04-05T11:10:09.799Z</time></trkpt><trkpt lat="41.3614505" lon="1.660551"><ele>221.33333333333334</ele><time>2026-04-05T11:10:10.8Z</time></trkpt><trkpt lat="41.3613254" lon="1.6606821"><ele>221.0</ele><time>2026-04-05T11:10:11.8Z</time></trkpt><trkpt lat="41.3611959" lon="1.6608191"><ele>221.0</ele><time>2026-04-05T11:10:12.8Z</time></trkpt><trkpt lat="41.3610513" lon="1.6609792"><ele>221.0</ele><time>2026-04-05T11:10:13.799Z</time></trkpt><trkpt lat="41.3608859" lon="1.661156"><ele>221.0</ele><time>2026-04-05T11:10:14.799Z</time></trkpt><trkpt lat="41.360708" lon="1.6613334"><ele>218.5</ele><time>2026-04-05T11:10:15.799Z</time></trkpt><trkpt lat="41.3605227" lon="1.6615232"><ele>216.0</ele><time>2026-04-05T11:10:16.8Z</time></trkpt><trkpt lat="41.3603258" lon="1.6617272"><ele>216.0</ele><time>2026-04-05T11:10:17.8Z</time></trkpt><trkpt lat="41.3601292" lon="1.6619236"><ele>216.0</ele><time>2026-04-05T11:10:18.8Z</time></trkpt><trkpt lat="41.3599436" lon="1.6621126"><ele>215.66666666666669</ele><time>2026-04-05T11:10:19.799Z</time></trkpt><trkpt lat="41.3597651" lon="1.6622933"><ele>215.33333333333334</ele><time>2026-04-05T11:10:20.8Z</time></trkpt><trkpt lat="41.3595919" lon="1.6624737"><ele>215.0</ele><time>2026-04-05T11:10:21.799Z</time></trkpt><trkpt lat="41.3594255" lon="1.662649"><ele>214.33333333333334</ele><time>2026-04-05T11:10:22.799Z</time></trkpt><trkpt lat="41.3592705" lon="1.6628163"><ele>213.66666666666669</ele><time>2026-04-05T11:10:23.799Z</time></trkpt><trkpt lat="41.3591239" lon="1.6629733"><ele>213.0</ele><time>2026-04-05T11:10:24.8Z</time></trkpt><trkpt lat="41.358997" lon="1.6631114"><ele>213.0</ele><time>2026-04-05T11:10:25.799Z</time></trkpt><trkpt lat="41.3588777" lon="1.6632411"><ele>213.0</ele><time>2026-04-05T11:10:26.799Z</time></trkpt><trkpt lat="41.3587648" lon="1.6633538"><ele>213.0</ele><time>2026-04-05T11:10:27.799Z</time></trkpt><trkpt lat="41.3586556" lon="1.6634327"><ele>213.0</ele><time>2026-04-05T11:10:28.8Z</time></trkpt><trkpt lat="41.3585419" lon="1.6635079"><ele>212.5</ele><time>2026-04-05T11:10:29.799Z</time></trkpt><trkpt lat="41.3584395" lon="1.6636152"><ele>212.0</ele><time>2026-04-05T11:10:30.799Z</time></trkpt><trkpt lat="41.3583487" lon="1.6637567"><ele>211.5</ele><time>2026-04-05T11:10:31.799Z</time></trkpt><trkpt lat="41.3582422" lon="1.6638937"><ele>211.0</ele><time>2026-04-05T11:10:32.799Z</time></trkpt><trkpt lat="41.3581345" lon="1.664011"><ele>211.0</ele><time>2026-04-05T11:10:33.799Z</time></trkpt><trkpt lat="41.3580282" lon="1.6641173"><ele>211.0</ele><time>2026-04-05T11:10:34.799Z</time></trkpt><trkpt lat="41.3579276" lon="1.6642257"><ele>211.0</ele><time>2026-04-05T11:10:35.8Z</time></trkpt><trkpt lat="41.3578184" lon="1.6643349"><ele>211.0</ele><time>2026-04-05T11:10:36.799Z</time></trkpt><trkpt lat="41.3577072" lon="1.6644529"><ele>211.0</ele><time>2026-04-05T11:10:37.8Z</time></trkpt><trkpt lat="41.357583" lon="1.6645791"><ele>211.0</ele><time>2026-04-05T11:10:38.799Z</time></trkpt><trkpt lat="41.3574427" lon="1.6647235"><ele>211.0</ele><time>2026-04-05T11:10:39.799Z</time></trkpt><trkpt lat="41.3573043" lon="1.6648633"><ele>210.33333333333331</ele><time>2026-04-05T11:10:40.799Z</time></trkpt><trkpt lat="41.3571733" lon="1.6650035"><ele>209.66666666666669</ele><time>2026-04-05T11:10:41.799Z</time></trkpt><trkpt lat="41.3570404" lon="1.6651473"><ele>209.0</ele><time>2026-04-05T11:10:42.8Z</time></trkpt><trkpt lat="41.3569038" lon="1.6652887"><ele>209.0</ele><time>2026-04-05T11:10:43.799Z</time></trkpt><trkpt lat="41.3567585" lon="1.6654438"><ele>209.0</ele><time>2026-04-05T11:10:44.799Z</time></trkpt><trkpt lat="41.3566134" lon="1.6655964"><ele>209.0</ele><time>2026-04-05T11:10:45.8Z</time></trkpt><trkpt lat="41.3564682" lon="1.6657466"><ele>208.66666666666669</ele><time>2026-04-05T11:10:46.799Z</time></trkpt><trkpt lat="41.3563239" lon="1.6658971"><ele>208.33333333333331</ele><time>2026-04-05T11:10:47.8Z</time></trkpt><trkpt lat="41.3561795" lon="1.6660453"><ele>208.0</ele><time>2026-04-05T11:10:48.8Z</time></trkpt><trkpt lat="41.3560397" lon="1.6661917"><ele>207.33333333333331</ele><time>2026-04-05T11:10:49.799Z</time></trkpt><trkpt lat="41.3558997" lon="1.6663397"><ele>206.66666666666669</ele><time>2026-04-05T11:10:50.8Z</time></trkpt><trkpt lat="41.3557653" lon="1.6664844"><ele>206.0</ele><time>2026-04-05T11:10:51.799Z</time></trkpt><trkpt lat="41.3556379" lon="1.6666243"><ele>205.66666666666669</ele><time>2026-04-05T11:10:52.799Z</time></trkpt><trkpt lat="41.3555143" lon="1.6667553"><ele>205.33333333333331</ele><time>2026-04-05T11:10:53.8Z</time></trkpt><trkpt lat="41.3553921" lon="1.6668799"><ele>205.0</ele><time>2026-04-05T11:10:54.8Z</time></trkpt><trkpt lat="41.3552762" lon="1.6669961"><ele>204.0</ele><time>2026-04-05T11:10:55.8Z</time></trkpt><trkpt lat="41.3551793" lon="1.6671005"><ele>203.0</ele><time>2026-04-05T11:10:56.8Z</time></trkpt><trkpt lat="41.3550906" lon="1.6671933"><ele>202.0</ele><time>2026-04-05T11:10:57.8Z</time></trkpt><trkpt lat="41.3549953" lon="1.6672635"><ele>201.0</ele><time>2026-04-05T11:10:58.799Z</time></trkpt><trkpt lat="41.354889" lon="1.6673033"><ele>201.0</ele><time>2026-04-05T11:10:59.799Z</time></trkpt><trkpt lat="41.3547867" lon="1.6673348"><ele>201.0</ele><time>2026-04-05T11:11:00.8Z</time></trkpt><trkpt lat="41.3547108" lon="1.6673959"><ele>201.0</ele><time>2026-04-05T11:11:01.8Z</time></trkpt><trkpt lat="41.3546627" lon="1.6674788"><ele>201.0</ele><time>2026-04-05T11:11:02.8Z</time></trkpt><trkpt lat="41.3546413" lon="1.6675868"><ele>201.0</ele><time>2026-04-05T11:11:03.799Z</time></trkpt><trkpt lat="41.3546339" lon="1.6677324"><ele>200.75</ele><time>2026-04-05T11:11:04.8Z</time></trkpt><trkpt lat="41.3546126" lon="1.6678894"><ele>200.5</ele><time>2026-04-05T11:11:05.8Z</time></trkpt><trkpt lat="41.3545694" lon="1.668044"><ele>200.25</ele><time>2026-04-05T11:11:06.8Z</time></trkpt><trkpt lat="41.3545254" lon="1.6681974"><ele>200.0</ele><time>2026-04-05T11:11:07.8Z</time></trkpt><trkpt lat="41.3544783" lon="1.6683577"><ele>200.0</ele><time>2026-04-05T11:11:08.799Z</time></trkpt><trkpt lat="41.3544332" lon="1.6685205"><ele>200.0</ele><time>2026-04-05T11:11:09.799Z</time></trkpt><trkpt lat="41.3543876" lon="1.6686825"><ele>200.0</ele><time>2026-04-05T11:11:10.8Z</time></trkpt><trkpt lat="41.3543382" lon="1.6688535"><ele>200.0</ele><time>2026-04-05T11:11:11.8Z</time></trkpt><trkpt lat="41.3542864" lon="1.6690259"><ele>200.5</ele><time>2026-04-05T11:11:12.799Z</time></trkpt><trkpt lat="41.354235" lon="1.6692031"><ele>201.0</ele><time>2026-04-05T11:11:13.799Z</time></trkpt><trkpt lat="41.3541814" lon="1.6693845"><ele>201.5</ele><time>2026-04-05T11:11:14.799Z</time></trkpt><trkpt lat="41.3541286" lon="1.6695656"><ele>202.0</ele><time>2026-04-05T11:11:15.8Z</time></trkpt><trkpt lat="41.3540715" lon="1.6697519"><ele>203.0</ele><time>2026-04-05T11:11:16.8Z</time></trkpt><trkpt lat="41.3540109" lon="1.6699481"><ele>204.0</ele><time>2026-04-05T11:11:17.799Z</time></trkpt><trkpt lat="41.353952" lon="1.6701583"><ele>205.0</ele><time>2026-04-05T11:11:18.799Z</time></trkpt><trkpt lat="41.3538969" lon="1.6703672"><ele>204.0</ele><time>2026-04-05T11:11:19.8Z</time></trkpt><trkpt lat="41.3538451" lon="1.6705805"><ele>203.0</ele><time>2026-04-05T11:11:20.799Z</time></trkpt><trkpt lat="41.3537968" lon="1.670798"><ele>202.0</ele><time>2026-04-05T11:11:21.8Z</time></trkpt><trkpt lat="41.3537611" lon="1.6710151"><ele>202.0</ele><time>2026-04-05T11:11:22.8Z</time></trkpt><trkpt lat="41.353727" lon="1.6712407"><ele>202.0</ele><time>2026-04-05T11:11:23.799Z</time></trkpt><trkpt lat="41.3536882" lon="1.6714646"><ele>202.0</ele><time>2026-04-05T11:11:24.799Z</time></trkpt><trkpt lat="41.3536484" lon="1.6716927"><ele>202.0</ele><time>2026-04-05T11:11:25.799Z</time></trkpt><trkpt lat="41.3536059" lon="1.6719393"><ele>202.0</ele><time>2026-04-05T11:11:26.799Z</time></trkpt><trkpt lat="41.3535615" lon="1.6722082"><ele>202.0</ele><time>2026-04-05T11:11:27.8Z</time></trkpt><trkpt lat="41.3535159" lon="1.6724848"><ele>203.5</ele><time>2026-04-05T11:11:28.799Z</time></trkpt><trkpt lat="41.3534605" lon="1.6727777"><ele>205.0</ele><time>2026-04-05T11:11:29.799Z</time></trkpt><trkpt lat="41.3533942" lon="1.6730895"><ele>205.0</ele><time>2026-04-05T11:11:30.799Z</time></trkpt><trkpt lat="41.3533308" lon="1.6734036"><ele>205.0</ele><time>2026-04-05T11:11:31.799Z</time></trkpt><trkpt lat="41.3532743" lon="1.673716"><ele>206.0</ele><time>2026-04-05T11:11:32.8Z</time></trkpt><trkpt lat="41.353218" lon="1.6740317"><ele>207.0</ele><time>2026-04-05T11:11:33.799Z</time></trkpt><trkpt lat="41.3531601" lon="1.6743409"><ele>208.0</ele><time>2026-04-05T11:11:34.8Z</time></trkpt><trkpt lat="41.3530985" lon="1.6746528"><ele>209.0</ele><time>2026-04-05T11:11:35.799Z</time></trkpt><trkpt lat="41.3530317" lon="1.6749548"><ele>206.66666666666669</ele><time>2026-04-05T11:11:36.799Z</time></trkpt><trkpt lat="41.3529675" lon="1.6752455"><ele>204.33333333333331</ele><time>2026-04-05T11:11:37.799Z</time></trkpt><trkpt lat="41.3529071" lon="1.6755285"><ele>202.0</ele><time>2026-04-05T11:11:38.799Z</time></trkpt><trkpt lat="41.3528496" lon="1.6758148"><ele>203.0</ele><time>2026-04-05T11:11:39.8Z</time></trkpt><trkpt lat="41.3527897" lon="1.6761134"><ele>204.0</ele><time>2026-04-05T11:11:40.8Z</time></trkpt><trkpt lat="41.3527357" lon="1.6764076"><ele>204.0</ele><time>2026-04-05T11:11:41.797Z</time></trkpt><trkpt lat="41.3526777" lon="1.6766989"><ele>204.0</ele><time>2026-04-05T11:11:42.798Z</time></trkpt><trkpt lat="41.3526186" lon="1.6770042"><ele>204.5</ele><time>2026-04-05T11:11:43.798Z</time></trkpt><trkpt lat="41.3525608" lon="1.6773193"><ele>205.0</ele><time>2026-04-05T11:11:44.798Z</time></trkpt><trkpt lat="41.3525008" lon="1.6776333"><ele>205.0</ele><time>2026-04-05T11:11:45.796Z</time></trkpt><trkpt lat="41.3524372" lon="1.6779486"><ele>205.0</ele><time>2026-04-05T11:11:46.798Z</time></trkpt><trkpt lat="41.3523749" lon="1.6782579"><ele>205.0</ele><time>2026-04-05T11:11:47.797Z</time></trkpt><trkpt lat="41.3523154" lon="1.678569"><ele>205.0</ele><time>2026-04-05T11:11:48.798Z</time></trkpt><trkpt lat="41.3522573" lon="1.6788785"><ele>202.5</ele><time>2026-04-05T11:11:49.798Z</time></trkpt><trkpt lat="41.3521925" lon="1.6791965"><ele>200.0</ele><time>2026-04-05T11:11:50.797Z</time></trkpt><trkpt lat="41.3521268" lon="1.6795332"><ele>200.0</ele><time>2026-04-05T11:11:51.797Z</time></trkpt><trkpt lat="41.3520598" lon="1.6798769"><ele>200.0</ele><time>2026-04-05T11:11:52.798Z</time></trkpt><trkpt lat="41.3519912" lon="1.6802284"><ele>200.0</ele><time>2026-04-05T11:11:53.797Z</time></trkpt><trkpt lat="41.3519186" lon="1.6805824"><ele>200.0</ele><time>2026-04-05T11:11:54.797Z</time></trkpt><trkpt lat="41.3518492" lon="1.6809386"><ele>198.0</ele><time>2026-04-05T11:11:55.798Z</time></trkpt><trkpt lat="41.3517762" lon="1.6812983"><ele>196.0</ele><time>2026-04-05T11:11:56.797Z</time></trkpt><trkpt lat="41.3517119" lon="1.6816557"><ele>195.5</ele><time>2026-04-05T11:11:57.798Z</time></trkpt><trkpt lat="41.3516477" lon="1.682006"><ele>195.0</ele><time>2026-04-05T11:11:58.797Z</time></trkpt><trkpt lat="41.3515843" lon="1.6823475"><ele>195.0</ele><time>2026-04-05T11:11:59.798Z</time></trkpt><trkpt lat="41.3515212" lon="1.6826766"><ele>195.0</ele><time>2026-04-05T11:12:00.797Z</time></trkpt><trkpt lat="41.3514566" lon="1.6830068"><ele>195.5</ele><time>2026-04-05T11:12:01.797Z</time></trkpt><trkpt lat="41.3513901" lon="1.6833316"><ele>196.0</ele><time>2026-04-05T11:12:02.798Z</time></trkpt><trkpt lat="41.3513302" lon="1.6836446"><ele>195.0</ele><time>2026-04-05T11:12:03.797Z</time></trkpt><trkpt lat="41.3512738" lon="1.6839471"><ele>194.0</ele><time>2026-04-05T11:12:04.797Z</time></trkpt><trkpt lat="41.3512199" lon="1.6842395"><ele>195.0</ele><time>2026-04-05T11:12:05.798Z</time></trkpt><trkpt lat="41.3511682" lon="1.6845206"><ele>196.0</ele><time>2026-04-05T11:12:06.797Z</time></trkpt><trkpt lat="41.3511175" lon="1.684786"><ele>197.0</ele><time>2026-04-05T11:12:07.798Z</time></trkpt><trkpt lat="41.3510649" lon="1.6850421"><ele>196.66666666666669</ele><time>2026-04-05T11:12:08.797Z</time></trkpt><trkpt lat="41.3510166" lon="1.6853032"><ele>196.33333333333331</ele><time>2026-04-05T11:12:09.797Z</time></trkpt><trkpt lat="41.3509753" lon="1.685552"><ele>196.0</ele><time>2026-04-05T11:12:10.797Z</time></trkpt><trkpt lat="41.3509351" lon="1.6857891"><ele>196.0</ele><time>2026-04-05T11:12:11.797Z</time></trkpt><trkpt lat="41.3508874" lon="1.6860137"><ele>196.0</ele><time>2026-04-05T11:12:12.798Z</time></trkpt><trkpt lat="41.3508351" lon="1.686225"><ele>196.0</ele><time>2026-04-05T11:12:13.797Z</time></trkpt><trkpt lat="41.3507759" lon="1.6864142"><ele>195.75</ele><time>2026-04-05T11:12:14.798Z</time></trkpt><trkpt lat="41.3507067" lon="1.6865851"><ele>195.5</ele><time>2026-04-05T11:12:15.797Z</time></trkpt><trkpt lat="41.3506307" lon="1.6867403"><ele>195.25</ele><time>2026-04-05T11:12:16.797Z</time></trkpt><trkpt lat="41.3505582" lon="1.6868855"><ele>195.0</ele><time>2026-04-05T11:12:17.797Z</time></trkpt><trkpt lat="41.3504913" lon="1.6870127"><ele>194.4</ele><time>2026-04-05T11:12:18.798Z</time></trkpt><trkpt lat="41.3504321" lon="1.6871277"><ele>193.8</ele><time>2026-04-05T11:12:19.798Z</time></trkpt><trkpt lat="41.3503823" lon="1.6872247"><ele>193.2</ele><time>2026-04-05T11:12:20.798Z</time></trkpt><trkpt lat="41.3503414" lon="1.6873053"><ele>192.6</ele><time>2026-04-05T11:12:21.798Z</time></trkpt><trkpt lat="41.3502763" lon="1.6874422"><ele>192.0</ele><time>2026-04-05T11:12:23.798Z</time></trkpt><trkpt lat="41.3502143" lon="1.6875672"><ele>191.99999999999997</ele><time>2026-04-05T11:12:25.798Z</time></trkpt><trkpt lat="41.3501701" lon="1.6876465"><ele>192.0</ele><time>2026-04-05T11:12:27.797Z</time></trkpt><trkpt lat="41.3500799" lon="1.687699"><ele>192.0</ele><time>2026-04-05T11:12:29.797Z</time></trkpt><trkpt lat="41.350016" lon="1.6877193"><ele>192.0</ele><time>2026-04-05T11:12:30.797Z</time></trkpt><trkpt lat="41.3499562" lon="1.6877592"><ele>192.0</ele><time>2026-04-05T11:12:31.797Z</time></trkpt><trkpt lat="41.3499115" lon="1.6878279"><ele>191.99999999999997</ele><time>2026-04-05T11:12:32.798Z</time></trkpt><trkpt lat="41.34988" lon="1.6879164"><ele>192.0</ele><time>2026-04-05T11:12:33.797Z</time></trkpt><trkpt lat="41.3498726" lon="1.6880178"><ele>192.66666666666666</ele><time>2026-04-05T11:12:34.798Z</time></trkpt><trkpt lat="41.3498825" lon="1.6881264"><ele>193.33333333333331</ele><time>2026-04-05T11:12:35.797Z</time></trkpt><trkpt lat="41.3498862" lon="1.6882376"><ele>194.0</ele><time>2026-04-05T11:12:36.798Z</time></trkpt><trkpt lat="41.3498655" lon="1.6883456"><ele>194.66666666666666</ele><time>2026-04-05T11:12:37.797Z</time></trkpt><trkpt lat="41.3498259" lon="1.688441"><ele>195.33333333333331</ele><time>2026-04-05T11:12:38.797Z</time></trkpt><trkpt lat="41.3497746" lon="1.6885389"><ele>196.0</ele><time>2026-04-05T11:12:39.798Z</time></trkpt><trkpt lat="41.349727" lon="1.6886324"><ele>195.99999999999997</ele><time>2026-04-05T11:12:40.797Z</time></trkpt><trkpt lat="41.3496811" lon="1.6887217"><ele>196.0</ele><time>2026-04-05T11:12:41.797Z</time></trkpt><trkpt lat="41.3496372" lon="1.6888144"><ele>196.0</ele><time>2026-04-05T11:12:42.797Z</time></trkpt><trkpt lat="41.3495909" lon="1.6889117"><ele>196.0</ele><time>2026-04-05T11:12:43.798Z</time></trkpt><trkpt lat="41.349543" lon="1.6890109"><ele>195.99999999999997</ele><time>2026-04-05T11:12:44.798Z</time></trkpt><trkpt lat="41.3494936" lon="1.6891117"><ele>196.0</ele><time>2026-04-05T11:12:45.798Z</time></trkpt><trkpt lat="41.349449" lon="1.6892117"><ele>195.99999999999997</ele><time>2026-04-05T11:12:46.798Z</time></trkpt><trkpt lat="41.3494062" lon="1.6893057"><ele>196.0</ele><time>2026-04-05T11:12:47.798Z</time></trkpt><trkpt lat="41.349366" lon="1.689394"><ele>196.0</ele><time>2026-04-05T11:12:48.798Z</time></trkpt><trkpt lat="41.3493319" lon="1.6894708"><ele>196.0</ele><time>2026-04-05T11:12:49.797Z</time></trkpt><trkpt lat="41.3492733" lon="1.6896051"><ele>195.99999999999997</ele><time>2026-04-05T11:12:51.797Z</time></trkpt><trkpt lat="41.349207" lon="1.6897138"><ele>196.0</ele><time>2026-04-05T11:12:53.798Z</time></trkpt><trkpt lat="41.3491486" lon="1.6897557"><ele>195.85714285714286</ele><time>2026-04-05T11:12:54.798Z</time></trkpt><trkpt lat="41.3490816" lon="1.6897954"><ele>195.71428571428572</ele><time>2026-04-05T11:12:55.797Z</time></trkpt><trkpt lat="41.3490163" lon="1.689834"><ele>195.57142857142856</ele><time>2026-04-05T11:12:56.797Z</time></trkpt><trkpt lat="41.3489574" lon="1.6898882"><ele>195.42857142857144</ele><time>2026-04-05T11:12:57.798Z</time></trkpt><trkpt lat="41.3489186" lon="1.6899667"><ele>195.28571428571428</ele><time>2026-04-05T11:12:58.798Z</time></trkpt><trkpt lat="41.3489004" lon="1.6900523"><ele>195.14285714285714</ele><time>2026-04-05T11:12:59.797Z</time></trkpt><trkpt lat="41.3489108" lon="1.6901367"><ele>195.0</ele><time>2026-04-05T11:13:00.798Z</time></trkpt><trkpt lat="41.3490005" lon="1.6902546"><ele>195.14285714285714</ele><time>2026-04-05T11:13:02.798Z</time></trkpt><trkpt lat="41.3490653" lon="1.6902911"><ele>195.28571428571428</ele><time>2026-04-05T11:13:03.797Z</time></trkpt><trkpt lat="41.3491327" lon="1.6903244"><ele>195.42857142857144</ele><time>2026-04-05T11:13:04.798Z</time></trkpt><trkpt lat="41.3491928" lon="1.6903717"><ele>195.57142857142856</ele><time>2026-04-05T11:13:05.797Z</time></trkpt><trkpt lat="41.3492317" lon="1.6904386"><ele>195.71428571428572</ele><time>2026-04-05T11:13:06.797Z</time></trkpt><trkpt lat="41.3492562" lon="1.6905282"><ele>195.85714285714286</ele><time>2026-04-05T11:13:07.798Z</time></trkpt><trkpt lat="41.3492737" lon="1.6906525"><ele>196.0</ele><time>2026-04-05T11:13:08.797Z</time></trkpt><trkpt lat="41.3492907" lon="1.6907756"><ele>196.0</ele><time>2026-04-05T11:13:09.797Z</time></trkpt><trkpt lat="41.3493045" lon="1.6908933"><ele>196.0</ele><time>2026-04-05T11:13:10.798Z</time></trkpt><trkpt lat="41.3493147" lon="1.691014"><ele>196.0</ele><time>2026-04-05T11:13:11.797Z</time></trkpt><trkpt lat="41.3493212" lon="1.6911457"><ele>196.0</ele><time>2026-04-05T11:13:12.798Z</time></trkpt><trkpt lat="41.3493302" lon="1.6912869"><ele>196.0</ele><time>2026-04-05T11:13:13.797Z</time></trkpt><trkpt lat="41.3493456" lon="1.6914236"><ele>196.60000000000002</ele><time>2026-04-05T11:13:14.797Z</time></trkpt><trkpt lat="41.3493608" lon="1.6915601"><ele>197.2</ele><time>2026-04-05T11:13:15.798Z</time></trkpt><trkpt lat="41.3493784" lon="1.6916929"><ele>197.8</ele><time>2026-04-05T11:13:16.798Z</time></trkpt><trkpt lat="41.3493938" lon="1.6918265"><ele>198.39999999999998</ele><time>2026-04-05T11:13:17.798Z</time></trkpt><trkpt lat="41.3494049" lon="1.6919634"><ele>199.0</ele><time>2026-04-05T11:13:18.798Z</time></trkpt><trkpt lat="41.3494229" lon="1.6921019"><ele>200.25</ele><time>2026-04-05T11:13:19.797Z</time></trkpt><trkpt lat="41.3494399" lon="1.6922502"><ele>201.5</ele><time>2026-04-05T11:13:20.798Z</time></trkpt><trkpt lat="41.3494581" lon="1.6924072"><ele>202.75</ele><time>2026-04-05T11:13:21.798Z</time></trkpt><trkpt lat="41.3494748" lon="1.692561"><ele>204.0</ele><time>2026-04-05T11:13:22.798Z</time></trkpt><trkpt lat="41.3494908" lon="1.6927184"><ele>204.5</ele><time>2026-04-05T11:13:23.798Z</time></trkpt><trkpt lat="41.3495089" lon="1.6928729"><ele>205.0</ele><time>2026-04-05T11:13:24.797Z</time></trkpt><trkpt lat="41.3495319" lon="1.6930302"><ele>205.5</ele><time>2026-04-05T11:13:25.797Z</time></trkpt><trkpt lat="41.3495582" lon="1.6931865"><ele>206.0</ele><time>2026-04-05T11:13:26.797Z</time></trkpt><trkpt lat="41.349588" lon="1.6933369"><ele>206.0</ele><time>2026-04-05T11:13:27.798Z</time></trkpt><trkpt lat="41.3496197" lon="1.6934804"><ele>206.0</ele><time>2026-04-05T11:13:28.797Z</time></trkpt><trkpt lat="41.3496512" lon="1.693618"><ele>206.0</ele><time>2026-04-05T11:13:29.797Z</time></trkpt><trkpt lat="41.3496821" lon="1.6937618"><ele>206.0</ele><time>2026-04-05T11:13:30.797Z</time></trkpt><trkpt lat="41.3497112" lon="1.6939004"><ele>206.0</ele><time>2026-04-05T11:13:31.797Z</time></trkpt><trkpt lat="41.3497381" lon="1.694033"><ele>206.60000000000002</ele><time>2026-04-05T11:13:32.798Z</time></trkpt><trkpt lat="41.3497696" lon="1.6941613"><ele>207.2</ele><time>2026-04-05T11:13:33.798Z</time></trkpt><trkpt lat="41.3497966" lon="1.6942908"><ele>207.8</ele><time>2026-04-05T11:13:34.798Z</time></trkpt><trkpt lat="41.3498255" lon="1.6944229"><ele>208.39999999999998</ele><time>2026-04-05T11:13:35.798Z</time></trkpt><trkpt lat="41.3498544" lon="1.6945546"><ele>209.0</ele><time>2026-04-05T11:13:36.797Z</time></trkpt><trkpt lat="41.3498837" lon="1.6946869"><ele>210.0</ele><time>2026-04-05T11:13:37.798Z</time></trkpt><trkpt lat="41.349913" lon="1.6948214"><ele>211.0</ele><time>2026-04-05T11:13:38.798Z</time></trkpt><trkpt lat="41.3499419" lon="1.694953"><ele>211.99999999999997</ele><time>2026-04-05T11:13:39.798Z</time></trkpt><trkpt lat="41.3499723" lon="1.6950835"><ele>213.0</ele><time>2026-04-05T11:13:40.798Z</time></trkpt><trkpt lat="41.3500039" lon="1.6952141"><ele>214.0</ele><time>2026-04-05T11:13:41.798Z</time></trkpt><trkpt lat="41.3500354" lon="1.6953469"><ele>214.0</ele><time>2026-04-05T11:13:42.798Z</time></trkpt><trkpt lat="41.3500619" lon="1.6954768"><ele>213.99999999999997</ele><time>2026-04-05T11:13:43.797Z</time></trkpt><trkpt lat="41.3500942" lon="1.6956064"><ele>213.99999999999997</ele><time>2026-04-05T11:13:44.797Z</time></trkpt><trkpt lat="41.3501247" lon="1.6957373"><ele>214.0</ele><time>2026-04-05T11:13:45.797Z</time></trkpt><trkpt lat="41.3501542" lon="1.6958695"><ele>214.0</ele><time>2026-04-05T11:13:46.797Z</time></trkpt><trkpt lat="41.3501796" lon="1.6959995"><ele>214.6</ele><time>2026-04-05T11:13:47.798Z</time></trkpt><trkpt lat="41.3502102" lon="1.6961345"><ele>215.2</ele><time>2026-04-05T11:13:48.798Z</time></trkpt><trkpt lat="41.3502427" lon="1.6962725"><ele>215.79999999999998</ele><time>2026-04-05T11:13:49.797Z</time></trkpt><trkpt lat="41.3502757" lon="1.6964141"><ele>216.39999999999998</ele><time>2026-04-05T11:13:50.798Z</time></trkpt><trkpt lat="41.3503101" lon="1.6965543"><ele>217.0</ele><time>2026-04-05T11:13:51.798Z</time></trkpt><trkpt lat="41.3503406" lon="1.6966966"><ele>217.0</ele><time>2026-04-05T11:13:52.797Z</time></trkpt><trkpt lat="41.3503693" lon="1.6968358"><ele>217.0</ele><time>2026-04-05T11:13:53.797Z</time></trkpt><trkpt lat="41.350401" lon="1.696979"><ele>217.0</ele><time>2026-04-05T11:13:54.797Z</time></trkpt><trkpt lat="41.3504362" lon="1.6971184"><ele>217.0</ele><time>2026-04-05T11:13:55.798Z</time></trkpt><trkpt lat="41.3504694" lon="1.6972632"><ele>217.0</ele><time>2026-04-05T11:13:56.797Z</time></trkpt><trkpt lat="41.3505029" lon="1.6974024"><ele>217.0</ele><time>2026-04-05T11:13:57.797Z</time></trkpt><trkpt lat="41.3505363" lon="1.6975434"><ele>217.0</ele><time>2026-04-05T11:13:58.798Z</time></trkpt><trkpt lat="41.3505663" lon="1.6976826"><ele>217.0</ele><time>2026-04-05T11:13:59.797Z</time></trkpt><trkpt lat="41.3505948" lon="1.6978224"><ele>217.0</ele><time>2026-04-05T11:14:00.797Z</time></trkpt><trkpt lat="41.350627" lon="1.6979605"><ele>217.0</ele><time>2026-04-05T11:14:01.797Z</time></trkpt><trkpt lat="41.3506593" lon="1.6980941"><ele>217.0</ele><time>2026-04-05T11:14:02.797Z</time></trkpt><trkpt lat="41.3506895" lon="1.6982233"><ele>217.0</ele><time>2026-04-05T11:14:03.797Z</time></trkpt><trkpt lat="41.35072" lon="1.6983592"><ele>217.0</ele><time>2026-04-05T11:14:04.798Z</time></trkpt><trkpt lat="41.3507517" lon="1.6984908"><ele>217.0</ele><time>2026-04-05T11:14:05.797Z</time></trkpt><trkpt lat="41.35078" lon="1.6986255"><ele>217.0</ele><time>2026-04-05T11:14:06.798Z</time></trkpt><trkpt lat="41.3508059" lon="1.6987568"><ele>219.0</ele><time>2026-04-05T11:14:07.798Z</time></trkpt><trkpt lat="41.3508301" lon="1.6988826"><ele>221.0</ele><time>2026-04-05T11:14:08.797Z</time></trkpt><trkpt lat="41.350858" lon="1.6990031"><ele>223.0</ele><time>2026-04-05T11:14:09.798Z</time></trkpt><trkpt lat="41.350882" lon="1.6991225"><ele>225.0</ele><time>2026-04-05T11:14:10.797Z</time></trkpt><trkpt lat="41.3509078" lon="1.6992398"><ele>227.0</ele><time>2026-04-05T11:14:11.798Z</time></trkpt><trkpt lat="41.3509324" lon="1.6993566"><ele>227.50000000000003</ele><time>2026-04-05T11:14:12.797Z</time></trkpt><trkpt lat="41.3509576" lon="1.6994666"><ele>228.0</ele><time>2026-04-05T11:14:13.797Z</time></trkpt><trkpt lat="41.3509789" lon="1.6995716"><ele>228.5</ele><time>2026-04-05T11:14:14.797Z</time></trkpt><trkpt lat="41.3510007" lon="1.6996633"><ele>229.0</ele><time>2026-04-05T11:14:15.798Z</time></trkpt><trkpt lat="41.3510309" lon="1.6997855"><ele>229.50000000000003</ele><time>2026-04-05T11:14:17.797Z</time></trkpt><trkpt lat="41.3510517" lon="1.6998802"><ele>230.0</ele><time>2026-04-05T11:14:24.798Z</time></trkpt><trkpt lat="41.3510723" lon="1.6999761"><ele>230.0</ele><time>2026-04-05T11:14:27.797Z</time></trkpt><trkpt lat="41.3510973" lon="1.7001014"><ele>230.0</ele><time>2026-04-05T11:14:29.798Z</time></trkpt><trkpt lat="41.3511247" lon="1.7002228"><ele>230.0</ele><time>2026-04-05T11:14:31.798Z</time></trkpt><trkpt lat="41.3511554" lon="1.7003377"><ele>230.0</ele><time>2026-04-05T11:14:33.797Z</time></trkpt><trkpt lat="41.3511872" lon="1.7004636"><ele>230.0</ele><time>2026-04-05T11:14:35.797Z</time></trkpt><trkpt lat="41.3512063" lon="1.7006177"><ele>230.0</ele><time>2026-04-05T11:14:37.797Z</time></trkpt><trkpt lat="41.351239" lon="1.700776"><ele>230.0</ele><time>2026-04-05T11:14:39.797Z</time></trkpt><trkpt lat="41.3512901" lon="1.700899"><ele>230.0</ele><time>2026-04-05T11:14:41.797Z</time></trkpt><trkpt lat="41.3513222" lon="1.7010239"><ele>230.0</ele><time>2026-04-05T11:14:43.797Z</time></trkpt><trkpt lat="41.3513481" lon="1.7011306"><ele>230.0</ele><time>2026-04-05T11:14:45.797Z</time></trkpt><trkpt lat="41.3513838" lon="1.7012281"><ele>230.1428571428571</ele><time>2026-04-05T11:14:47.798Z</time></trkpt><trkpt lat="41.3514077" lon="1.701326"><ele>230.28571428571428</ele><time>2026-04-05T11:14:49.797Z</time></trkpt><trkpt lat="41.3514278" lon="1.7014265"><ele>230.42857142857142</ele><time>2026-04-05T11:14:51.798Z</time></trkpt><trkpt lat="41.35145" lon="1.7015214"><ele>230.57142857142856</ele><time>2026-04-05T11:14:53.798Z</time></trkpt><trkpt lat="41.3514839" lon="1.7016022"><ele>230.71428571428572</ele><time>2026-04-05T11:14:55.798Z</time></trkpt><trkpt lat="41.351531" lon="1.7016585"><ele>230.85714285714286</ele><time>2026-04-05T11:14:57.798Z</time></trkpt><trkpt lat="41.3515819" lon="1.7017092"><ele>231.0</ele><time>2026-04-05T11:14:59.798Z</time></trkpt><trkpt lat="41.3516349" lon="1.7017616"><ele>231.0</ele><time>2026-04-05T11:15:01.798Z</time></trkpt><trkpt lat="41.3516873" lon="1.7018256"><ele>231.0</ele><time>2026-04-05T11:15:04.797Z</time></trkpt><trkpt lat="41.351759" lon="1.7018899"><ele>231.0</ele><time>2026-04-05T11:15:08.797Z</time></trkpt><trkpt lat="41.3518185" lon="1.7019466"><ele>231.0</ele><time>2026-04-05T11:15:10.797Z</time></trkpt><trkpt lat="41.3518895" lon="1.7020134"><ele>231.0</ele><time>2026-04-05T11:15:12.798Z</time></trkpt><trkpt lat="41.3519661" lon="1.7020892"><ele>231.0</ele><time>2026-04-05T11:15:14.797Z</time></trkpt><trkpt lat="41.3520362" lon="1.7021615"><ele>231.16666666666666</ele><time>2026-04-05T11:15:16.798Z</time></trkpt><trkpt lat="41.3521085" lon="1.7022292"><ele>231.33333333333331</ele><time>2026-04-05T11:15:18.798Z</time></trkpt><trkpt lat="41.3521799" lon="1.7022928"><ele>231.5</ele><time>2026-04-05T11:15:20.797Z</time></trkpt><trkpt lat="41.3522461" lon="1.7023517"><ele>231.66666666666666</ele><time>2026-04-05T11:15:22.797Z</time></trkpt><trkpt lat="41.3523103" lon="1.7024032"><ele>231.83333333333331</ele><time>2026-04-05T11:15:25.798Z</time></trkpt><trkpt lat="41.3523622" lon="1.702462"><ele>232.0</ele><time>2026-04-05T11:15:36.797Z</time></trkpt><trkpt lat="41.3524423" lon="1.7025311"><ele>232.49999999999997</ele><time>2026-04-05T11:15:40.797Z</time></trkpt><trkpt lat="41.3525188" lon="1.7025934"><ele>233.0</ele><time>2026-04-05T11:15:42.797Z</time></trkpt><trkpt lat="41.3526057" lon="1.7026768"><ele>233.5</ele><time>2026-04-05T11:15:44.797Z</time></trkpt><trkpt lat="41.3526564" lon="1.7027279"><ele>234.0</ele><time>2026-04-05T11:15:45.798Z</time></trkpt><trkpt lat="41.3527109" lon="1.7027779"><ele>234.49999999999997</ele><time>2026-04-05T11:15:46.798Z</time></trkpt><trkpt lat="41.352764" lon="1.7028301"><ele>235.0</ele><time>2026-04-05T11:15:47.798Z</time></trkpt><trkpt lat="41.3528665" lon="1.7029228"><ele>235.0</ele><time>2026-04-05T11:15:49.798Z</time></trkpt><trkpt lat="41.3529216" lon="1.7029715"><ele>234.99999999999997</ele><time>2026-04-05T11:15:50.798Z</time></trkpt><trkpt lat="41.352979" lon="1.7030194"><ele>235.0</ele><time>2026-04-05T11:15:51.797Z</time></trkpt><trkpt lat="41.3530305" lon="1.7030688"><ele>235.0</ele><time>2026-04-05T11:15:52.797Z</time></trkpt><trkpt lat="41.3530857" lon="1.703127"><ele>234.99999999999997</ele><time>2026-04-05T11:15:53.797Z</time></trkpt><trkpt lat="41.3531422" lon="1.7031862"><ele>235.0</ele><time>2026-04-05T11:15:54.798Z</time></trkpt><trkpt lat="41.3531971" lon="1.7032395"><ele>235.0</ele><time>2026-04-05T11:15:55.798Z</time></trkpt><trkpt lat="41.3532535" lon="1.7032911"><ele>235.16666666666666</ele><time>2026-04-05T11:15:56.797Z</time></trkpt><trkpt lat="41.3533076" lon="1.7033443"><ele>235.33333333333331</ele><time>2026-04-05T11:15:57.798Z</time></trkpt><trkpt lat="41.3533619" lon="1.7033959"><ele>235.5</ele><time>2026-04-05T11:15:58.797Z</time></trkpt><trkpt lat="41.353416" lon="1.703443"><ele>235.66666666666669</ele><time>2026-04-05T11:15:59.798Z</time></trkpt><trkpt lat="41.3535177" lon="1.70354"><ele>235.83333333333334</ele><time>2026-04-05T11:16:01.798Z</time></trkpt><trkpt lat="41.3535707" lon="1.7035882"><ele>236.0</ele><time>2026-04-05T11:16:02.797Z</time></trkpt><trkpt lat="41.3536685" lon="1.7036849"><ele>235.16666666666669</ele><time>2026-04-05T11:16:04.797Z</time></trkpt><trkpt lat="41.3537609" lon="1.7037796"><ele>234.33333333333334</ele><time>2026-04-05T11:16:06.798Z</time></trkpt><trkpt lat="41.3538119" lon="1.70383"><ele>233.5</ele><time>2026-04-05T11:16:07.797Z</time></trkpt><trkpt lat="41.3539092" lon="1.7039242"><ele>232.66666666666669</ele><time>2026-04-05T11:16:09.797Z</time></trkpt><trkpt lat="41.3539658" lon="1.7039786"><ele>231.83333333333334</ele><time>2026-04-05T11:16:10.798Z</time></trkpt><trkpt lat="41.3540224" lon="1.7040363"><ele>231.0</ele><time>2026-04-05T11:16:11.798Z</time></trkpt><trkpt lat="41.3540808" lon="1.7040908"><ele>231.0</ele><time>2026-04-05T11:16:12.797Z</time></trkpt><trkpt lat="41.3541434" lon="1.7041514"><ele>231.0</ele><time>2026-04-05T11:16:13.798Z</time></trkpt><trkpt lat="41.3542037" lon="1.7042087"><ele>231.0</ele><time>2026-04-05T11:16:14.798Z</time></trkpt><trkpt lat="41.3542698" lon="1.7042728"><ele>231.0</ele><time>2026-04-05T11:16:15.797Z</time></trkpt><trkpt lat="41.3543395" lon="1.7043396"><ele>231.0</ele><time>2026-04-05T11:16:16.798Z</time></trkpt><trkpt lat="41.354406" lon="1.704405"><ele>231.0</ele><time>2026-04-05T11:16:17.798Z</time></trkpt><trkpt lat="41.3544693" lon="1.7044733"><ele>231.16666666666666</ele><time>2026-04-05T11:16:18.798Z</time></trkpt><trkpt lat="41.3545384" lon="1.7045396"><ele>231.33333333333331</ele><time>2026-04-05T11:16:19.798Z</time></trkpt><trkpt lat="41.3546091" lon="1.7046063"><ele>231.5</ele><time>2026-04-05T11:16:20.798Z</time></trkpt><trkpt lat="41.3546784" lon="1.7046714"><ele>231.66666666666666</ele><time>2026-04-05T11:16:21.798Z</time></trkpt><trkpt lat="41.3547413" lon="1.7047362"><ele>231.83333333333331</ele><time>2026-04-05T11:16:22.798Z</time></trkpt><trkpt lat="41.3547903" lon="1.7047968"><ele>232.0</ele><time>2026-04-05T11:16:23.797Z</time></trkpt><trkpt lat="41.3548387" lon="1.7048766"><ele>231.66666666666666</ele><time>2026-04-05T11:16:26.798Z</time></trkpt><trkpt lat="41.3548899" lon="1.7049682"><ele>231.33333333333331</ele><time>2026-04-05T11:16:28.797Z</time></trkpt><trkpt lat="41.3549885" lon="1.7050242"><ele>231.0</ele><time>2026-04-05T11:16:30.797Z</time></trkpt><trkpt lat="41.3550935" lon="1.7050888"><ele>230.66666666666669</ele><time>2026-04-05T11:16:32.797Z</time></trkpt><trkpt lat="41.3551496" lon="1.7051316"><ele>230.33333333333334</ele><time>2026-04-05T11:16:33.797Z</time></trkpt><trkpt lat="41.3552055" lon="1.7051735"><ele>230.0</ele><time>2026-04-05T11:16:34.797Z</time></trkpt><trkpt lat="41.355267" lon="1.7052223"><ele>230.00000000000003</ele><time>2026-04-05T11:16:35.797Z</time></trkpt><trkpt lat="41.3553318" lon="1.7052793"><ele>230.0</ele><time>2026-04-05T11:16:36.798Z</time></trkpt><trkpt lat="41.3553978" lon="1.7053413"><ele>230.0</ele><time>2026-04-05T11:16:37.798Z</time></trkpt><trkpt lat="41.3554674" lon="1.7054058"><ele>230.0</ele><time>2026-04-05T11:16:38.797Z</time></trkpt><trkpt lat="41.3555353" lon="1.7054621"><ele>230.00000000000003</ele><time>2026-04-05T11:16:39.798Z</time></trkpt><trkpt lat="41.3556051" lon="1.705526"><ele>230.0</ele><time>2026-04-05T11:16:40.798Z</time></trkpt><trkpt lat="41.3556657" lon="1.705588"><ele>230.16666666666669</ele><time>2026-04-05T11:16:41.798Z</time></trkpt><trkpt lat="41.3557272" lon="1.705648"><ele>230.33333333333334</ele><time>2026-04-05T11:16:42.797Z</time></trkpt><trkpt lat="41.3557875" lon="1.7057075"><ele>230.5</ele><time>2026-04-05T11:16:43.797Z</time></trkpt><trkpt lat="41.3558501" lon="1.7057703"><ele>230.66666666666669</ele><time>2026-04-05T11:16:44.797Z</time></trkpt><trkpt lat="41.3559171" lon="1.7058304"><ele>230.83333333333334</ele><time>2026-04-05T11:16:45.798Z</time></trkpt><trkpt lat="41.3559837" lon="1.705893"><ele>231.0</ele><time>2026-04-05T11:16:46.798Z</time></trkpt><trkpt lat="41.3560551" lon="1.705958"><ele>231.0</ele><time>2026-04-05T11:16:47.797Z</time></trkpt><trkpt lat="41.3561216" lon="1.7060169"><ele>231.0</ele><time>2026-04-05T11:16:48.797Z</time></trkpt><trkpt lat="41.3561796" lon="1.7060762"><ele>231.0</ele><time>2026-04-05T11:16:49.797Z</time></trkpt><trkpt lat="41.3562417" lon="1.7061296"><ele>231.0</ele><time>2026-04-05T11:16:50.797Z</time></trkpt><trkpt lat="41.3563078" lon="1.706194"><ele>231.0</ele><time>2026-04-05T11:16:51.798Z</time></trkpt><trkpt lat="41.3563733" lon="1.7062575"><ele>231.0</ele><time>2026-04-05T11:16:52.798Z</time></trkpt><trkpt lat="41.3564409" lon="1.7063227"><ele>230.83333333333334</ele><time>2026-04-05T11:16:53.798Z</time></trkpt><trkpt lat="41.3565084" lon="1.7063885"><ele>230.66666666666669</ele><time>2026-04-05T11:16:54.798Z</time></trkpt><trkpt lat="41.3565736" lon="1.7064559"><ele>230.5</ele><time>2026-04-05T11:16:55.797Z</time></trkpt><trkpt lat="41.3566344" lon="1.7065166"><ele>230.33333333333334</ele><time>2026-04-05T11:16:56.798Z</time></trkpt><trkpt lat="41.3566871" lon="1.7065702"><ele>230.16666666666669</ele><time>2026-04-05T11:16:57.798Z</time></trkpt><trkpt lat="41.3567509" lon="1.706698"><ele>230.0</ele><time>2026-04-05T11:16:59.798Z</time></trkpt><trkpt lat="41.3567777" lon="1.7068485"><ele>230.00000000000003</ele><time>2026-04-05T11:17:01.798Z</time></trkpt><trkpt lat="41.356798" lon="1.7069595"><ele>230.0</ele><time>2026-04-05T11:17:03.798Z</time></trkpt><trkpt lat="41.3568331" lon="1.7070358"><ele>230.0</ele><time>2026-04-05T11:17:08.798Z</time></trkpt><trkpt lat="41.3568982" lon="1.707133"><ele>230.0</ele><time>2026-04-05T11:17:10.798Z</time></trkpt><trkpt lat="41.3569564" lon="1.7071762"><ele>230.00000000000003</ele><time>2026-04-05T11:17:11.797Z</time></trkpt><trkpt lat="41.3570198" lon="1.7072138"><ele>230.0</ele><time>2026-04-05T11:17:12.797Z</time></trkpt><trkpt lat="41.3570916" lon="1.7072405"><ele>230.0</ele><time>2026-04-05T11:17:13.797Z</time></trkpt><trkpt lat="41.3571767" lon="1.707273"><ele>230.0</ele><time>2026-04-05T11:17:14.797Z</time></trkpt><trkpt lat="41.357268" lon="1.7073019"><ele>230.0</ele><time>2026-04-05T11:17:15.797Z</time></trkpt><trkpt lat="41.3573701" lon="1.7073295"><ele>230.0</ele><time>2026-04-05T11:17:16.797Z</time></trkpt><trkpt lat="41.3574852" lon="1.7073611"><ele>230.0</ele><time>2026-04-05T11:17:17.797Z</time></trkpt><trkpt lat="41.3576061" lon="1.7073931"><ele>229.5</ele><time>2026-04-05T11:17:18.798Z</time></trkpt><trkpt lat="41.3577269" lon="1.7074334"><ele>229.0</ele><time>2026-04-05T11:17:19.797Z</time></trkpt><trkpt lat="41.3578485" lon="1.7074847"><ele>228.5</ele><time>2026-04-05T11:17:20.797Z</time></trkpt><trkpt lat="41.3579588" lon="1.7075637"><ele>228.0</ele><time>2026-04-05T11:17:21.798Z</time></trkpt><trkpt lat="41.3580563" lon="1.707675"><ele>227.75</ele><time>2026-04-05T11:17:22.798Z</time></trkpt><trkpt lat="41.3581534" lon="1.7077947"><ele>227.5</ele><time>2026-04-05T11:17:23.798Z</time></trkpt><trkpt lat="41.358255" lon="1.7079105"><ele>227.25</ele><time>2026-04-05T11:17:24.797Z</time></trkpt><trkpt lat="41.3583599" lon="1.708028"><ele>227.0</ele><time>2026-04-05T11:17:25.798Z</time></trkpt><trkpt lat="41.3584595" lon="1.7081488"><ele>227.0</ele><time>2026-04-05T11:17:26.798Z</time></trkpt><trkpt lat="41.3585614" lon="1.7082701"><ele>227.0</ele><time>2026-04-05T11:17:27.798Z</time></trkpt><trkpt lat="41.3586685" lon="1.7083949"><ele>227.0</ele><time>2026-04-05T11:17:28.797Z</time></trkpt><trkpt lat="41.3587822" lon="1.7085262"><ele>227.0</ele><time>2026-04-05T11:17:29.798Z</time></trkpt><trkpt lat="41.3589032" lon="1.7086613"><ele>228.0</ele><time>2026-04-05T11:17:30.798Z</time></trkpt><trkpt lat="41.3590264" lon="1.708802"><ele>229.0</ele><time>2026-04-05T11:17:31.798Z</time></trkpt><trkpt lat="41.359165" lon="1.7089586"><ele>230.0</ele><time>2026-04-05T11:17:32.798Z</time></trkpt><trkpt lat="41.3593244" lon="1.7091288"><ele>230.0</ele><time>2026-04-05T11:17:33.797Z</time></trkpt><trkpt lat="41.3594916" lon="1.7093087"><ele>230.0</ele><time>2026-04-05T11:17:34.797Z</time></trkpt><trkpt lat="41.3596589" lon="1.7094941"><ele>230.0</ele><time>2026-04-05T11:17:35.797Z</time></trkpt><trkpt lat="41.3598362" lon="1.7096941"><ele>230.5</ele><time>2026-04-05T11:17:36.797Z</time></trkpt><trkpt lat="41.360017" lon="1.7098983"><ele>231.0</ele><time>2026-04-05T11:17:37.798Z</time></trkpt><trkpt lat="41.3602012" lon="1.7101036"><ele>231.5</ele><time>2026-04-05T11:17:38.798Z</time></trkpt><trkpt lat="41.3603909" lon="1.7103091"><ele>232.0</ele><time>2026-04-05T11:17:39.798Z</time></trkpt><trkpt lat="41.3605829" lon="1.71051"><ele>234.5</ele><time>2026-04-05T11:17:40.797Z</time></trkpt><trkpt lat="41.3607747" lon="1.710709"><ele>237.0</ele><time>2026-04-05T11:17:41.797Z</time></trkpt><trkpt lat="41.3609746" lon="1.710908"><ele>237.0</ele><time>2026-04-05T11:17:42.798Z</time></trkpt><trkpt lat="41.3611828" lon="1.7111059"><ele>237.0</ele><time>2026-04-05T11:17:43.797Z</time></trkpt><trkpt lat="41.3613977" lon="1.7113073"><ele>238.0</ele><time>2026-04-05T11:17:44.797Z</time></trkpt><trkpt lat="41.3616136" lon="1.7115002"><ele>239.0</ele><time>2026-04-05T11:17:45.797Z</time></trkpt><trkpt lat="41.3618259" lon="1.7116902"><ele>239.0</ele><time>2026-04-05T11:17:46.797Z</time></trkpt><trkpt lat="41.3620422" lon="1.7118881"><ele>239.0</ele><time>2026-04-05T11:17:47.798Z</time></trkpt><trkpt lat="41.3622586" lon="1.7120973"><ele>239.0</ele><time>2026-04-05T11:17:48.797Z</time></trkpt><trkpt lat="41.3624752" lon="1.7123115"><ele>239.0</ele><time>2026-04-05T11:17:49.798Z</time></trkpt><trkpt lat="41.3626921" lon="1.7125301"><ele>238.5</ele><time>2026-04-05T11:17:50.798Z</time></trkpt><trkpt lat="41.3629032" lon="1.7127551"><ele>238.0</ele><time>2026-04-05T11:17:51.798Z</time></trkpt><trkpt lat="41.3631067" lon="1.7129636"><ele>238.0</ele><time>2026-04-05T11:17:52.798Z</time></trkpt><trkpt lat="41.3632982" lon="1.7131675"><ele>238.0</ele><time>2026-04-05T11:17:53.798Z</time></trkpt><trkpt lat="41.3634794" lon="1.7133655"><ele>238.0</ele><time>2026-04-05T11:17:54.797Z</time></trkpt><trkpt lat="41.3636603" lon="1.713565"><ele>238.0</ele><time>2026-04-05T11:17:55.797Z</time></trkpt><trkpt lat="41.3638431" lon="1.7137574"><ele>239.33333333333331</ele><time>2026-04-05T11:17:56.798Z</time></trkpt><trkpt lat="41.3640134" lon="1.7139428"><ele>240.66666666666669</ele><time>2026-04-05T11:17:57.798Z</time></trkpt><trkpt lat="41.3641746" lon="1.7141204"><ele>242.0</ele><time>2026-04-05T11:17:58.797Z</time></trkpt><trkpt lat="41.3643257" lon="1.7142932"><ele>242.0</ele><time>2026-04-05T11:17:59.798Z</time></trkpt><trkpt lat="41.3644697" lon="1.7144609"><ele>242.0</ele><time>2026-04-05T11:18:00.797Z</time></trkpt><trkpt lat="41.3646065" lon="1.7146197"><ele>242.0</ele><time>2026-04-05T11:18:01.797Z</time></trkpt><trkpt lat="41.364744" lon="1.7147816"><ele>243.0</ele><time>2026-04-05T11:18:02.797Z</time></trkpt><trkpt lat="41.3648824" lon="1.7149471"><ele>244.0</ele><time>2026-04-05T11:18:03.797Z</time></trkpt><trkpt lat="41.3650117" lon="1.7151052"><ele>245.0</ele><time>2026-04-05T11:18:04.797Z</time></trkpt><trkpt lat="41.3651331" lon="1.7152536"><ele>245.66666666666669</ele><time>2026-04-05T11:18:05.797Z</time></trkpt><trkpt lat="41.3652488" lon="1.715398"><ele>246.33333333333331</ele><time>2026-04-05T11:18:06.797Z</time></trkpt><trkpt lat="41.3653585" lon="1.715535"><ele>247.0</ele><time>2026-04-05T11:18:07.797Z</time></trkpt><trkpt lat="41.3654637" lon="1.715667"><ele>247.0</ele><time>2026-04-05T11:18:08.798Z</time></trkpt><trkpt lat="41.3655687" lon="1.7158016"><ele>247.0</ele><time>2026-04-05T11:18:09.798Z</time></trkpt><trkpt lat="41.3656661" lon="1.7159306"><ele>247.0</ele><time>2026-04-05T11:18:10.798Z</time></trkpt><trkpt lat="41.3657462" lon="1.7160398"><ele>247.0</ele><time>2026-04-05T11:18:11.798Z</time></trkpt><trkpt lat="41.3657947" lon="1.7161323"><ele>246.8</ele><time>2026-04-05T11:18:12.798Z</time></trkpt><trkpt lat="41.3658248" lon="1.7162063"><ele>246.6</ele><time>2026-04-05T11:18:13.797Z</time></trkpt><trkpt lat="41.3658328" lon="1.7164107"><ele>246.40000000000003</ele><time>2026-04-05T11:18:15.797Z</time></trkpt><trkpt lat="41.3658153" lon="1.7165487"><ele>246.20000000000002</ele><time>2026-04-05T11:18:16.797Z</time></trkpt><trkpt lat="41.365813" lon="1.7166881"><ele>246.0</ele><time>2026-04-05T11:18:17.798Z</time></trkpt><trkpt lat="41.3658332" lon="1.7168268"><ele>245.20000000000002</ele><time>2026-04-05T11:18:18.798Z</time></trkpt><trkpt lat="41.365877" lon="1.7169572"><ele>244.40000000000003</ele><time>2026-04-05T11:18:19.798Z</time></trkpt><trkpt lat="41.3659455" lon="1.717066"><ele>243.6</ele><time>2026-04-05T11:18:20.798Z</time></trkpt><trkpt lat="41.3660255" lon="1.7171535"><ele>242.8</ele><time>2026-04-05T11:18:21.797Z</time></trkpt><trkpt lat="41.366131" lon="1.7172017"><ele>242.0</ele><time>2026-04-05T11:18:22.797Z</time></trkpt><trkpt lat="41.366247" lon="1.7172091"><ele>242.0</ele><time>2026-04-05T11:18:23.797Z</time></trkpt><trkpt lat="41.3663544" lon="1.7172069"><ele>242.0</ele><time>2026-04-05T11:18:24.797Z</time></trkpt><trkpt lat="41.366459" lon="1.7172108"><ele>242.0</ele><time>2026-04-05T11:18:25.798Z</time></trkpt><trkpt lat="41.3665595" lon="1.7172439"><ele>242.0</ele><time>2026-04-05T11:18:26.797Z</time></trkpt><trkpt lat="41.3666509" lon="1.7173106"><ele>242.0</ele><time>2026-04-05T11:18:27.798Z</time></trkpt><trkpt lat="41.3667361" lon="1.7174219"><ele>241.75</ele><time>2026-04-05T11:18:28.798Z</time></trkpt><trkpt lat="41.3668371" lon="1.7175457"><ele>241.5</ele><time>2026-04-05T11:18:29.797Z</time></trkpt><trkpt lat="41.3669464" lon="1.7176735"><ele>241.25</ele><time>2026-04-05T11:18:30.798Z</time></trkpt><trkpt lat="41.3670665" lon="1.7178153"><ele>241.0</ele><time>2026-04-05T11:18:31.798Z</time></trkpt><trkpt lat="41.3671939" lon="1.7179575"><ele>240.66666666666666</ele><time>2026-04-05T11:18:32.798Z</time></trkpt><trkpt lat="41.3673198" lon="1.7180966"><ele>240.33333333333331</ele><time>2026-04-05T11:18:33.797Z</time></trkpt><trkpt lat="41.3674482" lon="1.7182357"><ele>240.0</ele><time>2026-04-05T11:18:34.797Z</time></trkpt><trkpt lat="41.3675817" lon="1.718379"><ele>240.0</ele><time>2026-04-05T11:18:35.798Z</time></trkpt><trkpt lat="41.3677164" lon="1.7185202"><ele>240.0</ele><time>2026-04-05T11:18:36.798Z</time></trkpt><trkpt lat="41.3678508" lon="1.7186635"><ele>240.0</ele><time>2026-04-05T11:18:37.798Z</time></trkpt><trkpt lat="41.3679828" lon="1.718804"><ele>240.0</ele><time>2026-04-05T11:18:38.798Z</time></trkpt><trkpt lat="41.3681146" lon="1.7189463"><ele>240.0</ele><time>2026-04-05T11:18:39.797Z</time></trkpt><trkpt lat="41.36825" lon="1.7190933"><ele>240.0</ele><time>2026-04-05T11:18:40.798Z</time></trkpt><trkpt lat="41.3683912" lon="1.7192469"><ele>240.0</ele><time>2026-04-05T11:18:41.797Z</time></trkpt><trkpt lat="41.3685338" lon="1.7194064"><ele>240.0</ele><time>2026-04-05T11:18:42.798Z</time></trkpt><trkpt lat="41.3686763" lon="1.7195603"><ele>240.0</ele><time>2026-04-05T11:18:43.797Z</time></trkpt><trkpt lat="41.3688179" lon="1.7197173"><ele>240.33333333333331</ele><time>2026-04-05T11:18:44.797Z</time></trkpt><trkpt lat="41.3689607" lon="1.719874"><ele>240.66666666666666</ele><time>2026-04-05T11:18:45.797Z</time></trkpt><trkpt lat="41.3691063" lon="1.7200352"><ele>241.0</ele><time>2026-04-05T11:18:46.798Z</time></trkpt><trkpt lat="41.3692555" lon="1.7202015"><ele>241.33333333333331</ele><time>2026-04-05T11:18:47.797Z</time></trkpt><trkpt lat="41.3694004" lon="1.7203689"><ele>241.66666666666669</ele><time>2026-04-05T11:18:48.798Z</time></trkpt><trkpt lat="41.3695399" lon="1.7205337"><ele>242.0</ele><time>2026-04-05T11:18:49.797Z</time></trkpt><trkpt lat="41.3696756" lon="1.7206967"><ele>242.0</ele><time>2026-04-05T11:18:50.798Z</time></trkpt><trkpt lat="41.3698057" lon="1.7208527"><ele>242.0</ele><time>2026-04-05T11:18:51.798Z</time></trkpt><trkpt lat="41.3699293" lon="1.7210035"><ele>242.0</ele><time>2026-04-05T11:18:52.798Z</time></trkpt><trkpt lat="41.3700499" lon="1.7211474"><ele>242.33333333333334</ele><time>2026-04-05T11:18:53.798Z</time></trkpt><trkpt lat="41.370167" lon="1.7212853"><ele>242.66666666666669</ele><time>2026-04-05T11:18:54.798Z</time></trkpt><trkpt lat="41.3702877" lon="1.7214212"><ele>243.0</ele><time>2026-04-05T11:18:55.797Z</time></trkpt><trkpt lat="41.3704114" lon="1.7215665"><ele>243.66666666666669</ele><time>2026-04-05T11:18:56.797Z</time></trkpt><trkpt lat="41.3705365" lon="1.7217186"><ele>244.33333333333334</ele><time>2026-04-05T11:18:57.798Z</time></trkpt><trkpt lat="41.370661" lon="1.7218712"><ele>245.0</ele><time>2026-04-05T11:18:58.797Z</time></trkpt><trkpt lat="41.3707837" lon="1.722027"><ele>245.33333333333334</ele><time>2026-04-05T11:18:59.798Z</time></trkpt><trkpt lat="41.3709042" lon="1.7221754"><ele>245.66666666666669</ele><time>2026-04-05T11:19:00.798Z</time></trkpt><trkpt lat="41.3710155" lon="1.7223145"><ele>246.0</ele><time>2026-04-05T11:19:01.798Z</time></trkpt><trkpt lat="41.371127" lon="1.7224536"><ele>246.0</ele><time>2026-04-05T11:19:02.797Z</time></trkpt><trkpt lat="41.3712384" lon="1.7225929"><ele>246.0</ele><time>2026-04-05T11:19:03.797Z</time></trkpt><trkpt lat="41.371342" lon="1.7227227"><ele>246.0</ele><time>2026-04-05T11:19:04.798Z</time></trkpt><trkpt lat="41.3714403" lon="1.7228448"><ele>246.0</ele><time>2026-04-05T11:19:05.798Z</time></trkpt><trkpt lat="41.3715371" lon="1.7229651"><ele>245.0</ele><time>2026-04-05T11:19:06.798Z</time></trkpt><trkpt lat="41.371635" lon="1.7230894"><ele>244.0</ele><time>2026-04-05T11:19:07.798Z</time></trkpt><trkpt lat="41.3717276" lon="1.7232032"><ele>243.0</ele><time>2026-04-05T11:19:08.797Z</time></trkpt><trkpt lat="41.3718115" lon="1.7233101"><ele>242.0</ele><time>2026-04-05T11:19:09.798Z</time></trkpt><trkpt lat="41.3718799" lon="1.7233975"><ele>242.0</ele><time>2026-04-05T11:19:10.797Z</time></trkpt><trkpt lat="41.3719345" lon="1.7234703"><ele>241.99999999999997</ele><time>2026-04-05T11:19:11.798Z</time></trkpt><trkpt lat="41.3719812" lon="1.7235365"><ele>242.0</ele><time>2026-04-05T11:19:12.798Z</time></trkpt><trkpt lat="41.3720234" lon="1.7236063"><ele>242.0</ele><time>2026-04-05T11:19:13.797Z</time></trkpt><trkpt lat="41.3720657" lon="1.7236859"><ele>241.99999999999997</ele><time>2026-04-05T11:19:14.798Z</time></trkpt><trkpt lat="41.3720827" lon="1.7237818"><ele>242.0</ele><time>2026-04-05T11:19:15.798Z</time></trkpt><trkpt lat="41.3721132" lon="1.7238658"><ele>242.0</ele><time>2026-04-05T11:19:16.797Z</time></trkpt><trkpt lat="41.3721538" lon="1.7239341"><ele>242.39999999999998</ele><time>2026-04-05T11:19:17.798Z</time></trkpt><trkpt lat="41.3722158" lon="1.7239927"><ele>242.79999999999998</ele><time>2026-04-05T11:19:18.797Z</time></trkpt><trkpt lat="41.3722925" lon="1.7240541"><ele>243.2</ele><time>2026-04-05T11:19:19.797Z</time></trkpt><trkpt lat="41.3723723" lon="1.7241394"><ele>243.6</ele><time>2026-04-05T11:19:20.797Z</time></trkpt><trkpt lat="41.3724473" lon="1.7242557"><ele>244.0</ele><time>2026-04-05T11:19:21.797Z</time></trkpt><trkpt lat="41.3725303" lon="1.7244115"><ele>244.0</ele><time>2026-04-05T11:19:22.798Z</time></trkpt><trkpt lat="41.3726184" lon="1.7245903"><ele>244.0</ele><time>2026-04-05T11:19:23.797Z</time></trkpt><trkpt lat="41.3727113" lon="1.7247827"><ele>244.0</ele><time>2026-04-05T11:19:24.797Z</time></trkpt><trkpt lat="41.3728114" lon="1.7249938"><ele>244.0</ele><time>2026-04-05T11:19:25.798Z</time></trkpt><trkpt lat="41.3729108" lon="1.7252086"><ele>244.0</ele><time>2026-04-05T11:19:26.798Z</time></trkpt><trkpt lat="41.3730045" lon="1.7254053"><ele>244.0</ele><time>2026-04-05T11:19:27.798Z</time></trkpt><trkpt lat="41.3730933" lon="1.7255919"><ele>245.0</ele><time>2026-04-05T11:19:28.798Z</time></trkpt><trkpt lat="41.3731842" lon="1.7257749"><ele>246.0</ele><time>2026-04-05T11:19:29.798Z</time></trkpt><trkpt lat="41.3732816" lon="1.7259564"><ele>247.0</ele><time>2026-04-05T11:19:30.797Z</time></trkpt><trkpt lat="41.3733892" lon="1.726136"><ele>247.0</ele><time>2026-04-05T11:19:31.797Z</time></trkpt><trkpt lat="41.3735019" lon="1.7263136"><ele>247.0</ele><time>2026-04-05T11:19:32.797Z</time></trkpt><trkpt lat="41.3736142" lon="1.7264864"><ele>247.0</ele><time>2026-04-05T11:19:33.797Z</time></trkpt><trkpt lat="41.3737253" lon="1.7266517"><ele>247.0</ele><time>2026-04-05T11:19:34.798Z</time></trkpt><trkpt lat="41.3738394" lon="1.7268139"><ele>247.0</ele><time>2026-04-05T11:19:35.798Z</time></trkpt><trkpt lat="41.3739529" lon="1.726971"><ele>247.0</ele><time>2026-04-05T11:19:36.798Z</time></trkpt><trkpt lat="41.3740715" lon="1.7271233"><ele>248.33333333333331</ele><time>2026-04-05T11:19:37.797Z</time></trkpt><trkpt lat="41.3741934" lon="1.7272717"><ele>249.66666666666669</ele><time>2026-04-05T11:19:38.798Z</time></trkpt><trkpt lat="41.3743195" lon="1.7274124"><ele>251.0</ele><time>2026-04-05T11:19:39.797Z</time></trkpt><trkpt lat="41.3744482" lon="1.7275389"><ele>251.0</ele><time>2026-04-05T11:19:40.797Z</time></trkpt><trkpt lat="41.3745896" lon="1.7276502"><ele>251.0</ele><time>2026-04-05T11:19:41.798Z</time></trkpt><trkpt lat="41.3747301" lon="1.7277523"><ele>251.0</ele><time>2026-04-05T11:19:42.798Z</time></trkpt><trkpt lat="41.3748666" lon="1.7278583"><ele>250.33333333333334</ele><time>2026-04-05T11:19:43.798Z</time></trkpt><trkpt lat="41.3749997" lon="1.7279634"><ele>249.66666666666669</ele><time>2026-04-05T11:19:44.797Z</time></trkpt><trkpt lat="41.3751286" lon="1.7280645"><ele>249.0</ele><time>2026-04-05T11:19:45.797Z</time></trkpt><trkpt lat="41.3752608" lon="1.7281626"><ele>249.0</ele><time>2026-04-05T11:19:46.797Z</time></trkpt><trkpt lat="41.3753899" lon="1.7282576"><ele>249.0</ele><time>2026-04-05T11:19:47.797Z</time></trkpt><trkpt lat="41.3755217" lon="1.7283449"><ele>249.0</ele><time>2026-04-05T11:19:48.798Z</time></trkpt><trkpt lat="41.3756613" lon="1.7284392"><ele>249.33333333333331</ele><time>2026-04-05T11:19:49.798Z</time></trkpt><trkpt lat="41.3758001" lon="1.7285362"><ele>249.66666666666666</ele><time>2026-04-05T11:19:50.798Z</time></trkpt><trkpt lat="41.3759363" lon="1.7286309"><ele>250.0</ele><time>2026-04-05T11:19:51.797Z</time></trkpt><trkpt lat="41.376071" lon="1.7287279"><ele>250.0</ele><time>2026-04-05T11:19:52.797Z</time></trkpt><trkpt lat="41.3762024" lon="1.728823"><ele>250.0</ele><time>2026-04-05T11:19:53.797Z</time></trkpt><trkpt lat="41.3763367" lon="1.7289132"><ele>250.0</ele><time>2026-04-05T11:19:54.798Z</time></trkpt><trkpt lat="41.3764697" lon="1.7290073"><ele>250.25</ele><time>2026-04-05T11:19:55.797Z</time></trkpt><trkpt lat="41.3766001" lon="1.7291026"><ele>250.5</ele><time>2026-04-05T11:19:56.797Z</time></trkpt><trkpt lat="41.3767333" lon="1.7292028"><ele>250.75</ele><time>2026-04-05T11:19:57.797Z</time></trkpt><trkpt lat="41.3768601" lon="1.7293036"><ele>251.0</ele><time>2026-04-05T11:19:58.797Z</time></trkpt><trkpt lat="41.3769865" lon="1.7294041"><ele>250.0</ele><time>2026-04-05T11:19:59.798Z</time></trkpt><trkpt lat="41.3771051" lon="1.7295107"><ele>249.0</ele><time>2026-04-05T11:20:00.797Z</time></trkpt><trkpt lat="41.3772253" lon="1.729619"><ele>248.0</ele><time>2026-04-05T11:20:01.798Z</time></trkpt><trkpt lat="41.3773522" lon="1.7297351"><ele>247.0</ele><time>2026-04-05T11:20:02.798Z</time></trkpt><trkpt lat="41.3774769" lon="1.7298599"><ele>247.0</ele><time>2026-04-05T11:20:03.798Z</time></trkpt><trkpt lat="41.3776003" lon="1.7299854"><ele>247.0</ele><time>2026-04-05T11:20:04.798Z</time></trkpt><trkpt lat="41.3777188" lon="1.7301105"><ele>247.0</ele><time>2026-04-05T11:20:05.797Z</time></trkpt><trkpt lat="41.3778347" lon="1.7302364"><ele>246.0</ele><time>2026-04-05T11:20:06.798Z</time></trkpt><trkpt lat="41.3779506" lon="1.7303735"><ele>245.0</ele><time>2026-04-05T11:20:07.798Z</time></trkpt><trkpt lat="41.378071" lon="1.7305136"><ele>244.0</ele><time>2026-04-05T11:20:08.798Z</time></trkpt><trkpt lat="41.3781923" lon="1.7306593"><ele>244.0</ele><time>2026-04-05T11:20:09.798Z</time></trkpt><trkpt lat="41.3783174" lon="1.7308086"><ele>244.0</ele><time>2026-04-05T11:20:10.798Z</time></trkpt><trkpt lat="41.3784449" lon="1.730958"><ele>244.0</ele><time>2026-04-05T11:20:11.798Z</time></trkpt><trkpt lat="41.3785757" lon="1.7311049"><ele>242.0</ele><time>2026-04-05T11:20:12.798Z</time></trkpt><trkpt lat="41.3787115" lon="1.7312536"><ele>240.0</ele><time>2026-04-05T11:20:13.797Z</time></trkpt><trkpt lat="41.378853" lon="1.7313994"><ele>238.0</ele><time>2026-04-05T11:20:14.798Z</time></trkpt><trkpt lat="41.3789963" lon="1.7315447"><ele>238.0</ele><time>2026-04-05T11:20:15.797Z</time></trkpt><trkpt lat="41.3791417" lon="1.7316895"><ele>238.0</ele><time>2026-04-05T11:20:16.797Z</time></trkpt><trkpt lat="41.3792895" lon="1.7318261"><ele>238.0</ele><time>2026-04-05T11:20:17.797Z</time></trkpt><trkpt lat="41.3794362" lon="1.7319636"><ele>237.66666666666666</ele><time>2026-04-05T11:20:18.797Z</time></trkpt><trkpt lat="41.3795991" lon="1.7321145"><ele>237.33333333333331</ele><time>2026-04-05T11:20:19.798Z</time></trkpt><trkpt lat="41.3797805" lon="1.7322787"><ele>237.0</ele><time>2026-04-05T11:20:20.798Z</time></trkpt><trkpt lat="41.3799756" lon="1.7324466"><ele>236.0</ele><time>2026-04-05T11:20:21.797Z</time></trkpt><trkpt lat="41.380189" lon="1.7326298"><ele>235.0</ele><time>2026-04-05T11:20:22.797Z</time></trkpt><trkpt lat="41.380412" lon="1.7328393"><ele>233.0</ele><time>2026-04-05T11:20:23.798Z</time></trkpt><trkpt lat="41.3806295" lon="1.7330598"><ele>231.0</ele><time>2026-04-05T11:20:24.798Z</time></trkpt><trkpt lat="41.380846" lon="1.7332875"><ele>231.0</ele><time>2026-04-05T11:20:25.797Z</time></trkpt><trkpt lat="41.3810643" lon="1.7335235"><ele>231.0</ele><time>2026-04-05T11:20:26.797Z</time></trkpt><trkpt lat="41.3812721" lon="1.7337505"><ele>228.0</ele><time>2026-04-05T11:20:27.798Z</time></trkpt><trkpt lat="41.3814765" lon="1.7339729"><ele>225.0</ele><time>2026-04-05T11:20:28.798Z</time></trkpt><trkpt lat="41.3816803" lon="1.7341996"><ele>226.0</ele><time>2026-04-05T11:20:29.798Z</time></trkpt><trkpt lat="41.3818842" lon="1.7344348"><ele>227.0</ele><time>2026-04-05T11:20:30.798Z</time></trkpt><trkpt lat="41.3820791" lon="1.7346686"><ele>225.5</ele><time>2026-04-05T11:20:31.797Z</time></trkpt><trkpt lat="41.3822668" lon="1.7348973"><ele>224.0</ele><time>2026-04-05T11:20:32.797Z</time></trkpt><trkpt lat="41.3824484" lon="1.735124"><ele>224.0</ele><time>2026-04-05T11:20:33.797Z</time></trkpt><trkpt lat="41.3826223" lon="1.7353473"><ele>224.0</ele><time>2026-04-05T11:20:34.798Z</time></trkpt><trkpt lat="41.3827938" lon="1.7355636"><ele>224.0</ele><time>2026-04-05T11:20:35.797Z</time></trkpt><trkpt lat="41.3829597" lon="1.7357789"><ele>224.0</ele><time>2026-04-05T11:20:36.798Z</time></trkpt><trkpt lat="41.3831188" lon="1.7359839"><ele>223.33333333333334</ele><time>2026-04-05T11:20:37.797Z</time></trkpt><trkpt lat="41.383274" lon="1.7361804"><ele>222.66666666666669</ele><time>2026-04-05T11:20:38.798Z</time></trkpt><trkpt lat="41.383426" lon="1.7363707"><ele>222.0</ele><time>2026-04-05T11:20:39.798Z</time></trkpt><trkpt lat="41.3835801" lon="1.7365589"><ele>222.0</ele><time>2026-04-05T11:20:40.798Z</time></trkpt><trkpt lat="41.3837374" lon="1.7367503"><ele>222.0</ele><time>2026-04-05T11:20:41.797Z</time></trkpt><trkpt lat="41.383896" lon="1.7369359"><ele>222.0</ele><time>2026-04-05T11:20:42.798Z</time></trkpt><trkpt lat="41.3840568" lon="1.737113"><ele>221.66666666666669</ele><time>2026-04-05T11:20:43.797Z</time></trkpt><trkpt lat="41.384213" lon="1.7372809"><ele>221.33333333333334</ele><time>2026-04-05T11:20:44.797Z</time></trkpt><trkpt lat="41.3843685" lon="1.737445"><ele>221.0</ele><time>2026-04-05T11:20:45.798Z</time></trkpt><trkpt lat="41.3845336" lon="1.7376057"><ele>220.33333333333334</ele><time>2026-04-05T11:20:46.797Z</time></trkpt><trkpt lat="41.3847037" lon="1.7377668"><ele>219.66666666666669</ele><time>2026-04-05T11:20:47.797Z</time></trkpt><trkpt lat="41.3848676" lon="1.7379262"><ele>219.0</ele><time>2026-04-05T11:20:48.797Z</time></trkpt><trkpt lat="41.3850267" lon="1.7380911"><ele>219.0</ele><time>2026-04-05T11:20:49.798Z</time></trkpt><trkpt lat="41.3851821" lon="1.7382619"><ele>219.0</ele><time>2026-04-05T11:20:50.797Z</time></trkpt><trkpt lat="41.3853358" lon="1.7384419"><ele>219.0</ele><time>2026-04-05T11:20:51.798Z</time></trkpt><trkpt lat="41.3854831" lon="1.7386312"><ele>218.0</ele><time>2026-04-05T11:20:52.797Z</time></trkpt><trkpt lat="41.3856255" lon="1.7388207"><ele>217.0</ele><time>2026-04-05T11:20:53.797Z</time></trkpt><trkpt lat="41.3857691" lon="1.7390078"><ele>216.0</ele><time>2026-04-05T11:20:54.797Z</time></trkpt><trkpt lat="41.3859106" lon="1.7391942"><ele>216.0</ele><time>2026-04-05T11:20:55.797Z</time></trkpt><trkpt lat="41.3860464" lon="1.7393755"><ele>216.0</ele><time>2026-04-05T11:20:56.797Z</time></trkpt><trkpt lat="41.3861823" lon="1.7395516"><ele>216.0</ele><time>2026-04-05T11:20:57.797Z</time></trkpt><trkpt lat="41.3863206" lon="1.7397242"><ele>215.33333333333331</ele><time>2026-04-05T11:20:58.797Z</time></trkpt><trkpt lat="41.3864635" lon="1.7398911"><ele>214.66666666666666</ele><time>2026-04-05T11:20:59.798Z</time></trkpt><trkpt lat="41.3866141" lon="1.7400574"><ele>214.0</ele><time>2026-04-05T11:21:00.798Z</time></trkpt><trkpt lat="41.3867636" lon="1.7402192"><ele>213.0</ele><time>2026-04-05T11:21:01.798Z</time></trkpt><trkpt lat="41.3869154" lon="1.7403794"><ele>212.0</ele><time>2026-04-05T11:21:02.797Z</time></trkpt><trkpt lat="41.3870727" lon="1.7405318"><ele>211.0</ele><time>2026-04-05T11:21:03.797Z</time></trkpt><trkpt lat="41.3872376" lon="1.7406765"><ele>210.66666666666666</ele><time>2026-04-05T11:21:04.797Z</time></trkpt><trkpt lat="41.3874045" lon="1.7408152"><ele>210.33333333333331</ele><time>2026-04-05T11:21:05.797Z</time></trkpt><trkpt lat="41.3875703" lon="1.7409451"><ele>210.0</ele><time>2026-04-05T11:21:06.797Z</time></trkpt><trkpt lat="41.3877404" lon="1.7410655"><ele>209.33333333333331</ele><time>2026-04-05T11:21:07.797Z</time></trkpt><trkpt lat="41.3879051" lon="1.7411741"><ele>208.66666666666666</ele><time>2026-04-05T11:21:08.797Z</time></trkpt><trkpt lat="41.3880709" lon="1.7412713"><ele>208.0</ele><time>2026-04-05T11:21:09.797Z</time></trkpt><trkpt lat="41.3882306" lon="1.7413568"><ele>206.66666666666666</ele><time>2026-04-05T11:21:10.797Z</time></trkpt><trkpt lat="41.3883849" lon="1.7414299"><ele>205.33333333333331</ele><time>2026-04-05T11:21:11.797Z</time></trkpt><trkpt lat="41.3885272" lon="1.7415016"><ele>204.0</ele><time>2026-04-05T11:21:12.798Z</time></trkpt><trkpt lat="41.3886555" lon="1.7415657"><ele>204.0</ele><time>2026-04-05T11:21:13.797Z</time></trkpt><trkpt lat="41.388777" lon="1.7416241"><ele>204.0</ele><time>2026-04-05T11:21:14.798Z</time></trkpt><trkpt lat="41.3888855" lon="1.741679"><ele>204.0</ele><time>2026-04-05T11:21:15.798Z</time></trkpt><trkpt lat="41.3889893" lon="1.7417303"><ele>204.0</ele><time>2026-04-05T11:21:16.798Z</time></trkpt><trkpt lat="41.3890849" lon="1.7417808"><ele>204.2</ele><time>2026-04-05T11:21:17.797Z</time></trkpt><trkpt lat="41.3891731" lon="1.7418305"><ele>204.39999999999998</ele><time>2026-04-05T11:21:18.798Z</time></trkpt><trkpt lat="41.3892711" lon="1.7418848"><ele>204.6</ele><time>2026-04-05T11:21:19.798Z</time></trkpt><trkpt lat="41.3893758" lon="1.7419492"><ele>204.8</ele><time>2026-04-05T11:21:20.797Z</time></trkpt><trkpt lat="41.3894788" lon="1.7420175"><ele>205.0</ele><time>2026-04-05T11:21:21.798Z</time></trkpt><trkpt lat="41.3895888" lon="1.7420961"><ele>204.75</ele><time>2026-04-05T11:21:22.798Z</time></trkpt><trkpt lat="41.3897012" lon="1.7421793"><ele>204.5</ele><time>2026-04-05T11:21:23.798Z</time></trkpt><trkpt lat="41.3898122" lon="1.7422608"><ele>204.25</ele><time>2026-04-05T11:21:24.798Z</time></trkpt><trkpt lat="41.3899264" lon="1.7423516"><ele>204.0</ele><time>2026-04-05T11:21:25.798Z</time></trkpt><trkpt lat="41.3900393" lon="1.7424355"><ele>204.0</ele><time>2026-04-05T11:21:26.797Z</time></trkpt><trkpt lat="41.3901555" lon="1.742519"><ele>204.0</ele><time>2026-04-05T11:21:27.797Z</time></trkpt><trkpt lat="41.390285" lon="1.7426166"><ele>204.0</ele><time>2026-04-05T11:21:28.797Z</time></trkpt><trkpt lat="41.3904238" lon="1.7427212"><ele>204.0</ele><time>2026-04-05T11:21:29.798Z</time></trkpt><trkpt lat="41.3905631" lon="1.7428351"><ele>202.0</ele><time>2026-04-05T11:21:30.797Z</time></trkpt><trkpt lat="41.3907157" lon="1.7429509"><ele>200.0</ele><time>2026-04-05T11:21:31.798Z</time></trkpt><trkpt lat="41.3908771" lon="1.7430757"><ele>198.0</ele><time>2026-04-05T11:21:32.798Z</time></trkpt><trkpt lat="41.391035" lon="1.7431973"><ele>198.0</ele><time>2026-04-05T11:21:33.797Z</time></trkpt><trkpt lat="41.3911863" lon="1.7433182"><ele>198.0</ele><time>2026-04-05T11:21:34.797Z</time></trkpt><trkpt lat="41.3913288" lon="1.7434323"><ele>198.0</ele><time>2026-04-05T11:21:35.797Z</time></trkpt><trkpt lat="41.3914685" lon="1.743547"><ele>197.33333333333331</ele><time>2026-04-05T11:21:36.798Z</time></trkpt><trkpt lat="41.3916156" lon="1.7436749"><ele>196.66666666666666</ele><time>2026-04-05T11:21:37.797Z</time></trkpt><trkpt lat="41.3917637" lon="1.7438169"><ele>196.0</ele><time>2026-04-05T11:21:38.797Z</time></trkpt><trkpt lat="41.391917" lon="1.7439758"><ele>196.0</ele><time>2026-04-05T11:21:39.797Z</time></trkpt><trkpt lat="41.392067" lon="1.7441397"><ele>196.0</ele><time>2026-04-05T11:21:40.798Z</time></trkpt><trkpt lat="41.3922118" lon="1.7443175"><ele>196.0</ele><time>2026-04-05T11:21:41.797Z</time></trkpt><trkpt lat="41.3923517" lon="1.7445012"><ele>195.0</ele><time>2026-04-05T11:21:42.798Z</time></trkpt><trkpt lat="41.3924788" lon="1.7446879"><ele>194.0</ele><time>2026-04-05T11:21:43.797Z</time></trkpt><trkpt lat="41.3925947" lon="1.7448789"><ele>193.0</ele><time>2026-04-05T11:21:44.798Z</time></trkpt><trkpt lat="41.3927064" lon="1.7450789"><ele>193.0</ele><time>2026-04-05T11:21:45.798Z</time></trkpt><trkpt lat="41.3928122" lon="1.745289"><ele>193.0</ele><time>2026-04-05T11:21:46.798Z</time></trkpt><trkpt lat="41.3929138" lon="1.7455072"><ele>193.0</ele><time>2026-04-05T11:21:47.797Z</time></trkpt><trkpt lat="41.3930041" lon="1.7457381"><ele>191.33333333333331</ele><time>2026-04-05T11:21:48.797Z</time></trkpt><trkpt lat="41.3930892" lon="1.745971"><ele>189.66666666666666</ele><time>2026-04-05T11:21:49.797Z</time></trkpt><trkpt lat="41.3931641" lon="1.7462015"><ele>188.0</ele><time>2026-04-05T11:21:50.798Z</time></trkpt><trkpt lat="41.3932317" lon="1.7464336"><ele>187.66666666666666</ele><time>2026-04-05T11:21:51.798Z</time></trkpt><trkpt lat="41.3932957" lon="1.7466655"><ele>187.33333333333334</ele><time>2026-04-05T11:21:52.797Z</time></trkpt><trkpt lat="41.3933545" lon="1.7469007"><ele>187.0</ele><time>2026-04-05T11:21:53.797Z</time></trkpt><trkpt lat="41.3934124" lon="1.7471434"><ele>186.0</ele><time>2026-04-05T11:21:54.797Z</time></trkpt><trkpt lat="41.3934697" lon="1.7473863"><ele>185.0</ele><time>2026-04-05T11:21:55.797Z</time></trkpt><trkpt lat="41.3935257" lon="1.7476302"><ele>184.0</ele><time>2026-04-05T11:21:56.798Z</time></trkpt><trkpt lat="41.393581" lon="1.7478734"><ele>182.33333333333334</ele><time>2026-04-05T11:21:57.797Z</time></trkpt><trkpt lat="41.3936395" lon="1.7481189"><ele>180.66666666666666</ele><time>2026-04-05T11:21:58.798Z</time></trkpt><trkpt lat="41.3936978" lon="1.748362"><ele>179.0</ele><time>2026-04-05T11:21:59.798Z</time></trkpt><trkpt lat="41.39375" lon="1.7486066"><ele>177.66666666666666</ele><time>2026-04-05T11:22:00.798Z</time></trkpt><trkpt lat="41.3937967" lon="1.7488599"><ele>176.33333333333334</ele><time>2026-04-05T11:22:01.798Z</time></trkpt><trkpt lat="41.3938384" lon="1.7491236"><ele>175.0</ele><time>2026-04-05T11:22:02.798Z</time></trkpt><trkpt lat="41.393883" lon="1.7493807"><ele>175.0</ele><time>2026-04-05T11:22:03.798Z</time></trkpt><trkpt lat="41.3939335" lon="1.7496289"><ele>175.0</ele><time>2026-04-05T11:22:04.797Z</time></trkpt><trkpt lat="41.3939955" lon="1.7498815"><ele>175.0</ele><time>2026-04-05T11:22:05.798Z</time></trkpt><trkpt lat="41.3940754" lon="1.7501402"><ele>176.0</ele><time>2026-04-05T11:22:06.798Z</time></trkpt><trkpt lat="41.3941644" lon="1.7503786"><ele>177.0</ele><time>2026-04-05T11:22:07.798Z</time></trkpt><trkpt lat="41.3942589" lon="1.7505975"><ele>178.0</ele><time>2026-04-05T11:22:08.798Z</time></trkpt><trkpt lat="41.3943654" lon="1.7507982"><ele>178.0</ele><time>2026-04-05T11:22:09.797Z</time></trkpt><trkpt lat="41.3944822" lon="1.7509951"><ele>178.0</ele><time>2026-04-05T11:22:10.797Z</time></trkpt><trkpt lat="41.3946028" lon="1.7511695"><ele>178.0</ele><time>2026-04-05T11:22:11.798Z</time></trkpt><trkpt lat="41.394718" lon="1.7513376"><ele>179.33333333333334</ele><time>2026-04-05T11:22:12.797Z</time></trkpt><trkpt lat="41.3948296" lon="1.7514926"><ele>180.66666666666666</ele><time>2026-04-05T11:22:13.797Z</time></trkpt><trkpt lat="41.3949426" lon="1.751639"><ele>182.0</ele><time>2026-04-05T11:22:14.797Z</time></trkpt><trkpt lat="41.3950555" lon="1.7517838"><ele>181.66666666666666</ele><time>2026-04-05T11:22:15.797Z</time></trkpt><trkpt lat="41.3951718" lon="1.7519295"><ele>181.33333333333334</ele><time>2026-04-05T11:22:16.797Z</time></trkpt><trkpt lat="41.3952893" lon="1.7520615"><ele>181.0</ele><time>2026-04-05T11:22:17.797Z</time></trkpt><trkpt lat="41.3954166" lon="1.7521817"><ele>181.66666666666669</ele><time>2026-04-05T11:22:18.798Z</time></trkpt><trkpt lat="41.3955505" lon="1.7522904"><ele>182.33333333333334</ele><time>2026-04-05T11:22:19.797Z</time></trkpt><trkpt lat="41.3956921" lon="1.7523896"><ele>183.0</ele><time>2026-04-05T11:22:20.798Z</time></trkpt><trkpt lat="41.3958371" lon="1.7524871"><ele>183.0</ele><time>2026-04-05T11:22:21.797Z</time></trkpt><trkpt lat="41.3959796" lon="1.7525871"><ele>183.0</ele><time>2026-04-05T11:22:22.797Z</time></trkpt><trkpt lat="41.396124" lon="1.7526857"><ele>183.0</ele><time>2026-04-05T11:22:23.797Z</time></trkpt><trkpt lat="41.3962691" lon="1.7527829"><ele>181.0</ele><time>2026-04-05T11:22:24.797Z</time></trkpt><trkpt lat="41.3964091" lon="1.7528798"><ele>179.0</ele><time>2026-04-05T11:22:25.798Z</time></trkpt><trkpt lat="41.396541" lon="1.7529735"><ele>177.0</ele><time>2026-04-05T11:22:26.797Z</time></trkpt><trkpt lat="41.3966769" lon="1.7530681"><ele>177.0</ele><time>2026-04-05T11:22:27.798Z</time></trkpt><trkpt lat="41.396817" lon="1.7531613"><ele>177.0</ele><time>2026-04-05T11:22:28.797Z</time></trkpt><trkpt lat="41.3969628" lon="1.7532569"><ele>177.0</ele><time>2026-04-05T11:22:29.798Z</time></trkpt><trkpt lat="41.3971271" lon="1.7533351"><ele>176.33333333333334</ele><time>2026-04-05T11:22:30.797Z</time></trkpt><trkpt lat="41.3973068" lon="1.7533982"><ele>175.66666666666669</ele><time>2026-04-05T11:22:31.797Z</time></trkpt><trkpt lat="41.3974886" lon="1.7534285"><ele>175.0</ele><time>2026-04-05T11:22:32.797Z</time></trkpt><trkpt lat="41.3976731" lon="1.7533765"><ele>175.0</ele><time>2026-04-05T11:22:33.798Z</time></trkpt><trkpt lat="41.397849" lon="1.7533367"><ele>175.0</ele><time>2026-04-05T11:22:34.798Z</time></trkpt><trkpt lat="41.3980141" lon="1.7533017"><ele>175.0</ele><time>2026-04-05T11:22:35.797Z</time></trkpt><trkpt lat="41.3981785" lon="1.7532816"><ele>173.66666666666669</ele><time>2026-04-05T11:22:36.797Z</time></trkpt><trkpt lat="41.3983381" lon="1.7532781"><ele>172.33333333333334</ele><time>2026-04-05T11:22:37.797Z</time></trkpt><trkpt lat="41.3984998" lon="1.7533021"><ele>171.0</ele><time>2026-04-05T11:22:38.798Z</time></trkpt><trkpt lat="41.3986664" lon="1.7533623"><ele>169.0</ele><time>2026-04-05T11:22:39.798Z</time></trkpt><trkpt lat="41.3988402" lon="1.7534552"><ele>167.0</ele><time>2026-04-05T11:22:40.798Z</time></trkpt><trkpt lat="41.3990275" lon="1.7535714"><ele>165.0</ele><time>2026-04-05T11:22:41.798Z</time></trkpt><trkpt lat="41.3992098" lon="1.7536838"><ele>164.66666666666666</ele><time>2026-04-05T11:22:42.798Z</time></trkpt><trkpt lat="41.399387" lon="1.7538006"><ele>164.33333333333331</ele><time>2026-04-05T11:22:43.797Z</time></trkpt><trkpt lat="41.3995633" lon="1.7539204"><ele>164.0</ele><time>2026-04-05T11:22:44.798Z</time></trkpt><trkpt lat="41.39973" lon="1.7540487"><ele>166.0</ele><time>2026-04-05T11:22:45.797Z</time></trkpt><trkpt lat="41.3998816" lon="1.7541885"><ele>168.0</ele><time>2026-04-05T11:22:46.798Z</time></trkpt><trkpt lat="41.4000267" lon="1.7543386"><ele>170.0</ele><time>2026-04-05T11:22:47.798Z</time></trkpt><trkpt lat="41.4001525" lon="1.7545004"><ele>170.0</ele><time>2026-04-05T11:22:48.797Z</time></trkpt><trkpt lat="41.4002703" lon="1.7546699"><ele>170.0</ele><time>2026-04-05T11:22:49.797Z</time></trkpt><trkpt lat="41.4003827" lon="1.7548479"><ele>170.0</ele><time>2026-04-05T11:22:50.798Z</time></trkpt><trkpt lat="41.4004966" lon="1.7550227"><ele>172.66666666666666</ele><time>2026-04-05T11:22:51.798Z</time></trkpt><trkpt lat="41.4006088" lon="1.7551988"><ele>175.33333333333334</ele><time>2026-04-05T11:22:52.797Z</time></trkpt><trkpt lat="41.4007178" lon="1.7553715"><ele>178.0</ele><time>2026-04-05T11:22:53.798Z</time></trkpt><trkpt lat="41.400828" lon="1.7555436"><ele>179.0</ele><time>2026-04-05T11:22:54.797Z</time></trkpt><trkpt lat="41.4009327" lon="1.7557124"><ele>180.0</ele><time>2026-04-05T11:22:55.798Z</time></trkpt><trkpt lat="41.4010378" lon="1.7558776"><ele>181.0</ele><time>2026-04-05T11:22:56.798Z</time></trkpt><trkpt lat="41.4011396" lon="1.75604"><ele>182.0</ele><time>2026-04-05T11:22:57.798Z</time></trkpt><trkpt lat="41.4012374" lon="1.7561941"><ele>183.0</ele><time>2026-04-05T11:22:58.797Z</time></trkpt><trkpt lat="41.401332" lon="1.756346"><ele>184.0</ele><time>2026-04-05T11:22:59.797Z</time></trkpt><trkpt lat="41.4014353" lon="1.7564917"><ele>184.66666666666669</ele><time>2026-04-05T11:23:00.798Z</time></trkpt><trkpt lat="41.401546" lon="1.7566414"><ele>185.33333333333334</ele><time>2026-04-05T11:23:01.798Z</time></trkpt><trkpt lat="41.4016646" lon="1.7567877"><ele>186.0</ele><time>2026-04-05T11:23:02.797Z</time></trkpt><trkpt lat="41.4017926" lon="1.7569258"><ele>186.66666666666666</ele><time>2026-04-05T11:23:03.798Z</time></trkpt><trkpt lat="41.4019301" lon="1.7570502"><ele>187.33333333333331</ele><time>2026-04-05T11:23:04.798Z</time></trkpt><trkpt lat="41.4020775" lon="1.7571682"><ele>188.0</ele><time>2026-04-05T11:23:05.798Z</time></trkpt><trkpt lat="41.4022325" lon="1.7572706"><ele>188.66666666666666</ele><time>2026-04-05T11:23:06.797Z</time></trkpt><trkpt lat="41.4024009" lon="1.7573594"><ele>189.33333333333334</ele><time>2026-04-05T11:23:07.798Z</time></trkpt><trkpt lat="41.4025787" lon="1.7574273"><ele>190.0</ele><time>2026-04-05T11:23:08.798Z</time></trkpt><trkpt lat="41.4027582" lon="1.7574898"><ele>190.0</ele><time>2026-04-05T11:23:09.797Z</time></trkpt><trkpt lat="41.4029375" lon="1.7575483"><ele>190.0</ele><time>2026-04-05T11:23:10.798Z</time></trkpt><trkpt lat="41.403119" lon="1.7576032"><ele>190.0</ele><time>2026-04-05T11:23:11.797Z</time></trkpt><trkpt lat="41.4032987" lon="1.7576574"><ele>191.0</ele><time>2026-04-05T11:23:12.797Z</time></trkpt><trkpt lat="41.4034773" lon="1.7577132"><ele>192.0</ele><time>2026-04-05T11:23:13.798Z</time></trkpt><trkpt lat="41.4036532" lon="1.7577711"><ele>193.0</ele><time>2026-04-05T11:23:14.797Z</time></trkpt><trkpt lat="41.4038289" lon="1.757822"><ele>193.66666666666666</ele><time>2026-04-05T11:23:15.798Z</time></trkpt><trkpt lat="41.4040072" lon="1.7578732"><ele>194.33333333333331</ele><time>2026-04-05T11:23:16.797Z</time></trkpt><trkpt lat="41.4041868" lon="1.7579256"><ele>195.0</ele><time>2026-04-05T11:23:17.797Z</time></trkpt><trkpt lat="41.4043638" lon="1.7579702"><ele>195.0</ele><time>2026-04-05T11:23:18.797Z</time></trkpt><trkpt lat="41.4045396" lon="1.758013"><ele>195.0</ele><time>2026-04-05T11:23:19.797Z</time></trkpt><trkpt lat="41.4047095" lon="1.7580513"><ele>195.0</ele><time>2026-04-05T11:23:20.797Z</time></trkpt><trkpt lat="41.4048837" lon="1.7580835"><ele>195.66666666666669</ele><time>2026-04-05T11:23:21.797Z</time></trkpt><trkpt lat="41.4050591" lon="1.7581146"><ele>196.33333333333334</ele><time>2026-04-05T11:23:22.798Z</time></trkpt><trkpt lat="41.4052389" lon="1.7581452"><ele>197.0</ele><time>2026-04-05T11:23:23.797Z</time></trkpt><trkpt lat="41.4054183" lon="1.7581726"><ele>196.66666666666669</ele><time>2026-04-05T11:23:24.798Z</time></trkpt><trkpt lat="41.4055951" lon="1.7581969"><ele>196.33333333333331</ele><time>2026-04-05T11:23:25.797Z</time></trkpt><trkpt lat="41.4057705" lon="1.758216"><ele>196.0</ele><time>2026-04-05T11:23:26.798Z</time></trkpt><trkpt lat="41.4059469" lon="1.758235"><ele>196.0</ele><time>2026-04-05T11:23:27.798Z</time></trkpt><trkpt lat="41.4061197" lon="1.7582502"><ele>196.0</ele><time>2026-04-05T11:23:28.798Z</time></trkpt><trkpt lat="41.406291" lon="1.7582613"><ele>196.0</ele><time>2026-04-05T11:23:29.797Z</time></trkpt><trkpt lat="41.4064597" lon="1.7582573"><ele>196.66666666666666</ele><time>2026-04-05T11:23:30.797Z</time></trkpt><trkpt lat="41.4066281" lon="1.7582429"><ele>197.33333333333331</ele><time>2026-04-05T11:23:31.797Z</time></trkpt><trkpt lat="41.4067964" lon="1.7582204"><ele>198.0</ele><time>2026-04-05T11:23:32.797Z</time></trkpt><trkpt lat="41.4069588" lon="1.7581967"><ele>198.0</ele><time>2026-04-05T11:23:33.798Z</time></trkpt><trkpt lat="41.4071154" lon="1.7581677"><ele>198.0</ele><time>2026-04-05T11:23:34.798Z</time></trkpt><trkpt lat="41.4072651" lon="1.7581375"><ele>198.0</ele><time>2026-04-05T11:23:35.797Z</time></trkpt><trkpt lat="41.4074121" lon="1.7581056"><ele>197.0</ele><time>2026-04-05T11:23:36.798Z</time></trkpt><trkpt lat="41.4075629" lon="1.7580659"><ele>196.0</ele><time>2026-04-05T11:23:37.798Z</time></trkpt><trkpt lat="41.4077239" lon="1.7580148"><ele>195.0</ele><time>2026-04-05T11:23:38.797Z</time></trkpt><trkpt lat="41.4078866" lon="1.7579596"><ele>194.0</ele><time>2026-04-05T11:23:39.797Z</time></trkpt><trkpt lat="41.408048" lon="1.7579011"><ele>193.0</ele><time>2026-04-05T11:23:40.798Z</time></trkpt><trkpt lat="41.4082047" lon="1.7578507"><ele>192.0</ele><time>2026-04-05T11:23:41.797Z</time></trkpt><trkpt lat="41.4083593" lon="1.7578138"><ele>192.0</ele><time>2026-04-05T11:23:42.798Z</time></trkpt><trkpt lat="41.4085216" lon="1.757811"><ele>192.0</ele><time>2026-04-05T11:23:43.798Z</time></trkpt><trkpt lat="41.4086899" lon="1.7578334"><ele>192.0</ele><time>2026-04-05T11:23:44.797Z</time></trkpt><trkpt lat="41.4088554" lon="1.7578865"><ele>190.0</ele><time>2026-04-05T11:23:45.797Z</time></trkpt><trkpt lat="41.4090109" lon="1.7579724"><ele>188.0</ele><time>2026-04-05T11:23:46.798Z</time></trkpt><trkpt lat="41.4091577" lon="1.7580914"><ele>186.0</ele><time>2026-04-05T11:23:47.798Z</time></trkpt><trkpt lat="41.4092992" lon="1.7582424"><ele>186.0</ele><time>2026-04-05T11:23:48.798Z</time></trkpt><trkpt lat="41.4094351" lon="1.7584127"><ele>186.0</ele><time>2026-04-05T11:23:49.797Z</time></trkpt><trkpt lat="41.4095689" lon="1.7585851"><ele>186.0</ele><time>2026-04-05T11:23:50.797Z</time></trkpt><trkpt lat="41.4097021" lon="1.7587504"><ele>186.33333333333334</ele><time>2026-04-05T11:23:51.797Z</time></trkpt><trkpt lat="41.409836" lon="1.7589137"><ele>186.66666666666669</ele><time>2026-04-05T11:23:52.798Z</time></trkpt><trkpt lat="41.4099686" lon="1.7590801"><ele>187.0</ele><time>2026-04-05T11:23:53.797Z</time></trkpt><trkpt lat="41.4101073" lon="1.7592483"><ele>188.33333333333334</ele><time>2026-04-05T11:23:54.797Z</time></trkpt><trkpt lat="41.4102678" lon="1.7594219"><ele>189.66666666666666</ele><time>2026-04-05T11:23:55.798Z</time></trkpt><trkpt lat="41.4104354" lon="1.7596087"><ele>191.0</ele><time>2026-04-05T11:23:56.798Z</time></trkpt><trkpt lat="41.4106005" lon="1.7598129"><ele>192.5</ele><time>2026-04-05T11:23:57.797Z</time></trkpt><trkpt lat="41.4107717" lon="1.7600367"><ele>194.0</ele><time>2026-04-05T11:23:58.798Z</time></trkpt><trkpt lat="41.4109399" lon="1.7602815"><ele>197.0</ele><time>2026-04-05T11:23:59.798Z</time></trkpt><trkpt lat="41.411106" lon="1.7605266"><ele>200.0</ele><time>2026-04-05T11:24:00.797Z</time></trkpt><trkpt lat="41.4112638" lon="1.7607538"><ele>200.66666666666669</ele><time>2026-04-05T11:24:01.797Z</time></trkpt><trkpt lat="41.4114247" lon="1.7609544"><ele>201.33333333333331</ele><time>2026-04-05T11:24:02.798Z</time></trkpt><trkpt lat="41.4116022" lon="1.7611342"><ele>202.0</ele><time>2026-04-05T11:24:03.797Z</time></trkpt><trkpt lat="41.4117966" lon="1.761301"><ele>203.66666666666666</ele><time>2026-04-05T11:24:04.798Z</time></trkpt><trkpt lat="41.4119951" lon="1.7614401"><ele>205.33333333333331</ele><time>2026-04-05T11:24:05.798Z</time></trkpt><trkpt lat="41.4121931" lon="1.7615665"><ele>207.0</ele><time>2026-04-05T11:24:06.797Z</time></trkpt><trkpt lat="41.4123769" lon="1.7616984"><ele>207.0</ele><time>2026-04-05T11:24:07.797Z</time></trkpt><trkpt lat="41.4125452" lon="1.7618382"><ele>207.0</ele><time>2026-04-05T11:24:08.797Z</time></trkpt><trkpt lat="41.4126943" lon="1.7619871"><ele>207.0</ele><time>2026-04-05T11:24:09.797Z</time></trkpt><trkpt lat="41.4128468" lon="1.7621551"><ele>205.5</ele><time>2026-04-05T11:24:10.797Z</time></trkpt><trkpt lat="41.4130165" lon="1.7623389"><ele>204.0</ele><time>2026-04-05T11:24:11.797Z</time></trkpt><trkpt lat="41.4132002" lon="1.7625444"><ele>202.5</ele><time>2026-04-05T11:24:12.797Z</time></trkpt><trkpt lat="41.413384" lon="1.7627635"><ele>201.0</ele><time>2026-04-05T11:24:13.798Z</time></trkpt><trkpt lat="41.4135661" lon="1.7629763"><ele>201.0</ele><time>2026-04-05T11:24:14.797Z</time></trkpt><trkpt lat="41.4137497" lon="1.7631869"><ele>201.0</ele><time>2026-04-05T11:24:15.797Z</time></trkpt><trkpt lat="41.4139386" lon="1.7634044"><ele>200.0</ele><time>2026-04-05T11:24:16.798Z</time></trkpt><trkpt lat="41.4141272" lon="1.7636168"><ele>199.0</ele><time>2026-04-05T11:24:17.798Z</time></trkpt><trkpt lat="41.414317" lon="1.763819"><ele>199.0</ele><time>2026-04-05T11:24:18.797Z</time></trkpt><trkpt lat="41.4145049" lon="1.7640112"><ele>199.0</ele><time>2026-04-05T11:24:19.797Z</time></trkpt><trkpt lat="41.4147051" lon="1.7641973"><ele>199.0</ele><time>2026-04-05T11:24:20.798Z</time></trkpt><trkpt lat="41.4149136" lon="1.7643715"><ele>199.0</ele><time>2026-04-05T11:24:21.797Z</time></trkpt><trkpt lat="41.4151224" lon="1.7645341"><ele>199.0</ele><time>2026-04-05T11:24:22.798Z</time></trkpt><trkpt lat="41.4153375" lon="1.7646855"><ele>199.0</ele><time>2026-04-05T11:24:23.797Z</time></trkpt><trkpt lat="41.4155558" lon="1.7648263"><ele>201.0</ele><time>2026-04-05T11:24:24.798Z</time></trkpt><trkpt lat="41.4157749" lon="1.7649523"><ele>203.0</ele><time>2026-04-05T11:24:25.797Z</time></trkpt><trkpt lat="41.4160068" lon="1.7650672"><ele>203.0</ele><time>2026-04-05T11:24:26.798Z</time></trkpt><trkpt lat="41.4162413" lon="1.7651735"><ele>203.0</ele><time>2026-04-05T11:24:27.798Z</time></trkpt><trkpt lat="41.4164806" lon="1.7652674"><ele>203.5</ele><time>2026-04-05T11:24:28.797Z</time></trkpt><trkpt lat="41.416726" lon="1.7653516"><ele>204.0</ele><time>2026-04-05T11:24:29.798Z</time></trkpt><trkpt lat="41.4169689" lon="1.7654174"><ele>201.0</ele><time>2026-04-05T11:24:30.797Z</time></trkpt><trkpt lat="41.4172088" lon="1.7654636"><ele>198.0</ele><time>2026-04-05T11:24:31.798Z</time></trkpt><trkpt lat="41.417438" lon="1.7655044"><ele>198.0</ele><time>2026-04-05T11:24:32.798Z</time></trkpt><trkpt lat="41.41766" lon="1.7655456"><ele>198.0</ele><time>2026-04-05T11:24:33.798Z</time></trkpt><trkpt lat="41.4178755" lon="1.7655832"><ele>198.0</ele><time>2026-04-05T11:24:34.798Z</time></trkpt><trkpt lat="41.4180739" lon="1.7656247"><ele>198.0</ele><time>2026-04-05T11:24:35.798Z</time></trkpt><trkpt lat="41.4182592" lon="1.7656784"><ele>198.0</ele><time>2026-04-05T11:24:36.797Z</time></trkpt><trkpt lat="41.418432" lon="1.7657503"><ele>198.0</ele><time>2026-04-05T11:24:37.797Z</time></trkpt><trkpt lat="41.4185909" lon="1.7658531"><ele>198.0</ele><time>2026-04-05T11:24:38.797Z</time></trkpt><trkpt lat="41.4187356" lon="1.7659762"><ele>198.0</ele><time>2026-04-05T11:24:39.798Z</time></trkpt><trkpt lat="41.418863" lon="1.7661332"><ele>198.0</ele><time>2026-04-05T11:24:40.798Z</time></trkpt><trkpt lat="41.4189737" lon="1.7663181"><ele>197.33333333333331</ele><time>2026-04-05T11:24:41.798Z</time></trkpt><trkpt lat="41.4190694" lon="1.7665387"><ele>196.66666666666666</ele><time>2026-04-05T11:24:42.798Z</time></trkpt><trkpt lat="41.419135" lon="1.7667889"><ele>196.0</ele><time>2026-04-05T11:24:43.798Z</time></trkpt><trkpt lat="41.4191677" lon="1.7670508"><ele>194.0</ele><time>2026-04-05T11:24:44.797Z</time></trkpt><trkpt lat="41.4191654" lon="1.7673197"><ele>192.0</ele><time>2026-04-05T11:24:45.798Z</time></trkpt><trkpt lat="41.4191259" lon="1.767607"><ele>190.0</ele><time>2026-04-05T11:24:46.797Z</time></trkpt><trkpt lat="41.4190652" lon="1.7678923"><ele>189.0</ele><time>2026-04-05T11:24:47.797Z</time></trkpt><trkpt lat="41.4190015" lon="1.7681768"><ele>188.0</ele><time>2026-04-05T11:24:48.798Z</time></trkpt><trkpt lat="41.4189486" lon="1.768472"><ele>187.0</ele><time>2026-04-05T11:24:49.798Z</time></trkpt><trkpt lat="41.4189126" lon="1.7687772"><ele>186.0</ele><time>2026-04-05T11:24:50.797Z</time></trkpt><trkpt lat="41.4188821" lon="1.7690889"><ele>183.5</ele><time>2026-04-05T11:24:51.798Z</time></trkpt><trkpt lat="41.4188771" lon="1.7693975"><ele>181.0</ele><time>2026-04-05T11:24:52.797Z</time></trkpt><trkpt lat="41.4188787" lon="1.7697075"><ele>181.0</ele><time>2026-04-05T11:24:53.798Z</time></trkpt><trkpt lat="41.4188932" lon="1.7700067"><ele>181.0</ele><time>2026-04-05T11:24:54.798Z</time></trkpt><trkpt lat="41.4189237" lon="1.7702961"><ele>181.0</ele><time>2026-04-05T11:24:55.798Z</time></trkpt><trkpt lat="41.4189685" lon="1.7705649"><ele>180.33333333333334</ele><time>2026-04-05T11:24:56.797Z</time></trkpt><trkpt lat="41.4190404" lon="1.770818"><ele>179.66666666666666</ele><time>2026-04-05T11:24:57.797Z</time></trkpt><trkpt lat="41.4191427" lon="1.7710445"><ele>179.0</ele><time>2026-04-05T11:24:58.797Z</time></trkpt><trkpt lat="41.4192691" lon="1.7712457"><ele>177.66666666666666</ele><time>2026-04-05T11:24:59.797Z</time></trkpt><trkpt lat="41.419408" lon="1.7714192"><ele>176.33333333333334</ele><time>2026-04-05T11:25:00.797Z</time></trkpt><trkpt lat="41.4195536" lon="1.7715696"><ele>175.0</ele><time>2026-04-05T11:25:01.798Z</time></trkpt><trkpt lat="41.4197032" lon="1.7717035"><ele>175.0</ele><time>2026-04-05T11:25:02.798Z</time></trkpt><trkpt lat="41.4198413" lon="1.7718328"><ele>175.0</ele><time>2026-04-05T11:25:03.798Z</time></trkpt><trkpt lat="41.4199488" lon="1.7719663"><ele>175.0</ele><time>2026-04-05T11:25:04.798Z</time></trkpt><trkpt lat="41.4200281" lon="1.7721023"><ele>175.0</ele><time>2026-04-05T11:25:05.798Z</time></trkpt><trkpt lat="41.4200788" lon="1.7722361"><ele>174.2</ele><time>2026-04-05T11:25:06.798Z</time></trkpt><trkpt lat="41.4200997" lon="1.7723698"><ele>173.4</ele><time>2026-04-05T11:25:07.797Z</time></trkpt><trkpt lat="41.4200941" lon="1.7725013"><ele>172.60000000000002</ele><time>2026-04-05T11:25:08.798Z</time></trkpt><trkpt lat="41.4200755" lon="1.7726281"><ele>171.8</ele><time>2026-04-05T11:25:09.797Z</time></trkpt><trkpt lat="41.4200704" lon="1.7727488"><ele>171.0</ele><time>2026-04-05T11:25:10.797Z</time></trkpt><trkpt lat="41.4201001" lon="1.7728649"><ele>171.0</ele><time>2026-04-05T11:25:11.798Z</time></trkpt><trkpt lat="41.4201622" lon="1.7729548"><ele>171.0</ele><time>2026-04-05T11:25:12.798Z</time></trkpt><trkpt lat="41.4202453" lon="1.7730053"><ele>171.0</ele><time>2026-04-05T11:25:13.797Z</time></trkpt><trkpt lat="41.4203367" lon="1.7730136"><ele>171.0</ele><time>2026-04-05T11:25:14.797Z</time></trkpt><trkpt lat="41.4204369" lon="1.7729747"><ele>171.0</ele><time>2026-04-05T11:25:15.798Z</time></trkpt><trkpt lat="41.42054" lon="1.7728987"><ele>173.0</ele><time>2026-04-05T11:25:16.798Z</time></trkpt><trkpt lat="41.4206584" lon="1.7728196"><ele>175.0</ele><time>2026-04-05T11:25:17.798Z</time></trkpt><trkpt lat="41.420786" lon="1.7727535"><ele>177.0</ele><time>2026-04-05T11:25:18.798Z</time></trkpt><trkpt lat="41.4209141" lon="1.7726951"><ele>179.0</ele><time>2026-04-05T11:25:19.797Z</time></trkpt><trkpt lat="41.4210578" lon="1.7726351"><ele>179.0</ele><time>2026-04-05T11:25:20.798Z</time></trkpt><trkpt lat="41.4212137" lon="1.7725781"><ele>179.0</ele><time>2026-04-05T11:25:21.797Z</time></trkpt><trkpt lat="41.4213747" lon="1.7725246"><ele>179.0</ele><time>2026-04-05T11:25:22.797Z</time></trkpt><trkpt lat="41.4215334" lon="1.77247"><ele>181.0</ele><time>2026-04-05T11:25:23.797Z</time></trkpt><trkpt lat="41.4216949" lon="1.7724233"><ele>183.0</ele><time>2026-04-05T11:25:24.798Z</time></trkpt><trkpt lat="41.4218789" lon="1.7723746"><ele>185.0</ele><time>2026-04-05T11:25:25.797Z</time></trkpt><trkpt lat="41.422085" lon="1.7723272"><ele>186.33333333333331</ele><time>2026-04-05T11:25:26.798Z</time></trkpt><trkpt lat="41.4223052" lon="1.7722844"><ele>187.66666666666666</ele><time>2026-04-05T11:25:27.797Z</time></trkpt><trkpt lat="41.4225298" lon="1.7722523"><ele>189.0</ele><time>2026-04-05T11:25:28.797Z</time></trkpt><trkpt lat="41.4227689" lon="1.7722289"><ele>193.0</ele><time>2026-04-05T11:25:29.798Z</time></trkpt><trkpt lat="41.4230209" lon="1.7722218"><ele>197.0</ele><time>2026-04-05T11:25:30.797Z</time></trkpt><trkpt lat="41.4232853" lon="1.7722297"><ele>197.0</ele><time>2026-04-05T11:25:31.797Z</time></trkpt><trkpt lat="41.4235592" lon="1.7722567"><ele>197.0</ele><time>2026-04-05T11:25:32.797Z</time></trkpt><trkpt lat="41.4238247" lon="1.7722939"><ele>198.0</ele><time>2026-04-05T11:25:33.797Z</time></trkpt><trkpt lat="41.4240982" lon="1.7723489"><ele>199.0</ele><time>2026-04-05T11:25:34.797Z</time></trkpt><trkpt lat="41.4243815" lon="1.7724179"><ele>196.5</ele><time>2026-04-05T11:25:35.797Z</time></trkpt><trkpt lat="41.4246694" lon="1.7725015"><ele>194.0</ele><time>2026-04-05T11:25:36.798Z</time></trkpt><trkpt lat="41.4249633" lon="1.7726047"><ele>193.0</ele><time>2026-04-05T11:25:37.798Z</time></trkpt><trkpt lat="41.4252538" lon="1.77273"><ele>192.0</ele><time>2026-04-05T11:25:38.798Z</time></trkpt><trkpt lat="41.4255336" lon="1.772872"><ele>192.0</ele><time>2026-04-05T11:25:39.798Z</time></trkpt><trkpt lat="41.425806" lon="1.773023"><ele>192.0</ele><time>2026-04-05T11:25:40.798Z</time></trkpt><trkpt lat="41.4260584" lon="1.7731853"><ele>192.0</ele><time>2026-04-05T11:25:41.797Z</time></trkpt><trkpt lat="41.4262978" lon="1.7733567"><ele>192.0</ele><time>2026-04-05T11:25:42.798Z</time></trkpt><trkpt lat="41.4265348" lon="1.7735295"><ele>193.0</ele><time>2026-04-05T11:25:43.797Z</time></trkpt><trkpt lat="41.4267754" lon="1.7737139"><ele>194.0</ele><time>2026-04-05T11:25:44.798Z</time></trkpt><trkpt lat="41.4270154" lon="1.7739112"><ele>196.5</ele><time>2026-04-05T11:25:45.798Z</time></trkpt><trkpt lat="41.4272636" lon="1.7741134"><ele>199.0</ele><time>2026-04-05T11:25:46.797Z</time></trkpt><trkpt lat="41.4275198" lon="1.7743166"><ele>197.0</ele><time>2026-04-05T11:25:47.797Z</time></trkpt><trkpt lat="41.4277773" lon="1.774525"><ele>195.0</ele><time>2026-04-05T11:25:48.797Z</time></trkpt><trkpt lat="41.4280341" lon="1.77473"><ele>195.0</ele><time>2026-04-05T11:25:49.797Z</time></trkpt><trkpt lat="41.4282765" lon="1.7749263"><ele>195.0</ele><time>2026-04-05T11:25:50.798Z</time></trkpt><trkpt lat="41.4285099" lon="1.7751146"><ele>195.5</ele><time>2026-04-05T11:25:51.798Z</time></trkpt><trkpt lat="41.4287404" lon="1.775304"><ele>196.0</ele><time>2026-04-05T11:25:52.798Z</time></trkpt><trkpt lat="41.4289604" lon="1.7754831"><ele>196.0</ele><time>2026-04-05T11:25:53.798Z</time></trkpt><trkpt lat="41.4291758" lon="1.7756536"><ele>196.0</ele><time>2026-04-05T11:25:54.797Z</time></trkpt><trkpt lat="41.4293956" lon="1.7758355"><ele>196.0</ele><time>2026-04-05T11:25:55.798Z</time></trkpt><trkpt lat="41.4296054" lon="1.7760116"><ele>196.0</ele><time>2026-04-05T11:25:56.797Z</time></trkpt><trkpt lat="41.4297983" lon="1.7761719"><ele>198.66666666666666</ele><time>2026-04-05T11:25:57.798Z</time></trkpt><trkpt lat="41.4299837" lon="1.7763238"><ele>201.33333333333331</ele><time>2026-04-05T11:25:58.798Z</time></trkpt><trkpt lat="41.4301633" lon="1.7764698"><ele>204.0</ele><time>2026-04-05T11:25:59.798Z</time></trkpt><trkpt lat="41.4303402" lon="1.7766121"><ele>203.33333333333331</ele><time>2026-04-05T11:26:00.798Z</time></trkpt><trkpt lat="41.4305199" lon="1.7767559"><ele>202.66666666666666</ele><time>2026-04-05T11:26:01.798Z</time></trkpt><trkpt lat="41.4306966" lon="1.7768926"><ele>202.0</ele><time>2026-04-05T11:26:02.798Z</time></trkpt><trkpt lat="41.4308726" lon="1.7770203"><ele>202.0</ele><time>2026-04-05T11:26:03.797Z</time></trkpt><trkpt lat="41.431048" lon="1.777138"><ele>202.0</ele><time>2026-04-05T11:26:04.797Z</time></trkpt><trkpt lat="41.4312237" lon="1.7772425"><ele>202.0</ele><time>2026-04-05T11:26:05.798Z</time></trkpt><trkpt lat="41.4313939" lon="1.7773295"><ele>201.25</ele><time>2026-04-05T11:26:06.797Z</time></trkpt><trkpt lat="41.4315541" lon="1.7773971"><ele>200.5</ele><time>2026-04-05T11:26:07.798Z</time></trkpt><trkpt lat="41.4316921" lon="1.7774536"><ele>199.75</ele><time>2026-04-05T11:26:08.798Z</time></trkpt><trkpt lat="41.4318144" lon="1.7775012"><ele>199.0</ele><time>2026-04-05T11:26:09.798Z</time></trkpt><trkpt lat="41.431924" lon="1.7775426"><ele>198.99999999999997</ele><time>2026-04-05T11:26:10.797Z</time></trkpt><trkpt lat="41.4320123" lon="1.7775932"><ele>199.0</ele><time>2026-04-05T11:26:11.798Z</time></trkpt><trkpt lat="41.4320796" lon="1.7776604"><ele>199.0</ele><time>2026-04-05T11:26:12.798Z</time></trkpt><trkpt lat="41.4321186" lon="1.7777461"><ele>199.0</ele><time>2026-04-05T11:26:13.798Z</time></trkpt><trkpt lat="41.432135" lon="1.7778525"><ele>198.99999999999997</ele><time>2026-04-05T11:26:14.797Z</time></trkpt><trkpt lat="41.4321573" lon="1.777973"><ele>199.0</ele><time>2026-04-05T11:26:15.797Z</time></trkpt><trkpt lat="41.4321983" lon="1.7780751"><ele>198.0</ele><time>2026-04-05T11:26:16.797Z</time></trkpt><trkpt lat="41.4322629" lon="1.7781403"><ele>197.0</ele><time>2026-04-05T11:26:17.797Z</time></trkpt><trkpt lat="41.432346" lon="1.7781779"><ele>196.0</ele><time>2026-04-05T11:26:18.797Z</time></trkpt><trkpt lat="41.4324467" lon="1.7781846"><ele>195.0</ele><time>2026-04-05T11:26:19.798Z</time></trkpt><trkpt lat="41.4325547" lon="1.7781756"><ele>194.0</ele><time>2026-04-05T11:26:20.797Z</time></trkpt><trkpt lat="41.4326651" lon="1.7781884"><ele>194.0</ele><time>2026-04-05T11:26:21.798Z</time></trkpt><trkpt lat="41.4327573" lon="1.7782438"><ele>194.0</ele><time>2026-04-05T11:26:22.798Z</time></trkpt><trkpt lat="41.4328232" lon="1.7783406"><ele>194.0</ele><time>2026-04-05T11:26:23.797Z</time></trkpt><trkpt lat="41.4328777" lon="1.7784729"><ele>194.0</ele><time>2026-04-05T11:26:24.797Z</time></trkpt><trkpt lat="41.432944" lon="1.7786192"><ele>194.0</ele><time>2026-04-05T11:26:25.798Z</time></trkpt><trkpt lat="41.4330381" lon="1.7787591"><ele>193.66666666666669</ele><time>2026-04-05T11:26:26.798Z</time></trkpt><trkpt lat="41.4331452" lon="1.7788854"><ele>193.33333333333331</ele><time>2026-04-05T11:26:27.797Z</time></trkpt><trkpt lat="41.4332512" lon="1.7790341"><ele>193.0</ele><time>2026-04-05T11:26:28.798Z</time></trkpt><trkpt lat="41.4333566" lon="1.7792158"><ele>193.0</ele><time>2026-04-05T11:26:29.797Z</time></trkpt><trkpt lat="41.4334631" lon="1.7794045"><ele>193.0</ele><time>2026-04-05T11:26:30.797Z</time></trkpt><trkpt lat="41.433571" lon="1.7795973"><ele>193.0</ele><time>2026-04-05T11:26:31.797Z</time></trkpt><trkpt lat="41.4336786" lon="1.7797964"><ele>193.0</ele><time>2026-04-05T11:26:32.797Z</time></trkpt><trkpt lat="41.4337795" lon="1.7799898"><ele>193.0</ele><time>2026-04-05T11:26:33.798Z</time></trkpt><trkpt lat="41.4338782" lon="1.780179"><ele>193.0</ele><time>2026-04-05T11:26:34.797Z</time></trkpt><trkpt lat="41.4339784" lon="1.7803634"><ele>193.66666666666666</ele><time>2026-04-05T11:26:35.798Z</time></trkpt><trkpt lat="41.434083" lon="1.7805408"><ele>194.33333333333331</ele><time>2026-04-05T11:26:36.797Z</time></trkpt><trkpt lat="41.4341835" lon="1.7807121"><ele>195.0</ele><time>2026-04-05T11:26:37.797Z</time></trkpt><trkpt lat="41.4342778" lon="1.7808727"><ele>195.0</ele><time>2026-04-05T11:26:38.798Z</time></trkpt><trkpt lat="41.4343833" lon="1.7810124"><ele>195.0</ele><time>2026-04-05T11:26:39.797Z</time></trkpt><trkpt lat="41.4345148" lon="1.7811396"><ele>195.0</ele><time>2026-04-05T11:26:40.798Z</time></trkpt><trkpt lat="41.4346586" lon="1.7812464"><ele>193.66666666666666</ele><time>2026-04-05T11:26:41.798Z</time></trkpt><trkpt lat="41.4348007" lon="1.7813336"><ele>192.33333333333331</ele><time>2026-04-05T11:26:42.797Z</time></trkpt><trkpt lat="41.4349382" lon="1.7814308"><ele>191.0</ele><time>2026-04-05T11:26:43.798Z</time></trkpt><trkpt lat="41.4350615" lon="1.7815457"><ele>191.0</ele><time>2026-04-05T11:26:44.798Z</time></trkpt><trkpt lat="41.4351702" lon="1.7816788"><ele>191.0</ele><time>2026-04-05T11:26:45.798Z</time></trkpt><trkpt lat="41.4352699" lon="1.7818354"><ele>191.0</ele><time>2026-04-05T11:26:46.798Z</time></trkpt><trkpt lat="41.4353692" lon="1.7820183"><ele>192.66666666666666</ele><time>2026-04-05T11:26:47.797Z</time></trkpt><trkpt lat="41.4354684" lon="1.7822113"><ele>194.33333333333331</ele><time>2026-04-05T11:26:48.797Z</time></trkpt><trkpt lat="41.435566" lon="1.782399"><ele>196.0</ele><time>2026-04-05T11:26:49.798Z</time></trkpt><trkpt lat="41.435656" lon="1.7825777"><ele>193.5</ele><time>2026-04-05T11:26:50.797Z</time></trkpt><trkpt lat="41.4357365" lon="1.7827367"><ele>191.0</ele><time>2026-04-05T11:26:51.797Z</time></trkpt><trkpt lat="41.4358181" lon="1.7828683"><ele>188.5</ele><time>2026-04-05T11:26:52.797Z</time></trkpt><trkpt lat="41.4359195" lon="1.7829723"><ele>186.0</ele><time>2026-04-05T11:26:53.797Z</time></trkpt><trkpt lat="41.4360367" lon="1.7830397"><ele>186.0</ele><time>2026-04-05T11:26:54.798Z</time></trkpt><trkpt lat="41.4361778" lon="1.7830738"><ele>186.0</ele><time>2026-04-05T11:26:55.797Z</time></trkpt><trkpt lat="41.4363387" lon="1.7830872"><ele>186.0</ele><time>2026-04-05T11:26:56.798Z</time></trkpt><trkpt lat="41.4364997" lon="1.7830908"><ele>183.33333333333334</ele><time>2026-04-05T11:26:57.798Z</time></trkpt><trkpt lat="41.4366639" lon="1.7830924"><ele>180.66666666666669</ele><time>2026-04-05T11:26:58.797Z</time></trkpt><trkpt lat="41.4368399" lon="1.7830933"><ele>178.0</ele><time>2026-04-05T11:26:59.797Z</time></trkpt><trkpt lat="41.4370179" lon="1.7830824"><ele>176.0</ele><time>2026-04-05T11:27:00.797Z</time></trkpt><trkpt lat="41.4371933" lon="1.7830625"><ele>174.0</ele><time>2026-04-05T11:27:01.798Z</time></trkpt><trkpt lat="41.4373605" lon="1.7830351"><ele>172.0</ele><time>2026-04-05T11:27:02.798Z</time></trkpt><trkpt lat="41.4375274" lon="1.7830064"><ele>172.0</ele><time>2026-04-05T11:27:03.798Z</time></trkpt><trkpt lat="41.4376872" lon="1.7829817"><ele>172.0</ele><time>2026-04-05T11:27:04.797Z</time></trkpt><trkpt lat="41.4378446" lon="1.7829571"><ele>172.0</ele><time>2026-04-05T11:27:05.798Z</time></trkpt><trkpt lat="41.4379966" lon="1.7829336"><ele>170.75</ele><time>2026-04-05T11:27:06.797Z</time></trkpt><trkpt lat="41.4381451" lon="1.78291"><ele>169.5</ele><time>2026-04-05T11:27:07.798Z</time></trkpt><trkpt lat="41.4382883" lon="1.7828882"><ele>168.25</ele><time>2026-04-05T11:27:08.797Z</time></trkpt><trkpt lat="41.438428" lon="1.7828695"><ele>167.0</ele><time>2026-04-05T11:27:09.797Z</time></trkpt><trkpt lat="41.4385627" lon="1.7828558"><ele>167.0</ele><time>2026-04-05T11:27:10.795Z</time></trkpt><trkpt lat="41.4386927" lon="1.7828488"><ele>167.0</ele><time>2026-04-05T11:27:11.798Z</time></trkpt><trkpt lat="41.4388218" lon="1.7828544"><ele>167.0</ele><time>2026-04-05T11:27:12.798Z</time></trkpt><trkpt lat="41.4389431" lon="1.7828682"><ele>167.0</ele><time>2026-04-05T11:27:13.798Z</time></trkpt><trkpt lat="41.439065" lon="1.782894"><ele>167.25</ele><time>2026-04-05T11:27:14.797Z</time></trkpt><trkpt lat="41.4391922" lon="1.7829264"><ele>167.5</ele><time>2026-04-05T11:27:15.797Z</time></trkpt><trkpt lat="41.4393199" lon="1.7829752"><ele>167.75</ele><time>2026-04-05T11:27:16.798Z</time></trkpt><trkpt lat="41.4394501" lon="1.7830314"><ele>168.0</ele><time>2026-04-05T11:27:17.797Z</time></trkpt><trkpt lat="41.4395725" lon="1.7831011"><ele>166.0</ele><time>2026-04-05T11:27:18.798Z</time></trkpt><trkpt lat="41.4396861" lon="1.7831804"><ele>164.0</ele><time>2026-04-05T11:27:19.797Z</time></trkpt><trkpt lat="41.4398013" lon="1.7832613"><ele>162.0</ele><time>2026-04-05T11:27:20.797Z</time></trkpt><trkpt lat="41.4399161" lon="1.7833421"><ele>160.0</ele><time>2026-04-05T11:27:21.797Z</time></trkpt><trkpt lat="41.4400231" lon="1.7834249"><ele>160.0</ele><time>2026-04-05T11:27:22.798Z</time></trkpt><trkpt lat="41.44013" lon="1.783503"><ele>160.0</ele><time>2026-04-05T11:27:23.798Z</time></trkpt><trkpt lat="41.4402353" lon="1.7835781"><ele>160.0</ele><time>2026-04-05T11:27:24.797Z</time></trkpt><trkpt lat="41.4403411" lon="1.7836507"><ele>160.0</ele><time>2026-04-05T11:27:25.797Z</time></trkpt><trkpt lat="41.4404494" lon="1.7837297"><ele>158.25</ele><time>2026-04-05T11:27:26.797Z</time></trkpt><trkpt lat="41.4405597" lon="1.7838061"><ele>156.5</ele><time>2026-04-05T11:27:27.798Z</time></trkpt><trkpt lat="41.4406661" lon="1.7838872"><ele>154.75</ele><time>2026-04-05T11:27:28.798Z</time></trkpt><trkpt lat="41.4407672" lon="1.7839776"><ele>153.0</ele><time>2026-04-05T11:27:29.798Z</time></trkpt><trkpt lat="41.4408583" lon="1.7840943"><ele>153.0</ele><time>2026-04-05T11:27:30.798Z</time></trkpt><trkpt lat="41.4409299" lon="1.784241"><ele>153.0</ele><time>2026-04-05T11:27:31.797Z</time></trkpt><trkpt lat="41.4409836" lon="1.7844179"><ele>153.0</ele><time>2026-04-05T11:27:32.797Z</time></trkpt><trkpt lat="41.4410185" lon="1.7846094"><ele>153.0</ele><time>2026-04-05T11:27:33.797Z</time></trkpt><trkpt lat="41.441044" lon="1.7847995"><ele>153.0</ele><time>2026-04-05T11:27:34.798Z</time></trkpt><trkpt lat="41.4410712" lon="1.7849871"><ele>153.0</ele><time>2026-04-05T11:27:35.797Z</time></trkpt><trkpt lat="41.4411068" lon="1.7851707"><ele>153.0</ele><time>2026-04-05T11:27:36.798Z</time></trkpt><trkpt lat="41.4411538" lon="1.7853439"><ele>153.0</ele><time>2026-04-05T11:27:37.797Z</time></trkpt><trkpt lat="41.4412168" lon="1.7855063"><ele>153.0</ele><time>2026-04-05T11:27:38.798Z</time></trkpt><trkpt lat="41.4412912" lon="1.7856568"><ele>153.0</ele><time>2026-04-05T11:27:39.798Z</time></trkpt><trkpt lat="41.441367" lon="1.7857814"><ele>153.0</ele><time>2026-04-05T11:27:40.797Z</time></trkpt><trkpt lat="41.4414291" lon="1.7858774"><ele>153.0</ele><time>2026-04-05T11:27:41.797Z</time></trkpt><trkpt lat="41.4414767" lon="1.785948"><ele>153.0</ele><time>2026-04-05T11:27:42.797Z</time></trkpt><trkpt lat="41.4415369" lon="1.7860251"><ele>152.0</ele><time>2026-04-05T11:27:43.798Z</time></trkpt><trkpt lat="41.4416259" lon="1.7861317"><ele>151.0</ele><time>2026-04-05T11:27:44.797Z</time></trkpt><trkpt lat="41.441728" lon="1.7862675"><ele>150.0</ele><time>2026-04-05T11:27:45.798Z</time></trkpt><trkpt lat="41.4418303" lon="1.7864055"><ele>149.0</ele><time>2026-04-05T11:27:46.797Z</time></trkpt><trkpt lat="41.4419361" lon="1.7865455"><ele>149.0</ele><time>2026-04-05T11:27:47.798Z</time></trkpt><trkpt lat="41.4420419" lon="1.7866806"><ele>149.0</ele><time>2026-04-05T11:27:48.798Z</time></trkpt><trkpt lat="41.4421513" lon="1.7867977"><ele>149.0</ele><time>2026-04-05T11:27:49.798Z</time></trkpt><trkpt lat="41.4422667" lon="1.786884"><ele>149.0</ele><time>2026-04-05T11:27:50.797Z</time></trkpt><trkpt lat="41.4423965" lon="1.7869456"><ele>147.33333333333331</ele><time>2026-04-05T11:27:51.797Z</time></trkpt><trkpt lat="41.4425554" lon="1.7869948"><ele>145.66666666666666</ele><time>2026-04-05T11:27:52.797Z</time></trkpt><trkpt lat="41.4427379" lon="1.787025"><ele>144.0</ele><time>2026-04-05T11:27:53.797Z</time></trkpt><trkpt lat="41.4429439" lon="1.7870454"><ele>140.0</ele><time>2026-04-05T11:27:54.797Z</time></trkpt><trkpt lat="41.4431533" lon="1.7870655"><ele>136.0</ele><time>2026-04-05T11:27:55.798Z</time></trkpt><trkpt lat="41.4433745" lon="1.7870883"><ele>132.0</ele><time>2026-04-05T11:27:56.797Z</time></trkpt><trkpt lat="41.4435981" lon="1.7871095"><ele>131.66666666666666</ele><time>2026-04-05T11:27:57.798Z</time></trkpt><trkpt lat="41.4438081" lon="1.7871253"><ele>131.33333333333331</ele><time>2026-04-05T11:27:58.797Z</time></trkpt><trkpt lat="41.4439913" lon="1.7871417"><ele>131.0</ele><time>2026-04-05T11:27:59.798Z</time></trkpt><trkpt lat="41.4441524" lon="1.7871575"><ele>131.0</ele><time>2026-04-05T11:28:00.797Z</time></trkpt><trkpt lat="41.4442939" lon="1.7871675"><ele>131.0</ele><time>2026-04-05T11:28:01.798Z</time></trkpt><trkpt lat="41.4444273" lon="1.7871769"><ele>131.0</ele><time>2026-04-05T11:28:02.798Z</time></trkpt><trkpt lat="41.4445696" lon="1.7871865"><ele>131.0</ele><time>2026-04-05T11:28:03.798Z</time></trkpt><trkpt lat="41.444719" lon="1.7871988"><ele>132.0</ele><time>2026-04-05T11:28:04.797Z</time></trkpt><trkpt lat="41.444878" lon="1.7872169"><ele>133.0</ele><time>2026-04-05T11:28:05.797Z</time></trkpt><trkpt lat="41.445045" lon="1.7872358"><ele>134.0</ele><time>2026-04-05T11:28:06.797Z</time></trkpt><trkpt lat="41.445223" lon="1.7872618"><ele>134.0</ele><time>2026-04-05T11:28:07.798Z</time></trkpt><trkpt lat="41.4454085" lon="1.7872784"><ele>134.0</ele><time>2026-04-05T11:28:08.798Z</time></trkpt><trkpt lat="41.4455842" lon="1.7872969"><ele>134.0</ele><time>2026-04-05T11:28:09.797Z</time></trkpt><trkpt lat="41.445764" lon="1.7873151"><ele>133.66666666666666</ele><time>2026-04-05T11:28:10.797Z</time></trkpt><trkpt lat="41.4459417" lon="1.787334"><ele>133.33333333333334</ele><time>2026-04-05T11:28:11.797Z</time></trkpt><trkpt lat="41.4461206" lon="1.7873532"><ele>133.0</ele><time>2026-04-05T11:28:12.798Z</time></trkpt><trkpt lat="41.4463021" lon="1.7873731"><ele>133.0</ele><time>2026-04-05T11:28:13.797Z</time></trkpt><trkpt lat="41.4464838" lon="1.7873899"><ele>133.0</ele><time>2026-04-05T11:28:14.797Z</time></trkpt><trkpt lat="41.4466523" lon="1.7874104"><ele>133.0</ele><time>2026-04-05T11:28:15.798Z</time></trkpt><trkpt lat="41.4468194" lon="1.7874191"><ele>133.0</ele><time>2026-04-05T11:28:16.797Z</time></trkpt><trkpt lat="41.4469832" lon="1.7874148"><ele>133.0</ele><time>2026-04-05T11:28:17.798Z</time></trkpt><trkpt lat="41.4471329" lon="1.7873953"><ele>133.0</ele><time>2026-04-05T11:28:18.798Z</time></trkpt><trkpt lat="41.4472583" lon="1.7873704"><ele>133.0</ele><time>2026-04-05T11:28:19.797Z</time></trkpt><trkpt lat="41.4473614" lon="1.7873373"><ele>133.5</ele><time>2026-04-05T11:28:20.798Z</time></trkpt><trkpt lat="41.4474448" lon="1.7873005"><ele>134.0</ele><time>2026-04-05T11:28:21.797Z</time></trkpt><trkpt lat="41.4475078" lon="1.7872548"><ele>134.5</ele><time>2026-04-05T11:28:22.797Z</time></trkpt><trkpt lat="41.447559" lon="1.7871289"><ele>135.0</ele><time>2026-04-05T11:28:24.797Z</time></trkpt><trkpt lat="41.4475436" lon="1.787037"><ele>135.5</ele><time>2026-04-05T11:28:25.797Z</time></trkpt><trkpt lat="41.4475064" lon="1.78693"><ele>136.0</ele><time>2026-04-05T11:28:26.798Z</time></trkpt><trkpt lat="41.4474639" lon="1.7868229"><ele>136.33333333333334</ele><time>2026-04-05T11:28:27.797Z</time></trkpt><trkpt lat="41.4474234" lon="1.786726"><ele>136.66666666666669</ele><time>2026-04-05T11:28:28.798Z</time></trkpt><trkpt lat="41.4473916" lon="1.7866341"><ele>137.0</ele><time>2026-04-05T11:28:29.798Z</time></trkpt><trkpt lat="41.4473736" lon="1.7865489"><ele>137.33333333333334</ele><time>2026-04-05T11:28:30.797Z</time></trkpt><trkpt lat="41.4473962" lon="1.786405"><ele>137.66666666666666</ele><time>2026-04-05T11:28:32.798Z</time></trkpt><trkpt lat="41.4474261" lon="1.786324"><ele>138.0</ele><time>2026-04-05T11:28:33.797Z</time></trkpt><trkpt lat="41.4474628" lon="1.7862377"><ele>138.0</ele><time>2026-04-05T11:28:34.797Z</time></trkpt><trkpt lat="41.4474942" lon="1.7861509"><ele>138.0</ele><time>2026-04-05T11:28:35.798Z</time></trkpt><trkpt lat="41.4475218" lon="1.7860728"><ele>138.0</ele><time>2026-04-05T11:28:36.798Z</time></trkpt><trkpt lat="41.4475601" lon="1.7859411"><ele>138.0</ele><time>2026-04-05T11:28:38.797Z</time></trkpt><trkpt lat="41.4475758" lon="1.7858293"><ele>138.0</ele><time>2026-04-05T11:28:40.797Z</time></trkpt><trkpt lat="41.4475872" lon="1.7857186"><ele>138.0</ele><time>2026-04-05T11:28:42.798Z</time></trkpt><trkpt lat="41.4475811" lon="1.7856172"><ele>138.5</ele><time>2026-04-05T11:28:53.797Z</time></trkpt><trkpt lat="41.4475364" lon="1.7855545"><ele>139.0</ele><time>2026-04-05T11:28:55.797Z</time></trkpt><trkpt lat="41.4475488" lon="1.7856544"><ele>139.5</ele><time>2026-04-05T11:41:04.798Z</time></trkpt><trkpt lat="41.4475547" lon="1.7857461"><ele>140.0</ele><time>2026-04-05T11:41:08.797Z</time></trkpt><trkpt lat="41.4475185" lon="1.7858441"><ele>140.5</ele><time>2026-04-05T11:41:12.798Z</time></trkpt><trkpt lat="41.4474376" lon="1.7858347"><ele>141.0</ele><time>2026-04-05T11:41:14.797Z</time></trkpt><trkpt lat="41.4473593" lon="1.7857895"><ele>141.0</ele><time>2026-04-05T11:41:16.797Z</time></trkpt><trkpt lat="41.4472789" lon="1.7857436"><ele>141.0</ele><time>2026-04-05T11:41:18.797Z</time></trkpt><trkpt lat="41.4472015" lon="1.7857"><ele>141.0</ele><time>2026-04-05T11:41:20.798Z</time></trkpt><trkpt lat="41.447131" lon="1.7856412"><ele>141.0</ele><time>2026-04-05T11:41:22.798Z</time></trkpt><trkpt lat="41.4471019" lon="1.7855554"><ele>141.0</ele><time>2026-04-05T11:41:24.797Z</time></trkpt><trkpt lat="41.4471616" lon="1.7854755"><ele>141.0</ele><time>2026-04-05T11:41:27.798Z</time></trkpt><trkpt lat="41.4472987" lon="1.7855128"><ele>141.0</ele><time>2026-04-05T11:41:29.798Z</time></trkpt><trkpt lat="41.4473798" lon="1.785541"><ele>141.0</ele><time>2026-04-05T11:41:30.797Z</time></trkpt><trkpt lat="41.4474782" lon="1.7855762"><ele>141.0</ele><time>2026-04-05T11:41:31.798Z</time></trkpt><trkpt lat="41.4475461" lon="1.7856101"><ele>141.0</ele><time>2026-04-05T11:41:32.797Z</time></trkpt><trkpt lat="41.447587" lon="1.785705"><ele>141.0</ele><time>2026-04-05T11:41:34.798Z</time></trkpt><trkpt lat="41.4475745" lon="1.7857906"><ele>141.0</ele><time>2026-04-05T11:41:36.797Z</time></trkpt><trkpt lat="41.447512" lon="1.7858562"><ele>141.0</ele><time>2026-04-05T11:41:38.797Z</time></trkpt><trkpt lat="41.4474481" lon="1.7858563"><ele>141.0</ele><time>2026-04-05T11:41:39.798Z</time></trkpt><trkpt lat="41.4473651" lon="1.7858224"><ele>141.0</ele><time>2026-04-05T11:41:40.797Z</time></trkpt><trkpt lat="41.4472854" lon="1.7857715"><ele>141.0</ele><time>2026-04-05T11:41:41.798Z</time></trkpt><trkpt lat="41.4472144" lon="1.7857195"><ele>141.0</ele><time>2026-04-05T11:41:42.798Z</time></trkpt><trkpt lat="41.4471534" lon="1.785668"><ele>141.0</ele><time>2026-04-05T11:41:43.798Z</time></trkpt><trkpt lat="41.4471212" lon="1.7855448"><ele>141.0</ele><time>2026-04-05T11:41:45.798Z</time></trkpt><trkpt lat="41.4471737" lon="1.7854653"><ele>141.0</ele><time>2026-04-05T11:41:47.798Z</time></trkpt><trkpt lat="41.4472999" lon="1.7854952"><ele>141.0</ele><time>2026-04-05T11:41:49.798Z</time></trkpt><trkpt lat="41.4473749" lon="1.7855194"><ele>141.0</ele><time>2026-04-05T11:41:50.798Z</time></trkpt><trkpt lat="41.4474638" lon="1.7855443"><ele>141.0</ele><time>2026-04-05T11:41:51.797Z</time></trkpt><trkpt lat="41.447531" lon="1.7855658"><ele>141.0</ele><time>2026-04-05T11:41:52.798Z</time></trkpt><trkpt lat="41.4475867" lon="1.7856417"><ele>141.0</ele><time>2026-04-05T11:41:54.797Z</time></trkpt><trkpt lat="41.447583" lon="1.785728"><ele>141.0</ele><time>2026-04-05T11:50:20.798Z</time></trkpt><trkpt lat="41.447562" lon="1.7858524"><ele>141.0</ele><time>2026-04-05T11:50:22.797Z</time></trkpt><trkpt lat="41.4475414" lon="1.7859865"><ele>141.0</ele><time>2026-04-05T11:50:24.798Z</time></trkpt><trkpt lat="41.4474926" lon="1.7861288"><ele>141.0</ele><time>2026-04-05T11:50:26.797Z</time></trkpt><trkpt lat="41.447461" lon="1.786205"><ele>141.0</ele><time>2026-04-05T11:50:27.797Z</time></trkpt><trkpt lat="41.4474255" lon="1.7862884"><ele>140.5</ele><time>2026-04-05T11:50:28.798Z</time></trkpt><trkpt lat="41.4473724" lon="1.7864309"><ele>140.0</ele><time>2026-04-05T11:50:30.798Z</time></trkpt><trkpt lat="41.4473699" lon="1.7865796"><ele>139.5</ele><time>2026-04-05T11:50:32.798Z</time></trkpt><trkpt lat="41.4473861" lon="1.7866641"><ele>139.0</ele><time>2026-04-05T11:50:33.797Z</time></trkpt><trkpt lat="41.4474163" lon="1.7867557"><ele>138.5</ele><time>2026-04-05T11:50:34.798Z</time></trkpt><trkpt lat="41.4474521" lon="1.7868451"><ele>138.0</ele><time>2026-04-05T11:50:35.797Z</time></trkpt><trkpt lat="41.4474854" lon="1.7869309"><ele>137.66666666666666</ele><time>2026-04-05T11:50:36.798Z</time></trkpt><trkpt lat="41.4475161" lon="1.7870076"><ele>137.33333333333334</ele><time>2026-04-05T11:50:37.798Z</time></trkpt><trkpt lat="41.4475429" lon="1.7871049"><ele>137.0</ele><time>2026-04-05T11:50:39.798Z</time></trkpt><trkpt lat="41.4475744" lon="1.7871788"><ele>136.66666666666669</ele><time>2026-04-05T11:50:42.798Z</time></trkpt><trkpt lat="41.4476698" lon="1.7871687"><ele>136.33333333333334</ele><time>2026-04-05T11:50:44.798Z</time></trkpt><trkpt lat="41.4477498" lon="1.787139"><ele>136.0</ele><time>2026-04-05T11:50:45.797Z</time></trkpt><trkpt lat="41.4478385" lon="1.7870992"><ele>136.0</ele><time>2026-04-05T11:50:46.797Z</time></trkpt><trkpt lat="41.4479323" lon="1.7870523"><ele>136.0</ele><time>2026-04-05T11:50:47.798Z</time></trkpt><trkpt lat="41.4480427" lon="1.7869911"><ele>136.0</ele><time>2026-04-05T11:50:48.797Z</time></trkpt><trkpt lat="41.4481794" lon="1.7869203"><ele>136.0</ele><time>2026-04-05T11:50:49.797Z</time></trkpt><trkpt lat="41.4483373" lon="1.7868408"><ele>138.0</ele><time>2026-04-05T11:50:50.797Z</time></trkpt><trkpt lat="41.4485073" lon="1.7867525"><ele>140.0</ele><time>2026-04-05T11:50:51.797Z</time></trkpt><trkpt lat="41.4486919" lon="1.7866584"><ele>142.0</ele><time>2026-04-05T11:50:52.797Z</time></trkpt><trkpt lat="41.4488656" lon="1.7865729"><ele>143.0</ele><time>2026-04-05T11:50:53.798Z</time></trkpt><trkpt lat="41.4490277" lon="1.7864968"><ele>144.0</ele><time>2026-04-05T11:50:54.797Z</time></trkpt><trkpt lat="41.4491858" lon="1.7864027"><ele>145.0</ele><time>2026-04-05T11:50:55.798Z</time></trkpt><trkpt lat="41.4493494" lon="1.7862766"><ele>145.0</ele><time>2026-04-05T11:50:56.797Z</time></trkpt><trkpt lat="41.4495131" lon="1.7861076"><ele>145.0</ele><time>2026-04-05T11:50:57.798Z</time></trkpt><trkpt lat="41.4496655" lon="1.7859118"><ele>145.0</ele><time>2026-04-05T11:50:58.797Z</time></trkpt><trkpt lat="41.4497955" lon="1.7857167"><ele>146.33333333333334</ele><time>2026-04-05T11:50:59.797Z</time></trkpt><trkpt lat="41.4499161" lon="1.7855218"><ele>147.66666666666666</ele><time>2026-04-05T11:51:00.797Z</time></trkpt><trkpt lat="41.4500335" lon="1.7853293"><ele>149.0</ele><time>2026-04-05T11:51:01.797Z</time></trkpt><trkpt lat="41.4501467" lon="1.7851456"><ele>149.0</ele><time>2026-04-05T11:51:02.797Z</time></trkpt><trkpt lat="41.4502607" lon="1.7849682"><ele>149.0</ele><time>2026-04-05T11:51:03.797Z</time></trkpt><trkpt lat="41.4503659" lon="1.7847989"><ele>149.0</ele><time>2026-04-05T11:51:04.798Z</time></trkpt><trkpt lat="41.4504758" lon="1.784648"><ele>152.0</ele><time>2026-04-05T11:51:05.797Z</time></trkpt><trkpt lat="41.4506007" lon="1.7845218"><ele>155.0</ele><time>2026-04-05T11:51:06.797Z</time></trkpt><trkpt lat="41.4507412" lon="1.784421"><ele>158.0</ele><time>2026-04-05T11:51:07.797Z</time></trkpt><trkpt lat="41.4508897" lon="1.7843495"><ele>157.0</ele><time>2026-04-05T11:51:08.798Z</time></trkpt><trkpt lat="41.4510433" lon="1.7843194"><ele>156.0</ele><time>2026-04-05T11:51:09.797Z</time></trkpt><trkpt lat="41.4511885" lon="1.7843147"><ele>155.0</ele><time>2026-04-05T11:51:10.797Z</time></trkpt><trkpt lat="41.4513342" lon="1.7842943"><ele>154.0</ele><time>2026-04-05T11:51:11.798Z</time></trkpt><trkpt lat="41.4514794" lon="1.7842402"><ele>156.66666666666669</ele><time>2026-04-05T11:51:12.797Z</time></trkpt><trkpt lat="41.4516163" lon="1.7841437"><ele>159.33333333333334</ele><time>2026-04-05T11:51:13.798Z</time></trkpt><trkpt lat="41.4517425" lon="1.7840257"><ele>162.0</ele><time>2026-04-05T11:51:14.798Z</time></trkpt><trkpt lat="41.4518658" lon="1.7839011"><ele>162.0</ele><time>2026-04-05T11:51:15.797Z</time></trkpt><trkpt lat="41.4519935" lon="1.7837917"><ele>162.0</ele><time>2026-04-05T11:51:16.797Z</time></trkpt><trkpt lat="41.45213" lon="1.7837137"><ele>162.0</ele><time>2026-04-05T11:51:17.798Z</time></trkpt><trkpt lat="41.4522743" lon="1.7836727"><ele>162.0</ele><time>2026-04-05T11:51:18.797Z</time></trkpt><trkpt lat="41.4524183" lon="1.7836659"><ele>164.0</ele><time>2026-04-05T11:51:19.798Z</time></trkpt><trkpt lat="41.4525618" lon="1.7836932"><ele>166.0</ele><time>2026-04-05T11:51:20.797Z</time></trkpt><trkpt lat="41.452696" lon="1.7837547"><ele>168.0</ele><time>2026-04-05T11:51:21.797Z</time></trkpt><trkpt lat="41.4528173" lon="1.7838491"><ele>170.0</ele><time>2026-04-05T11:51:22.798Z</time></trkpt><trkpt lat="41.4529206" lon="1.7839686"><ele>172.5</ele><time>2026-04-05T11:51:23.798Z</time></trkpt><trkpt lat="41.4530022" lon="1.7841166"><ele>175.0</ele><time>2026-04-05T11:51:24.797Z</time></trkpt><trkpt lat="41.4530695" lon="1.7842859"><ele>177.5</ele><time>2026-04-05T11:51:25.798Z</time></trkpt><trkpt lat="41.4531161" lon="1.7844709"><ele>180.0</ele><time>2026-04-05T11:51:26.797Z</time></trkpt><trkpt lat="41.4531532" lon="1.7846712"><ele>180.0</ele><time>2026-04-05T11:51:27.797Z</time></trkpt><trkpt lat="41.4531866" lon="1.7848858"><ele>180.0</ele><time>2026-04-05T11:51:28.797Z</time></trkpt><trkpt lat="41.4532316" lon="1.7850934"><ele>180.0</ele><time>2026-04-05T11:51:29.798Z</time></trkpt><trkpt lat="41.4532948" lon="1.7852933"><ele>180.33333333333334</ele><time>2026-04-05T11:51:30.798Z</time></trkpt><trkpt lat="41.4533842" lon="1.7854729"><ele>180.66666666666669</ele><time>2026-04-05T11:51:31.798Z</time></trkpt><trkpt lat="41.4534994" lon="1.7856345"><ele>181.0</ele><time>2026-04-05T11:51:32.798Z</time></trkpt><trkpt lat="41.4536357" lon="1.7857658"><ele>183.0</ele><time>2026-04-05T11:51:33.797Z</time></trkpt><trkpt lat="41.4537901" lon="1.7858657"><ele>185.0</ele><time>2026-04-05T11:51:34.798Z</time></trkpt><trkpt lat="41.4539587" lon="1.7859333"><ele>187.0</ele><time>2026-04-05T11:51:35.798Z</time></trkpt><trkpt lat="41.4541269" lon="1.7859736"><ele>186.33333333333334</ele><time>2026-04-05T11:51:36.798Z</time></trkpt><trkpt lat="41.4542865" lon="1.7860231"><ele>185.66666666666666</ele><time>2026-04-05T11:51:37.798Z</time></trkpt><trkpt lat="41.4544293" lon="1.7861027"><ele>185.0</ele><time>2026-04-05T11:51:38.797Z</time></trkpt><trkpt lat="41.4545559" lon="1.7862235"><ele>185.66666666666666</ele><time>2026-04-05T11:51:39.798Z</time></trkpt><trkpt lat="41.4546658" lon="1.7863788"><ele>186.33333333333334</ele><time>2026-04-05T11:51:40.797Z</time></trkpt><trkpt lat="41.4547804" lon="1.7865348"><ele>187.0</ele><time>2026-04-05T11:51:41.798Z</time></trkpt><trkpt lat="41.4549131" lon="1.7866619"><ele>187.0</ele><time>2026-04-05T11:51:42.798Z</time></trkpt><trkpt lat="41.4550694" lon="1.7867613"><ele>187.0</ele><time>2026-04-05T11:51:43.798Z</time></trkpt><trkpt lat="41.4552517" lon="1.7868381"><ele>187.0</ele><time>2026-04-05T11:51:44.797Z</time></trkpt><trkpt lat="41.4554559" lon="1.7869029"><ele>188.66666666666669</ele><time>2026-04-05T11:51:45.797Z</time></trkpt><trkpt lat="41.4556603" lon="1.7869679"><ele>190.33333333333334</ele><time>2026-04-05T11:51:46.798Z</time></trkpt><trkpt lat="41.4558754" lon="1.7870347"><ele>192.0</ele><time>2026-04-05T11:51:47.798Z</time></trkpt><trkpt lat="41.4561078" lon="1.7871068"><ele>192.66666666666669</ele><time>2026-04-05T11:51:48.797Z</time></trkpt><trkpt lat="41.4563326" lon="1.7871756"><ele>193.33333333333334</ele><time>2026-04-05T11:51:49.798Z</time></trkpt><trkpt lat="41.4565423" lon="1.7872524"><ele>194.0</ele><time>2026-04-05T11:51:50.798Z</time></trkpt><trkpt lat="41.4567463" lon="1.7873432"><ele>194.0</ele><time>2026-04-05T11:51:51.798Z</time></trkpt><trkpt lat="41.456932" lon="1.7874694"><ele>194.0</ele><time>2026-04-05T11:51:52.797Z</time></trkpt><trkpt lat="41.4571007" lon="1.7876321"><ele>194.0</ele><time>2026-04-05T11:51:53.798Z</time></trkpt><trkpt lat="41.4572608" lon="1.7878148"><ele>195.66666666666669</ele><time>2026-04-05T11:51:54.798Z</time></trkpt><trkpt lat="41.4574243" lon="1.7880091"><ele>197.33333333333331</ele><time>2026-04-05T11:51:55.798Z</time></trkpt><trkpt lat="41.4575814" lon="1.7881885"><ele>199.0</ele><time>2026-04-05T11:51:56.797Z</time></trkpt><trkpt lat="41.4577452" lon="1.788342"><ele>199.0</ele><time>2026-04-05T11:51:57.797Z</time></trkpt><trkpt lat="41.4579284" lon="1.7884551"><ele>199.0</ele><time>2026-04-05T11:51:58.797Z</time></trkpt><trkpt lat="41.4581216" lon="1.7885432"><ele>199.0</ele><time>2026-04-05T11:51:59.797Z</time></trkpt><trkpt lat="41.458302" lon="1.7886341"><ele>201.66666666666666</ele><time>2026-04-05T11:52:00.798Z</time></trkpt><trkpt lat="41.4584653" lon="1.7887464"><ele>204.33333333333331</ele><time>2026-04-05T11:52:01.798Z</time></trkpt><trkpt lat="41.4586327" lon="1.7888734"><ele>207.0</ele><time>2026-04-05T11:52:02.797Z</time></trkpt><trkpt lat="41.4588177" lon="1.788977"><ele>207.66666666666669</ele><time>2026-04-05T11:52:03.797Z</time></trkpt><trkpt lat="41.4590234" lon="1.7890567"><ele>208.33333333333334</ele><time>2026-04-05T11:52:04.797Z</time></trkpt><trkpt lat="41.4592259" lon="1.7891309"><ele>209.0</ele><time>2026-04-05T11:52:05.797Z</time></trkpt><trkpt lat="41.4594209" lon="1.7891995"><ele>209.0</ele><time>2026-04-05T11:52:06.797Z</time></trkpt><trkpt lat="41.4596103" lon="1.7892417"><ele>209.0</ele><time>2026-04-05T11:52:07.798Z</time></trkpt><trkpt lat="41.4598163" lon="1.7892367"><ele>209.0</ele><time>2026-04-05T11:52:08.797Z</time></trkpt><trkpt lat="41.4600299" lon="1.789223"><ele>210.0</ele><time>2026-04-05T11:52:09.798Z</time></trkpt><trkpt lat="41.4602345" lon="1.7892111"><ele>211.0</ele><time>2026-04-05T11:52:10.797Z</time></trkpt><trkpt lat="41.4604471" lon="1.7892012"><ele>212.0</ele><time>2026-04-05T11:52:11.798Z</time></trkpt><trkpt lat="41.4606711" lon="1.7891968"><ele>216.0</ele><time>2026-04-05T11:52:12.798Z</time></trkpt><trkpt lat="41.4609005" lon="1.7892091"><ele>220.0</ele><time>2026-04-05T11:52:13.797Z</time></trkpt><trkpt lat="41.4611422" lon="1.7892499"><ele>222.0</ele><time>2026-04-05T11:52:14.798Z</time></trkpt><trkpt lat="41.4613949" lon="1.7893041"><ele>224.0</ele><time>2026-04-05T11:52:15.798Z</time></trkpt><trkpt lat="41.4616491" lon="1.7893624"><ele>226.5</ele><time>2026-04-05T11:52:16.797Z</time></trkpt><trkpt lat="41.4618881" lon="1.7894095"><ele>229.0</ele><time>2026-04-05T11:52:17.798Z</time></trkpt><trkpt lat="41.4621155" lon="1.7894534"><ele>229.33333333333331</ele><time>2026-04-05T11:52:18.797Z</time></trkpt><trkpt lat="41.4623378" lon="1.7894934"><ele>229.66666666666669</ele><time>2026-04-05T11:52:19.798Z</time></trkpt><trkpt lat="41.4625574" lon="1.7895402"><ele>230.0</ele><time>2026-04-05T11:52:20.798Z</time></trkpt><trkpt lat="41.4627782" lon="1.7895981"><ele>231.0</ele><time>2026-04-05T11:52:21.798Z</time></trkpt><trkpt lat="41.4630007" lon="1.789661"><ele>232.0</ele><time>2026-04-05T11:52:22.797Z</time></trkpt><trkpt lat="41.4632149" lon="1.7897266"><ele>233.0</ele><time>2026-04-05T11:52:23.797Z</time></trkpt><trkpt lat="41.4634245" lon="1.7897763"><ele>233.0</ele><time>2026-04-05T11:52:24.798Z</time></trkpt><trkpt lat="41.4636238" lon="1.7898023"><ele>233.0</ele><time>2026-04-05T11:52:25.798Z</time></trkpt><trkpt lat="41.4638159" lon="1.7898063"><ele>233.0</ele><time>2026-04-05T11:52:26.798Z</time></trkpt><trkpt lat="41.4640043" lon="1.7898147"><ele>234.0</ele><time>2026-04-05T11:52:27.798Z</time></trkpt><trkpt lat="41.4641836" lon="1.789828"><ele>235.0</ele><time>2026-04-05T11:52:28.797Z</time></trkpt><trkpt lat="41.4643622" lon="1.7898516"><ele>236.0</ele><time>2026-04-05T11:52:29.797Z</time></trkpt><trkpt lat="41.4645379" lon="1.7899099"><ele>236.0</ele><time>2026-04-05T11:52:30.797Z</time></trkpt><trkpt lat="41.4647197" lon="1.7900019"><ele>236.0</ele><time>2026-04-05T11:52:31.798Z</time></trkpt><trkpt lat="41.464904" lon="1.790096"><ele>236.0</ele><time>2026-04-05T11:52:32.798Z</time></trkpt><trkpt lat="41.465097" lon="1.7901755"><ele>236.0</ele><time>2026-04-05T11:52:33.797Z</time></trkpt><trkpt lat="41.4652961" lon="1.7902446"><ele>236.0</ele><time>2026-04-05T11:52:34.797Z</time></trkpt><trkpt lat="41.4654863" lon="1.7903107"><ele>236.0</ele><time>2026-04-05T11:52:35.797Z</time></trkpt><trkpt lat="41.465667" lon="1.7903749"><ele>238.33333333333334</ele><time>2026-04-05T11:52:36.798Z</time></trkpt><trkpt lat="41.4658466" lon="1.7904327"><ele>240.66666666666669</ele><time>2026-04-05T11:52:37.797Z</time></trkpt><trkpt lat="41.4660268" lon="1.7904664"><ele>243.0</ele><time>2026-04-05T11:52:38.798Z</time></trkpt><trkpt lat="41.4662208" lon="1.7904639"><ele>245.0</ele><time>2026-04-05T11:52:39.798Z</time></trkpt><trkpt lat="41.4664258" lon="1.7904376"><ele>247.0</ele><time>2026-04-05T11:52:40.797Z</time></trkpt><trkpt lat="41.4666328" lon="1.790404"><ele>249.0</ele><time>2026-04-05T11:52:41.798Z</time></trkpt><trkpt lat="41.466834" lon="1.7903791"><ele>249.0</ele><time>2026-04-05T11:52:42.798Z</time></trkpt><trkpt lat="41.4670264" lon="1.7903629"><ele>249.0</ele><time>2026-04-05T11:52:43.797Z</time></trkpt><trkpt lat="41.4672094" lon="1.7903448"><ele>249.0</ele><time>2026-04-05T11:52:44.798Z</time></trkpt><trkpt lat="41.467379" lon="1.790317"><ele>250.0</ele><time>2026-04-05T11:52:45.797Z</time></trkpt><trkpt lat="41.4675267" lon="1.7902733"><ele>251.0</ele><time>2026-04-05T11:52:46.792Z</time></trkpt><trkpt lat="41.467672" lon="1.7902193"><ele>252.0</ele><time>2026-04-05T11:52:47.794Z</time></trkpt><trkpt lat="41.4678064" lon="1.7901563"><ele>253.0</ele><time>2026-04-05T11:52:48.792Z</time></trkpt><trkpt lat="41.4679332" lon="1.7901104"><ele>254.75</ele><time>2026-04-05T11:52:49.793Z</time></trkpt><trkpt lat="41.4680593" lon="1.7901153"><ele>256.5</ele><time>2026-04-05T11:52:50.793Z</time></trkpt><trkpt lat="41.4681804" lon="1.79017"><ele>258.25</ele><time>2026-04-05T11:52:51.794Z</time></trkpt><trkpt lat="41.4682863" lon="1.7902773"><ele>260.0</ele><time>2026-04-05T11:52:52.794Z</time></trkpt><trkpt lat="41.4683817" lon="1.7904178"><ele>260.0</ele><time>2026-04-05T11:52:53.794Z</time></trkpt><trkpt lat="41.46849" lon="1.7905692"><ele>260.0</ele><time>2026-04-05T11:52:54.794Z</time></trkpt><trkpt lat="41.46862" lon="1.7907026"><ele>260.0</ele><time>2026-04-05T11:52:55.793Z</time></trkpt><trkpt lat="41.4687614" lon="1.7908023"><ele>262.6666666666667</ele><time>2026-04-05T11:52:56.793Z</time></trkpt><trkpt lat="41.4689075" lon="1.7908592"><ele>265.3333333333333</ele><time>2026-04-05T11:52:57.794Z</time></trkpt><trkpt lat="41.4690754" lon="1.7908815"><ele>268.0</ele><time>2026-04-05T11:52:58.793Z</time></trkpt><trkpt lat="41.4692389" lon="1.7908682"><ele>268.0</ele><time>2026-04-05T11:52:59.793Z</time></trkpt><trkpt lat="41.4693894" lon="1.7908253"><ele>268.0</ele><time>2026-04-05T11:53:00.794Z</time></trkpt><trkpt lat="41.4695442" lon="1.7907415"><ele>268.0</ele><time>2026-04-05T11:53:01.793Z</time></trkpt><trkpt lat="41.4696929" lon="1.7906535"><ele>268.66666666666663</ele><time>2026-04-05T11:53:02.793Z</time></trkpt><trkpt lat="41.4698597" lon="1.7905829"><ele>269.3333333333333</ele><time>2026-04-05T11:53:03.794Z</time></trkpt><trkpt lat="41.4700539" lon="1.7905286"><ele>270.0</ele><time>2026-04-05T11:53:04.794Z</time></trkpt><trkpt lat="41.470269" lon="1.7904762"><ele>271.0</ele><time>2026-04-05T11:53:05.793Z</time></trkpt><trkpt lat="41.4704836" lon="1.7904223"><ele>272.0</ele><time>2026-04-05T11:53:06.793Z</time></trkpt><trkpt lat="41.4706958" lon="1.7903763"><ele>273.0</ele><time>2026-04-05T11:53:07.793Z</time></trkpt><trkpt lat="41.4708949" lon="1.7903323"><ele>273.0</ele><time>2026-04-05T11:53:08.794Z</time></trkpt><trkpt lat="41.4710862" lon="1.7902874"><ele>273.0</ele><time>2026-04-05T11:53:09.793Z</time></trkpt><trkpt lat="41.471261" lon="1.7902488"><ele>273.0</ele><time>2026-04-05T11:53:10.793Z</time></trkpt><trkpt lat="41.471416" lon="1.7902298"><ele>274.0</ele><time>2026-04-05T11:53:11.793Z</time></trkpt><trkpt lat="41.4715516" lon="1.7902539"><ele>275.0</ele><time>2026-04-05T11:53:12.793Z</time></trkpt><trkpt lat="41.4716665" lon="1.7903273"><ele>276.0</ele><time>2026-04-05T11:53:13.794Z</time></trkpt><trkpt lat="41.4717738" lon="1.7904513"><ele>277.0</ele><time>2026-04-05T11:53:14.794Z</time></trkpt><trkpt lat="41.4718837" lon="1.7906062"><ele>277.0</ele><time>2026-04-05T11:53:15.793Z</time></trkpt><trkpt lat="41.4720036" lon="1.790774"><ele>277.0</ele><time>2026-04-05T11:53:16.794Z</time></trkpt><trkpt lat="41.4721497" lon="1.7909444"><ele>277.0</ele><time>2026-04-05T11:53:17.793Z</time></trkpt><trkpt lat="41.4723083" lon="1.7911094"><ele>280.66666666666663</ele><time>2026-04-05T11:53:18.794Z</time></trkpt><trkpt lat="41.4724796" lon="1.7912615"><ele>284.3333333333333</ele><time>2026-04-05T11:53:19.794Z</time></trkpt><trkpt lat="41.4726391" lon="1.7914085"><ele>288.0</ele><time>2026-04-05T11:53:20.793Z</time></trkpt><trkpt lat="41.4727897" lon="1.7915485"><ele>288.0</ele><time>2026-04-05T11:53:21.794Z</time></trkpt><trkpt lat="41.4729323" lon="1.7916772"><ele>288.0</ele><time>2026-04-05T11:53:22.794Z</time></trkpt><trkpt lat="41.4730663" lon="1.7917824"><ele>288.0</ele><time>2026-04-05T11:53:23.793Z</time></trkpt><trkpt lat="41.4732114" lon="1.7918671"><ele>291.6666666666667</ele><time>2026-04-05T11:53:24.793Z</time></trkpt><trkpt lat="41.4733668" lon="1.7919237"><ele>295.33333333333337</ele><time>2026-04-05T11:53:25.793Z</time></trkpt><trkpt lat="41.4735245" lon="1.7919676"><ele>299.0</ele><time>2026-04-05T11:53:26.793Z</time></trkpt><trkpt lat="41.473681" lon="1.7920006"><ele>300.0</ele><time>2026-04-05T11:53:27.794Z</time></trkpt><trkpt lat="41.4738501" lon="1.7920173"><ele>301.0</ele><time>2026-04-05T11:53:28.793Z</time></trkpt><trkpt lat="41.4740351" lon="1.7920096"><ele>302.0</ele><time>2026-04-05T11:53:29.794Z</time></trkpt><trkpt lat="41.4742337" lon="1.79198"><ele>302.0</ele><time>2026-04-05T11:53:30.794Z</time></trkpt><trkpt lat="41.4744408" lon="1.7919254"><ele>302.0</ele><time>2026-04-05T11:53:31.794Z</time></trkpt><trkpt lat="41.4746473" lon="1.7918693"><ele>302.0</ele><time>2026-04-05T11:53:32.794Z</time></trkpt><trkpt lat="41.4748446" lon="1.7918184"><ele>301.0</ele><time>2026-04-05T11:53:33.793Z</time></trkpt><trkpt lat="41.475029" lon="1.7917795"><ele>300.0</ele><time>2026-04-05T11:53:34.794Z</time></trkpt><trkpt lat="41.4752162" lon="1.7917507"><ele>299.0</ele><time>2026-04-05T11:53:35.793Z</time></trkpt><trkpt lat="41.4753949" lon="1.7917575"><ele>300.33333333333337</ele><time>2026-04-05T11:53:36.793Z</time></trkpt><trkpt lat="41.4755698" lon="1.7917831"><ele>301.6666666666667</ele><time>2026-04-05T11:53:37.793Z</time></trkpt><trkpt lat="41.4757357" lon="1.7917996"><ele>303.0</ele><time>2026-04-05T11:53:38.794Z</time></trkpt><trkpt lat="41.4758929" lon="1.7917889"><ele>303.0</ele><time>2026-04-05T11:53:39.793Z</time></trkpt><trkpt lat="41.4760354" lon="1.7917444"><ele>303.0</ele><time>2026-04-05T11:53:40.793Z</time></trkpt><trkpt lat="41.4761645" lon="1.7916804"><ele>303.0</ele><time>2026-04-05T11:53:41.794Z</time></trkpt><trkpt lat="41.4762981" lon="1.7916181"><ele>303.0</ele><time>2026-04-05T11:53:42.794Z</time></trkpt><trkpt lat="41.4764321" lon="1.7915831"><ele>304.5</ele><time>2026-04-05T11:53:43.794Z</time></trkpt><trkpt lat="41.4765646" lon="1.7915772"><ele>306.0</ele><time>2026-04-05T11:53:44.794Z</time></trkpt><trkpt lat="41.4766954" lon="1.7916038"><ele>307.5</ele><time>2026-04-05T11:53:45.793Z</time></trkpt><trkpt lat="41.4768261" lon="1.7916471"><ele>309.0</ele><time>2026-04-05T11:53:46.794Z</time></trkpt><trkpt lat="41.4769542" lon="1.7916915"><ele>309.0</ele><time>2026-04-05T11:53:47.793Z</time></trkpt><trkpt lat="41.4770586" lon="1.7917258"><ele>309.0</ele><time>2026-04-05T11:53:48.794Z</time></trkpt><trkpt lat="41.4771683" lon="1.7917455"><ele>309.0</ele><time>2026-04-05T11:53:49.794Z</time></trkpt><trkpt lat="41.4772893" lon="1.7917509"><ele>309.0</ele><time>2026-04-05T11:53:50.794Z</time></trkpt><trkpt lat="41.4774346" lon="1.7917315"><ele>305.3333333333333</ele><time>2026-04-05T11:53:51.794Z</time></trkpt><trkpt lat="41.477592" lon="1.7916997"><ele>301.66666666666663</ele><time>2026-04-05T11:53:52.794Z</time></trkpt><trkpt lat="41.4777627" lon="1.7916733"><ele>298.0</ele><time>2026-04-05T11:53:53.793Z</time></trkpt><trkpt lat="41.4779537" lon="1.7916411"><ele>295.3333333333333</ele><time>2026-04-05T11:53:54.793Z</time></trkpt><trkpt lat="41.4781404" lon="1.7916057"><ele>292.6666666666667</ele><time>2026-04-05T11:53:55.793Z</time></trkpt><trkpt lat="41.4783165" lon="1.7915644"><ele>290.0</ele><time>2026-04-05T11:53:56.793Z</time></trkpt><trkpt lat="41.4784871" lon="1.791522"><ele>290.0</ele><time>2026-04-05T11:53:57.794Z</time></trkpt><trkpt lat="41.478658" lon="1.7914753"><ele>290.0</ele><time>2026-04-05T11:53:58.793Z</time></trkpt><trkpt lat="41.4788236" lon="1.7914204"><ele>290.0</ele><time>2026-04-05T11:53:59.793Z</time></trkpt><trkpt lat="41.4789959" lon="1.7913534"><ele>288.6666666666667</ele><time>2026-04-05T11:54:00.794Z</time></trkpt><trkpt lat="41.4791669" lon="1.7912743"><ele>287.3333333333333</ele><time>2026-04-05T11:54:01.794Z</time></trkpt><trkpt lat="41.4793357" lon="1.7911771"><ele>286.0</ele><time>2026-04-05T11:54:02.794Z</time></trkpt><trkpt lat="41.4795001" lon="1.791075"><ele>286.0</ele><time>2026-04-05T11:54:03.794Z</time></trkpt><trkpt lat="41.4796532" lon="1.790978"><ele>286.0</ele><time>2026-04-05T11:54:04.793Z</time></trkpt><trkpt lat="41.4798079" lon="1.7908906"><ele>286.0</ele><time>2026-04-05T11:54:05.793Z</time></trkpt><trkpt lat="41.4799719" lon="1.7908307"><ele>286.0</ele><time>2026-04-05T11:54:06.794Z</time></trkpt><trkpt lat="41.48014" lon="1.7908061"><ele>286.0</ele><time>2026-04-05T11:54:07.793Z</time></trkpt><trkpt lat="41.4803088" lon="1.7907976"><ele>286.0</ele><time>2026-04-05T11:54:08.794Z</time></trkpt><trkpt lat="41.4804745" lon="1.79078"><ele>285.66666666666663</ele><time>2026-04-05T11:54:09.793Z</time></trkpt><trkpt lat="41.4806399" lon="1.790741"><ele>285.3333333333333</ele><time>2026-04-05T11:54:10.793Z</time></trkpt><trkpt lat="41.4807973" lon="1.7906768"><ele>285.0</ele><time>2026-04-05T11:54:11.793Z</time></trkpt><trkpt lat="41.4809469" lon="1.7905854"><ele>285.0</ele><time>2026-04-05T11:54:12.793Z</time></trkpt><trkpt lat="41.4810902" lon="1.7904829"><ele>285.0</ele><time>2026-04-05T11:54:13.793Z</time></trkpt><trkpt lat="41.4812346" lon="1.7904061"><ele>285.0</ele><time>2026-04-05T11:54:14.793Z</time></trkpt><trkpt lat="41.4813951" lon="1.790367"><ele>284.6666666666667</ele><time>2026-04-05T11:54:15.794Z</time></trkpt><trkpt lat="41.4815713" lon="1.7903504"><ele>284.33333333333337</ele><time>2026-04-05T11:54:16.793Z</time></trkpt><trkpt lat="41.4817593" lon="1.7903327"><ele>284.0</ele><time>2026-04-05T11:54:17.793Z</time></trkpt><trkpt lat="41.4819545" lon="1.790317"><ele>283.0</ele><time>2026-04-05T11:54:18.794Z</time></trkpt><trkpt lat="41.4821498" lon="1.7903223"><ele>282.0</ele><time>2026-04-05T11:54:19.793Z</time></trkpt><trkpt lat="41.4823501" lon="1.7903394"><ele>281.0</ele><time>2026-04-05T11:54:20.794Z</time></trkpt><trkpt lat="41.4825379" lon="1.7903686"><ele>281.0</ele><time>2026-04-05T11:54:21.793Z</time></trkpt><trkpt lat="41.4827208" lon="1.7903881"><ele>281.0</ele><time>2026-04-05T11:54:22.794Z</time></trkpt><trkpt lat="41.4829059" lon="1.7903876"><ele>281.0</ele><time>2026-04-05T11:54:23.794Z</time></trkpt><trkpt lat="41.4831009" lon="1.7903588"><ele>281.33333333333337</ele><time>2026-04-05T11:54:24.794Z</time></trkpt><trkpt lat="41.4832993" lon="1.7903077"><ele>281.6666666666667</ele><time>2026-04-05T11:54:25.794Z</time></trkpt><trkpt lat="41.4835019" lon="1.7902496"><ele>282.0</ele><time>2026-04-05T11:54:26.794Z</time></trkpt><trkpt lat="41.4836992" lon="1.7901858"><ele>283.3333333333333</ele><time>2026-04-05T11:54:27.793Z</time></trkpt><trkpt lat="41.483891" lon="1.7901144"><ele>284.66666666666663</ele><time>2026-04-05T11:54:28.793Z</time></trkpt><trkpt lat="41.4840797" lon="1.7900425"><ele>286.0</ele><time>2026-04-05T11:54:29.793Z</time></trkpt><trkpt lat="41.4842717" lon="1.7899855"><ele>286.0</ele><time>2026-04-05T11:54:30.794Z</time></trkpt><trkpt lat="41.4844678" lon="1.7899547"><ele>286.0</ele><time>2026-04-05T11:54:31.793Z</time></trkpt><trkpt lat="41.4846641" lon="1.7899587"><ele>286.0</ele><time>2026-04-05T11:54:32.794Z</time></trkpt><trkpt lat="41.4848559" lon="1.7899909"><ele>285.66666666666663</ele><time>2026-04-05T11:54:33.793Z</time></trkpt><trkpt lat="41.4850299" lon="1.7900593"><ele>285.3333333333333</ele><time>2026-04-05T11:54:34.793Z</time></trkpt><trkpt lat="41.4851935" lon="1.7901432"><ele>285.0</ele><time>2026-04-05T11:54:35.793Z</time></trkpt><trkpt lat="41.4853493" lon="1.7902336"><ele>283.6666666666667</ele><time>2026-04-05T11:54:36.794Z</time></trkpt><trkpt lat="41.4855092" lon="1.7902873"><ele>282.33333333333337</ele><time>2026-04-05T11:54:37.793Z</time></trkpt><trkpt lat="41.4856768" lon="1.7902992"><ele>281.0</ele><time>2026-04-05T11:54:38.794Z</time></trkpt><trkpt lat="41.4858462" lon="1.7902757"><ele>281.0</ele><time>2026-04-05T11:54:39.793Z</time></trkpt><trkpt lat="41.4860158" lon="1.7902253"><ele>281.0</ele><time>2026-04-05T11:54:40.793Z</time></trkpt><trkpt lat="41.4861777" lon="1.7901542"><ele>281.0</ele><time>2026-04-05T11:54:41.793Z</time></trkpt><trkpt lat="41.4863434" lon="1.7900545"><ele>280.33333333333337</ele><time>2026-04-05T11:54:42.794Z</time></trkpt><trkpt lat="41.4865046" lon="1.789927"><ele>279.6666666666667</ele><time>2026-04-05T11:54:43.793Z</time></trkpt><trkpt lat="41.4866563" lon="1.7897738"><ele>279.0</ele><time>2026-04-05T11:54:44.794Z</time></trkpt><trkpt lat="41.4868009" lon="1.7896079"><ele>279.0</ele><time>2026-04-05T11:54:45.794Z</time></trkpt><trkpt lat="41.48695" lon="1.789445"><ele>279.0</ele><time>2026-04-05T11:54:46.794Z</time></trkpt><trkpt lat="41.4870929" lon="1.7892973"><ele>279.0</ele><time>2026-04-05T11:54:47.793Z</time></trkpt><trkpt lat="41.4872246" lon="1.7891759"><ele>278.6666666666667</ele><time>2026-04-05T11:54:48.794Z</time></trkpt><trkpt lat="41.4873601" lon="1.7890893"><ele>278.33333333333337</ele><time>2026-04-05T11:54:49.794Z</time></trkpt><trkpt lat="41.4875114" lon="1.7890426"><ele>278.0</ele><time>2026-04-05T11:54:50.794Z</time></trkpt><trkpt lat="41.487685" lon="1.7890173"><ele>278.0</ele><time>2026-04-05T11:54:51.794Z</time></trkpt><trkpt lat="41.4878806" lon="1.7889962"><ele>278.0</ele><time>2026-04-05T11:54:52.793Z</time></trkpt><trkpt lat="41.4880845" lon="1.7889734"><ele>278.0</ele><time>2026-04-05T11:54:53.793Z</time></trkpt><trkpt lat="41.4882899" lon="1.7889545"><ele>277.6666666666667</ele><time>2026-04-05T11:54:54.794Z</time></trkpt><trkpt lat="41.4884943" lon="1.7889293"><ele>277.3333333333333</ele><time>2026-04-05T11:54:55.793Z</time></trkpt><trkpt lat="41.4886967" lon="1.7889065"><ele>277.0</ele><time>2026-04-05T11:54:56.794Z</time></trkpt><trkpt lat="41.4889017" lon="1.7888854"><ele>278.3333333333333</ele><time>2026-04-05T11:54:57.794Z</time></trkpt><trkpt lat="41.4891064" lon="1.7888534"><ele>279.6666666666667</ele><time>2026-04-05T11:54:58.793Z</time></trkpt><trkpt lat="41.4893076" lon="1.7887999"><ele>281.0</ele><time>2026-04-05T11:54:59.794Z</time></trkpt><trkpt lat="41.4895129" lon="1.7887275"><ele>282.33333333333337</ele><time>2026-04-05T11:55:00.794Z</time></trkpt><trkpt lat="41.4897201" lon="1.7886294"><ele>283.6666666666667</ele><time>2026-04-05T11:55:01.793Z</time></trkpt><trkpt lat="41.4899254" lon="1.7885201"><ele>285.0</ele><time>2026-04-05T11:55:02.794Z</time></trkpt><trkpt lat="41.4901318" lon="1.7884103"><ele>285.0</ele><time>2026-04-05T11:55:03.794Z</time></trkpt><trkpt lat="41.4903288" lon="1.7883028"><ele>285.0</ele><time>2026-04-05T11:55:04.794Z</time></trkpt><trkpt lat="41.4905148" lon="1.7882045"><ele>285.0</ele><time>2026-04-05T11:55:05.793Z</time></trkpt><trkpt lat="41.4906937" lon="1.7881094"><ele>284.6666666666667</ele><time>2026-04-05T11:55:06.793Z</time></trkpt><trkpt lat="41.4908647" lon="1.7880135"><ele>284.33333333333337</ele><time>2026-04-05T11:55:07.793Z</time></trkpt><trkpt lat="41.4910234" lon="1.7879205"><ele>284.0</ele><time>2026-04-05T11:55:08.793Z</time></trkpt><trkpt lat="41.4911745" lon="1.7878317"><ele>284.25</ele><time>2026-04-05T11:55:09.794Z</time></trkpt><trkpt lat="41.4913138" lon="1.7877496"><ele>284.5</ele><time>2026-04-05T11:55:10.793Z</time></trkpt><trkpt lat="41.4914387" lon="1.7876778"><ele>284.75</ele><time>2026-04-05T11:55:11.793Z</time></trkpt><trkpt lat="41.4915506" lon="1.7876198"><ele>285.0</ele><time>2026-04-05T11:55:12.794Z</time></trkpt><trkpt lat="41.4916511" lon="1.7875798"><ele>285.8</ele><time>2026-04-05T11:55:13.794Z</time></trkpt><trkpt lat="41.4917549" lon="1.787549"><ele>286.6</ele><time>2026-04-05T11:55:14.793Z</time></trkpt><trkpt lat="41.4918538" lon="1.7875221"><ele>287.4</ele><time>2026-04-05T11:55:15.794Z</time></trkpt><trkpt lat="41.4919471" lon="1.7874653"><ele>288.2</ele><time>2026-04-05T11:55:16.793Z</time></trkpt><trkpt lat="41.4920306" lon="1.7873888"><ele>289.0</ele><time>2026-04-05T11:55:17.794Z</time></trkpt><trkpt lat="41.4921242" lon="1.7873096"><ele>289.25</ele><time>2026-04-05T11:55:18.793Z</time></trkpt><trkpt lat="41.4922415" lon="1.7872586"><ele>289.5</ele><time>2026-04-05T11:55:19.794Z</time></trkpt><trkpt lat="41.4923825" lon="1.7872344"><ele>289.75</ele><time>2026-04-05T11:55:20.794Z</time></trkpt><trkpt lat="41.4925419" lon="1.7872131"><ele>290.0</ele><time>2026-04-05T11:55:21.793Z</time></trkpt><trkpt lat="41.4927003" lon="1.7871812"><ele>290.0</ele><time>2026-04-05T11:55:22.793Z</time></trkpt><trkpt lat="41.4928793" lon="1.7871421"><ele>290.0</ele><time>2026-04-05T11:55:23.794Z</time></trkpt><trkpt lat="41.4930701" lon="1.7870958"><ele>290.0</ele><time>2026-04-05T11:55:24.793Z</time></trkpt><trkpt lat="41.4932587" lon="1.7870557"><ele>290.6666666666667</ele><time>2026-04-05T11:55:25.794Z</time></trkpt><trkpt lat="41.4934465" lon="1.7870378"><ele>291.3333333333333</ele><time>2026-04-05T11:55:26.794Z</time></trkpt><trkpt lat="41.4936266" lon="1.787045"><ele>292.0</ele><time>2026-04-05T11:55:27.793Z</time></trkpt><trkpt lat="41.4937943" lon="1.7870597"><ele>292.3333333333333</ele><time>2026-04-05T11:55:28.794Z</time></trkpt><trkpt lat="41.4939565" lon="1.7870753"><ele>292.6666666666667</ele><time>2026-04-05T11:55:29.794Z</time></trkpt><trkpt lat="41.4941066" lon="1.787088"><ele>293.0</ele><time>2026-04-05T11:55:30.794Z</time></trkpt><trkpt lat="41.494251" lon="1.7870867"><ele>293.0</ele><time>2026-04-05T11:55:31.793Z</time></trkpt><trkpt lat="41.494387" lon="1.7870694"><ele>293.0</ele><time>2026-04-05T11:55:32.793Z</time></trkpt><trkpt lat="41.4945142" lon="1.7870366"><ele>293.0</ele><time>2026-04-05T11:55:33.793Z</time></trkpt><trkpt lat="41.4946359" lon="1.7869809"><ele>293.0</ele><time>2026-04-05T11:55:34.793Z</time></trkpt><trkpt lat="41.4947533" lon="1.7869077"><ele>292.0</ele><time>2026-04-05T11:55:35.794Z</time></trkpt><trkpt lat="41.4948641" lon="1.7868166"><ele>291.0</ele><time>2026-04-05T11:55:36.793Z</time></trkpt><trkpt lat="41.4949759" lon="1.7867216"><ele>290.0</ele><time>2026-04-05T11:55:37.794Z</time></trkpt><trkpt lat="41.4950936" lon="1.7866294"><ele>289.0</ele><time>2026-04-05T11:55:38.793Z</time></trkpt><trkpt lat="41.4952158" lon="1.7865469"><ele>289.0</ele><time>2026-04-05T11:55:39.793Z</time></trkpt><trkpt lat="41.4953395" lon="1.7864818"><ele>289.0</ele><time>2026-04-05T11:55:40.793Z</time></trkpt><trkpt lat="41.4954833" lon="1.7864292"><ele>289.0</ele><time>2026-04-05T11:55:41.794Z</time></trkpt><trkpt lat="41.4956512" lon="1.7863937"><ele>289.66666666666663</ele><time>2026-04-05T11:55:42.793Z</time></trkpt><trkpt lat="41.4958374" lon="1.786369"><ele>290.3333333333333</ele><time>2026-04-05T11:55:43.794Z</time></trkpt><trkpt lat="41.4960366" lon="1.786345"><ele>291.0</ele><time>2026-04-05T11:55:44.793Z</time></trkpt><trkpt lat="41.4962367" lon="1.7863141"><ele>289.3333333333333</ele><time>2026-04-05T11:55:45.794Z</time></trkpt><trkpt lat="41.4964233" lon="1.7862786"><ele>287.66666666666663</ele><time>2026-04-05T11:55:46.794Z</time></trkpt><trkpt lat="41.4966045" lon="1.7862581"><ele>286.0</ele><time>2026-04-05T11:55:47.793Z</time></trkpt><trkpt lat="41.4967787" lon="1.7862714"><ele>286.0</ele><time>2026-04-05T11:55:48.794Z</time></trkpt><trkpt lat="41.4969409" lon="1.7863187"><ele>286.0</ele><time>2026-04-05T11:55:49.794Z</time></trkpt><trkpt lat="41.4970958" lon="1.7863805"><ele>286.0</ele><time>2026-04-05T11:55:50.793Z</time></trkpt><trkpt lat="41.4972543" lon="1.7864317"><ele>286.3333333333333</ele><time>2026-04-05T11:55:51.794Z</time></trkpt><trkpt lat="41.4974253" lon="1.7864527"><ele>286.6666666666667</ele><time>2026-04-05T11:55:52.794Z</time></trkpt><trkpt lat="41.4976069" lon="1.7864431"><ele>287.0</ele><time>2026-04-05T11:55:53.794Z</time></trkpt><trkpt lat="41.4977852" lon="1.7864234"><ele>286.33333333333337</ele><time>2026-04-05T11:55:54.793Z</time></trkpt><trkpt lat="41.4979622" lon="1.7864106"><ele>285.6666666666667</ele><time>2026-04-05T11:55:55.793Z</time></trkpt><trkpt lat="41.4981495" lon="1.7864038"><ele>285.0</ele><time>2026-04-05T11:55:56.794Z</time></trkpt><trkpt lat="41.4983369" lon="1.7864112"><ele>285.0</ele><time>2026-04-05T11:55:57.794Z</time></trkpt><trkpt lat="41.498515" lon="1.7864536"><ele>285.0</ele><time>2026-04-05T11:55:58.793Z</time></trkpt><trkpt lat="41.4986926" lon="1.7865221"><ele>285.0</ele><time>2026-04-05T11:55:59.793Z</time></trkpt><trkpt lat="41.4988798" lon="1.7866066"><ele>284.6666666666667</ele><time>2026-04-05T11:56:00.793Z</time></trkpt><trkpt lat="41.499074" lon="1.7866896"><ele>284.33333333333337</ele><time>2026-04-05T11:56:01.793Z</time></trkpt><trkpt lat="41.4992616" lon="1.786771"><ele>284.0</ele><time>2026-04-05T11:56:02.794Z</time></trkpt><trkpt lat="41.4994424" lon="1.7868759"><ele>285.33333333333337</ele><time>2026-04-05T11:56:03.793Z</time></trkpt><trkpt lat="41.4995974" lon="1.7870104"><ele>286.6666666666667</ele><time>2026-04-05T11:56:04.793Z</time></trkpt><trkpt lat="41.4997304" lon="1.787171"><ele>288.0</ele><time>2026-04-05T11:56:05.793Z</time></trkpt><trkpt lat="41.4998561" lon="1.7873375"><ele>288.0</ele><time>2026-04-05T11:56:06.793Z</time></trkpt><trkpt lat="41.4999906" lon="1.7874907"><ele>288.0</ele><time>2026-04-05T11:56:07.794Z</time></trkpt><trkpt lat="41.5001387" lon="1.7876369"><ele>288.0</ele><time>2026-04-05T11:56:08.794Z</time></trkpt><trkpt lat="41.5003064" lon="1.7877621"><ele>289.6666666666667</ele><time>2026-04-05T11:56:09.794Z</time></trkpt><trkpt lat="41.5004847" lon="1.7878497"><ele>291.33333333333337</ele><time>2026-04-05T11:56:10.794Z</time></trkpt><trkpt lat="41.5006658" lon="1.7878983"><ele>293.0</ele><time>2026-04-05T11:56:11.793Z</time></trkpt><trkpt lat="41.5008596" lon="1.7879177"><ele>293.0</ele><time>2026-04-05T11:56:12.793Z</time></trkpt><trkpt lat="41.501046" lon="1.7879229"><ele>293.0</ele><time>2026-04-05T11:56:13.793Z</time></trkpt><trkpt lat="41.5012207" lon="1.7879334"><ele>293.0</ele><time>2026-04-05T11:56:14.794Z</time></trkpt><trkpt lat="41.5013888" lon="1.7879411"><ele>294.0</ele><time>2026-04-05T11:56:15.794Z</time></trkpt><trkpt lat="41.5015452" lon="1.7879458"><ele>295.0</ele><time>2026-04-05T11:56:16.793Z</time></trkpt><trkpt lat="41.5016982" lon="1.7879464"><ele>296.0</ele><time>2026-04-05T11:56:17.793Z</time></trkpt><trkpt lat="41.5018273" lon="1.7879501"><ele>297.0</ele><time>2026-04-05T11:56:18.793Z</time></trkpt><trkpt lat="41.5019457" lon="1.7879591"><ele>297.0</ele><time>2026-04-05T11:56:19.794Z</time></trkpt><trkpt lat="41.502058" lon="1.7879735"><ele>297.0</ele><time>2026-04-05T11:56:20.793Z</time></trkpt><trkpt lat="41.5021568" lon="1.7880093"><ele>297.0</ele><time>2026-04-05T11:56:21.793Z</time></trkpt><trkpt lat="41.502244" lon="1.7880678"><ele>297.0</ele><time>2026-04-05T11:56:22.793Z</time></trkpt><trkpt lat="41.5023268" lon="1.7881541"><ele>297.0</ele><time>2026-04-05T11:56:23.794Z</time></trkpt><trkpt lat="41.5024023" lon="1.7882721"><ele>297.0</ele><time>2026-04-05T11:56:24.793Z</time></trkpt><trkpt lat="41.502447" lon="1.7884114"><ele>297.0</ele><time>2026-04-05T11:56:25.793Z</time></trkpt><trkpt lat="41.5024622" lon="1.7885631"><ele>297.0</ele><time>2026-04-05T11:56:26.793Z</time></trkpt><trkpt lat="41.5024623" lon="1.7887113"><ele>297.0</ele><time>2026-04-05T11:56:27.793Z</time></trkpt><trkpt lat="41.5024576" lon="1.7888489"><ele>297.0</ele><time>2026-04-05T11:56:28.794Z</time></trkpt><trkpt lat="41.5024525" lon="1.7889743"><ele>297.0</ele><time>2026-04-05T11:56:29.794Z</time></trkpt><trkpt lat="41.5024453" lon="1.7890942"><ele>297.0</ele><time>2026-04-05T11:56:30.793Z</time></trkpt><trkpt lat="41.5024308" lon="1.7892351"><ele>297.0</ele><time>2026-04-05T11:56:31.793Z</time></trkpt><trkpt lat="41.5024193" lon="1.789408"><ele>297.0</ele><time>2026-04-05T11:56:32.793Z</time></trkpt><trkpt lat="41.5024025" lon="1.7896169"><ele>296.0</ele><time>2026-04-05T11:56:33.794Z</time></trkpt><trkpt lat="41.5023806" lon="1.78983"><ele>295.0</ele><time>2026-04-05T11:56:34.794Z</time></trkpt><trkpt lat="41.5023517" lon="1.7900491"><ele>294.0</ele><time>2026-04-05T11:56:35.793Z</time></trkpt><trkpt lat="41.5023131" lon="1.7902661"><ele>293.3333333333333</ele><time>2026-04-05T11:56:36.794Z</time></trkpt><trkpt lat="41.502274" lon="1.7904832"><ele>292.66666666666663</ele><time>2026-04-05T11:56:37.794Z</time></trkpt><trkpt lat="41.5022301" lon="1.7907043"><ele>292.0</ele><time>2026-04-05T11:56:38.794Z</time></trkpt><trkpt lat="41.5021931" lon="1.7909319"><ele>291.66666666666663</ele><time>2026-04-05T11:56:39.793Z</time></trkpt><trkpt lat="41.5021617" lon="1.7911706"><ele>291.3333333333333</ele><time>2026-04-05T11:56:40.794Z</time></trkpt><trkpt lat="41.5021444" lon="1.7914146"><ele>291.0</ele><time>2026-04-05T11:56:41.794Z</time></trkpt><trkpt lat="41.5021386" lon="1.7916624"><ele>290.0</ele><time>2026-04-05T11:56:42.793Z</time></trkpt><trkpt lat="41.5021429" lon="1.7919084"><ele>289.0</ele><time>2026-04-05T11:56:43.793Z</time></trkpt><trkpt lat="41.5021594" lon="1.792151"><ele>288.0</ele><time>2026-04-05T11:56:44.794Z</time></trkpt><trkpt lat="41.5021881" lon="1.7923926"><ele>288.0</ele><time>2026-04-05T11:56:45.793Z</time></trkpt><trkpt lat="41.5022267" lon="1.7926319"><ele>288.0</ele><time>2026-04-05T11:56:46.793Z</time></trkpt><trkpt lat="41.5022748" lon="1.7928722"><ele>288.0</ele><time>2026-04-05T11:56:47.793Z</time></trkpt><trkpt lat="41.5023206" lon="1.7931132"><ele>288.0</ele><time>2026-04-05T11:56:48.793Z</time></trkpt><trkpt lat="41.5023651" lon="1.7933616"><ele>288.0</ele><time>2026-04-05T11:56:49.793Z</time></trkpt><trkpt lat="41.5024033" lon="1.7936131"><ele>288.0</ele><time>2026-04-05T11:56:50.794Z</time></trkpt><trkpt lat="41.5024358" lon="1.7938623"><ele>288.0</ele><time>2026-04-05T11:56:51.794Z</time></trkpt><trkpt lat="41.502455" lon="1.7941118"><ele>288.0</ele><time>2026-04-05T11:56:52.794Z</time></trkpt><trkpt lat="41.5024641" lon="1.7943624"><ele>288.0</ele><time>2026-04-05T11:56:53.794Z</time></trkpt><trkpt lat="41.5024653" lon="1.7946167"><ele>286.6666666666667</ele><time>2026-04-05T11:56:54.794Z</time></trkpt><trkpt lat="41.5024639" lon="1.7948938"><ele>285.33333333333337</ele><time>2026-04-05T11:56:55.793Z</time></trkpt><trkpt lat="41.5024595" lon="1.7951855"><ele>284.0</ele><time>2026-04-05T11:56:56.793Z</time></trkpt><trkpt lat="41.5024469" lon="1.795507"><ele>281.5</ele><time>2026-04-05T11:56:57.794Z</time></trkpt><trkpt lat="41.5024282" lon="1.7958457"><ele>279.0</ele><time>2026-04-05T11:56:58.793Z</time></trkpt><trkpt lat="41.5024004" lon="1.7961754"><ele>278.0</ele><time>2026-04-05T11:56:59.794Z</time></trkpt><trkpt lat="41.5023771" lon="1.7964934"><ele>277.0</ele><time>2026-04-05T11:57:00.793Z</time></trkpt><trkpt lat="41.5023604" lon="1.7967967"><ele>275.66666666666663</ele><time>2026-04-05T11:57:01.793Z</time></trkpt><trkpt lat="41.5023454" lon="1.7970883"><ele>274.3333333333333</ele><time>2026-04-05T11:57:02.793Z</time></trkpt><trkpt lat="41.5023287" lon="1.7973835"><ele>273.0</ele><time>2026-04-05T11:57:03.794Z</time></trkpt><trkpt lat="41.5023115" lon="1.7976863"><ele>271.5</ele><time>2026-04-05T11:57:04.793Z</time></trkpt><trkpt lat="41.5022916" lon="1.7980114"><ele>270.0</ele><time>2026-04-05T11:57:05.793Z</time></trkpt><trkpt lat="41.502275" lon="1.7983435"><ele>270.5</ele><time>2026-04-05T11:57:06.794Z</time></trkpt><trkpt lat="41.502259" lon="1.7986742"><ele>271.0</ele><time>2026-04-05T11:57:07.793Z</time></trkpt><trkpt lat="41.5022414" lon="1.798996"><ele>271.0</ele><time>2026-04-05T11:57:08.793Z</time></trkpt><trkpt lat="41.5022251" lon="1.7993029"><ele>271.0</ele><time>2026-04-05T11:57:09.793Z</time></trkpt><trkpt lat="41.5022082" lon="1.7995963"><ele>271.0</ele><time>2026-04-05T11:57:10.793Z</time></trkpt><trkpt lat="41.5021883" lon="1.7998727"><ele>271.0</ele><time>2026-04-05T11:57:11.794Z</time></trkpt><trkpt lat="41.5021736" lon="1.8001401"><ele>271.0</ele><time>2026-04-05T11:57:12.793Z</time></trkpt><trkpt lat="41.5021566" lon="1.8004052"><ele>271.0</ele><time>2026-04-05T11:57:13.793Z</time></trkpt><trkpt lat="41.5021315" lon="1.8006638"><ele>271.0</ele><time>2026-04-05T11:57:14.793Z</time></trkpt><trkpt lat="41.5021019" lon="1.8009253"><ele>271.0</ele><time>2026-04-05T11:57:15.793Z</time></trkpt><trkpt lat="41.5020602" lon="1.801189"><ele>270.3333333333333</ele><time>2026-04-05T11:57:16.794Z</time></trkpt><trkpt lat="41.5020117" lon="1.8014566"><ele>269.6666666666667</ele><time>2026-04-05T11:57:17.794Z</time></trkpt><trkpt lat="41.5019552" lon="1.8017243"><ele>269.0</ele><time>2026-04-05T11:57:18.794Z</time></trkpt><trkpt lat="41.5018828" lon="1.8019979"><ele>268.6666666666667</ele><time>2026-04-05T11:57:19.793Z</time></trkpt><trkpt lat="41.5018023" lon="1.8022629"><ele>268.3333333333333</ele><time>2026-04-05T11:57:20.793Z</time></trkpt><trkpt lat="41.5017117" lon="1.8025305"><ele>268.0</ele><time>2026-04-05T11:57:21.794Z</time></trkpt><trkpt lat="41.5016144" lon="1.8028043"><ele>268.0</ele><time>2026-04-05T11:57:22.793Z</time></trkpt><trkpt lat="41.5015102" lon="1.8030813"><ele>268.0</ele><time>2026-04-05T11:57:23.794Z</time></trkpt><trkpt lat="41.5014045" lon="1.8033437"><ele>267.3333333333333</ele><time>2026-04-05T11:57:24.794Z</time></trkpt><trkpt lat="41.5012901" lon="1.803597"><ele>266.6666666666667</ele><time>2026-04-05T11:57:25.793Z</time></trkpt><trkpt lat="41.5011684" lon="1.8038478"><ele>266.0</ele><time>2026-04-05T11:57:26.794Z</time></trkpt><trkpt lat="41.5010369" lon="1.8040953"><ele>263.0</ele><time>2026-04-05T11:57:27.794Z</time></trkpt><trkpt lat="41.5008962" lon="1.8043437"><ele>260.0</ele><time>2026-04-05T11:57:28.793Z</time></trkpt><trkpt lat="41.5007527" lon="1.8045869"><ele>260.0</ele><time>2026-04-05T11:57:29.793Z</time></trkpt><trkpt lat="41.5006043" lon="1.8048217"><ele>260.0</ele><time>2026-04-05T11:57:30.793Z</time></trkpt><trkpt lat="41.5004566" lon="1.8050527"><ele>258.0</ele><time>2026-04-05T11:57:31.794Z</time></trkpt><trkpt lat="41.5002976" lon="1.8052768"><ele>256.0</ele><time>2026-04-05T11:57:32.794Z</time></trkpt><trkpt lat="41.5001326" lon="1.8054942"><ele>256.0</ele><time>2026-04-05T11:57:33.793Z</time></trkpt><trkpt lat="41.4999635" lon="1.8057007"><ele>256.0</ele><time>2026-04-05T11:57:34.794Z</time></trkpt><trkpt lat="41.4997895" lon="1.8059018"><ele>258.0</ele><time>2026-04-05T11:57:35.794Z</time></trkpt><trkpt lat="41.4996088" lon="1.806099"><ele>260.0</ele><time>2026-04-05T11:57:36.794Z</time></trkpt><trkpt lat="41.4994304" lon="1.8062994"><ele>260.0</ele><time>2026-04-05T11:57:37.794Z</time></trkpt><trkpt lat="41.4992476" lon="1.8064965"><ele>260.0</ele><time>2026-04-05T11:57:38.794Z</time></trkpt><trkpt lat="41.499069" lon="1.806692"><ele>257.0</ele><time>2026-04-05T11:57:39.794Z</time></trkpt><trkpt lat="41.4988869" lon="1.8068938"><ele>254.0</ele><time>2026-04-05T11:57:40.793Z</time></trkpt><trkpt lat="41.4987087" lon="1.8070927"><ele>254.0</ele><time>2026-04-05T11:57:41.794Z</time></trkpt><trkpt lat="41.4985262" lon="1.8072901"><ele>254.0</ele><time>2026-04-05T11:57:42.794Z</time></trkpt><trkpt lat="41.4983478" lon="1.8074973"><ele>256.5</ele><time>2026-04-05T11:57:43.793Z</time></trkpt><trkpt lat="41.4981701" lon="1.8077003"><ele>259.0</ele><time>2026-04-05T11:57:44.794Z</time></trkpt><trkpt lat="41.4979902" lon="1.8079245"><ele>255.0</ele><time>2026-04-05T11:57:45.793Z</time></trkpt><trkpt lat="41.4978046" lon="1.8081569"><ele>251.0</ele><time>2026-04-05T11:57:46.793Z</time></trkpt><trkpt lat="41.4976248" lon="1.8083951"><ele>255.5</ele><time>2026-04-05T11:57:47.794Z</time></trkpt><trkpt lat="41.497442" lon="1.8086492"><ele>260.0</ele><time>2026-04-05T11:57:48.794Z</time></trkpt><trkpt lat="41.4972559" lon="1.8089195"><ele>259.0</ele><time>2026-04-05T11:57:49.793Z</time></trkpt><trkpt lat="41.4970712" lon="1.8092023"><ele>258.0</ele><time>2026-04-05T11:57:50.794Z</time></trkpt><trkpt lat="41.4968817" lon="1.809494"><ele>258.0</ele><time>2026-04-05T11:57:51.793Z</time></trkpt><trkpt lat="41.4966939" lon="1.8097864"><ele>258.0</ele><time>2026-04-05T11:57:52.793Z</time></trkpt><trkpt lat="41.4965256" lon="1.8100783"><ele>253.5</ele><time>2026-04-05T11:57:53.794Z</time></trkpt><trkpt lat="41.4963655" lon="1.8103696"><ele>249.0</ele><time>2026-04-05T11:57:54.793Z</time></trkpt><trkpt lat="41.4962177" lon="1.8106558"><ele>247.5</ele><time>2026-04-05T11:57:55.793Z</time></trkpt><trkpt lat="41.4960699" lon="1.8109448"><ele>246.0</ele><time>2026-04-05T11:57:56.793Z</time></trkpt><trkpt lat="41.4959214" lon="1.8112432"><ele>244.0</ele><time>2026-04-05T11:57:57.794Z</time></trkpt><trkpt lat="41.4957805" lon="1.8115499"><ele>242.0</ele><time>2026-04-05T11:57:58.793Z</time></trkpt><trkpt lat="41.4956357" lon="1.8118671"><ele>239.0</ele><time>2026-04-05T11:57:59.794Z</time></trkpt><trkpt lat="41.4954956" lon="1.8121909"><ele>236.0</ele><time>2026-04-05T11:58:00.793Z</time></trkpt><trkpt lat="41.4953643" lon="1.8125068"><ele>235.0</ele><time>2026-04-05T11:58:01.793Z</time></trkpt><trkpt lat="41.4952397" lon="1.8128182"><ele>234.0</ele><time>2026-04-05T11:58:02.794Z</time></trkpt><trkpt lat="41.4951179" lon="1.8131342"><ele>234.0</ele><time>2026-04-05T11:58:03.794Z</time></trkpt><trkpt lat="41.4950023" lon="1.8134515"><ele>234.0</ele><time>2026-04-05T11:58:04.794Z</time></trkpt><trkpt lat="41.4948908" lon="1.8137801"><ele>231.5</ele><time>2026-04-05T11:58:05.793Z</time></trkpt><trkpt lat="41.4947863" lon="1.8141045"><ele>229.0</ele><time>2026-04-05T11:58:06.794Z</time></trkpt><trkpt lat="41.4946894" lon="1.8144338"><ele>227.0</ele><time>2026-04-05T11:58:07.793Z</time></trkpt><trkpt lat="41.4945935" lon="1.8147729"><ele>225.0</ele><time>2026-04-05T11:58:08.793Z</time></trkpt><trkpt lat="41.4945041" lon="1.8151158"><ele>224.5</ele><time>2026-04-05T11:58:09.794Z</time></trkpt><trkpt lat="41.4944138" lon="1.8154607"><ele>224.0</ele><time>2026-04-05T11:58:10.794Z</time></trkpt><trkpt lat="41.4943315" lon="1.8158073"><ele>229.5</ele><time>2026-04-05T11:58:11.794Z</time></trkpt><trkpt lat="41.4942553" lon="1.8161525"><ele>235.0</ele><time>2026-04-05T11:58:12.793Z</time></trkpt><trkpt lat="41.494183" lon="1.8164921"><ele>236.0</ele><time>2026-04-05T11:58:13.794Z</time></trkpt><trkpt lat="41.4941212" lon="1.816848"><ele>237.0</ele><time>2026-04-05T11:58:14.793Z</time></trkpt><trkpt lat="41.4940599" lon="1.8172078"><ele>237.0</ele><time>2026-04-05T11:58:15.794Z</time></trkpt><trkpt lat="41.4940063" lon="1.8175741"><ele>237.0</ele><time>2026-04-05T11:58:16.794Z</time></trkpt><trkpt lat="41.4939569" lon="1.8179363"><ele>236.5</ele><time>2026-04-05T11:58:17.794Z</time></trkpt><trkpt lat="41.4939146" lon="1.8182918"><ele>236.0</ele><time>2026-04-05T11:58:18.794Z</time></trkpt><trkpt lat="41.4938817" lon="1.818645"><ele>234.0</ele><time>2026-04-05T11:58:19.793Z</time></trkpt><trkpt lat="41.4938559" lon="1.8189981"><ele>232.0</ele><time>2026-04-05T11:58:20.793Z</time></trkpt><trkpt lat="41.4938388" lon="1.8193505"><ele>232.0</ele><time>2026-04-05T11:58:21.793Z</time></trkpt><trkpt lat="41.4938307" lon="1.8197038"><ele>232.0</ele><time>2026-04-05T11:58:22.794Z</time></trkpt><trkpt lat="41.493822" lon="1.8200419"><ele>232.5</ele><time>2026-04-05T11:58:23.794Z</time></trkpt><trkpt lat="41.4938212" lon="1.8203596"><ele>233.0</ele><time>2026-04-05T11:58:24.793Z</time></trkpt><trkpt lat="41.4938254" lon="1.820672"><ele>233.5</ele><time>2026-04-05T11:58:25.794Z</time></trkpt><trkpt lat="41.4938305" lon="1.8209827"><ele>234.0</ele><time>2026-04-05T11:58:26.793Z</time></trkpt><trkpt lat="41.4938416" lon="1.8212887"><ele>234.0</ele><time>2026-04-05T11:58:27.793Z</time></trkpt><trkpt lat="41.493858" lon="1.8215782"><ele>234.0</ele><time>2026-04-05T11:58:28.793Z</time></trkpt><trkpt lat="41.4938719" lon="1.821857"><ele>234.0</ele><time>2026-04-05T11:58:29.794Z</time></trkpt><trkpt lat="41.4938895" lon="1.8221256"><ele>234.66666666666669</ele><time>2026-04-05T11:58:30.794Z</time></trkpt><trkpt lat="41.4939003" lon="1.8223876"><ele>235.33333333333334</ele><time>2026-04-05T11:58:31.793Z</time></trkpt><trkpt lat="41.4939065" lon="1.8226375"><ele>236.0</ele><time>2026-04-05T11:58:32.793Z</time></trkpt><trkpt lat="41.4939124" lon="1.8228668"><ele>236.33333333333334</ele><time>2026-04-05T11:58:33.794Z</time></trkpt><trkpt lat="41.4939116" lon="1.8230881"><ele>236.66666666666669</ele><time>2026-04-05T11:58:34.793Z</time></trkpt><trkpt lat="41.4939099" lon="1.8233016"><ele>237.0</ele><time>2026-04-05T11:58:35.794Z</time></trkpt><trkpt lat="41.4939091" lon="1.8235003"><ele>236.25</ele><time>2026-04-05T11:58:36.793Z</time></trkpt><trkpt lat="41.4939075" lon="1.8236888"><ele>235.5</ele><time>2026-04-05T11:58:37.793Z</time></trkpt><trkpt lat="41.4939139" lon="1.8238672"><ele>234.75</ele><time>2026-04-05T11:58:38.793Z</time></trkpt><trkpt lat="41.4939299" lon="1.8240184"><ele>234.0</ele><time>2026-04-05T11:58:39.793Z</time></trkpt><trkpt lat="41.4939478" lon="1.8241431"><ele>234.0</ele><time>2026-04-05T11:58:40.793Z</time></trkpt><trkpt lat="41.4939671" lon="1.8242489"><ele>233.99999999999997</ele><time>2026-04-05T11:58:41.793Z</time></trkpt><trkpt lat="41.4939847" lon="1.8243331"><ele>233.99999999999997</ele><time>2026-04-05T11:58:42.794Z</time></trkpt><trkpt lat="41.4940344" lon="1.8244763"><ele>234.0</ele><time>2026-04-05T11:58:44.793Z</time></trkpt><trkpt lat="41.4941543" lon="1.8245215"><ele>234.0</ele><time>2026-04-05T11:58:46.793Z</time></trkpt><trkpt lat="41.4942508" lon="1.8244993"><ele>234.75</ele><time>2026-04-05T11:58:47.794Z</time></trkpt><trkpt lat="41.4943458" lon="1.8244821"><ele>235.5</ele><time>2026-04-05T11:58:48.794Z</time></trkpt><trkpt lat="41.494465" lon="1.8244898"><ele>236.25</ele><time>2026-04-05T11:58:49.793Z</time></trkpt><trkpt lat="41.4945872" lon="1.8245239"><ele>237.0</ele><time>2026-04-05T11:58:50.793Z</time></trkpt><trkpt lat="41.494707" lon="1.8245841"><ele>237.0</ele><time>2026-04-05T11:58:51.793Z</time></trkpt><trkpt lat="41.4948155" lon="1.8246627"><ele>237.0</ele><time>2026-04-05T11:58:52.793Z</time></trkpt><trkpt lat="41.4949205" lon="1.8247531"><ele>237.0</ele><time>2026-04-05T11:58:53.794Z</time></trkpt><trkpt lat="41.4950289" lon="1.8248473"><ele>237.0</ele><time>2026-04-05T11:58:54.793Z</time></trkpt><trkpt lat="41.4951445" lon="1.8249396"><ele>237.0</ele><time>2026-04-05T11:58:55.794Z</time></trkpt><trkpt lat="41.4952676" lon="1.8250271"><ele>237.0</ele><time>2026-04-05T11:58:56.794Z</time></trkpt><trkpt lat="41.4953913" lon="1.8251088"><ele>237.0</ele><time>2026-04-05T11:58:57.794Z</time></trkpt><trkpt lat="41.495523" lon="1.8251803"><ele>237.0</ele><time>2026-04-05T11:58:58.794Z</time></trkpt><trkpt lat="41.4956623" lon="1.8252428"><ele>236.6</ele><time>2026-04-05T11:58:59.794Z</time></trkpt><trkpt lat="41.4957888" lon="1.8252965"><ele>236.2</ele><time>2026-04-05T11:59:00.793Z</time></trkpt><trkpt lat="41.4959082" lon="1.8253404"><ele>235.8</ele><time>2026-04-05T11:59:01.793Z</time></trkpt><trkpt lat="41.4960072" lon="1.8253672"><ele>235.4</ele><time>2026-04-05T11:59:02.793Z</time></trkpt><trkpt lat="41.4960901" lon="1.8253775"><ele>235.0</ele><time>2026-04-05T11:59:03.793Z</time></trkpt><trkpt lat="41.4961601" lon="1.8253843"><ele>235.0</ele><time>2026-04-05T11:59:04.793Z</time></trkpt><trkpt lat="41.4962369" lon="1.8253866"><ele>235.0</ele><time>2026-04-05T11:59:05.793Z</time></trkpt><trkpt lat="41.4963177" lon="1.8253892"><ele>235.0</ele><time>2026-04-05T11:59:06.793Z</time></trkpt><trkpt lat="41.4964098" lon="1.8253845"><ele>235.0</ele><time>2026-04-05T11:59:07.793Z</time></trkpt><trkpt lat="41.4965224" lon="1.8253802"><ele>235.0</ele><time>2026-04-05T11:59:08.793Z</time></trkpt><trkpt lat="41.4966297" lon="1.8253721"><ele>237.75</ele><time>2026-04-05T11:59:09.794Z</time></trkpt><trkpt lat="41.4967635" lon="1.8253719"><ele>240.5</ele><time>2026-04-05T11:59:10.794Z</time></trkpt><trkpt lat="41.4968854" lon="1.8253624"><ele>243.25</ele><time>2026-04-05T11:59:11.794Z</time></trkpt><trkpt lat="41.4969943" lon="1.8253586"><ele>246.0</ele><time>2026-04-05T11:59:12.793Z</time></trkpt><trkpt lat="41.4970875" lon="1.8253463"><ele>247.20000000000002</ele><time>2026-04-05T11:59:13.793Z</time></trkpt><trkpt lat="41.49717" lon="1.8253193"><ele>248.40000000000003</ele><time>2026-04-05T11:59:14.794Z</time></trkpt><trkpt lat="41.4972504" lon="1.8252842"><ele>249.6</ele><time>2026-04-05T11:59:15.793Z</time></trkpt><trkpt lat="41.4973388" lon="1.8252469"><ele>250.8</ele><time>2026-04-05T11:59:16.794Z</time></trkpt><trkpt lat="41.4974313" lon="1.8251878"><ele>252.0</ele><time>2026-04-05T11:59:17.793Z</time></trkpt><trkpt lat="41.4975355" lon="1.8251239"><ele>253.25</ele><time>2026-04-05T11:59:18.794Z</time></trkpt><trkpt lat="41.4976498" lon="1.82506"><ele>254.5</ele><time>2026-04-05T11:59:19.793Z</time></trkpt><trkpt lat="41.4977704" lon="1.8249981"><ele>255.75</ele><time>2026-04-05T11:59:20.793Z</time></trkpt><trkpt lat="41.4978812" lon="1.8249378"><ele>257.0</ele><time>2026-04-05T11:59:21.793Z</time></trkpt><trkpt lat="41.4979882" lon="1.8248817"><ele>257.2</ele><time>2026-04-05T11:59:22.794Z</time></trkpt><trkpt lat="41.4980911" lon="1.8248314"><ele>257.4</ele><time>2026-04-05T11:59:23.793Z</time></trkpt><trkpt lat="41.4981816" lon="1.8247866"><ele>257.6</ele><time>2026-04-05T11:59:24.794Z</time></trkpt><trkpt lat="41.4982586" lon="1.8247416"><ele>257.8</ele><time>2026-04-05T11:59:25.793Z</time></trkpt><trkpt lat="41.4983183" lon="1.8247067"><ele>258.0</ele><time>2026-04-05T11:59:26.794Z</time></trkpt><trkpt lat="41.4984131" lon="1.8246608"><ele>258.0</ele><time>2026-04-05T11:59:28.794Z</time></trkpt><trkpt lat="41.4985279" lon="1.8246044"><ele>258.0</ele><time>2026-04-05T11:59:30.793Z</time></trkpt><trkpt lat="41.4986037" lon="1.8245706"><ele>258.0</ele><time>2026-04-05T11:59:31.794Z</time></trkpt><trkpt lat="41.4986705" lon="1.8245569"><ele>258.0</ele><time>2026-04-05T11:59:32.794Z</time></trkpt><trkpt lat="41.4987675" lon="1.824606"><ele>258.0</ele><time>2026-04-05T11:59:34.794Z</time></trkpt><trkpt lat="41.4988006" lon="1.8246816"><ele>258.0</ele><time>2026-04-05T11:59:35.793Z</time></trkpt><trkpt lat="41.4988203" lon="1.8247889"><ele>260.0</ele><time>2026-04-05T11:59:36.794Z</time></trkpt><trkpt lat="41.4988338" lon="1.8249174"><ele>262.0</ele><time>2026-04-05T11:59:37.794Z</time></trkpt><trkpt lat="41.4988498" lon="1.8250619"><ele>264.0</ele><time>2026-04-05T11:59:38.793Z</time></trkpt><trkpt lat="41.498864" lon="1.8252203"><ele>266.0</ele><time>2026-04-05T11:59:39.794Z</time></trkpt><trkpt lat="41.4988787" lon="1.8253784"><ele>268.0</ele><time>2026-04-05T11:59:40.793Z</time></trkpt><trkpt lat="41.4988937" lon="1.8255391"><ele>268.0</ele><time>2026-04-05T11:59:41.794Z</time></trkpt><trkpt lat="41.4989064" lon="1.825699"><ele>268.0</ele><time>2026-04-05T11:59:42.793Z</time></trkpt><trkpt lat="41.4989191" lon="1.8258511"><ele>268.0</ele><time>2026-04-05T11:59:43.794Z</time></trkpt><trkpt lat="41.4989276" lon="1.8259921"><ele>268.0</ele><time>2026-04-05T11:59:44.793Z</time></trkpt><trkpt lat="41.4989279" lon="1.8261294"><ele>268.0</ele><time>2026-04-05T11:59:45.794Z</time></trkpt><trkpt lat="41.4989073" lon="1.8262781"><ele>268.75</ele><time>2026-04-05T11:59:46.794Z</time></trkpt><trkpt lat="41.4988633" lon="1.8264301"><ele>269.5</ele><time>2026-04-05T11:59:47.794Z</time></trkpt><trkpt lat="41.4988046" lon="1.8265803"><ele>270.25</ele><time>2026-04-05T11:59:48.793Z</time></trkpt><trkpt lat="41.4987366" lon="1.8267314"><ele>271.0</ele><time>2026-04-05T11:59:49.794Z</time></trkpt><trkpt lat="41.4986726" lon="1.8268739"><ele>269.0</ele><time>2026-04-05T11:59:50.794Z</time></trkpt><trkpt lat="41.498611" lon="1.8270092"><ele>267.0</ele><time>2026-04-05T11:59:51.794Z</time></trkpt><trkpt lat="41.4985633" lon="1.8271372"><ele>265.0</ele><time>2026-04-05T11:59:52.793Z</time></trkpt><trkpt lat="41.4985223" lon="1.8272721"><ele>263.0</ele><time>2026-04-05T11:59:53.793Z</time></trkpt><trkpt lat="41.4985032" lon="1.8274294"><ele>263.0</ele><time>2026-04-05T11:59:54.793Z</time></trkpt><trkpt lat="41.4985061" lon="1.8275952"><ele>263.0</ele><time>2026-04-05T11:59:55.793Z</time></trkpt><trkpt lat="41.4985307" lon="1.8277574"><ele>263.0</ele><time>2026-04-05T11:59:56.794Z</time></trkpt><trkpt lat="41.4985817" lon="1.8279079"><ele>263.0</ele><time>2026-04-05T11:59:57.793Z</time></trkpt><trkpt lat="41.4986607" lon="1.8280301"><ele>266.0</ele><time>2026-04-05T11:59:58.794Z</time></trkpt><trkpt lat="41.4987521" lon="1.8281319"><ele>269.0</ele><time>2026-04-05T11:59:59.794Z</time></trkpt><trkpt lat="41.4988634" lon="1.8282118"><ele>272.0</ele><time>2026-04-05T12:00:00.794Z</time></trkpt><trkpt lat="41.4989824" lon="1.8282557"><ele>275.0</ele><time>2026-04-05T12:00:01.794Z</time></trkpt><trkpt lat="41.499103" lon="1.8282655"><ele>275.0</ele><time>2026-04-05T12:00:02.793Z</time></trkpt><trkpt lat="41.4992285" lon="1.8282415"><ele>275.0</ele><time>2026-04-05T12:00:03.794Z</time></trkpt><trkpt lat="41.499345" lon="1.8281824"><ele>275.0</ele><time>2026-04-05T12:00:04.794Z</time></trkpt><trkpt lat="41.4994469" lon="1.8280975"><ele>275.0</ele><time>2026-04-05T12:00:05.794Z</time></trkpt><trkpt lat="41.4995309" lon="1.8279828"><ele>278.25</ele><time>2026-04-05T12:00:06.794Z</time></trkpt><trkpt lat="41.4996123" lon="1.8278446"><ele>281.5</ele><time>2026-04-05T12:00:07.794Z</time></trkpt><trkpt lat="41.4996954" lon="1.8276997"><ele>284.75</ele><time>2026-04-05T12:00:08.794Z</time></trkpt><trkpt lat="41.4997774" lon="1.827577"><ele>288.0</ele><time>2026-04-05T12:00:09.793Z</time></trkpt><trkpt lat="41.4998698" lon="1.8274738"><ele>288.0</ele><time>2026-04-05T12:00:10.794Z</time></trkpt><trkpt lat="41.4999857" lon="1.8274016"><ele>288.0</ele><time>2026-04-05T12:00:11.794Z</time></trkpt><trkpt lat="41.5001119" lon="1.8273627"><ele>288.0</ele><time>2026-04-05T12:00:12.793Z</time></trkpt><trkpt lat="41.5002497" lon="1.8273589"><ele>288.0</ele><time>2026-04-05T12:00:13.793Z</time></trkpt><trkpt lat="41.5004053" lon="1.8273703"><ele>290.0</ele><time>2026-04-05T12:00:14.793Z</time></trkpt><trkpt lat="41.5005488" lon="1.82738"><ele>292.0</ele><time>2026-04-05T12:00:15.794Z</time></trkpt><trkpt lat="41.5006844" lon="1.827392"><ele>294.0</ele><time>2026-04-05T12:00:16.794Z</time></trkpt><trkpt lat="41.5008091" lon="1.827402"><ele>296.0</ele><time>2026-04-05T12:00:17.793Z</time></trkpt><trkpt lat="41.5009116" lon="1.8274089"><ele>296.0</ele><time>2026-04-05T12:00:18.793Z</time></trkpt><trkpt lat="41.5009887" lon="1.8274144"><ele>296.0</ele><time>2026-04-05T12:00:19.794Z</time></trkpt><trkpt lat="41.5010909" lon="1.8274704"><ele>296.0</ele><time>2026-04-05T12:00:21.793Z</time></trkpt><trkpt lat="41.5011321" lon="1.8275813"><ele>296.0</ele><time>2026-04-05T12:00:23.794Z</time></trkpt><trkpt lat="41.5011254" lon="1.8276689"><ele>296.0</ele><time>2026-04-05T12:00:24.793Z</time></trkpt><trkpt lat="41.5010982" lon="1.827767"><ele>296.0</ele><time>2026-04-05T12:00:25.794Z</time></trkpt><trkpt lat="41.5010746" lon="1.8278656"><ele>296.1666666666667</ele><time>2026-04-05T12:00:26.794Z</time></trkpt><trkpt lat="41.5010781" lon="1.8279559"><ele>296.33333333333337</ele><time>2026-04-05T12:00:27.793Z</time></trkpt><trkpt lat="41.5011109" lon="1.8280278"><ele>296.5</ele><time>2026-04-05T12:00:28.793Z</time></trkpt><trkpt lat="41.5011663" lon="1.8280786"><ele>296.6666666666667</ele><time>2026-04-05T12:00:29.794Z</time></trkpt><trkpt lat="41.5012446" lon="1.8281021"><ele>296.8333333333333</ele><time>2026-04-05T12:00:30.794Z</time></trkpt><trkpt lat="41.5013383" lon="1.8281028"><ele>297.0</ele><time>2026-04-05T12:00:31.794Z</time></trkpt><trkpt lat="41.5014386" lon="1.8280942"><ele>297.0</ele><time>2026-04-05T12:00:32.793Z</time></trkpt><trkpt lat="41.5015354" lon="1.8280813"><ele>297.0</ele><time>2026-04-05T12:00:33.794Z</time></trkpt><trkpt lat="41.5016258" lon="1.8280636"><ele>297.0</ele><time>2026-04-05T12:00:34.793Z</time></trkpt><trkpt lat="41.5017119" lon="1.8280425"><ele>297.0</ele><time>2026-04-05T12:00:35.793Z</time></trkpt><trkpt lat="41.5017983" lon="1.8280248"><ele>297.0</ele><time>2026-04-05T12:00:36.793Z</time></trkpt><trkpt lat="41.5018953" lon="1.828025"><ele>297.0</ele><time>2026-04-05T12:00:37.793Z</time></trkpt><trkpt lat="41.5019976" lon="1.8280378"><ele>297.0</ele><time>2026-04-05T12:00:38.794Z</time></trkpt><trkpt lat="41.5021058" lon="1.8280646"><ele>297.0</ele><time>2026-04-05T12:00:39.793Z</time></trkpt><trkpt lat="41.5022128" lon="1.8281048"><ele>297.0</ele><time>2026-04-05T12:00:40.793Z</time></trkpt><trkpt lat="41.5023102" lon="1.8281534"><ele>297.0</ele><time>2026-04-05T12:00:41.794Z</time></trkpt><trkpt lat="41.502389" lon="1.8282012"><ele>295.2</ele><time>2026-04-05T12:00:42.793Z</time></trkpt><trkpt lat="41.5024502" lon="1.8282329"><ele>293.4</ele><time>2026-04-05T12:00:43.793Z</time></trkpt><trkpt lat="41.5025488" lon="1.8282818"><ele>291.6</ele><time>2026-04-05T12:00:45.793Z</time></trkpt><trkpt lat="41.502681" lon="1.8283515"><ele>289.8</ele><time>2026-04-05T12:00:47.793Z</time></trkpt><trkpt lat="41.5027654" lon="1.8284013"><ele>288.0</ele><time>2026-04-05T12:00:48.794Z</time></trkpt><trkpt lat="41.5028506" lon="1.8284551"><ele>286.0</ele><time>2026-04-05T12:00:49.794Z</time></trkpt><trkpt lat="41.5029401" lon="1.8285203"><ele>284.0</ele><time>2026-04-05T12:00:50.794Z</time></trkpt><trkpt lat="41.5030248" lon="1.8285952"><ele>282.0</ele><time>2026-04-05T12:00:51.793Z</time></trkpt><trkpt lat="41.5031087" lon="1.8286623"><ele>280.0</ele><time>2026-04-05T12:00:52.793Z</time></trkpt><trkpt lat="41.5031859" lon="1.8287273"><ele>278.0</ele><time>2026-04-05T12:00:53.793Z</time></trkpt><trkpt lat="41.5032593" lon="1.8287903"><ele>278.0</ele><time>2026-04-05T12:00:54.793Z</time></trkpt><trkpt lat="41.5033304" lon="1.8288559"><ele>278.0</ele><time>2026-04-05T12:00:55.794Z</time></trkpt><trkpt lat="41.5033972" lon="1.8289217"><ele>278.0</ele><time>2026-04-05T12:00:56.794Z</time></trkpt><trkpt lat="41.5034583" lon="1.8289809"><ele>278.0</ele><time>2026-04-05T12:00:57.794Z</time></trkpt><trkpt lat="41.5035212" lon="1.8290121"><ele>278.0</ele><time>2026-04-05T12:00:58.793Z</time></trkpt><trkpt lat="41.5036407" lon="1.828968"><ele>278.0</ele><time>2026-04-05T12:01:00.794Z</time></trkpt><trkpt lat="41.5037232" lon="1.8289432"><ele>278.25</ele><time>2026-04-05T12:01:01.794Z</time></trkpt><trkpt lat="41.5038276" lon="1.8289493"><ele>278.5</ele><time>2026-04-05T12:01:02.793Z</time></trkpt><trkpt lat="41.5039404" lon="1.8289753"><ele>278.75</ele><time>2026-04-05T12:01:03.794Z</time></trkpt><trkpt lat="41.5040561" lon="1.8290061"><ele>279.0</ele><time>2026-04-05T12:01:04.794Z</time></trkpt><trkpt lat="41.5041758" lon="1.8290222"><ele>279.0</ele><time>2026-04-05T12:01:05.793Z</time></trkpt><trkpt lat="41.5042998" lon="1.8290174"><ele>279.0</ele><time>2026-04-05T12:01:06.794Z</time></trkpt><trkpt lat="41.5044277" lon="1.8290005"><ele>279.0</ele><time>2026-04-05T12:01:07.793Z</time></trkpt><trkpt lat="41.5045511" lon="1.8289705"><ele>279.0</ele><time>2026-04-05T12:01:08.794Z</time></trkpt><trkpt lat="41.5046681" lon="1.8289191"><ele>278.59999999999997</ele><time>2026-04-05T12:01:09.793Z</time></trkpt><trkpt lat="41.5047634" lon="1.8288541"><ele>278.2</ele><time>2026-04-05T12:01:10.794Z</time></trkpt><trkpt lat="41.5048421" lon="1.8287758"><ele>277.79999999999995</ele><time>2026-04-05T12:01:11.794Z</time></trkpt><trkpt lat="41.5049043" lon="1.828684"><ele>277.4</ele><time>2026-04-05T12:01:12.794Z</time></trkpt><trkpt lat="41.5049736" lon="1.8285966"><ele>277.0</ele><time>2026-04-05T12:01:13.794Z</time></trkpt><trkpt lat="41.5050502" lon="1.8285376"><ele>277.0</ele><time>2026-04-05T12:01:14.794Z</time></trkpt><trkpt lat="41.5051363" lon="1.8285036"><ele>277.0</ele><time>2026-04-05T12:01:15.794Z</time></trkpt><trkpt lat="41.5052297" lon="1.8284915"><ele>277.0</ele><time>2026-04-05T12:01:16.793Z</time></trkpt><trkpt lat="41.5053254" lon="1.8284823"><ele>277.0</ele><time>2026-04-05T12:01:17.794Z</time></trkpt><trkpt lat="41.5054228" lon="1.8284777"><ele>277.0</ele><time>2026-04-05T12:01:18.793Z</time></trkpt><trkpt lat="41.5055155" lon="1.8284679"><ele>272.8</ele><time>2026-04-05T12:01:19.794Z</time></trkpt><trkpt lat="41.5055963" lon="1.8284267"><ele>268.6</ele><time>2026-04-05T12:01:20.793Z</time></trkpt><trkpt lat="41.5056678" lon="1.8283512"><ele>264.40000000000003</ele><time>2026-04-05T12:01:21.794Z</time></trkpt><trkpt lat="41.5057272" lon="1.8282579"><ele>260.2</ele><time>2026-04-05T12:01:22.793Z</time></trkpt><trkpt lat="41.505785" lon="1.8281459"><ele>256.0</ele><time>2026-04-05T12:01:23.794Z</time></trkpt><trkpt lat="41.5058445" lon="1.8280393"><ele>256.0</ele><time>2026-04-05T12:01:24.793Z</time></trkpt><trkpt lat="41.5059061" lon="1.8279421"><ele>256.0</ele><time>2026-04-05T12:01:25.793Z</time></trkpt><trkpt lat="41.5059694" lon="1.827852"><ele>256.0</ele><time>2026-04-05T12:01:26.794Z</time></trkpt><trkpt lat="41.5060329" lon="1.82777"><ele>256.0</ele><time>2026-04-05T12:01:27.793Z</time></trkpt><trkpt lat="41.5060987" lon="1.8276852"><ele>256.0</ele><time>2026-04-05T12:01:28.794Z</time></trkpt><trkpt lat="41.5061768" lon="1.8275934"><ele>255.20000000000002</ele><time>2026-04-05T12:01:29.793Z</time></trkpt><trkpt lat="41.5062593" lon="1.8274949"><ele>254.40000000000003</ele><time>2026-04-05T12:01:30.794Z</time></trkpt><trkpt lat="41.506347" lon="1.827406"><ele>253.6</ele><time>2026-04-05T12:01:31.793Z</time></trkpt><trkpt lat="41.5064268" lon="1.8273169"><ele>252.8</ele><time>2026-04-05T12:01:32.793Z</time></trkpt><trkpt lat="41.5065039" lon="1.8272317"><ele>252.0</ele><time>2026-04-05T12:01:33.794Z</time></trkpt><trkpt lat="41.5065831" lon="1.8271452"><ele>252.0</ele><time>2026-04-05T12:01:34.793Z</time></trkpt><trkpt lat="41.5066595" lon="1.8270663"><ele>252.0</ele><time>2026-04-05T12:01:35.793Z</time></trkpt><trkpt lat="41.5067301" lon="1.82699"><ele>252.0</ele><time>2026-04-05T12:01:36.793Z</time></trkpt><trkpt lat="41.5068036" lon="1.826917"><ele>252.0</ele><time>2026-04-05T12:01:37.793Z</time></trkpt><trkpt lat="41.5068781" lon="1.8268441"><ele>252.0</ele><time>2026-04-05T12:01:38.793Z</time></trkpt><trkpt lat="41.5069637" lon="1.826776"><ele>251.0</ele><time>2026-04-05T12:01:39.793Z</time></trkpt><trkpt lat="41.5070419" lon="1.8267024"><ele>250.0</ele><time>2026-04-05T12:01:40.793Z</time></trkpt><trkpt lat="41.5071218" lon="1.8266288"><ele>249.0</ele><time>2026-04-05T12:01:41.793Z</time></trkpt><trkpt lat="41.5072013" lon="1.8265613"><ele>248.0</ele><time>2026-04-05T12:01:42.793Z</time></trkpt><trkpt lat="41.5072767" lon="1.8264967"><ele>247.0</ele><time>2026-04-05T12:01:43.793Z</time></trkpt><trkpt lat="41.5073514" lon="1.8264245"><ele>245.6</ele><time>2026-04-05T12:01:44.793Z</time></trkpt><trkpt lat="41.5074251" lon="1.8263601"><ele>244.2</ele><time>2026-04-05T12:01:45.793Z</time></trkpt><trkpt lat="41.5075004" lon="1.8262888"><ele>242.8</ele><time>2026-04-05T12:01:46.793Z</time></trkpt><trkpt lat="41.5075752" lon="1.8262214"><ele>241.4</ele><time>2026-04-05T12:01:47.793Z</time></trkpt><trkpt lat="41.507652" lon="1.8261509"><ele>240.0</ele><time>2026-04-05T12:01:48.793Z</time></trkpt><trkpt lat="41.5077301" lon="1.8260885"><ele>240.0</ele><time>2026-04-05T12:01:49.794Z</time></trkpt><trkpt lat="41.5078109" lon="1.8260206"><ele>240.0</ele><time>2026-04-05T12:01:50.794Z</time></trkpt><trkpt lat="41.5078933" lon="1.8259503"><ele>240.0</ele><time>2026-04-05T12:01:51.793Z</time></trkpt><trkpt lat="41.5079744" lon="1.8258806"><ele>240.0</ele><time>2026-04-05T12:01:52.794Z</time></trkpt><trkpt lat="41.5080547" lon="1.8258071"><ele>240.0</ele><time>2026-04-05T12:01:53.793Z</time></trkpt><trkpt lat="41.5081371" lon="1.825738"><ele>238.0</ele><time>2026-04-05T12:01:54.794Z</time></trkpt><trkpt lat="41.5082188" lon="1.8256677"><ele>236.0</ele><time>2026-04-05T12:01:55.794Z</time></trkpt><trkpt lat="41.5082876" lon="1.8256104"><ele>234.0</ele><time>2026-04-05T12:01:56.793Z</time></trkpt><trkpt lat="41.508349" lon="1.8255709"><ele>232.0</ele><time>2026-04-05T12:01:57.794Z</time></trkpt><trkpt lat="41.5084163" lon="1.8255276"><ele>230.0</ele><time>2026-04-05T12:01:58.794Z</time></trkpt><trkpt lat="41.5085069" lon="1.8254318"><ele>228.0</ele><time>2026-04-05T12:02:00.794Z</time></trkpt><trkpt lat="41.508531" lon="1.8252937"><ele>228.0</ele><time>2026-04-05T12:02:02.793Z</time></trkpt><trkpt lat="41.5084499" lon="1.8251536"><ele>228.0</ele><time>2026-04-05T12:02:04.794Z</time></trkpt><trkpt lat="41.5083976" lon="1.8250774"><ele>228.0</ele><time>2026-04-05T12:02:05.794Z</time></trkpt><trkpt lat="41.5083234" lon="1.8249964"><ele>228.0</ele><time>2026-04-05T12:02:06.794Z</time></trkpt><trkpt lat="41.5082415" lon="1.8249086"><ele>228.0</ele><time>2026-04-05T12:02:07.794Z</time></trkpt><trkpt lat="41.5081645" lon="1.8248429"><ele>227.83333333333334</ele><time>2026-04-05T12:02:08.794Z</time></trkpt><trkpt lat="41.5080903" lon="1.8247993"><ele>227.66666666666669</ele><time>2026-04-05T12:02:09.793Z</time></trkpt><trkpt lat="41.5080001" lon="1.8247557"><ele>227.5</ele><time>2026-04-05T12:02:10.794Z</time></trkpt><trkpt lat="41.5079059" lon="1.8247243"><ele>227.33333333333334</ele><time>2026-04-05T12:02:11.794Z</time></trkpt><trkpt lat="41.5078183" lon="1.8246964"><ele>227.16666666666669</ele><time>2026-04-05T12:02:12.794Z</time></trkpt><trkpt lat="41.507751" lon="1.8246754"><ele>227.0</ele><time>2026-04-05T12:02:13.793Z</time></trkpt><trkpt lat="41.5076653" lon="1.8246082"><ele>227.6</ele><time>2026-04-05T12:02:15.793Z</time></trkpt><trkpt lat="41.5076889" lon="1.8244882"><ele>228.2</ele><time>2026-04-05T12:02:17.793Z</time></trkpt><trkpt lat="41.5077508" lon="1.8244295"><ele>228.8</ele><time>2026-04-05T12:02:18.793Z</time></trkpt><trkpt lat="41.5078316" lon="1.8243591"><ele>229.4</ele><time>2026-04-05T12:02:19.793Z</time></trkpt><trkpt lat="41.5079257" lon="1.8242823"><ele>230.0</ele><time>2026-04-05T12:02:20.794Z</time></trkpt><trkpt lat="41.5080237" lon="1.8241983"><ele>225.0</ele><time>2026-04-05T12:02:21.794Z</time></trkpt><trkpt lat="41.5081263" lon="1.8241162"><ele>220.0</ele><time>2026-04-05T12:02:22.793Z</time></trkpt><trkpt lat="41.5082402" lon="1.8240502"><ele>215.0</ele><time>2026-04-05T12:02:23.794Z</time></trkpt><trkpt lat="41.508366" lon="1.8240207"><ele>210.0</ele><time>2026-04-05T12:02:24.793Z</time></trkpt><trkpt lat="41.5084978" lon="1.8240211"><ele>210.0</ele><time>2026-04-05T12:02:25.793Z</time></trkpt><trkpt lat="41.5086284" lon="1.8240315"><ele>210.0</ele><time>2026-04-05T12:02:26.794Z</time></trkpt><trkpt lat="41.5087621" lon="1.8240502"><ele>210.0</ele><time>2026-04-05T12:02:27.793Z</time></trkpt><trkpt lat="41.5088932" lon="1.8240837"><ele>210.0</ele><time>2026-04-05T12:02:28.794Z</time></trkpt><trkpt lat="41.5090176" lon="1.8241361"><ele>205.75</ele><time>2026-04-05T12:02:29.793Z</time></trkpt><trkpt lat="41.5091377" lon="1.8241883"><ele>201.5</ele><time>2026-04-05T12:02:30.794Z</time></trkpt><trkpt lat="41.5092592" lon="1.8242345"><ele>197.25</ele><time>2026-04-05T12:02:31.793Z</time></trkpt><trkpt lat="41.5093823" lon="1.8242715"><ele>193.0</ele><time>2026-04-05T12:02:32.793Z</time></trkpt><trkpt lat="41.5095098" lon="1.8242858"><ele>191.25</ele><time>2026-04-05T12:02:33.793Z</time></trkpt><trkpt lat="41.509636" lon="1.8242899"><ele>189.5</ele><time>2026-04-05T12:02:34.793Z</time></trkpt><trkpt lat="41.5097631" lon="1.8242872"><ele>187.75</ele><time>2026-04-05T12:02:35.793Z</time></trkpt><trkpt lat="41.5098877" lon="1.8242943"><ele>186.0</ele><time>2026-04-05T12:02:36.793Z</time></trkpt><trkpt lat="41.5100029" lon="1.8243253"><ele>186.0</ele><time>2026-04-05T12:02:37.794Z</time></trkpt><trkpt lat="41.5101232" lon="1.8243507"><ele>186.0</ele><time>2026-04-05T12:02:38.793Z</time></trkpt><trkpt lat="41.5102354" lon="1.8243707"><ele>186.0</ele><time>2026-04-05T12:02:39.794Z</time></trkpt><trkpt lat="41.5103377" lon="1.8243936"><ele>186.0</ele><time>2026-04-05T12:02:40.793Z</time></trkpt><trkpt lat="41.5104283" lon="1.8244154"><ele>186.0</ele><time>2026-04-05T12:02:41.794Z</time></trkpt><trkpt lat="41.5105097" lon="1.8244444"><ele>186.0</ele><time>2026-04-05T12:02:42.794Z</time></trkpt><trkpt lat="41.5105802" lon="1.8244846"><ele>186.0</ele><time>2026-04-05T12:02:43.794Z</time></trkpt><trkpt lat="41.5106434" lon="1.824533"><ele>186.0</ele><time>2026-04-05T12:02:44.794Z</time></trkpt><trkpt lat="41.5107135" lon="1.8245963"><ele>186.0</ele><time>2026-04-05T12:02:45.793Z</time></trkpt><trkpt lat="41.5108035" lon="1.8246525"><ele>186.0</ele><time>2026-04-05T12:02:46.793Z</time></trkpt><trkpt lat="41.5109132" lon="1.824697"><ele>186.0</ele><time>2026-04-05T12:02:47.793Z</time></trkpt><trkpt lat="41.5110276" lon="1.8247122"><ele>186.0</ele><time>2026-04-05T12:02:48.794Z</time></trkpt><trkpt lat="41.5111212" lon="1.8247312"><ele>186.0</ele><time>2026-04-05T12:02:49.794Z</time></trkpt><trkpt lat="41.5111922" lon="1.8247892"><ele>186.0</ele><time>2026-04-05T12:02:50.793Z</time></trkpt><trkpt lat="41.5112382" lon="1.8248811"><ele>186.0</ele><time>2026-04-05T12:02:51.793Z</time></trkpt><trkpt lat="41.5112603" lon="1.8249986"><ele>186.0</ele><time>2026-04-05T12:02:52.794Z</time></trkpt><trkpt lat="41.511273" lon="1.8251302"><ele>188.8</ele><time>2026-04-05T12:02:53.794Z</time></trkpt><trkpt lat="41.5112897" lon="1.82526"><ele>191.60000000000002</ele><time>2026-04-05T12:02:54.793Z</time></trkpt><trkpt lat="41.5113234" lon="1.8254011"><ele>194.4</ele><time>2026-04-05T12:02:55.793Z</time></trkpt><trkpt lat="41.5113616" lon="1.8255239"><ele>197.2</ele><time>2026-04-05T12:02:56.793Z</time></trkpt><trkpt lat="41.5113923" lon="1.8256483"><ele>200.0</ele><time>2026-04-05T12:02:57.794Z</time></trkpt><trkpt lat="41.5113964" lon="1.8257645"><ele>200.0</ele><time>2026-04-05T12:02:58.793Z</time></trkpt><trkpt lat="41.5113923" lon="1.8258561"><ele>200.0</ele><time>2026-04-05T12:02:59.793Z</time></trkpt><trkpt lat="41.5113794" lon="1.8259398"><ele>200.0</ele><time>2026-04-05T12:03:00.793Z</time></trkpt><trkpt lat="41.511431" lon="1.8260565"><ele>200.0</ele><time>2026-04-05T12:03:02.793Z</time></trkpt><trkpt lat="41.51156" lon="1.8260208"><ele>200.0</ele><time>2026-04-05T12:03:04.794Z</time></trkpt><trkpt lat="41.5116355" lon="1.8259427"><ele>200.0</ele><time>2026-04-05T12:03:05.794Z</time></trkpt><trkpt lat="41.5117152" lon="1.8258428"><ele>200.0</ele><time>2026-04-05T12:03:06.794Z</time></trkpt><trkpt lat="41.5117879" lon="1.8257582"><ele>200.0</ele><time>2026-04-05T12:03:07.794Z</time></trkpt><trkpt lat="41.5118605" lon="1.8256976"><ele>200.0</ele><time>2026-04-05T12:03:08.793Z</time></trkpt><trkpt lat="41.5119399" lon="1.8256641"><ele>200.0</ele><time>2026-04-05T12:03:09.794Z</time></trkpt><trkpt lat="41.5120216" lon="1.8256667"><ele>202.33333333333334</ele><time>2026-04-05T12:03:10.794Z</time></trkpt><trkpt lat="41.5120946" lon="1.8257084"><ele>204.66666666666669</ele><time>2026-04-05T12:03:11.794Z</time></trkpt><trkpt lat="41.5121611" lon="1.8257714"><ele>207.0</ele><time>2026-04-05T12:03:12.794Z</time></trkpt><trkpt lat="41.5122277" lon="1.8258329"><ele>209.33333333333331</ele><time>2026-04-05T12:03:13.794Z</time></trkpt><trkpt lat="41.5122967" lon="1.8258667"><ele>211.66666666666666</ele><time>2026-04-05T12:03:14.793Z</time></trkpt><trkpt lat="41.5123716" lon="1.8258611"><ele>214.0</ele><time>2026-04-05T12:03:15.793Z</time></trkpt><trkpt lat="41.5124596" lon="1.8258316"><ele>213.99999999999997</ele><time>2026-04-05T12:03:16.794Z</time></trkpt><trkpt lat="41.5125486" lon="1.8258133"><ele>214.0</ele><time>2026-04-05T12:03:17.794Z</time></trkpt><trkpt lat="41.5126278" lon="1.8258163"><ele>214.0</ele><time>2026-04-05T12:03:18.793Z</time></trkpt><trkpt lat="41.5127224" lon="1.8259008"><ele>214.0</ele><time>2026-04-05T12:03:20.793Z</time></trkpt><trkpt lat="41.5127593" lon="1.8259816"><ele>213.99999999999997</ele><time>2026-04-05T12:03:21.794Z</time></trkpt><trkpt lat="41.5127833" lon="1.8260853"><ele>214.0</ele><time>2026-04-05T12:03:22.793Z</time></trkpt><trkpt lat="41.5128075" lon="1.8261848"><ele>214.0</ele><time>2026-04-05T12:03:23.794Z</time></trkpt><trkpt lat="41.5128306" lon="1.8262665"><ele>213.99999999999997</ele><time>2026-04-05T12:03:24.794Z</time></trkpt><trkpt lat="41.5129119" lon="1.8263383"><ele>213.99999999999997</ele><time>2026-04-05T12:03:26.794Z</time></trkpt><trkpt lat="41.5129928" lon="1.8262524"><ele>214.0</ele><time>2026-04-05T12:03:28.793Z</time></trkpt><trkpt lat="41.5130389" lon="1.8261547"><ele>214.0</ele><time>2026-04-05T12:03:29.794Z</time></trkpt><trkpt lat="41.5130953" lon="1.8260436"><ele>215.39999999999998</ele><time>2026-04-05T12:03:30.794Z</time></trkpt><trkpt lat="41.5131548" lon="1.8259259"><ele>216.79999999999998</ele><time>2026-04-05T12:03:31.794Z</time></trkpt><trkpt lat="41.51321" lon="1.8258105"><ele>218.20000000000002</ele><time>2026-04-05T12:03:32.793Z</time></trkpt><trkpt lat="41.5132683" lon="1.8257017"><ele>219.60000000000002</ele><time>2026-04-05T12:03:33.793Z</time></trkpt><trkpt lat="41.513327" lon="1.8256014"><ele>221.0</ele><time>2026-04-05T12:03:34.794Z</time></trkpt><trkpt lat="41.5133833" lon="1.8255018"><ele>221.0</ele><time>2026-04-05T12:03:35.794Z</time></trkpt><trkpt lat="41.5134394" lon="1.8254028"><ele>221.00000000000003</ele><time>2026-04-05T12:03:36.793Z</time></trkpt><trkpt lat="41.5135008" lon="1.8252952"><ele>221.00000000000003</ele><time>2026-04-05T12:03:37.794Z</time></trkpt><trkpt lat="41.5135683" lon="1.8251868"><ele>221.0</ele><time>2026-04-05T12:03:38.793Z</time></trkpt><trkpt lat="41.5136338" lon="1.8250823"><ele>221.0</ele><time>2026-04-05T12:03:39.794Z</time></trkpt><trkpt lat="41.5136942" lon="1.8249882"><ele>222.8</ele><time>2026-04-05T12:03:40.793Z</time></trkpt><trkpt lat="41.5137514" lon="1.8249029"><ele>224.60000000000002</ele><time>2026-04-05T12:03:41.793Z</time></trkpt><trkpt lat="41.5138111" lon="1.8248196"><ele>226.4</ele><time>2026-04-05T12:03:42.793Z</time></trkpt><trkpt lat="41.5138843" lon="1.8247255"><ele>228.2</ele><time>2026-04-05T12:03:43.794Z</time></trkpt><trkpt lat="41.5139692" lon="1.8246274"><ele>230.0</ele><time>2026-04-05T12:03:44.794Z</time></trkpt><trkpt lat="41.5140628" lon="1.8245368"><ele>230.0</ele><time>2026-04-05T12:03:45.793Z</time></trkpt><trkpt lat="41.5141596" lon="1.8244371"><ele>230.0</ele><time>2026-04-05T12:03:46.794Z</time></trkpt><trkpt lat="41.5142598" lon="1.8243386"><ele>230.0</ele><time>2026-04-05T12:03:47.794Z</time></trkpt><trkpt lat="41.5143571" lon="1.8242411"><ele>230.0</ele><time>2026-04-05T12:03:48.794Z</time></trkpt><trkpt lat="41.5144529" lon="1.824148"><ele>230.5</ele><time>2026-04-05T12:03:49.793Z</time></trkpt><trkpt lat="41.5145504" lon="1.8240532"><ele>231.0</ele><time>2026-04-05T12:03:50.793Z</time></trkpt><trkpt lat="41.5146529" lon="1.8239674"><ele>231.5</ele><time>2026-04-05T12:03:51.793Z</time></trkpt><trkpt lat="41.5147641" lon="1.8238773"><ele>232.0</ele><time>2026-04-05T12:03:52.794Z</time></trkpt><trkpt lat="41.5148878" lon="1.8237816"><ele>234.5</ele><time>2026-04-05T12:03:53.793Z</time></trkpt><trkpt lat="41.5150054" lon="1.8236907"><ele>237.0</ele><time>2026-04-05T12:03:54.794Z</time></trkpt><trkpt lat="41.515117" lon="1.8235977"><ele>239.5</ele><time>2026-04-05T12:03:55.793Z</time></trkpt><trkpt lat="41.5152222" lon="1.8235076"><ele>242.0</ele><time>2026-04-05T12:03:56.794Z</time></trkpt><trkpt lat="41.5153265" lon="1.8234229"><ele>244.0</ele><time>2026-04-05T12:03:57.793Z</time></trkpt><trkpt lat="41.5154324" lon="1.8233436"><ele>246.0</ele><time>2026-04-05T12:03:58.793Z</time></trkpt><trkpt lat="41.5155307" lon="1.8232605"><ele>248.0</ele><time>2026-04-05T12:03:59.794Z</time></trkpt><trkpt lat="41.5156173" lon="1.8231817"><ele>250.0</ele><time>2026-04-05T12:04:00.793Z</time></trkpt><trkpt lat="41.5156976" lon="1.8231083"><ele>252.0</ele><time>2026-04-05T12:04:01.794Z</time></trkpt><trkpt lat="41.5157724" lon="1.8230522"><ele>252.0</ele><time>2026-04-05T12:04:02.793Z</time></trkpt><trkpt lat="41.5158618" lon="1.8229677"><ele>252.0</ele><time>2026-04-05T12:04:03.794Z</time></trkpt><trkpt lat="41.5159682" lon="1.8228527"><ele>252.0</ele><time>2026-04-05T12:04:04.793Z</time></trkpt><trkpt lat="41.5160798" lon="1.8227377"><ele>252.0</ele><time>2026-04-05T12:04:05.793Z</time></trkpt><trkpt lat="41.5162019" lon="1.8226133"><ele>251.66666666666669</ele><time>2026-04-05T12:04:06.794Z</time></trkpt><trkpt lat="41.5163436" lon="1.8224741"><ele>251.33333333333334</ele><time>2026-04-05T12:04:07.793Z</time></trkpt><trkpt lat="41.5165051" lon="1.8223338"><ele>251.0</ele><time>2026-04-05T12:04:08.793Z</time></trkpt><trkpt lat="41.5166905" lon="1.8221927"><ele>251.0</ele><time>2026-04-05T12:04:09.794Z</time></trkpt><trkpt lat="41.5168782" lon="1.8220557"><ele>251.0</ele><time>2026-04-05T12:04:10.794Z</time></trkpt><trkpt lat="41.5170583" lon="1.821933"><ele>251.0</ele><time>2026-04-05T12:04:11.793Z</time></trkpt><trkpt lat="41.5172367" lon="1.8218189"><ele>254.33333333333334</ele><time>2026-04-05T12:04:12.793Z</time></trkpt><trkpt lat="41.5174141" lon="1.8217047"><ele>257.6666666666667</ele><time>2026-04-05T12:04:13.794Z</time></trkpt><trkpt lat="41.5175942" lon="1.8215911"><ele>261.0</ele><time>2026-04-05T12:04:14.793Z</time></trkpt><trkpt lat="41.517719" lon="1.8215052"><ele>261.0</ele><time>2026-04-05T12:04:15.794Z</time></trkpt><trkpt lat="41.5178423" lon="1.8214234"><ele>261.0</ele><time>2026-04-05T12:04:16.793Z</time></trkpt><trkpt lat="41.5179662" lon="1.8213671"><ele>261.0</ele><time>2026-04-05T12:04:17.794Z</time></trkpt><trkpt lat="41.5181048" lon="1.8213308"><ele>261.0</ele><time>2026-04-05T12:04:18.793Z</time></trkpt><trkpt lat="41.5182371" lon="1.821283"><ele>260.5</ele><time>2026-04-05T12:04:19.793Z</time></trkpt><trkpt lat="41.518371" lon="1.8212189"><ele>260.0</ele><time>2026-04-05T12:04:20.793Z</time></trkpt><trkpt lat="41.5184971" lon="1.8211439"><ele>259.5</ele><time>2026-04-05T12:04:21.793Z</time></trkpt><trkpt lat="41.5186152" lon="1.8210525"><ele>259.0</ele><time>2026-04-05T12:04:22.794Z</time></trkpt><trkpt lat="41.5187209" lon="1.8209562"><ele>260.59999999999997</ele><time>2026-04-05T12:04:23.793Z</time></trkpt><trkpt lat="41.5188044" lon="1.820851"><ele>262.2</ele><time>2026-04-05T12:04:24.793Z</time></trkpt><trkpt lat="41.5188704" lon="1.8207315"><ele>263.79999999999995</ele><time>2026-04-05T12:04:25.793Z</time></trkpt><trkpt lat="41.5189178" lon="1.8206038"><ele>265.4</ele><time>2026-04-05T12:04:26.793Z</time></trkpt><trkpt lat="41.5189559" lon="1.8204615"><ele>267.0</ele><time>2026-04-05T12:04:27.794Z</time></trkpt><trkpt lat="41.5190045" lon="1.8203344"><ele>267.0</ele><time>2026-04-05T12:04:28.793Z</time></trkpt><trkpt lat="41.5190638" lon="1.8202228"><ele>267.0</ele><time>2026-04-05T12:04:29.793Z</time></trkpt><trkpt lat="41.5191464" lon="1.820122"><ele>267.0</ele><time>2026-04-05T12:04:30.794Z</time></trkpt><trkpt lat="41.5192484" lon="1.8200377"><ele>267.0</ele><time>2026-04-05T12:04:31.793Z</time></trkpt><trkpt lat="41.5193713" lon="1.8199543"><ele>266.6666666666667</ele><time>2026-04-05T12:04:32.793Z</time></trkpt><trkpt lat="41.5195018" lon="1.81986"><ele>266.33333333333337</ele><time>2026-04-05T12:04:33.793Z</time></trkpt><trkpt lat="41.5196345" lon="1.8197642"><ele>266.0</ele><time>2026-04-05T12:04:34.793Z</time></trkpt><trkpt lat="41.519771" lon="1.8196665"><ele>266.0</ele><time>2026-04-05T12:04:35.794Z</time></trkpt><trkpt lat="41.5199062" lon="1.8195768"><ele>266.0</ele><time>2026-04-05T12:04:36.793Z</time></trkpt><trkpt lat="41.5200423" lon="1.819495"><ele>266.0</ele><time>2026-04-05T12:04:37.793Z</time></trkpt><trkpt lat="41.5201803" lon="1.8194183"><ele>266.0</ele><time>2026-04-05T12:04:38.794Z</time></trkpt><trkpt lat="41.5203259" lon="1.8193601"><ele>266.0</ele><time>2026-04-05T12:04:39.794Z</time></trkpt><trkpt lat="41.5204759" lon="1.8193225"><ele>266.0</ele><time>2026-04-05T12:04:40.794Z</time></trkpt><trkpt lat="41.5206342" lon="1.8192989"><ele>266.33333333333337</ele><time>2026-04-05T12:04:41.793Z</time></trkpt><trkpt lat="41.5207967" lon="1.8192882"><ele>266.6666666666667</ele><time>2026-04-05T12:04:42.793Z</time></trkpt><trkpt lat="41.5209557" lon="1.8192873"><ele>267.0</ele><time>2026-04-05T12:04:43.793Z</time></trkpt><trkpt lat="41.52111" lon="1.8192858"><ele>268.0</ele><time>2026-04-05T12:04:44.793Z</time></trkpt><trkpt lat="41.5212635" lon="1.8192624"><ele>269.0</ele><time>2026-04-05T12:04:45.794Z</time></trkpt><trkpt lat="41.5214037" lon="1.8192146"><ele>270.0</ele><time>2026-04-05T12:04:46.793Z</time></trkpt><trkpt lat="41.5215322" lon="1.8191613"><ele>271.0</ele><time>2026-04-05T12:04:47.794Z</time></trkpt><trkpt lat="41.5216595" lon="1.8191186"><ele>271.0</ele><time>2026-04-05T12:04:48.794Z</time></trkpt><trkpt lat="41.5217973" lon="1.8190949"><ele>271.0</ele><time>2026-04-05T12:04:49.793Z</time></trkpt><trkpt lat="41.5219468" lon="1.8190835"><ele>271.0</ele><time>2026-04-05T12:04:50.794Z</time></trkpt><trkpt lat="41.5221001" lon="1.8190785"><ele>271.0</ele><time>2026-04-05T12:04:51.794Z</time></trkpt><trkpt lat="41.5222513" lon="1.8190788"><ele>271.66666666666663</ele><time>2026-04-05T12:04:52.794Z</time></trkpt><trkpt lat="41.5223979" lon="1.8190864"><ele>272.3333333333333</ele><time>2026-04-05T12:04:53.793Z</time></trkpt><trkpt lat="41.5225478" lon="1.8191019"><ele>273.0</ele><time>2026-04-05T12:04:54.793Z</time></trkpt><trkpt lat="41.5227055" lon="1.8191277"><ele>273.0</ele><time>2026-04-05T12:04:55.794Z</time></trkpt><trkpt lat="41.5228769" lon="1.8191488"><ele>273.0</ele><time>2026-04-05T12:04:56.793Z</time></trkpt><trkpt lat="41.5230385" lon="1.819157"><ele>273.0</ele><time>2026-04-05T12:04:57.794Z</time></trkpt><trkpt lat="41.5231951" lon="1.8191649"><ele>271.5</ele><time>2026-04-05T12:04:58.793Z</time></trkpt><trkpt lat="41.5233486" lon="1.8191723"><ele>270.0</ele><time>2026-04-05T12:04:59.793Z</time></trkpt><trkpt lat="41.5234981" lon="1.8191684"><ele>268.5</ele><time>2026-04-05T12:05:00.793Z</time></trkpt><trkpt lat="41.5236421" lon="1.8191392"><ele>267.0</ele><time>2026-04-05T12:05:01.794Z</time></trkpt><trkpt lat="41.5237848" lon="1.819086"><ele>266.0</ele><time>2026-04-05T12:05:02.793Z</time></trkpt><trkpt lat="41.5239274" lon="1.8190098"><ele>265.0</ele><time>2026-04-05T12:05:03.793Z</time></trkpt><trkpt lat="41.5240675" lon="1.8189233"><ele>264.0</ele><time>2026-04-05T12:05:04.794Z</time></trkpt><trkpt lat="41.5241978" lon="1.8188361"><ele>264.0</ele><time>2026-04-05T12:05:05.794Z</time></trkpt><trkpt lat="41.5243256" lon="1.8187693"><ele>264.0</ele><time>2026-04-05T12:05:06.794Z</time></trkpt><trkpt lat="41.5244536" lon="1.8187247"><ele>264.0</ele><time>2026-04-05T12:05:07.794Z</time></trkpt><trkpt lat="41.5245778" lon="1.8186854"><ele>264.0</ele><time>2026-04-05T12:05:08.794Z</time></trkpt><trkpt lat="41.5246876" lon="1.8186543"><ele>263.6666666666667</ele><time>2026-04-05T12:05:09.793Z</time></trkpt><trkpt lat="41.5247921" lon="1.8186312"><ele>263.3333333333333</ele><time>2026-04-05T12:05:10.793Z</time></trkpt><trkpt lat="41.5248857" lon="1.8186409"><ele>263.0</ele><time>2026-04-05T12:05:11.793Z</time></trkpt><trkpt lat="41.5249661" lon="1.8186818"><ele>262.66666666666663</ele><time>2026-04-05T12:05:12.793Z</time></trkpt><trkpt lat="41.5250308" lon="1.8187343"><ele>262.3333333333333</ele><time>2026-04-05T12:05:13.793Z</time></trkpt><trkpt lat="41.5250908" lon="1.818791"><ele>262.0</ele><time>2026-04-05T12:05:14.794Z</time></trkpt><trkpt lat="41.5251503" lon="1.8188458"><ele>262.0</ele><time>2026-04-05T12:05:15.793Z</time></trkpt><trkpt lat="41.5252203" lon="1.8188968"><ele>262.0</ele><time>2026-04-05T12:05:16.793Z</time></trkpt><trkpt lat="41.5252954" lon="1.818945"><ele>262.0</ele><time>2026-04-05T12:05:17.794Z</time></trkpt><trkpt lat="41.5253774" lon="1.8189991"><ele>262.0</ele><time>2026-04-05T12:05:18.794Z</time></trkpt><trkpt lat="41.5254717" lon="1.8190624"><ele>262.0</ele><time>2026-04-05T12:05:19.793Z</time></trkpt><trkpt lat="41.5255591" lon="1.8191326"><ele>262.8333333333333</ele><time>2026-04-05T12:05:20.794Z</time></trkpt><trkpt lat="41.5256451" lon="1.8191988"><ele>263.66666666666663</ele><time>2026-04-05T12:05:21.793Z</time></trkpt><trkpt lat="41.5257319" lon="1.8192386"><ele>264.5</ele><time>2026-04-05T12:05:22.793Z</time></trkpt><trkpt lat="41.5258088" lon="1.8192453"><ele>265.3333333333333</ele><time>2026-04-05T12:05:23.793Z</time></trkpt><trkpt lat="41.5258789" lon="1.8192125"><ele>266.1666666666667</ele><time>2026-04-05T12:05:24.794Z</time></trkpt><trkpt lat="41.5259437" lon="1.8191395"><ele>267.0</ele><time>2026-04-05T12:05:25.794Z</time></trkpt><trkpt lat="41.525999" lon="1.8190224"><ele>267.0</ele><time>2026-04-05T12:05:26.794Z</time></trkpt><trkpt lat="41.5260384" lon="1.8188835"><ele>267.0</ele><time>2026-04-05T12:05:27.794Z</time></trkpt><trkpt lat="41.5260697" lon="1.8187411"><ele>267.0</ele><time>2026-04-05T12:05:28.794Z</time></trkpt><trkpt lat="41.5260973" lon="1.8185849"><ele>267.0</ele><time>2026-04-05T12:05:29.794Z</time></trkpt><trkpt lat="41.5261298" lon="1.8184076"><ele>268.0</ele><time>2026-04-05T12:05:30.794Z</time></trkpt><trkpt lat="41.5261727" lon="1.8182355"><ele>269.0</ele><time>2026-04-05T12:05:31.793Z</time></trkpt><trkpt lat="41.5262258" lon="1.8180799"><ele>270.0</ele><time>2026-04-05T12:05:32.794Z</time></trkpt><trkpt lat="41.5262973" lon="1.8179112"><ele>271.0</ele><time>2026-04-05T12:05:33.794Z</time></trkpt><trkpt lat="41.5263742" lon="1.8177505"><ele>272.0</ele><time>2026-04-05T12:05:34.794Z</time></trkpt><trkpt lat="41.5264576" lon="1.8176015"><ele>273.0</ele><time>2026-04-05T12:05:35.793Z</time></trkpt><trkpt lat="41.5265558" lon="1.8174688"><ele>274.0</ele><time>2026-04-05T12:05:36.794Z</time></trkpt><trkpt lat="41.5266699" lon="1.8173496"><ele>275.0</ele><time>2026-04-05T12:05:37.794Z</time></trkpt><trkpt lat="41.5267999" lon="1.8172279"><ele>275.0</ele><time>2026-04-05T12:05:38.793Z</time></trkpt><trkpt lat="41.5269263" lon="1.8171064"><ele>275.0</ele><time>2026-04-05T12:05:39.793Z</time></trkpt><trkpt lat="41.5270555" lon="1.8170008"><ele>275.0</ele><time>2026-04-05T12:05:40.794Z</time></trkpt><trkpt lat="41.5271738" lon="1.8169084"><ele>275.0</ele><time>2026-04-05T12:05:41.794Z</time></trkpt><trkpt lat="41.5272948" lon="1.8168321"><ele>275.0</ele><time>2026-04-05T12:05:42.793Z</time></trkpt><trkpt lat="41.5274004" lon="1.8167713"><ele>275.0</ele><time>2026-04-05T12:05:43.793Z</time></trkpt><trkpt lat="41.5275004" lon="1.8167171"><ele>275.0</ele><time>2026-04-05T12:05:44.794Z</time></trkpt><trkpt lat="41.5275947" lon="1.8166749"><ele>275.0</ele><time>2026-04-05T12:05:45.794Z</time></trkpt><trkpt lat="41.5276888" lon="1.8166341"><ele>275.0</ele><time>2026-04-05T12:05:46.794Z</time></trkpt><trkpt lat="41.5277716" lon="1.8165948"><ele>275.0</ele><time>2026-04-05T12:05:47.794Z</time></trkpt><trkpt lat="41.5278448" lon="1.8165588"><ele>275.0</ele><time>2026-04-05T12:05:48.794Z</time></trkpt><trkpt lat="41.5279168" lon="1.8165262"><ele>279.0</ele><time>2026-04-05T12:05:49.793Z</time></trkpt><trkpt lat="41.5280171" lon="1.8164844"><ele>279.0</ele><time>2026-04-05T12:05:51.794Z</time></trkpt><trkpt lat="41.528095" lon="1.8164567"><ele>279.0</ele><time>2026-04-05T12:05:53.794Z</time></trkpt><trkpt lat="41.5281745" lon="1.8164598"><ele>279.0</ele><time>2026-04-05T12:05:56.794Z</time></trkpt></trkseg></trk></gpx>